<?xml version='1.0' encoding='UTF-8'?><gpx version="1.1" creator="JPX - https://github.com/jenetics/jpx" xmlns="http://www.topografix.com/GPX/1/1"><trk><trkseg><trkpt lat="45.45129679613323" lon="10.898397769789117"><ele>97.0</ele><time>2026-04-04T11:23:29Z</time></trkpt><trkpt lat="45.45137583748041" lon="10.898369606594462"><ele>97.0</ele><time>2026-04-04T11:23:37Z</time></trkpt><trkpt lat="45.45144712556687" lon="10.898356279368416"><ele>97.0</ele><time>2026-04-04T11:23:41Z</time></trkpt><trkpt lat="45.45140622187939" lon="10.898448983217497"><ele>97.0</ele><time>2026-04-04T11:24:26.999Z</time></trkpt><trkpt lat="45.45137261044768" lon="10.898326775069252"><ele>97.0</ele><time>2026-04-04T11:24:36.999Z</time></trkpt><trkpt lat="45.45097610002842" lon="10.898133285909118"><ele>97.0</ele><time>2026-04-04T11:24:37.999Z</time></trkpt><trkpt lat="45.45123208525157" lon="10.897804492196135"><ele>97.0</ele><time>2026-04-04T11:24:39.999Z</time></trkpt><trkpt lat="45.45121865133478" lon="10.897662874513523"><ele>97.0</ele><time>2026-04-04T11:25:06.998Z</time></trkpt><trkpt lat="45.45122928076283" lon="10.897495654438657"><ele>97.0</ele><time>2026-04-04T11:25:08.998Z</time></trkpt><trkpt lat="45.45123791532158" lon="10.897309287847088"><ele>97.0</ele><time>2026-04-04T11:25:10.998Z</time></trkpt><trkpt lat="45.4512751453212" lon="10.897212452181487"><ele>97.0</ele><time>2026-04-04T11:25:11.998Z</time></trkpt><trkpt lat="45.4513939360621" lon="10.897154583605712"><ele>97.0</ele><time>2026-04-04T11:25:14.998Z</time></trkpt><trkpt lat="45.451464607845956" lon="10.89710538144599"><ele>97.0</ele><time>2026-04-04T11:25:16.998Z</time></trkpt><trkpt lat="45.4515247182032" lon="10.897265692524307"><ele>97.0</ele><time>2026-04-04T11:25:19.998Z</time></trkpt><trkpt lat="45.45157205234277" lon="10.89737926659957"><ele>97.0</ele><time>2026-04-04T11:25:20.998Z</time></trkpt><trkpt lat="45.451598150344495" lon="10.89749428735513"><ele>97.0</ele><time>2026-04-04T11:25:21.998Z</time></trkpt><trkpt lat="45.45163019447393" lon="10.897625770917564"><ele>97.0</ele><time>2026-04-04T11:25:22.998Z</time></trkpt><trkpt lat="45.45166286272897" lon="10.89777043384434"><ele>97.0</ele><time>2026-04-04T11:25:23.998Z</time></trkpt><trkpt lat="45.45168846632765" lon="10.89792775993281"><ele>97.0</ele><time>2026-04-04T11:25:24.998Z</time></trkpt><trkpt lat="45.451708929621624" lon="10.898091160782062"><ele>97.0</ele><time>2026-04-04T11:25:25.998Z</time></trkpt><trkpt lat="45.45171522716091" lon="10.898252832349026"><ele>97.0</ele><time>2026-04-04T11:25:26.998Z</time></trkpt><trkpt lat="45.45170104034893" lon="10.89839903186875"><ele>97.0</ele><time>2026-04-04T11:25:27.998Z</time></trkpt><trkpt lat="45.451659873773714" lon="10.898539347420556"><ele>97.0</ele><time>2026-04-04T11:25:28.998Z</time></trkpt><trkpt lat="45.451595543531496" lon="10.898661052206096"><ele>97.00000000000001</ele><time>2026-04-04T11:25:29.998Z</time></trkpt><trkpt lat="45.45152238186186" lon="10.898783067597265"><ele>97.0</ele><time>2026-04-04T11:25:30.998Z</time></trkpt><trkpt lat="45.45145697460767" lon="10.898900113872193"><ele>97.0</ele><time>2026-04-04T11:25:31.998Z</time></trkpt><trkpt lat="45.45140733626234" lon="10.898997178938084"><ele>97.0</ele><time>2026-04-04T11:25:33Z</time></trkpt><trkpt lat="45.45137216748142" lon="10.899090745637901"><ele>97.00000000000001</ele><time>2026-04-04T11:25:34Z</time></trkpt><trkpt lat="45.45133720903612" lon="10.899174535163382"><ele>97.0</ele><time>2026-04-04T11:25:36Z</time></trkpt><trkpt lat="45.451210581344164" lon="10.899240660111753"><ele>97.0</ele><time>2026-04-04T11:25:39Z</time></trkpt><trkpt lat="45.45111746420639" lon="10.899194681040171"><ele>97.0</ele><time>2026-04-04T11:25:40Z</time></trkpt><trkpt lat="45.45102979253876" lon="10.899186761994578"><ele>97.0</ele><time>2026-04-04T11:25:41Z</time></trkpt><trkpt lat="45.450934360614525" lon="10.899175407018065"><ele>97.0</ele><time>2026-04-04T11:25:42Z</time></trkpt><trkpt lat="45.45083380679856" lon="10.899168592329037"><ele>97.0</ele><time>2026-04-04T11:25:43Z</time></trkpt><trkpt lat="45.45073292731392" lon="10.899151017070498"><ele>97.0</ele><time>2026-04-04T11:25:44Z</time></trkpt><trkpt lat="45.45063021161118" lon="10.899131793891977"><ele>97.0</ele><time>2026-04-04T11:25:45Z</time></trkpt><trkpt lat="45.450524584802224" lon="10.899112709883468"><ele>97.0</ele><time>2026-04-04T11:25:46Z</time></trkpt><trkpt lat="45.45041398157337" lon="10.899091115224854"><ele>97.0</ele><time>2026-04-04T11:25:47Z</time></trkpt><trkpt lat="45.45030071787621" lon="10.899049357671053"><ele>97.0</ele><time>2026-04-04T11:25:48Z</time></trkpt><trkpt lat="45.45018402531031" lon="10.899023549024623"><ele>97.0</ele><time>2026-04-04T11:25:49Z</time></trkpt><trkpt lat="45.45006594888963" lon="10.89897577954006"><ele>97.0</ele><time>2026-04-04T11:25:50Z</time></trkpt><trkpt lat="45.44994922167784" lon="10.898925850111704"><ele>97.0</ele><time>2026-04-04T11:25:51Z</time></trkpt><trkpt lat="45.44982776528718" lon="10.898870450627532"><ele>97.0</ele><time>2026-04-04T11:25:52Z</time></trkpt><trkpt lat="45.44970173138167" lon="10.898817185588024"><ele>97.0</ele><time>2026-04-04T11:25:53Z</time></trkpt><trkpt lat="45.449575922310814" lon="10.898764141170416"><ele>97.0</ele><time>2026-04-04T11:25:54Z</time></trkpt><trkpt lat="45.44945130489075" lon="10.898715349057849"><ele>97.0</ele><time>2026-04-04T11:25:55Z</time></trkpt><trkpt lat="45.4493287182839" lon="10.898661971416196"><ele>97.0</ele><time>2026-04-04T11:25:56Z</time></trkpt><trkpt lat="45.44920778807741" lon="10.898611750480404"><ele>97.0</ele><time>2026-04-04T11:25:57Z</time></trkpt><trkpt lat="45.44908793678252" lon="10.898558413582602"><ele>97.0</ele><time>2026-04-04T11:25:58Z</time></trkpt><trkpt lat="45.44897025019514" lon="10.89850823672908"><ele>97.0</ele><time>2026-04-04T11:25:59Z</time></trkpt><trkpt lat="45.4488522021482" lon="10.898454644953503"><ele>97.0</ele><time>2026-04-04T11:26:00Z</time></trkpt><trkpt lat="45.448735771675715" lon="10.898411021548636"><ele>96.6</ele><time>2026-04-04T11:26:01Z</time></trkpt><trkpt lat="45.44862565439617" lon="10.89836942375816"><ele>96.19999999999999</ele><time>2026-04-04T11:26:02Z</time></trkpt><trkpt lat="45.448523860532504" lon="10.898328490999706"><ele>95.8</ele><time>2026-04-04T11:26:03Z</time></trkpt><trkpt lat="45.448440749692516" lon="10.898280189902543"><ele>95.4</ele><time>2026-04-04T11:26:04Z</time></trkpt><trkpt lat="45.44836726419994" lon="10.898218410311122"><ele>95.0</ele><time>2026-04-04T11:26:05Z</time></trkpt><trkpt lat="45.448322750095876" lon="10.898117732769505"><ele>95.0</ele><time>2026-04-04T11:26:06Z</time></trkpt><trkpt lat="45.448258437756394" lon="10.898026131028603"><ele>95.0</ele><time>2026-04-04T11:26:07Z</time></trkpt><trkpt lat="45.44822176023886" lon="10.897910234240838"><ele>95.0</ele><time>2026-04-04T11:26:08Z</time></trkpt><trkpt lat="45.44819179941896" lon="10.89781522067841"><ele>95.0</ele><time>2026-04-04T11:26:09Z</time></trkpt><trkpt lat="45.448149138668256" lon="10.897670928986404"><ele>95.0</ele><time>2026-04-04T11:26:11Z</time></trkpt><trkpt lat="45.44812037427202" lon="10.89757402086088"><ele>95.0</ele><time>2026-04-04T11:26:13Z</time></trkpt><trkpt lat="45.448063296514796" lon="10.897502400945283"><ele>94.8</ele><time>2026-04-04T11:26:15.999Z</time></trkpt><trkpt lat="45.447993340882796" lon="10.897499535148356"><ele>94.6</ele><time>2026-04-04T11:26:16.999Z</time></trkpt><trkpt lat="45.44790920824864" lon="10.897518038266483"><ele>94.4</ele><time>2026-04-04T11:26:17.999Z</time></trkpt><trkpt lat="45.44781926873581" lon="10.897541994850116"><ele>94.2</ele><time>2026-04-04T11:26:18.999Z</time></trkpt><trkpt lat="45.447716273266494" lon="10.89757486446545"><ele>94.0</ele><time>2026-04-04T11:26:19.999Z</time></trkpt><trkpt lat="45.44760018495664" lon="10.897610661576005"><ele>94.0</ele><time>2026-04-04T11:26:20.999Z</time></trkpt><trkpt lat="45.4474808648584" lon="10.897657502234463"><ele>94.0</ele><time>2026-04-04T11:26:21.999Z</time></trkpt><trkpt lat="45.44735557847294" lon="10.897706171525222"><ele>94.0</ele><time>2026-04-04T11:26:22.999Z</time></trkpt><trkpt lat="45.447225363971285" lon="10.897758114114184"><ele>94.0</ele><time>2026-04-04T11:26:23.999Z</time></trkpt><trkpt lat="45.44710242879879" lon="10.897806822973074"><ele>94.0</ele><time>2026-04-04T11:26:24.999Z</time></trkpt><trkpt lat="45.446987758459294" lon="10.897863623219692"><ele>94.0</ele><time>2026-04-04T11:26:25.999Z</time></trkpt><trkpt lat="45.44687827817487" lon="10.897911251213985"><ele>94.0</ele><time>2026-04-04T11:26:26.999Z</time></trkpt><trkpt lat="45.446780926479185" lon="10.8979479021715"><ele>94.0</ele><time>2026-04-04T11:26:27.999Z</time></trkpt><trkpt lat="45.44670092665037" lon="10.897968820733377"><ele>94.0</ele><time>2026-04-04T11:26:28.999Z</time></trkpt><trkpt lat="45.446638504120415" lon="10.89799744189195"><ele>94.0</ele><time>2026-04-04T11:26:29.999Z</time></trkpt><trkpt lat="45.44653773449151" lon="10.897812133706497"><ele>94.0</ele><time>2026-04-04T11:26:31.999Z</time></trkpt><trkpt lat="45.44649887548394" lon="10.897693745086055"><ele>94.0</ele><time>2026-04-04T11:26:32.999Z</time></trkpt><trkpt lat="45.446521307304515" lon="10.897514084644877"><ele>94.0</ele><time>2026-04-04T11:26:33.999Z</time></trkpt><trkpt lat="45.44651440076168" lon="10.897340760920581"><ele>94.0</ele><time>2026-04-04T11:26:34.999Z</time></trkpt><trkpt lat="45.44650502297429" lon="10.897158832694805"><ele>94.0</ele><time>2026-04-04T11:26:35.999Z</time></trkpt><trkpt lat="45.44650173644392" lon="10.89697107594612"><ele>94.0</ele><time>2026-04-04T11:26:36.999Z</time></trkpt><trkpt lat="45.446493404138984" lon="10.896780430570974"><ele>94.0</ele><time>2026-04-04T11:26:37.999Z</time></trkpt><trkpt lat="45.44649044962225" lon="10.896582001762983"><ele>94.66666666666666</ele><time>2026-04-04T11:26:38.999Z</time></trkpt><trkpt lat="45.446492906600284" lon="10.896377199526155"><ele>95.33333333333333</ele><time>2026-04-04T11:26:39.999Z</time></trkpt><trkpt lat="45.44649410158094" lon="10.896165851976843"><ele>96.0</ele><time>2026-04-04T11:26:40.999Z</time></trkpt><trkpt lat="45.446493445302515" lon="10.895940462997432"><ele>96.0</ele><time>2026-04-04T11:26:41.999Z</time></trkpt><trkpt lat="45.446491431886805" lon="10.895714802658572"><ele>96.0</ele><time>2026-04-04T11:26:42.999Z</time></trkpt><trkpt lat="45.446487776089334" lon="10.895472550451618"><ele>96.0</ele><time>2026-04-04T11:26:43.999Z</time></trkpt><trkpt lat="45.44648526703165" lon="10.895228970843515"><ele>95.66666666666667</ele><time>2026-04-04T11:26:44.999Z</time></trkpt><trkpt lat="45.44648928284435" lon="10.894979384373288"><ele>95.33333333333334</ele><time>2026-04-04T11:26:45.999Z</time></trkpt><trkpt lat="45.44649405537067" lon="10.894724630760106"><ele>95.0</ele><time>2026-04-04T11:26:46.999Z</time></trkpt><trkpt lat="45.446511022811826" lon="10.894465863055467"><ele>95.66666666666667</ele><time>2026-04-04T11:26:47.999Z</time></trkpt><trkpt lat="45.44653838440329" lon="10.894205292677611"><ele>96.33333333333334</ele><time>2026-04-04T11:26:48.999Z</time></trkpt><trkpt lat="45.446563897868764" lon="10.893939848794991"><ele>97.0</ele><time>2026-04-04T11:26:49.999Z</time></trkpt><trkpt lat="45.44658492579287" lon="10.893674565867022"><ele>96.33333333333334</ele><time>2026-04-04T11:26:50.999Z</time></trkpt><trkpt lat="45.44661034665839" lon="10.89340575604821"><ele>95.66666666666667</ele><time>2026-04-04T11:26:51.999Z</time></trkpt><trkpt lat="45.44662653052886" lon="10.893136814887322"><ele>95.0</ele><time>2026-04-04T11:26:52.999Z</time></trkpt><trkpt lat="45.44663938816174" lon="10.892865050539498"><ele>95.0</ele><time>2026-04-04T11:26:53.999Z</time></trkpt><trkpt lat="45.44664911168884" lon="10.892593422340704"><ele>95.0</ele><time>2026-04-04T11:26:54.999Z</time></trkpt><trkpt lat="45.44665694666472" lon="10.892316959190003"><ele>95.0</ele><time>2026-04-04T11:26:55.999Z</time></trkpt><trkpt lat="45.446660474228565" lon="10.892044536428294"><ele>95.33333333333334</ele><time>2026-04-04T11:26:56.999Z</time></trkpt><trkpt lat="45.44666335591323" lon="10.891769878095772"><ele>95.66666666666667</ele><time>2026-04-04T11:26:57.999Z</time></trkpt><trkpt lat="45.44666477348186" lon="10.891494041989567"><ele>96.0</ele><time>2026-04-04T11:26:58.999Z</time></trkpt><trkpt lat="45.44667044771249" lon="10.891221854109835"><ele>95.66666666666667</ele><time>2026-04-04T11:26:59.999Z</time></trkpt><trkpt lat="45.4466738832848" lon="10.890949828504688"><ele>95.33333333333334</ele><time>2026-04-04T11:27:00.999Z</time></trkpt><trkpt lat="45.44668114087775" lon="10.890683739530939"><ele>95.0</ele><time>2026-04-04T11:27:01.999Z</time></trkpt><trkpt lat="45.44668200346842" lon="10.890436330204528"><ele>95.0</ele><time>2026-04-04T11:27:02.999Z</time></trkpt><trkpt lat="45.44669660677545" lon="10.890195428295078"><ele>95.0</ele><time>2026-04-04T11:27:03.999Z</time></trkpt><trkpt lat="45.44671203589046" lon="10.889977693579107"><ele>95.0</ele><time>2026-04-04T11:27:04.999Z</time></trkpt><trkpt lat="45.44672016372724" lon="10.889777759401527"><ele>95.25</ele><time>2026-04-04T11:27:05.999Z</time></trkpt><trkpt lat="45.44672619486147" lon="10.889592206211358"><ele>95.5</ele><time>2026-04-04T11:27:06.999Z</time></trkpt><trkpt lat="45.446731608187775" lon="10.889419992291968"><ele>95.75</ele><time>2026-04-04T11:27:07.999Z</time></trkpt><trkpt lat="45.44673893090251" lon="10.88926041173182"><ele>96.0</ele><time>2026-04-04T11:27:08.998Z</time></trkpt><trkpt lat="45.44675974126417" lon="10.889115051911196"><ele>96.19999999999999</ele><time>2026-04-04T11:27:09.998Z</time></trkpt><trkpt lat="45.44679044971145" lon="10.888983265455948"><ele>96.39999999999999</ele><time>2026-04-04T11:27:10.998Z</time></trkpt><trkpt lat="45.446856774747786" lon="10.888858088149954"><ele>96.6</ele><time>2026-04-04T11:27:11.998Z</time></trkpt><trkpt lat="45.44694067047864" lon="10.88877986328304"><ele>96.8</ele><time>2026-04-04T11:27:12.998Z</time></trkpt><trkpt lat="45.447034421933694" lon="10.888733982724103"><ele>97.0</ele><time>2026-04-04T11:27:13.998Z</time></trkpt><trkpt lat="45.447149765807424" lon="10.888719046616382"><ele>97.0</ele><time>2026-04-04T11:27:14.998Z</time></trkpt><trkpt lat="45.44727687116147" lon="10.88874004846744"><ele>97.0</ele><time>2026-04-04T11:27:15.998Z</time></trkpt><trkpt lat="45.447407485082884" lon="10.888790538692351"><ele>97.0</ele><time>2026-04-04T11:27:16.998Z</time></trkpt><trkpt lat="45.44752404316065" lon="10.888833530454093"><ele>97.0</ele><time>2026-04-04T11:27:17.998Z</time></trkpt><trkpt lat="45.44762754947772" lon="10.888864405491995"><ele>97.0</ele><time>2026-04-04T11:27:18.998Z</time></trkpt><trkpt lat="45.44772072031809" lon="10.888908249224077"><ele>97.0</ele><time>2026-04-04T11:27:19.998Z</time></trkpt><trkpt lat="45.447789849318696" lon="10.88899465721181"><ele>97.0</ele><time>2026-04-04T11:27:20.998Z</time></trkpt><trkpt lat="45.44782848351002" lon="10.889114090532384"><ele>97.0</ele><time>2026-04-04T11:27:21.998Z</time></trkpt><trkpt lat="45.44782162876392" lon="10.889244750306263"><ele>97.0</ele><time>2026-04-04T11:27:22.998Z</time></trkpt><trkpt lat="45.44776762661888" lon="10.889375624266531"><ele>96.5</ele><time>2026-04-04T11:27:23.998Z</time></trkpt><trkpt lat="45.447662755301" lon="10.889470072370449"><ele>96.0</ele><time>2026-04-04T11:27:24.998Z</time></trkpt><trkpt lat="45.44756484580096" lon="10.889618099850846"><ele>95.5</ele><time>2026-04-04T11:27:25.998Z</time></trkpt><trkpt lat="45.447433343259426" lon="10.889779625438386"><ele>95.0</ele><time>2026-04-04T11:27:26.998Z</time></trkpt><trkpt lat="45.44729578033123" lon="10.889973013171398"><ele>95.0</ele><time>2026-04-04T11:27:27.998Z</time></trkpt><trkpt lat="45.447141816982835" lon="10.89017999859622"><ele>95.0</ele><time>2026-04-04T11:27:28.998Z</time></trkpt><trkpt lat="45.44697439329587" lon="10.890392108442878"><ele>95.0</ele><time>2026-04-04T11:27:29.998Z</time></trkpt><trkpt lat="45.44678786680903" lon="10.890604321742945"><ele>95.0</ele><time>2026-04-04T11:27:30.998Z</time></trkpt><trkpt lat="45.44659914379649" lon="10.890828718097985"><ele>95.0</ele><time>2026-04-04T11:27:31.998Z</time></trkpt><trkpt lat="45.44640348343841" lon="10.891050925737838"><ele>94.5</ele><time>2026-04-04T11:27:32.998Z</time></trkpt><trkpt lat="45.44619416134446" lon="10.891263949928046"><ele>94.0</ele><time>2026-04-04T11:27:33.998Z</time></trkpt><trkpt lat="45.44597731603093" lon="10.891455662317869"><ele>94.0</ele><time>2026-04-04T11:27:34.998Z</time></trkpt><trkpt lat="45.44575485802906" lon="10.891628522065874"><ele>94.0</ele><time>2026-04-04T11:27:35.998Z</time></trkpt><trkpt lat="45.44552472795665" lon="10.891780437069771"><ele>93.5</ele><time>2026-04-04T11:27:36.998Z</time></trkpt><trkpt lat="45.445290546692604" lon="10.891923802129659"><ele>93.0</ele><time>2026-04-04T11:27:37.998Z</time></trkpt><trkpt lat="45.44505572151768" lon="10.892059506037858"><ele>93.0</ele><time>2026-04-04T11:27:39Z</time></trkpt><trkpt lat="45.44482038012937" lon="10.892195029324663"><ele>93.0</ele><time>2026-04-04T11:27:40Z</time></trkpt><trkpt lat="45.44458576111715" lon="10.892335747942067"><ele>92.5</ele><time>2026-04-04T11:27:41Z</time></trkpt><trkpt lat="45.4443546068529" lon="10.89248367553256"><ele>92.0</ele><time>2026-04-04T11:27:42Z</time></trkpt><trkpt lat="45.444122263276384" lon="10.892623713047982"><ele>91.0</ele><time>2026-04-04T11:27:43Z</time></trkpt><trkpt lat="45.44389835630262" lon="10.892771814093505"><ele>90.0</ele><time>2026-04-04T11:27:44Z</time></trkpt><trkpt lat="45.443685508098504" lon="10.89293604422631"><ele>90.0</ele><time>2026-04-04T11:27:45Z</time></trkpt><trkpt lat="45.443488264132704" lon="10.893110041885887"><ele>90.0</ele><time>2026-04-04T11:27:46Z</time></trkpt><trkpt lat="45.443321994474644" lon="10.893304962353005"><ele>90.0</ele><time>2026-04-04T11:27:47Z</time></trkpt><trkpt lat="45.443168513039105" lon="10.893513781507876"><ele>90.0</ele><time>2026-04-04T11:27:48Z</time></trkpt><trkpt lat="45.44302260041534" lon="10.893732310176347"><ele>90.0</ele><time>2026-04-04T11:27:49Z</time></trkpt><trkpt lat="45.44287498329503" lon="10.893963192319275"><ele>90.0</ele><time>2026-04-04T11:27:50Z</time></trkpt><trkpt lat="45.4427224998139" lon="10.894195430228608"><ele>90.0</ele><time>2026-04-04T11:27:51Z</time></trkpt><trkpt lat="45.44256330612825" lon="10.894430295425915"><ele>90.0</ele><time>2026-04-04T11:27:52Z</time></trkpt><trkpt lat="45.44240293118272" lon="10.894667654056544"><ele>90.0</ele><time>2026-04-04T11:27:53Z</time></trkpt><trkpt lat="45.44223550244018" lon="10.89491171778201"><ele>90.0</ele><time>2026-04-04T11:27:54Z</time></trkpt><trkpt lat="45.44206612180998" lon="10.895165463820359"><ele>90.5</ele><time>2026-04-04T11:27:55Z</time></trkpt><trkpt lat="45.44189411538121" lon="10.895423855932266"><ele>91.0</ele><time>2026-04-04T11:27:56Z</time></trkpt><trkpt lat="45.44171986043181" lon="10.89568226768034"><ele>91.0</ele><time>2026-04-04T11:27:57Z</time></trkpt><trkpt lat="45.44154082732096" lon="10.895947006315405"><ele>91.0</ele><time>2026-04-04T11:27:58Z</time></trkpt><trkpt lat="45.44136137889759" lon="10.896209966828067"><ele>91.0</ele><time>2026-04-04T11:27:59Z</time></trkpt><trkpt lat="45.441176383552765" lon="10.896470796284202"><ele>91.0</ele><time>2026-04-04T11:28:00Z</time></trkpt><trkpt lat="45.44098711125197" lon="10.896724377767868"><ele>90.0</ele><time>2026-04-04T11:28:01Z</time></trkpt><trkpt lat="45.44079785705377" lon="10.896983469152612"><ele>89.0</ele><time>2026-04-04T11:28:02Z</time></trkpt><trkpt lat="45.44061736203063" lon="10.89724887608688"><ele>90.0</ele><time>2026-04-04T11:28:03Z</time></trkpt><trkpt lat="45.4404409777214" lon="10.897521360030078"><ele>91.0</ele><time>2026-04-04T11:28:04Z</time></trkpt><trkpt lat="45.44025664857298" lon="10.897794469657597"><ele>91.0</ele><time>2026-04-04T11:28:05Z</time></trkpt><trkpt lat="45.440073223575986" lon="10.898064189621662"><ele>91.0</ele><time>2026-04-04T11:28:06Z</time></trkpt><trkpt lat="45.439885763474564" lon="10.898337447288677"><ele>91.0</ele><time>2026-04-04T11:28:07Z</time></trkpt><trkpt lat="45.439703565390346" lon="10.898606132475184"><ele>91.0</ele><time>2026-04-04T11:28:08Z</time></trkpt><trkpt lat="45.439529111255816" lon="10.898867633250722"><ele>91.5</ele><time>2026-04-04T11:28:09Z</time></trkpt><trkpt lat="45.439354130632026" lon="10.899130921626728"><ele>92.0</ele><time>2026-04-04T11:28:10Z</time></trkpt><trkpt lat="45.43918892054963" lon="10.899388959114964"><ele>90.5</ele><time>2026-04-04T11:28:11Z</time></trkpt><trkpt lat="45.439013438789516" lon="10.899640833111556"><ele>89.0</ele><time>2026-04-04T11:28:12Z</time></trkpt><trkpt lat="45.43884012667181" lon="10.899893956642194"><ele>89.5</ele><time>2026-04-04T11:28:13Z</time></trkpt><trkpt lat="45.43867566697899" lon="10.900143046631758"><ele>90.0</ele><time>2026-04-04T11:28:14Z</time></trkpt><trkpt lat="45.43851245969051" lon="10.900388229146767"><ele>90.0</ele><time>2026-04-04T11:28:15Z</time></trkpt><trkpt lat="45.43834334759487" lon="10.900634456249229"><ele>90.0</ele><time>2026-04-04T11:28:16Z</time></trkpt><trkpt lat="45.43817587934521" lon="10.900885061345901"><ele>90.5</ele><time>2026-04-04T11:28:17Z</time></trkpt><trkpt lat="45.43800427354178" lon="10.901135909819242"><ele>91.0</ele><time>2026-04-04T11:28:18Z</time></trkpt><trkpt lat="45.43783428478751" lon="10.901391377895678"><ele>91.0</ele><time>2026-04-04T11:28:19Z</time></trkpt><trkpt lat="45.43766186344194" lon="10.901646316365854"><ele>91.0</ele><time>2026-04-04T11:28:19.999Z</time></trkpt><trkpt lat="45.437490953658624" lon="10.901904334482035"><ele>90.0</ele><time>2026-04-04T11:28:20.999Z</time></trkpt><trkpt lat="45.43731408180225" lon="10.902163495717861"><ele>89.0</ele><time>2026-04-04T11:28:21.999Z</time></trkpt><trkpt lat="45.437142904344654" lon="10.902426679044202"><ele>89.0</ele><time>2026-04-04T11:28:22.999Z</time></trkpt><trkpt lat="45.436966859906995" lon="10.902687046714135"><ele>89.0</ele><time>2026-04-04T11:28:23.999Z</time></trkpt><trkpt lat="45.43678858820072" lon="10.902947637102361"><ele>89.0</ele><time>2026-04-04T11:28:24.999Z</time></trkpt><trkpt lat="45.436612275417595" lon="10.903204367521903"><ele>89.0</ele><time>2026-04-04T11:28:25.999Z</time></trkpt><trkpt lat="45.43643944927314" lon="10.903458970291386"><ele>90.5</ele><time>2026-04-04T11:28:26.999Z</time></trkpt><trkpt lat="45.43626569865677" lon="10.903711654445509"><ele>92.0</ele><time>2026-04-04T11:28:27.999Z</time></trkpt><trkpt lat="45.4360971140902" lon="10.90396591778885"><ele>92.0</ele><time>2026-04-04T11:28:28.999Z</time></trkpt><trkpt lat="45.43593326870047" lon="10.904203543857989"><ele>92.0</ele><time>2026-04-04T11:28:29.999Z</time></trkpt><trkpt lat="45.43578206117725" lon="10.904422652655855"><ele>92.0</ele><time>2026-04-04T11:28:30.999Z</time></trkpt><trkpt lat="45.43564068314453" lon="10.904626678268848"><ele>91.33333333333334</ele><time>2026-04-04T11:28:31.999Z</time></trkpt><trkpt lat="45.43550504239564" lon="10.90482261911891"><ele>90.66666666666667</ele><time>2026-04-04T11:28:32.999Z</time></trkpt><trkpt lat="45.435372317670854" lon="10.905014855259417"><ele>90.0</ele><time>2026-04-04T11:28:33.999Z</time></trkpt><trkpt lat="45.43524437947407" lon="10.905205373850785"><ele>89.33333333333333</ele><time>2026-04-04T11:28:34.999Z</time></trkpt><trkpt lat="45.43512608285445" lon="10.905377242776993"><ele>88.66666666666666</ele><time>2026-04-04T11:28:35.999Z</time></trkpt><trkpt lat="45.43498993776809" lon="10.905521476701471"><ele>88.0</ele><time>2026-04-04T11:28:36.999Z</time></trkpt><trkpt lat="45.434842684153665" lon="10.905636777064988"><ele>88.0</ele><time>2026-04-04T11:28:37.999Z</time></trkpt><trkpt lat="45.434679358433584" lon="10.905724292381176"><ele>88.0</ele><time>2026-04-04T11:28:38.999Z</time></trkpt><trkpt lat="45.434509073325856" lon="10.90579558106078"><ele>88.0</ele><time>2026-04-04T11:28:39.999Z</time></trkpt><trkpt lat="45.4343366346577" lon="10.905876289465278"><ele>88.66666666666666</ele><time>2026-04-04T11:28:40.999Z</time></trkpt><trkpt lat="45.43417171736163" lon="10.905988199856981"><ele>89.33333333333333</ele><time>2026-04-04T11:28:41.999Z</time></trkpt><trkpt lat="45.43401500552182" lon="10.906134108124458"><ele>90.0</ele><time>2026-04-04T11:28:42.999Z</time></trkpt><trkpt lat="45.433866447964164" lon="10.9062953974614"><ele>89.33333333333333</ele><time>2026-04-04T11:28:43.999Z</time></trkpt><trkpt lat="45.433732077429326" lon="10.906473618951727"><ele>88.66666666666666</ele><time>2026-04-04T11:28:44.999Z</time></trkpt><trkpt lat="45.43361847532036" lon="10.906673102153539"><ele>88.0</ele><time>2026-04-04T11:28:45.999Z</time></trkpt><trkpt lat="45.43352027389407" lon="10.906896123881632"><ele>87.66666666666666</ele><time>2026-04-04T11:28:46.999Z</time></trkpt><trkpt lat="45.4334341602742" lon="10.90712853716697"><ele>87.33333333333333</ele><time>2026-04-04T11:28:47.999Z</time></trkpt><trkpt lat="45.43334319322106" lon="10.907360520036484"><ele>87.0</ele><time>2026-04-04T11:28:48.999Z</time></trkpt><trkpt lat="45.43324730215953" lon="10.907589683633477"><ele>87.0</ele><time>2026-04-04T11:28:49.999Z</time></trkpt><trkpt lat="45.43314060849157" lon="10.90780568711959"><ele>87.0</ele><time>2026-04-04T11:28:50.999Z</time></trkpt><trkpt lat="45.43302309461574" lon="10.908006373225508"><ele>87.0</ele><time>2026-04-04T11:28:51.999Z</time></trkpt><trkpt lat="45.43289464946249" lon="10.908191591156832"><ele>87.0</ele><time>2026-04-04T11:28:52.999Z</time></trkpt><trkpt lat="45.43275866361977" lon="10.90835958645515"><ele>87.0</ele><time>2026-04-04T11:28:53.999Z</time></trkpt><trkpt lat="45.432620912610474" lon="10.908511904877978"><ele>87.0</ele><time>2026-04-04T11:28:54.999Z</time></trkpt><trkpt lat="45.432483491262936" lon="10.908654115060763"><ele>87.0</ele><time>2026-04-04T11:28:55.999Z</time></trkpt><trkpt lat="45.43233120442149" lon="10.90878071800457"><ele>87.0</ele><time>2026-04-04T11:28:56.999Z</time></trkpt><trkpt lat="45.43216505980473" lon="10.908895197777754"><ele>87.0</ele><time>2026-04-04T11:28:57.999Z</time></trkpt><trkpt lat="45.43199389347733" lon="10.909005759776441"><ele>86.33333333333333</ele><time>2026-04-04T11:28:58.999Z</time></trkpt><trkpt lat="45.431822810312084" lon="10.909123593141352"><ele>85.66666666666666</ele><time>2026-04-04T11:28:59.999Z</time></trkpt><trkpt lat="45.431653304834526" lon="10.909248123687993"><ele>85.0</ele><time>2026-04-04T11:29:00.999Z</time></trkpt><trkpt lat="45.43149130232807" lon="10.90936414788758"><ele>85.0</ele><time>2026-04-04T11:29:01.999Z</time></trkpt><trkpt lat="45.43133875641301" lon="10.909472701692833"><ele>85.0</ele><time>2026-04-04T11:29:02.999Z</time></trkpt><trkpt lat="45.43118430199285" lon="10.909578640935415"><ele>85.0</ele><time>2026-04-04T11:29:03.999Z</time></trkpt><trkpt lat="45.43102833627435" lon="10.90969083496909"><ele>84.33333333333333</ele><time>2026-04-04T11:29:04.999Z</time></trkpt><trkpt lat="45.43086535296199" lon="10.909804347044497"><ele>83.66666666666667</ele><time>2026-04-04T11:29:05.999Z</time></trkpt><trkpt lat="45.43070129949754" lon="10.909913551463019"><ele>83.0</ele><time>2026-04-04T11:29:06.999Z</time></trkpt><trkpt lat="45.43053779573363" lon="10.910025135407416"><ele>82.33333333333334</ele><time>2026-04-04T11:29:07.999Z</time></trkpt><trkpt lat="45.43039807911914" lon="10.91019724264247"><ele>81.66666666666667</ele><time>2026-04-04T11:29:08.999Z</time></trkpt><trkpt lat="45.43022188844028" lon="10.910293584263378"><ele>81.0</ele><time>2026-04-04T11:29:09.999Z</time></trkpt><trkpt lat="45.430058792333014" lon="10.910407939969641"><ele>81.0</ele><time>2026-04-04T11:29:10.999Z</time></trkpt><trkpt lat="45.429901024447325" lon="10.910522751196497"><ele>81.0</ele><time>2026-04-04T11:29:11.999Z</time></trkpt><trkpt lat="45.42976137101742" lon="10.910633124947056"><ele>81.0</ele><time>2026-04-04T11:29:12.998Z</time></trkpt><trkpt lat="45.42963606823334" lon="10.910742282020584"><ele>81.0</ele><time>2026-04-04T11:29:13.998Z</time></trkpt><trkpt lat="45.42951076084669" lon="10.910871571635786"><ele>81.0</ele><time>2026-04-04T11:29:14.998Z</time></trkpt><trkpt lat="45.42939073097034" lon="10.911030544729618"><ele>81.0</ele><time>2026-04-04T11:29:15.998Z</time></trkpt><trkpt lat="45.42926972496607" lon="10.911199176366672"><ele>81.0</ele><time>2026-04-04T11:29:16.998Z</time></trkpt><trkpt lat="45.429160431021934" lon="10.911389216051427"><ele>81.0</ele><time>2026-04-04T11:29:17.998Z</time></trkpt><trkpt lat="45.42905194804034" lon="10.911597113798766"><ele>81.0</ele><time>2026-04-04T11:29:18.998Z</time></trkpt><trkpt lat="45.42895693484515" lon="10.911819497775529"><ele>80.66666666666667</ele><time>2026-04-04T11:29:19.998Z</time></trkpt><trkpt lat="45.42887066513813" lon="10.912061789948105"><ele>80.33333333333334</ele><time>2026-04-04T11:29:20.998Z</time></trkpt><trkpt lat="45.42879636016124" lon="10.912308631726598"><ele>80.0</ele><time>2026-04-04T11:29:21.998Z</time></trkpt><trkpt lat="45.42873259893191" lon="10.912558787195008"><ele>79.66666666666667</ele><time>2026-04-04T11:29:22.998Z</time></trkpt><trkpt lat="45.428669015320054" lon="10.91280731350626"><ele>79.33333333333333</ele><time>2026-04-04T11:29:23.998Z</time></trkpt><trkpt lat="45.428605634995584" lon="10.913047474147408"><ele>79.0</ele><time>2026-04-04T11:29:24.998Z</time></trkpt><trkpt lat="45.42853759362014" lon="10.913283936741244"><ele>78.66666666666666</ele><time>2026-04-04T11:29:25.998Z</time></trkpt><trkpt lat="45.42847463928158" lon="10.913508881538608"><ele>78.33333333333333</ele><time>2026-04-04T11:29:26.998Z</time></trkpt><trkpt lat="45.42840357862756" lon="10.913718507357514"><ele>78.0</ele><time>2026-04-04T11:29:27.998Z</time></trkpt><trkpt lat="45.42832038938814" lon="10.913907999686849"><ele>78.0</ele><time>2026-04-04T11:29:28.998Z</time></trkpt><trkpt lat="45.428214023050714" lon="10.914077717715411"><ele>78.0</ele><time>2026-04-04T11:29:29.998Z</time></trkpt><trkpt lat="45.428087298771416" lon="10.914215117996598"><ele>78.0</ele><time>2026-04-04T11:29:30.998Z</time></trkpt><trkpt lat="45.42793646244649" lon="10.914321261795537"><ele>77.66666666666667</ele><time>2026-04-04T11:29:31.998Z</time></trkpt><trkpt lat="45.42776825509577" lon="10.914394246279711"><ele>77.33333333333334</ele><time>2026-04-04T11:29:32.998Z</time></trkpt><trkpt lat="45.42759489273309" lon="10.91444540978494"><ele>77.0</ele><time>2026-04-04T11:29:33.998Z</time></trkpt><trkpt lat="45.427417737669714" lon="10.91449424204557"><ele>77.0</ele><time>2026-04-04T11:29:34.998Z</time></trkpt><trkpt lat="45.42723231432831" lon="10.91455283617129"><ele>77.0</ele><time>2026-04-04T11:29:35.998Z</time></trkpt><trkpt lat="45.42703807576501" lon="10.914614127144885"><ele>77.0</ele><time>2026-04-04T11:29:36.998Z</time></trkpt><trkpt lat="45.42681834707503" lon="10.914648350155282"><ele>77.0</ele><time>2026-04-04T11:29:37.998Z</time></trkpt><trkpt lat="45.426622667312756" lon="10.91469597029419"><ele>77.0</ele><time>2026-04-04T11:29:38.998Z</time></trkpt><trkpt lat="45.42641111238859" lon="10.9147220419663"><ele>77.0</ele><time>2026-04-04T11:29:39.998Z</time></trkpt><trkpt lat="45.42619450189284" lon="10.914730480771178"><ele>76.66666666666667</ele><time>2026-04-04T11:29:40.998Z</time></trkpt><trkpt lat="45.42597687940771" lon="10.914728543068366"><ele>76.33333333333333</ele><time>2026-04-04T11:29:41.998Z</time></trkpt><trkpt lat="45.42575992814121" lon="10.914708480323306"><ele>76.0</ele><time>2026-04-04T11:29:42.998Z</time></trkpt><trkpt lat="45.42554740770122" lon="10.91470345662347"><ele>75.33333333333333</ele><time>2026-04-04T11:29:43.998Z</time></trkpt><trkpt lat="45.425332422570854" lon="10.914703081818383"><ele>74.66666666666667</ele><time>2026-04-04T11:29:45Z</time></trkpt><trkpt lat="45.42511867388119" lon="10.914700691901782"><ele>74.0</ele><time>2026-04-04T11:29:46Z</time></trkpt><trkpt lat="45.42490528644075" lon="10.914697508547992"><ele>74.0</ele><time>2026-04-04T11:29:47Z</time></trkpt><trkpt lat="45.42468888619147" lon="10.914687342413144"><ele>74.0</ele><time>2026-04-04T11:29:48Z</time></trkpt><trkpt lat="45.42447171092437" lon="10.91467813861878"><ele>74.0</ele><time>2026-04-04T11:29:49Z</time></trkpt><trkpt lat="45.424253450522286" lon="10.914672232643458"><ele>74.33333333333334</ele><time>2026-04-04T11:29:50Z</time></trkpt><trkpt lat="45.424026924210764" lon="10.914671170310365"><ele>74.66666666666667</ele><time>2026-04-04T11:29:51Z</time></trkpt><trkpt lat="45.42381073211466" lon="10.914668433689313"><ele>75.0</ele><time>2026-04-04T11:29:52Z</time></trkpt><trkpt lat="45.423589525460834" lon="10.914663690895983"><ele>75.33333333333333</ele><time>2026-04-04T11:29:53Z</time></trkpt><trkpt lat="45.42336480162433" lon="10.91466621113216"><ele>75.66666666666666</ele><time>2026-04-04T11:29:54Z</time></trkpt><trkpt lat="45.42314517585263" lon="10.914661980105496"><ele>76.0</ele><time>2026-04-04T11:29:55Z</time></trkpt><trkpt lat="45.422921206486826" lon="10.914661754905454"><ele>74.5</ele><time>2026-04-04T11:29:56Z</time></trkpt><trkpt lat="45.42269388884387" lon="10.914650122567862"><ele>73.0</ele><time>2026-04-04T11:29:57Z</time></trkpt><trkpt lat="45.422469285083174" lon="10.914650838483068"><ele>73.0</ele><time>2026-04-04T11:29:58Z</time></trkpt><trkpt lat="45.42224720575301" lon="10.914645840473005"><ele>73.0</ele><time>2026-04-04T11:29:59Z</time></trkpt><trkpt lat="45.422021488672556" lon="10.914644860046932"><ele>73.0</ele><time>2026-04-04T11:30:00Z</time></trkpt><trkpt lat="45.421796389033524" lon="10.914641243203652"><ele>73.0</ele><time>2026-04-04T11:30:01Z</time></trkpt><trkpt lat="45.4215715677597" lon="10.914639292017958"><ele>73.0</ele><time>2026-04-04T11:30:02Z</time></trkpt><trkpt lat="45.421347872062405" lon="10.91464620077874"><ele>73.0</ele><time>2026-04-04T11:30:03Z</time></trkpt><trkpt lat="45.4211193547973" lon="10.914633000350454"><ele>73.5</ele><time>2026-04-04T11:30:04Z</time></trkpt><trkpt lat="45.42089566264646" lon="10.914613753827732"><ele>74.0</ele><time>2026-04-04T11:30:05Z</time></trkpt><trkpt lat="45.4206685833718" lon="10.914614059028299"><ele>73.5</ele><time>2026-04-04T11:30:06Z</time></trkpt><trkpt lat="45.42044080107895" lon="10.914612354222132"><ele>73.0</ele><time>2026-04-04T11:30:07Z</time></trkpt><trkpt lat="45.42021346774654" lon="10.914606381218416"><ele>73.0</ele><time>2026-04-04T11:30:08Z</time></trkpt><trkpt lat="45.41998587266273" lon="10.914604117609278"><ele>73.0</ele><time>2026-04-04T11:30:09Z</time></trkpt><trkpt lat="45.419759405365006" lon="10.914599626637743"><ele>73.5</ele><time>2026-04-04T11:30:10Z</time></trkpt><trkpt lat="45.41953094295289" lon="10.914592693718834"><ele>74.0</ele><time>2026-04-04T11:30:11Z</time></trkpt><trkpt lat="45.41930315877656" lon="10.914592379404397"><ele>74.0</ele><time>2026-04-04T11:30:12Z</time></trkpt><trkpt lat="45.41907681495416" lon="10.914591858270013"><ele>74.0</ele><time>2026-04-04T11:30:13Z</time></trkpt><trkpt lat="45.4188491972663" lon="10.914584383083698"><ele>74.0</ele><time>2026-04-04T11:30:14Z</time></trkpt><trkpt lat="45.41862169739941" lon="10.914576719432652"><ele>74.0</ele><time>2026-04-04T11:30:15Z</time></trkpt><trkpt lat="45.4183948726729" lon="10.914572481905463"><ele>74.0</ele><time>2026-04-04T11:30:16Z</time></trkpt><trkpt lat="45.41817025381057" lon="10.914565976190058"><ele>74.0</ele><time>2026-04-04T11:30:17Z</time></trkpt><trkpt lat="45.41794414110882" lon="10.91455074018649"><ele>74.0</ele><time>2026-04-04T11:30:18Z</time></trkpt><trkpt lat="45.4177196829757" lon="10.914557933406954"><ele>74.0</ele><time>2026-04-04T11:30:19Z</time></trkpt><trkpt lat="45.417493309527046" lon="10.91455807842764"><ele>74.0</ele><time>2026-04-04T11:30:20Z</time></trkpt><trkpt lat="45.41726390244097" lon="10.914553222865194"><ele>74.0</ele><time>2026-04-04T11:30:21Z</time></trkpt><trkpt lat="45.41703808492211" lon="10.914565531476576"><ele>74.5</ele><time>2026-04-04T11:30:22Z</time></trkpt><trkpt lat="45.4168130368136" lon="10.914582437990589"><ele>75.0</ele><time>2026-04-04T11:30:23Z</time></trkpt><trkpt lat="45.416586002829156" lon="10.914603248858688"><ele>75.0</ele><time>2026-04-04T11:30:24Z</time></trkpt><trkpt lat="45.416360268004844" lon="10.914626137470401"><ele>75.0</ele><time>2026-04-04T11:30:24.999Z</time></trkpt><trkpt lat="45.41613029031376" lon="10.914648605528726"><ele>75.0</ele><time>2026-04-04T11:30:25.999Z</time></trkpt><trkpt lat="45.41590681407081" lon="10.914680760543781"><ele>75.0</ele><time>2026-04-04T11:30:26.999Z</time></trkpt><trkpt lat="45.41568228327205" lon="10.914719907670223"><ele>74.5</ele><time>2026-04-04T11:30:27.999Z</time></trkpt><trkpt lat="45.415461569443394" lon="10.914761372602367"><ele>74.0</ele><time>2026-04-04T11:30:28.999Z</time></trkpt><trkpt lat="45.41523167849891" lon="10.914801987636928"><ele>74.0</ele><time>2026-04-04T11:30:29.999Z</time></trkpt><trkpt lat="45.415004897063746" lon="10.91484503628624"><ele>74.0</ele><time>2026-04-04T11:30:30.999Z</time></trkpt><trkpt lat="45.41477721209613" lon="10.914892211400556"><ele>72.0</ele><time>2026-04-04T11:30:31.999Z</time></trkpt><trkpt lat="45.414550216579" lon="10.91493395094355"><ele>70.0</ele><time>2026-04-04T11:30:32.999Z</time></trkpt><trkpt lat="45.41432397414824" lon="10.914981325202588"><ele>70.0</ele><time>2026-04-04T11:30:33.999Z</time></trkpt><trkpt lat="45.41409506396421" lon="10.915023892623822"><ele>70.0</ele><time>2026-04-04T11:30:34.999Z</time></trkpt><trkpt lat="45.4138638296881" lon="10.915065502678317"><ele>69.0</ele><time>2026-04-04T11:30:35.999Z</time></trkpt><trkpt lat="45.41363679659987" lon="10.91510865511297"><ele>68.0</ele><time>2026-04-04T11:30:36.999Z</time></trkpt><trkpt lat="45.41340760923014" lon="10.91515641901103"><ele>68.0</ele><time>2026-04-04T11:30:37.999Z</time></trkpt><trkpt lat="45.413179562169994" lon="10.9152012763735"><ele>68.0</ele><time>2026-04-04T11:30:38.999Z</time></trkpt><trkpt lat="45.41295921226706" lon="10.915240166519675"><ele>68.0</ele><time>2026-04-04T11:30:39.999Z</time></trkpt><trkpt lat="45.41274325891881" lon="10.915279423077008"><ele>68.0</ele><time>2026-04-04T11:30:40.999Z</time></trkpt><trkpt lat="45.41252863694045" lon="10.915315653241114"><ele>68.0</ele><time>2026-04-04T11:30:41.999Z</time></trkpt><trkpt lat="45.412311335124166" lon="10.915353904694467"><ele>68.33333333333334</ele><time>2026-04-04T11:30:42.999Z</time></trkpt><trkpt lat="45.41209423346996" lon="10.915389119595465"><ele>68.66666666666667</ele><time>2026-04-04T11:30:43.999Z</time></trkpt><trkpt lat="45.411881430610116" lon="10.915440260268372"><ele>69.0</ele><time>2026-04-04T11:30:44.999Z</time></trkpt><trkpt lat="45.411669771689674" lon="10.915503757041003"><ele>69.0</ele><time>2026-04-04T11:30:45.999Z</time></trkpt><trkpt lat="45.411461606884515" lon="10.91558643846876"><ele>69.0</ele><time>2026-04-04T11:30:46.999Z</time></trkpt><trkpt lat="45.411254795607604" lon="10.915678393303185"><ele>69.0</ele><time>2026-04-04T11:30:47.999Z</time></trkpt><trkpt lat="45.41104929342521" lon="10.91578714764713"><ele>69.66666666666667</ele><time>2026-04-04T11:30:48.999Z</time></trkpt><trkpt lat="45.410850344907146" lon="10.915908985094255"><ele>70.33333333333334</ele><time>2026-04-04T11:30:49.999Z</time></trkpt><trkpt lat="45.410659640549355" lon="10.91604281134848"><ele>71.0</ele><time>2026-04-04T11:30:50.999Z</time></trkpt><trkpt lat="45.41046844704173" lon="10.916186470584277"><ele>71.0</ele><time>2026-04-04T11:30:51.999Z</time></trkpt><trkpt lat="45.410278701721" lon="10.916328849456272"><ele>71.0</ele><time>2026-04-04T11:30:52.999Z</time></trkpt><trkpt lat="45.41009313400182" lon="10.916472155505296"><ele>71.0</ele><time>2026-04-04T11:30:53.999Z</time></trkpt><trkpt lat="45.40990997078464" lon="10.916617465177108"><ele>70.0</ele><time>2026-04-04T11:30:54.999Z</time></trkpt><trkpt lat="45.40972723362224" lon="10.916773484244025"><ele>69.0</ele><time>2026-04-04T11:30:55.999Z</time></trkpt><trkpt lat="45.40955449154281" lon="10.916938546930531"><ele>68.0</ele><time>2026-04-04T11:30:56.999Z</time></trkpt><trkpt lat="45.40938611781017" lon="10.91711946793616"><ele>68.0</ele><time>2026-04-04T11:30:57.999Z</time></trkpt><trkpt lat="45.409220905586736" lon="10.917311644339705"><ele>68.0</ele><time>2026-04-04T11:30:58.999Z</time></trkpt><trkpt lat="45.40906119532786" lon="10.917511503591992"><ele>68.0</ele><time>2026-04-04T11:30:59.999Z</time></trkpt><trkpt lat="45.40890465238371" lon="10.917722638293219"><ele>67.66666666666667</ele><time>2026-04-04T11:31:00.999Z</time></trkpt><trkpt lat="45.408758547542185" lon="10.917942813846423"><ele>67.33333333333333</ele><time>2026-04-04T11:31:01.999Z</time></trkpt><trkpt lat="45.40861770379787" lon="10.918171238448478"><ele>67.0</ele><time>2026-04-04T11:31:02.999Z</time></trkpt><trkpt lat="45.408481237816844" lon="10.918410278585432"><ele>67.0</ele><time>2026-04-04T11:31:03.999Z</time></trkpt><trkpt lat="45.408352854287536" lon="10.91865519966793"><ele>67.0</ele><time>2026-04-04T11:31:04.999Z</time></trkpt><trkpt lat="45.40824411355018" lon="10.918914627171326"><ele>67.0</ele><time>2026-04-04T11:31:05.999Z</time></trkpt><trkpt lat="45.40813281356195" lon="10.919169221721019"><ele>67.33333333333333</ele><time>2026-04-04T11:31:06.999Z</time></trkpt><trkpt lat="45.40804232518991" lon="10.919437769451498"><ele>67.66666666666667</ele><time>2026-04-04T11:31:07.999Z</time></trkpt><trkpt lat="45.407976527165545" lon="10.919712011116859"><ele>68.0</ele><time>2026-04-04T11:31:08.999Z</time></trkpt><trkpt lat="45.407930842064665" lon="10.919995581334955"><ele>67.66666666666667</ele><time>2026-04-04T11:31:09.999Z</time></trkpt><trkpt lat="45.40790480386623" lon="10.92028375980262"><ele>67.33333333333333</ele><time>2026-04-04T11:31:10.999Z</time></trkpt><trkpt lat="45.40788165910713" lon="10.920580432882758"><ele>67.0</ele><time>2026-04-04T11:31:11.999Z</time></trkpt><trkpt lat="45.40787042323272" lon="10.920875711872988"><ele>66.66666666666666</ele><time>2026-04-04T11:31:12.999Z</time></trkpt><trkpt lat="45.407856692367766" lon="10.921179305160376"><ele>66.33333333333333</ele><time>2026-04-04T11:31:13.999Z</time></trkpt><trkpt lat="45.40783340148384" lon="10.92148366812849"><ele>66.0</ele><time>2026-04-04T11:31:14.999Z</time></trkpt><trkpt lat="45.40778367230121" lon="10.921788081214753"><ele>66.0</ele><time>2026-04-04T11:31:15.999Z</time></trkpt><trkpt lat="45.40771014235367" lon="10.922086185764426"><ele>66.0</ele><time>2026-04-04T11:31:16.998Z</time></trkpt><trkpt lat="45.407620586379785" lon="10.922372939134522"><ele>66.0</ele><time>2026-04-04T11:31:17.998Z</time></trkpt><trkpt lat="45.407522906721674" lon="10.92264643700805"><ele>66.0</ele><time>2026-04-04T11:31:18.998Z</time></trkpt><trkpt lat="45.4074200220922" lon="10.922900792812353"><ele>66.0</ele><time>2026-04-04T11:31:19.998Z</time></trkpt><trkpt lat="45.407316920422865" lon="10.923150722042747"><ele>66.0</ele><time>2026-04-04T11:31:20.998Z</time></trkpt><trkpt lat="45.40721198918822" lon="10.92340462964273"><ele>66.66666666666667</ele><time>2026-04-04T11:31:21.998Z</time></trkpt><trkpt lat="45.40710598923202" lon="10.923663909353355"><ele>67.33333333333334</ele><time>2026-04-04T11:31:22.998Z</time></trkpt><trkpt lat="45.40700811060236" lon="10.923925058935163"><ele>68.0</ele><time>2026-04-04T11:31:23.998Z</time></trkpt><trkpt lat="45.40690572762108" lon="10.924192938117086"><ele>66.66666666666667</ele><time>2026-04-04T11:31:24.998Z</time></trkpt><trkpt lat="45.406799628717366" lon="10.924458550379288"><ele>65.33333333333333</ele><time>2026-04-04T11:31:25.998Z</time></trkpt><trkpt lat="45.406687987397056" lon="10.924720986552092"><ele>64.0</ele><time>2026-04-04T11:31:26.998Z</time></trkpt><trkpt lat="45.40656688136109" lon="10.924977536449664"><ele>64.0</ele><time>2026-04-04T11:31:27.998Z</time></trkpt><trkpt lat="45.40643028487056" lon="10.925224032669751"><ele>64.0</ele><time>2026-04-04T11:31:28.998Z</time></trkpt><trkpt lat="45.40628564151282" lon="10.925459298451512"><ele>64.0</ele><time>2026-04-04T11:31:29.998Z</time></trkpt><trkpt lat="45.40613274824286" lon="10.925683466166298"><ele>64.66666666666666</ele><time>2026-04-04T11:31:30.998Z</time></trkpt><trkpt lat="45.40597049220178" lon="10.92589919282178"><ele>65.33333333333333</ele><time>2026-04-04T11:31:31.998Z</time></trkpt><trkpt lat="45.40579464509352" lon="10.926097191282407"><ele>66.0</ele><time>2026-04-04T11:31:32.998Z</time></trkpt><trkpt lat="45.4056196192217" lon="10.926294562470819"><ele>66.5</ele><time>2026-04-04T11:31:33.998Z</time></trkpt><trkpt lat="45.40544457038824" lon="10.926492440547339"><ele>67.0</ele><time>2026-04-04T11:31:34.998Z</time></trkpt><trkpt lat="45.405253442214665" lon="10.926678854434948"><ele>67.0</ele><time>2026-04-04T11:31:35.998Z</time></trkpt><trkpt lat="45.405083707958426" lon="10.926876375009162"><ele>67.0</ele><time>2026-04-04T11:31:36.998Z</time></trkpt><trkpt lat="45.40490525667893" lon="10.927070280465486"><ele>67.0</ele><time>2026-04-04T11:31:37.998Z</time></trkpt><trkpt lat="45.40472845658295" lon="10.927268355701028"><ele>66.66666666666666</ele><time>2026-04-04T11:31:38.998Z</time></trkpt><trkpt lat="45.40456100405813" lon="10.927471614318"><ele>66.33333333333333</ele><time>2026-04-04T11:31:39.998Z</time></trkpt><trkpt lat="45.404377696525145" lon="10.927659458258978"><ele>66.0</ele><time>2026-04-04T11:31:40.998Z</time></trkpt><trkpt lat="45.40420050293093" lon="10.927851854115737"><ele>66.0</ele><time>2026-04-04T11:31:41.998Z</time></trkpt><trkpt lat="45.404041853096665" lon="10.928043155529046"><ele>66.0</ele><time>2026-04-04T11:31:42.998Z</time></trkpt><trkpt lat="45.40388859341118" lon="10.928229587454082"><ele>66.0</ele><time>2026-04-04T11:31:43.998Z</time></trkpt><trkpt lat="45.40374251457984" lon="10.928438175717744"><ele>65.33333333333333</ele><time>2026-04-04T11:31:44.998Z</time></trkpt><trkpt lat="45.40355007747865" lon="10.92859795566755"><ele>64.66666666666666</ele><time>2026-04-04T11:31:45.998Z</time></trkpt><trkpt lat="45.40341336272557" lon="10.92881160222728"><ele>64.0</ele><time>2026-04-04T11:31:46.998Z</time></trkpt><trkpt lat="45.40328636483566" lon="10.929044897944472"><ele>65.66666666666666</ele><time>2026-04-04T11:31:47.998Z</time></trkpt><trkpt lat="45.40317742488357" lon="10.92929324071374"><ele>67.33333333333333</ele><time>2026-04-04T11:31:48.998Z</time></trkpt><trkpt lat="45.403085364256306" lon="10.929557440323816"><ele>69.0</ele><time>2026-04-04T11:31:49.998Z</time></trkpt><trkpt lat="45.40301340163419" lon="10.929826908596379"><ele>67.33333333333333</ele><time>2026-04-04T11:31:51Z</time></trkpt><trkpt lat="45.4029540864202" lon="10.930103657020211"><ele>65.66666666666666</ele><time>2026-04-04T11:31:52Z</time></trkpt><trkpt lat="45.40291236951472" lon="10.930388725978862"><ele>64.0</ele><time>2026-04-04T11:31:53Z</time></trkpt><trkpt lat="45.40288554721708" lon="10.930676300977012"><ele>64.33333333333333</ele><time>2026-04-04T11:31:54Z</time></trkpt><trkpt lat="45.40287078572862" lon="10.930967743061265"><ele>64.66666666666667</ele><time>2026-04-04T11:31:55Z</time></trkpt><trkpt lat="45.40286093812607" lon="10.931259544302026"><ele>65.0</ele><time>2026-04-04T11:31:56Z</time></trkpt><trkpt lat="45.40284928002358" lon="10.931555752352462"><ele>64.66666666666667</ele><time>2026-04-04T11:31:57Z</time></trkpt><trkpt lat="45.40283249089849" lon="10.931848034034362"><ele>64.33333333333333</ele><time>2026-04-04T11:31:58Z</time></trkpt><trkpt lat="45.402812643559734" lon="10.932133019405384"><ele>64.0</ele><time>2026-04-04T11:31:59Z</time></trkpt><trkpt lat="45.40279104229696" lon="10.932421265468433"><ele>64.0</ele><time>2026-04-04T11:32:00Z</time></trkpt><trkpt lat="45.402771021722906" lon="10.932707966755078"><ele>64.0</ele><time>2026-04-04T11:32:01Z</time></trkpt><trkpt lat="45.40274403573195" lon="10.932993276869448"><ele>64.0</ele><time>2026-04-04T11:32:02Z</time></trkpt><trkpt lat="45.4027104376283" lon="10.933272476491222"><ele>64.0</ele><time>2026-04-04T11:32:03Z</time></trkpt><trkpt lat="45.40266457965777" lon="10.933552233949184"><ele>64.0</ele><time>2026-04-04T11:32:04Z</time></trkpt><trkpt lat="45.402611378928434" lon="10.933828549438854"><ele>64.0</ele><time>2026-04-04T11:32:05Z</time></trkpt><trkpt lat="45.40255553187301" lon="10.934101028672227"><ele>64.0</ele><time>2026-04-04T11:32:06Z</time></trkpt><trkpt lat="45.40249443356308" lon="10.934380001124513"><ele>64.0</ele><time>2026-04-04T11:32:07Z</time></trkpt><trkpt lat="45.402434946491766" lon="10.934658272018648"><ele>64.0</ele><time>2026-04-04T11:32:08Z</time></trkpt><trkpt lat="45.40237785334126" lon="10.93493920614855"><ele>64.33333333333333</ele><time>2026-04-04T11:32:09Z</time></trkpt><trkpt lat="45.40232156995801" lon="10.935224198469857"><ele>64.66666666666667</ele><time>2026-04-04T11:32:10Z</time></trkpt><trkpt lat="45.40226372382054" lon="10.935511909251348"><ele>65.0</ele><time>2026-04-04T11:32:11Z</time></trkpt><trkpt lat="45.40220462823718" lon="10.935795007275454"><ele>64.0</ele><time>2026-04-04T11:32:12Z</time></trkpt><trkpt lat="45.40214275377793" lon="10.936065300655585"><ele>63.0</ele><time>2026-04-04T11:32:13Z</time></trkpt><trkpt lat="45.402097204871" lon="10.936338830310627"><ele>62.0</ele><time>2026-04-04T11:32:14Z</time></trkpt><trkpt lat="45.40204404957506" lon="10.93660189986252"><ele>61.66666666666667</ele><time>2026-04-04T11:32:15Z</time></trkpt><trkpt lat="45.40199062411436" lon="10.936852945500057"><ele>61.33333333333333</ele><time>2026-04-04T11:32:16Z</time></trkpt><trkpt lat="45.401934660061926" lon="10.937089389719509"><ele>61.0</ele><time>2026-04-04T11:32:17Z</time></trkpt><trkpt lat="45.40187903771324" lon="10.937319056962936"><ele>61.0</ele><time>2026-04-04T11:32:18Z</time></trkpt><trkpt lat="45.40182794009851" lon="10.937534356779555"><ele>61.0</ele><time>2026-04-04T11:32:19Z</time></trkpt><trkpt lat="45.40178585789716" lon="10.937741434286437"><ele>61.0</ele><time>2026-04-04T11:32:20Z</time></trkpt><trkpt lat="45.40174548348161" lon="10.93794246983657"><ele>61.0</ele><time>2026-04-04T11:32:21Z</time></trkpt><trkpt lat="45.40170954664438" lon="10.93812610055236"><ele>61.0</ele><time>2026-04-04T11:32:22Z</time></trkpt><trkpt lat="45.40167668272029" lon="10.938295856510587"><ele>61.0</ele><time>2026-04-04T11:32:23Z</time></trkpt><trkpt lat="45.40164591964834" lon="10.938449276365676"><ele>61.0</ele><time>2026-04-04T11:32:24Z</time></trkpt><trkpt lat="45.40161989229016" lon="10.938578040632905"><ele>60.99999999999999</ele><time>2026-04-04T11:32:25Z</time></trkpt><trkpt lat="45.401594377037846" lon="10.938687835397833"><ele>61.0</ele><time>2026-04-04T11:32:26Z</time></trkpt><trkpt lat="45.40155703984893" lon="10.938775843756103"><ele>61.0</ele><time>2026-04-04T11:32:27Z</time></trkpt><trkpt lat="45.4014986234405" lon="10.938828143611595"><ele>61.0</ele><time>2026-04-04T11:32:28Z</time></trkpt><trkpt lat="45.401423861495196" lon="10.938840080994106"><ele>60.99999999999999</ele><time>2026-04-04T11:32:29Z</time></trkpt><trkpt lat="45.40135306685357" lon="10.938843809461314"><ele>61.0</ele><time>2026-04-04T11:32:30Z</time></trkpt><trkpt lat="45.401416588085795" lon="10.938967780385083"><ele>61.0</ele><time>2026-04-04T11:32:31Z</time></trkpt><trkpt lat="45.40125267366266" lon="10.938963381004877"><ele>61.0</ele><time>2026-04-04T11:32:32.999Z</time></trkpt><trkpt lat="45.40134214817857" lon="10.938993932103738"><ele>61.0</ele><time>2026-04-04T11:36:06Z</time></trkpt><trkpt lat="45.40131337399245" lon="10.939135412645019"><ele>61.0</ele><time>2026-04-04T11:36:09Z</time></trkpt><trkpt lat="45.401335969402396" lon="10.93928022002418"><ele>60.666666666666664</ele><time>2026-04-04T11:36:11Z</time></trkpt><trkpt lat="45.40136576671736" lon="10.939365996377019"><ele>60.33333333333333</ele><time>2026-04-04T11:36:12Z</time></trkpt><trkpt lat="45.40139373577294" lon="10.939450702099307"><ele>60.0</ele><time>2026-04-04T11:36:13Z</time></trkpt><trkpt lat="45.40142186970018" lon="10.939538239825385"><ele>59.66666666666667</ele><time>2026-04-04T11:36:14Z</time></trkpt><trkpt lat="45.40143221750319" lon="10.939655703075505"><ele>59.333333333333336</ele><time>2026-04-04T11:36:15Z</time></trkpt><trkpt lat="45.40135902277985" lon="10.939784716350212"><ele>59.0</ele><time>2026-04-04T11:36:16Z</time></trkpt><trkpt lat="45.401349670602876" lon="10.939921159712737"><ele>59.0</ele><time>2026-04-04T11:36:17Z</time></trkpt><trkpt lat="45.40135393110892" lon="10.940101809771267"><ele>59.0</ele><time>2026-04-04T11:36:18Z</time></trkpt><trkpt lat="45.40131188778907" lon="10.940321974645233"><ele>59.0</ele><time>2026-04-04T11:36:19Z</time></trkpt><trkpt lat="45.40126813189401" lon="10.940561643237467"><ele>59.0</ele><time>2026-04-04T11:36:20Z</time></trkpt><trkpt lat="45.40122531851659" lon="10.940807628323647"><ele>59.0</ele><time>2026-04-04T11:36:21Z</time></trkpt><trkpt lat="45.40117676346163" lon="10.941061055440548"><ele>59.0</ele><time>2026-04-04T11:36:22Z</time></trkpt><trkpt lat="45.40112166762907" lon="10.941313407736278"><ele>59.0</ele><time>2026-04-04T11:36:23Z</time></trkpt><trkpt lat="45.40106552675032" lon="10.94157461605241"><ele>59.0</ele><time>2026-04-04T11:36:24Z</time></trkpt><trkpt lat="45.40100875237896" lon="10.941848446643649"><ele>59.0</ele><time>2026-04-04T11:36:25Z</time></trkpt><trkpt lat="45.400953565870765" lon="10.94213290540389"><ele>59.0</ele><time>2026-04-04T11:36:26Z</time></trkpt><trkpt lat="45.40089172401854" lon="10.942440786927934"><ele>59.0</ele><time>2026-04-04T11:36:27Z</time></trkpt><trkpt lat="45.40081627280895" lon="10.942760215371521"><ele>59.0</ele><time>2026-04-04T11:36:28Z</time></trkpt><trkpt lat="45.400756227943496" lon="10.943057915814785"><ele>59.0</ele><time>2026-04-04T11:36:29Z</time></trkpt><trkpt lat="45.40069878273736" lon="10.943350250200904"><ele>59.0</ele><time>2026-04-04T11:36:30Z</time></trkpt><trkpt lat="45.40063920499103" lon="10.94364149252473"><ele>59.0</ele><time>2026-04-04T11:36:31Z</time></trkpt><trkpt lat="45.40057968243026" lon="10.943932713643388"><ele>59.0</ele><time>2026-04-04T11:36:32Z</time></trkpt><trkpt lat="45.40051827737852" lon="10.94422717758931"><ele>59.0</ele><time>2026-04-04T11:36:33Z</time></trkpt><trkpt lat="45.40045521877525" lon="10.944522986660632"><ele>58.66666666666667</ele><time>2026-04-04T11:36:34Z</time></trkpt><trkpt lat="45.400396229098696" lon="10.94482283291852"><ele>58.33333333333333</ele><time>2026-04-04T11:36:35Z</time></trkpt><trkpt lat="45.40032922113399" lon="10.945127740756252"><ele>58.0</ele><time>2026-04-04T11:36:36Z</time></trkpt><trkpt lat="45.40026981911521" lon="10.94542889196419"><ele>58.666666666666664</ele><time>2026-04-04T11:36:37Z</time></trkpt><trkpt lat="45.4002058925269" lon="10.945734935588256"><ele>59.33333333333333</ele><time>2026-04-04T11:36:38Z</time></trkpt><trkpt lat="45.40014437620096" lon="10.946041143146944"><ele>60.0</ele><time>2026-04-04T11:36:39Z</time></trkpt><trkpt lat="45.400080005435385" lon="10.946347955809138"><ele>60.33333333333333</ele><time>2026-04-04T11:36:40Z</time></trkpt><trkpt lat="45.40001966139075" lon="10.946652301875083"><ele>60.666666666666664</ele><time>2026-04-04T11:36:41Z</time></trkpt><trkpt lat="45.399942667429805" lon="10.946955735472077"><ele>61.0</ele><time>2026-04-04T11:36:42Z</time></trkpt><trkpt lat="45.399886203350015" lon="10.947271080050204"><ele>59.5</ele><time>2026-04-04T11:36:43Z</time></trkpt><trkpt lat="45.39982193286539" lon="10.94758331638138"><ele>58.0</ele><time>2026-04-04T11:36:43.999Z</time></trkpt><trkpt lat="45.39975879820579" lon="10.947896177855263"><ele>58.0</ele><time>2026-04-04T11:36:44.999Z</time></trkpt><trkpt lat="45.399693621419495" lon="10.948205465780486"><ele>58.0</ele><time>2026-04-04T11:36:45.999Z</time></trkpt><trkpt lat="45.39963019079319" lon="10.948520144152441"><ele>56.0</ele><time>2026-04-04T11:36:46.999Z</time></trkpt><trkpt lat="45.399566695622894" lon="10.948839580319309"><ele>54.0</ele><time>2026-04-04T11:36:47.999Z</time></trkpt><trkpt lat="45.39950429573535" lon="10.949156287434679"><ele>55.5</ele><time>2026-04-04T11:36:48.999Z</time></trkpt><trkpt lat="45.39944098898347" lon="10.94947209585197"><ele>57.0</ele><time>2026-04-04T11:36:49.999Z</time></trkpt><trkpt lat="45.39937662988869" lon="10.949789657305177"><ele>58.5</ele><time>2026-04-04T11:36:50.999Z</time></trkpt><trkpt lat="45.399314066011435" lon="10.950105922263255"><ele>60.0</ele><time>2026-04-04T11:36:51.999Z</time></trkpt><trkpt lat="45.399251910363944" lon="10.950425002357754"><ele>60.0</ele><time>2026-04-04T11:36:52.999Z</time></trkpt><trkpt lat="45.39918830133394" lon="10.950740963228304"><ele>60.0</ele><time>2026-04-04T11:36:53.999Z</time></trkpt><trkpt lat="45.39912533839074" lon="10.95105660542899"><ele>60.5</ele><time>2026-04-04T11:36:54.999Z</time></trkpt><trkpt lat="45.39905771727665" lon="10.95137018709094"><ele>61.0</ele><time>2026-04-04T11:36:55.999Z</time></trkpt><trkpt lat="45.39899433548171" lon="10.95168694973965"><ele>61.0</ele><time>2026-04-04T11:36:56.999Z</time></trkpt><trkpt lat="45.398927956801316" lon="10.952002547174752"><ele>61.0</ele><time>2026-04-04T11:36:57.999Z</time></trkpt><trkpt lat="45.39885400024481" lon="10.952315547277324"><ele>60.0</ele><time>2026-04-04T11:36:58.999Z</time></trkpt><trkpt lat="45.39880192270081" lon="10.952637479876342"><ele>59.0</ele><time>2026-04-04T11:36:59.999Z</time></trkpt><trkpt lat="45.39873714801163" lon="10.952951921040565"><ele>59.0</ele><time>2026-04-04T11:37:00.999Z</time></trkpt><trkpt lat="45.39867938009413" lon="10.95326718634879"><ele>59.0</ele><time>2026-04-04T11:37:01.999Z</time></trkpt><trkpt lat="45.39861239974238" lon="10.95358059109355"><ele>59.0</ele><time>2026-04-04T11:37:02.999Z</time></trkpt><trkpt lat="45.39855131874215" lon="10.953893145664859"><ele>59.0</ele><time>2026-04-04T11:37:03.999Z</time></trkpt><trkpt lat="45.398487107893025" lon="10.954203935449128"><ele>61.0</ele><time>2026-04-04T11:37:04.999Z</time></trkpt><trkpt lat="45.39842750135607" lon="10.954513427229402"><ele>63.0</ele><time>2026-04-04T11:37:05.999Z</time></trkpt><trkpt lat="45.39836530079623" lon="10.954822011284213"><ele>62.66666666666667</ele><time>2026-04-04T11:37:06.999Z</time></trkpt><trkpt lat="45.39830467101949" lon="10.955130915616026"><ele>62.333333333333336</ele><time>2026-04-04T11:37:07.999Z</time></trkpt><trkpt lat="45.398244812032196" lon="10.955438693169393"><ele>62.0</ele><time>2026-04-04T11:37:08.999Z</time></trkpt><trkpt lat="45.39819106500413" lon="10.955745537144916"><ele>61.333333333333336</ele><time>2026-04-04T11:37:09.999Z</time></trkpt><trkpt lat="45.398146007468455" lon="10.956053219763024"><ele>60.66666666666667</ele><time>2026-04-04T11:37:10.999Z</time></trkpt><trkpt lat="45.39810049147873" lon="10.956363580516147"><ele>60.0</ele><time>2026-04-04T11:37:11.999Z</time></trkpt><trkpt lat="45.39805620101534" lon="10.95667559108987"><ele>60.0</ele><time>2026-04-04T11:37:12.999Z</time></trkpt><trkpt lat="45.398009677799955" lon="10.956993160227647"><ele>60.0</ele><time>2026-04-04T11:37:13.999Z</time></trkpt><trkpt lat="45.397973365687506" lon="10.957307066879961"><ele>59.33333333333333</ele><time>2026-04-04T11:37:14.999Z</time></trkpt><trkpt lat="45.39793916187421" lon="10.957618982319172"><ele>58.666666666666664</ele><time>2026-04-04T11:37:15.999Z</time></trkpt><trkpt lat="45.39790437821434" lon="10.957933353223002"><ele>58.0</ele><time>2026-04-04T11:37:16.999Z</time></trkpt><trkpt lat="45.397866200512354" lon="10.95824706602108"><ele>58.0</ele><time>2026-04-04T11:37:17.999Z</time></trkpt><trkpt lat="45.39782868215906" lon="10.958561591966907"><ele>58.0</ele><time>2026-04-04T11:37:18.999Z</time></trkpt><trkpt lat="45.397788150997776" lon="10.958876532162149"><ele>58.0</ele><time>2026-04-04T11:37:19.999Z</time></trkpt><trkpt lat="45.39775088037593" lon="10.959193338418089"><ele>58.5</ele><time>2026-04-04T11:37:20.999Z</time></trkpt><trkpt lat="45.39771077626812" lon="10.959517398028547"><ele>59.0</ele><time>2026-04-04T11:37:21.999Z</time></trkpt><trkpt lat="45.39767553485624" lon="10.959836621361903"><ele>59.5</ele><time>2026-04-04T11:37:22.999Z</time></trkpt><trkpt lat="45.397639203789225" lon="10.96015491120922"><ele>60.0</ele><time>2026-04-04T11:37:23.999Z</time></trkpt><trkpt lat="45.39760208833906" lon="10.96047904318429"><ele>60.0</ele><time>2026-04-04T11:37:24.999Z</time></trkpt><trkpt lat="45.39756687247696" lon="10.96080362670083"><ele>60.0</ele><time>2026-04-04T11:37:25.999Z</time></trkpt><trkpt lat="45.397532226342484" lon="10.961112927441585"><ele>60.0</ele><time>2026-04-04T11:37:26.999Z</time></trkpt><trkpt lat="45.39750324782406" lon="10.961397212453004"><ele>60.0</ele><time>2026-04-04T11:37:27.999Z</time></trkpt><trkpt lat="45.39748207514727" lon="10.961668770541005"><ele>60.0</ele><time>2026-04-04T11:37:28.999Z</time></trkpt><trkpt lat="45.39746779437564" lon="10.961925481687098"><ele>59.33333333333333</ele><time>2026-04-04T11:37:29.999Z</time></trkpt><trkpt lat="45.39745293266207" lon="10.96217864200655"><ele>58.666666666666664</ele><time>2026-04-04T11:37:30.999Z</time></trkpt><trkpt lat="45.39743583824203" lon="10.962426556207237"><ele>58.0</ele><time>2026-04-04T11:37:31.999Z</time></trkpt><trkpt lat="45.397424157104474" lon="10.962683016151653"><ele>58.0</ele><time>2026-04-04T11:37:32.999Z</time></trkpt><trkpt lat="45.39741461594729" lon="10.962956565970769"><ele>58.0</ele><time>2026-04-04T11:37:33.999Z</time></trkpt><trkpt lat="45.397403295852676" lon="10.963229739148922"><ele>58.0</ele><time>2026-04-04T11:37:34.999Z</time></trkpt><trkpt lat="45.397388867293124" lon="10.96349472149175"><ele>58.0</ele><time>2026-04-04T11:37:35.999Z</time></trkpt><trkpt lat="45.397382059934294" lon="10.963749931688374"><ele>58.0</ele><time>2026-04-04T11:37:36.998Z</time></trkpt><trkpt lat="45.39737586784289" lon="10.964005133114677"><ele>58.0</ele><time>2026-04-04T11:37:37.998Z</time></trkpt><trkpt lat="45.39737113484868" lon="10.964268889034534"><ele>58.0</ele><time>2026-04-04T11:37:38.998Z</time></trkpt><trkpt lat="45.39735839043471" lon="10.964516976104138"><ele>58.0</ele><time>2026-04-04T11:37:39.998Z</time></trkpt><trkpt lat="45.39735149198914" lon="10.964764597217531"><ele>58.0</ele><time>2026-04-04T11:37:40.998Z</time></trkpt><trkpt lat="45.397346275991445" lon="10.96501213650716"><ele>57.666666666666664</ele><time>2026-04-04T11:37:41.998Z</time></trkpt><trkpt lat="45.39733607142931" lon="10.965249760804157"><ele>57.33333333333333</ele><time>2026-04-04T11:37:42.998Z</time></trkpt><trkpt lat="45.39732260910634" lon="10.96547717980915"><ele>57.0</ele><time>2026-04-04T11:37:43.998Z</time></trkpt><trkpt lat="45.39731241236109" lon="10.965707266713169"><ele>56.66666666666667</ele><time>2026-04-04T11:37:44.998Z</time></trkpt><trkpt lat="45.39730283685307" lon="10.96594327368924"><ele>56.333333333333336</ele><time>2026-04-04T11:37:45.998Z</time></trkpt><trkpt lat="45.3972922475707" lon="10.966185976253557"><ele>56.0</ele><time>2026-04-04T11:37:46.998Z</time></trkpt><trkpt lat="45.397280924539864" lon="10.966430545331805"><ele>56.0</ele><time>2026-04-04T11:37:47.998Z</time></trkpt><trkpt lat="45.397266343041686" lon="10.96668142979158"><ele>56.0</ele><time>2026-04-04T11:37:48.998Z</time></trkpt><trkpt lat="45.397257426052185" lon="10.966962369339857"><ele>56.0</ele><time>2026-04-04T11:37:49.998Z</time></trkpt><trkpt lat="45.39723528917545" lon="10.967274453161417"><ele>55.5</ele><time>2026-04-04T11:37:50.998Z</time></trkpt><trkpt lat="45.397186110784276" lon="10.967591873181108"><ele>55.0</ele><time>2026-04-04T11:37:51.998Z</time></trkpt><trkpt lat="45.39711281386768" lon="10.96789657164663"><ele>55.0</ele><time>2026-04-04T11:37:52.998Z</time></trkpt><trkpt lat="45.397023899601685" lon="10.968205369417316"><ele>55.0</ele><time>2026-04-04T11:37:53.998Z</time></trkpt><trkpt lat="45.39696460257573" lon="10.968504504091708"><ele>55.0</ele><time>2026-04-04T11:37:54.998Z</time></trkpt><trkpt lat="45.39693303357664" lon="10.968818984279062"><ele>55.0</ele><time>2026-04-04T11:37:55.998Z</time></trkpt><trkpt lat="45.39693185561148" lon="10.969144820538226"><ele>55.5</ele><time>2026-04-04T11:37:56.998Z</time></trkpt><trkpt lat="45.396956138571184" lon="10.969506640112256"><ele>56.0</ele><time>2026-04-04T11:37:57.998Z</time></trkpt><trkpt lat="45.39700147411641" lon="10.969852838295674"><ele>56.0</ele><time>2026-04-04T11:37:58.998Z</time></trkpt><trkpt lat="45.397046757065965" lon="10.97020662449524"><ele>56.0</ele><time>2026-04-04T11:37:59.998Z</time></trkpt><trkpt lat="45.39708354812403" lon="10.970554638654104"><ele>54.5</ele><time>2026-04-04T11:38:00.998Z</time></trkpt><trkpt lat="45.397086908861404" lon="10.970900709215334"><ele>53.0</ele><time>2026-04-04T11:38:01.998Z</time></trkpt><trkpt lat="45.39707511306332" lon="10.971238291892648"><ele>53.0</ele><time>2026-04-04T11:38:02.998Z</time></trkpt><trkpt lat="45.39706294973266" lon="10.971577983434363"><ele>53.0</ele><time>2026-04-04T11:38:03.998Z</time></trkpt><trkpt lat="45.3970407675888" lon="10.97193248481225"><ele>52.5</ele><time>2026-04-04T11:38:04.998Z</time></trkpt><trkpt lat="45.3970246710855" lon="10.972276109098535"><ele>52.0</ele><time>2026-04-04T11:38:05.998Z</time></trkpt><trkpt lat="45.39700521541047" lon="10.97262730570862"><ele>53.5</ele><time>2026-04-04T11:38:06.998Z</time></trkpt><trkpt lat="45.396992733241646" lon="10.972974349944142"><ele>55.0</ele><time>2026-04-04T11:38:07.998Z</time></trkpt><trkpt lat="45.396978357826015" lon="10.973321017178854"><ele>55.5</ele><time>2026-04-04T11:38:09Z</time></trkpt><trkpt lat="45.39696095440497" lon="10.973667758494493"><ele>56.0</ele><time>2026-04-04T11:38:10Z</time></trkpt><trkpt lat="45.396944146184936" lon="10.974013408315173"><ele>56.0</ele><time>2026-04-04T11:38:11Z</time></trkpt><trkpt lat="45.396932538997575" lon="10.97435839360907"><ele>56.0</ele><time>2026-04-04T11:38:12Z</time></trkpt><trkpt lat="45.396916784535605" lon="10.974704172652318"><ele>55.5</ele><time>2026-04-04T11:38:13Z</time></trkpt><trkpt lat="45.396904489426" lon="10.975050008263365"><ele>55.0</ele><time>2026-04-04T11:38:14Z</time></trkpt><trkpt lat="45.396893731613524" lon="10.975397659019869"><ele>55.0</ele><time>2026-04-04T11:38:15Z</time></trkpt><trkpt lat="45.396875119665" lon="10.975741914967564"><ele>55.0</ele><time>2026-04-04T11:38:16Z</time></trkpt><trkpt lat="45.39686409681296" lon="10.976092487519454"><ele>55.0</ele><time>2026-04-04T11:38:17Z</time></trkpt><trkpt lat="45.396848946949625" lon="10.976440048504214"><ele>55.0</ele><time>2026-04-04T11:38:18Z</time></trkpt><trkpt lat="45.396839293165556" lon="10.976783197532251"><ele>53.0</ele><time>2026-04-04T11:38:19Z</time></trkpt><trkpt lat="45.39682449228783" lon="10.977123741111148"><ele>51.0</ele><time>2026-04-04T11:38:20Z</time></trkpt><trkpt lat="45.39680748811104" lon="10.977462101803384"><ele>51.0</ele><time>2026-04-04T11:38:21Z</time></trkpt><trkpt lat="45.39679539630769" lon="10.977794693832116"><ele>51.0</ele><time>2026-04-04T11:38:22Z</time></trkpt><trkpt lat="45.39677923743931" lon="10.978126872577702"><ele>51.5</ele><time>2026-04-04T11:38:23Z</time></trkpt><trkpt lat="45.39677052250796" lon="10.97845442529732"><ele>52.0</ele><time>2026-04-04T11:38:24Z</time></trkpt><trkpt lat="45.396762510444" lon="10.978782982348914"><ele>52.0</ele><time>2026-04-04T11:38:25Z</time></trkpt><trkpt lat="45.396752825598014" lon="10.979107116312498"><ele>52.0</ele><time>2026-04-04T11:38:26Z</time></trkpt><trkpt lat="45.39675350616223" lon="10.979431615761616"><ele>51.0</ele><time>2026-04-04T11:38:27Z</time></trkpt><trkpt lat="45.396750756006846" lon="10.979757349341764"><ele>50.0</ele><time>2026-04-04T11:38:28Z</time></trkpt><trkpt lat="45.396752304281215" lon="10.980085204761979"><ele>49.0</ele><time>2026-04-04T11:38:29Z</time></trkpt><trkpt lat="45.396762010753235" lon="10.980414060316894"><ele>48.0</ele><time>2026-04-04T11:38:30Z</time></trkpt><trkpt lat="45.396767952519674" lon="10.980743018764846"><ele>49.0</ele><time>2026-04-04T11:38:31Z</time></trkpt><trkpt lat="45.39677148439914" lon="10.981069993628761"><ele>50.0</ele><time>2026-04-04T11:38:32Z</time></trkpt><trkpt lat="45.39677948429086" lon="10.981397067210839"><ele>50.0</ele><time>2026-04-04T11:38:33Z</time></trkpt><trkpt lat="45.39679028361179" lon="10.981724286310778"><ele>50.0</ele><time>2026-04-04T11:38:34Z</time></trkpt><trkpt lat="45.39680328823802" lon="10.982049300118256"><ele>50.0</ele><time>2026-04-04T11:38:35Z</time></trkpt><trkpt lat="45.39681840055323" lon="10.982372956824172"><ele>50.0</ele><time>2026-04-04T11:38:36Z</time></trkpt><trkpt lat="45.39683747511757" lon="10.982685364502627"><ele>50.0</ele><time>2026-04-04T11:38:37Z</time></trkpt><trkpt lat="45.3968545122651" lon="10.982993087443322"><ele>50.66666666666667</ele><time>2026-04-04T11:38:38Z</time></trkpt><trkpt lat="45.39687364879206" lon="10.983293072736677"><ele>51.33333333333333</ele><time>2026-04-04T11:38:39Z</time></trkpt><trkpt lat="45.39690381169905" lon="10.983598374559298"><ele>52.0</ele><time>2026-04-04T11:38:40Z</time></trkpt><trkpt lat="45.396930450201324" lon="10.983902972277997"><ele>52.666666666666664</ele><time>2026-04-04T11:38:41Z</time></trkpt><trkpt lat="45.396955453896446" lon="10.984205930162112"><ele>53.33333333333333</ele><time>2026-04-04T11:38:42Z</time></trkpt><trkpt lat="45.396987493712274" lon="10.984497282327466"><ele>54.0</ele><time>2026-04-04T11:38:43Z</time></trkpt><trkpt lat="45.397017786163595" lon="10.98478600344858"><ele>53.66666666666667</ele><time>2026-04-04T11:38:44Z</time></trkpt><trkpt lat="45.39704742904213" lon="10.985083445952407"><ele>53.333333333333336</ele><time>2026-04-04T11:38:45Z</time></trkpt><trkpt lat="45.39708474209761" lon="10.985375364099992"><ele>53.0</ele><time>2026-04-04T11:38:46Z</time></trkpt><trkpt lat="45.39712114199738" lon="10.985672193146685"><ele>52.66666666666667</ele><time>2026-04-04T11:38:47Z</time></trkpt><trkpt lat="45.39715712230668" lon="10.98597720399856"><ele>52.33333333333333</ele><time>2026-04-04T11:38:48Z</time></trkpt><trkpt lat="45.3971993924962" lon="10.986283450223567"><ele>52.0</ele><time>2026-04-04T11:38:48.999Z</time></trkpt><trkpt lat="45.397247449660085" lon="10.986587319118481"><ele>54.5</ele><time>2026-04-04T11:38:49.999Z</time></trkpt><trkpt lat="45.39729491188703" lon="10.986893462162941"><ele>57.0</ele><time>2026-04-04T11:38:50.999Z</time></trkpt><trkpt lat="45.397363315470905" lon="10.987225397959623"><ele>56.5</ele><time>2026-04-04T11:38:51.999Z</time></trkpt><trkpt lat="45.39742875088585" lon="10.987577085743082"><ele>56.0</ele><time>2026-04-04T11:38:52.999Z</time></trkpt><trkpt lat="45.39747238251327" lon="10.987956008343895"><ele>56.0</ele><time>2026-04-04T11:38:53.999Z</time></trkpt><trkpt lat="45.39751333766559" lon="10.988322248010345"><ele>56.0</ele><time>2026-04-04T11:38:54.999Z</time></trkpt><trkpt lat="45.39755894644475" lon="10.98867089897498"><ele>55.0</ele><time>2026-04-04T11:38:55.999Z</time></trkpt><trkpt lat="45.39761195255801" lon="10.98900900791094"><ele>54.0</ele><time>2026-04-04T11:38:56.999Z</time></trkpt><trkpt lat="45.39766581981616" lon="10.98934556408884"><ele>53.0</ele><time>2026-04-04T11:38:57.999Z</time></trkpt><trkpt lat="45.3977152510772" lon="10.989678024767343"><ele>52.0</ele><time>2026-04-04T11:38:58.999Z</time></trkpt><trkpt lat="45.39776175423535" lon="10.990007521749268"><ele>51.5</ele><time>2026-04-04T11:38:59.999Z</time></trkpt><trkpt lat="45.3978169714175" lon="10.990335293074082"><ele>51.0</ele><time>2026-04-04T11:39:00.999Z</time></trkpt><trkpt lat="45.39786808208519" lon="10.99066655767406"><ele>51.5</ele><time>2026-04-04T11:39:01.999Z</time></trkpt><trkpt lat="45.397912821772785" lon="10.991007784702004"><ele>52.0</ele><time>2026-04-04T11:39:02.999Z</time></trkpt><trkpt lat="45.3979666892421" lon="10.991324703512989"><ele>53.5</ele><time>2026-04-04T11:39:03.999Z</time></trkpt><trkpt lat="45.398016994714" lon="10.991656333710244"><ele>55.0</ele><time>2026-04-04T11:39:04.999Z</time></trkpt><trkpt lat="45.398058646442664" lon="10.99198604438806"><ele>55.0</ele><time>2026-04-04T11:39:05.999Z</time></trkpt><trkpt lat="45.398091169758125" lon="10.992320283810162"><ele>55.0</ele><time>2026-04-04T11:39:06.999Z</time></trkpt><trkpt lat="45.39811666583256" lon="10.992662478957998"><ele>55.0</ele><time>2026-04-04T11:39:07.999Z</time></trkpt><trkpt lat="45.39814778123097" lon="10.992997558183161"><ele>55.0</ele><time>2026-04-04T11:39:08.999Z</time></trkpt><trkpt lat="45.39819067456119" lon="10.993333825307538"><ele>55.0</ele><time>2026-04-04T11:39:09.999Z</time></trkpt><trkpt lat="45.39821941455234" lon="10.993676115361167"><ele>55.0</ele><time>2026-04-04T11:39:10.999Z</time></trkpt><trkpt lat="45.39826069979677" lon="10.994014195998437"><ele>55.0</ele><time>2026-04-04T11:39:11.999Z</time></trkpt><trkpt lat="45.39829296204186" lon="10.994358419673166"><ele>55.0</ele><time>2026-04-04T11:39:12.999Z</time></trkpt><trkpt lat="45.39832797595282" lon="10.994699858247706"><ele>55.0</ele><time>2026-04-04T11:39:13.999Z</time></trkpt><trkpt lat="45.39835518138025" lon="10.995053801715283"><ele>55.0</ele><time>2026-04-04T11:39:14.999Z</time></trkpt><trkpt lat="45.39837835625051" lon="10.995403009212431"><ele>55.0</ele><time>2026-04-04T11:39:15.999Z</time></trkpt><trkpt lat="45.398397626858916" lon="10.995754526574501"><ele>55.0</ele><time>2026-04-04T11:39:16.999Z</time></trkpt><trkpt lat="45.398417151037016" lon="10.996108855410398"><ele>55.0</ele><time>2026-04-04T11:39:17.999Z</time></trkpt><trkpt lat="45.39843989315753" lon="10.996459774816223"><ele>55.0</ele><time>2026-04-04T11:39:18.999Z</time></trkpt><trkpt lat="45.398467618212564" lon="10.996815184208755"><ele>53.5</ele><time>2026-04-04T11:39:19.999Z</time></trkpt><trkpt lat="45.39849081288625" lon="10.997166871220886"><ele>52.0</ele><time>2026-04-04T11:39:20.999Z</time></trkpt><trkpt lat="45.3985122173091" lon="10.997517722210919"><ele>50.5</ele><time>2026-04-04T11:39:21.999Z</time></trkpt><trkpt lat="45.39853817325172" lon="10.997847437564308"><ele>49.0</ele><time>2026-04-04T11:39:22.999Z</time></trkpt><trkpt lat="45.39855969871989" lon="10.998167698622375"><ele>49.0</ele><time>2026-04-04T11:39:23.999Z</time></trkpt><trkpt lat="45.39857851622322" lon="10.998478818367543"><ele>49.0</ele><time>2026-04-04T11:39:24.999Z</time></trkpt><trkpt lat="45.39859911955478" lon="10.99878499246225"><ele>49.0</ele><time>2026-04-04T11:39:25.999Z</time></trkpt><trkpt lat="45.39862048115364" lon="10.999089581312287"><ele>48.666666666666664</ele><time>2026-04-04T11:39:26.999Z</time></trkpt><trkpt lat="45.398643083752944" lon="10.999403021731503"><ele>48.33333333333333</ele><time>2026-04-04T11:39:27.999Z</time></trkpt><trkpt lat="45.39866383149994" lon="10.999720203102623"><ele>48.0</ele><time>2026-04-04T11:39:28.999Z</time></trkpt><trkpt lat="45.39868638299676" lon="11.000035475754883"><ele>48.0</ele><time>2026-04-04T11:39:29.999Z</time></trkpt><trkpt lat="45.39871030625037" lon="11.000364924273587"><ele>48.0</ele><time>2026-04-04T11:39:30.999Z</time></trkpt><trkpt lat="45.39873694005405" lon="11.000691964664005"><ele>47.5</ele><time>2026-04-04T11:39:31.999Z</time></trkpt><trkpt lat="45.39877574980438" lon="11.001023740530602"><ele>47.0</ele><time>2026-04-04T11:39:32.999Z</time></trkpt><trkpt lat="45.39881248179807" lon="11.00136796312972"><ele>49.0</ele><time>2026-04-04T11:39:33.999Z</time></trkpt><trkpt lat="45.398851238987326" lon="11.001723395403461"><ele>51.0</ele><time>2026-04-04T11:39:34.999Z</time></trkpt><trkpt lat="45.39889673324763" lon="11.002093728633675"><ele>51.0</ele><time>2026-04-04T11:39:35.999Z</time></trkpt><trkpt lat="45.398941587061096" lon="11.002463878358252"><ele>51.0</ele><time>2026-04-04T11:39:36.999Z</time></trkpt><trkpt lat="45.39897783860088" lon="11.002847369950102"><ele>51.0</ele><time>2026-04-04T11:39:37.999Z</time></trkpt><trkpt lat="45.399012848968155" lon="11.003232772232284"><ele>51.0</ele><time>2026-04-04T11:39:38.999Z</time></trkpt><trkpt lat="45.39904630419871" lon="11.00360519065491"><ele>51.0</ele><time>2026-04-04T11:39:39.999Z</time></trkpt><trkpt lat="45.39907313561513" lon="11.003970009668533"><ele>51.0</ele><time>2026-04-04T11:39:40.998Z</time></trkpt><trkpt lat="45.399104408484334" lon="11.00432455692169"><ele>51.0</ele><time>2026-04-04T11:39:41.998Z</time></trkpt><trkpt lat="45.399137670310246" lon="11.00467093562754"><ele>51.0</ele><time>2026-04-04T11:39:42.998Z</time></trkpt><trkpt lat="45.39917174568272" lon="11.005011761018075"><ele>51.0</ele><time>2026-04-04T11:39:43.998Z</time></trkpt><trkpt lat="45.399207016240545" lon="11.005349550416584"><ele>51.0</ele><time>2026-04-04T11:39:44.998Z</time></trkpt><trkpt lat="45.39923300643132" lon="11.005683565777273"><ele>50.0</ele><time>2026-04-04T11:39:45.998Z</time></trkpt><trkpt lat="45.39926536030528" lon="11.006012557267201"><ele>49.0</ele><time>2026-04-04T11:39:46.998Z</time></trkpt><trkpt lat="45.399300936349576" lon="11.006342437811556"><ele>49.0</ele><time>2026-04-04T11:39:47.998Z</time></trkpt><trkpt lat="45.39933165208886" lon="11.006678059345585"><ele>49.0</ele><time>2026-04-04T11:39:48.998Z</time></trkpt><trkpt lat="45.39936238076455" lon="11.00701514465926"><ele>49.0</ele><time>2026-04-04T11:39:49.998Z</time></trkpt><trkpt lat="45.39939761639696" lon="11.007351675554796"><ele>49.0</ele><time>2026-04-04T11:39:50.998Z</time></trkpt><trkpt lat="45.39943419436047" lon="11.00768224077812"><ele>49.5</ele><time>2026-04-04T11:39:51.998Z</time></trkpt><trkpt lat="45.39946553793875" lon="11.008017839167753"><ele>50.0</ele><time>2026-04-04T11:39:52.998Z</time></trkpt><trkpt lat="45.39950154698498" lon="11.008349498896338"><ele>50.0</ele><time>2026-04-04T11:39:53.998Z</time></trkpt><trkpt lat="45.39953358248023" lon="11.00868620844889"><ele>50.0</ele><time>2026-04-04T11:39:54.998Z</time></trkpt><trkpt lat="45.399565013697774" lon="11.009017558070267"><ele>51.5</ele><time>2026-04-04T11:39:55.998Z</time></trkpt><trkpt lat="45.39959731695278" lon="11.009351860179827"><ele>53.0</ele><time>2026-04-04T11:39:56.998Z</time></trkpt><trkpt lat="45.3996303489253" lon="11.00968827965472"><ele>53.0</ele><time>2026-04-04T11:39:57.998Z</time></trkpt><trkpt lat="45.39966120725449" lon="11.010013330166112"><ele>53.0</ele><time>2026-04-04T11:39:58.998Z</time></trkpt><trkpt lat="45.399694834936966" lon="11.010341823239036"><ele>53.0</ele><time>2026-04-04T11:39:59.998Z</time></trkpt><trkpt lat="45.39972300263032" lon="11.010664061959861"><ele>53.0</ele><time>2026-04-04T11:40:00.998Z</time></trkpt><trkpt lat="45.399753070938694" lon="11.010983803069728"><ele>53.0</ele><time>2026-04-04T11:40:01.998Z</time></trkpt><trkpt lat="45.399785130607825" lon="11.01130347959659"><ele>53.0</ele><time>2026-04-04T11:40:02.998Z</time></trkpt><trkpt lat="45.39981453450308" lon="11.01161861773381"><ele>52.0</ele><time>2026-04-04T11:40:03.998Z</time></trkpt><trkpt lat="45.39984614580618" lon="11.011930475061112"><ele>51.0</ele><time>2026-04-04T11:40:04.998Z</time></trkpt><trkpt lat="45.399875321149175" lon="11.01223974614488"><ele>50.0</ele><time>2026-04-04T11:40:05.998Z</time></trkpt><trkpt lat="45.399905296041766" lon="11.012547185765987"><ele>49.333333333333336</ele><time>2026-04-04T11:40:06.998Z</time></trkpt><trkpt lat="45.39993560207978" lon="11.012853446314649"><ele>48.66666666666667</ele><time>2026-04-04T11:40:07.998Z</time></trkpt><trkpt lat="45.399968523796396" lon="11.013165626244753"><ele>48.0</ele><time>2026-04-04T11:40:08.998Z</time></trkpt><trkpt lat="45.399997839569224" lon="11.013483063050447"><ele>48.0</ele><time>2026-04-04T11:40:09.998Z</time></trkpt><trkpt lat="45.40002816909037" lon="11.01379601008891"><ele>48.0</ele><time>2026-04-04T11:40:10.998Z</time></trkpt><trkpt lat="45.400060277936866" lon="11.014110337322009"><ele>48.0</ele><time>2026-04-04T11:40:11.998Z</time></trkpt><trkpt lat="45.400093982855914" lon="11.014433097050668"><ele>48.5</ele><time>2026-04-04T11:40:12.998Z</time></trkpt><trkpt lat="45.40012645295673" lon="11.01476010198633"><ele>49.0</ele><time>2026-04-04T11:40:13.998Z</time></trkpt><trkpt lat="45.400163104456965" lon="11.015086981735383"><ele>49.5</ele><time>2026-04-04T11:40:15Z</time></trkpt><trkpt lat="45.40019572064372" lon="11.015425250128029"><ele>50.0</ele><time>2026-04-04T11:40:16Z</time></trkpt><trkpt lat="45.40023031870154" lon="11.015760361852406"><ele>52.0</ele><time>2026-04-04T11:40:17Z</time></trkpt><trkpt lat="45.40026258386564" lon="11.016099760061412"><ele>54.0</ele><time>2026-04-04T11:40:18Z</time></trkpt><trkpt lat="45.40029639416118" lon="11.016442511985412"><ele>51.5</ele><time>2026-04-04T11:40:19Z</time></trkpt><trkpt lat="45.400331793261635" lon="11.016784110695172"><ele>49.0</ele><time>2026-04-04T11:40:20Z</time></trkpt><trkpt lat="45.40036282700232" lon="11.017125691722056"><ele>49.0</ele><time>2026-04-04T11:40:21Z</time></trkpt><trkpt lat="45.4003983521313" lon="11.017467649410495"><ele>49.0</ele><time>2026-04-04T11:40:22Z</time></trkpt><trkpt lat="45.40042905019339" lon="11.017810402961432"><ele>48.5</ele><time>2026-04-04T11:40:23Z</time></trkpt><trkpt lat="45.40046212924099" lon="11.018150585376226"><ele>48.0</ele><time>2026-04-04T11:40:24Z</time></trkpt><trkpt lat="45.40049517397944" lon="11.018494522041747"><ele>51.0</ele><time>2026-04-04T11:40:25Z</time></trkpt><trkpt lat="45.40053253804112" lon="11.018838451719699"><ele>54.0</ele><time>2026-04-04T11:40:26Z</time></trkpt><trkpt lat="45.40056763861337" lon="11.019172868562178"><ele>54.0</ele><time>2026-04-04T11:40:27Z</time></trkpt><trkpt lat="45.40059973412736" lon="11.019510948001392"><ele>54.0</ele><time>2026-04-04T11:40:28Z</time></trkpt><trkpt lat="45.40063980125191" lon="11.019851456030928"><ele>53.5</ele><time>2026-04-04T11:40:29Z</time></trkpt><trkpt lat="45.40066943802812" lon="11.02018752760096"><ele>53.0</ele><time>2026-04-04T11:40:30Z</time></trkpt><trkpt lat="45.40070313514118" lon="11.02052228129438"><ele>52.0</ele><time>2026-04-04T11:40:31Z</time></trkpt><trkpt lat="45.40073758458081" lon="11.02085597602384"><ele>51.0</ele><time>2026-04-04T11:40:32Z</time></trkpt><trkpt lat="45.400770535868524" lon="11.02118725811392"><ele>51.0</ele><time>2026-04-04T11:40:33Z</time></trkpt><trkpt lat="45.400802866503724" lon="11.02151880337283"><ele>51.0</ele><time>2026-04-04T11:40:34Z</time></trkpt><trkpt lat="45.400837627296674" lon="11.02185099239783"><ele>51.0</ele><time>2026-04-04T11:40:35Z</time></trkpt><trkpt lat="45.40086926305036" lon="11.022182632384505"><ele>51.0</ele><time>2026-04-04T11:40:36Z</time></trkpt><trkpt lat="45.40090607425065" lon="11.022514680728865"><ele>51.5</ele><time>2026-04-04T11:40:37Z</time></trkpt><trkpt lat="45.400942806770814" lon="11.022846804237922"><ele>52.0</ele><time>2026-04-04T11:40:38Z</time></trkpt><trkpt lat="45.4009784184736" lon="11.023187662112095"><ele>52.5</ele><time>2026-04-04T11:40:39Z</time></trkpt><trkpt lat="45.4010133714552" lon="11.023526888013828"><ele>53.0</ele><time>2026-04-04T11:40:40Z</time></trkpt><trkpt lat="45.40105599480115" lon="11.023875410661184"><ele>53.5</ele><time>2026-04-04T11:40:41Z</time></trkpt><trkpt lat="45.401108442444894" lon="11.024207192464837"><ele>54.0</ele><time>2026-04-04T11:40:42Z</time></trkpt><trkpt lat="45.401171324342386" lon="11.024564445623708"><ele>54.0</ele><time>2026-04-04T11:40:43Z</time></trkpt><trkpt lat="45.40123363679884" lon="11.024923186387097"><ele>54.0</ele><time>2026-04-04T11:40:44Z</time></trkpt><trkpt lat="45.40128722237181" lon="11.025289502759035"><ele>52.5</ele><time>2026-04-04T11:40:45Z</time></trkpt><trkpt lat="45.401341117486744" lon="11.025652334688601"><ele>51.0</ele><time>2026-04-04T11:40:46Z</time></trkpt><trkpt lat="45.40139822554103" lon="11.02601202682846"><ele>51.0</ele><time>2026-04-04T11:40:47Z</time></trkpt><trkpt lat="45.40145756730832" lon="11.026369627701547"><ele>51.0</ele><time>2026-04-04T11:40:48Z</time></trkpt><trkpt lat="45.40151062478336" lon="11.026736906555882"><ele>51.5</ele><time>2026-04-04T11:40:49Z</time></trkpt><trkpt lat="45.4015478143103" lon="11.027101256181579"><ele>52.0</ele><time>2026-04-04T11:40:50Z</time></trkpt><trkpt lat="45.40157935712573" lon="11.027466857942342"><ele>51.0</ele><time>2026-04-04T11:40:51Z</time></trkpt><trkpt lat="45.40161053323021" lon="11.027825114848245"><ele>50.0</ele><time>2026-04-04T11:40:52Z</time></trkpt><trkpt lat="45.40164319159902" lon="11.028194021493713"><ele>49.5</ele><time>2026-04-04T11:40:53Z</time></trkpt><trkpt lat="45.40167715825849" lon="11.028541738541346"><ele>49.0</ele><time>2026-04-04T11:40:53.999Z</time></trkpt><trkpt lat="45.40170951438189" lon="11.028891127148503"><ele>47.5</ele><time>2026-04-04T11:40:54.999Z</time></trkpt><trkpt lat="45.401748212054" lon="11.029243596817613"><ele>46.0</ele><time>2026-04-04T11:40:55.999Z</time></trkpt><trkpt lat="45.40178388041803" lon="11.029594645324433"><ele>46.0</ele><time>2026-04-04T11:40:56.999Z</time></trkpt><trkpt lat="45.401816678365265" lon="11.029930257924036"><ele>46.0</ele><time>2026-04-04T11:40:57.999Z</time></trkpt><trkpt lat="45.40184858665426" lon="11.03026783404204"><ele>45.5</ele><time>2026-04-04T11:40:58.999Z</time></trkpt><trkpt lat="45.40188075665627" lon="11.030606072401074"><ele>45.0</ele><time>2026-04-04T11:40:59.999Z</time></trkpt><trkpt lat="45.40191697046557" lon="11.030944982306487"><ele>44.0</ele><time>2026-04-04T11:41:00.999Z</time></trkpt><trkpt lat="45.40194902014317" lon="11.031287799406222"><ele>43.0</ele><time>2026-04-04T11:41:01.999Z</time></trkpt><trkpt lat="45.40198268999874" lon="11.031629176525934"><ele>40.0</ele><time>2026-04-04T11:41:02.999Z</time></trkpt><trkpt lat="45.402015043309795" lon="11.03196909012996"><ele>37.0</ele><time>2026-04-04T11:41:03.999Z</time></trkpt><trkpt lat="45.402048951128194" lon="11.032310221653265"><ele>37.0</ele><time>2026-04-04T11:41:04.999Z</time></trkpt><trkpt lat="45.40208368061489" lon="11.032655170078275"><ele>37.0</ele><time>2026-04-04T11:41:05.999Z</time></trkpt><trkpt lat="45.402118592651" lon="11.032995995522347"><ele>38.0</ele><time>2026-04-04T11:41:06.999Z</time></trkpt><trkpt lat="45.40215271125219" lon="11.033342550698626"><ele>39.0</ele><time>2026-04-04T11:41:07.999Z</time></trkpt><trkpt lat="45.40218842761419" lon="11.033698462420219"><ele>40.0</ele><time>2026-04-04T11:41:08.999Z</time></trkpt><trkpt lat="45.40222595198941" lon="11.034047027116221"><ele>41.0</ele><time>2026-04-04T11:41:09.999Z</time></trkpt><trkpt lat="45.402258386573784" lon="11.034399419988489"><ele>41.0</ele><time>2026-04-04T11:41:10.999Z</time></trkpt><trkpt lat="45.40228700217767" lon="11.034741594930242"><ele>41.0</ele><time>2026-04-04T11:41:11.999Z</time></trkpt><trkpt lat="45.40230888917886" lon="11.035094480463698"><ele>40.5</ele><time>2026-04-04T11:41:12.999Z</time></trkpt><trkpt lat="45.40232034524372" lon="11.03544110492313"><ele>40.0</ele><time>2026-04-04T11:41:13.999Z</time></trkpt><trkpt lat="45.402323776919495" lon="11.035788657459229"><ele>39.66666666666667</ele><time>2026-04-04T11:41:14.999Z</time></trkpt><trkpt lat="45.402321980263125" lon="11.036127413771544"><ele>39.333333333333336</ele><time>2026-04-04T11:41:15.999Z</time></trkpt><trkpt lat="45.40231722135839" lon="11.0364273475425"><ele>39.0</ele><time>2026-04-04T11:41:16.999Z</time></trkpt><trkpt lat="45.40231823033396" lon="11.036715935454168"><ele>39.666666666666664</ele><time>2026-04-04T11:41:17.999Z</time></trkpt><trkpt lat="45.402309127553615" lon="11.03699106722469"><ele>40.33333333333333</ele><time>2026-04-04T11:41:18.999Z</time></trkpt><trkpt lat="45.402289433396035" lon="11.037261967859793"><ele>41.0</ele><time>2026-04-04T11:41:19.999Z</time></trkpt><trkpt lat="45.40226388445165" lon="11.037519818740885"><ele>41.33333333333333</ele><time>2026-04-04T11:41:20.999Z</time></trkpt><trkpt lat="45.40223699938377" lon="11.037761986078566"><ele>41.666666666666664</ele><time>2026-04-04T11:41:21.999Z</time></trkpt><trkpt lat="45.40221196543598" lon="11.037988505428807"><ele>42.0</ele><time>2026-04-04T11:41:22.999Z</time></trkpt><trkpt lat="45.4021895444924" lon="11.038235655992622"><ele>40.666666666666664</ele><time>2026-04-04T11:41:23.999Z</time></trkpt><trkpt lat="45.40216268696453" lon="11.038486678912504"><ele>39.33333333333333</ele><time>2026-04-04T11:41:24.999Z</time></trkpt><trkpt lat="45.402128279929386" lon="11.038748745089825"><ele>38.0</ele><time>2026-04-04T11:41:25.999Z</time></trkpt><trkpt lat="45.40209291693962" lon="11.039012755836001"><ele>37.666666666666664</ele><time>2026-04-04T11:41:26.999Z</time></trkpt><trkpt lat="45.40205124274587" lon="11.039280540420283"><ele>37.333333333333336</ele><time>2026-04-04T11:41:27.999Z</time></trkpt><trkpt lat="45.40201172562603" lon="11.039556858714116"><ele>37.0</ele><time>2026-04-04T11:41:28.999Z</time></trkpt><trkpt lat="45.40198116694838" lon="11.039854569849071"><ele>38.5</ele><time>2026-04-04T11:41:29.999Z</time></trkpt><trkpt lat="45.40196032740873" lon="11.040173131408444"><ele>40.0</ele><time>2026-04-04T11:41:30.999Z</time></trkpt><trkpt lat="45.401970255436545" lon="11.040494417967212"><ele>38.0</ele><time>2026-04-04T11:41:31.999Z</time></trkpt><trkpt lat="45.40199817179359" lon="11.040822039588921"><ele>36.0</ele><time>2026-04-04T11:41:32.999Z</time></trkpt><trkpt lat="45.40204648617299" lon="11.04115055107123"><ele>36.0</ele><time>2026-04-04T11:41:33.999Z</time></trkpt><trkpt lat="45.40212787049062" lon="11.04145826007312"><ele>36.0</ele><time>2026-04-04T11:41:34.999Z</time></trkpt><trkpt lat="45.40224411898011" lon="11.041745547712873"><ele>37.0</ele><time>2026-04-04T11:41:35.999Z</time></trkpt><trkpt lat="45.40237626660191" lon="11.042018079155529"><ele>38.0</ele><time>2026-04-04T11:41:36.999Z</time></trkpt><trkpt lat="45.4025176081989" lon="11.042279273780567"><ele>38.0</ele><time>2026-04-04T11:41:37.999Z</time></trkpt><trkpt lat="45.40265887584785" lon="11.042548396470973"><ele>38.0</ele><time>2026-04-04T11:41:38.999Z</time></trkpt><trkpt lat="45.40277892618878" lon="11.04284101261039"><ele>38.0</ele><time>2026-04-04T11:41:39.999Z</time></trkpt><trkpt lat="45.40285296517335" lon="11.043180663171645"><ele>38.0</ele><time>2026-04-04T11:41:40.999Z</time></trkpt><trkpt lat="45.4028914021689" lon="11.04353256470651"><ele>38.0</ele><time>2026-04-04T11:41:41.999Z</time></trkpt><trkpt lat="45.40291052291736" lon="11.043886923027582"><ele>38.0</ele><time>2026-04-04T11:41:42.999Z</time></trkpt><trkpt lat="45.40293455694198" lon="11.04424657224144"><ele>38.0</ele><time>2026-04-04T11:41:43.999Z</time></trkpt><trkpt lat="45.40296677910065" lon="11.044611849457851"><ele>38.0</ele><time>2026-04-04T11:41:44.999Z</time></trkpt><trkpt lat="45.40300336170656" lon="11.044975000104964"><ele>39.5</ele><time>2026-04-04T11:41:45.999Z</time></trkpt><trkpt lat="45.403047207798096" lon="11.045349423916022"><ele>41.0</ele><time>2026-04-04T11:41:46.998Z</time></trkpt><trkpt lat="45.4030792648772" lon="11.045719517604248"><ele>40.0</ele><time>2026-04-04T11:41:47.998Z</time></trkpt><trkpt lat="45.40311592152553" lon="11.046090789013856"><ele>39.0</ele><time>2026-04-04T11:41:48.998Z</time></trkpt><trkpt lat="45.40315319338587" lon="11.046469769432962"><ele>38.0</ele><time>2026-04-04T11:41:49.998Z</time></trkpt><trkpt lat="45.4031926420273" lon="11.04684734321588"><ele>37.0</ele><time>2026-04-04T11:41:50.998Z</time></trkpt><trkpt lat="45.4032313945819" lon="11.047218882809078"><ele>37.0</ele><time>2026-04-04T11:41:51.998Z</time></trkpt><trkpt lat="45.40326919437417" lon="11.047598788553955"><ele>37.0</ele><time>2026-04-04T11:41:52.998Z</time></trkpt><trkpt lat="45.40330751271213" lon="11.047970168203674"><ele>37.0</ele><time>2026-04-04T11:41:53.998Z</time></trkpt><trkpt lat="45.40334124791512" lon="11.048341466491138"><ele>37.0</ele><time>2026-04-04T11:41:54.998Z</time></trkpt><trkpt lat="45.40337885765042" lon="11.048705946630642"><ele>37.0</ele><time>2026-04-04T11:41:55.998Z</time></trkpt><trkpt lat="45.403414430767405" lon="11.049065670642655"><ele>37.0</ele><time>2026-04-04T11:41:56.998Z</time></trkpt><trkpt lat="45.403451603240754" lon="11.049425929676834"><ele>37.0</ele><time>2026-04-04T11:41:57.998Z</time></trkpt><trkpt lat="45.40349665716853" lon="11.049771796872923"><ele>37.0</ele><time>2026-04-04T11:41:58.998Z</time></trkpt><trkpt lat="45.403527976127094" lon="11.050132499941736"><ele>37.0</ele><time>2026-04-04T11:41:59.998Z</time></trkpt><trkpt lat="45.40357642488212" lon="11.05048412454172"><ele>37.0</ele><time>2026-04-04T11:42:00.998Z</time></trkpt><trkpt lat="45.40361574621408" lon="11.050839585109259"><ele>36.5</ele><time>2026-04-04T11:42:01.998Z</time></trkpt><trkpt lat="45.40364782205297" lon="11.051198608942085"><ele>36.0</ele><time>2026-04-04T11:42:02.998Z</time></trkpt><trkpt lat="45.40368092316731" lon="11.051554640151389"><ele>36.0</ele><time>2026-04-04T11:42:03.998Z</time></trkpt><trkpt lat="45.40371746065781" lon="11.051914072770808"><ele>36.0</ele><time>2026-04-04T11:42:04.998Z</time></trkpt><trkpt lat="45.40375615043832" lon="11.05226820982031"><ele>36.5</ele><time>2026-04-04T11:42:05.998Z</time></trkpt><trkpt lat="45.403787527249236" lon="11.052621776326072"><ele>37.0</ele><time>2026-04-04T11:42:06.998Z</time></trkpt><trkpt lat="45.403820561717595" lon="11.052969826187292"><ele>37.5</ele><time>2026-04-04T11:42:07.998Z</time></trkpt><trkpt lat="45.40384937576402" lon="11.05331898445118"><ele>38.0</ele><time>2026-04-04T11:42:08.998Z</time></trkpt><trkpt lat="45.403883273253584" lon="11.05366482280123"><ele>38.0</ele><time>2026-04-04T11:42:09.998Z</time></trkpt><trkpt lat="45.40391307927409" lon="11.054014481675967"><ele>38.0</ele><time>2026-04-04T11:42:10.998Z</time></trkpt><trkpt lat="45.40394040636496" lon="11.054362267838268"><ele>37.5</ele><time>2026-04-04T11:42:11.998Z</time></trkpt><trkpt lat="45.403969721015834" lon="11.054710480491034"><ele>37.0</ele><time>2026-04-04T11:42:12.998Z</time></trkpt><trkpt lat="45.40399839241907" lon="11.055061421308292"><ele>36.5</ele><time>2026-04-04T11:42:13.998Z</time></trkpt><trkpt lat="45.40402952237909" lon="11.055415010900044"><ele>36.0</ele><time>2026-04-04T11:42:14.998Z</time></trkpt><trkpt lat="45.40406145007426" lon="11.055765471271446"><ele>37.5</ele><time>2026-04-04T11:42:15.998Z</time></trkpt><trkpt lat="45.40409279805917" lon="11.05612615734509"><ele>39.0</ele><time>2026-04-04T11:42:16.998Z</time></trkpt><trkpt lat="45.40412438159178" lon="11.056490236910689"><ele>38.5</ele><time>2026-04-04T11:42:17.998Z</time></trkpt><trkpt lat="45.40415529619631" lon="11.056853943586976"><ele>38.0</ele><time>2026-04-04T11:42:18.998Z</time></trkpt><trkpt lat="45.40418715771695" lon="11.057221044035224"><ele>38.0</ele><time>2026-04-04T11:42:19.998Z</time></trkpt><trkpt lat="45.404220701522156" lon="11.05758852832465"><ele>38.0</ele><time>2026-04-04T11:42:21Z</time></trkpt><trkpt lat="45.40425361558757" lon="11.057948507348595"><ele>37.5</ele><time>2026-04-04T11:42:22Z</time></trkpt><trkpt lat="45.404281858634434" lon="11.058308473128076"><ele>37.0</ele><time>2026-04-04T11:42:23Z</time></trkpt><trkpt lat="45.404314486856045" lon="11.058653264686443"><ele>37.0</ele><time>2026-04-04T11:42:24Z</time></trkpt><trkpt lat="45.404339425786546" lon="11.058990934659096"><ele>37.0</ele><time>2026-04-04T11:42:25Z</time></trkpt><trkpt lat="45.40436086870436" lon="11.059344955319796"><ele>37.0</ele><time>2026-04-04T11:42:26Z</time></trkpt><trkpt lat="45.40438150575268" lon="11.059697869787929"><ele>37.0</ele><time>2026-04-04T11:42:27Z</time></trkpt><trkpt lat="45.404402711911764" lon="11.060044226703898"><ele>37.0</ele><time>2026-04-04T11:42:28Z</time></trkpt><trkpt lat="45.40443067086908" lon="11.06039159163823"><ele>37.0</ele><time>2026-04-04T11:42:29Z</time></trkpt><trkpt lat="45.40446115301766" lon="11.060734378298664"><ele>37.0</ele><time>2026-04-04T11:42:30Z</time></trkpt><trkpt lat="45.40448895336616" lon="11.061085745694413"><ele>37.0</ele><time>2026-04-04T11:42:31Z</time></trkpt><trkpt lat="45.40451801995343" lon="11.061430791654866"><ele>37.5</ele><time>2026-04-04T11:42:32Z</time></trkpt><trkpt lat="45.40454594530355" lon="11.061779151048324"><ele>38.0</ele><time>2026-04-04T11:42:33Z</time></trkpt><trkpt lat="45.404578143325494" lon="11.062127683465464"><ele>37.0</ele><time>2026-04-04T11:42:34Z</time></trkpt><trkpt lat="45.40460645119732" lon="11.062480029379808"><ele>36.0</ele><time>2026-04-04T11:42:35Z</time></trkpt><trkpt lat="45.40463922403307" lon="11.06283161833363"><ele>36.0</ele><time>2026-04-04T11:42:36Z</time></trkpt><trkpt lat="45.404664186223854" lon="11.063185096493976"><ele>36.0</ele><time>2026-04-04T11:42:37Z</time></trkpt><trkpt lat="45.40469574587631" lon="11.063540220711905"><ele>36.0</ele><time>2026-04-04T11:42:38Z</time></trkpt><trkpt lat="45.40472250936284" lon="11.063888864362964"><ele>36.0</ele><time>2026-04-04T11:42:39Z</time></trkpt><trkpt lat="45.40475053003202" lon="11.064241099983617"><ele>36.0</ele><time>2026-04-04T11:42:40Z</time></trkpt><trkpt lat="45.40477523795412" lon="11.064587651943526"><ele>36.0</ele><time>2026-04-04T11:42:41Z</time></trkpt><trkpt lat="45.404798176553435" lon="11.064929023318708"><ele>35.5</ele><time>2026-04-04T11:42:42Z</time></trkpt><trkpt lat="45.40482722742625" lon="11.06525170274257"><ele>35.0</ele><time>2026-04-04T11:42:43Z</time></trkpt><trkpt lat="45.40485272955545" lon="11.065565762120636"><ele>35.666666666666664</ele><time>2026-04-04T11:42:44Z</time></trkpt><trkpt lat="45.40487160105572" lon="11.06586980367453"><ele>36.333333333333336</ele><time>2026-04-04T11:42:45Z</time></trkpt><trkpt lat="45.40490657461542" lon="11.066193195571365"><ele>37.0</ele><time>2026-04-04T11:42:46Z</time></trkpt><trkpt lat="45.40494474656544" lon="11.066537024518464"><ele>37.5</ele><time>2026-04-04T11:42:47Z</time></trkpt><trkpt lat="45.40498154861267" lon="11.0668823711607"><ele>38.0</ele><time>2026-04-04T11:42:48Z</time></trkpt><trkpt lat="45.40501103071369" lon="11.067235575020543"><ele>37.5</ele><time>2026-04-04T11:42:49Z</time></trkpt><trkpt lat="45.40503820977098" lon="11.067588097592985"><ele>37.0</ele><time>2026-04-04T11:42:50Z</time></trkpt><trkpt lat="45.40505758325638" lon="11.067933865291248"><ele>38.0</ele><time>2026-04-04T11:42:51Z</time></trkpt><trkpt lat="45.40507746208174" lon="11.06828022131539"><ele>39.0</ele><time>2026-04-04T11:42:52Z</time></trkpt><trkpt lat="45.40510294363627" lon="11.068627066427364"><ele>39.0</ele><time>2026-04-04T11:42:53Z</time></trkpt><trkpt lat="45.40512917026113" lon="11.068966842259064"><ele>39.0</ele><time>2026-04-04T11:42:54Z</time></trkpt><trkpt lat="45.4051597036461" lon="11.069310451225611"><ele>39.5</ele><time>2026-04-04T11:42:55Z</time></trkpt><trkpt lat="45.405184823066904" lon="11.069653300879047"><ele>40.0</ele><time>2026-04-04T11:42:56Z</time></trkpt><trkpt lat="45.40521235507587" lon="11.069992769066355"><ele>40.5</ele><time>2026-04-04T11:42:57Z</time></trkpt><trkpt lat="45.40524261879233" lon="11.070332305568742"><ele>41.0</ele><time>2026-04-04T11:42:58Z</time></trkpt><trkpt lat="45.40527068562349" lon="11.070674187953072"><ele>42.0</ele><time>2026-04-04T11:42:59Z</time></trkpt><trkpt lat="45.405299252086145" lon="11.07101075044822"><ele>43.0</ele><time>2026-04-04T11:42:59.999Z</time></trkpt><trkpt lat="45.40532413671012" lon="11.071352020036661"><ele>42.5</ele><time>2026-04-04T11:43:00.999Z</time></trkpt><trkpt lat="45.405348378123406" lon="11.071693270565007"><ele>42.0</ele><time>2026-04-04T11:43:01.999Z</time></trkpt><trkpt lat="45.40537982585478" lon="11.072034792813511"><ele>42.0</ele><time>2026-04-04T11:43:02.999Z</time></trkpt><trkpt lat="45.405409522758234" lon="11.072374835413633"><ele>42.0</ele><time>2026-04-04T11:43:03.999Z</time></trkpt><trkpt lat="45.40544033584398" lon="11.072713724695031"><ele>41.5</ele><time>2026-04-04T11:43:04.999Z</time></trkpt><trkpt lat="45.405477870176526" lon="11.073052489868669"><ele>41.0</ele><time>2026-04-04T11:43:05.999Z</time></trkpt><trkpt lat="45.405525606087444" lon="11.073389599134693"><ele>41.0</ele><time>2026-04-04T11:43:06.999Z</time></trkpt><trkpt lat="45.40557957947196" lon="11.073727803904882"><ele>41.0</ele><time>2026-04-04T11:43:07.999Z</time></trkpt><trkpt lat="45.4056402955193" lon="11.074057941837562"><ele>41.0</ele><time>2026-04-04T11:43:08.999Z</time></trkpt><trkpt lat="45.40570468985056" lon="11.074389553603163"><ele>41.0</ele><time>2026-04-04T11:43:09.999Z</time></trkpt><trkpt lat="45.40577999844213" lon="11.07471781851221"><ele>41.0</ele><time>2026-04-04T11:43:10.999Z</time></trkpt><trkpt lat="45.40586060816949" lon="11.075044416857478"><ele>41.0</ele><time>2026-04-04T11:43:11.999Z</time></trkpt><trkpt lat="45.405944513252884" lon="11.075371443362098"><ele>41.0</ele><time>2026-04-04T11:43:12.999Z</time></trkpt><trkpt lat="45.40603125845327" lon="11.075686622103797"><ele>41.0</ele><time>2026-04-04T11:43:13.999Z</time></trkpt><trkpt lat="45.406123324031206" lon="11.076004319616096"><ele>40.5</ele><time>2026-04-04T11:43:14.999Z</time></trkpt><trkpt lat="45.40621632893467" lon="11.076321137914945"><ele>40.0</ele><time>2026-04-04T11:43:15.999Z</time></trkpt><trkpt lat="45.406313407807495" lon="11.076635328196389"><ele>40.5</ele><time>2026-04-04T11:43:16.999Z</time></trkpt><trkpt lat="45.40641806715235" lon="11.076946919455644"><ele>41.0</ele><time>2026-04-04T11:43:17.999Z</time></trkpt><trkpt lat="45.40653435247995" lon="11.077245307503217"><ele>41.5</ele><time>2026-04-04T11:43:18.999Z</time></trkpt><trkpt lat="45.40665620832713" lon="11.077539622638453"><ele>42.0</ele><time>2026-04-04T11:43:19.999Z</time></trkpt><trkpt lat="45.40678162974101" lon="11.077831692905647"><ele>42.0</ele><time>2026-04-04T11:43:20.999Z</time></trkpt><trkpt lat="45.40690768596605" lon="11.078118422682952"><ele>42.0</ele><time>2026-04-04T11:43:21.999Z</time></trkpt><trkpt lat="45.40702918098109" lon="11.078410247780027"><ele>41.5</ele><time>2026-04-04T11:43:22.999Z</time></trkpt><trkpt lat="45.407148600291144" lon="11.078705428348469"><ele>41.0</ele><time>2026-04-04T11:43:23.999Z</time></trkpt><trkpt lat="45.40726062586732" lon="11.079002453071771"><ele>40.5</ele><time>2026-04-04T11:43:24.999Z</time></trkpt><trkpt lat="45.40736944244276" lon="11.079300578840428"><ele>40.0</ele><time>2026-04-04T11:43:25.999Z</time></trkpt><trkpt lat="45.40747167885095" lon="11.079599651884077"><ele>40.0</ele><time>2026-04-04T11:43:26.999Z</time></trkpt><trkpt lat="45.40756824219691" lon="11.079910547998368"><ele>40.0</ele><time>2026-04-04T11:43:27.999Z</time></trkpt><trkpt lat="45.40766135881203" lon="11.080219955857048"><ele>40.0</ele><time>2026-04-04T11:43:28.999Z</time></trkpt><trkpt lat="45.40775461856744" lon="11.080533778826117"><ele>40.0</ele><time>2026-04-04T11:43:29.999Z</time></trkpt><trkpt lat="45.40783960379629" lon="11.080851120786958"><ele>40.0</ele><time>2026-04-04T11:43:30.999Z</time></trkpt><trkpt lat="45.40792335284194" lon="11.081173455588935"><ele>40.0</ele><time>2026-04-04T11:43:31.999Z</time></trkpt><trkpt lat="45.4080063321574" lon="11.081496414118185"><ele>41.5</ele><time>2026-04-04T11:43:32.999Z</time></trkpt><trkpt lat="45.408096151464925" lon="11.081820639557879"><ele>43.0</ele><time>2026-04-04T11:43:33.999Z</time></trkpt><trkpt lat="45.40818403489949" lon="11.082140994104808"><ele>44.0</ele><time>2026-04-04T11:43:34.999Z</time></trkpt><trkpt lat="45.408272824441624" lon="11.08246391981167"><ele>45.0</ele><time>2026-04-04T11:43:35.999Z</time></trkpt><trkpt lat="45.4083610125834" lon="11.082792477626997"><ele>45.0</ele><time>2026-04-04T11:43:36.999Z</time></trkpt><trkpt lat="45.408452374830226" lon="11.083112187672425"><ele>45.0</ele><time>2026-04-04T11:43:37.999Z</time></trkpt><trkpt lat="45.40853647557973" lon="11.083444804493242"><ele>44.0</ele><time>2026-04-04T11:43:38.999Z</time></trkpt><trkpt lat="45.40862071711667" lon="11.083770342356921"><ele>43.0</ele><time>2026-04-04T11:43:39.999Z</time></trkpt><trkpt lat="45.408704725822645" lon="11.084095908083137"><ele>43.0</ele><time>2026-04-04T11:43:40.999Z</time></trkpt><trkpt lat="45.408790087921176" lon="11.08441600899118"><ele>43.0</ele><time>2026-04-04T11:43:41.999Z</time></trkpt><trkpt lat="45.4088784173706" lon="11.084739697318172"><ele>43.5</ele><time>2026-04-04T11:43:42.999Z</time></trkpt><trkpt lat="45.4089632866069" lon="11.085061514691231"><ele>44.0</ele><time>2026-04-04T11:43:43.999Z</time></trkpt><trkpt lat="45.40905014369963" lon="11.085384702274666"><ele>44.0</ele><time>2026-04-04T11:43:44.999Z</time></trkpt><trkpt lat="45.409136060751656" lon="11.085698295966255"><ele>44.0</ele><time>2026-04-04T11:43:45.999Z</time></trkpt><trkpt lat="45.40922230204996" lon="11.086016255628092"><ele>44.0</ele><time>2026-04-04T11:43:46.999Z</time></trkpt><trkpt lat="45.409302797604646" lon="11.08633740626456"><ele>44.0</ele><time>2026-04-04T11:43:47.999Z</time></trkpt><trkpt lat="45.40938688646653" lon="11.086647855548456"><ele>44.0</ele><time>2026-04-04T11:43:48.999Z</time></trkpt><trkpt lat="45.40946755424252" lon="11.086953276044538"><ele>44.0</ele><time>2026-04-04T11:43:49.999Z</time></trkpt><trkpt lat="45.40954902615332" lon="11.087255982827767"><ele>44.5</ele><time>2026-04-04T11:43:50.999Z</time></trkpt><trkpt lat="45.409618194170726" lon="11.087564701606084"><ele>45.0</ele><time>2026-04-04T11:43:51.999Z</time></trkpt><trkpt lat="45.409678324102494" lon="11.087869224549"><ele>45.0</ele><time>2026-04-04T11:43:52.998Z</time></trkpt><trkpt lat="45.409696912510555" lon="11.088189885991763"><ele>45.0</ele><time>2026-04-04T11:43:53.998Z</time></trkpt><trkpt lat="45.40969685313109" lon="11.088500728666542"><ele>45.0</ele><time>2026-04-04T11:43:54.998Z</time></trkpt><trkpt lat="45.40967015869887" lon="11.088815065694499"><ele>45.0</ele><time>2026-04-04T11:43:55.998Z</time></trkpt><trkpt lat="45.40962768729483" lon="11.08912218786998"><ele>45.0</ele><time>2026-04-04T11:43:56.998Z</time></trkpt><trkpt lat="45.40956554940114" lon="11.089426659237354"><ele>45.0</ele><time>2026-04-04T11:43:57.998Z</time></trkpt><trkpt lat="45.40948382360705" lon="11.089723540786958"><ele>45.666666666666664</ele><time>2026-04-04T11:43:58.998Z</time></trkpt><trkpt lat="45.409396378803905" lon="11.090020037795188"><ele>46.33333333333333</ele><time>2026-04-04T11:43:59.998Z</time></trkpt><trkpt lat="45.40930452248257" lon="11.090310001963195"><ele>47.0</ele><time>2026-04-04T11:44:00.998Z</time></trkpt><trkpt lat="45.40922741452434" lon="11.090592681007825"><ele>46.666666666666664</ele><time>2026-04-04T11:44:01.998Z</time></trkpt><trkpt lat="45.40916840747064" lon="11.090900982504763"><ele>46.333333333333336</ele><time>2026-04-04T11:44:02.998Z</time></trkpt><trkpt lat="45.409136377010356" lon="11.091213739139091"><ele>46.0</ele><time>2026-04-04T11:44:03.998Z</time></trkpt><trkpt lat="45.409061650578785" lon="11.091491728155846"><ele>45.0</ele><time>2026-04-04T11:44:04.998Z</time></trkpt><trkpt lat="45.408992586314575" lon="11.091768094762024"><ele>44.0</ele><time>2026-04-04T11:44:05.998Z</time></trkpt><trkpt lat="45.408925120578" lon="11.09206685429228"><ele>43.0</ele><time>2026-04-04T11:44:06.998Z</time></trkpt><trkpt lat="45.40887915030769" lon="11.092344000674444"><ele>43.0</ele><time>2026-04-04T11:44:07.998Z</time></trkpt><trkpt lat="45.408846641117734" lon="11.092609139224654"><ele>43.0</ele><time>2026-04-04T11:44:08.998Z</time></trkpt><trkpt lat="45.40882239482943" lon="11.092866774576875"><ele>43.0</ele><time>2026-04-04T11:44:09.998Z</time></trkpt><trkpt lat="45.4094760720659" lon="11.093330732406127"><ele>42.5</ele><time>2026-04-04T11:44:10.998Z</time></trkpt><trkpt lat="45.40961108838502" lon="11.093597053359172"><ele>42.0</ele><time>2026-04-04T11:44:11.998Z</time></trkpt><trkpt lat="45.40976714398153" lon="11.093848647563751"><ele>42.0</ele><time>2026-04-04T11:44:12.998Z</time></trkpt><trkpt lat="45.409940033592775" lon="11.094072767893543"><ele>42.0</ele><time>2026-04-04T11:44:13.998Z</time></trkpt><trkpt lat="45.41012706252134" lon="11.094273491299134"><ele>42.0</ele><time>2026-04-04T11:44:14.998Z</time></trkpt><trkpt lat="45.41032686250629" lon="11.094451457221341"><ele>42.0</ele><time>2026-04-04T11:44:15.998Z</time></trkpt><trkpt lat="45.41053467126489" lon="11.094611297381213"><ele>42.5</ele><time>2026-04-04T11:44:16.998Z</time></trkpt><trkpt lat="45.410746611044985" lon="11.094756421043648"><ele>43.0</ele><time>2026-04-04T11:44:17.998Z</time></trkpt><trkpt lat="45.41095925114035" lon="11.09489267808975"><ele>42.5</ele><time>2026-04-04T11:44:18.998Z</time></trkpt><trkpt lat="45.41116661890539" lon="11.09505829348367"><ele>42.0</ele><time>2026-04-04T11:44:19.998Z</time></trkpt><trkpt lat="45.411364805936586" lon="11.095248781185918"><ele>45.0</ele><time>2026-04-04T11:44:20.998Z</time></trkpt><trkpt lat="45.41154745852764" lon="11.09546657626637"><ele>48.0</ele><time>2026-04-04T11:44:21.998Z</time></trkpt><trkpt lat="45.41171030228251" lon="11.095719535033366"><ele>45.5</ele><time>2026-04-04T11:44:22.998Z</time></trkpt><trkpt lat="45.41185358387876" lon="11.0960017859289"><ele>43.0</ele><time>2026-04-04T11:44:23.998Z</time></trkpt><trkpt lat="45.411977861280214" lon="11.096300709664623"><ele>44.0</ele><time>2026-04-04T11:44:24.998Z</time></trkpt><trkpt lat="45.4120791739639" lon="11.096618284694381"><ele>45.0</ele><time>2026-04-04T11:44:25.998Z</time></trkpt><trkpt lat="45.41216380736446" lon="11.09693732989879"><ele>45.0</ele><time>2026-04-04T11:44:27Z</time></trkpt><trkpt lat="45.412239592576675" lon="11.097263471350383"><ele>45.0</ele><time>2026-04-04T11:44:28Z</time></trkpt><trkpt lat="45.41231725517236" lon="11.097591985150341"><ele>45.0</ele><time>2026-04-04T11:44:29Z</time></trkpt><trkpt lat="45.41240456091115" lon="11.097907347688576"><ele>45.0</ele><time>2026-04-04T11:44:30Z</time></trkpt><trkpt lat="45.412491147533814" lon="11.09822609105165"><ele>44.0</ele><time>2026-04-04T11:44:31Z</time></trkpt><trkpt lat="45.41257741209853" lon="11.09854090885579"><ele>43.0</ele><time>2026-04-04T11:44:32Z</time></trkpt><trkpt lat="45.41266210966752" lon="11.098859875034602"><ele>42.0</ele><time>2026-04-04T11:44:33Z</time></trkpt><trkpt lat="45.41274618704813" lon="11.0991724216929"><ele>41.0</ele><time>2026-04-04T11:44:34Z</time></trkpt><trkpt lat="45.41282773700777" lon="11.09949015508182"><ele>41.0</ele><time>2026-04-04T11:44:35Z</time></trkpt><trkpt lat="45.41291080691925" lon="11.09980636226687"><ele>41.0</ele><time>2026-04-04T11:44:36Z</time></trkpt><trkpt lat="45.412994243823285" lon="11.10011837430872"><ele>42.5</ele><time>2026-04-04T11:44:37Z</time></trkpt><trkpt lat="45.41307758500533" lon="11.100426413833135"><ele>44.0</ele><time>2026-04-04T11:44:38Z</time></trkpt><trkpt lat="45.41316151227842" lon="11.10072901895831"><ele>43.666666666666664</ele><time>2026-04-04T11:44:39Z</time></trkpt><trkpt lat="45.41323884488402" lon="11.101022246184828"><ele>43.333333333333336</ele><time>2026-04-04T11:44:40Z</time></trkpt><trkpt lat="45.41329655738166" lon="11.101300441802294"><ele>43.0</ele><time>2026-04-04T11:44:41Z</time></trkpt><trkpt lat="45.41334102349834" lon="11.10157706639461"><ele>43.333333333333336</ele><time>2026-04-04T11:44:42Z</time></trkpt><trkpt lat="45.41337090287727" lon="11.101863642983883"><ele>43.666666666666664</ele><time>2026-04-04T11:44:43Z</time></trkpt><trkpt lat="45.413377746532866" lon="11.102157233114033"><ele>44.0</ele><time>2026-04-04T11:44:44Z</time></trkpt><trkpt lat="45.413374155322664" lon="11.102448715850972"><ele>43.0</ele><time>2026-04-04T11:44:45Z</time></trkpt><trkpt lat="45.413356030696065" lon="11.10274565963358"><ele>42.0</ele><time>2026-04-04T11:44:46Z</time></trkpt><trkpt lat="45.41332657399357" lon="11.103044823737932"><ele>41.0</ele><time>2026-04-04T11:44:47Z</time></trkpt><trkpt lat="45.41330473067552" lon="11.103338122111253"><ele>40.666666666666664</ele><time>2026-04-04T11:44:48Z</time></trkpt><trkpt lat="45.41328763717821" lon="11.103634342669894"><ele>40.333333333333336</ele><time>2026-04-04T11:44:49Z</time></trkpt><trkpt lat="45.413287451809175" lon="11.103927152706449"><ele>40.0</ele><time>2026-04-04T11:44:50Z</time></trkpt><trkpt lat="45.41330291694227" lon="11.104217601134671"><ele>40.0</ele><time>2026-04-04T11:44:51Z</time></trkpt><trkpt lat="45.4133444880518" lon="11.104503549874568"><ele>40.0</ele><time>2026-04-04T11:44:52Z</time></trkpt><trkpt lat="45.41341107210891" lon="11.104778653744193"><ele>40.0</ele><time>2026-04-04T11:44:53Z</time></trkpt><trkpt lat="45.41350080317375" lon="11.105039516844762"><ele>40.333333333333336</ele><time>2026-04-04T11:44:54Z</time></trkpt><trkpt lat="45.41360614916527" lon="11.105290733607228"><ele>40.666666666666664</ele><time>2026-04-04T11:44:55Z</time></trkpt><trkpt lat="45.41373001698378" lon="11.105522787020229"><ele>41.0</ele><time>2026-04-04T11:44:56Z</time></trkpt><trkpt lat="45.41387510345287" lon="11.105735158771022"><ele>42.0</ele><time>2026-04-04T11:44:57Z</time></trkpt><trkpt lat="45.41403434129792" lon="11.105921769134271"><ele>43.0</ele><time>2026-04-04T11:44:58Z</time></trkpt><trkpt lat="45.41420456963454" lon="11.106106110913586"><ele>44.0</ele><time>2026-04-04T11:44:59Z</time></trkpt><trkpt lat="45.41436640264229" lon="11.106286661058267"><ele>44.0</ele><time>2026-04-04T11:45:00Z</time></trkpt><trkpt lat="45.4145208955016" lon="11.106477747692379"><ele>44.0</ele><time>2026-04-04T11:45:01Z</time></trkpt><trkpt lat="45.41466595127992" lon="11.10666716446726"><ele>44.0</ele><time>2026-04-04T11:45:02Z</time></trkpt><trkpt lat="45.41479684491205" lon="11.106869492549635"><ele>44.0</ele><time>2026-04-04T11:45:03Z</time></trkpt><trkpt lat="45.41491423945736" lon="11.107092506673526"><ele>44.0</ele><time>2026-04-04T11:45:04Z</time></trkpt><trkpt lat="45.415018802766994" lon="11.107328357620213"><ele>44.0</ele><time>2026-04-04T11:45:05Z</time></trkpt><trkpt lat="45.415105086702056" lon="11.107592083265953"><ele>43.0</ele><time>2026-04-04T11:45:06Z</time></trkpt><trkpt lat="45.41517750763925" lon="11.107882977346238"><ele>42.0</ele><time>2026-04-04T11:45:06.999Z</time></trkpt><trkpt lat="45.41525210714396" lon="11.108174048839208"><ele>41.0</ele><time>2026-04-04T11:45:07.999Z</time></trkpt><trkpt lat="45.415332645511974" lon="11.108467960210307"><ele>41.0</ele><time>2026-04-04T11:45:08.999Z</time></trkpt><trkpt lat="45.415413453493656" lon="11.10876613563545"><ele>41.0</ele><time>2026-04-04T11:45:09.999Z</time></trkpt><trkpt lat="45.41549731824715" lon="11.109062774361139"><ele>41.0</ele><time>2026-04-04T11:45:10.999Z</time></trkpt><trkpt lat="45.4155858971718" lon="11.109361790962959"><ele>41.0</ele><time>2026-04-04T11:45:11.999Z</time></trkpt><trkpt lat="45.41567880425225" lon="11.1096589646832"><ele>41.0</ele><time>2026-04-04T11:45:12.999Z</time></trkpt><trkpt lat="45.41577073780228" lon="11.10995399544805"><ele>40.666666666666664</ele><time>2026-04-04T11:45:13.999Z</time></trkpt><trkpt lat="45.415866305363785" lon="11.110241491424656"><ele>40.333333333333336</ele><time>2026-04-04T11:45:14.999Z</time></trkpt><trkpt lat="45.415959192623156" lon="11.11052604272234"><ele>40.0</ele><time>2026-04-04T11:45:15.999Z</time></trkpt><trkpt lat="45.41605714485954" lon="11.110783015828147"><ele>40.0</ele><time>2026-04-04T11:45:16.999Z</time></trkpt><trkpt lat="45.416145626993384" lon="11.111035713354813"><ele>40.0</ele><time>2026-04-04T11:45:17.999Z</time></trkpt><trkpt lat="45.41622983668408" lon="11.111274617093665"><ele>40.0</ele><time>2026-04-04T11:45:18.999Z</time></trkpt><trkpt lat="45.4163139277044" lon="11.111507977489213"><ele>40.66666666666667</ele><time>2026-04-04T11:45:19.999Z</time></trkpt><trkpt lat="45.41639985856575" lon="11.111731283721719"><ele>41.333333333333336</ele><time>2026-04-04T11:45:20.999Z</time></trkpt><trkpt lat="45.4164827380939" lon="11.111960012611812"><ele>42.0</ele><time>2026-04-04T11:45:21.999Z</time></trkpt><trkpt lat="45.41656789378238" lon="11.112190920848226"><ele>42.0</ele><time>2026-04-04T11:45:22.999Z</time></trkpt><trkpt lat="45.416654850101274" lon="11.11242437908019"><ele>42.0</ele><time>2026-04-04T11:45:23.999Z</time></trkpt><trkpt lat="45.41674150581738" lon="11.112660928782555"><ele>42.0</ele><time>2026-04-04T11:45:24.999Z</time></trkpt><trkpt lat="45.416824634981744" lon="11.112910063826687"><ele>42.0</ele><time>2026-04-04T11:45:25.999Z</time></trkpt><trkpt lat="45.41690016412346" lon="11.113165369630618"><ele>42.0</ele><time>2026-04-04T11:45:26.999Z</time></trkpt><trkpt lat="45.416961216211554" lon="11.11343260108825"><ele>42.0</ele><time>2026-04-04T11:45:27.999Z</time></trkpt><trkpt lat="45.41699346824541" lon="11.113715615398549"><ele>42.0</ele><time>2026-04-04T11:45:28.999Z</time></trkpt><trkpt lat="45.41701025239166" lon="11.114002438157154"><ele>42.0</ele><time>2026-04-04T11:45:29.999Z</time></trkpt><trkpt lat="45.417009486377395" lon="11.114289505397545"><ele>42.0</ele><time>2026-04-04T11:45:30.999Z</time></trkpt><trkpt lat="45.416990927653345" lon="11.114579583640836"><ele>42.0</ele><time>2026-04-04T11:45:31.999Z</time></trkpt><trkpt lat="45.4169530434413" lon="11.114865876475491"><ele>42.0</ele><time>2026-04-04T11:45:32.999Z</time></trkpt><trkpt lat="45.416900369551996" lon="11.115142269897415"><ele>42.0</ele><time>2026-04-04T11:45:33.999Z</time></trkpt><trkpt lat="45.416832639799786" lon="11.115412094693582"><ele>41.666666666666664</ele><time>2026-04-04T11:45:34.999Z</time></trkpt><trkpt lat="45.41675363162725" lon="11.115671618158396"><ele>41.33333333333333</ele><time>2026-04-04T11:45:35.999Z</time></trkpt><trkpt lat="45.41666745585909" lon="11.115916383949372"><ele>41.0</ele><time>2026-04-04T11:45:36.999Z</time></trkpt><trkpt lat="45.41657921387114" lon="11.116152249644857"><ele>41.0</ele><time>2026-04-04T11:45:37.999Z</time></trkpt><trkpt lat="45.41649870309" lon="11.11638977069968"><ele>41.0</ele><time>2026-04-04T11:45:38.999Z</time></trkpt><trkpt lat="45.41642228523173" lon="11.116628571199879"><ele>41.0</ele><time>2026-04-04T11:45:39.999Z</time></trkpt><trkpt lat="45.416346154382666" lon="11.116865024663129"><ele>41.0</ele><time>2026-04-04T11:45:40.999Z</time></trkpt><trkpt lat="45.416266285688046" lon="11.117107861745883"><ele>41.0</ele><time>2026-04-04T11:45:41.999Z</time></trkpt><trkpt lat="45.41618829441619" lon="11.117341794052574"><ele>41.0</ele><time>2026-04-04T11:45:42.999Z</time></trkpt><trkpt lat="45.41611700055394" lon="11.117560902107552"><ele>41.0</ele><time>2026-04-04T11:45:43.999Z</time></trkpt><trkpt lat="45.416042515136624" lon="11.117766524115876"><ele>41.0</ele><time>2026-04-04T11:45:44.999Z</time></trkpt><trkpt lat="45.41597758265938" lon="11.117962432263742"><ele>41.0</ele><time>2026-04-04T11:45:45.999Z</time></trkpt><trkpt lat="45.41591639611137" lon="11.118152706011271"><ele>41.5</ele><time>2026-04-04T11:45:46.999Z</time></trkpt><trkpt lat="45.41585729902331" lon="11.118331257328268"><ele>42.0</ele><time>2026-04-04T11:45:47.999Z</time></trkpt><trkpt lat="45.41579907054124" lon="11.1185072485721"><ele>42.5</ele><time>2026-04-04T11:45:48.999Z</time></trkpt><trkpt lat="45.41574648499664" lon="11.118673360437393"><ele>43.0</ele><time>2026-04-04T11:45:49.999Z</time></trkpt><trkpt lat="45.41569602393484" lon="11.118828811281947"><ele>43.0</ele><time>2026-04-04T11:45:50.999Z</time></trkpt><trkpt lat="45.41564630104878" lon="11.118978839677098"><ele>43.0</ele><time>2026-04-04T11:45:51.999Z</time></trkpt><trkpt lat="45.41559507287781" lon="11.119117613724114"><ele>43.0</ele><time>2026-04-04T11:45:52.999Z</time></trkpt><trkpt lat="45.415537214058155" lon="11.119242354884008"><ele>43.0</ele><time>2026-04-04T11:45:53.999Z</time></trkpt><trkpt lat="45.4154756541263" lon="11.119345832067404"><ele>43.0</ele><time>2026-04-04T11:45:54.999Z</time></trkpt><trkpt lat="45.41540731320293" lon="11.119426042334718"><ele>42.599999999999994</ele><time>2026-04-04T11:45:55.999Z</time></trkpt><trkpt lat="45.415352968167376" lon="11.119510541850586"><ele>42.199999999999996</ele><time>2026-04-04T11:45:56.999Z</time></trkpt><trkpt lat="45.41524423195916" lon="11.11952359937425"><ele>41.8</ele><time>2026-04-04T11:45:57.999Z</time></trkpt><trkpt lat="45.41517052021716" lon="11.119609353869455"><ele>41.4</ele><time>2026-04-04T11:45:58.999Z</time></trkpt><trkpt lat="45.415123894977214" lon="11.119753964380566"><ele>41.0</ele><time>2026-04-04T11:45:59.998Z</time></trkpt><trkpt lat="45.41511189546086" lon="11.119917162278538"><ele>41.0</ele><time>2026-04-04T11:46:00.998Z</time></trkpt><trkpt lat="45.41513977468059" lon="11.120087581477497"><ele>41.0</ele><time>2026-04-04T11:46:01.998Z</time></trkpt><trkpt lat="45.415166946670276" lon="11.120250090898693"><ele>41.0</ele><time>2026-04-04T11:46:02.998Z</time></trkpt><trkpt lat="45.41516399110059" lon="11.120412546896137"><ele>41.0</ele><time>2026-04-04T11:46:03.998Z</time></trkpt><trkpt lat="45.415167114284806" lon="11.120592528178795"><ele>41.33333333333333</ele><time>2026-04-04T11:46:04.998Z</time></trkpt><trkpt lat="45.41507118730807" lon="11.120813364039021"><ele>41.666666666666664</ele><time>2026-04-04T11:46:05.998Z</time></trkpt><trkpt lat="45.41500091103155" lon="11.12103406312376"><ele>42.0</ele><time>2026-04-04T11:46:06.998Z</time></trkpt><trkpt lat="45.41492153847072" lon="11.121263338977677"><ele>42.0</ele><time>2026-04-04T11:46:07.998Z</time></trkpt><trkpt lat="45.41484564237905" lon="11.121485186176958"><ele>42.0</ele><time>2026-04-04T11:46:08.998Z</time></trkpt><trkpt lat="45.414779836170624" lon="11.121686819469549"><ele>42.0</ele><time>2026-04-04T11:46:09.998Z</time></trkpt><trkpt lat="45.41471509736066" lon="11.121878143168015"><ele>41.333333333333336</ele><time>2026-04-04T11:46:10.998Z</time></trkpt><trkpt lat="45.414649413981664" lon="11.122084799097564"><ele>40.66666666666667</ele><time>2026-04-04T11:46:11.998Z</time></trkpt><trkpt lat="45.41458149324484" lon="11.122299233208237"><ele>40.0</ele><time>2026-04-04T11:46:12.998Z</time></trkpt><trkpt lat="45.41451015290254" lon="11.122520874899724"><ele>40.0</ele><time>2026-04-04T11:46:13.998Z</time></trkpt><trkpt lat="45.41443775939461" lon="11.122746732670931"><ele>40.0</ele><time>2026-04-04T11:46:14.998Z</time></trkpt><trkpt lat="45.41436322486724" lon="11.12297524714339"><ele>40.0</ele><time>2026-04-04T11:46:15.998Z</time></trkpt><trkpt lat="45.414293693226156" lon="11.123196026825761"><ele>40.333333333333336</ele><time>2026-04-04T11:46:16.998Z</time></trkpt><trkpt lat="45.41421915291071" lon="11.123420168788256"><ele>40.666666666666664</ele><time>2026-04-04T11:46:17.998Z</time></trkpt><trkpt lat="45.41414733009826" lon="11.12364118895686"><ele>41.0</ele><time>2026-04-04T11:46:18.998Z</time></trkpt><trkpt lat="45.41407352306487" lon="11.123868704156383"><ele>41.0</ele><time>2026-04-04T11:46:19.998Z</time></trkpt><trkpt lat="45.413999676628364" lon="11.124096786041372"><ele>41.0</ele><time>2026-04-04T11:46:20.998Z</time></trkpt><trkpt lat="45.41392913982082" lon="11.124322406927307"><ele>41.0</ele><time>2026-04-04T11:46:21.998Z</time></trkpt><trkpt lat="45.413860927300036" lon="11.124545931881713"><ele>40.666666666666664</ele><time>2026-04-04T11:46:22.998Z</time></trkpt><trkpt lat="45.41378920765042" lon="11.124768215784206"><ele>40.333333333333336</ele><time>2026-04-04T11:46:23.998Z</time></trkpt><trkpt lat="45.413717858477696" lon="11.124986354017102"><ele>40.0</ele><time>2026-04-04T11:46:24.998Z</time></trkpt><trkpt lat="45.41364779290831" lon="11.125203886527673"><ele>39.66666666666667</ele><time>2026-04-04T11:46:25.998Z</time></trkpt><trkpt lat="45.41357709371661" lon="11.1254279217988"><ele>39.333333333333336</ele><time>2026-04-04T11:46:26.998Z</time></trkpt><trkpt lat="45.41350328391425" lon="11.125652729085134"><ele>39.0</ele><time>2026-04-04T11:46:27.998Z</time></trkpt><trkpt lat="45.41343134063431" lon="11.125882234513725"><ele>39.0</ele><time>2026-04-04T11:46:28.998Z</time></trkpt><trkpt lat="45.41335559577716" lon="11.126114050275177"><ele>39.0</ele><time>2026-04-04T11:46:29.998Z</time></trkpt><trkpt lat="45.41328341098936" lon="11.126340283994514"><ele>39.0</ele><time>2026-04-04T11:46:30.998Z</time></trkpt><trkpt lat="45.413213547031205" lon="11.126576328914206"><ele>39.333333333333336</ele><time>2026-04-04T11:46:31.998Z</time></trkpt><trkpt lat="45.413141716161235" lon="11.126811771060359"><ele>39.66666666666667</ele><time>2026-04-04T11:46:33Z</time></trkpt><trkpt lat="45.41306987486017" lon="11.127047329048485"><ele>40.0</ele><time>2026-04-04T11:46:34Z</time></trkpt><trkpt lat="45.41299878924233" lon="11.12727463576446"><ele>40.0</ele><time>2026-04-04T11:46:35Z</time></trkpt><trkpt lat="45.412931936104634" lon="11.127499468694795"><ele>40.0</ele><time>2026-04-04T11:46:36Z</time></trkpt><trkpt lat="45.412864489466536" lon="11.127719566219271"><ele>40.0</ele><time>2026-04-04T11:46:37Z</time></trkpt><trkpt lat="45.412793064291414" lon="11.127947051947634"><ele>40.0</ele><time>2026-04-04T11:46:38Z</time></trkpt><trkpt lat="45.41273015590387" lon="11.128172742281222"><ele>40.0</ele><time>2026-04-04T11:46:39Z</time></trkpt><trkpt lat="45.412661722868144" lon="11.128402125579287"><ele>40.0</ele><time>2026-04-04T11:46:40Z</time></trkpt><trkpt lat="45.4125875568858" lon="11.128632624089638"><ele>39.66666666666667</ele><time>2026-04-04T11:46:41Z</time></trkpt><trkpt lat="45.41251516440596" lon="11.128853868350262"><ele>39.333333333333336</ele><time>2026-04-04T11:46:42Z</time></trkpt><trkpt lat="45.412452354322994" lon="11.129058741217369"><ele>39.0</ele><time>2026-04-04T11:46:43Z</time></trkpt><trkpt lat="45.41238949401285" lon="11.12924637237966"><ele>39.0</ele><time>2026-04-04T11:46:44Z</time></trkpt><trkpt lat="45.412328074654866" lon="11.129429646493165"><ele>39.0</ele><time>2026-04-04T11:46:45Z</time></trkpt><trkpt lat="45.41227333628543" lon="11.129608676985471"><ele>39.0</ele><time>2026-04-04T11:46:46Z</time></trkpt><trkpt lat="45.41221953994376" lon="11.129777801274871"><ele>39.0</ele><time>2026-04-04T11:46:47Z</time></trkpt><trkpt lat="45.412166929031365" lon="11.129939311040026"><ele>39.0</ele><time>2026-04-04T11:46:48Z</time></trkpt><trkpt lat="45.41211915669123" lon="11.130090380279395"><ele>39.0</ele><time>2026-04-04T11:46:49Z</time></trkpt><trkpt lat="45.41207568727146" lon="11.130221823516843"><ele>39.0</ele><time>2026-04-04T11:46:50Z</time></trkpt><trkpt lat="45.41204441822737" lon="11.1303373903436"><ele>39.0</ele><time>2026-04-04T11:46:51Z</time></trkpt><trkpt lat="45.41199724163543" lon="11.130443057258129"><ele>39.0</ele><time>2026-04-04T11:46:52Z</time></trkpt><trkpt lat="45.4119450084205" lon="11.130529278962792"><ele>39.0</ele><time>2026-04-04T11:46:53Z</time></trkpt><trkpt lat="45.41188019866547" lon="11.130590402408524"><ele>39.0</ele><time>2026-04-04T11:46:54Z</time></trkpt><trkpt lat="45.411798099950204" lon="11.130645812474976"><ele>39.0</ele><time>2026-04-04T11:46:55Z</time></trkpt><trkpt lat="45.41170649156046" lon="11.130710712234931"><ele>39.0</ele><time>2026-04-04T11:46:56Z</time></trkpt><trkpt lat="45.411615006178" lon="11.130798753171584"><ele>39.0</ele><time>2026-04-04T11:46:57Z</time></trkpt><trkpt lat="45.41155231783674" lon="11.13093046083391"><ele>39.0</ele><time>2026-04-04T11:46:58Z</time></trkpt><trkpt lat="45.41152845461682" lon="11.131085501403051"><ele>39.0</ele><time>2026-04-04T11:46:59Z</time></trkpt><trkpt lat="45.41155085904686" lon="11.13125564434771"><ele>39.0</ele><time>2026-04-04T11:47:00Z</time></trkpt><trkpt lat="45.41157764691771" lon="11.131409168251029"><ele>39.0</ele><time>2026-04-04T11:47:01Z</time></trkpt><trkpt lat="45.4115952575459" lon="11.131570078615937"><ele>39.0</ele><time>2026-04-04T11:47:02Z</time></trkpt><trkpt lat="45.411603701026685" lon="11.13174709264034"><ele>39.0</ele><time>2026-04-04T11:47:03Z</time></trkpt><trkpt lat="45.41159914075304" lon="11.131948073257952"><ele>39.0</ele><time>2026-04-04T11:47:04Z</time></trkpt><trkpt lat="45.41156831098324" lon="11.132160183249466"><ele>39.0</ele><time>2026-04-04T11:47:05Z</time></trkpt><trkpt lat="45.411517500063546" lon="11.132383439920368"><ele>39.0</ele><time>2026-04-04T11:47:06Z</time></trkpt><trkpt lat="45.41143515892757" lon="11.132647080467079"><ele>39.0</ele><time>2026-04-04T11:47:07Z</time></trkpt><trkpt lat="45.4113543491894" lon="11.132946341462814"><ele>39.0</ele><time>2026-04-04T11:47:08Z</time></trkpt><trkpt lat="45.41126595351091" lon="11.133244793133612"><ele>39.0</ele><time>2026-04-04T11:47:09Z</time></trkpt><trkpt lat="45.411168700461054" lon="11.133555105632771"><ele>39.0</ele><time>2026-04-04T11:47:10Z</time></trkpt><trkpt lat="45.41108535598342" lon="11.133869906297045"><ele>39.0</ele><time>2026-04-04T11:47:11Z</time></trkpt><trkpt lat="45.4109788821466" lon="11.134172968597056"><ele>39.0</ele><time>2026-04-04T11:47:12Z</time></trkpt><trkpt lat="45.41087251310233" lon="11.134481173368604"><ele>39.0</ele><time>2026-04-04T11:47:13Z</time></trkpt><trkpt lat="45.41076935677079" lon="11.134797551209072"><ele>39.0</ele><time>2026-04-04T11:47:13.999Z</time></trkpt><trkpt lat="45.41066832287561" lon="11.13512142261926"><ele>38.0</ele><time>2026-04-04T11:47:14.999Z</time></trkpt><trkpt lat="45.410574211665526" lon="11.135435436155225"><ele>37.0</ele><time>2026-04-04T11:47:15.999Z</time></trkpt><trkpt lat="45.41048370418722" lon="11.135720425082974"><ele>36.66666666666667</ele><time>2026-04-04T11:47:16.999Z</time></trkpt><trkpt lat="45.41040254693331" lon="11.135988735671875"><ele>36.333333333333336</ele><time>2026-04-04T11:47:17.999Z</time></trkpt><trkpt lat="45.41032203639927" lon="11.136249738569552"><ele>36.0</ele><time>2026-04-04T11:47:18.999Z</time></trkpt><trkpt lat="45.4102437205254" lon="11.136503893327344"><ele>35.333333333333336</ele><time>2026-04-04T11:47:19.999Z</time></trkpt><trkpt lat="45.410166114270254" lon="11.136750290290667"><ele>34.66666666666667</ele><time>2026-04-04T11:47:20.999Z</time></trkpt><trkpt lat="45.41009236486907" lon="11.136992609447201"><ele>34.0</ele><time>2026-04-04T11:47:21.999Z</time></trkpt><trkpt lat="45.410011677200295" lon="11.137239012722256"><ele>34.5</ele><time>2026-04-04T11:47:22.999Z</time></trkpt><trkpt lat="45.40993004606198" lon="11.137520961180671"><ele>35.0</ele><time>2026-04-04T11:47:23.999Z</time></trkpt><trkpt lat="45.40981756100661" lon="11.13782636456915"><ele>35.0</ele><time>2026-04-04T11:47:24.999Z</time></trkpt><trkpt lat="45.409696174336226" lon="11.138139963591996"><ele>35.0</ele><time>2026-04-04T11:47:25.999Z</time></trkpt><trkpt lat="45.409568360424124" lon="11.138445493080809"><ele>35.0</ele><time>2026-04-04T11:47:26.999Z</time></trkpt><trkpt lat="45.409433195696266" lon="11.138751154319174"><ele>35.0</ele><time>2026-04-04T11:47:27.999Z</time></trkpt><trkpt lat="45.40929993334117" lon="11.139076896285376"><ele>36.0</ele><time>2026-04-04T11:47:28.999Z</time></trkpt><trkpt lat="45.409150304386905" lon="11.139395229011827"><ele>37.0</ele><time>2026-04-04T11:47:29.999Z</time></trkpt><trkpt lat="45.40901328242849" lon="11.139715784854005"><ele>37.5</ele><time>2026-04-04T11:47:30.999Z</time></trkpt><trkpt lat="45.40889139268372" lon="11.140023614133764"><ele>38.0</ele><time>2026-04-04T11:47:31.999Z</time></trkpt><trkpt lat="45.40878344273771" lon="11.140301713961597"><ele>38.0</ele><time>2026-04-04T11:47:32.999Z</time></trkpt><trkpt lat="45.408697957860426" lon="11.140567919978588"><ele>38.0</ele><time>2026-04-04T11:47:33.999Z</time></trkpt><trkpt lat="45.4086215354754" lon="11.140831992427218"><ele>38.0</ele><time>2026-04-04T11:47:34.999Z</time></trkpt><trkpt lat="45.40855327016012" lon="11.141098180846456"><ele>38.0</ele><time>2026-04-04T11:47:35.999Z</time></trkpt><trkpt lat="45.408481837529074" lon="11.141361424649384"><ele>38.0</ele><time>2026-04-04T11:47:36.999Z</time></trkpt><trkpt lat="45.408414193895695" lon="11.141621095493718"><ele>38.0</ele><time>2026-04-04T11:47:37.999Z</time></trkpt><trkpt lat="45.4083488180295" lon="11.141871357008572"><ele>37.666666666666664</ele><time>2026-04-04T11:47:38.999Z</time></trkpt><trkpt lat="45.408286117166355" lon="11.142111771991742"><ele>37.333333333333336</ele><time>2026-04-04T11:47:39.999Z</time></trkpt><trkpt lat="45.40822658824631" lon="11.142331149059014"><ele>37.0</ele><time>2026-04-04T11:47:40.999Z</time></trkpt><trkpt lat="45.40817029239963" lon="11.142535248117985"><ele>36.75</ele><time>2026-04-04T11:47:41.999Z</time></trkpt><trkpt lat="45.40812311911176" lon="11.142727279209089"><ele>36.5</ele><time>2026-04-04T11:47:42.999Z</time></trkpt><trkpt lat="45.40807840666829" lon="11.142893914361604"><ele>36.25</ele><time>2026-04-04T11:47:43.999Z</time></trkpt><trkpt lat="45.40803401807331" lon="11.14303636194508"><ele>36.0</ele><time>2026-04-04T11:47:44.999Z</time></trkpt><trkpt lat="45.40798050855286" lon="11.143164337255326"><ele>35.25</ele><time>2026-04-04T11:47:45.999Z</time></trkpt><trkpt lat="45.407899268960875" lon="11.143257466160417"><ele>34.5</ele><time>2026-04-04T11:47:46.999Z</time></trkpt><trkpt lat="45.40778706643935" lon="11.14330760793759"><ele>33.75</ele><time>2026-04-04T11:47:47.999Z</time></trkpt><trkpt lat="45.407678885600276" lon="11.143375961255275"><ele>33.0</ele><time>2026-04-04T11:47:48.999Z</time></trkpt><trkpt lat="45.407599723654506" lon="11.143506775015647"><ele>33.0</ele><time>2026-04-04T11:47:49.999Z</time></trkpt><trkpt lat="45.40756384965059" lon="11.143681652558325"><ele>33.0</ele><time>2026-04-04T11:47:50.999Z</time></trkpt><trkpt lat="45.40758213680344" lon="11.143882596396782"><ele>33.0</ele><time>2026-04-04T11:47:51.999Z</time></trkpt><trkpt lat="45.40763777272778" lon="11.144108542660426"><ele>33.0</ele><time>2026-04-04T11:47:52.999Z</time></trkpt><trkpt lat="45.40767975269802" lon="11.144359194687558"><ele>33.0</ele><time>2026-04-04T11:47:53.999Z</time></trkpt><trkpt lat="45.40769502799138" lon="11.144610137790497"><ele>33.0</ele><time>2026-04-04T11:47:54.999Z</time></trkpt><trkpt lat="45.40755262430922" lon="11.144863236488396"><ele>33.0</ele><time>2026-04-04T11:47:55.999Z</time></trkpt><trkpt lat="45.407496334570446" lon="11.145141109193414"><ele>33.0</ele><time>2026-04-04T11:47:56.999Z</time></trkpt><trkpt lat="45.40740952986137" lon="11.145407529544514"><ele>33.0</ele><time>2026-04-04T11:47:57.999Z</time></trkpt><trkpt lat="45.407332269956264" lon="11.145687047886755"><ele>33.0</ele><time>2026-04-04T11:47:58.999Z</time></trkpt><trkpt lat="45.40725818348264" lon="11.145967046920354"><ele>33.0</ele><time>2026-04-04T11:47:59.999Z</time></trkpt><trkpt lat="45.40718546387683" lon="11.146242955123546"><ele>33.0</ele><time>2026-04-04T11:48:00.999Z</time></trkpt><trkpt lat="45.40711404322361" lon="11.146515791952993"><ele>33.0</ele><time>2026-04-04T11:48:01.999Z</time></trkpt><trkpt lat="45.40704045751559" lon="11.146788915072854"><ele>33.0</ele><time>2026-04-04T11:48:02.999Z</time></trkpt><trkpt lat="45.40697178963477" lon="11.14706513630141"><ele>33.0</ele><time>2026-04-04T11:48:03.999Z</time></trkpt><trkpt lat="45.4068977406528" lon="11.147345416876059"><ele>33.0</ele><time>2026-04-04T11:48:04.999Z</time></trkpt><trkpt lat="45.406828771699885" lon="11.147633705859477"><ele>32.666666666666664</ele><time>2026-04-04T11:48:05.999Z</time></trkpt><trkpt lat="45.406762410333194" lon="11.147926236505398"><ele>32.33333333333333</ele><time>2026-04-04T11:48:06.998Z</time></trkpt><trkpt lat="45.40669794936221" lon="11.148221621821063"><ele>32.0</ele><time>2026-04-04T11:48:07.998Z</time></trkpt><trkpt lat="45.40663031332593" lon="11.148516373753312"><ele>31.333333333333332</ele><time>2026-04-04T11:48:08.998Z</time></trkpt><trkpt lat="45.40656216871071" lon="11.148814954408628"><ele>30.666666666666664</ele><time>2026-04-04T11:48:09.998Z</time></trkpt><trkpt lat="45.40648963183085" lon="11.149116269236323"><ele>30.0</ele><time>2026-04-04T11:48:10.998Z</time></trkpt><trkpt lat="45.40641373250206" lon="11.149418264212175"><ele>29.5</ele><time>2026-04-04T11:48:11.998Z</time></trkpt><trkpt lat="45.406332605503295" lon="11.149720417721788"><ele>29.0</ele><time>2026-04-04T11:48:12.998Z</time></trkpt><trkpt lat="45.40625227085156" lon="11.150021902162035"><ele>29.0</ele><time>2026-04-04T11:48:13.998Z</time></trkpt><trkpt lat="45.40617278389476" lon="11.150322370428775"><ele>29.0</ele><time>2026-04-04T11:48:14.998Z</time></trkpt><trkpt lat="45.40609862982221" lon="11.150617512507294"><ele>29.0</ele><time>2026-04-04T11:48:15.998Z</time></trkpt><trkpt lat="45.40602067904862" lon="11.150909916651864"><ele>29.0</ele><time>2026-04-04T11:48:16.998Z</time></trkpt><trkpt lat="45.40594581748931" lon="11.15120035605739"><ele>29.0</ele><time>2026-04-04T11:48:17.998Z</time></trkpt><trkpt lat="45.40587592482433" lon="11.151489597985744"><ele>29.0</ele><time>2026-04-04T11:48:18.998Z</time></trkpt><trkpt lat="45.405795124707254" lon="11.151781115202846"><ele>29.0</ele><time>2026-04-04T11:48:19.998Z</time></trkpt><trkpt lat="45.40571516634913" lon="11.152071459885406"><ele>29.0</ele><time>2026-04-04T11:48:20.998Z</time></trkpt><trkpt lat="45.405637234254485" lon="11.152367073939969"><ele>29.0</ele><time>2026-04-04T11:48:21.998Z</time></trkpt><trkpt lat="45.40555866382004" lon="11.152663350015137"><ele>29.0</ele><time>2026-04-04T11:48:22.998Z</time></trkpt><trkpt lat="45.40548253110328" lon="11.152958645082467"><ele>29.0</ele><time>2026-04-04T11:48:23.998Z</time></trkpt><trkpt lat="45.40540547094981" lon="11.153253899238898"><ele>29.0</ele><time>2026-04-04T11:48:24.998Z</time></trkpt><trkpt lat="45.4053259414615" lon="11.153549236223526"><ele>29.0</ele><time>2026-04-04T11:48:25.998Z</time></trkpt><trkpt lat="45.405251167427146" lon="11.153843239274163"><ele>29.0</ele><time>2026-04-04T11:48:26.998Z</time></trkpt><trkpt lat="45.40517331873217" lon="11.154139115476271"><ele>29.0</ele><time>2026-04-04T11:48:27.998Z</time></trkpt><trkpt lat="45.405097397230435" lon="11.154435207656825"><ele>29.0</ele><time>2026-04-04T11:48:28.998Z</time></trkpt><trkpt lat="45.40501791015965" lon="11.15473159863049"><ele>29.0</ele><time>2026-04-04T11:48:29.998Z</time></trkpt><trkpt lat="45.404936923646254" lon="11.15503143575531"><ele>29.0</ele><time>2026-04-04T11:48:30.998Z</time></trkpt><trkpt lat="45.40485889956569" lon="11.155324288828668"><ele>29.0</ele><time>2026-04-04T11:48:31.998Z</time></trkpt><trkpt lat="45.40478108355851" lon="11.155619169763806"><ele>29.0</ele><time>2026-04-04T11:48:32.998Z</time></trkpt><trkpt lat="45.40470386362445" lon="11.155914376295417"><ele>29.0</ele><time>2026-04-04T11:48:33.998Z</time></trkpt><trkpt lat="45.404621872555744" lon="11.156207843771142"><ele>28.333333333333332</ele><time>2026-04-04T11:48:34.998Z</time></trkpt><trkpt lat="45.4045425392055" lon="11.156508052398756"><ele>27.666666666666664</ele><time>2026-04-04T11:48:35.998Z</time></trkpt><trkpt lat="45.40445813277019" lon="11.15679707903348"><ele>27.0</ele><time>2026-04-04T11:48:36.998Z</time></trkpt><trkpt lat="45.404383505305944" lon="11.157097813510628"><ele>27.333333333333336</ele><time>2026-04-04T11:48:37.998Z</time></trkpt><trkpt lat="45.404304185681596" lon="11.157392678136084"><ele>27.666666666666668</ele><time>2026-04-04T11:48:39Z</time></trkpt><trkpt lat="45.4042267734097" lon="11.157683302397096"><ele>28.0</ele><time>2026-04-04T11:48:40Z</time></trkpt><trkpt lat="45.404150807768104" lon="11.157981693886946"><ele>28.0</ele><time>2026-04-04T11:48:41Z</time></trkpt><trkpt lat="45.4040735471617" lon="11.158276005186478"><ele>28.0</ele><time>2026-04-04T11:48:42Z</time></trkpt><trkpt lat="45.4039931759962" lon="11.158566026665248"><ele>28.0</ele><time>2026-04-04T11:48:43Z</time></trkpt><trkpt lat="45.40391268096087" lon="11.158857329365013"><ele>28.0</ele><time>2026-04-04T11:48:44Z</time></trkpt><trkpt lat="45.403835180214664" lon="11.159150184404949"><ele>28.0</ele><time>2026-04-04T11:48:45Z</time></trkpt><trkpt lat="45.403761417580625" lon="11.159446171676885"><ele>28.0</ele><time>2026-04-04T11:48:46Z</time></trkpt><trkpt lat="45.403681175928064" lon="11.159735282849612"><ele>28.0</ele><time>2026-04-04T11:48:47Z</time></trkpt><trkpt lat="45.40360912074102" lon="11.160031822292462"><ele>28.0</ele><time>2026-04-04T11:48:48Z</time></trkpt><trkpt lat="45.40352904786475" lon="11.160318074274016"><ele>28.0</ele><time>2026-04-04T11:48:49Z</time></trkpt><trkpt lat="45.40345022876893" lon="11.160606029812353"><ele>27.666666666666668</ele><time>2026-04-04T11:48:50Z</time></trkpt><trkpt lat="45.40337437643908" lon="11.160897821363069"><ele>27.333333333333336</ele><time>2026-04-04T11:48:51Z</time></trkpt><trkpt lat="45.40329714527562" lon="11.161187295178074"><ele>27.0</ele><time>2026-04-04T11:48:52Z</time></trkpt><trkpt lat="45.403220865220085" lon="11.16147954295074"><ele>27.0</ele><time>2026-04-04T11:48:53Z</time></trkpt><trkpt lat="45.403146300019884" lon="11.161761100184327"><ele>27.0</ele><time>2026-04-04T11:48:54Z</time></trkpt><trkpt lat="45.40307572042604" lon="11.16203215449757"><ele>27.0</ele><time>2026-04-04T11:48:55Z</time></trkpt><trkpt lat="45.40300638116258" lon="11.162287444795762"><ele>27.0</ele><time>2026-04-04T11:48:56Z</time></trkpt><trkpt lat="45.40294506212629" lon="11.162527904284604"><ele>27.0</ele><time>2026-04-04T11:48:57Z</time></trkpt><trkpt lat="45.40289022670033" lon="11.16275011958178"><ele>27.0</ele><time>2026-04-04T11:48:58Z</time></trkpt><trkpt lat="45.402835023259954" lon="11.162948758418977"><ele>27.0</ele><time>2026-04-04T11:48:59Z</time></trkpt><trkpt lat="45.40278055381608" lon="11.163113399583315"><ele>27.0</ele><time>2026-04-04T11:49:00Z</time></trkpt><trkpt lat="45.40271926396285" lon="11.163248722351954"><ele>27.0</ele><time>2026-04-04T11:49:01Z</time></trkpt><trkpt lat="45.40264511039504" lon="11.163351895903821"><ele>27.0</ele><time>2026-04-04T11:49:02Z</time></trkpt><trkpt lat="45.402549730328296" lon="11.163422558602587"><ele>27.200000000000003</ele><time>2026-04-04T11:49:03Z</time></trkpt><trkpt lat="45.40243705820867" lon="11.163481545797422"><ele>27.400000000000002</ele><time>2026-04-04T11:49:04Z</time></trkpt><trkpt lat="45.4023351233484" lon="11.163550067056724"><ele>27.599999999999998</ele><time>2026-04-04T11:49:05Z</time></trkpt><trkpt lat="45.40227173509842" lon="11.163671694538788"><ele>27.799999999999997</ele><time>2026-04-04T11:49:06Z</time></trkpt><trkpt lat="45.402240240944" lon="11.16381957881367"><ele>28.0</ele><time>2026-04-04T11:49:07Z</time></trkpt><trkpt lat="45.40224520602341" lon="11.163998764079322"><ele>28.25</ele><time>2026-04-04T11:49:08Z</time></trkpt><trkpt lat="45.402282508289524" lon="11.164188893812446"><ele>28.5</ele><time>2026-04-04T11:49:09Z</time></trkpt><trkpt lat="45.402321231041206" lon="11.164370725105574"><ele>28.75</ele><time>2026-04-04T11:49:10Z</time></trkpt><trkpt lat="45.40232631846324" lon="11.164561004447087"><ele>29.0</ele><time>2026-04-04T11:49:11Z</time></trkpt><trkpt lat="45.402289245401214" lon="11.164774618082765"><ele>29.333333333333332</ele><time>2026-04-04T11:49:12Z</time></trkpt><trkpt lat="45.402229239228134" lon="11.165002553422347"><ele>29.666666666666664</ele><time>2026-04-04T11:49:13Z</time></trkpt><trkpt lat="45.40216685539203" lon="11.165245463362899"><ele>30.0</ele><time>2026-04-04T11:49:14Z</time></trkpt><trkpt lat="45.40209959304358" lon="11.165497567291785"><ele>29.333333333333336</ele><time>2026-04-04T11:49:15Z</time></trkpt><trkpt lat="45.4020267813498" lon="11.16576164917776"><ele>28.666666666666668</ele><time>2026-04-04T11:49:16Z</time></trkpt><trkpt lat="45.401936110039244" lon="11.166033602674574"><ele>28.0</ele><time>2026-04-04T11:49:17Z</time></trkpt><trkpt lat="45.40182561813317" lon="11.16630725615466"><ele>27.5</ele><time>2026-04-04T11:49:18Z</time></trkpt><trkpt lat="45.40170261907526" lon="11.16659486587074"><ele>27.0</ele><time>2026-04-04T11:49:18.999Z</time></trkpt><trkpt lat="45.401565433955206" lon="11.166888814018117"><ele>27.0</ele><time>2026-04-04T11:49:19.999Z</time></trkpt><trkpt lat="45.40141816257526" lon="11.167182576033078"><ele>27.0</ele><time>2026-04-04T11:49:20.999Z</time></trkpt><trkpt lat="45.40126546880422" lon="11.167478311027203"><ele>28.0</ele><time>2026-04-04T11:49:21.999Z</time></trkpt><trkpt lat="45.40110321803233" lon="11.167775050685586"><ele>29.0</ele><time>2026-04-04T11:49:22.999Z</time></trkpt><trkpt lat="45.40095050583292" lon="11.16807601704883"><ele>28.0</ele><time>2026-04-04T11:49:23.999Z</time></trkpt><trkpt lat="45.400799251257794" lon="11.168371949303875"><ele>27.0</ele><time>2026-04-04T11:49:24.999Z</time></trkpt><trkpt lat="45.40065077349316" lon="11.168671055510806"><ele>27.0</ele><time>2026-04-04T11:49:25.999Z</time></trkpt><trkpt lat="45.4005016052916" lon="11.168965157858565"><ele>27.0</ele><time>2026-04-04T11:49:26.999Z</time></trkpt><trkpt lat="45.40035588804688" lon="11.169260134297785"><ele>25.5</ele><time>2026-04-04T11:49:27.999Z</time></trkpt><trkpt lat="45.40021425362655" lon="11.16954788702122"><ele>24.0</ele><time>2026-04-04T11:49:28.999Z</time></trkpt><trkpt lat="45.40007528802848" lon="11.169835513321496"><ele>23.0</ele><time>2026-04-04T11:49:29.999Z</time></trkpt><trkpt lat="45.39993903059587" lon="11.170117622042847"><ele>22.0</ele><time>2026-04-04T11:49:30.999Z</time></trkpt><trkpt lat="45.3998084263139" lon="11.17039516998192"><ele>22.0</ele><time>2026-04-04T11:49:31.999Z</time></trkpt><trkpt lat="45.39967661553646" lon="11.17067303316027"><ele>22.0</ele><time>2026-04-04T11:49:32.999Z</time></trkpt><trkpt lat="45.39954500660887" lon="11.170950489792803"><ele>22.5</ele><time>2026-04-04T11:49:33.999Z</time></trkpt><trkpt lat="45.39941166958758" lon="11.171225499667752"><ele>23.0</ele><time>2026-04-04T11:49:34.999Z</time></trkpt><trkpt lat="45.39927569525044" lon="11.17150216125309"><ele>24.0</ele><time>2026-04-04T11:49:35.999Z</time></trkpt><trkpt lat="45.39914340172498" lon="11.171785690843532"><ele>25.0</ele><time>2026-04-04T11:49:36.999Z</time></trkpt><trkpt lat="45.399006842466825" lon="11.17206966247828"><ele>25.0</ele><time>2026-04-04T11:49:37.999Z</time></trkpt><trkpt lat="45.39887707557602" lon="11.172357927154367"><ele>25.0</ele><time>2026-04-04T11:49:38.999Z</time></trkpt><trkpt lat="45.39874786679669" lon="11.172657784277817"><ele>25.5</ele><time>2026-04-04T11:49:39.999Z</time></trkpt><trkpt lat="45.398603077051725" lon="11.172946268701859"><ele>26.0</ele><time>2026-04-04T11:49:40.999Z</time></trkpt><trkpt lat="45.39845721996893" lon="11.17323759616391"><ele>24.5</ele><time>2026-04-04T11:49:41.999Z</time></trkpt><trkpt lat="45.39832022409984" lon="11.173528215082191"><ele>23.0</ele><time>2026-04-04T11:49:42.999Z</time></trkpt><trkpt lat="45.39818899483317" lon="11.17381143142688"><ele>23.0</ele><time>2026-04-04T11:49:43.999Z</time></trkpt><trkpt lat="45.398064307103205" lon="11.174080171377543"><ele>23.0</ele><time>2026-04-04T11:49:44.999Z</time></trkpt><trkpt lat="45.397947259853396" lon="11.174332111608818"><ele>23.0</ele><time>2026-04-04T11:49:45.999Z</time></trkpt><trkpt lat="45.39782922472213" lon="11.174578114768996"><ele>23.333333333333336</ele><time>2026-04-04T11:49:46.999Z</time></trkpt><trkpt lat="45.3977101000619" lon="11.174828676176496"><ele>23.666666666666668</ele><time>2026-04-04T11:49:47.999Z</time></trkpt><trkpt lat="45.397593061041206" lon="11.17507773388484"><ele>24.0</ele><time>2026-04-04T11:49:48.999Z</time></trkpt><trkpt lat="45.39747720509771" lon="11.175329428406098"><ele>24.0</ele><time>2026-04-04T11:49:49.999Z</time></trkpt><trkpt lat="45.39735820446446" lon="11.175583352988397"><ele>24.0</ele><time>2026-04-04T11:49:50.999Z</time></trkpt><trkpt lat="45.39723472820193" lon="11.17584197815382"><ele>24.0</ele><time>2026-04-04T11:49:51.999Z</time></trkpt><trkpt lat="45.397111134342495" lon="11.176103765529865"><ele>24.0</ele><time>2026-04-04T11:49:52.999Z</time></trkpt><trkpt lat="45.39698547455368" lon="11.17636805216594"><ele>24.0</ele><time>2026-04-04T11:49:53.999Z</time></trkpt><trkpt lat="45.396857464069555" lon="11.176627951550158"><ele>24.0</ele><time>2026-04-04T11:49:54.999Z</time></trkpt><trkpt lat="45.39673613946343" lon="11.176893593857098"><ele>23.5</ele><time>2026-04-04T11:49:55.999Z</time></trkpt><trkpt lat="45.39661270847624" lon="11.177162201851422"><ele>23.0</ele><time>2026-04-04T11:49:56.999Z</time></trkpt><trkpt lat="45.396484472948345" lon="11.1774334788999"><ele>23.0</ele><time>2026-04-04T11:49:57.999Z</time></trkpt><trkpt lat="45.396358359720764" lon="11.1777033081643"><ele>23.0</ele><time>2026-04-04T11:49:58.999Z</time></trkpt><trkpt lat="45.396230200658344" lon="11.177964757811296"><ele>23.333333333333336</ele><time>2026-04-04T11:49:59.999Z</time></trkpt><trkpt lat="45.396108295987155" lon="11.1782256058752"><ele>23.666666666666668</ele><time>2026-04-04T11:50:00.999Z</time></trkpt><trkpt lat="45.395985995790454" lon="11.178483396214974"><ele>24.0</ele><time>2026-04-04T11:50:01.999Z</time></trkpt><trkpt lat="45.39586505552866" lon="11.178735400993297"><ele>24.0</ele><time>2026-04-04T11:50:02.999Z</time></trkpt><trkpt lat="45.39575279110102" lon="11.178979904596357"><ele>24.0</ele><time>2026-04-04T11:50:03.999Z</time></trkpt><trkpt lat="45.39564262665718" lon="11.179208551443505"><ele>24.0</ele><time>2026-04-04T11:50:04.999Z</time></trkpt><trkpt lat="45.39553418478043" lon="11.179416898645448"><ele>23.666666666666668</ele><time>2026-04-04T11:50:05.999Z</time></trkpt><trkpt lat="45.3954404099171" lon="11.179635386357893"><ele>23.333333333333336</ele><time>2026-04-04T11:50:06.999Z</time></trkpt><trkpt lat="45.39535363622445" lon="11.179860017016255"><ele>23.0</ele><time>2026-04-04T11:50:07.999Z</time></trkpt><trkpt lat="45.395284500574604" lon="11.18008502918942"><ele>23.333333333333336</ele><time>2026-04-04T11:50:08.999Z</time></trkpt><trkpt lat="45.39521681835212" lon="11.18029354642693"><ele>23.666666666666668</ele><time>2026-04-04T11:50:09.999Z</time></trkpt><trkpt lat="45.39515293112407" lon="11.180492952715802"><ele>24.0</ele><time>2026-04-04T11:50:10.999Z</time></trkpt><trkpt lat="45.39509214173033" lon="11.180689753916427"><ele>24.0</ele><time>2026-04-04T11:50:11.998Z</time></trkpt><trkpt lat="45.39503823456196" lon="11.180884546524622"><ele>24.0</ele><time>2026-04-04T11:50:12.998Z</time></trkpt><trkpt lat="45.39498943166012" lon="11.181066264192097"><ele>24.0</ele><time>2026-04-04T11:50:13.998Z</time></trkpt><trkpt lat="45.39494670642745" lon="11.181237336323932"><ele>24.0</ele><time>2026-04-04T11:50:14.998Z</time></trkpt><trkpt lat="45.39490026994497" lon="11.181393741627266"><ele>23.75</ele><time>2026-04-04T11:50:15.998Z</time></trkpt><trkpt lat="45.39483865052175" lon="11.18153278939426"><ele>23.5</ele><time>2026-04-04T11:50:16.998Z</time></trkpt><trkpt lat="45.39475940640249" lon="11.18164068717158"><ele>23.25</ele><time>2026-04-04T11:50:17.998Z</time></trkpt><trkpt lat="45.39465904628885" lon="11.181725688448363"><ele>23.0</ele><time>2026-04-04T11:50:18.998Z</time></trkpt><trkpt lat="45.39455510654762" lon="11.18181466920877"><ele>23.0</ele><time>2026-04-04T11:50:19.998Z</time></trkpt><trkpt lat="45.39449277657157" lon="11.181961603415552"><ele>23.0</ele><time>2026-04-04T11:50:20.998Z</time></trkpt><trkpt lat="45.394488053375376" lon="11.182144823609905"><ele>23.0</ele><time>2026-04-04T11:50:21.998Z</time></trkpt><trkpt lat="45.394533959615295" lon="11.182326075687586"><ele>23.0</ele><time>2026-04-04T11:50:22.998Z</time></trkpt><trkpt lat="45.394623608323855" lon="11.18249897094635"><ele>23.0</ele><time>2026-04-04T11:50:23.998Z</time></trkpt><trkpt lat="45.39470781639008" lon="11.182672604941224"><ele>23.0</ele><time>2026-04-04T11:50:24.998Z</time></trkpt><trkpt lat="45.394735601902525" lon="11.182884844583201"><ele>23.0</ele><time>2026-04-04T11:50:25.998Z</time></trkpt><trkpt lat="45.394677786901966" lon="11.183146105944484"><ele>22.666666666666668</ele><time>2026-04-04T11:50:26.998Z</time></trkpt><trkpt lat="45.39466942563906" lon="11.183427976302227"><ele>22.333333333333332</ele><time>2026-04-04T11:50:27.998Z</time></trkpt><trkpt lat="45.39464515259544" lon="11.183702788068004"><ele>22.0</ele><time>2026-04-04T11:50:28.998Z</time></trkpt><trkpt lat="45.3946372262116" lon="11.183973507729025"><ele>22.0</ele><time>2026-04-04T11:50:29.998Z</time></trkpt><trkpt lat="45.39463380542625" lon="11.184251542171324"><ele>22.0</ele><time>2026-04-04T11:50:30.998Z</time></trkpt><trkpt lat="45.394627025249065" lon="11.18454428445036"><ele>22.0</ele><time>2026-04-04T11:50:31.998Z</time></trkpt><trkpt lat="45.394620639147696" lon="11.184849262445445"><ele>22.333333333333332</ele><time>2026-04-04T11:50:32.998Z</time></trkpt><trkpt lat="45.39460959478763" lon="11.185168035178457"><ele>22.666666666666668</ele><time>2026-04-04T11:50:33.998Z</time></trkpt><trkpt lat="45.394600648362086" lon="11.18548468942867"><ele>23.0</ele><time>2026-04-04T11:50:34.998Z</time></trkpt><trkpt lat="45.39458835521156" lon="11.185799948979236"><ele>22.333333333333336</ele><time>2026-04-04T11:50:35.998Z</time></trkpt><trkpt lat="45.394578116691534" lon="11.186108408924554"><ele>21.666666666666668</ele><time>2026-04-04T11:50:36.998Z</time></trkpt><trkpt lat="45.39456437524233" lon="11.186420721925272"><ele>21.0</ele><time>2026-04-04T11:50:37.998Z</time></trkpt><trkpt lat="45.39455635393011" lon="11.186733778802452"><ele>21.0</ele><time>2026-04-04T11:50:38.998Z</time></trkpt><trkpt lat="45.394545457248434" lon="11.187048784795266"><ele>21.0</ele><time>2026-04-04T11:50:39.998Z</time></trkpt><trkpt lat="45.39453243234014" lon="11.187363407772406"><ele>21.0</ele><time>2026-04-04T11:50:40.998Z</time></trkpt><trkpt lat="45.39451667008631" lon="11.187682067821763"><ele>21.666666666666668</ele><time>2026-04-04T11:50:41.998Z</time></trkpt><trkpt lat="45.394500307582994" lon="11.187999730909215"><ele>22.333333333333336</ele><time>2026-04-04T11:50:42.998Z</time></trkpt><trkpt lat="45.39447824549304" lon="11.18831958990201"><ele>23.0</ele><time>2026-04-04T11:50:43.998Z</time></trkpt><trkpt lat="45.39445770870394" lon="11.188638731902872"><ele>23.5</ele><time>2026-04-04T11:50:45Z</time></trkpt><trkpt lat="45.39442605982837" lon="11.188962663224194"><ele>24.0</ele><time>2026-04-04T11:50:46Z</time></trkpt><trkpt lat="45.39439158995932" lon="11.189287567727757"><ele>23.0</ele><time>2026-04-04T11:50:47Z</time></trkpt><trkpt lat="45.39435412341519" lon="11.189611162905416"><ele>22.0</ele><time>2026-04-04T11:50:48Z</time></trkpt><trkpt lat="45.39431438513758" lon="11.189937473322654"><ele>22.0</ele><time>2026-04-04T11:50:49Z</time></trkpt><trkpt lat="45.39427182056855" lon="11.190264977832307"><ele>22.0</ele><time>2026-04-04T11:50:50Z</time></trkpt><trkpt lat="45.39422751981774" lon="11.190591395482297"><ele>22.0</ele><time>2026-04-04T11:50:51Z</time></trkpt><trkpt lat="45.3941862172607" lon="11.1909208673646"><ele>22.0</ele><time>2026-04-04T11:50:52Z</time></trkpt><trkpt lat="45.39413509715951" lon="11.191256510986404"><ele>22.5</ele><time>2026-04-04T11:50:53Z</time></trkpt><trkpt lat="45.39408903605949" lon="11.191588458108356"><ele>23.0</ele><time>2026-04-04T11:50:54Z</time></trkpt><trkpt lat="45.39404280354129" lon="11.191913390612847"><ele>23.0</ele><time>2026-04-04T11:50:55Z</time></trkpt><trkpt lat="45.393999294725205" lon="11.192225729246028"><ele>23.0</ele><time>2026-04-04T11:50:56Z</time></trkpt><trkpt lat="45.39396006699482" lon="11.192538975268336"><ele>23.0</ele><time>2026-04-04T11:50:57Z</time></trkpt><trkpt lat="45.39392241655146" lon="11.192850284442027"><ele>23.0</ele><time>2026-04-04T11:50:58Z</time></trkpt><trkpt lat="45.39388302746898" lon="11.193159707958099"><ele>23.0</ele><time>2026-04-04T11:50:59Z</time></trkpt><trkpt lat="45.39383977845528" lon="11.193467060999826"><ele>23.0</ele><time>2026-04-04T11:51:00Z</time></trkpt><trkpt lat="45.393797316829335" lon="11.193770002828517"><ele>22.666666666666668</ele><time>2026-04-04T11:51:01Z</time></trkpt><trkpt lat="45.393751355288536" lon="11.194069869564672"><ele>22.333333333333332</ele><time>2026-04-04T11:51:02Z</time></trkpt><trkpt lat="45.393706910436926" lon="11.194366829604812"><ele>22.0</ele><time>2026-04-04T11:51:03Z</time></trkpt><trkpt lat="45.393663233207256" lon="11.194664011947289"><ele>22.333333333333332</ele><time>2026-04-04T11:51:04Z</time></trkpt><trkpt lat="45.39362071163517" lon="11.194957932401817"><ele>22.666666666666668</ele><time>2026-04-04T11:51:05Z</time></trkpt><trkpt lat="45.393577425915666" lon="11.195247533101355"><ele>23.0</ele><time>2026-04-04T11:51:06Z</time></trkpt><trkpt lat="45.39352861381288" lon="11.195526985898764"><ele>22.333333333333336</ele><time>2026-04-04T11:51:07Z</time></trkpt><trkpt lat="45.39347991279673" lon="11.195804902570988"><ele>21.666666666666668</ele><time>2026-04-04T11:51:08Z</time></trkpt><trkpt lat="45.39343733908388" lon="11.196069534843792"><ele>21.0</ele><time>2026-04-04T11:51:09Z</time></trkpt><trkpt lat="45.39339577961197" lon="11.196312561328845"><ele>21.0</ele><time>2026-04-04T11:51:10Z</time></trkpt><trkpt lat="45.39336074138981" lon="11.196544413617303"><ele>21.0</ele><time>2026-04-04T11:51:11Z</time></trkpt><trkpt lat="45.39332566729694" lon="11.196755430101916"><ele>21.0</ele><time>2026-04-04T11:51:12Z</time></trkpt><trkpt lat="45.393290348738006" lon="11.196941123131587"><ele>21.0</ele><time>2026-04-04T11:51:13Z</time></trkpt><trkpt lat="45.393246512221715" lon="11.197090273085553"><ele>21.0</ele><time>2026-04-04T11:51:14Z</time></trkpt><trkpt lat="45.393179067911156" lon="11.197218899577921"><ele>21.0</ele><time>2026-04-04T11:51:15Z</time></trkpt><trkpt lat="45.39308668163148" lon="11.197309417171349"><ele>21.0</ele><time>2026-04-04T11:51:16Z</time></trkpt><trkpt lat="45.39300536949523" lon="11.197386347435781"><ele>21.0</ele><time>2026-04-04T11:51:17Z</time></trkpt><trkpt lat="45.392939708113076" lon="11.197485753837459"><ele>21.0</ele><time>2026-04-04T11:51:18Z</time></trkpt><trkpt lat="45.392903924012764" lon="11.197643877261731"><ele>21.0</ele><time>2026-04-04T11:51:19Z</time></trkpt><trkpt lat="45.392918031106966" lon="11.197821732488237"><ele>21.0</ele><time>2026-04-04T11:51:20Z</time></trkpt><trkpt lat="45.39297935681413" lon="11.197993606614562"><ele>21.0</ele><time>2026-04-04T11:51:21Z</time></trkpt><trkpt lat="45.39306446980293" lon="11.19814950039224"><ele>21.0</ele><time>2026-04-04T11:51:22Z</time></trkpt><trkpt lat="45.39310656761977" lon="11.198329020210524"><ele>21.0</ele><time>2026-04-04T11:51:23Z</time></trkpt><trkpt lat="45.393094644912125" lon="11.198528523666942"><ele>21.0</ele><time>2026-04-04T11:51:24Z</time></trkpt><trkpt lat="45.393050765712964" lon="11.198738038935879"><ele>21.0</ele><time>2026-04-04T11:51:24.999Z</time></trkpt><trkpt lat="45.39298662081793" lon="11.198977812394851"><ele>21.666666666666668</ele><time>2026-04-04T11:51:25.999Z</time></trkpt><trkpt lat="45.39292700144712" lon="11.199255997043982"><ele>22.333333333333336</ele><time>2026-04-04T11:51:26.999Z</time></trkpt><trkpt lat="45.39288007833339" lon="11.1995512921527"><ele>23.0</ele><time>2026-04-04T11:51:27.999Z</time></trkpt><trkpt lat="45.39283822925946" lon="11.199847151717107"><ele>23.0</ele><time>2026-04-04T11:51:28.999Z</time></trkpt><trkpt lat="45.392793088694326" lon="11.200139921537302"><ele>23.0</ele><time>2026-04-04T11:51:29.999Z</time></trkpt><trkpt lat="45.39274354672136" lon="11.20043326983831"><ele>23.0</ele><time>2026-04-04T11:51:30.999Z</time></trkpt><trkpt lat="45.39269534638474" lon="11.20072833137049"><ele>22.0</ele><time>2026-04-04T11:51:31.999Z</time></trkpt><trkpt lat="45.392644583366135" lon="11.201023353969932"><ele>21.0</ele><time>2026-04-04T11:51:32.999Z</time></trkpt><trkpt lat="45.39259515627039" lon="11.201317846661729"><ele>20.0</ele><time>2026-04-04T11:51:33.999Z</time></trkpt><trkpt lat="45.39254763786249" lon="11.201611543129887"><ele>20.0</ele><time>2026-04-04T11:51:34.999Z</time></trkpt><trkpt lat="45.3924990580707" lon="11.201905214445402"><ele>20.0</ele><time>2026-04-04T11:51:35.999Z</time></trkpt><trkpt lat="45.39245491189754" lon="11.20219621066787"><ele>20.0</ele><time>2026-04-04T11:51:36.999Z</time></trkpt><trkpt lat="45.392405873994804" lon="11.202488625300225"><ele>20.333333333333336</ele><time>2026-04-04T11:51:37.999Z</time></trkpt><trkpt lat="45.39236113996623" lon="11.202777988407766"><ele>20.666666666666668</ele><time>2026-04-04T11:51:38.999Z</time></trkpt><trkpt lat="45.39231419708804" lon="11.203067817323344"><ele>21.0</ele><time>2026-04-04T11:51:39.999Z</time></trkpt><trkpt lat="45.392267936665064" lon="11.203357091856665"><ele>21.0</ele><time>2026-04-04T11:51:40.999Z</time></trkpt><trkpt lat="45.39222355648108" lon="11.203647447068542"><ele>21.0</ele><time>2026-04-04T11:51:41.999Z</time></trkpt><trkpt lat="45.392186108674565" lon="11.203939463423156"><ele>21.0</ele><time>2026-04-04T11:51:42.999Z</time></trkpt><trkpt lat="45.3921475313162" lon="11.204240744716564"><ele>21.333333333333332</ele><time>2026-04-04T11:51:43.999Z</time></trkpt><trkpt lat="45.39210645919069" lon="11.204545472833292"><ele>21.666666666666664</ele><time>2026-04-04T11:51:44.999Z</time></trkpt><trkpt lat="45.39206522045589" lon="11.20485536069552"><ele>22.0</ele><time>2026-04-04T11:51:45.999Z</time></trkpt><trkpt lat="45.39202232637894" lon="11.205168073484453"><ele>22.0</ele><time>2026-04-04T11:51:46.999Z</time></trkpt><trkpt lat="45.39198166629162" lon="11.205478168186485"><ele>22.0</ele><time>2026-04-04T11:51:47.999Z</time></trkpt><trkpt lat="45.391939875266935" lon="11.205795202854118"><ele>22.0</ele><time>2026-04-04T11:51:48.999Z</time></trkpt><trkpt lat="45.3918961818135" lon="11.206107992795467"><ele>22.0</ele><time>2026-04-04T11:51:49.999Z</time></trkpt><trkpt lat="45.39185068356862" lon="11.206418199418914"><ele>22.0</ele><time>2026-04-04T11:51:50.999Z</time></trkpt><trkpt lat="45.391804645603465" lon="11.206730695995489"><ele>22.0</ele><time>2026-04-04T11:51:51.999Z</time></trkpt><trkpt lat="45.3917521728212" lon="11.207040375879942"><ele>21.666666666666664</ele><time>2026-04-04T11:51:52.999Z</time></trkpt><trkpt lat="45.39169562978669" lon="11.207346353831323"><ele>21.333333333333332</ele><time>2026-04-04T11:51:53.999Z</time></trkpt><trkpt lat="45.39163207478706" lon="11.207651108248239"><ele>21.0</ele><time>2026-04-04T11:51:54.999Z</time></trkpt><trkpt lat="45.391565720253524" lon="11.20794927388489"><ele>21.333333333333332</ele><time>2026-04-04T11:51:55.999Z</time></trkpt><trkpt lat="45.39149314066454" lon="11.208237193558627"><ele>21.666666666666664</ele><time>2026-04-04T11:51:56.999Z</time></trkpt><trkpt lat="45.39142277990252" lon="11.208520081758147"><ele>22.0</ele><time>2026-04-04T11:51:57.999Z</time></trkpt><trkpt lat="45.39135648714526" lon="11.208795703345043"><ele>22.0</ele><time>2026-04-04T11:51:58.999Z</time></trkpt><trkpt lat="45.39129126895954" lon="11.20906321730599"><ele>22.0</ele><time>2026-04-04T11:51:59.999Z</time></trkpt><trkpt lat="45.39122676647375" lon="11.209331773750218"><ele>22.0</ele><time>2026-04-04T11:52:00.999Z</time></trkpt><trkpt lat="45.3911709505078" lon="11.209597088947826"><ele>22.0</ele><time>2026-04-04T11:52:01.999Z</time></trkpt><trkpt lat="45.391123842131094" lon="11.209863223834585"><ele>22.0</ele><time>2026-04-04T11:52:02.999Z</time></trkpt><trkpt lat="45.39108087670558" lon="11.210132766875185"><ele>22.0</ele><time>2026-04-04T11:52:03.999Z</time></trkpt><trkpt lat="45.39105444967921" lon="11.210395281941178"><ele>22.0</ele><time>2026-04-04T11:52:04.999Z</time></trkpt><trkpt lat="45.39103212483631" lon="11.210643773092672"><ele>22.0</ele><time>2026-04-04T11:52:05.999Z</time></trkpt><trkpt lat="45.39102040631967" lon="11.210880533045417"><ele>22.0</ele><time>2026-04-04T11:52:06.999Z</time></trkpt><trkpt lat="45.39101327301267" lon="11.211099391575813"><ele>22.200000000000003</ele><time>2026-04-04T11:52:07.999Z</time></trkpt><trkpt lat="45.39101320557129" lon="11.211289783057977"><ele>22.4</ele><time>2026-04-04T11:52:08.999Z</time></trkpt><trkpt lat="45.39101246983567" lon="11.211453915173333"><ele>22.6</ele><time>2026-04-04T11:52:09.999Z</time></trkpt><trkpt lat="45.391017847192785" lon="11.211600580183106"><ele>22.799999999999997</ele><time>2026-04-04T11:52:10.999Z</time></trkpt><trkpt lat="45.391018602972515" lon="11.211722180892897"><ele>23.0</ele><time>2026-04-04T11:52:11.999Z</time></trkpt><trkpt lat="45.3910055090765" lon="11.211840336779026"><ele>23.0</ele><time>2026-04-04T11:52:12.999Z</time></trkpt><trkpt lat="45.390975386418916" lon="11.21195547711023"><ele>23.0</ele><time>2026-04-04T11:52:13.999Z</time></trkpt><trkpt lat="45.390908562917915" lon="11.212078966270814"><ele>23.0</ele><time>2026-04-04T11:52:14.999Z</time></trkpt><trkpt lat="45.3908332325956" lon="11.212191495152421"><ele>23.0</ele><time>2026-04-04T11:52:15.999Z</time></trkpt><trkpt lat="45.39078819080233" lon="11.212317356545586"><ele>23.0</ele><time>2026-04-04T11:52:16.999Z</time></trkpt><trkpt lat="45.390786904445704" lon="11.21245978829407"><ele>22.75</ele><time>2026-04-04T11:52:17.998Z</time></trkpt><trkpt lat="45.390825932531854" lon="11.212611563941547"><ele>22.5</ele><time>2026-04-04T11:52:18.998Z</time></trkpt><trkpt lat="45.390899605297584" lon="11.212747884901216"><ele>22.25</ele><time>2026-04-04T11:52:19.998Z</time></trkpt><trkpt lat="45.39100129391609" lon="11.21285523089607"><ele>22.0</ele><time>2026-04-04T11:52:20.998Z</time></trkpt><trkpt lat="45.39112569345976" lon="11.212899842285205"><ele>22.0</ele><time>2026-04-04T11:52:21.998Z</time></trkpt><trkpt lat="45.39122539200424" lon="11.21291601694348"><ele>22.0</ele><time>2026-04-04T11:52:22.998Z</time></trkpt><trkpt lat="45.391239970906746" lon="11.213321756672235"><ele>22.0</ele><time>2026-04-04T11:52:23.998Z</time></trkpt><trkpt lat="45.391273934927106" lon="11.213539575176737"><ele>22.0</ele><time>2026-04-04T11:52:24.998Z</time></trkpt><trkpt lat="45.39130626519517" lon="11.213776006168786"><ele>22.0</ele><time>2026-04-04T11:52:25.998Z</time></trkpt><trkpt lat="45.391343466657176" lon="11.214024772602745"><ele>22.0</ele><time>2026-04-04T11:52:26.998Z</time></trkpt><trkpt lat="45.391388981458135" lon="11.214280906607176"><ele>22.0</ele><time>2026-04-04T11:52:27.998Z</time></trkpt><trkpt lat="45.39143288611794" lon="11.214542108947297"><ele>22.0</ele><time>2026-04-04T11:52:28.998Z</time></trkpt><trkpt lat="45.391473690627215" lon="11.21479744454967"><ele>22.0</ele><time>2026-04-04T11:52:29.998Z</time></trkpt><trkpt lat="45.39151051968943" lon="11.215058874091698"><ele>22.0</ele><time>2026-04-04T11:52:30.998Z</time></trkpt><trkpt lat="45.391539683670885" lon="11.215331892015083"><ele>22.0</ele><time>2026-04-04T11:52:31.998Z</time></trkpt><trkpt lat="45.391558613722246" lon="11.21561716007486"><ele>22.0</ele><time>2026-04-04T11:52:32.998Z</time></trkpt><trkpt lat="45.39156990089656" lon="11.215909060326041"><ele>22.0</ele><time>2026-04-04T11:52:33.998Z</time></trkpt><trkpt lat="45.391573633376346" lon="11.216203238627935"><ele>22.0</ele><time>2026-04-04T11:52:34.998Z</time></trkpt><trkpt lat="45.39155872596682" lon="11.216503145127101"><ele>22.0</ele><time>2026-04-04T11:52:35.998Z</time></trkpt><trkpt lat="45.391543747658446" lon="11.216797885493179"><ele>22.0</ele><time>2026-04-04T11:52:36.998Z</time></trkpt><trkpt lat="45.39151624465216" lon="11.217092851809486"><ele>22.0</ele><time>2026-04-04T11:52:37.998Z</time></trkpt><trkpt lat="45.39148931442962" lon="11.217392862970765"><ele>22.0</ele><time>2026-04-04T11:52:38.998Z</time></trkpt><trkpt lat="45.39145330793445" lon="11.217698059237051"><ele>21.666666666666664</ele><time>2026-04-04T11:52:39.998Z</time></trkpt><trkpt lat="45.39141893665403" lon="11.218003812978655"><ele>21.333333333333332</ele><time>2026-04-04T11:52:40.998Z</time></trkpt><trkpt lat="45.391382041913594" lon="11.218313438081768"><ele>21.0</ele><time>2026-04-04T11:52:41.998Z</time></trkpt><trkpt lat="45.39134775358706" lon="11.218618336368081"><ele>20.666666666666668</ele><time>2026-04-04T11:52:42.998Z</time></trkpt><trkpt lat="45.39131429079821" lon="11.21891827587012"><ele>20.333333333333336</ele><time>2026-04-04T11:52:43.998Z</time></trkpt><trkpt lat="45.391278405575996" lon="11.2192157335061"><ele>20.0</ele><time>2026-04-04T11:52:44.998Z</time></trkpt><trkpt lat="45.391241944160704" lon="11.219514950985884"><ele>20.666666666666668</ele><time>2026-04-04T11:52:45.998Z</time></trkpt><trkpt lat="45.39120980277001" lon="11.219815495133469"><ele>21.333333333333332</ele><time>2026-04-04T11:52:46.998Z</time></trkpt><trkpt lat="45.391177626631105" lon="11.220120283035335"><ele>22.0</ele><time>2026-04-04T11:52:47.998Z</time></trkpt><trkpt lat="45.39114530175823" lon="11.220423077995829"><ele>21.666666666666664</ele><time>2026-04-04T11:52:48.998Z</time></trkpt><trkpt lat="45.39111177931697" lon="11.220727773311928"><ele>21.333333333333332</ele><time>2026-04-04T11:52:49.998Z</time></trkpt><trkpt lat="45.39107908287664" lon="11.221032988009602"><ele>21.0</ele><time>2026-04-04T11:52:51Z</time></trkpt><trkpt lat="45.39104885613126" lon="11.221339729437702"><ele>20.666666666666668</ele><time>2026-04-04T11:52:52Z</time></trkpt><trkpt lat="45.391012710560645" lon="11.221646011266225"><ele>20.333333333333336</ele><time>2026-04-04T11:52:53Z</time></trkpt><trkpt lat="45.390977933988914" lon="11.221951613270656"><ele>20.0</ele><time>2026-04-04T11:52:54Z</time></trkpt><trkpt lat="45.39094216614937" lon="11.222262841079864"><ele>20.0</ele><time>2026-04-04T11:52:55Z</time></trkpt><trkpt lat="45.39090855030324" lon="11.222573624727987"><ele>20.0</ele><time>2026-04-04T11:52:56Z</time></trkpt><trkpt lat="45.390873782351704" lon="11.222888120335572"><ele>20.0</ele><time>2026-04-04T11:52:57Z</time></trkpt><trkpt lat="45.390841989340586" lon="11.223197690857397"><ele>20.0</ele><time>2026-04-04T11:52:58Z</time></trkpt><trkpt lat="45.390805676594226" lon="11.223511714631456"><ele>20.0</ele><time>2026-04-04T11:52:59Z</time></trkpt><trkpt lat="45.39077243971624" lon="11.223825925593845"><ele>20.0</ele><time>2026-04-04T11:53:00Z</time></trkpt><trkpt lat="45.390741339753205" lon="11.224142002901178"><ele>19.666666666666668</ele><time>2026-04-04T11:53:01Z</time></trkpt><trkpt lat="45.3907108277458" lon="11.224455998638097"><ele>19.333333333333332</ele><time>2026-04-04T11:53:02Z</time></trkpt><trkpt lat="45.39068131331334" lon="11.224771102025095"><ele>19.0</ele><time>2026-04-04T11:53:03Z</time></trkpt><trkpt lat="45.39064889515858" lon="11.225092017766343"><ele>19.0</ele><time>2026-04-04T11:53:04Z</time></trkpt><trkpt lat="45.39062157542032" lon="11.225410441642262"><ele>19.0</ele><time>2026-04-04T11:53:05Z</time></trkpt><trkpt lat="45.39059220612332" lon="11.225728470519394"><ele>19.5</ele><time>2026-04-04T11:53:06Z</time></trkpt><trkpt lat="45.39056281517674" lon="11.226049905164201"><ele>20.0</ele><time>2026-04-04T11:53:07Z</time></trkpt><trkpt lat="45.39053238251969" lon="11.226367762135611"><ele>20.0</ele><time>2026-04-04T11:53:08Z</time></trkpt><trkpt lat="45.39049724018102" lon="11.226688581144744"><ele>20.0</ele><time>2026-04-04T11:53:09Z</time></trkpt><trkpt lat="45.39046676505838" lon="11.227003393905898"><ele>20.0</ele><time>2026-04-04T11:53:10Z</time></trkpt><trkpt lat="45.3904369840621" lon="11.227319195880401"><ele>20.0</ele><time>2026-04-04T11:53:11Z</time></trkpt><trkpt lat="45.39040908226499" lon="11.227633137889901"><ele>20.0</ele><time>2026-04-04T11:53:12Z</time></trkpt><trkpt lat="45.39037837013763" lon="11.227947312806412"><ele>20.333333333333336</ele><time>2026-04-04T11:53:13Z</time></trkpt><trkpt lat="45.390347172887644" lon="11.228258608143406"><ele>20.666666666666668</ele><time>2026-04-04T11:53:14Z</time></trkpt><trkpt lat="45.3903173362709" lon="11.22856745365576"><ele>21.0</ele><time>2026-04-04T11:53:15Z</time></trkpt><trkpt lat="45.390286320308405" lon="11.228871817426741"><ele>20.666666666666668</ele><time>2026-04-04T11:53:16Z</time></trkpt><trkpt lat="45.39025953938555" lon="11.229176368909418"><ele>20.333333333333336</ele><time>2026-04-04T11:53:17Z</time></trkpt><trkpt lat="45.39022850091502" lon="11.229479046032614"><ele>20.0</ele><time>2026-04-04T11:53:18Z</time></trkpt><trkpt lat="45.39019960159171" lon="11.229783997057107"><ele>20.0</ele><time>2026-04-04T11:53:19Z</time></trkpt><trkpt lat="45.39017137877873" lon="11.230085882629526"><ele>20.0</ele><time>2026-04-04T11:53:20Z</time></trkpt><trkpt lat="45.390143990010394" lon="11.230389245245918"><ele>20.0</ele><time>2026-04-04T11:53:21Z</time></trkpt><trkpt lat="45.390116135324945" lon="11.230691330156272"><ele>20.333333333333336</ele><time>2026-04-04T11:53:22Z</time></trkpt><trkpt lat="45.390087012503585" lon="11.23099582733794"><ele>20.666666666666668</ele><time>2026-04-04T11:53:23Z</time></trkpt><trkpt lat="45.390057154200456" lon="11.231302053850357"><ele>21.0</ele><time>2026-04-04T11:53:24Z</time></trkpt><trkpt lat="45.390029107602324" lon="11.231607849183156"><ele>21.0</ele><time>2026-04-04T11:53:25Z</time></trkpt><trkpt lat="45.3899992396112" lon="11.231915168562914"><ele>21.0</ele><time>2026-04-04T11:53:26Z</time></trkpt><trkpt lat="45.38996453747171" lon="11.232220305022713"><ele>21.0</ele><time>2026-04-04T11:53:27Z</time></trkpt><trkpt lat="45.389917230963945" lon="11.232521358355259"><ele>20.666666666666668</ele><time>2026-04-04T11:53:28Z</time></trkpt><trkpt lat="45.38986797750608" lon="11.232822665251883"><ele>20.333333333333336</ele><time>2026-04-04T11:53:29Z</time></trkpt><trkpt lat="45.38980831141795" lon="11.233118016484537"><ele>20.0</ele><time>2026-04-04T11:53:30Z</time></trkpt><trkpt lat="45.389740612403656" lon="11.233406112581266"><ele>20.333333333333336</ele><time>2026-04-04T11:53:30.999Z</time></trkpt><trkpt lat="45.38967022534112" lon="11.233691524894917"><ele>20.666666666666668</ele><time>2026-04-04T11:53:31.999Z</time></trkpt><trkpt lat="45.38958990718024" lon="11.233969441956386"><ele>21.0</ele><time>2026-04-04T11:53:32.999Z</time></trkpt><trkpt lat="45.3895006469425" lon="11.23423704233818"><ele>21.0</ele><time>2026-04-04T11:53:33.999Z</time></trkpt><trkpt lat="45.389409656073234" lon="11.234498495981358"><ele>21.0</ele><time>2026-04-04T11:53:34.999Z</time></trkpt><trkpt lat="45.38931381930489" lon="11.234756262757378"><ele>21.0</ele><time>2026-04-04T11:53:35.999Z</time></trkpt><trkpt lat="45.38921447661758" lon="11.235012808017027"><ele>21.0</ele><time>2026-04-04T11:53:36.999Z</time></trkpt><trkpt lat="45.389114182018254" lon="11.235266263530637"><ele>21.0</ele><time>2026-04-04T11:53:37.999Z</time></trkpt><trkpt lat="45.38901711674478" lon="11.235521946679425"><ele>21.0</ele><time>2026-04-04T11:53:38.999Z</time></trkpt><trkpt lat="45.38892752970787" lon="11.235783634378635"><ele>21.0</ele><time>2026-04-04T11:53:39.999Z</time></trkpt><trkpt lat="45.38884401536013" lon="11.236051890369039"><ele>21.0</ele><time>2026-04-04T11:53:40.999Z</time></trkpt><trkpt lat="45.388767319871306" lon="11.236322049520117"><ele>21.0</ele><time>2026-04-04T11:53:41.999Z</time></trkpt><trkpt lat="45.38870129385504" lon="11.236600421536746"><ele>21.0</ele><time>2026-04-04T11:53:42.999Z</time></trkpt><trkpt lat="45.388641804098675" lon="11.23688312223748"><ele>21.0</ele><time>2026-04-04T11:53:43.999Z</time></trkpt><trkpt lat="45.38859137250294" lon="11.237170165755964"><ele>21.0</ele><time>2026-04-04T11:53:44.999Z</time></trkpt><trkpt lat="45.388543349986186" lon="11.237461518361046"><ele>21.333333333333332</ele><time>2026-04-04T11:53:45.999Z</time></trkpt><trkpt lat="45.388503327989454" lon="11.237752916505789"><ele>21.666666666666664</ele><time>2026-04-04T11:53:46.999Z</time></trkpt><trkpt lat="45.38846664004643" lon="11.23804433351532"><ele>22.0</ele><time>2026-04-04T11:53:47.999Z</time></trkpt><trkpt lat="45.3884428418109" lon="11.238327312922475"><ele>22.0</ele><time>2026-04-04T11:53:48.999Z</time></trkpt><trkpt lat="45.388424602672096" lon="11.238593681555827"><ele>22.0</ele><time>2026-04-04T11:53:49.999Z</time></trkpt><trkpt lat="45.38841254139191" lon="11.23885142512249"><ele>22.0</ele><time>2026-04-04T11:53:50.999Z</time></trkpt><trkpt lat="45.38840434421752" lon="11.23910818032264"><ele>22.0</ele><time>2026-04-04T11:53:51.999Z</time></trkpt><trkpt lat="45.38839868723547" lon="11.239368772449106"><ele>22.0</ele><time>2026-04-04T11:53:52.999Z</time></trkpt><trkpt lat="45.388395194265904" lon="11.239632985860437"><ele>22.0</ele><time>2026-04-04T11:53:53.999Z</time></trkpt><trkpt lat="45.388389839106566" lon="11.239898494733811"><ele>21.666666666666664</ele><time>2026-04-04T11:53:54.999Z</time></trkpt><trkpt lat="45.388382263284946" lon="11.240164007178011"><ele>21.333333333333332</ele><time>2026-04-04T11:53:55.999Z</time></trkpt><trkpt lat="45.38837614996305" lon="11.240430143468968"><ele>21.0</ele><time>2026-04-04T11:53:56.999Z</time></trkpt><trkpt lat="45.38837170972755" lon="11.240693950557551"><ele>20.666666666666668</ele><time>2026-04-04T11:53:57.999Z</time></trkpt><trkpt lat="45.38836617785103" lon="11.24094917192521"><ele>20.333333333333336</ele><time>2026-04-04T11:53:58.999Z</time></trkpt><trkpt lat="45.388357957894755" lon="11.241197234047927"><ele>20.0</ele><time>2026-04-04T11:53:59.999Z</time></trkpt><trkpt lat="45.388349080002236" lon="11.241437549187125"><ele>19.666666666666668</ele><time>2026-04-04T11:54:00.999Z</time></trkpt><trkpt lat="45.388344584237686" lon="11.241689264086121"><ele>19.333333333333332</ele><time>2026-04-04T11:54:01.999Z</time></trkpt><trkpt lat="45.38833749517759" lon="11.241942667011482"><ele>19.0</ele><time>2026-04-04T11:54:02.999Z</time></trkpt><trkpt lat="45.38833398732387" lon="11.242193542042353"><ele>19.333333333333332</ele><time>2026-04-04T11:54:03.999Z</time></trkpt><trkpt lat="45.38832829677312" lon="11.24244181675381"><ele>19.666666666666668</ele><time>2026-04-04T11:54:04.999Z</time></trkpt><trkpt lat="45.38832077058534" lon="11.24268090122183"><ele>20.0</ele><time>2026-04-04T11:54:05.999Z</time></trkpt><trkpt lat="45.38831622371929" lon="11.242912412716587"><ele>20.0</ele><time>2026-04-04T11:54:06.999Z</time></trkpt><trkpt lat="45.38830903276034" lon="11.243143969235607"><ele>20.0</ele><time>2026-04-04T11:54:07.999Z</time></trkpt><trkpt lat="45.38830341222795" lon="11.243367335120354"><ele>20.0</ele><time>2026-04-04T11:54:08.999Z</time></trkpt><trkpt lat="45.38830010995249" lon="11.24357929142428"><ele>20.0</ele><time>2026-04-04T11:54:09.999Z</time></trkpt><trkpt lat="45.388296394295" lon="11.243792278463664"><ele>20.0</ele><time>2026-04-04T11:54:10.999Z</time></trkpt><trkpt lat="45.38829070143122" lon="11.24400378650843"><ele>20.0</ele><time>2026-04-04T11:54:11.999Z</time></trkpt><trkpt lat="45.38828613588012" lon="11.244213495187592"><ele>20.0</ele><time>2026-04-04T11:54:12.999Z</time></trkpt><trkpt lat="45.38828168958796" lon="11.244412461079223"><ele>20.0</ele><time>2026-04-04T11:54:13.999Z</time></trkpt><trkpt lat="45.38827700926932" lon="11.244601240210656"><ele>20.0</ele><time>2026-04-04T11:54:14.999Z</time></trkpt><trkpt lat="45.38827331324479" lon="11.2447767030792"><ele>20.0</ele><time>2026-04-04T11:54:15.999Z</time></trkpt><trkpt lat="45.3882678152739" lon="11.244935162544989"><ele>20.0</ele><time>2026-04-04T11:54:16.999Z</time></trkpt><trkpt lat="45.38825948454496" lon="11.245076748269277"><ele>20.0</ele><time>2026-04-04T11:54:17.999Z</time></trkpt><trkpt lat="45.38824838468864" lon="11.245201493687514"><ele>20.0</ele><time>2026-04-04T11:54:18.999Z</time></trkpt><trkpt lat="45.38822929352523" lon="11.24531303336597"><ele>20.0</ele><time>2026-04-04T11:54:19.999Z</time></trkpt><trkpt lat="45.388196358111585" lon="11.245409246296916"><ele>20.0</ele><time>2026-04-04T11:54:20.999Z</time></trkpt><trkpt lat="45.38816182730889" lon="11.245507809007393"><ele>20.0</ele><time>2026-04-04T11:54:21.999Z</time></trkpt><trkpt lat="45.388108380891325" lon="11.245605308227265"><ele>20.0</ele><time>2026-04-04T11:54:22.999Z</time></trkpt><trkpt lat="45.38804849184458" lon="11.245707048084403"><ele>19.8</ele><time>2026-04-04T11:54:23.999Z</time></trkpt><trkpt lat="45.38798217961788" lon="11.245816908174678"><ele>19.6</ele><time>2026-04-04T11:54:24.998Z</time></trkpt><trkpt lat="45.38792827854059" lon="11.245942790917212"><ele>19.4</ele><time>2026-04-04T11:54:25.998Z</time></trkpt><trkpt lat="45.38789030369909" lon="11.246074720470496"><ele>19.2</ele><time>2026-04-04T11:54:26.998Z</time></trkpt><trkpt lat="45.387881030935205" lon="11.246212120292855"><ele>19.0</ele><time>2026-04-04T11:54:27.998Z</time></trkpt><trkpt lat="45.38789211775335" lon="11.246337191132163"><ele>19.0</ele><time>2026-04-04T11:54:28.998Z</time></trkpt><trkpt lat="45.38792003295988" lon="11.246445821847571"><ele>19.0</ele><time>2026-04-04T11:54:29.998Z</time></trkpt><trkpt lat="45.38796272337441" lon="11.246552663978315"><ele>19.0</ele><time>2026-04-04T11:54:30.998Z</time></trkpt><trkpt lat="45.38801767724854" lon="11.246640782592628"><ele>19.0</ele><time>2026-04-04T11:54:31.998Z</time></trkpt><trkpt lat="45.38808436772772" lon="11.246704173064376"><ele>19.0</ele><time>2026-04-04T11:54:32.998Z</time></trkpt><trkpt lat="45.38815706055953" lon="11.246750886038438"><ele>19.0</ele><time>2026-04-04T11:54:33.998Z</time></trkpt><trkpt lat="45.38822889524557" lon="11.246773698219307"><ele>19.333333333333332</ele><time>2026-04-04T11:54:34.998Z</time></trkpt><trkpt lat="45.3883075591429" lon="11.24677627195048"><ele>19.666666666666664</ele><time>2026-04-04T11:54:35.998Z</time></trkpt><trkpt lat="45.388388547156346" lon="11.246754057859945"><ele>20.0</ele><time>2026-04-04T11:54:36.998Z</time></trkpt><trkpt lat="45.38846643063168" lon="11.246707108126651"><ele>20.333333333333332</ele><time>2026-04-04T11:54:37.998Z</time></trkpt><trkpt lat="45.38854112883514" lon="11.246647861158436"><ele>20.666666666666668</ele><time>2026-04-04T11:54:38.998Z</time></trkpt><trkpt lat="45.38861685969972" lon="11.24658867233449"><ele>21.0</ele><time>2026-04-04T11:54:39.998Z</time></trkpt><trkpt lat="45.38866757836457" lon="11.246494404999135"><ele>21.0</ele><time>2026-04-04T11:54:40.998Z</time></trkpt><trkpt lat="45.38880715122043" lon="11.246499304115487"><ele>21.0</ele><time>2026-04-04T11:54:41.998Z</time></trkpt><trkpt lat="45.38891914554221" lon="11.246483272062388"><ele>21.0</ele><time>2026-04-04T11:54:42.998Z</time></trkpt><trkpt lat="45.3890402188684" lon="11.246493011756545"><ele>21.0</ele><time>2026-04-04T11:54:43.998Z</time></trkpt><trkpt lat="45.389176324531086" lon="11.24652877324664"><ele>21.25</ele><time>2026-04-04T11:54:44.998Z</time></trkpt><trkpt lat="45.38931353918065" lon="11.246571803638947"><ele>21.5</ele><time>2026-04-04T11:54:45.998Z</time></trkpt><trkpt lat="45.38944667193848" lon="11.246598743119394"><ele>21.75</ele><time>2026-04-04T11:54:46.998Z</time></trkpt><trkpt lat="45.38958964734193" lon="11.246622697017667"><ele>22.0</ele><time>2026-04-04T11:54:47.998Z</time></trkpt><trkpt lat="45.38973870901317" lon="11.246653678257305"><ele>22.0</ele><time>2026-04-04T11:54:48.998Z</time></trkpt><trkpt lat="45.389889071751725" lon="11.246688155848444"><ele>22.0</ele><time>2026-04-04T11:54:49.998Z</time></trkpt><trkpt lat="45.39003746411269" lon="11.246724137258042"><ele>22.0</ele><time>2026-04-04T11:54:50.998Z</time></trkpt><trkpt lat="45.39018830814144" lon="11.246760707555758"><ele>22.0</ele><time>2026-04-04T11:54:51.998Z</time></trkpt><trkpt lat="45.39034485852825" lon="11.246789102926577"><ele>22.0</ele><time>2026-04-04T11:54:52.998Z</time></trkpt><trkpt lat="45.390502001059154" lon="11.2468211085659"><ele>22.0</ele><time>2026-04-04T11:54:53.998Z</time></trkpt><trkpt lat="45.39066320461369" lon="11.246856943960461"><ele>21.666666666666664</ele><time>2026-04-04T11:54:54.998Z</time></trkpt><trkpt lat="45.390825157903514" lon="11.246892085504907"><ele>21.333333333333332</ele><time>2026-04-04T11:54:55.998Z</time></trkpt><trkpt lat="45.39098685585764" lon="11.246926366727456"><ele>21.0</ele><time>2026-04-04T11:54:57Z</time></trkpt><trkpt lat="45.39115205207308" lon="11.246959781832032"><ele>21.0</ele><time>2026-04-04T11:54:58Z</time></trkpt><trkpt lat="45.391317997528276" lon="11.246986832445733"><ele>21.0</ele><time>2026-04-04T11:54:59Z</time></trkpt><trkpt lat="45.391485332049136" lon="11.247015439781869"><ele>21.0</ele><time>2026-04-04T11:55:00Z</time></trkpt><trkpt lat="45.391652406289275" lon="11.247049247261051"><ele>20.666666666666668</ele><time>2026-04-04T11:55:01Z</time></trkpt><trkpt lat="45.391820929037095" lon="11.247083727541265"><ele>20.333333333333336</ele><time>2026-04-04T11:55:02Z</time></trkpt><trkpt lat="45.391991545555896" lon="11.247119518353895"><ele>20.0</ele><time>2026-04-04T11:55:03Z</time></trkpt><trkpt lat="45.39215884169169" lon="11.24715383337176"><ele>21.0</ele><time>2026-04-04T11:55:04Z</time></trkpt><trkpt lat="45.39232973841077" lon="11.247181390378467"><ele>22.0</ele><time>2026-04-04T11:55:05Z</time></trkpt><trkpt lat="45.39250061465687" lon="11.247213039453461"><ele>23.0</ele><time>2026-04-04T11:55:06Z</time></trkpt><trkpt lat="45.39267129824102" lon="11.24724787558414"><ele>23.0</ele><time>2026-04-04T11:55:07Z</time></trkpt><trkpt lat="45.39284693451435" lon="11.247284179355649"><ele>23.0</ele><time>2026-04-04T11:55:08Z</time></trkpt><trkpt lat="45.39302560945947" lon="11.247323023704087"><ele>23.0</ele><time>2026-04-04T11:55:09Z</time></trkpt><trkpt lat="45.393202667535064" lon="11.247356575160286"><ele>22.0</ele><time>2026-04-04T11:55:10Z</time></trkpt><trkpt lat="45.39337960465846" lon="11.247387490564396"><ele>21.0</ele><time>2026-04-04T11:55:11Z</time></trkpt><trkpt lat="45.39355463548821" lon="11.24742112197294"><ele>20.0</ele><time>2026-04-04T11:55:12Z</time></trkpt><trkpt lat="45.3937275564651" lon="11.247455482733534"><ele>20.333333333333336</ele><time>2026-04-04T11:55:13Z</time></trkpt><trkpt lat="45.393898876936206" lon="11.247490542950391"><ele>20.666666666666668</ele><time>2026-04-04T11:55:14Z</time></trkpt><trkpt lat="45.39407075732907" lon="11.247520876018136"><ele>21.0</ele><time>2026-04-04T11:55:15Z</time></trkpt><trkpt lat="45.39424232706713" lon="11.24755445190451"><ele>21.0</ele><time>2026-04-04T11:55:16Z</time></trkpt><trkpt lat="45.39441815985452" lon="11.247590839817693"><ele>21.0</ele><time>2026-04-04T11:55:17Z</time></trkpt><trkpt lat="45.39459680786677" lon="11.247628172516501"><ele>21.0</ele><time>2026-04-04T11:55:18Z</time></trkpt><trkpt lat="45.39477579341918" lon="11.247661322256615"><ele>21.333333333333332</ele><time>2026-04-04T11:55:19Z</time></trkpt><trkpt lat="45.39496075106026" lon="11.247699516627069"><ele>21.666666666666664</ele><time>2026-04-04T11:55:20Z</time></trkpt><trkpt lat="45.39514632410266" lon="11.247734930401407"><ele>22.0</ele><time>2026-04-04T11:55:21Z</time></trkpt><trkpt lat="45.39533533801257" lon="11.247770027254544"><ele>21.333333333333332</ele><time>2026-04-04T11:55:22Z</time></trkpt><trkpt lat="45.39552354297163" lon="11.247803383477212"><ele>20.666666666666668</ele><time>2026-04-04T11:55:23Z</time></trkpt><trkpt lat="45.3957057904754" lon="11.24782963742429"><ele>20.0</ele><time>2026-04-04T11:55:24Z</time></trkpt><trkpt lat="45.39588849763019" lon="11.247857709574145"><ele>20.0</ele><time>2026-04-04T11:55:25Z</time></trkpt><trkpt lat="45.39607145065791" lon="11.24788775897851"><ele>20.0</ele><time>2026-04-04T11:55:26Z</time></trkpt><trkpt lat="45.3962559493352" lon="11.247914437929829"><ele>20.0</ele><time>2026-04-04T11:55:27Z</time></trkpt><trkpt lat="45.396440932216855" lon="11.247942410956538"><ele>20.333333333333336</ele><time>2026-04-04T11:55:28Z</time></trkpt><trkpt lat="45.39662226386789" lon="11.247970933027794"><ele>20.666666666666668</ele><time>2026-04-04T11:55:29Z</time></trkpt><trkpt lat="45.39680214749039" lon="11.247994567432025"><ele>21.0</ele><time>2026-04-04T11:55:30Z</time></trkpt><trkpt lat="45.39697820449138" lon="11.248017617566655"><ele>21.0</ele><time>2026-04-04T11:55:31Z</time></trkpt><trkpt lat="45.397162457803624" lon="11.248040408218897"><ele>21.0</ele><time>2026-04-04T11:55:32Z</time></trkpt><trkpt lat="45.397351645697235" lon="11.248070441929235"><ele>21.0</ele><time>2026-04-04T11:55:33Z</time></trkpt><trkpt lat="45.39754552938652" lon="11.248100935288623"><ele>21.333333333333332</ele><time>2026-04-04T11:55:34Z</time></trkpt><trkpt lat="45.397738757114325" lon="11.248129671508327"><ele>21.666666666666664</ele><time>2026-04-04T11:55:35Z</time></trkpt><trkpt lat="45.397928759742754" lon="11.248157416974164"><ele>22.0</ele><time>2026-04-04T11:55:36Z</time></trkpt><trkpt lat="45.39811126705714" lon="11.24818390024382"><ele>22.333333333333332</ele><time>2026-04-04T11:55:36.999Z</time></trkpt><trkpt lat="45.39828661494148" lon="11.248209972133429"><ele>22.666666666666668</ele><time>2026-04-04T11:55:37.999Z</time></trkpt><trkpt lat="45.39846152238312" lon="11.248238243775974"><ele>23.0</ele><time>2026-04-04T11:55:38.999Z</time></trkpt><trkpt lat="45.39863846121344" lon="11.248265868107111"><ele>23.0</ele><time>2026-04-04T11:55:39.999Z</time></trkpt><trkpt lat="45.39881652018027" lon="11.248286205357827"><ele>23.0</ele><time>2026-04-04T11:55:40.999Z</time></trkpt><trkpt lat="45.39899304971229" lon="11.248308596674981"><ele>23.0</ele><time>2026-04-04T11:55:41.999Z</time></trkpt><trkpt lat="45.399167926800864" lon="11.248333345191119"><ele>23.0</ele><time>2026-04-04T11:55:42.999Z</time></trkpt><trkpt lat="45.39933836042115" lon="11.248375497020664"><ele>23.0</ele><time>2026-04-04T11:55:43.999Z</time></trkpt><trkpt lat="45.39950048155754" lon="11.248442465592486"><ele>23.0</ele><time>2026-04-04T11:55:44.999Z</time></trkpt><trkpt lat="45.399656878927345" lon="11.248533827622063"><ele>23.0</ele><time>2026-04-04T11:55:45.999Z</time></trkpt><trkpt lat="45.39980620968207" lon="11.248646497842477"><ele>23.0</ele><time>2026-04-04T11:55:46.999Z</time></trkpt><trkpt lat="45.39994699647449" lon="11.248775943380213"><ele>23.0</ele><time>2026-04-04T11:55:47.999Z</time></trkpt><trkpt lat="45.40007684979197" lon="11.24892243983501"><ele>23.0</ele><time>2026-04-04T11:55:48.999Z</time></trkpt><trkpt lat="45.400189834197114" lon="11.249072915668256"><ele>23.0</ele><time>2026-04-04T11:55:49.999Z</time></trkpt><trkpt lat="45.40029265050551" lon="11.249236690841169"><ele>23.0</ele><time>2026-04-04T11:55:50.999Z</time></trkpt><trkpt lat="45.400386457181824" lon="11.249419648270429"><ele>23.0</ele><time>2026-04-04T11:55:51.999Z</time></trkpt><trkpt lat="45.400471369069834" lon="11.249623634384426"><ele>23.0</ele><time>2026-04-04T11:55:52.999Z</time></trkpt><trkpt lat="45.400547112840435" lon="11.249833264979143"><ele>23.0</ele><time>2026-04-04T11:55:53.999Z</time></trkpt><trkpt lat="45.400607723258396" lon="11.250053004035838"><ele>23.333333333333336</ele><time>2026-04-04T11:55:54.999Z</time></trkpt><trkpt lat="45.40065106947636" lon="11.25026935517037"><ele>23.666666666666668</ele><time>2026-04-04T11:55:55.999Z</time></trkpt><trkpt lat="45.4006907500414" lon="11.250481997175646"><ele>24.0</ele><time>2026-04-04T11:55:56.999Z</time></trkpt><trkpt lat="45.40073485560385" lon="11.250681812503768"><ele>24.25</ele><time>2026-04-04T11:55:57.999Z</time></trkpt><trkpt lat="45.40078197191615" lon="11.25088338846944"><ele>24.5</ele><time>2026-04-04T11:55:58.999Z</time></trkpt><trkpt lat="45.400828334098804" lon="11.251082291035813"><ele>24.75</ele><time>2026-04-04T11:55:59.999Z</time></trkpt><trkpt lat="45.400871614533294" lon="11.251272432891431"><ele>25.0</ele><time>2026-04-04T11:56:00.999Z</time></trkpt><trkpt lat="45.400917215294015" lon="11.251462009527724"><ele>25.0</ele><time>2026-04-04T11:56:01.999Z</time></trkpt><trkpt lat="45.40096539122454" lon="11.251659682457328"><ele>25.0</ele><time>2026-04-04T11:56:02.999Z</time></trkpt><trkpt lat="45.40103371824383" lon="11.251856752024477"><ele>25.0</ele><time>2026-04-04T11:56:03.999Z</time></trkpt><trkpt lat="45.401107997987474" lon="11.25205452889416"><ele>25.0</ele><time>2026-04-04T11:56:04.999Z</time></trkpt><trkpt lat="45.40119332367051" lon="11.25223412494912"><ele>25.0</ele><time>2026-04-04T11:56:05.999Z</time></trkpt><trkpt lat="45.401292790036315" lon="11.252400867951337"><ele>25.0</ele><time>2026-04-04T11:56:06.999Z</time></trkpt><trkpt lat="45.40140628268665" lon="11.252560709904996"><ele>25.666666666666668</ele><time>2026-04-04T11:56:07.999Z</time></trkpt><trkpt lat="45.4015283927225" lon="11.252713864396144"><ele>26.333333333333336</ele><time>2026-04-04T11:56:08.999Z</time></trkpt><trkpt lat="45.40165981878328" lon="11.252854575503383"><ele>27.0</ele><time>2026-04-04T11:56:09.999Z</time></trkpt><trkpt lat="45.40179329941473" lon="11.252969241057801"><ele>27.0</ele><time>2026-04-04T11:56:10.999Z</time></trkpt><trkpt lat="45.40192890109227" lon="11.253071361544391"><ele>27.0</ele><time>2026-04-04T11:56:11.999Z</time></trkpt><trkpt lat="45.40205647530897" lon="11.253171661534264"><ele>27.0</ele><time>2026-04-04T11:56:12.999Z</time></trkpt><trkpt lat="45.4021678630172" lon="11.253269996271968"><ele>27.0</ele><time>2026-04-04T11:56:13.999Z</time></trkpt><trkpt lat="45.402296131562466" lon="11.253404562279682"><ele>26.25</ele><time>2026-04-04T11:56:14.999Z</time></trkpt><trkpt lat="45.40242083943556" lon="11.253477286973483"><ele>25.5</ele><time>2026-04-04T11:56:15.999Z</time></trkpt><trkpt lat="45.402529925662215" lon="11.25356464976201"><ele>24.75</ele><time>2026-04-04T11:56:16.999Z</time></trkpt><trkpt lat="45.402640300105766" lon="11.253650741012978"><ele>24.0</ele><time>2026-04-04T11:56:17.999Z</time></trkpt><trkpt lat="45.4027542993797" lon="11.253742740248754"><ele>24.0</ele><time>2026-04-04T11:56:18.999Z</time></trkpt><trkpt lat="45.402874293771035" lon="11.253840366458412"><ele>24.0</ele><time>2026-04-04T11:56:19.999Z</time></trkpt><trkpt lat="45.40299598298299" lon="11.253936317223314"><ele>24.0</ele><time>2026-04-04T11:56:20.999Z</time></trkpt><trkpt lat="45.403108322790274" lon="11.2540269615542"><ele>24.0</ele><time>2026-04-04T11:56:21.999Z</time></trkpt><trkpt lat="45.40321706556438" lon="11.254119692603352"><ele>23.6</ele><time>2026-04-04T11:56:22.999Z</time></trkpt><trkpt lat="45.40332390615861" lon="11.254210147476662"><ele>23.2</ele><time>2026-04-04T11:56:23.999Z</time></trkpt><trkpt lat="45.40342425188789" lon="11.25429312594947"><ele>22.8</ele><time>2026-04-04T11:56:24.999Z</time></trkpt><trkpt lat="45.40351635193319" lon="11.254361754050372"><ele>22.400000000000002</ele><time>2026-04-04T11:56:25.999Z</time></trkpt><trkpt lat="45.403599876494674" lon="11.254434430271823"><ele>22.0</ele><time>2026-04-04T11:56:26.999Z</time></trkpt><trkpt lat="45.403666300515205" lon="11.254493130055613"><ele>22.0</ele><time>2026-04-04T11:56:27.999Z</time></trkpt><trkpt lat="45.403724872250585" lon="11.254546134542533"><ele>22.0</ele><time>2026-04-04T11:56:28.999Z</time></trkpt><trkpt lat="45.40381076852507" lon="11.254637280082456"><ele>22.0</ele><time>2026-04-04T11:56:30.999Z</time></trkpt><trkpt lat="45.403873669711174" lon="11.254725052763233"><ele>22.0</ele><time>2026-04-04T11:56:32.998Z</time></trkpt><trkpt lat="45.40392167151165" lon="11.254819505889008"><ele>22.0</ele><time>2026-04-04T11:56:34.998Z</time></trkpt><trkpt lat="45.40396338760184" lon="11.254929807179442"><ele>22.0</ele><time>2026-04-04T11:56:36.998Z</time></trkpt><trkpt lat="45.4039913781763" lon="11.255017432006175"><ele>22.0</ele><time>2026-04-04T11:56:37.998Z</time></trkpt><trkpt lat="45.40402489405769" lon="11.255119200644996"><ele>22.0</ele><time>2026-04-04T11:56:38.998Z</time></trkpt><trkpt lat="45.404068075877866" lon="11.25521938689939"><ele>22.0</ele><time>2026-04-04T11:56:39.998Z</time></trkpt><trkpt lat="45.40413546719604" lon="11.255308266670712"><ele>22.0</ele><time>2026-04-04T11:56:40.998Z</time></trkpt><trkpt lat="45.40422666482384" lon="11.255370322327872"><ele>22.0</ele><time>2026-04-04T11:56:41.998Z</time></trkpt><trkpt lat="45.40432486044744" lon="11.25540887969996"><ele>22.0</ele><time>2026-04-04T11:56:42.998Z</time></trkpt><trkpt lat="45.404440424540205" lon="11.255409426955156"><ele>22.0</ele><time>2026-04-04T11:56:43.998Z</time></trkpt><trkpt lat="45.40455355845234" lon="11.255394618936316"><ele>22.0</ele><time>2026-04-04T11:56:44.998Z</time></trkpt><trkpt lat="45.404665280129436" lon="11.255387567007906"><ele>22.0</ele><time>2026-04-04T11:56:45.998Z</time></trkpt><trkpt lat="45.404788424903884" lon="11.255398651105876"><ele>22.5</ele><time>2026-04-04T11:56:46.998Z</time></trkpt><trkpt lat="45.40491162304488" lon="11.255465467296064"><ele>23.0</ele><time>2026-04-04T11:56:47.998Z</time></trkpt><trkpt lat="45.405020022099315" lon="11.255601094939081"><ele>23.5</ele><time>2026-04-04T11:56:48.998Z</time></trkpt><trkpt lat="45.40514267119415" lon="11.255717327631805"><ele>24.0</ele><time>2026-04-04T11:56:49.998Z</time></trkpt><trkpt lat="45.40527107717655" lon="11.255853122791954"><ele>24.0</ele><time>2026-04-04T11:56:50.998Z</time></trkpt><trkpt lat="45.405411509309694" lon="11.255989168274905"><ele>24.0</ele><time>2026-04-04T11:56:51.998Z</time></trkpt><trkpt lat="45.40556043625828" lon="11.256132716892367"><ele>24.0</ele><time>2026-04-04T11:56:52.998Z</time></trkpt><trkpt lat="45.4057096161691" lon="11.256281738834918"><ele>24.0</ele><time>2026-04-04T11:56:53.998Z</time></trkpt><trkpt lat="45.405854274114496" lon="11.256418980332427"><ele>24.0</ele><time>2026-04-04T11:56:54.998Z</time></trkpt><trkpt lat="45.40599432423049" lon="11.256557157651075"><ele>24.0</ele><time>2026-04-04T11:56:55.998Z</time></trkpt><trkpt lat="45.406125386050824" lon="11.25668498985341"><ele>24.666666666666664</ele><time>2026-04-04T11:56:56.998Z</time></trkpt><trkpt lat="45.40624802405216" lon="11.256808066556001"><ele>25.333333333333332</ele><time>2026-04-04T11:56:57.998Z</time></trkpt><trkpt lat="45.406369060681044" lon="11.25692682754856"><ele>26.0</ele><time>2026-04-04T11:56:58.998Z</time></trkpt><trkpt lat="45.406501749361674" lon="11.257042036816955"><ele>26.0</ele><time>2026-04-04T11:56:59.998Z</time></trkpt><trkpt lat="45.40664427311777" lon="11.257155901539194"><ele>26.0</ele><time>2026-04-04T11:57:00.998Z</time></trkpt><trkpt lat="45.40679280805687" lon="11.257256650976956"><ele>26.0</ele><time>2026-04-04T11:57:01.998Z</time></trkpt><trkpt lat="45.406945543563765" lon="11.257356175947852"><ele>26.333333333333332</ele><time>2026-04-04T11:57:03Z</time></trkpt><trkpt lat="45.40709862158169" lon="11.257453649863097"><ele>26.666666666666664</ele><time>2026-04-04T11:57:04Z</time></trkpt><trkpt lat="45.40725364395628" lon="11.257550833429798"><ele>27.0</ele><time>2026-04-04T11:57:05Z</time></trkpt><trkpt lat="45.40741131601066" lon="11.257641905912433"><ele>27.0</ele><time>2026-04-04T11:57:06Z</time></trkpt><trkpt lat="45.40756557324196" lon="11.257741994912609"><ele>27.0</ele><time>2026-04-04T11:57:07Z</time></trkpt><trkpt lat="45.40771570204228" lon="11.257832515858656"><ele>27.0</ele><time>2026-04-04T11:57:08Z</time></trkpt><trkpt lat="45.407860309368274" lon="11.257924338233623"><ele>28.0</ele><time>2026-04-04T11:57:09Z</time></trkpt><trkpt lat="45.40800664248272" lon="11.257989843708486"><ele>29.0</ele><time>2026-04-04T11:57:10Z</time></trkpt><trkpt lat="45.40816053869503" lon="11.258033902799493"><ele>30.0</ele><time>2026-04-04T11:57:11Z</time></trkpt><trkpt lat="45.40831956633885" lon="11.258059558204634"><ele>30.0</ele><time>2026-04-04T11:57:12Z</time></trkpt><trkpt lat="45.408473132084566" lon="11.258078580764543"><ele>30.0</ele><time>2026-04-04T11:57:13Z</time></trkpt><trkpt lat="45.40861089169576" lon="11.258090270510078"><ele>30.0</ele><time>2026-04-04T11:57:14Z</time></trkpt><trkpt lat="45.40872896686513" lon="11.258097888604983"><ele>30.0</ele><time>2026-04-04T11:57:15Z</time></trkpt><trkpt lat="45.40882698445583" lon="11.258104889106521"><ele>29.8</ele><time>2026-04-04T11:57:16Z</time></trkpt><trkpt lat="45.40890357715756" lon="11.258111066555712"><ele>29.6</ele><time>2026-04-04T11:57:17Z</time></trkpt><trkpt lat="45.4089929911753" lon="11.258119105474943"><ele>29.4</ele><time>2026-04-04T11:57:19Z</time></trkpt><trkpt lat="45.40905872532183" lon="11.258146069077158"><ele>29.2</ele><time>2026-04-04T11:57:21Z</time></trkpt><trkpt lat="45.409096724334375" lon="11.25830045922522"><ele>29.0</ele><time>2026-04-04T11:57:24Z</time></trkpt><trkpt lat="45.40903743236077" lon="11.258442451485429"><ele>30.4</ele><time>2026-04-04T11:57:26Z</time></trkpt><trkpt lat="45.40900571635906" lon="11.25852543446899"><ele>31.799999999999997</ele><time>2026-04-04T11:57:27Z</time></trkpt><trkpt lat="45.4089793397429" lon="11.258639845143216"><ele>33.2</ele><time>2026-04-04T11:57:28Z</time></trkpt><trkpt lat="45.408963866183214" lon="11.258768804656487"><ele>34.6</ele><time>2026-04-04T11:57:29Z</time></trkpt><trkpt lat="45.40895985915288" lon="11.258925499579808"><ele>36.0</ele><time>2026-04-04T11:57:30Z</time></trkpt><trkpt lat="45.408962291817986" lon="11.259094131010118"><ele>36.0</ele><time>2026-04-04T11:57:31Z</time></trkpt><trkpt lat="45.4089599305415" lon="11.259272731107814"><ele>36.0</ele><time>2026-04-04T11:57:32Z</time></trkpt><trkpt lat="45.4089573839332" lon="11.25945724901924"><ele>36.0</ele><time>2026-04-04T11:57:33Z</time></trkpt><trkpt lat="45.408960189823695" lon="11.259688155401433"><ele>36.0</ele><time>2026-04-04T11:57:34Z</time></trkpt><trkpt lat="45.40895923242749" lon="11.259923752784257"><ele>36.0</ele><time>2026-04-04T11:57:35Z</time></trkpt><trkpt lat="45.40895524629155" lon="11.260139609724854"><ele>36.0</ele><time>2026-04-04T11:57:36Z</time></trkpt><trkpt lat="45.408958161999735" lon="11.260356926560926"><ele>36.0</ele><time>2026-04-04T11:57:37Z</time></trkpt><trkpt lat="45.40896334901581" lon="11.260592607494893"><ele>35.666666666666664</ele><time>2026-04-04T11:57:38Z</time></trkpt><trkpt lat="45.4089705822448" lon="11.260851481009732"><ele>35.33333333333333</ele><time>2026-04-04T11:57:39Z</time></trkpt><trkpt lat="45.40897063986694" lon="11.261123740427951"><ele>35.0</ele><time>2026-04-04T11:57:40Z</time></trkpt><trkpt lat="45.40898052047687" lon="11.26137507195686"><ele>33.666666666666664</ele><time>2026-04-04T11:57:41Z</time></trkpt><trkpt lat="45.40898337465286" lon="11.261623009489892"><ele>32.333333333333336</ele><time>2026-04-04T11:57:42Z</time></trkpt><trkpt lat="45.40898569839266" lon="11.261882103138655"><ele>31.0</ele><time>2026-04-04T11:57:43Z</time></trkpt><trkpt lat="45.40898967542688" lon="11.262153383785742"><ele>30.0</ele><time>2026-04-04T11:57:43.999Z</time></trkpt><trkpt lat="45.40899476951292" lon="11.262435927287198"><ele>29.0</ele><time>2026-04-04T11:57:44.999Z</time></trkpt><trkpt lat="45.40900457870932" lon="11.262722082344206"><ele>28.0</ele><time>2026-04-04T11:57:45.999Z</time></trkpt><trkpt lat="45.409010815121455" lon="11.26301871661436"><ele>28.0</ele><time>2026-04-04T11:57:46.999Z</time></trkpt><trkpt lat="45.40901522198309" lon="11.263315463998023"><ele>28.0</ele><time>2026-04-04T11:57:47.999Z</time></trkpt><trkpt lat="45.40902011421631" lon="11.26361110453986"><ele>28.0</ele><time>2026-04-04T11:57:48.999Z</time></trkpt><trkpt lat="45.409023502217075" lon="11.263901332131084"><ele>28.0</ele><time>2026-04-04T11:57:49.999Z</time></trkpt><trkpt lat="45.409022677765385" lon="11.26417428133459"><ele>28.0</ele><time>2026-04-04T11:57:50.999Z</time></trkpt><trkpt lat="45.40902456999777" lon="11.264435288001033"><ele>28.0</ele><time>2026-04-04T11:57:51.999Z</time></trkpt><trkpt lat="45.40902957543574" lon="11.264690326014284"><ele>28.333333333333336</ele><time>2026-04-04T11:57:52.999Z</time></trkpt><trkpt lat="45.40903399606022" lon="11.264943562208634"><ele>28.666666666666664</ele><time>2026-04-04T11:57:53.999Z</time></trkpt><trkpt lat="45.40904414298083" lon="11.265191693076778"><ele>29.0</ele><time>2026-04-04T11:57:54.999Z</time></trkpt><trkpt lat="45.40906960092806" lon="11.265434628193866"><ele>28.666666666666664</ele><time>2026-04-04T11:57:55.999Z</time></trkpt><trkpt lat="45.40912145471531" lon="11.265669574039107"><ele>28.333333333333336</ele><time>2026-04-04T11:57:56.999Z</time></trkpt><trkpt lat="45.40920374254043" lon="11.265890267127446"><ele>28.0</ele><time>2026-04-04T11:57:57.999Z</time></trkpt><trkpt lat="45.40930512638033" lon="11.266092085569367"><ele>28.0</ele><time>2026-04-04T11:57:58.999Z</time></trkpt><trkpt lat="45.40941932632111" lon="11.26627282374421"><ele>28.0</ele><time>2026-04-04T11:57:59.999Z</time></trkpt><trkpt lat="45.40953765611488" lon="11.266428765672336"><ele>28.0</ele><time>2026-04-04T11:58:00.999Z</time></trkpt><trkpt lat="45.40965662408447" lon="11.266603907801386"><ele>29.333333333333336</ele><time>2026-04-04T11:58:01.999Z</time></trkpt><trkpt lat="45.40976726007783" lon="11.266787052079144"><ele>30.666666666666664</ele><time>2026-04-04T11:58:02.999Z</time></trkpt><trkpt lat="45.40987571754792" lon="11.26694957601512"><ele>32.0</ele><time>2026-04-04T11:58:03.999Z</time></trkpt><trkpt lat="45.409982558588155" lon="11.267110100844738"><ele>32.0</ele><time>2026-04-04T11:58:04.999Z</time></trkpt><trkpt lat="45.41008040689822" lon="11.267265126685414"><ele>32.0</ele><time>2026-04-04T11:58:05.999Z</time></trkpt><trkpt lat="45.41017120662493" lon="11.26743329750133"><ele>32.0</ele><time>2026-04-04T11:58:06.999Z</time></trkpt><trkpt lat="45.410259491246045" lon="11.267591637347524"><ele>32.0</ele><time>2026-04-04T11:58:07.999Z</time></trkpt><trkpt lat="45.410349373810426" lon="11.267737585601072"><ele>32.0</ele><time>2026-04-04T11:58:08.999Z</time></trkpt><trkpt lat="45.410436364252554" lon="11.26788132962352"><ele>32.0</ele><time>2026-04-04T11:58:09.999Z</time></trkpt><trkpt lat="45.41052361240425" lon="11.268027960680786"><ele>32.0</ele><time>2026-04-04T11:58:10.999Z</time></trkpt><trkpt lat="45.4106011150556" lon="11.268164858656483"><ele>32.0</ele><time>2026-04-04T11:58:11.999Z</time></trkpt><trkpt lat="45.410673923030345" lon="11.268313546199513"><ele>31.75</ele><time>2026-04-04T11:58:12.999Z</time></trkpt><trkpt lat="45.41073352866331" lon="11.268481951522748"><ele>31.5</ele><time>2026-04-04T11:58:13.999Z</time></trkpt><trkpt lat="45.4107824545894" lon="11.268667485085857"><ele>31.25</ele><time>2026-04-04T11:58:14.999Z</time></trkpt><trkpt lat="45.41080880000935" lon="11.268880044543819"><ele>31.0</ele><time>2026-04-04T11:58:15.999Z</time></trkpt><trkpt lat="45.41084769518108" lon="11.2691189274568"><ele>31.0</ele><time>2026-04-04T11:58:16.999Z</time></trkpt><trkpt lat="45.41089702330561" lon="11.269420353028696"><ele>31.0</ele><time>2026-04-04T11:58:17.999Z</time></trkpt><trkpt lat="45.41095186173212" lon="11.269757332761765"><ele>30.5</ele><time>2026-04-04T11:58:18.999Z</time></trkpt><trkpt lat="45.411008731777095" lon="11.270118764399875"><ele>30.0</ele><time>2026-04-04T11:58:19.999Z</time></trkpt><trkpt lat="45.41106824928892" lon="11.27048534609573"><ele>30.0</ele><time>2026-04-04T11:58:20.999Z</time></trkpt><trkpt lat="45.411122464672296" lon="11.270848859446538"><ele>30.0</ele><time>2026-04-04T11:58:21.999Z</time></trkpt><trkpt lat="45.41117702978722" lon="11.271206709307602"><ele>30.0</ele><time>2026-04-04T11:58:22.999Z</time></trkpt><trkpt lat="45.411228928024286" lon="11.271555118545969"><ele>30.0</ele><time>2026-04-04T11:58:23.999Z</time></trkpt><trkpt lat="45.411280485288955" lon="11.271892201946116"><ele>29.5</ele><time>2026-04-04T11:58:24.999Z</time></trkpt><trkpt lat="45.41132940584647" lon="11.272222071011901"><ele>29.0</ele><time>2026-04-04T11:58:25.999Z</time></trkpt><trkpt lat="45.41138090044754" lon="11.272551566299269"><ele>29.0</ele><time>2026-04-04T11:58:26.999Z</time></trkpt><trkpt lat="45.41143783382661" lon="11.272873616899606"><ele>29.0</ele><time>2026-04-04T11:58:27.999Z</time></trkpt><trkpt lat="45.41149606239005" lon="11.273175889030817"><ele>29.0</ele><time>2026-04-04T11:58:28.999Z</time></trkpt><trkpt lat="45.4115550029084" lon="11.27345917156097"><ele>29.0</ele><time>2026-04-04T11:58:29.999Z</time></trkpt><trkpt lat="45.41161572858179" lon="11.273734302898248"><ele>29.0</ele><time>2026-04-04T11:58:30.999Z</time></trkpt><trkpt lat="45.411669510368554" lon="11.274007208416657"><ele>29.666666666666664</ele><time>2026-04-04T11:58:31.999Z</time></trkpt><trkpt lat="45.41171530665031" lon="11.274269416853446"><ele>30.333333333333336</ele><time>2026-04-04T11:58:32.999Z</time></trkpt><trkpt lat="45.41175594940472" lon="11.274517143485578"><ele>31.0</ele><time>2026-04-04T11:58:33.999Z</time></trkpt><trkpt lat="45.41179429888487" lon="11.274742443704016"><ele>31.333333333333336</ele><time>2026-04-04T11:58:34.999Z</time></trkpt><trkpt lat="45.4118288291188" lon="11.274959698976513"><ele>31.666666666666664</ele><time>2026-04-04T11:58:35.999Z</time></trkpt><trkpt lat="45.41186283825333" lon="11.275175294212824"><ele>32.0</ele><time>2026-04-04T11:58:36.998Z</time></trkpt><trkpt lat="45.41189369234551" lon="11.27540573274945"><ele>31.666666666666664</ele><time>2026-04-04T11:58:37.998Z</time></trkpt><trkpt lat="45.41192416099355" lon="11.275651114853115"><ele>31.333333333333336</ele><time>2026-04-04T11:58:38.998Z</time></trkpt><trkpt lat="45.41195667142048" lon="11.275894081831844"><ele>31.0</ele><time>2026-04-04T11:58:39.998Z</time></trkpt><trkpt lat="45.41199173546065" lon="11.276127769012783"><ele>31.0</ele><time>2026-04-04T11:58:40.998Z</time></trkpt><trkpt lat="45.41202584424973" lon="11.276348955343668"><ele>31.0</ele><time>2026-04-04T11:58:41.998Z</time></trkpt><trkpt lat="45.41206019780537" lon="11.276577223698016"><ele>31.0</ele><time>2026-04-04T11:58:42.998Z</time></trkpt><trkpt lat="45.41209960961292" lon="11.27680521389032"><ele>31.0</ele><time>2026-04-04T11:58:43.998Z</time></trkpt><trkpt lat="45.412147129097875" lon="11.277024051813095"><ele>31.0</ele><time>2026-04-04T11:58:44.998Z</time></trkpt><trkpt lat="45.41219552178435" lon="11.27723373980436"><ele>31.0</ele><time>2026-04-04T11:58:45.998Z</time></trkpt><trkpt lat="45.41224882445601" lon="11.277438664351266"><ele>31.0</ele><time>2026-04-04T11:58:46.998Z</time></trkpt><trkpt lat="45.41229972457199" lon="11.27763890713688"><ele>31.0</ele><time>2026-04-04T11:58:47.998Z</time></trkpt><trkpt lat="45.41234696222136" lon="11.277837900539216"><ele>31.0</ele><time>2026-04-04T11:58:48.998Z</time></trkpt><trkpt lat="45.412389580707504" lon="11.278017635973299"><ele>31.0</ele><time>2026-04-04T11:58:49.998Z</time></trkpt><trkpt lat="45.41242899818598" lon="11.278184928523666"><ele>31.0</ele><time>2026-04-04T11:58:50.998Z</time></trkpt><trkpt lat="45.41246778891203" lon="11.27834602929955"><ele>31.0</ele><time>2026-04-04T11:58:51.998Z</time></trkpt><trkpt lat="45.41250265718127" lon="11.278501470035149"><ele>31.0</ele><time>2026-04-04T11:58:52.998Z</time></trkpt><trkpt lat="45.412532050618225" lon="11.278646927912927"><ele>31.0</ele><time>2026-04-04T11:58:53.998Z</time></trkpt><trkpt lat="45.41255339393629" lon="11.27877876152777"><ele>31.0</ele><time>2026-04-04T11:58:54.998Z</time></trkpt><trkpt lat="45.41256704811602" lon="11.27889307429396"><ele>31.000000000000004</ele><time>2026-04-04T11:58:55.998Z</time></trkpt><trkpt lat="45.41256755976873" lon="11.278998198541457"><ele>31.0</ele><time>2026-04-04T11:58:56.998Z</time></trkpt><trkpt lat="45.41255134057255" lon="11.279094584566874"><ele>31.0</ele><time>2026-04-04T11:58:57.998Z</time></trkpt><trkpt lat="45.41250454273859" lon="11.279195314465955"><ele>31.0</ele><time>2026-04-04T11:58:58.998Z</time></trkpt><trkpt lat="45.41244934113971" lon="11.279305074402805"><ele>31.000000000000004</ele><time>2026-04-04T11:58:59.998Z</time></trkpt><trkpt lat="45.412428040344" lon="11.27943647545866"><ele>31.0</ele><time>2026-04-04T11:59:00.998Z</time></trkpt><trkpt lat="45.41245963607832" lon="11.279568492094578"><ele>31.0</ele><time>2026-04-04T11:59:01.998Z</time></trkpt><trkpt lat="45.412528394387685" lon="11.27967776859017"><ele>31.0</ele><time>2026-04-04T11:59:02.998Z</time></trkpt><trkpt lat="45.41261486657343" lon="11.279776384476062"><ele>31.0</ele><time>2026-04-04T11:59:03.998Z</time></trkpt><trkpt lat="45.412688041075334" lon="11.279889283017242"><ele>31.0</ele><time>2026-04-04T11:59:04.998Z</time></trkpt><trkpt lat="45.41274810626818" lon="11.27999524401729"><ele>31.0</ele><time>2026-04-04T11:59:05.998Z</time></trkpt><trkpt lat="45.41281423843169" lon="11.280089705512916"><ele>31.000000000000004</ele><time>2026-04-04T11:59:06.998Z</time></trkpt><trkpt lat="45.412887011627255" lon="11.280164450473917"><ele>31.0</ele><time>2026-04-04T11:59:07.998Z</time></trkpt><trkpt lat="45.41295229138524" lon="11.280224547082854"><ele>31.0</ele><time>2026-04-04T11:59:09Z</time></trkpt><trkpt lat="45.41300611050361" lon="11.280293730366976"><ele>31.0</ele><time>2026-04-04T11:59:10Z</time></trkpt><trkpt lat="45.41304428722025" lon="11.280378586797152"><ele>31.000000000000004</ele><time>2026-04-04T11:59:11Z</time></trkpt><trkpt lat="45.41306587596826" lon="11.280489064230093"><ele>31.0</ele><time>2026-04-04T11:59:12Z</time></trkpt><trkpt lat="45.41308277136464" lon="11.280614530091587"><ele>31.200000000000003</ele><time>2026-04-04T11:59:13Z</time></trkpt><trkpt lat="45.413102814558854" lon="11.280749068859727"><ele>31.400000000000002</ele><time>2026-04-04T11:59:14Z</time></trkpt><trkpt lat="45.41311962276054" lon="11.280901786037322"><ele>31.6</ele><time>2026-04-04T11:59:15Z</time></trkpt><trkpt lat="45.413136071451824" lon="11.281062963306043"><ele>31.8</ele><time>2026-04-04T11:59:16Z</time></trkpt><trkpt lat="45.41315755329859" lon="11.28121883591544"><ele>32.0</ele><time>2026-04-04T11:59:17Z</time></trkpt><trkpt lat="45.41316811907767" lon="11.281377033069337"><ele>31.75</ele><time>2026-04-04T11:59:18Z</time></trkpt><trkpt lat="45.41318360522476" lon="11.281544083715564"><ele>31.5</ele><time>2026-04-04T11:59:19Z</time></trkpt><trkpt lat="45.41320492494787" lon="11.281718990283277"><ele>31.25</ele><time>2026-04-04T11:59:20Z</time></trkpt><trkpt lat="45.41322114360554" lon="11.281896567185486"><ele>31.0</ele><time>2026-04-04T11:59:21Z</time></trkpt><trkpt lat="45.41323972353762" lon="11.28208097864632"><ele>30.75</ele><time>2026-04-04T11:59:22Z</time></trkpt><trkpt lat="45.41326055355978" lon="11.282267581320946"><ele>30.5</ele><time>2026-04-04T11:59:23Z</time></trkpt><trkpt lat="45.41328253968691" lon="11.282457177729924"><ele>30.25</ele><time>2026-04-04T11:59:24Z</time></trkpt><trkpt lat="45.41331218588001" lon="11.282646963031603"><ele>30.0</ele><time>2026-04-04T11:59:25Z</time></trkpt><trkpt lat="45.413344862478496" lon="11.282838488245282"><ele>30.0</ele><time>2026-04-04T11:59:26Z</time></trkpt><trkpt lat="45.41337560514675" lon="11.283027351272091"><ele>30.0</ele><time>2026-04-04T11:59:27Z</time></trkpt><trkpt lat="45.41340339317727" lon="11.283211492419136"><ele>30.0</ele><time>2026-04-04T11:59:28Z</time></trkpt><trkpt lat="45.41343749237951" lon="11.283389161186753"><ele>30.0</ele><time>2026-04-04T11:59:29Z</time></trkpt><trkpt lat="45.41347115434962" lon="11.28356443595343"><ele>30.5</ele><time>2026-04-04T11:59:30Z</time></trkpt><trkpt lat="45.413505912848564" lon="11.28374033372216"><ele>31.0</ele><time>2026-04-04T11:59:31Z</time></trkpt><trkpt lat="45.413535976107084" lon="11.28392047715352"><ele>31.5</ele><time>2026-04-04T11:59:32Z</time></trkpt><trkpt lat="45.41358039698357" lon="11.284099702862429"><ele>32.0</ele><time>2026-04-04T11:59:33Z</time></trkpt><trkpt lat="45.41362375185071" lon="11.284283621568195"><ele>32.25</ele><time>2026-04-04T11:59:34Z</time></trkpt><trkpt lat="45.4136673644795" lon="11.284470191500663"><ele>32.5</ele><time>2026-04-04T11:59:35Z</time></trkpt><trkpt lat="45.413713791993736" lon="11.284653795536679"><ele>32.75</ele><time>2026-04-04T11:59:36Z</time></trkpt><trkpt lat="45.413764335337" lon="11.284843964999563"><ele>33.0</ele><time>2026-04-04T11:59:37Z</time></trkpt><trkpt lat="45.41381629532842" lon="11.285042748260143"><ele>32.5</ele><time>2026-04-04T11:59:38Z</time></trkpt><trkpt lat="45.413866377582316" lon="11.285245876642463"><ele>32.0</ele><time>2026-04-04T11:59:39Z</time></trkpt><trkpt lat="45.41391374527655" lon="11.285444989503278"><ele>31.5</ele><time>2026-04-04T11:59:40Z</time></trkpt><trkpt lat="45.41395856604241" lon="11.285638506959506"><ele>31.0</ele><time>2026-04-04T11:59:41Z</time></trkpt><trkpt lat="45.414003933163315" lon="11.285835606992153"><ele>31.0</ele><time>2026-04-04T11:59:42Z</time></trkpt><trkpt lat="45.41405415548811" lon="11.2860152561625"><ele>31.0</ele><time>2026-04-04T11:59:43Z</time></trkpt><trkpt lat="45.41411078822988" lon="11.286173543855474"><ele>31.0</ele><time>2026-04-04T11:59:44Z</time></trkpt><trkpt lat="45.414194915687325" lon="11.28631323766377"><ele>31.0</ele><time>2026-04-04T11:59:45Z</time></trkpt><trkpt lat="45.414289476472774" lon="11.28644685943889"><ele>31.0</ele><time>2026-04-04T11:59:46Z</time></trkpt><trkpt lat="45.414390208708426" lon="11.28655981682655"><ele>31.0</ele><time>2026-04-04T11:59:47Z</time></trkpt><trkpt lat="45.41448633672306" lon="11.286655983486224"><ele>31.0</ele><time>2026-04-04T11:59:47.999Z</time></trkpt><trkpt lat="45.41458331291242" lon="11.286739655736797"><ele>31.0</ele><time>2026-04-04T11:59:48.999Z</time></trkpt><trkpt lat="45.41469536486637" lon="11.286816294064433"><ele>30.75</ele><time>2026-04-04T11:59:49.999Z</time></trkpt><trkpt lat="45.41482583832588" lon="11.286871058189998"><ele>30.5</ele><time>2026-04-04T11:59:50.999Z</time></trkpt><trkpt lat="45.41496758353088" lon="11.286901644633364"><ele>30.25</ele><time>2026-04-04T11:59:51.999Z</time></trkpt><trkpt lat="45.41510959760126" lon="11.286916518218332"><ele>30.0</ele><time>2026-04-04T11:59:52.999Z</time></trkpt><trkpt lat="45.41525056553375" lon="11.28691864215039"><ele>30.0</ele><time>2026-04-04T11:59:53.999Z</time></trkpt><trkpt lat="45.41539584184942" lon="11.286914005671566"><ele>30.0</ele><time>2026-04-04T11:59:54.999Z</time></trkpt><trkpt lat="45.41554652044478" lon="11.286908647336114"><ele>30.0</ele><time>2026-04-04T11:59:55.999Z</time></trkpt><trkpt lat="45.415701854444706" lon="11.286901570037987"><ele>30.0</ele><time>2026-04-04T11:59:56.999Z</time></trkpt><trkpt lat="45.4158580598892" lon="11.286897702025218"><ele>30.0</ele><time>2026-04-04T11:59:57.999Z</time></trkpt><trkpt lat="45.416004791110346" lon="11.286895860875356"><ele>30.0</ele><time>2026-04-04T11:59:58.999Z</time></trkpt><trkpt lat="45.41614499275767" lon="11.286895497090079"><ele>30.0</ele><time>2026-04-04T11:59:59.999Z</time></trkpt><trkpt lat="45.416275224594806" lon="11.286892574132166"><ele>30.25</ele><time>2026-04-04T12:00:00.999Z</time></trkpt><trkpt lat="45.41640138574831" lon="11.28689292650918"><ele>30.5</ele><time>2026-04-04T12:00:01.999Z</time></trkpt><trkpt lat="45.416534040791745" lon="11.28688943250853"><ele>30.75</ele><time>2026-04-04T12:00:02.999Z</time></trkpt><trkpt lat="45.41667089122188" lon="11.286885394220722"><ele>31.0</ele><time>2026-04-04T12:00:03.999Z</time></trkpt><trkpt lat="45.416807522251695" lon="11.286882781376413"><ele>31.0</ele><time>2026-04-04T12:00:04.999Z</time></trkpt><trkpt lat="45.41694064806703" lon="11.286881092380641"><ele>31.0</ele><time>2026-04-04T12:00:05.999Z</time></trkpt><trkpt lat="45.41707709279556" lon="11.286878733251358"><ele>31.0</ele><time>2026-04-04T12:00:06.999Z</time></trkpt><trkpt lat="45.417213536156" lon="11.28687257462931"><ele>31.0</ele><time>2026-04-04T12:00:07.999Z</time></trkpt><trkpt lat="45.41734930748374" lon="11.28686992518685"><ele>31.25</ele><time>2026-04-04T12:00:08.999Z</time></trkpt><trkpt lat="45.417486613345396" lon="11.286868472303713"><ele>31.5</ele><time>2026-04-04T12:00:09.999Z</time></trkpt><trkpt lat="45.41762425699569" lon="11.28686566421981"><ele>31.75</ele><time>2026-04-04T12:00:10.999Z</time></trkpt><trkpt lat="45.4177618966182" lon="11.286867816011213"><ele>32.0</ele><time>2026-04-04T12:00:11.999Z</time></trkpt><trkpt lat="45.417902204204296" lon="11.286862937667653"><ele>32.25</ele><time>2026-04-04T12:00:12.999Z</time></trkpt><trkpt lat="45.418042995272366" lon="11.2868583920824"><ele>32.5</ele><time>2026-04-04T12:00:13.999Z</time></trkpt><trkpt lat="45.41818798136818" lon="11.286857090723572"><ele>32.75</ele><time>2026-04-04T12:00:14.999Z</time></trkpt><trkpt lat="45.41833552526141" lon="11.286858321455716"><ele>33.0</ele><time>2026-04-04T12:00:15.999Z</time></trkpt><trkpt lat="45.41847715221966" lon="11.286848438505448"><ele>33.0</ele><time>2026-04-04T12:00:16.999Z</time></trkpt><trkpt lat="45.41861317913028" lon="11.286843218644213"><ele>33.0</ele><time>2026-04-04T12:00:17.999Z</time></trkpt><trkpt lat="45.41874895600608" lon="11.286837745285956"><ele>33.0</ele><time>2026-04-04T12:00:18.999Z</time></trkpt><trkpt lat="45.418885675650046" lon="11.286837444378918"><ele>33.0</ele><time>2026-04-04T12:00:19.999Z</time></trkpt><trkpt lat="45.41901943349683" lon="11.286847796160549"><ele>32.75</ele><time>2026-04-04T12:00:20.999Z</time></trkpt><trkpt lat="45.419149666895194" lon="11.286868546824293"><ele>32.5</ele><time>2026-04-04T12:00:21.999Z</time></trkpt><trkpt lat="45.41928044441742" lon="11.286896741738381"><ele>32.25</ele><time>2026-04-04T12:00:22.999Z</time></trkpt><trkpt lat="45.419411296268436" lon="11.28692963200633"><ele>32.0</ele><time>2026-04-04T12:00:23.999Z</time></trkpt><trkpt lat="45.41954327748266" lon="11.286965747073056"><ele>32.0</ele><time>2026-04-04T12:00:24.999Z</time></trkpt><trkpt lat="45.41967806614274" lon="11.28699952075729"><ele>32.0</ele><time>2026-04-04T12:00:25.999Z</time></trkpt><trkpt lat="45.41981586555622" lon="11.287030066538277"><ele>32.0</ele><time>2026-04-04T12:00:26.999Z</time></trkpt><trkpt lat="45.41994923968622" lon="11.287063412554954"><ele>32.0</ele><time>2026-04-04T12:00:27.999Z</time></trkpt><trkpt lat="45.420077104932815" lon="11.287101762815624"><ele>32.0</ele><time>2026-04-04T12:00:28.999Z</time></trkpt><trkpt lat="45.42020055171939" lon="11.287135357243056"><ele>32.0</ele><time>2026-04-04T12:00:29.999Z</time></trkpt><trkpt lat="45.42032320762864" lon="11.287168734077898"><ele>32.0</ele><time>2026-04-04T12:00:30.999Z</time></trkpt><trkpt lat="45.42044150700018" lon="11.28719724886042"><ele>32.0</ele><time>2026-04-04T12:00:31.999Z</time></trkpt><trkpt lat="45.42055111482257" lon="11.287228270555776"><ele>32.2</ele><time>2026-04-04T12:00:32.999Z</time></trkpt><trkpt lat="45.42065266667819" lon="11.287256014268012"><ele>32.400000000000006</ele><time>2026-04-04T12:00:33.999Z</time></trkpt><trkpt lat="45.42074658041488" lon="11.287281371974116"><ele>32.599999999999994</ele><time>2026-04-04T12:00:34.999Z</time></trkpt><trkpt lat="45.42083707451833" lon="11.287305947849367"><ele>32.8</ele><time>2026-04-04T12:00:35.999Z</time></trkpt><trkpt lat="45.42092016708945" lon="11.287328838659267"><ele>33.0</ele><time>2026-04-04T12:00:36.999Z</time></trkpt><trkpt lat="45.421000425831636" lon="11.287353558779747"><ele>33.0</ele><time>2026-04-04T12:00:37.999Z</time></trkpt><trkpt lat="45.421090255420786" lon="11.287383393053766"><ele>33.0</ele><time>2026-04-04T12:00:38.999Z</time></trkpt><trkpt lat="45.42118878050098" lon="11.287419814216408"><ele>33.0</ele><time>2026-04-04T12:00:39.999Z</time></trkpt><trkpt lat="45.42129050025443" lon="11.287477079044336"><ele>33.0</ele><time>2026-04-04T12:00:40.999Z</time></trkpt><trkpt lat="45.42139218499534" lon="11.287552050934607"><ele>33.0</ele><time>2026-04-04T12:00:41.999Z</time></trkpt><trkpt lat="45.42149589233611" lon="11.28762983707408"><ele>33.75</ele><time>2026-04-04T12:00:42.998Z</time></trkpt><trkpt lat="45.421596814486655" lon="11.287718346780187"><ele>34.5</ele><time>2026-04-04T12:00:43.998Z</time></trkpt><trkpt lat="45.42170985574095" lon="11.287813303135048"><ele>35.25</ele><time>2026-04-04T12:00:44.998Z</time></trkpt><trkpt lat="45.42182842087556" lon="11.287908986735191"><ele>36.0</ele><time>2026-04-04T12:00:45.998Z</time></trkpt><trkpt lat="45.421948497472904" lon="11.288006563951129"><ele>36.25</ele><time>2026-04-04T12:00:46.998Z</time></trkpt><trkpt lat="45.42206680854233" lon="11.288094125682639"><ele>36.5</ele><time>2026-04-04T12:00:47.998Z</time></trkpt><trkpt lat="45.42218570090954" lon="11.288185861505964"><ele>36.75</ele><time>2026-04-04T12:00:48.998Z</time></trkpt><trkpt lat="45.42231025402936" lon="11.288271470699776"><ele>37.0</ele><time>2026-04-04T12:00:49.998Z</time></trkpt><trkpt lat="45.422436289115566" lon="11.288361555568727"><ele>36.5</ele><time>2026-04-04T12:00:50.998Z</time></trkpt><trkpt lat="45.42255957191709" lon="11.288447203565033"><ele>36.0</ele><time>2026-04-04T12:00:51.998Z</time></trkpt><trkpt lat="45.42268018302889" lon="11.288529731679896"><ele>35.5</ele><time>2026-04-04T12:00:52.998Z</time></trkpt><trkpt lat="45.42280447987006" lon="11.288622481640886"><ele>35.0</ele><time>2026-04-04T12:00:53.998Z</time></trkpt><trkpt lat="45.42292471475848" lon="11.28870395452493"><ele>34.75</ele><time>2026-04-04T12:00:54.998Z</time></trkpt><trkpt lat="45.42304469859294" lon="11.288791416787832"><ele>34.5</ele><time>2026-04-04T12:00:55.998Z</time></trkpt><trkpt lat="45.42316429953779" lon="11.28887290669287"><ele>34.25</ele><time>2026-04-04T12:00:56.998Z</time></trkpt><trkpt lat="45.423279210764406" lon="11.288956599264676"><ele>34.0</ele><time>2026-04-04T12:00:57.998Z</time></trkpt><trkpt lat="45.423398915982744" lon="11.289044457434407"><ele>33.75</ele><time>2026-04-04T12:00:58.998Z</time></trkpt><trkpt lat="45.4235244505428" lon="11.289132638668349"><ele>33.5</ele><time>2026-04-04T12:00:59.998Z</time></trkpt><trkpt lat="45.42365057981243" lon="11.289217674943359"><ele>33.25</ele><time>2026-04-04T12:01:00.998Z</time></trkpt><trkpt lat="45.42377727004341" lon="11.289311901787226"><ele>33.0</ele><time>2026-04-04T12:01:01.998Z</time></trkpt><trkpt lat="45.42390893764095" lon="11.289403106922194"><ele>32.666666666666664</ele><time>2026-04-04T12:01:02.998Z</time></trkpt><trkpt lat="45.42404367441207" lon="11.28949828166346"><ele>32.33333333333333</ele><time>2026-04-04T12:01:03.998Z</time></trkpt><trkpt lat="45.424184847053205" lon="11.289595189072552"><ele>32.0</ele><time>2026-04-04T12:01:04.998Z</time></trkpt><trkpt lat="45.42433078296784" lon="11.289697732460073"><ele>32.33333333333333</ele><time>2026-04-04T12:01:05.998Z</time></trkpt><trkpt lat="45.424486312518155" lon="11.289803442198279"><ele>32.666666666666664</ele><time>2026-04-04T12:01:06.998Z</time></trkpt><trkpt lat="45.424672706808266" lon="11.289917412637742"><ele>33.0</ele><time>2026-04-04T12:01:07.998Z</time></trkpt><trkpt lat="45.42488265463463" lon="11.290044289612784"><ele>34.0</ele><time>2026-04-04T12:01:08.998Z</time></trkpt><trkpt lat="45.42508701388458" lon="11.290224047955117"><ele>35.0</ele><time>2026-04-04T12:01:09.998Z</time></trkpt><trkpt lat="45.42529758325128" lon="11.290344894223479"><ele>35.0</ele><time>2026-04-04T12:01:10.998Z</time></trkpt><trkpt lat="45.42546743877434" lon="11.29048078745681"><ele>35.0</ele><time>2026-04-04T12:01:11.998Z</time></trkpt><trkpt lat="45.42562803915668" lon="11.290599878229465"><ele>35.0</ele><time>2026-04-04T12:01:12.998Z</time></trkpt><trkpt lat="45.42577951150508" lon="11.290695721470797"><ele>34.5</ele><time>2026-04-04T12:01:13.998Z</time></trkpt><trkpt lat="45.42591844100292" lon="11.290793799240523"><ele>34.0</ele><time>2026-04-04T12:01:15Z</time></trkpt><trkpt lat="45.42604780824411" lon="11.290881868799499"><ele>33.5</ele><time>2026-04-04T12:01:16Z</time></trkpt><trkpt lat="45.42617974469594" lon="11.290974761920516"><ele>33.0</ele><time>2026-04-04T12:01:17Z</time></trkpt><trkpt lat="45.4263076332268" lon="11.291063659288763"><ele>33.333333333333336</ele><time>2026-04-04T12:01:18Z</time></trkpt><trkpt lat="45.426438955071724" lon="11.291162803374243"><ele>33.66666666666667</ele><time>2026-04-04T12:01:19Z</time></trkpt><trkpt lat="45.42657547204343" lon="11.291255340360708"><ele>34.0</ele><time>2026-04-04T12:01:20Z</time></trkpt><trkpt lat="45.426713532974226" lon="11.291350261619828"><ele>33.66666666666667</ele><time>2026-04-04T12:01:21Z</time></trkpt><trkpt lat="45.426855505144154" lon="11.291454102418307"><ele>33.333333333333336</ele><time>2026-04-04T12:01:22Z</time></trkpt><trkpt lat="45.426996546674516" lon="11.291556353570533"><ele>33.0</ele><time>2026-04-04T12:01:23Z</time></trkpt><trkpt lat="45.42713129074751" lon="11.291659546396634"><ele>33.25</ele><time>2026-04-04T12:01:24Z</time></trkpt><trkpt lat="45.42725334336134" lon="11.29176222923298"><ele>33.5</ele><time>2026-04-04T12:01:25Z</time></trkpt><trkpt lat="45.4273594540309" lon="11.291871198432096"><ele>33.75</ele><time>2026-04-04T12:01:26Z</time></trkpt><trkpt lat="45.42745355658509" lon="11.291979188290169"><ele>34.0</ele><time>2026-04-04T12:01:27Z</time></trkpt><trkpt lat="45.42754655913389" lon="11.292083688055847"><ele>34.0</ele><time>2026-04-04T12:01:28Z</time></trkpt><trkpt lat="45.427643661504305" lon="11.292191435525702"><ele>34.0</ele><time>2026-04-04T12:01:29Z</time></trkpt><trkpt lat="45.427745991463176" lon="11.292303305045456"><ele>34.0</ele><time>2026-04-04T12:01:30Z</time></trkpt><trkpt lat="45.42784936877888" lon="11.292419232845107"><ele>34.0</ele><time>2026-04-04T12:01:31Z</time></trkpt><trkpt lat="45.42795451059341" lon="11.292534491974783"><ele>34.0</ele><time>2026-04-04T12:01:32Z</time></trkpt><trkpt lat="45.42806054945379" lon="11.292650713651124"><ele>34.0</ele><time>2026-04-04T12:01:33Z</time></trkpt><trkpt lat="45.42816827699791" lon="11.292775868070205"><ele>34.0</ele><time>2026-04-04T12:01:34Z</time></trkpt><trkpt lat="45.428280520213185" lon="11.29289771282624"><ele>34.0</ele><time>2026-04-04T12:01:35Z</time></trkpt><trkpt lat="45.42839441019769" lon="11.293023970797492"><ele>34.0</ele><time>2026-04-04T12:01:36Z</time></trkpt><trkpt lat="45.428511040479165" lon="11.293148672080243"><ele>34.0</ele><time>2026-04-04T12:01:37Z</time></trkpt><trkpt lat="45.42862789993963" lon="11.293271616807635"><ele>34.0</ele><time>2026-04-04T12:01:38Z</time></trkpt><trkpt lat="45.42874285072085" lon="11.293394428252057"><ele>34.0</ele><time>2026-04-04T12:01:39Z</time></trkpt><trkpt lat="45.42885786975764" lon="11.293518744804214"><ele>34.25</ele><time>2026-04-04T12:01:40Z</time></trkpt><trkpt lat="45.42897067723894" lon="11.29364148866628"><ele>34.5</ele><time>2026-04-04T12:01:41Z</time></trkpt><trkpt lat="45.4290832838822" lon="11.293766584625331"><ele>34.75</ele><time>2026-04-04T12:01:42Z</time></trkpt><trkpt lat="45.429194046883644" lon="11.29389195749586"><ele>35.0</ele><time>2026-04-04T12:01:43Z</time></trkpt><trkpt lat="45.429292715914585" lon="11.294019981140755"><ele>34.75</ele><time>2026-04-04T12:01:44Z</time></trkpt><trkpt lat="45.42939587857511" lon="11.294126925407191"><ele>34.5</ele><time>2026-04-04T12:01:45Z</time></trkpt><trkpt lat="45.429499104005224" lon="11.294244259601788"><ele>34.25</ele><time>2026-04-04T12:01:46Z</time></trkpt><trkpt lat="45.429596451327996" lon="11.2943604326858"><ele>34.0</ele><time>2026-04-04T12:01:47Z</time></trkpt><trkpt lat="45.42969237351117" lon="11.294476488800917"><ele>34.0</ele><time>2026-04-04T12:01:48Z</time></trkpt><trkpt lat="45.4297986451985" lon="11.294595094162332"><ele>34.0</ele><time>2026-04-04T12:01:49Z</time></trkpt><trkpt lat="45.42990190889216" lon="11.294713034730888"><ele>34.0</ele><time>2026-04-04T12:01:50Z</time></trkpt><trkpt lat="45.4300043263222" lon="11.294826801796688"><ele>34.0</ele><time>2026-04-04T12:01:51Z</time></trkpt><trkpt lat="45.43010786518635" lon="11.294937970817633"><ele>33.66666666666667</ele><time>2026-04-04T12:01:52Z</time></trkpt><trkpt lat="45.4302291052499" lon="11.295059945446067"><ele>33.333333333333336</ele><time>2026-04-04T12:01:53Z</time></trkpt><trkpt lat="45.43037704202554" lon="11.295193309153083"><ele>33.0</ele><time>2026-04-04T12:01:53.999Z</time></trkpt><trkpt lat="45.430558488862445" lon="11.295345496504918"><ele>33.0</ele><time>2026-04-04T12:01:54.999Z</time></trkpt><trkpt lat="45.43076565456764" lon="11.295532970181977"><ele>33.0</ele><time>2026-04-04T12:01:55.999Z</time></trkpt><trkpt lat="45.4309664671212" lon="11.295717337600752"><ele>33.333333333333336</ele><time>2026-04-04T12:01:56.999Z</time></trkpt><trkpt lat="45.4311503102366" lon="11.295899890071958"><ele>33.66666666666667</ele><time>2026-04-04T12:01:57.999Z</time></trkpt><trkpt lat="45.4313190122528" lon="11.296028083399381"><ele>34.0</ele><time>2026-04-04T12:01:58.999Z</time></trkpt><trkpt lat="45.43147601007396" lon="11.296151145258722"><ele>34.0</ele><time>2026-04-04T12:01:59.999Z</time></trkpt><trkpt lat="45.43164309551358" lon="11.296284274174441"><ele>34.0</ele><time>2026-04-04T12:02:00.999Z</time></trkpt><trkpt lat="45.431855825637264" lon="11.296439708418623"><ele>34.0</ele><time>2026-04-04T12:02:01.999Z</time></trkpt><trkpt lat="45.432073386245186" lon="11.296646294860203"><ele>34.0</ele><time>2026-04-04T12:02:02.999Z</time></trkpt><trkpt lat="45.43231896972687" lon="11.29682559059959"><ele>34.0</ele><time>2026-04-04T12:02:03.999Z</time></trkpt><trkpt lat="45.43258641906796" lon="11.29705158400546"><ele>34.0</ele><time>2026-04-04T12:02:04.999Z</time></trkpt><trkpt lat="45.43284504122178" lon="11.29729212843899"><ele>34.0</ele><time>2026-04-04T12:02:05.999Z</time></trkpt><trkpt lat="45.4330764552386" lon="11.297487399993738"><ele>33.5</ele><time>2026-04-04T12:02:06.999Z</time></trkpt><trkpt lat="45.433282753846555" lon="11.29766051167546"><ele>33.0</ele><time>2026-04-04T12:02:07.999Z</time></trkpt><trkpt lat="45.43346247101776" lon="11.29782683729641"><ele>33.0</ele><time>2026-04-04T12:02:08.999Z</time></trkpt><trkpt lat="45.43363622406632" lon="11.297968149546435"><ele>33.0</ele><time>2026-04-04T12:02:09.999Z</time></trkpt><trkpt lat="45.433801000229565" lon="11.298104054794305"><ele>33.0</ele><time>2026-04-04T12:02:10.999Z</time></trkpt><trkpt lat="45.43395897785732" lon="11.29823725920709"><ele>33.0</ele><time>2026-04-04T12:02:11.999Z</time></trkpt><trkpt lat="45.43411503021776" lon="11.298371945173896"><ele>33.0</ele><time>2026-04-04T12:02:12.999Z</time></trkpt><trkpt lat="45.43425965018762" lon="11.298489773490152"><ele>33.0</ele><time>2026-04-04T12:02:13.999Z</time></trkpt><trkpt lat="45.43440006960376" lon="11.29860230006769"><ele>33.0</ele><time>2026-04-04T12:02:14.999Z</time></trkpt><trkpt lat="45.43452810964952" lon="11.29871087988638"><ele>33.0</ele><time>2026-04-04T12:02:15.999Z</time></trkpt><trkpt lat="45.43465286660853" lon="11.29882278181391"><ele>33.0</ele><time>2026-04-04T12:02:16.999Z</time></trkpt><trkpt lat="45.43478610109214" lon="11.298933302546088"><ele>33.666666666666664</ele><time>2026-04-04T12:02:17.999Z</time></trkpt><trkpt lat="45.43492777805018" lon="11.299053163853381"><ele>34.33333333333333</ele><time>2026-04-04T12:02:18.999Z</time></trkpt><trkpt lat="45.435075434609566" lon="11.299168473940169"><ele>35.0</ele><time>2026-04-04T12:02:19.999Z</time></trkpt><trkpt lat="45.43522174021545" lon="11.299281655418612"><ele>35.0</ele><time>2026-04-04T12:02:20.999Z</time></trkpt><trkpt lat="45.43536675430698" lon="11.299382137239995"><ele>35.0</ele><time>2026-04-04T12:02:21.999Z</time></trkpt><trkpt lat="45.43551395581628" lon="11.299487659273865"><ele>35.0</ele><time>2026-04-04T12:02:22.999Z</time></trkpt><trkpt lat="45.43567326193792" lon="11.299588683953033"><ele>35.0</ele><time>2026-04-04T12:02:23.999Z</time></trkpt><trkpt lat="45.435836280853" lon="11.299685223814556"><ele>35.0</ele><time>2026-04-04T12:02:24.999Z</time></trkpt><trkpt lat="45.436001388303644" lon="11.2997778140541"><ele>35.0</ele><time>2026-04-04T12:02:25.999Z</time></trkpt><trkpt lat="45.43616687460681" lon="11.29986187517088"><ele>35.33333333333333</ele><time>2026-04-04T12:02:26.999Z</time></trkpt><trkpt lat="45.436331012928456" lon="11.299934849476312"><ele>35.666666666666664</ele><time>2026-04-04T12:02:27.999Z</time></trkpt><trkpt lat="45.43648960669212" lon="11.30000809863274"><ele>36.0</ele><time>2026-04-04T12:02:28.999Z</time></trkpt><trkpt lat="45.43664515956284" lon="11.30007430461304"><ele>36.0</ele><time>2026-04-04T12:02:29.999Z</time></trkpt><trkpt lat="45.436799641413536" lon="11.300139073737107"><ele>36.0</ele><time>2026-04-04T12:02:30.999Z</time></trkpt><trkpt lat="45.4369538560724" lon="11.3002062429674"><ele>36.0</ele><time>2026-04-04T12:02:31.999Z</time></trkpt><trkpt lat="45.437111239324324" lon="11.300272646454687"><ele>36.333333333333336</ele><time>2026-04-04T12:02:32.999Z</time></trkpt><trkpt lat="45.43727487916518" lon="11.300324141729497"><ele>36.66666666666667</ele><time>2026-04-04T12:02:33.999Z</time></trkpt><trkpt lat="45.43744725791694" lon="11.300357374189074"><ele>37.0</ele><time>2026-04-04T12:02:34.999Z</time></trkpt><trkpt lat="45.4376231956353" lon="11.300350199624702"><ele>37.0</ele><time>2026-04-04T12:02:35.999Z</time></trkpt><trkpt lat="45.43778829401162" lon="11.3003296361078"><ele>37.0</ele><time>2026-04-04T12:02:36.999Z</time></trkpt><trkpt lat="45.43794457824833" lon="11.300291955018068"><ele>37.0</ele><time>2026-04-04T12:02:37.999Z</time></trkpt><trkpt lat="45.43809994366154" lon="11.30024567651913"><ele>37.0</ele><time>2026-04-04T12:02:38.999Z</time></trkpt><trkpt lat="45.4382598421259" lon="11.3001919102705"><ele>37.0</ele><time>2026-04-04T12:02:39.999Z</time></trkpt><trkpt lat="45.438418692864964" lon="11.300142766877407"><ele>37.0</ele><time>2026-04-04T12:02:40.999Z</time></trkpt><trkpt lat="45.43858767265773" lon="11.300096349063988"><ele>37.0</ele><time>2026-04-04T12:02:41.999Z</time></trkpt><trkpt lat="45.4387546561677" lon="11.300062679866702"><ele>37.0</ele><time>2026-04-04T12:02:42.999Z</time></trkpt><trkpt lat="45.43892117217515" lon="11.30004357686119"><ele>37.0</ele><time>2026-04-04T12:02:43.999Z</time></trkpt><trkpt lat="45.43909041983169" lon="11.300042721465896"><ele>37.0</ele><time>2026-04-04T12:02:44.999Z</time></trkpt><trkpt lat="45.439267740767185" lon="11.30005040476167"><ele>37.0</ele><time>2026-04-04T12:02:45.999Z</time></trkpt><trkpt lat="45.43946457606183" lon="11.300068635466182"><ele>37.0</ele><time>2026-04-04T12:02:46.999Z</time></trkpt><trkpt lat="45.43968645597783" lon="11.30011019289366"><ele>37.0</ele><time>2026-04-04T12:02:47.999Z</time></trkpt><trkpt lat="45.439918582854936" lon="11.300194559808622"><ele>37.0</ele><time>2026-04-04T12:02:48.998Z</time></trkpt><trkpt lat="45.44016636667071" lon="11.300245745538406"><ele>37.0</ele><time>2026-04-04T12:02:49.998Z</time></trkpt><trkpt lat="45.44040731748073" lon="11.300330425502812"><ele>37.0</ele><time>2026-04-04T12:02:50.998Z</time></trkpt><trkpt lat="45.44065175594637" lon="11.300419053560923"><ele>36.5</ele><time>2026-04-04T12:02:51.998Z</time></trkpt><trkpt lat="45.44089098243227" lon="11.300500356135732"><ele>36.0</ele><time>2026-04-04T12:02:52.998Z</time></trkpt><trkpt lat="45.44111614197329" lon="11.300575245485511"><ele>36.666666666666664</ele><time>2026-04-04T12:02:53.998Z</time></trkpt><trkpt lat="45.44131957258904" lon="11.300643773472801"><ele>37.33333333333333</ele><time>2026-04-04T12:02:54.998Z</time></trkpt><trkpt lat="45.44151125233133" lon="11.300707644239205"><ele>38.0</ele><time>2026-04-04T12:02:55.998Z</time></trkpt><trkpt lat="45.44169464878562" lon="11.300767088459875"><ele>38.0</ele><time>2026-04-04T12:02:56.998Z</time></trkpt><trkpt lat="45.441876932526306" lon="11.300823454470738"><ele>38.0</ele><time>2026-04-04T12:02:57.998Z</time></trkpt><trkpt lat="45.44206050486648" lon="11.300878421759593"><ele>38.0</ele><time>2026-04-04T12:02:58.998Z</time></trkpt><trkpt lat="45.442235591093045" lon="11.300929334444465"><ele>38.33333333333333</ele><time>2026-04-04T12:02:59.998Z</time></trkpt><trkpt lat="45.44240774441292" lon="11.300984547353034"><ele>38.666666666666664</ele><time>2026-04-04T12:03:00.998Z</time></trkpt><trkpt lat="45.442588281254096" lon="11.301033883758581"><ele>39.0</ele><time>2026-04-04T12:03:01.998Z</time></trkpt><trkpt lat="45.442778783529604" lon="11.301081948701748"><ele>39.333333333333336</ele><time>2026-04-04T12:03:02.998Z</time></trkpt><trkpt lat="45.44296953336886" lon="11.301124095051271"><ele>39.66666666666667</ele><time>2026-04-04T12:03:03.998Z</time></trkpt><trkpt lat="45.443164176962156" lon="11.301168150887705"><ele>40.0</ele><time>2026-04-04T12:03:04.998Z</time></trkpt><trkpt lat="45.44336443322141" lon="11.301217264211468"><ele>40.0</ele><time>2026-04-04T12:03:05.998Z</time></trkpt><trkpt lat="45.44355887769985" lon="11.301265527026883"><ele>40.0</ele><time>2026-04-04T12:03:06.998Z</time></trkpt><trkpt lat="45.44374530415648" lon="11.301312143441393"><ele>40.0</ele><time>2026-04-04T12:03:07.998Z</time></trkpt><trkpt lat="45.44392379892523" lon="11.301366540549143"><ele>39.0</ele><time>2026-04-04T12:03:08.998Z</time></trkpt><trkpt lat="45.44409432606158" lon="11.301417579510307"><ele>38.0</ele><time>2026-04-04T12:03:09.998Z</time></trkpt><trkpt lat="45.444268266372895" lon="11.301465010499955"><ele>37.0</ele><time>2026-04-04T12:03:10.998Z</time></trkpt><trkpt lat="45.444443160194396" lon="11.30151154147071"><ele>37.0</ele><time>2026-04-04T12:03:11.998Z</time></trkpt><trkpt lat="45.44461574541444" lon="11.301558465106925"><ele>37.0</ele><time>2026-04-04T12:03:12.998Z</time></trkpt><trkpt lat="45.44478488390496" lon="11.301608921985382"><ele>37.0</ele><time>2026-04-04T12:03:13.998Z</time></trkpt><trkpt lat="45.4449420021635" lon="11.301660430183553"><ele>37.333333333333336</ele><time>2026-04-04T12:03:14.998Z</time></trkpt><trkpt lat="45.44509493951792" lon="11.301712076300799"><ele>37.666666666666664</ele><time>2026-04-04T12:03:15.998Z</time></trkpt><trkpt lat="45.445244719838854" lon="11.30175677467518"><ele>38.0</ele><time>2026-04-04T12:03:16.998Z</time></trkpt><trkpt lat="45.44540229607114" lon="11.301804775009304"><ele>38.33333333333333</ele><time>2026-04-04T12:03:17.998Z</time></trkpt><trkpt lat="45.44556573579894" lon="11.301851695000042"><ele>38.666666666666664</ele><time>2026-04-04T12:03:18.998Z</time></trkpt><trkpt lat="45.445734124697275" lon="11.301898584164327"><ele>39.0</ele><time>2026-04-04T12:03:19.998Z</time></trkpt><trkpt lat="45.44589267387094" lon="11.301943199120299"><ele>39.0</ele><time>2026-04-04T12:03:21Z</time></trkpt><trkpt lat="45.446043249442454" lon="11.301990277893694"><ele>39.0</ele><time>2026-04-04T12:03:22Z</time></trkpt><trkpt lat="45.44619724505474" lon="11.302040171022629"><ele>39.0</ele><time>2026-04-04T12:03:23Z</time></trkpt><trkpt lat="45.44635491318252" lon="11.302088216644897"><ele>38.333333333333336</ele><time>2026-04-04T12:03:24Z</time></trkpt><trkpt lat="45.44651410213401" lon="11.302135693611467"><ele>37.66666666666667</ele><time>2026-04-04T12:03:25Z</time></trkpt><trkpt lat="45.44667012368178" lon="11.302181123171207"><ele>37.0</ele><time>2026-04-04T12:03:26Z</time></trkpt><trkpt lat="45.44682144817693" lon="11.302228701927225"><ele>37.0</ele><time>2026-04-04T12:03:27Z</time></trkpt><trkpt lat="45.44697732394511" lon="11.302278029524034"><ele>37.0</ele><time>2026-04-04T12:03:28Z</time></trkpt><trkpt lat="45.447136106738675" lon="11.302323158522558"><ele>37.0</ele><time>2026-04-04T12:03:29Z</time></trkpt><trkpt lat="45.44729582438142" lon="11.302383860437887"><ele>38.0</ele><time>2026-04-04T12:03:30Z</time></trkpt><trkpt lat="45.44745151497884" lon="11.30241985185413"><ele>39.0</ele><time>2026-04-04T12:03:31Z</time></trkpt><trkpt lat="45.44760176333922" lon="11.302467691133165"><ele>40.0</ele><time>2026-04-04T12:03:32Z</time></trkpt><trkpt lat="45.447743875374535" lon="11.302510667887775"><ele>40.0</ele><time>2026-04-04T12:03:33Z</time></trkpt><trkpt lat="45.44789157920039" lon="11.302556505603906"><ele>40.0</ele><time>2026-04-04T12:03:34Z</time></trkpt><trkpt lat="45.44803384577413" lon="11.302595882616442"><ele>40.0</ele><time>2026-04-04T12:03:35Z</time></trkpt><trkpt lat="45.44816993266596" lon="11.302637690898493"><ele>40.0</ele><time>2026-04-04T12:03:36Z</time></trkpt><trkpt lat="45.448312088176195" lon="11.302670669346346"><ele>40.333333333333336</ele><time>2026-04-04T12:03:37Z</time></trkpt><trkpt lat="45.448461458756874" lon="11.30271425875848"><ele>40.666666666666664</ele><time>2026-04-04T12:03:38Z</time></trkpt><trkpt lat="45.448609116012264" lon="11.302757819692765"><ele>41.0</ele><time>2026-04-04T12:03:39Z</time></trkpt><trkpt lat="45.448753507997715" lon="11.302798820104586"><ele>41.0</ele><time>2026-04-04T12:03:40Z</time></trkpt><trkpt lat="45.44888966225077" lon="11.302839900663555"><ele>41.0</ele><time>2026-04-04T12:03:41Z</time></trkpt><trkpt lat="45.44902628747428" lon="11.302882092059768"><ele>41.0</ele><time>2026-04-04T12:03:42Z</time></trkpt><trkpt lat="45.44916570371479" lon="11.302924841522202"><ele>41.0</ele><time>2026-04-04T12:03:43Z</time></trkpt><trkpt lat="45.449311424132915" lon="11.30296568724488"><ele>41.0</ele><time>2026-04-04T12:03:44Z</time></trkpt><trkpt lat="45.449452281937845" lon="11.303005668518967"><ele>41.0</ele><time>2026-04-04T12:03:45Z</time></trkpt><trkpt lat="45.44958608091303" lon="11.303046732806832"><ele>41.0</ele><time>2026-04-04T12:03:46Z</time></trkpt><trkpt lat="45.44971650784794" lon="11.303083842474596"><ele>41.0</ele><time>2026-04-04T12:03:47Z</time></trkpt><trkpt lat="45.4498506748391" lon="11.303114116268729"><ele>41.0</ele><time>2026-04-04T12:03:48Z</time></trkpt><trkpt lat="45.44999194275235" lon="11.303154551403784"><ele>41.0</ele><time>2026-04-04T12:03:49Z</time></trkpt><trkpt lat="45.450129992688616" lon="11.303194772880877"><ele>41.0</ele><time>2026-04-04T12:03:50Z</time></trkpt><trkpt lat="45.450260420281445" lon="11.303234705828798"><ele>41.0</ele><time>2026-04-04T12:03:51Z</time></trkpt><trkpt lat="45.45038707821391" lon="11.303271528994916"><ele>40.666666666666664</ele><time>2026-04-04T12:03:52Z</time></trkpt><trkpt lat="45.450522169321125" lon="11.303308786774965"><ele>40.333333333333336</ele><time>2026-04-04T12:03:53Z</time></trkpt><trkpt lat="45.450672605618244" lon="11.303339747404921"><ele>40.0</ele><time>2026-04-04T12:03:54Z</time></trkpt><trkpt lat="45.45083217524926" lon="11.303361356703906"><ele>40.0</ele><time>2026-04-04T12:03:55Z</time></trkpt><trkpt lat="45.45098923603069" lon="11.303362423013604"><ele>40.0</ele><time>2026-04-04T12:03:56Z</time></trkpt><trkpt lat="45.45114156095087" lon="11.30334764595587"><ele>40.0</ele><time>2026-04-04T12:03:57Z</time></trkpt><trkpt lat="45.45127932328623" lon="11.303319443234964"><ele>40.0</ele><time>2026-04-04T12:03:58Z</time></trkpt><trkpt lat="45.451407507940935" lon="11.303277241857245"><ele>40.4</ele><time>2026-04-04T12:03:59Z</time></trkpt><trkpt lat="45.4515216300846" lon="11.303241922016195"><ele>40.8</ele><time>2026-04-04T12:04:00Z</time></trkpt><trkpt lat="45.45162386863234" lon="11.303213662604097"><ele>41.2</ele><time>2026-04-04T12:04:01Z</time></trkpt><trkpt lat="45.45171841926141" lon="11.303193091538505"><ele>41.6</ele><time>2026-04-04T12:04:01.999Z</time></trkpt><trkpt lat="45.45180988901506" lon="11.303180486415707"><ele>42.0</ele><time>2026-04-04T12:04:02.999Z</time></trkpt><trkpt lat="45.4518889642006" lon="11.30317963774293"><ele>42.0</ele><time>2026-04-04T12:04:03.999Z</time></trkpt><trkpt lat="45.45195548275413" lon="11.303187499735122"><ele>42.0</ele><time>2026-04-04T12:04:04.999Z</time></trkpt><trkpt lat="45.452017241894296" lon="11.303206784991893"><ele>42.0</ele><time>2026-04-04T12:04:05.999Z</time></trkpt><trkpt lat="45.45208902368679" lon="11.303222062651074"><ele>42.0</ele><time>2026-04-04T12:04:06.999Z</time></trkpt><trkpt lat="45.45216392159681" lon="11.303190008178507"><ele>42.0</ele><time>2026-04-04T12:04:07.999Z</time></trkpt><trkpt lat="45.45223684091617" lon="11.303112986179311"><ele>42.0</ele><time>2026-04-04T12:04:08.999Z</time></trkpt><trkpt lat="45.45230372634311" lon="11.303003702632772"><ele>42.75</ele><time>2026-04-04T12:04:09.999Z</time></trkpt><trkpt lat="45.452386149153675" lon="11.302926321626341"><ele>43.5</ele><time>2026-04-04T12:04:10.999Z</time></trkpt><trkpt lat="45.452502628988405" lon="11.30289387579704"><ele>44.25</ele><time>2026-04-04T12:04:11.999Z</time></trkpt><trkpt lat="45.452624949741015" lon="11.302861608267321"><ele>45.0</ele><time>2026-04-04T12:04:12.999Z</time></trkpt><trkpt lat="45.452754953417546" lon="11.3028162250208"><ele>45.0</ele><time>2026-04-04T12:04:13.999Z</time></trkpt><trkpt lat="45.452890849687876" lon="11.302766209043565"><ele>45.0</ele><time>2026-04-04T12:04:14.999Z</time></trkpt><trkpt lat="45.45303632744278" lon="11.302712803913103"><ele>45.0</ele><time>2026-04-04T12:04:15.999Z</time></trkpt><trkpt lat="45.45319058370996" lon="11.302654126490095"><ele>44.0</ele><time>2026-04-04T12:04:16.999Z</time></trkpt><trkpt lat="45.45334666622187" lon="11.302595388506559"><ele>43.0</ele><time>2026-04-04T12:04:17.999Z</time></trkpt><trkpt lat="45.45349782805535" lon="11.302546350284905"><ele>42.0</ele><time>2026-04-04T12:04:18.999Z</time></trkpt><trkpt lat="45.45364927604496" lon="11.302496980004575"><ele>42.0</ele><time>2026-04-04T12:04:19.999Z</time></trkpt><trkpt lat="45.45380842854192" lon="11.302444896128122"><ele>42.0</ele><time>2026-04-04T12:04:20.999Z</time></trkpt><trkpt lat="45.4539757269139" lon="11.302381788852562"><ele>42.0</ele><time>2026-04-04T12:04:21.999Z</time></trkpt><trkpt lat="45.45414663782171" lon="11.302318002737167"><ele>42.0</ele><time>2026-04-04T12:04:22.999Z</time></trkpt><trkpt lat="45.454314707852696" lon="11.302259557367178"><ele>42.0</ele><time>2026-04-04T12:04:23.999Z</time></trkpt><trkpt lat="45.45447578436799" lon="11.302203369938944"><ele>42.0</ele><time>2026-04-04T12:04:24.999Z</time></trkpt><trkpt lat="45.45462790168302" lon="11.302145408793372"><ele>42.666666666666664</ele><time>2026-04-04T12:04:25.999Z</time></trkpt><trkpt lat="45.45478255919142" lon="11.302084489606372"><ele>43.33333333333333</ele><time>2026-04-04T12:04:26.999Z</time></trkpt><trkpt lat="45.45494312031772" lon="11.302002606814925"><ele>44.0</ele><time>2026-04-04T12:04:27.999Z</time></trkpt><trkpt lat="45.455098618006815" lon="11.301905974221777"><ele>44.0</ele><time>2026-04-04T12:04:28.999Z</time></trkpt><trkpt lat="45.45525405140803" lon="11.301800653739084"><ele>44.0</ele><time>2026-04-04T12:04:29.999Z</time></trkpt><trkpt lat="45.45541432254005" lon="11.301675148890512"><ele>44.0</ele><time>2026-04-04T12:04:30.999Z</time></trkpt><trkpt lat="45.45557116464363" lon="11.301545006465412"><ele>44.0</ele><time>2026-04-04T12:04:31.999Z</time></trkpt><trkpt lat="45.455724790916825" lon="11.301407615337759"><ele>44.0</ele><time>2026-04-04T12:04:32.999Z</time></trkpt><trkpt lat="45.45588847991179" lon="11.30123468518485"><ele>44.0</ele><time>2026-04-04T12:04:33.999Z</time></trkpt><trkpt lat="45.45609567807725" lon="11.301032220688656"><ele>43.0</ele><time>2026-04-04T12:04:34.999Z</time></trkpt><trkpt lat="45.456308868974986" lon="11.300783029308992"><ele>42.0</ele><time>2026-04-04T12:04:35.999Z</time></trkpt><trkpt lat="45.45653379340615" lon="11.300569206558974"><ele>42.0</ele><time>2026-04-04T12:04:36.999Z</time></trkpt><trkpt lat="45.45674238000571" lon="11.300367579253107"><ele>42.0</ele><time>2026-04-04T12:04:37.999Z</time></trkpt><trkpt lat="45.456935178053186" lon="11.300174138254638"><ele>42.0</ele><time>2026-04-04T12:04:38.999Z</time></trkpt><trkpt lat="45.457113707433905" lon="11.299992424118743"><ele>42.0</ele><time>2026-04-04T12:04:39.999Z</time></trkpt><trkpt lat="45.45728419892997" lon="11.299812565602746"><ele>42.0</ele><time>2026-04-04T12:04:40.999Z</time></trkpt><trkpt lat="45.45745299056318" lon="11.299641666975281"><ele>42.666666666666664</ele><time>2026-04-04T12:04:41.999Z</time></trkpt><trkpt lat="45.45762140193244" lon="11.29946494568687"><ele>43.33333333333333</ele><time>2026-04-04T12:04:42.999Z</time></trkpt><trkpt lat="45.45779284166584" lon="11.299286936027146"><ele>44.0</ele><time>2026-04-04T12:04:43.999Z</time></trkpt><trkpt lat="45.45795784588379" lon="11.299109644843412"><ele>44.0</ele><time>2026-04-04T12:04:44.999Z</time></trkpt><trkpt lat="45.4581293478154" lon="11.298937750755476"><ele>44.0</ele><time>2026-04-04T12:04:45.999Z</time></trkpt><trkpt lat="45.45829490769304" lon="11.298764141377546"><ele>44.0</ele><time>2026-04-04T12:04:46.999Z</time></trkpt><trkpt lat="45.458460538203745" lon="11.298595709135908"><ele>44.0</ele><time>2026-04-04T12:04:47.999Z</time></trkpt><trkpt lat="45.458623464877235" lon="11.29842675981111"><ele>44.0</ele><time>2026-04-04T12:04:48.999Z</time></trkpt><trkpt lat="45.4587838128542" lon="11.298260414243655"><ele>44.0</ele><time>2026-04-04T12:04:49.999Z</time></trkpt><trkpt lat="45.45894501477338" lon="11.298095251133741"><ele>44.33333333333333</ele><time>2026-04-04T12:04:50.999Z</time></trkpt><trkpt lat="45.45910620035799" lon="11.297929835516902"><ele>44.666666666666664</ele><time>2026-04-04T12:04:51.999Z</time></trkpt><trkpt lat="45.45926888139188" lon="11.297765234632017"><ele>45.0</ele><time>2026-04-04T12:04:52.999Z</time></trkpt><trkpt lat="45.45943366281656" lon="11.297593992413194"><ele>45.0</ele><time>2026-04-04T12:04:53.999Z</time></trkpt><trkpt lat="45.45960144474403" lon="11.297422348801652"><ele>45.0</ele><time>2026-04-04T12:04:54.999Z</time></trkpt><trkpt lat="45.45976990347993" lon="11.29724859401704"><ele>45.0</ele><time>2026-04-04T12:04:55.999Z</time></trkpt><trkpt lat="45.459938666125346" lon="11.297067250824014"><ele>45.333333333333336</ele><time>2026-04-04T12:04:56.999Z</time></trkpt><trkpt lat="45.4601122627483" lon="11.296891170564725"><ele>45.66666666666667</ele><time>2026-04-04T12:04:57.998Z</time></trkpt><trkpt lat="45.460288387995305" lon="11.2967162570212"><ele>46.0</ele><time>2026-04-04T12:04:58.998Z</time></trkpt><trkpt lat="45.460464504199486" lon="11.296536494902554"><ele>46.333333333333336</ele><time>2026-04-04T12:04:59.998Z</time></trkpt><trkpt lat="45.46063797013373" lon="11.296350524026648"><ele>46.666666666666664</ele><time>2026-04-04T12:05:00.998Z</time></trkpt><trkpt lat="45.460813916122135" lon="11.296170815405056"><ele>47.0</ele><time>2026-04-04T12:05:01.998Z</time></trkpt><trkpt lat="45.46098245605725" lon="11.29599384000561"><ele>47.0</ele><time>2026-04-04T12:05:02.998Z</time></trkpt><trkpt lat="45.46114919710475" lon="11.295822697427923"><ele>47.0</ele><time>2026-04-04T12:05:03.998Z</time></trkpt><trkpt lat="45.461310858656915" lon="11.29564628659283"><ele>47.0</ele><time>2026-04-04T12:05:04.998Z</time></trkpt><trkpt lat="45.46145945445294" lon="11.295453994125884"><ele>47.0</ele><time>2026-04-04T12:05:05.998Z</time></trkpt><trkpt lat="45.46160628989369" lon="11.295250794660062"><ele>47.0</ele><time>2026-04-04T12:05:06.998Z</time></trkpt><trkpt lat="45.46174779070987" lon="11.295035567655825"><ele>47.0</ele><time>2026-04-04T12:05:07.998Z</time></trkpt><trkpt lat="45.46188983956859" lon="11.294821161502117"><ele>47.0</ele><time>2026-04-04T12:05:08.998Z</time></trkpt><trkpt lat="45.46202616980909" lon="11.294600017885024"><ele>47.0</ele><time>2026-04-04T12:05:09.998Z</time></trkpt><trkpt lat="45.46215237190176" lon="11.29436035782133"><ele>47.0</ele><time>2026-04-04T12:05:10.998Z</time></trkpt><trkpt lat="45.462269368881714" lon="11.294110049283562"><ele>47.0</ele><time>2026-04-04T12:05:11.998Z</time></trkpt><trkpt lat="45.462375249544124" lon="11.293847979961928"><ele>47.0</ele><time>2026-04-04T12:05:12.998Z</time></trkpt><trkpt lat="45.46248162407499" lon="11.293580790488711"><ele>47.0</ele><time>2026-04-04T12:05:13.998Z</time></trkpt><trkpt lat="45.46258932046275" lon="11.293323852649243"><ele>47.666666666666664</ele><time>2026-04-04T12:05:14.998Z</time></trkpt><trkpt lat="45.46269244970581" lon="11.293064964021738"><ele>48.33333333333333</ele><time>2026-04-04T12:05:15.998Z</time></trkpt><trkpt lat="45.46278914677646" lon="11.292802483763806"><ele>49.0</ele><time>2026-04-04T12:05:16.998Z</time></trkpt><trkpt lat="45.46287096149732" lon="11.292533121931875"><ele>48.666666666666664</ele><time>2026-04-04T12:05:17.998Z</time></trkpt><trkpt lat="45.46295564611052" lon="11.29227176438578"><ele>48.33333333333333</ele><time>2026-04-04T12:05:18.998Z</time></trkpt><trkpt lat="45.463038086237525" lon="11.292011233690344"><ele>48.0</ele><time>2026-04-04T12:05:19.998Z</time></trkpt><trkpt lat="45.4631172439744" lon="11.29174493920226"><ele>48.0</ele><time>2026-04-04T12:05:20.998Z</time></trkpt><trkpt lat="45.463194130395884" lon="11.291477390597793"><ele>48.0</ele><time>2026-04-04T12:05:21.998Z</time></trkpt><trkpt lat="45.46326944854314" lon="11.291212049980702"><ele>48.0</ele><time>2026-04-04T12:05:22.998Z</time></trkpt><trkpt lat="45.46334016508272" lon="11.290955147672815"><ele>48.33333333333333</ele><time>2026-04-04T12:05:23.998Z</time></trkpt><trkpt lat="45.463401493287115" lon="11.29069479941261"><ele>48.666666666666664</ele><time>2026-04-04T12:05:24.998Z</time></trkpt><trkpt lat="45.4634565301435" lon="11.290422004255735"><ele>49.0</ele><time>2026-04-04T12:05:25.998Z</time></trkpt><trkpt lat="45.46350544128175" lon="11.290135876308957"><ele>49.0</ele><time>2026-04-04T12:05:27Z</time></trkpt><trkpt lat="45.463547680978046" lon="11.289842579313504"><ele>49.0</ele><time>2026-04-04T12:05:28Z</time></trkpt><trkpt lat="45.46358568085742" lon="11.289542122447553"><ele>49.0</ele><time>2026-04-04T12:05:29Z</time></trkpt><trkpt lat="45.4636198187256" lon="11.28923698773779"><ele>49.33333333333333</ele><time>2026-04-04T12:05:30Z</time></trkpt><trkpt lat="45.463649958997316" lon="11.288933950713046"><ele>49.66666666666667</ele><time>2026-04-04T12:05:31Z</time></trkpt><trkpt lat="45.46367534354032" lon="11.288634581186178"><ele>50.0</ele><time>2026-04-04T12:05:32Z</time></trkpt><trkpt lat="45.463692180742804" lon="11.288343926712809"><ele>50.0</ele><time>2026-04-04T12:05:33Z</time></trkpt><trkpt lat="45.463711547632435" lon="11.288055372261825"><ele>50.0</ele><time>2026-04-04T12:05:34Z</time></trkpt><trkpt lat="45.46373819559473" lon="11.287762724754216"><ele>50.0</ele><time>2026-04-04T12:05:35Z</time></trkpt><trkpt lat="45.463763245562795" lon="11.287467487947653"><ele>49.66666666666667</ele><time>2026-04-04T12:05:36Z</time></trkpt><trkpt lat="45.4637880996772" lon="11.287177933488335"><ele>49.33333333333333</ele><time>2026-04-04T12:05:37Z</time></trkpt><trkpt lat="45.463815872375065" lon="11.286881116779778"><ele>49.0</ele><time>2026-04-04T12:05:38Z</time></trkpt><trkpt lat="45.46383559232684" lon="11.286589505764404"><ele>49.666666666666664</ele><time>2026-04-04T12:05:39Z</time></trkpt><trkpt lat="45.46385036520546" lon="11.286307305702026"><ele>50.33333333333333</ele><time>2026-04-04T12:05:40Z</time></trkpt><trkpt lat="45.46385176926419" lon="11.286035007225964"><ele>51.0</ele><time>2026-04-04T12:05:41Z</time></trkpt><trkpt lat="45.46385202955067" lon="11.285786629611113"><ele>50.66666666666667</ele><time>2026-04-04T12:05:42Z</time></trkpt><trkpt lat="45.46384344871955" lon="11.285568665182067"><ele>50.333333333333336</ele><time>2026-04-04T12:05:43Z</time></trkpt><trkpt lat="45.46384626085592" lon="11.285347528035462"><ele>50.0</ele><time>2026-04-04T12:05:44Z</time></trkpt><trkpt lat="45.46384064343711" lon="11.285143124985037"><ele>50.0</ele><time>2026-04-04T12:05:45Z</time></trkpt><trkpt lat="45.463831398054175" lon="11.28494971216232"><ele>50.0</ele><time>2026-04-04T12:05:46Z</time></trkpt><trkpt lat="45.46382093748563" lon="11.284763391329003"><ele>50.0</ele><time>2026-04-04T12:05:47Z</time></trkpt><trkpt lat="45.46381664880085" lon="11.284574457379877"><ele>50.0</ele><time>2026-04-04T12:05:48Z</time></trkpt><trkpt lat="45.463817644356006" lon="11.284398188674382"><ele>50.0</ele><time>2026-04-04T12:05:49Z</time></trkpt><trkpt lat="45.46382375806196" lon="11.284237100594567"><ele>50.0</ele><time>2026-04-04T12:05:50Z</time></trkpt><trkpt lat="45.46383906953636" lon="11.284088011162863"><ele>50.0</ele><time>2026-04-04T12:05:51Z</time></trkpt><trkpt lat="45.46385739699944" lon="11.283955016053211"><ele>50.0</ele><time>2026-04-04T12:05:52Z</time></trkpt><trkpt lat="45.46388522410609" lon="11.283839800533297"><ele>50.0</ele><time>2026-04-04T12:05:53Z</time></trkpt><trkpt lat="45.46392018188207" lon="11.283720676861849"><ele>50.25</ele><time>2026-04-04T12:05:54Z</time></trkpt><trkpt lat="45.463942042481136" lon="11.283589869993662"><ele>50.5</ele><time>2026-04-04T12:05:55Z</time></trkpt><trkpt lat="45.46392099830194" lon="11.28343501138971"><ele>50.75</ele><time>2026-04-04T12:05:56Z</time></trkpt><trkpt lat="45.46386254927713" lon="11.28325716463507"><ele>51.0</ele><time>2026-04-04T12:05:57Z</time></trkpt><trkpt lat="45.46383575109273" lon="11.283069410394898"><ele>51.0</ele><time>2026-04-04T12:05:58Z</time></trkpt><trkpt lat="45.46385767681482" lon="11.282847661055357"><ele>51.0</ele><time>2026-04-04T12:05:59Z</time></trkpt><trkpt lat="45.46390262305271" lon="11.282614704562446"><ele>51.0</ele><time>2026-04-04T12:06:00Z</time></trkpt><trkpt lat="45.46395901475746" lon="11.282359442250705"><ele>51.33333333333333</ele><time>2026-04-04T12:06:01Z</time></trkpt><trkpt lat="45.464035628383485" lon="11.282075951814127"><ele>51.666666666666664</ele><time>2026-04-04T12:06:02Z</time></trkpt><trkpt lat="45.46411921835354" lon="11.281778706259972"><ele>52.0</ele><time>2026-04-04T12:06:03Z</time></trkpt><trkpt lat="45.46421490568556" lon="11.281468655846595"><ele>52.5</ele><time>2026-04-04T12:06:04Z</time></trkpt><trkpt lat="45.46431255516668" lon="11.281151222874303"><ele>53.0</ele><time>2026-04-04T12:06:05Z</time></trkpt><trkpt lat="45.464396578681225" lon="11.280826623203767"><ele>53.333333333333336</ele><time>2026-04-04T12:06:06Z</time></trkpt><trkpt lat="45.46447831117441" lon="11.28053523021434"><ele>53.66666666666667</ele><time>2026-04-04T12:06:07Z</time></trkpt><trkpt lat="45.46455782538783" lon="11.280266460958481"><ele>54.0</ele><time>2026-04-04T12:06:07.999Z</time></trkpt><trkpt lat="45.464636817335695" lon="11.280018103755149"><ele>53.66666666666667</ele><time>2026-04-04T12:06:08.999Z</time></trkpt><trkpt lat="45.464710376194695" lon="11.279766422962048"><ele>53.333333333333336</ele><time>2026-04-04T12:06:09.999Z</time></trkpt><trkpt lat="45.464788874471395" lon="11.279510044896103"><ele>53.0</ele><time>2026-04-04T12:06:10.999Z</time></trkpt><trkpt lat="45.46486594385966" lon="11.279246748451419"><ele>53.0</ele><time>2026-04-04T12:06:11.999Z</time></trkpt><trkpt lat="45.46494447793125" lon="11.278982964546026"><ele>53.0</ele><time>2026-04-04T12:06:12.999Z</time></trkpt><trkpt lat="45.4650253829045" lon="11.278717199965296"><ele>53.0</ele><time>2026-04-04T12:06:13.999Z</time></trkpt><trkpt lat="45.46510671031564" lon="11.278452916369941"><ele>53.333333333333336</ele><time>2026-04-04T12:06:14.999Z</time></trkpt><trkpt lat="45.46518860685644" lon="11.2781767775198"><ele>53.66666666666667</ele><time>2026-04-04T12:06:15.999Z</time></trkpt><trkpt lat="45.46527461437843" lon="11.277907909591983"><ele>54.0</ele><time>2026-04-04T12:06:16.999Z</time></trkpt><trkpt lat="45.4653693830192" lon="11.277639233316302"><ele>54.0</ele><time>2026-04-04T12:06:17.999Z</time></trkpt><trkpt lat="45.465465736872844" lon="11.277365873303202"><ele>54.0</ele><time>2026-04-04T12:06:18.999Z</time></trkpt><trkpt lat="45.465562538472916" lon="11.277099737139435"><ele>54.0</ele><time>2026-04-04T12:06:19.999Z</time></trkpt><trkpt lat="45.46566601127243" lon="11.276832399559456"><ele>54.33333333333333</ele><time>2026-04-04T12:06:20.999Z</time></trkpt><trkpt lat="45.46577565009469" lon="11.276568609545222"><ele>54.666666666666664</ele><time>2026-04-04T12:06:21.999Z</time></trkpt><trkpt lat="45.46587077782336" lon="11.276301854258438"><ele>55.0</ele><time>2026-04-04T12:06:22.999Z</time></trkpt><trkpt lat="45.465973504468174" lon="11.276036469860541"><ele>55.0</ele><time>2026-04-04T12:06:23.999Z</time></trkpt><trkpt lat="45.466077459169504" lon="11.275770254672185"><ele>55.0</ele><time>2026-04-04T12:06:24.999Z</time></trkpt><trkpt lat="45.46619048793913" lon="11.275517163130838"><ele>55.0</ele><time>2026-04-04T12:06:25.999Z</time></trkpt><trkpt lat="45.46631008357175" lon="11.275258451698706"><ele>54.666666666666664</ele><time>2026-04-04T12:06:26.999Z</time></trkpt><trkpt lat="45.4664384951238" lon="11.275007520238752"><ele>54.33333333333333</ele><time>2026-04-04T12:06:27.999Z</time></trkpt><trkpt lat="45.46657497938859" lon="11.274763358861177"><ele>54.0</ele><time>2026-04-04T12:06:28.999Z</time></trkpt><trkpt lat="45.466727446845944" lon="11.27453462066842"><ele>54.66666666666667</ele><time>2026-04-04T12:06:29.999Z</time></trkpt><trkpt lat="45.466891522765074" lon="11.274323612136499"><ele>55.333333333333336</ele><time>2026-04-04T12:06:30.999Z</time></trkpt><trkpt lat="45.46706653524233" lon="11.274129582728959"><ele>56.0</ele><time>2026-04-04T12:06:31.999Z</time></trkpt><trkpt lat="45.4672429202014" lon="11.27393622640212"><ele>56.333333333333336</ele><time>2026-04-04T12:06:32.999Z</time></trkpt><trkpt lat="45.46742054954623" lon="11.273741163122747"><ele>56.66666666666667</ele><time>2026-04-04T12:06:33.999Z</time></trkpt><trkpt lat="45.467592948724345" lon="11.273540349631142"><ele>57.0</ele><time>2026-04-04T12:06:34.999Z</time></trkpt><trkpt lat="45.467767135346996" lon="11.273337594865914"><ele>57.0</ele><time>2026-04-04T12:06:35.999Z</time></trkpt><trkpt lat="45.46794258114011" lon="11.273138658582932"><ele>57.0</ele><time>2026-04-04T12:06:36.999Z</time></trkpt><trkpt lat="45.46811789862758" lon="11.272935576161649"><ele>58.0</ele><time>2026-04-04T12:06:37.999Z</time></trkpt><trkpt lat="45.468296088168785" lon="11.272735214606618"><ele>59.0</ele><time>2026-04-04T12:06:38.999Z</time></trkpt><trkpt lat="45.468474185094934" lon="11.272531657689532"><ele>59.0</ele><time>2026-04-04T12:06:39.999Z</time></trkpt><trkpt lat="45.46864856355807" lon="11.272327979506448"><ele>59.0</ele><time>2026-04-04T12:06:40.999Z</time></trkpt><trkpt lat="45.46882759357333" lon="11.272122921672192"><ele>59.0</ele><time>2026-04-04T12:06:41.999Z</time></trkpt><trkpt lat="45.46900418779899" lon="11.271923891763226"><ele>59.0</ele><time>2026-04-04T12:06:42.999Z</time></trkpt><trkpt lat="45.46917791084773" lon="11.271725174585452"><ele>59.0</ele><time>2026-04-04T12:06:43.999Z</time></trkpt><trkpt lat="45.469350735742005" lon="11.271520720460526"><ele>59.0</ele><time>2026-04-04T12:06:44.999Z</time></trkpt><trkpt lat="45.46952174529378" lon="11.271317569583728"><ele>59.0</ele><time>2026-04-04T12:06:45.999Z</time></trkpt><trkpt lat="45.469685297456756" lon="11.271118643993203"><ele>59.0</ele><time>2026-04-04T12:06:46.999Z</time></trkpt><trkpt lat="45.46986506305117" lon="11.270923055113528"><ele>59.333333333333336</ele><time>2026-04-04T12:06:47.999Z</time></trkpt><trkpt lat="45.47004220474594" lon="11.27073157930431"><ele>59.66666666666667</ele><time>2026-04-04T12:06:48.999Z</time></trkpt><trkpt lat="45.47021700247346" lon="11.270536157400837"><ele>60.0</ele><time>2026-04-04T12:06:49.999Z</time></trkpt><trkpt lat="45.4703896227052" lon="11.270335804300313"><ele>60.33333333333333</ele><time>2026-04-04T12:06:50.999Z</time></trkpt><trkpt lat="45.4705661522814" lon="11.270138463695396"><ele>60.666666666666664</ele><time>2026-04-04T12:06:51.999Z</time></trkpt><trkpt lat="45.47074036054098" lon="11.269939655407091"><ele>61.0</ele><time>2026-04-04T12:06:52.999Z</time></trkpt><trkpt lat="45.47091924319642" lon="11.269747218136745"><ele>61.0</ele><time>2026-04-04T12:06:53.999Z</time></trkpt><trkpt lat="45.471096736188365" lon="11.26955737900969"><ele>61.0</ele><time>2026-04-04T12:06:54.999Z</time></trkpt><trkpt lat="45.471280687883954" lon="11.269374064558722"><ele>61.0</ele><time>2026-04-04T12:06:55.999Z</time></trkpt><trkpt lat="45.47147437727899" lon="11.269211902236648"><ele>61.0</ele><time>2026-04-04T12:06:56.999Z</time></trkpt><trkpt lat="45.47166250027225" lon="11.269059107939997"><ele>61.0</ele><time>2026-04-04T12:06:57.999Z</time></trkpt><trkpt lat="45.47185984311123" lon="11.268907343733934"><ele>61.0</ele><time>2026-04-04T12:06:58.999Z</time></trkpt><trkpt lat="45.47205676265917" lon="11.268758792675039"><ele>61.666666666666664</ele><time>2026-04-04T12:06:59.999Z</time></trkpt><trkpt lat="45.472245931132626" lon="11.268601673169204"><ele>62.33333333333333</ele><time>2026-04-04T12:07:00.999Z</time></trkpt><trkpt lat="45.47242852179766" lon="11.268457287999246"><ele>63.0</ele><time>2026-04-04T12:07:01.999Z</time></trkpt><trkpt lat="45.472599371462984" lon="11.268327407067298"><ele>63.0</ele><time>2026-04-04T12:07:02.999Z</time></trkpt><trkpt lat="45.472756099974326" lon="11.268206321637251"><ele>63.0</ele><time>2026-04-04T12:07:03.998Z</time></trkpt><trkpt lat="45.47290065319784" lon="11.268084104463359"><ele>63.0</ele><time>2026-04-04T12:07:04.998Z</time></trkpt><trkpt lat="45.473044814185975" lon="11.267964155714301"><ele>63.33333333333333</ele><time>2026-04-04T12:07:05.998Z</time></trkpt><trkpt lat="45.47319303430303" lon="11.267839522517376"><ele>63.666666666666664</ele><time>2026-04-04T12:07:06.998Z</time></trkpt><trkpt lat="45.47335386402107" lon="11.267712696192964"><ele>64.0</ele><time>2026-04-04T12:07:07.998Z</time></trkpt><trkpt lat="45.47351417582581" lon="11.267587102954584"><ele>64.0</ele><time>2026-04-04T12:07:08.998Z</time></trkpt><trkpt lat="45.47366769354255" lon="11.267456781441094"><ele>64.0</ele><time>2026-04-04T12:07:09.998Z</time></trkpt><trkpt lat="45.47381475309281" lon="11.267324350860749"><ele>64.0</ele><time>2026-04-04T12:07:10.998Z</time></trkpt><trkpt lat="45.473968708844204" lon="11.267188338676219"><ele>64.33333333333333</ele><time>2026-04-04T12:07:11.998Z</time></trkpt><trkpt lat="45.474112767723156" lon="11.267050233165984"><ele>64.66666666666667</ele><time>2026-04-04T12:07:12.998Z</time></trkpt><trkpt lat="45.47426337419311" lon="11.266921555101826"><ele>65.0</ele><time>2026-04-04T12:07:13.998Z</time></trkpt><trkpt lat="45.474396916830074" lon="11.266781375922596"><ele>65.0</ele><time>2026-04-04T12:07:14.998Z</time></trkpt><trkpt lat="45.474531262221085" lon="11.26664734959287"><ele>65.0</ele><time>2026-04-04T12:07:15.998Z</time></trkpt><trkpt lat="45.47465981876263" lon="11.266519842702655"><ele>65.0</ele><time>2026-04-04T12:07:16.998Z</time></trkpt><trkpt lat="45.47478720285928" lon="11.266398647269517"><ele>65.0</ele><time>2026-04-04T12:07:17.998Z</time></trkpt><trkpt lat="45.47492207585844" lon="11.266274627537255"><ele>65.0</ele><time>2026-04-04T12:07:18.998Z</time></trkpt><trkpt lat="45.4750540105173" lon="11.266148520806452"><ele>65.0</ele><time>2026-04-04T12:07:19.998Z</time></trkpt><trkpt lat="45.47518697911845" lon="11.266020208327095"><ele>65.0</ele><time>2026-04-04T12:07:20.998Z</time></trkpt><trkpt lat="45.47531719167801" lon="11.265882254755896"><ele>65.0</ele><time>2026-04-04T12:07:21.998Z</time></trkpt><trkpt lat="45.47545195367511" lon="11.26574496073336"><ele>65.0</ele><time>2026-04-04T12:07:22.998Z</time></trkpt><trkpt lat="45.47558571513188" lon="11.26561230638079"><ele>65.66666666666667</ele><time>2026-04-04T12:07:23.998Z</time></trkpt><trkpt lat="45.47571606165073" lon="11.265475719958536"><ele>66.33333333333333</ele><time>2026-04-04T12:07:24.998Z</time></trkpt><trkpt lat="45.475837882708525" lon="11.265344267652534"><ele>67.0</ele><time>2026-04-04T12:07:25.998Z</time></trkpt><trkpt lat="45.47595589922316" lon="11.265204957149518"><ele>67.0</ele><time>2026-04-04T12:07:26.998Z</time></trkpt><trkpt lat="45.47608582721383" lon="11.265058319707354"><ele>67.0</ele><time>2026-04-04T12:07:27.998Z</time></trkpt><trkpt lat="45.47621033608379" lon="11.264903087392897"><ele>67.0</ele><time>2026-04-04T12:07:28.998Z</time></trkpt><trkpt lat="45.476331569669945" lon="11.264738018105817"><ele>67.33333333333333</ele><time>2026-04-04T12:07:29.998Z</time></trkpt><trkpt lat="45.47645673191936" lon="11.264570472413446"><ele>67.66666666666667</ele><time>2026-04-04T12:07:30.998Z</time></trkpt><trkpt lat="45.476572212081955" lon="11.264408726825073"><ele>68.0</ele><time>2026-04-04T12:07:31.998Z</time></trkpt><trkpt lat="45.476691026173526" lon="11.264246931397265"><ele>68.0</ele><time>2026-04-04T12:07:33Z</time></trkpt><trkpt lat="45.47679803823813" lon="11.264089047529207"><ele>68.0</ele><time>2026-04-04T12:07:34Z</time></trkpt><trkpt lat="45.47690997297583" lon="11.26394642433287"><ele>68.0</ele><time>2026-04-04T12:07:35Z</time></trkpt><trkpt lat="45.47701671872605" lon="11.263798042173583"><ele>68.25</ele><time>2026-04-04T12:07:36Z</time></trkpt><trkpt lat="45.47712944629813" lon="11.263654873849772"><ele>68.5</ele><time>2026-04-04T12:07:37Z</time></trkpt><trkpt lat="45.47723475945842" lon="11.263515234624778"><ele>68.75</ele><time>2026-04-04T12:07:38Z</time></trkpt><trkpt lat="45.47733036529352" lon="11.263398939140778"><ele>69.0</ele><time>2026-04-04T12:07:39Z</time></trkpt><trkpt lat="45.47742605555834" lon="11.263292974596435"><ele>69.0</ele><time>2026-04-04T12:07:40Z</time></trkpt><trkpt lat="45.477520128596545" lon="11.263168756628652"><ele>69.0</ele><time>2026-04-04T12:07:41Z</time></trkpt><trkpt lat="45.47762132088" lon="11.26302384899016"><ele>69.0</ele><time>2026-04-04T12:07:42Z</time></trkpt><trkpt lat="45.477735319668206" lon="11.262873787561121"><ele>69.0</ele><time>2026-04-04T12:07:43Z</time></trkpt><trkpt lat="45.47786013605801" lon="11.262720830879445"><ele>69.33333333333333</ele><time>2026-04-04T12:07:44Z</time></trkpt><trkpt lat="45.47800126454063" lon="11.262573178076913"><ele>69.66666666666666</ele><time>2026-04-04T12:07:45Z</time></trkpt><trkpt lat="45.47814886446728" lon="11.262435918429848"><ele>70.0</ele><time>2026-04-04T12:07:46Z</time></trkpt><trkpt lat="45.47830101427614" lon="11.262303487114"><ele>70.33333333333333</ele><time>2026-04-04T12:07:47Z</time></trkpt><trkpt lat="45.47845190521989" lon="11.262177364964835"><ele>70.66666666666667</ele><time>2026-04-04T12:07:48Z</time></trkpt><trkpt lat="45.478606835634665" lon="11.262065277160975"><ele>71.0</ele><time>2026-04-04T12:07:49Z</time></trkpt><trkpt lat="45.47876419561779" lon="11.2619666203774"><ele>71.0</ele><time>2026-04-04T12:07:50Z</time></trkpt><trkpt lat="45.478931165515455" lon="11.26188468821442"><ele>71.0</ele><time>2026-04-04T12:07:51Z</time></trkpt><trkpt lat="45.479096415336215" lon="11.261811458875885"><ele>71.0</ele><time>2026-04-04T12:07:52Z</time></trkpt><trkpt lat="45.47926772242585" lon="11.261744314354019"><ele>71.0</ele><time>2026-04-04T12:07:53Z</time></trkpt><trkpt lat="45.47944125922425" lon="11.261680899436255"><ele>71.0</ele><time>2026-04-04T12:07:54Z</time></trkpt><trkpt lat="45.479617697468996" lon="11.261618011362819"><ele>71.0</ele><time>2026-04-04T12:07:55Z</time></trkpt><trkpt lat="45.479795317767355" lon="11.261551079010777"><ele>70.66666666666667</ele><time>2026-04-04T12:07:56Z</time></trkpt><trkpt lat="45.47998311785785" lon="11.261495501983218"><ele>70.33333333333333</ele><time>2026-04-04T12:07:57Z</time></trkpt><trkpt lat="45.48017211967687" lon="11.261447156063273"><ele>70.0</ele><time>2026-04-04T12:07:58Z</time></trkpt><trkpt lat="45.480369471999886" lon="11.261412071517055"><ele>70.66666666666666</ele><time>2026-04-04T12:07:59Z</time></trkpt><trkpt lat="45.4805710739397" lon="11.261388396503609"><ele>71.33333333333333</ele><time>2026-04-04T12:08:00Z</time></trkpt><trkpt lat="45.48076334982516" lon="11.261369595074756"><ele>72.0</ele><time>2026-04-04T12:08:01Z</time></trkpt><trkpt lat="45.48095212350837" lon="11.261342540486762"><ele>72.0</ele><time>2026-04-04T12:08:02Z</time></trkpt><trkpt lat="45.48112723917495" lon="11.26131019889487"><ele>72.0</ele><time>2026-04-04T12:08:03Z</time></trkpt><trkpt lat="45.48130408256406" lon="11.26127291207033"><ele>72.0</ele><time>2026-04-04T12:08:04Z</time></trkpt><trkpt lat="45.48148451657919" lon="11.261212602287047"><ele>72.33333333333333</ele><time>2026-04-04T12:08:05Z</time></trkpt><trkpt lat="45.48165921654164" lon="11.26113287325914"><ele>72.66666666666666</ele><time>2026-04-04T12:08:06Z</time></trkpt><trkpt lat="45.48183120862639" lon="11.261031990543724"><ele>73.0</ele><time>2026-04-04T12:08:07Z</time></trkpt><trkpt lat="45.48199792283218" lon="11.26089995004648"><ele>72.66666666666666</ele><time>2026-04-04T12:08:08Z</time></trkpt><trkpt lat="45.482157472947726" lon="11.26074812739958"><ele>72.33333333333333</ele><time>2026-04-04T12:08:09Z</time></trkpt><trkpt lat="45.482317128810195" lon="11.260580467721653"><ele>72.0</ele><time>2026-04-04T12:08:10Z</time></trkpt><trkpt lat="45.48247453421281" lon="11.260396861491161"><ele>73.33333333333333</ele><time>2026-04-04T12:08:11Z</time></trkpt><trkpt lat="45.48262858404731" lon="11.260211302852705"><ele>74.66666666666666</ele><time>2026-04-04T12:08:11.999Z</time></trkpt><trkpt lat="45.482784915185036" lon="11.260020922776098"><ele>76.0</ele><time>2026-04-04T12:08:12.999Z</time></trkpt><trkpt lat="45.48294488160815" lon="11.259836371120322"><ele>76.33333333333333</ele><time>2026-04-04T12:08:13.999Z</time></trkpt><trkpt lat="45.48310156782554" lon="11.259652270861721"><ele>76.66666666666667</ele><time>2026-04-04T12:08:14.999Z</time></trkpt><trkpt lat="45.48325849631635" lon="11.25947382593211"><ele>77.0</ele><time>2026-04-04T12:08:15.999Z</time></trkpt><trkpt lat="45.4834059171326" lon="11.259296462800489"><ele>77.0</ele><time>2026-04-04T12:08:16.999Z</time></trkpt><trkpt lat="45.483557691661154" lon="11.259127903272391"><ele>77.0</ele><time>2026-04-04T12:08:17.999Z</time></trkpt><trkpt lat="45.48370471784924" lon="11.258962493364974"><ele>77.0</ele><time>2026-04-04T12:08:18.999Z</time></trkpt><trkpt lat="45.483846448834214" lon="11.258809082644875"><ele>77.66666666666667</ele><time>2026-04-04T12:08:19.999Z</time></trkpt><trkpt lat="45.483982606765" lon="11.25865758730098"><ele>78.33333333333333</ele><time>2026-04-04T12:08:20.999Z</time></trkpt><trkpt lat="45.48411172361898" lon="11.258516655474928"><ele>79.0</ele><time>2026-04-04T12:08:21.999Z</time></trkpt><trkpt lat="45.48423251979323" lon="11.258386224924264"><ele>79.0</ele><time>2026-04-04T12:08:22.999Z</time></trkpt><trkpt lat="45.48434706724836" lon="11.258272696414812"><ele>79.0</ele><time>2026-04-04T12:08:23.999Z</time></trkpt><trkpt lat="45.484444591698875" lon="11.258163560679964"><ele>79.0</ele><time>2026-04-04T12:08:24.999Z</time></trkpt><trkpt lat="45.48454226241258" lon="11.258065762244403"><ele>79.0</ele><time>2026-04-04T12:08:25.999Z</time></trkpt><trkpt lat="45.484632326116" lon="11.257977478596139"><ele>79.33333333333333</ele><time>2026-04-04T12:08:26.999Z</time></trkpt><trkpt lat="45.48471634363127" lon="11.257898851752339"><ele>79.66666666666666</ele><time>2026-04-04T12:08:27.999Z</time></trkpt><trkpt lat="45.484789382255926" lon="11.257836819823527"><ele>80.0</ele><time>2026-04-04T12:08:28.999Z</time></trkpt><trkpt lat="45.48485047818499" lon="11.257780004640185"><ele>80.33333333333333</ele><time>2026-04-04T12:08:29.999Z</time></trkpt><trkpt lat="45.48491590356721" lon="11.257728555023084"><ele>80.66666666666667</ele><time>2026-04-04T12:08:30.999Z</time></trkpt><trkpt lat="45.48498669139938" lon="11.25767731454632"><ele>81.0</ele><time>2026-04-04T12:08:31.999Z</time></trkpt><trkpt lat="45.48505559004951" lon="11.257626190558131"><ele>81.0</ele><time>2026-04-04T12:08:32.999Z</time></trkpt><trkpt lat="45.48511727841988" lon="11.257586076972714"><ele>81.0</ele><time>2026-04-04T12:08:33.999Z</time></trkpt><trkpt lat="45.48518265082999" lon="11.25754416606568"><ele>81.0</ele><time>2026-04-04T12:08:34.999Z</time></trkpt><trkpt lat="45.48526515906089" lon="11.257491519926575"><ele>81.0</ele><time>2026-04-04T12:08:35.999Z</time></trkpt><trkpt lat="45.485333945282775" lon="11.257449370648914"><ele>81.0</ele><time>2026-04-04T12:08:36.999Z</time></trkpt><trkpt lat="45.48540816638991" lon="11.257420064628613"><ele>81.0</ele><time>2026-04-04T12:08:37.999Z</time></trkpt><trkpt lat="45.48548437049112" lon="11.257387009596314"><ele>81.0</ele><time>2026-04-04T12:08:38.999Z</time></trkpt><trkpt lat="45.4855620101121" lon="11.257350566507967"><ele>81.0</ele><time>2026-04-04T12:08:39.999Z</time></trkpt><trkpt lat="45.48565203247802" lon="11.257314063447527"><ele>81.0</ele><time>2026-04-04T12:08:40.999Z</time></trkpt><trkpt lat="45.48574871390299" lon="11.257274849768832"><ele>81.0</ele><time>2026-04-04T12:08:41.999Z</time></trkpt><trkpt lat="45.485850442539174" lon="11.257233510810915"><ele>81.0</ele><time>2026-04-04T12:08:42.999Z</time></trkpt><trkpt lat="45.4859556675954" lon="11.257191017338492"><ele>81.4</ele><time>2026-04-04T12:08:43.999Z</time></trkpt><trkpt lat="45.486065252744" lon="11.257151680892466"><ele>81.8</ele><time>2026-04-04T12:08:44.999Z</time></trkpt><trkpt lat="45.48617175285961" lon="11.257112046619572"><ele>82.2</ele><time>2026-04-04T12:08:45.999Z</time></trkpt><trkpt lat="45.486278038133506" lon="11.257071506626307"><ele>82.60000000000001</ele><time>2026-04-04T12:08:46.999Z</time></trkpt><trkpt lat="45.486381983507684" lon="11.257032070885511"><ele>83.0</ele><time>2026-04-04T12:08:47.999Z</time></trkpt><trkpt lat="45.48648724874754" lon="11.25699033745894"><ele>83.0</ele><time>2026-04-04T12:08:48.999Z</time></trkpt><trkpt lat="45.48659138717466" lon="11.256950113859789"><ele>83.0</ele><time>2026-04-04T12:08:49.999Z</time></trkpt><trkpt lat="45.486693359138904" lon="11.256911566960735"><ele>83.0</ele><time>2026-04-04T12:08:50.999Z</time></trkpt><trkpt lat="45.48679954030453" lon="11.25687555978694"><ele>83.0</ele><time>2026-04-04T12:08:51.999Z</time></trkpt><trkpt lat="45.48691373896353" lon="11.256834701013606"><ele>83.0</ele><time>2026-04-04T12:08:52.999Z</time></trkpt><trkpt lat="45.48703084228516" lon="11.256783874314074"><ele>83.5</ele><time>2026-04-04T12:08:53.999Z</time></trkpt><trkpt lat="45.487153769521306" lon="11.256733567886833"><ele>84.0</ele><time>2026-04-04T12:08:54.999Z</time></trkpt><trkpt lat="45.48727140809896" lon="11.256681463984044"><ele>84.5</ele><time>2026-04-04T12:08:55.999Z</time></trkpt><trkpt lat="45.487401138966995" lon="11.256625311116906"><ele>85.0</ele><time>2026-04-04T12:08:56.999Z</time></trkpt><trkpt lat="45.487539691454074" lon="11.25656639795705"><ele>85.0</ele><time>2026-04-04T12:08:57.999Z</time></trkpt><trkpt lat="45.48767901358777" lon="11.256504693733435"><ele>85.0</ele><time>2026-04-04T12:08:58.999Z</time></trkpt><trkpt lat="45.487826598726194" lon="11.256441038502679"><ele>85.0</ele><time>2026-04-04T12:08:59.999Z</time></trkpt><trkpt lat="45.48797638650387" lon="11.256373744085616"><ele>85.33333333333333</ele><time>2026-04-04T12:09:00.999Z</time></trkpt><trkpt lat="45.48812722023606" lon="11.256307818278652"><ele>85.66666666666667</ele><time>2026-04-04T12:09:01.999Z</time></trkpt><trkpt lat="45.48827651756419" lon="11.256240807890162"><ele>86.0</ele><time>2026-04-04T12:09:02.999Z</time></trkpt><trkpt lat="45.48842280744504" lon="11.256178933673384"><ele>86.0</ele><time>2026-04-04T12:09:03.999Z</time></trkpt><trkpt lat="45.48856933413609" lon="11.256113873909056"><ele>86.0</ele><time>2026-04-04T12:09:04.999Z</time></trkpt><trkpt lat="45.4887184371491" lon="11.256037213478661"><ele>86.0</ele><time>2026-04-04T12:09:05.999Z</time></trkpt><trkpt lat="45.48886913334242" lon="11.255971957441911"><ele>86.33333333333334</ele><time>2026-04-04T12:09:06.999Z</time></trkpt><trkpt lat="45.48902900512914" lon="11.255917438035501"><ele>86.66666666666667</ele><time>2026-04-04T12:09:07.998Z</time></trkpt><trkpt lat="45.48918966942964" lon="11.255865139918058"><ele>87.0</ele><time>2026-04-04T12:09:08.998Z</time></trkpt><trkpt lat="45.489344273211366" lon="11.255836268701021"><ele>87.0</ele><time>2026-04-04T12:09:09.998Z</time></trkpt><trkpt lat="45.489513001903" lon="11.255801335880218"><ele>87.0</ele><time>2026-04-04T12:09:10.998Z</time></trkpt><trkpt lat="45.48968772527912" lon="11.255763618928317"><ele>87.0</ele><time>2026-04-04T12:09:11.998Z</time></trkpt><trkpt lat="45.48985639320982" lon="11.255709544824771"><ele>87.33333333333333</ele><time>2026-04-04T12:09:12.998Z</time></trkpt><trkpt lat="45.49003664938606" lon="11.25565382212844"><ele>87.66666666666666</ele><time>2026-04-04T12:09:13.998Z</time></trkpt><trkpt lat="45.49021931652728" lon="11.25559192710067"><ele>88.0</ele><time>2026-04-04T12:09:14.998Z</time></trkpt><trkpt lat="45.490402655201436" lon="11.25552179298043"><ele>89.0</ele><time>2026-04-04T12:09:15.998Z</time></trkpt><trkpt lat="45.49057071837026" lon="11.255441948043968"><ele>90.0</ele><time>2026-04-04T12:09:16.998Z</time></trkpt><trkpt lat="45.490730711126986" lon="11.255359967453087"><ele>91.0</ele><time>2026-04-04T12:09:17.998Z</time></trkpt><trkpt lat="45.4908917901123" lon="11.255272584662386"><ele>91.0</ele><time>2026-04-04T12:09:18.998Z</time></trkpt><trkpt lat="45.491051888906284" lon="11.255182960903687"><ele>91.0</ele><time>2026-04-04T12:09:19.998Z</time></trkpt><trkpt lat="45.49120396063326" lon="11.255095209548351"><ele>91.0</ele><time>2026-04-04T12:09:20.998Z</time></trkpt><trkpt lat="45.49135364490555" lon="11.254998033275664"><ele>90.66666666666666</ele><time>2026-04-04T12:09:21.998Z</time></trkpt><trkpt lat="45.491501003936214" lon="11.254900117328356"><ele>90.33333333333333</ele><time>2026-04-04T12:09:22.998Z</time></trkpt><trkpt lat="45.49164692249892" lon="11.254803952580101"><ele>90.0</ele><time>2026-04-04T12:09:23.998Z</time></trkpt><trkpt lat="45.49179124084693" lon="11.254712859552043"><ele>90.33333333333333</ele><time>2026-04-04T12:09:24.998Z</time></trkpt><trkpt lat="45.49194065043716" lon="11.2546285033665"><ele>90.66666666666666</ele><time>2026-04-04T12:09:25.998Z</time></trkpt><trkpt lat="45.49208020462558" lon="11.254532147432268"><ele>91.0</ele><time>2026-04-04T12:09:26.998Z</time></trkpt><trkpt lat="45.49223035670255" lon="11.254429911777741"><ele>91.0</ele><time>2026-04-04T12:09:27.998Z</time></trkpt><trkpt lat="45.492380394516864" lon="11.254332960390077"><ele>91.0</ele><time>2026-04-04T12:09:28.998Z</time></trkpt><trkpt lat="45.49253249552522" lon="11.25423364863255"><ele>91.0</ele><time>2026-04-04T12:09:29.998Z</time></trkpt><trkpt lat="45.492685776561196" lon="11.254144644531163"><ele>91.0</ele><time>2026-04-04T12:09:30.998Z</time></trkpt><trkpt lat="45.49284933512576" lon="11.254077395372258"><ele>91.0</ele><time>2026-04-04T12:09:31.998Z</time></trkpt><trkpt lat="45.4930179806221" lon="11.25403002203287"><ele>91.0</ele><time>2026-04-04T12:09:32.998Z</time></trkpt><trkpt lat="45.493192235048" lon="11.25399747253291"><ele>91.33333333333333</ele><time>2026-04-04T12:09:33.998Z</time></trkpt><trkpt lat="45.49335015883192" lon="11.253973181969599"><ele>91.66666666666667</ele><time>2026-04-04T12:09:34.998Z</time></trkpt><trkpt lat="45.493505154136514" lon="11.253960707840474"><ele>92.0</ele><time>2026-04-04T12:09:35.998Z</time></trkpt><trkpt lat="45.49365500037182" lon="11.253944810275486"><ele>92.33333333333334</ele><time>2026-04-04T12:09:36.998Z</time></trkpt><trkpt lat="45.49381190987684" lon="11.253919058313517"><ele>92.66666666666667</ele><time>2026-04-04T12:09:37.998Z</time></trkpt><trkpt lat="45.49396563151988" lon="11.253870809272582"><ele>93.0</ele><time>2026-04-04T12:09:39Z</time></trkpt><trkpt lat="45.49411164663226" lon="11.253810755063459"><ele>93.0</ele><time>2026-04-04T12:09:40Z</time></trkpt><trkpt lat="45.494259678434794" lon="11.253745064552296"><ele>93.0</ele><time>2026-04-04T12:09:41Z</time></trkpt><trkpt lat="45.49441024542133" lon="11.25366852172259"><ele>93.0</ele><time>2026-04-04T12:09:42Z</time></trkpt><trkpt lat="45.49455355699756" lon="11.253591449737234"><ele>94.33333333333334</ele><time>2026-04-04T12:09:43Z</time></trkpt><trkpt lat="45.494698877766325" lon="11.253509438693149"><ele>95.66666666666667</ele><time>2026-04-04T12:09:44Z</time></trkpt><trkpt lat="45.49484608920399" lon="11.25342304519231"><ele>97.0</ele><time>2026-04-04T12:09:45Z</time></trkpt><trkpt lat="45.494986680886555" lon="11.253328981495631"><ele>97.0</ele><time>2026-04-04T12:09:46Z</time></trkpt><trkpt lat="45.49512197144724" lon="11.253235019786267"><ele>97.0</ele><time>2026-04-04T12:09:47Z</time></trkpt><trkpt lat="45.4952573977221" lon="11.253146180546"><ele>97.0</ele><time>2026-04-04T12:09:48Z</time></trkpt><trkpt lat="45.49539184164783" lon="11.253066756032712"><ele>97.0</ele><time>2026-04-04T12:09:49Z</time></trkpt><trkpt lat="45.495507970322414" lon="11.252996627171669"><ele>97.0</ele><time>2026-04-04T12:09:50Z</time></trkpt><trkpt lat="45.49561038789961" lon="11.252932900316306"><ele>97.0</ele><time>2026-04-04T12:09:51Z</time></trkpt><trkpt lat="45.49570596724138" lon="11.25287906733946"><ele>97.0</ele><time>2026-04-04T12:09:52Z</time></trkpt><trkpt lat="45.4957866221035" lon="11.252831932627494"><ele>97.0</ele><time>2026-04-04T12:09:53Z</time></trkpt><trkpt lat="45.495860164306954" lon="11.25278957560395"><ele>97.0</ele><time>2026-04-04T12:09:54Z</time></trkpt><trkpt lat="45.49594495287462" lon="11.252746899414182"><ele>97.0</ele><time>2026-04-04T12:09:55Z</time></trkpt><trkpt lat="45.496035846713" lon="11.25269537229712"><ele>97.0</ele><time>2026-04-04T12:09:56Z</time></trkpt><trkpt lat="45.49613712926443" lon="11.252643067601102"><ele>97.0</ele><time>2026-04-04T12:09:57Z</time></trkpt><trkpt lat="45.49624634530743" lon="11.2525796670184"><ele>97.0</ele><time>2026-04-04T12:09:58Z</time></trkpt><trkpt lat="45.49635877089059" lon="11.252513821914622"><ele>97.0</ele><time>2026-04-04T12:09:59Z</time></trkpt><trkpt lat="45.496485842756584" lon="11.252445032213492"><ele>98.0</ele><time>2026-04-04T12:10:00Z</time></trkpt><trkpt lat="45.49661766803356" lon="11.252373385829816"><ele>99.0</ele><time>2026-04-04T12:10:01Z</time></trkpt><trkpt lat="45.49675479774527" lon="11.252291564402844"><ele>100.0</ele><time>2026-04-04T12:10:02Z</time></trkpt><trkpt lat="45.496895177415404" lon="11.25219691046051"><ele>101.0</ele><time>2026-04-04T12:10:03Z</time></trkpt><trkpt lat="45.49702756153186" lon="11.252084015105202"><ele>102.5</ele><time>2026-04-04T12:10:04Z</time></trkpt><trkpt lat="45.497145149264675" lon="11.251954135238266"><ele>104.0</ele><time>2026-04-04T12:10:05Z</time></trkpt><trkpt lat="45.49724638888739" lon="11.251808549596094"><ele>105.5</ele><time>2026-04-04T12:10:06Z</time></trkpt><trkpt lat="45.49733642219386" lon="11.251660962891474"><ele>107.0</ele><time>2026-04-04T12:10:07Z</time></trkpt><trkpt lat="45.497418753157326" lon="11.251500254246576"><ele>106.25</ele><time>2026-04-04T12:10:08Z</time></trkpt><trkpt lat="45.49749813372003" lon="11.251329406193266"><ele>105.5</ele><time>2026-04-04T12:10:09Z</time></trkpt><trkpt lat="45.49757532483639" lon="11.251154404597253"><ele>104.75</ele><time>2026-04-04T12:10:10Z</time></trkpt><trkpt lat="45.497651013437185" lon="11.250978138978368"><ele>104.0</ele><time>2026-04-04T12:10:11Z</time></trkpt><trkpt lat="45.49772472825469" lon="11.250804090102342"><ele>104.0</ele><time>2026-04-04T12:10:12Z</time></trkpt><trkpt lat="45.49780166049964" lon="11.25062611646671"><ele>104.0</ele><time>2026-04-04T12:10:13Z</time></trkpt><trkpt lat="45.49787711083527" lon="11.250446391393947"><ele>104.0</ele><time>2026-04-04T12:10:14Z</time></trkpt><trkpt lat="45.49795505469415" lon="11.250265938302155"><ele>104.0</ele><time>2026-04-04T12:10:15Z</time></trkpt><trkpt lat="45.49803533037512" lon="11.250079834717685"><ele>105.33333333333333</ele><time>2026-04-04T12:10:16Z</time></trkpt><trkpt lat="45.49811848653901" lon="11.249889434033868"><ele>106.66666666666666</ele><time>2026-04-04T12:10:17Z</time></trkpt><trkpt lat="45.49819926567743" lon="11.24970793646803"><ele>108.0</ele><time>2026-04-04T12:10:18Z</time></trkpt><trkpt lat="45.49828085675006" lon="11.249516789670892"><ele>108.0</ele><time>2026-04-04T12:10:19Z</time></trkpt><trkpt lat="45.4983633523804" lon="11.249323501832135"><ele>108.0</ele><time>2026-04-04T12:10:20Z</time></trkpt><trkpt lat="45.49845162432439" lon="11.249132929445997"><ele>108.0</ele><time>2026-04-04T12:10:21Z</time></trkpt><trkpt lat="45.498544769325505" lon="11.248941708407077"><ele>107.33333333333334</ele><time>2026-04-04T12:10:21.999Z</time></trkpt><trkpt lat="45.498645259897295" lon="11.248750421809378"><ele>106.66666666666667</ele><time>2026-04-04T12:10:22.999Z</time></trkpt><trkpt lat="45.49875489330567" lon="11.248568283666703"><ele>106.0</ele><time>2026-04-04T12:10:23.999Z</time></trkpt><trkpt lat="45.498873753335594" lon="11.248390695842598"><ele>107.33333333333334</ele><time>2026-04-04T12:10:24.999Z</time></trkpt><trkpt lat="45.49899766844354" lon="11.248225135084562"><ele>108.66666666666666</ele><time>2026-04-04T12:10:25.999Z</time></trkpt><trkpt lat="45.499122594628716" lon="11.248058966179492"><ele>110.0</ele><time>2026-04-04T12:10:26.999Z</time></trkpt><trkpt lat="45.49925072940614" lon="11.247891041631194"><ele>110.0</ele><time>2026-04-04T12:10:27.999Z</time></trkpt><trkpt lat="45.49938014868476" lon="11.247737129925397"><ele>110.0</ele><time>2026-04-04T12:10:28.999Z</time></trkpt><trkpt lat="45.499510484868814" lon="11.24759917699289"><ele>110.0</ele><time>2026-04-04T12:10:29.999Z</time></trkpt><trkpt lat="45.499644301916064" lon="11.247474542245849"><ele>110.33333333333333</ele><time>2026-04-04T12:10:30.999Z</time></trkpt><trkpt lat="45.49978154534033" lon="11.247354100259807"><ele>110.66666666666666</ele><time>2026-04-04T12:10:31.999Z</time></trkpt><trkpt lat="45.499922560916005" lon="11.247232662348994"><ele>111.0</ele><time>2026-04-04T12:10:32.999Z</time></trkpt><trkpt lat="45.50007085069766" lon="11.24712436011503"><ele>111.0</ele><time>2026-04-04T12:10:33.999Z</time></trkpt><trkpt lat="45.5002263720655" lon="11.24701829800448"><ele>111.0</ele><time>2026-04-04T12:10:34.999Z</time></trkpt><trkpt lat="45.50038833466573" lon="11.246916758206247"><ele>111.0</ele><time>2026-04-04T12:10:35.999Z</time></trkpt><trkpt lat="45.50056391070982" lon="11.246828308989928"><ele>111.66666666666666</ele><time>2026-04-04T12:10:36.999Z</time></trkpt><trkpt lat="45.50072576303291" lon="11.24675667760823"><ele>112.33333333333333</ele><time>2026-04-04T12:10:37.999Z</time></trkpt><trkpt lat="45.5008675322402" lon="11.246695960977469"><ele>113.0</ele><time>2026-04-04T12:10:38.999Z</time></trkpt><trkpt lat="45.50101190192502" lon="11.246651310353998"><ele>113.0</ele><time>2026-04-04T12:10:39.999Z</time></trkpt><trkpt lat="45.50116538116376" lon="11.246600708284609"><ele>113.0</ele><time>2026-04-04T12:10:40.999Z</time></trkpt><trkpt lat="45.501332207916484" lon="11.246551883227184"><ele>113.0</ele><time>2026-04-04T12:10:41.999Z</time></trkpt><trkpt lat="45.501505318823526" lon="11.24649454029368"><ele>114.33333333333333</ele><time>2026-04-04T12:10:42.999Z</time></trkpt><trkpt lat="45.50167285917433" lon="11.246440895637258"><ele>115.66666666666666</ele><time>2026-04-04T12:10:43.999Z</time></trkpt><trkpt lat="45.501851377176564" lon="11.24638083080558"><ele>117.0</ele><time>2026-04-04T12:10:44.999Z</time></trkpt><trkpt lat="45.502039195048525" lon="11.246310369635108"><ele>117.33333333333334</ele><time>2026-04-04T12:10:45.999Z</time></trkpt><trkpt lat="45.502238478666264" lon="11.246244506651434"><ele>117.66666666666667</ele><time>2026-04-04T12:10:46.999Z</time></trkpt><trkpt lat="45.50245999414869" lon="11.246186745334581"><ele>118.0</ele><time>2026-04-04T12:10:47.999Z</time></trkpt><trkpt lat="45.50269030930507" lon="11.246128171819459"><ele>118.5</ele><time>2026-04-04T12:10:48.999Z</time></trkpt><trkpt lat="45.502923462127384" lon="11.24605284799854"><ele>119.0</ele><time>2026-04-04T12:10:49.999Z</time></trkpt><trkpt lat="45.50316020470737" lon="11.245978477427242"><ele>119.0</ele><time>2026-04-04T12:10:50.999Z</time></trkpt><trkpt lat="45.503394248862925" lon="11.245903906553734"><ele>119.0</ele><time>2026-04-04T12:10:51.999Z</time></trkpt><trkpt lat="45.503606105445904" lon="11.24582957531359"><ele>121.0</ele><time>2026-04-04T12:10:52.999Z</time></trkpt><trkpt lat="45.503788752015815" lon="11.245768305870897"><ele>123.0</ele><time>2026-04-04T12:10:53.999Z</time></trkpt><trkpt lat="45.50395320508246" lon="11.245712725581061"><ele>125.0</ele><time>2026-04-04T12:10:54.999Z</time></trkpt><trkpt lat="45.504104515167406" lon="11.245668037265164"><ele>124.25</ele><time>2026-04-04T12:10:55.999Z</time></trkpt><trkpt lat="45.50424732099414" lon="11.245623699043461"><ele>123.5</ele><time>2026-04-04T12:10:56.999Z</time></trkpt><trkpt lat="45.50437775772617" lon="11.245577427965136"><ele>122.75</ele><time>2026-04-04T12:10:57.999Z</time></trkpt><trkpt lat="45.50450840535279" lon="11.245533393486433"><ele>122.0</ele><time>2026-04-04T12:10:58.999Z</time></trkpt><trkpt lat="45.504651483602096" lon="11.245487546807542"><ele>124.0</ele><time>2026-04-04T12:10:59.999Z</time></trkpt><trkpt lat="45.504794882325584" lon="11.24544425686328"><ele>126.0</ele><time>2026-04-04T12:11:00.999Z</time></trkpt><trkpt lat="45.504944681574656" lon="11.245404407373016"><ele>128.0</ele><time>2026-04-04T12:11:01.999Z</time></trkpt><trkpt lat="45.505106342601096" lon="11.245371677072145"><ele>128.0</ele><time>2026-04-04T12:11:02.999Z</time></trkpt><trkpt lat="45.505269646690195" lon="11.245357493179673"><ele>128.0</ele><time>2026-04-04T12:11:03.999Z</time></trkpt><trkpt lat="45.50543297824234" lon="11.245347779838134"><ele>128.0</ele><time>2026-04-04T12:11:04.999Z</time></trkpt><trkpt lat="45.50558912612337" lon="11.245350530621417"><ele>128.33333333333331</ele><time>2026-04-04T12:11:05.999Z</time></trkpt><trkpt lat="45.50574213071527" lon="11.245356125809366"><ele>128.66666666666666</ele><time>2026-04-04T12:11:06.999Z</time></trkpt><trkpt lat="45.50589473555018" lon="11.245368846414058"><ele>129.0</ele><time>2026-04-04T12:11:07.999Z</time></trkpt><trkpt lat="45.50605026463952" lon="11.245381013194866"><ele>129.0</ele><time>2026-04-04T12:11:08.999Z</time></trkpt><trkpt lat="45.506209892833176" lon="11.245386335007927"><ele>129.0</ele><time>2026-04-04T12:11:09.999Z</time></trkpt><trkpt lat="45.5063707669075" lon="11.245370641237775"><ele>129.0</ele><time>2026-04-04T12:11:10.999Z</time></trkpt><trkpt lat="45.5065345403739" lon="11.245335669125904"><ele>129.0</ele><time>2026-04-04T12:11:11.999Z</time></trkpt><trkpt lat="45.50670437031992" lon="11.245295811583905"><ele>129.0</ele><time>2026-04-04T12:11:12.999Z</time></trkpt><trkpt lat="45.506873086044614" lon="11.245241046165859"><ele>129.0</ele><time>2026-04-04T12:11:13.999Z</time></trkpt><trkpt lat="45.50705045482035" lon="11.245181373415942"><ele>129.33333333333334</ele><time>2026-04-04T12:11:14.999Z</time></trkpt><trkpt lat="45.507226904538584" lon="11.245108998362909"><ele>129.66666666666669</ele><time>2026-04-04T12:11:15.999Z</time></trkpt><trkpt lat="45.50740433796766" lon="11.245032166551953"><ele>130.0</ele><time>2026-04-04T12:11:16.999Z</time></trkpt><trkpt lat="45.50758209299883" lon="11.244964767952224"><ele>130.0</ele><time>2026-04-04T12:11:17.999Z</time></trkpt><trkpt lat="45.50776185366538" lon="11.244904521198908"><ele>130.0</ele><time>2026-04-04T12:11:18.998Z</time></trkpt><trkpt lat="45.50793906526526" lon="11.244840484101713"><ele>130.0</ele><time>2026-04-04T12:11:19.998Z</time></trkpt><trkpt lat="45.50811091696868" lon="11.24477653605563"><ele>131.66666666666669</ele><time>2026-04-04T12:11:20.998Z</time></trkpt><trkpt lat="45.508286574192084" lon="11.244707819591833"><ele>133.33333333333334</ele><time>2026-04-04T12:11:21.998Z</time></trkpt><trkpt lat="45.50846036988113" lon="11.244646598545556"><ele>135.0</ele><time>2026-04-04T12:11:22.998Z</time></trkpt><trkpt lat="45.50863129904403" lon="11.244587532090737"><ele>135.33333333333334</ele><time>2026-04-04T12:11:23.998Z</time></trkpt><trkpt lat="45.50880405487604" lon="11.244527455413364"><ele>135.66666666666669</ele><time>2026-04-04T12:11:24.998Z</time></trkpt><trkpt lat="45.50897245469873" lon="11.24446148974039"><ele>136.0</ele><time>2026-04-04T12:11:25.998Z</time></trkpt><trkpt lat="45.50913686809324" lon="11.244402915636204"><ele>136.0</ele><time>2026-04-04T12:11:26.998Z</time></trkpt><trkpt lat="45.50930060565886" lon="11.244342547261368"><ele>136.0</ele><time>2026-04-04T12:11:27.998Z</time></trkpt><trkpt lat="45.509466916598186" lon="11.24428035878458"><ele>136.0</ele><time>2026-04-04T12:11:28.998Z</time></trkpt><trkpt lat="45.50963633362367" lon="11.244223135869627"><ele>137.66666666666669</ele><time>2026-04-04T12:11:29.998Z</time></trkpt><trkpt lat="45.509806129078655" lon="11.244155456748357"><ele>139.33333333333334</ele><time>2026-04-04T12:11:30.998Z</time></trkpt><trkpt lat="45.50997687646608" lon="11.244070506500977"><ele>141.0</ele><time>2026-04-04T12:11:31.998Z</time></trkpt><trkpt lat="45.510143505788385" lon="11.24397057191227"><ele>140.33333333333334</ele><time>2026-04-04T12:11:32.998Z</time></trkpt><trkpt lat="45.51031054168532" lon="11.243849826149484"><ele>139.66666666666669</ele><time>2026-04-04T12:11:33.998Z</time></trkpt><trkpt lat="45.51046639611631" lon="11.243702363221995"><ele>139.0</ele><time>2026-04-04T12:11:34.998Z</time></trkpt><trkpt lat="45.51062151763371" lon="11.243553842940749"><ele>140.0</ele><time>2026-04-04T12:11:35.998Z</time></trkpt><trkpt lat="45.510773633614725" lon="11.243392825767971"><ele>141.0</ele><time>2026-04-04T12:11:36.998Z</time></trkpt><trkpt lat="45.510919364834756" lon="11.24323186424996"><ele>142.0</ele><time>2026-04-04T12:11:37.998Z</time></trkpt><trkpt lat="45.51106327351557" lon="11.243083790524206"><ele>142.0</ele><time>2026-04-04T12:11:38.998Z</time></trkpt><trkpt lat="45.51121222669378" lon="11.242943472427967"><ele>142.0</ele><time>2026-04-04T12:11:39.998Z</time></trkpt><trkpt lat="45.5113543292305" lon="11.242797033586507"><ele>142.0</ele><time>2026-04-04T12:11:40.998Z</time></trkpt><trkpt lat="45.511493838849866" lon="11.242641725530245"><ele>143.0</ele><time>2026-04-04T12:11:41.998Z</time></trkpt><trkpt lat="45.51162734109417" lon="11.242495118987339"><ele>144.0</ele><time>2026-04-04T12:11:42.998Z</time></trkpt><trkpt lat="45.51175803914219" lon="11.242352469291866"><ele>145.0</ele><time>2026-04-04T12:11:43.998Z</time></trkpt><trkpt lat="45.51188299601587" lon="11.242207732817567"><ele>145.0</ele><time>2026-04-04T12:11:45Z</time></trkpt><trkpt lat="45.51201595120953" lon="11.24206163393902"><ele>145.0</ele><time>2026-04-04T12:11:46Z</time></trkpt><trkpt lat="45.51215470800299" lon="11.241912186899606"><ele>145.0</ele><time>2026-04-04T12:11:47Z</time></trkpt><trkpt lat="45.51229567744301" lon="11.241749765422961"><ele>145.66666666666669</ele><time>2026-04-04T12:11:48Z</time></trkpt><trkpt lat="45.51243315412321" lon="11.241582767646506"><ele>146.33333333333334</ele><time>2026-04-04T12:11:49Z</time></trkpt><trkpt lat="45.51255118526364" lon="11.241422459318931"><ele>147.0</ele><time>2026-04-04T12:11:50Z</time></trkpt><trkpt lat="45.51266028434199" lon="11.24125856758085"><ele>147.0</ele><time>2026-04-04T12:11:51Z</time></trkpt><trkpt lat="45.51276937517845" lon="11.241059980290226"><ele>147.0</ele><time>2026-04-04T12:11:52Z</time></trkpt><trkpt lat="45.51285644929671" lon="11.240823599180024"><ele>147.0</ele><time>2026-04-04T12:11:53Z</time></trkpt><trkpt lat="45.512945175976114" lon="11.240569877012407"><ele>148.33333333333334</ele><time>2026-04-04T12:11:54Z</time></trkpt><trkpt lat="45.51304035065455" lon="11.240331607858366"><ele>149.66666666666669</ele><time>2026-04-04T12:11:55Z</time></trkpt><trkpt lat="45.513130473751765" lon="11.240114388682352"><ele>151.0</ele><time>2026-04-04T12:11:56Z</time></trkpt><trkpt lat="45.51323509137819" lon="11.23990232143164"><ele>150.0</ele><time>2026-04-04T12:11:57Z</time></trkpt><trkpt lat="45.51336698956558" lon="11.239718039229395"><ele>149.0</ele><time>2026-04-04T12:11:58Z</time></trkpt><trkpt lat="45.513515843582674" lon="11.239535362343318"><ele>148.0</ele><time>2026-04-04T12:11:59Z</time></trkpt><trkpt lat="45.51368271144337" lon="11.239384615647552"><ele>149.66666666666669</ele><time>2026-04-04T12:12:00Z</time></trkpt><trkpt lat="45.51384949383265" lon="11.239245674371304"><ele>151.33333333333334</ele><time>2026-04-04T12:12:01Z</time></trkpt><trkpt lat="45.514023561935886" lon="11.239115063868775"><ele>153.0</ele><time>2026-04-04T12:12:02Z</time></trkpt><trkpt lat="45.51418134698398" lon="11.23899008308304"><ele>152.0</ele><time>2026-04-04T12:12:03Z</time></trkpt><trkpt lat="45.5143399012854" lon="11.238864759332785"><ele>151.0</ele><time>2026-04-04T12:12:04Z</time></trkpt><trkpt lat="45.51450553989231" lon="11.2387407793161"><ele>150.0</ele><time>2026-04-04T12:12:05Z</time></trkpt><trkpt lat="45.5146734633859" lon="11.238608756306357"><ele>152.0</ele><time>2026-04-04T12:12:06Z</time></trkpt><trkpt lat="45.51484303674517" lon="11.238464513072767"><ele>154.0</ele><time>2026-04-04T12:12:07Z</time></trkpt><trkpt lat="45.51500954421164" lon="11.238312013086233"><ele>156.0</ele><time>2026-04-04T12:12:08Z</time></trkpt><trkpt lat="45.515172571838505" lon="11.238150774992974"><ele>155.66666666666666</ele><time>2026-04-04T12:12:09Z</time></trkpt><trkpt lat="45.51533641298964" lon="11.237992187870036"><ele>155.33333333333331</ele><time>2026-04-04T12:12:10Z</time></trkpt><trkpt lat="45.51549354810034" lon="11.237832896719713"><ele>155.0</ele><time>2026-04-04T12:12:11Z</time></trkpt><trkpt lat="45.51565588300445" lon="11.23767081947281"><ele>155.66666666666666</ele><time>2026-04-04T12:12:12Z</time></trkpt><trkpt lat="45.51582067155819" lon="11.237502749199221"><ele>156.33333333333334</ele><time>2026-04-04T12:12:13Z</time></trkpt><trkpt lat="45.51598569413274" lon="11.237335950251966"><ele>157.0</ele><time>2026-04-04T12:12:14Z</time></trkpt><trkpt lat="45.516136577592384" lon="11.237176233322206"><ele>157.66666666666669</ele><time>2026-04-04T12:12:15Z</time></trkpt><trkpt lat="45.51626880162239" lon="11.23703549449833"><ele>158.33333333333334</ele><time>2026-04-04T12:12:16Z</time></trkpt><trkpt lat="45.516396568439774" lon="11.236901994377607"><ele>159.0</ele><time>2026-04-04T12:12:17Z</time></trkpt><trkpt lat="45.51651567966624" lon="11.23677752818282"><ele>159.0</ele><time>2026-04-04T12:12:18Z</time></trkpt><trkpt lat="45.51663249335939" lon="11.236664585449077"><ele>159.0</ele><time>2026-04-04T12:12:19Z</time></trkpt><trkpt lat="45.51675061262931" lon="11.23653801228241"><ele>159.0</ele><time>2026-04-04T12:12:20Z</time></trkpt><trkpt lat="45.51688351893644" lon="11.236412778696305"><ele>159.0</ele><time>2026-04-04T12:12:21Z</time></trkpt><trkpt lat="45.51702071588791" lon="11.236285316484148"><ele>160.33333333333334</ele><time>2026-04-04T12:12:22Z</time></trkpt><trkpt lat="45.51716478379366" lon="11.236168169589835"><ele>161.66666666666669</ele><time>2026-04-04T12:12:23Z</time></trkpt><trkpt lat="45.517311398421725" lon="11.236044162872913"><ele>163.0</ele><time>2026-04-04T12:12:24Z</time></trkpt><trkpt lat="45.51746560739998" lon="11.235922149087896"><ele>163.0</ele><time>2026-04-04T12:12:24.999Z</time></trkpt><trkpt lat="45.51761839177971" lon="11.235796705358126"><ele>163.0</ele><time>2026-04-04T12:12:25.999Z</time></trkpt><trkpt lat="45.51776918912753" lon="11.235674644848382"><ele>163.0</ele><time>2026-04-04T12:12:26.999Z</time></trkpt><trkpt lat="45.517916365518964" lon="11.235569174040304"><ele>163.33333333333334</ele><time>2026-04-04T12:12:27.999Z</time></trkpt><trkpt lat="45.518056814583666" lon="11.235469940444077"><ele>163.66666666666666</ele><time>2026-04-04T12:12:28.999Z</time></trkpt><trkpt lat="45.51820444381501" lon="11.235370124143481"><ele>164.0</ele><time>2026-04-04T12:12:29.999Z</time></trkpt><trkpt lat="45.51835988704714" lon="11.235279767055465"><ele>164.0</ele><time>2026-04-04T12:12:30.999Z</time></trkpt><trkpt lat="45.5185202889679" lon="11.235203094816935"><ele>164.0</ele><time>2026-04-04T12:12:31.999Z</time></trkpt><trkpt lat="45.51868631764419" lon="11.235134734072332"><ele>164.0</ele><time>2026-04-04T12:12:32.999Z</time></trkpt><trkpt lat="45.51884844858771" lon="11.235072655934296"><ele>165.33333333333331</ele><time>2026-04-04T12:12:33.999Z</time></trkpt><trkpt lat="45.51901048576859" lon="11.235015744967649"><ele>166.66666666666666</ele><time>2026-04-04T12:12:34.999Z</time></trkpt><trkpt lat="45.51917255393743" lon="11.23496255177553"><ele>168.0</ele><time>2026-04-04T12:12:35.999Z</time></trkpt><trkpt lat="45.51932400546382" lon="11.23490439892357"><ele>168.0</ele><time>2026-04-04T12:12:36.999Z</time></trkpt><trkpt lat="45.519477114548216" lon="11.234843954240828"><ele>168.0</ele><time>2026-04-04T12:12:37.999Z</time></trkpt><trkpt lat="45.519626385655165" lon="11.234784578116324"><ele>168.0</ele><time>2026-04-04T12:12:38.999Z</time></trkpt><trkpt lat="45.519763439645615" lon="11.234733410550682"><ele>168.25</ele><time>2026-04-04T12:12:39.999Z</time></trkpt><trkpt lat="45.519888852183946" lon="11.23468777399091"><ele>168.5</ele><time>2026-04-04T12:12:40.999Z</time></trkpt><trkpt lat="45.520005400538466" lon="11.234648157515913"><ele>168.75</ele><time>2026-04-04T12:12:41.999Z</time></trkpt><trkpt lat="45.52011062574987" lon="11.234608895810158"><ele>169.0</ele><time>2026-04-04T12:12:42.999Z</time></trkpt><trkpt lat="45.52020800247791" lon="11.234572061932624"><ele>169.0</ele><time>2026-04-04T12:12:43.999Z</time></trkpt><trkpt lat="45.52029208578764" lon="11.234528630726782"><ele>169.0</ele><time>2026-04-04T12:12:44.999Z</time></trkpt><trkpt lat="45.520373943548165" lon="11.234493957350512"><ele>169.0</ele><time>2026-04-04T12:12:45.999Z</time></trkpt><trkpt lat="45.52044844195722" lon="11.23446190890017"><ele>169.0</ele><time>2026-04-04T12:12:46.999Z</time></trkpt><trkpt lat="45.52051403335748" lon="11.234434341419488"><ele>169.0</ele><time>2026-04-04T12:12:47.999Z</time></trkpt><trkpt lat="45.520582574842244" lon="11.234405979548148"><ele>169.0</ele><time>2026-04-04T12:12:48.999Z</time></trkpt><trkpt lat="45.52064333819233" lon="11.234376051436628"><ele>169.79999999999998</ele><time>2026-04-04T12:12:49.999Z</time></trkpt><trkpt lat="45.520768300465534" lon="11.234351134102354"><ele>170.6</ele><time>2026-04-04T12:12:51.999Z</time></trkpt><trkpt lat="45.52084274134037" lon="11.234340972017735"><ele>171.4</ele><time>2026-04-04T12:12:52.999Z</time></trkpt><trkpt lat="45.52092954983055" lon="11.23429208479214"><ele>172.2</ele><time>2026-04-04T12:12:53.999Z</time></trkpt><trkpt lat="45.52101627225015" lon="11.23420165142217"><ele>173.0</ele><time>2026-04-04T12:12:54.999Z</time></trkpt><trkpt lat="45.521089757622256" lon="11.2341148428514"><ele>173.0</ele><time>2026-04-04T12:12:55.999Z</time></trkpt><trkpt lat="45.52118424029146" lon="11.234047366856663"><ele>173.0</ele><time>2026-04-04T12:12:56.999Z</time></trkpt><trkpt lat="45.521290360644066" lon="11.233986301363682"><ele>173.0</ele><time>2026-04-04T12:12:57.999Z</time></trkpt><trkpt lat="45.521406292362336" lon="11.233933575121393"><ele>173.0</ele><time>2026-04-04T12:12:58.999Z</time></trkpt><trkpt lat="45.521519421216105" lon="11.233883761737392"><ele>173.75</ele><time>2026-04-04T12:12:59.999Z</time></trkpt><trkpt lat="45.521637059269736" lon="11.233844557783293"><ele>174.5</ele><time>2026-04-04T12:13:00.999Z</time></trkpt><trkpt lat="45.52175943140115" lon="11.233814856683475"><ele>175.25</ele><time>2026-04-04T12:13:01.999Z</time></trkpt><trkpt lat="45.521893252795635" lon="11.233798633176544"><ele>176.0</ele><time>2026-04-04T12:13:02.999Z</time></trkpt><trkpt lat="45.52203857328494" lon="11.233791239208422"><ele>176.33333333333331</ele><time>2026-04-04T12:13:03.999Z</time></trkpt><trkpt lat="45.522195652891796" lon="11.23379716615943"><ele>176.66666666666666</ele><time>2026-04-04T12:13:04.999Z</time></trkpt><trkpt lat="45.52236147274135" lon="11.233806653155856"><ele>177.0</ele><time>2026-04-04T12:13:05.999Z</time></trkpt><trkpt lat="45.52253057453485" lon="11.233804137869857"><ele>177.0</ele><time>2026-04-04T12:13:06.999Z</time></trkpt><trkpt lat="45.52270766884369" lon="11.233798196391362"><ele>177.0</ele><time>2026-04-04T12:13:07.999Z</time></trkpt><trkpt lat="45.52289845887246" lon="11.233798578792785"><ele>177.0</ele><time>2026-04-04T12:13:08.999Z</time></trkpt><trkpt lat="45.523101747932344" lon="11.233810991477219"><ele>178.0</ele><time>2026-04-04T12:13:09.999Z</time></trkpt><trkpt lat="45.52331695509899" lon="11.23382996155087"><ele>179.0</ele><time>2026-04-04T12:13:10.999Z</time></trkpt><trkpt lat="45.523538346521725" lon="11.233841521559775"><ele>180.0</ele><time>2026-04-04T12:13:11.999Z</time></trkpt><trkpt lat="45.52373711779651" lon="11.233853727120787"><ele>181.0</ele><time>2026-04-04T12:13:12.999Z</time></trkpt><trkpt lat="45.52391897683062" lon="11.233855443175269"><ele>182.0</ele><time>2026-04-04T12:13:13.999Z</time></trkpt><trkpt lat="45.52409225900949" lon="11.233852239317011"><ele>183.0</ele><time>2026-04-04T12:13:14.999Z</time></trkpt><trkpt lat="45.524269602628955" lon="11.233858012082171"><ele>183.0</ele><time>2026-04-04T12:13:15.999Z</time></trkpt><trkpt lat="45.52444316432201" lon="11.233847690741703"><ele>183.0</ele><time>2026-04-04T12:13:16.999Z</time></trkpt><trkpt lat="45.52462108608424" lon="11.233835700183345"><ele>183.0</ele><time>2026-04-04T12:13:17.999Z</time></trkpt><trkpt lat="45.524793282948394" lon="11.233813441729728"><ele>183.66666666666666</ele><time>2026-04-04T12:13:18.999Z</time></trkpt><trkpt lat="45.52496897104423" lon="11.233780749084408"><ele>184.33333333333331</ele><time>2026-04-04T12:13:19.999Z</time></trkpt><trkpt lat="45.52515583771088" lon="11.233755523695777"><ele>185.0</ele><time>2026-04-04T12:13:20.998Z</time></trkpt><trkpt lat="45.52534284077156" lon="11.233728955472554"><ele>185.66666666666666</ele><time>2026-04-04T12:13:21.998Z</time></trkpt><trkpt lat="45.525533441316696" lon="11.23370608615391"><ele>186.33333333333334</ele><time>2026-04-04T12:13:22.998Z</time></trkpt><trkpt lat="45.52572246423197" lon="11.233677513036405"><ele>187.0</ele><time>2026-04-04T12:13:23.998Z</time></trkpt><trkpt lat="45.525905471529" lon="11.233650959007834"><ele>187.0</ele><time>2026-04-04T12:13:24.998Z</time></trkpt><trkpt lat="45.52608992621466" lon="11.23362815761639"><ele>187.0</ele><time>2026-04-04T12:13:25.998Z</time></trkpt><trkpt lat="45.5262718619686" lon="11.23360233793926"><ele>187.0</ele><time>2026-04-04T12:13:26.998Z</time></trkpt><trkpt lat="45.526449999678256" lon="11.23358147510234"><ele>188.0</ele><time>2026-04-04T12:13:27.998Z</time></trkpt><trkpt lat="45.526628606346605" lon="11.23355636167987"><ele>189.0</ele><time>2026-04-04T12:13:28.998Z</time></trkpt><trkpt lat="45.52680467138854" lon="11.233527087328191"><ele>190.0</ele><time>2026-04-04T12:13:29.998Z</time></trkpt><trkpt lat="45.52698397810071" lon="11.233504483379308"><ele>191.0</ele><time>2026-04-04T12:13:30.998Z</time></trkpt><trkpt lat="45.52716370711662" lon="11.233486148099155"><ele>192.0</ele><time>2026-04-04T12:13:31.998Z</time></trkpt><trkpt lat="45.527336165614805" lon="11.233465223207906"><ele>193.0</ele><time>2026-04-04T12:13:32.998Z</time></trkpt><trkpt lat="45.52748586039608" lon="11.233448516414969"><ele>193.0</ele><time>2026-04-04T12:13:33.998Z</time></trkpt><trkpt lat="45.527619027174424" lon="11.233441358194746"><ele>193.0</ele><time>2026-04-04T12:13:34.998Z</time></trkpt><trkpt lat="45.527738145170936" lon="11.233431353229927"><ele>193.0</ele><time>2026-04-04T12:13:35.998Z</time></trkpt><trkpt lat="45.52784601946735" lon="11.233429209272307"><ele>193.0</ele><time>2026-04-04T12:13:36.998Z</time></trkpt><trkpt lat="45.52794582772079" lon="11.23343445656439"><ele>193.4</ele><time>2026-04-04T12:13:37.998Z</time></trkpt><trkpt lat="45.528037670185924" lon="11.233452023129024"><ele>193.8</ele><time>2026-04-04T12:13:38.998Z</time></trkpt><trkpt lat="45.52811438627332" lon="11.233503849687352"><ele>194.2</ele><time>2026-04-04T12:13:39.998Z</time></trkpt><trkpt lat="45.52818543175347" lon="11.233567892638327"><ele>194.6</ele><time>2026-04-04T12:13:40.998Z</time></trkpt><trkpt lat="45.5282329320852" lon="11.233687022375204"><ele>195.0</ele><time>2026-04-04T12:13:41.998Z</time></trkpt><trkpt lat="45.52832284909942" lon="11.23373313828707"><ele>195.0</ele><time>2026-04-04T12:13:42.998Z</time></trkpt><trkpt lat="45.52844597658556" lon="11.233709145391382"><ele>195.0</ele><time>2026-04-04T12:13:43.998Z</time></trkpt><trkpt lat="45.528585814319385" lon="11.233622502519278"><ele>195.0</ele><time>2026-04-04T12:13:44.998Z</time></trkpt><trkpt lat="45.52873188785981" lon="11.233519274862038"><ele>195.0</ele><time>2026-04-04T12:13:45.998Z</time></trkpt><trkpt lat="45.5288806400688" lon="11.233442733366186"><ele>196.33333333333331</ele><time>2026-04-04T12:13:46.998Z</time></trkpt><trkpt lat="45.52902732817929" lon="11.233386740960102"><ele>197.66666666666666</ele><time>2026-04-04T12:13:47.998Z</time></trkpt><trkpt lat="45.529188171074765" lon="11.233339160786207"><ele>199.0</ele><time>2026-04-04T12:13:48.998Z</time></trkpt><trkpt lat="45.52936966946252" lon="11.233308367556425"><ele>199.66666666666666</ele><time>2026-04-04T12:13:49.998Z</time></trkpt><trkpt lat="45.529560432644075" lon="11.233303170739504"><ele>200.33333333333331</ele><time>2026-04-04T12:13:51Z</time></trkpt><trkpt lat="45.52974916682931" lon="11.233310473193566"><ele>201.0</ele><time>2026-04-04T12:13:52Z</time></trkpt><trkpt lat="45.52993978412751" lon="11.233307358529782"><ele>201.0</ele><time>2026-04-04T12:13:53Z</time></trkpt><trkpt lat="45.53012761192346" lon="11.233296654576968"><ele>201.0</ele><time>2026-04-04T12:13:54Z</time></trkpt><trkpt lat="45.53030822320739" lon="11.233297067932837"><ele>201.0</ele><time>2026-04-04T12:13:55Z</time></trkpt><trkpt lat="45.53048281771493" lon="11.233292394451452"><ele>202.0</ele><time>2026-04-04T12:13:56Z</time></trkpt><trkpt lat="45.53065196352802" lon="11.23327422718372"><ele>203.0</ele><time>2026-04-04T12:13:57Z</time></trkpt><trkpt lat="45.530824884088005" lon="11.233262835662272"><ele>204.0</ele><time>2026-04-04T12:13:58Z</time></trkpt><trkpt lat="45.53100001345998" lon="11.233250696614876"><ele>204.0</ele><time>2026-04-04T12:13:59Z</time></trkpt><trkpt lat="45.53117694502267" lon="11.233235684277284"><ele>204.0</ele><time>2026-04-04T12:14:00Z</time></trkpt><trkpt lat="45.531359872588396" lon="11.233216367950575"><ele>204.0</ele><time>2026-04-04T12:14:01Z</time></trkpt><trkpt lat="45.53154341986536" lon="11.2331935035776"><ele>205.0</ele><time>2026-04-04T12:14:02Z</time></trkpt><trkpt lat="45.53173295164442" lon="11.233161144395202"><ele>206.0</ele><time>2026-04-04T12:14:03Z</time></trkpt><trkpt lat="45.53192017241476" lon="11.233128161359463"><ele>207.0</ele><time>2026-04-04T12:14:04Z</time></trkpt><trkpt lat="45.53210973875461" lon="11.23309642589077"><ele>207.33333333333331</ele><time>2026-04-04T12:14:05Z</time></trkpt><trkpt lat="45.53229333326145" lon="11.23306453880144"><ele>207.66666666666666</ele><time>2026-04-04T12:14:06Z</time></trkpt><trkpt lat="45.53247114215263" lon="11.233027801935778"><ele>208.0</ele><time>2026-04-04T12:14:07Z</time></trkpt><trkpt lat="45.532653361089686" lon="11.232999877837724"><ele>208.0</ele><time>2026-04-04T12:14:08Z</time></trkpt><trkpt lat="45.53283947636664" lon="11.232959813873352"><ele>208.0</ele><time>2026-04-04T12:14:09Z</time></trkpt><trkpt lat="45.533038446110275" lon="11.232931075838179"><ele>208.0</ele><time>2026-04-04T12:14:10Z</time></trkpt><trkpt lat="45.53324102542592" lon="11.232912951844124"><ele>209.33333333333331</ele><time>2026-04-04T12:14:11Z</time></trkpt><trkpt lat="45.53344354523721" lon="11.232911474810859"><ele>210.66666666666669</ele><time>2026-04-04T12:14:12Z</time></trkpt><trkpt lat="45.533652152596595" lon="11.232921942984696"><ele>212.0</ele><time>2026-04-04T12:14:13Z</time></trkpt><trkpt lat="45.53385707996481" lon="11.232932276481167"><ele>213.0</ele><time>2026-04-04T12:14:14Z</time></trkpt><trkpt lat="45.534055759739836" lon="11.232937442890513"><ele>214.0</ele><time>2026-04-04T12:14:15Z</time></trkpt><trkpt lat="45.53425977162844" lon="11.232946544985172"><ele>215.0</ele><time>2026-04-04T12:14:16Z</time></trkpt><trkpt lat="45.53446759446062" lon="11.232948640546901"><ele>217.0</ele><time>2026-04-04T12:14:17Z</time></trkpt><trkpt lat="45.53467629394459" lon="11.232950869899318"><ele>219.0</ele><time>2026-04-04T12:14:18Z</time></trkpt><trkpt lat="45.534886884172515" lon="11.23295999926372"><ele>221.0</ele><time>2026-04-04T12:14:19Z</time></trkpt><trkpt lat="45.53510068983783" lon="11.232954867902157"><ele>221.0</ele><time>2026-04-04T12:14:20Z</time></trkpt><trkpt lat="45.5353164056946" lon="11.232964303445724"><ele>221.0</ele><time>2026-04-04T12:14:21Z</time></trkpt><trkpt lat="45.53552718817713" lon="11.232972101839135"><ele>221.0</ele><time>2026-04-04T12:14:22Z</time></trkpt><trkpt lat="45.535736672898814" lon="11.23298109424842"><ele>222.66666666666669</ele><time>2026-04-04T12:14:23Z</time></trkpt><trkpt lat="45.535944200359886" lon="11.232989799457805"><ele>224.33333333333331</ele><time>2026-04-04T12:14:24Z</time></trkpt><trkpt lat="45.536148844620385" lon="11.232997716135467"><ele>226.0</ele><time>2026-04-04T12:14:25Z</time></trkpt><trkpt lat="45.536350191531525" lon="11.233003065463091"><ele>228.66666666666666</ele><time>2026-04-04T12:14:26Z</time></trkpt><trkpt lat="45.536542511223196" lon="11.232997104518597"><ele>231.33333333333331</ele><time>2026-04-04T12:14:27Z</time></trkpt><trkpt lat="45.536740583367376" lon="11.233000782153276"><ele>234.0</ele><time>2026-04-04T12:14:28Z</time></trkpt><trkpt lat="45.53693621917543" lon="11.233004658139896"><ele>237.0</ele><time>2026-04-04T12:14:29Z</time></trkpt><trkpt lat="45.537128239822906" lon="11.232997700779793"><ele>240.0</ele><time>2026-04-04T12:14:30Z</time></trkpt><trkpt lat="45.537317942964755" lon="11.232987244403205"><ele>243.0</ele><time>2026-04-04T12:14:31Z</time></trkpt><trkpt lat="45.537504168698746" lon="11.232946588341289"><ele>243.0</ele><time>2026-04-04T12:14:32Z</time></trkpt><trkpt lat="45.53769249867763" lon="11.23288758266257"><ele>243.0</ele><time>2026-04-04T12:14:32.999Z</time></trkpt><trkpt lat="45.53787600174622" lon="11.232813218666832"><ele>243.0</ele><time>2026-04-04T12:14:33.999Z</time></trkpt><trkpt lat="45.5380532528225" lon="11.23274144716023"><ele>245.0</ele><time>2026-04-04T12:14:34.999Z</time></trkpt><trkpt lat="45.53824277348325" lon="11.23265991515482"><ele>247.0</ele><time>2026-04-04T12:14:35.999Z</time></trkpt><trkpt lat="45.53843832390678" lon="11.232569675570998"><ele>249.0</ele><time>2026-04-04T12:14:36.999Z</time></trkpt><trkpt lat="45.53862922388521" lon="11.232455970066546"><ele>248.0</ele><time>2026-04-04T12:14:37.999Z</time></trkpt><trkpt lat="45.538817250649906" lon="11.232326782424567"><ele>247.0</ele><time>2026-04-04T12:14:38.999Z</time></trkpt><trkpt lat="45.53901751704506" lon="11.23219476811087"><ele>246.0</ele><time>2026-04-04T12:14:39.999Z</time></trkpt><trkpt lat="45.53922444874433" lon="11.232061350457107"><ele>244.0</ele><time>2026-04-04T12:14:40.999Z</time></trkpt><trkpt lat="45.539434860637286" lon="11.231920536538704"><ele>242.0</ele><time>2026-04-04T12:14:41.999Z</time></trkpt><trkpt lat="45.53964363878127" lon="11.231780694808613"><ele>242.0</ele><time>2026-04-04T12:14:42.999Z</time></trkpt><trkpt lat="45.53984633994163" lon="11.231644915647149"><ele>242.0</ele><time>2026-04-04T12:14:43.999Z</time></trkpt><trkpt lat="45.540051766688784" lon="11.231511979333007"><ele>242.0</ele><time>2026-04-04T12:14:44.999Z</time></trkpt><trkpt lat="45.540248060626624" lon="11.231390824153328"><ele>241.66666666666669</ele><time>2026-04-04T12:14:45.999Z</time></trkpt><trkpt lat="45.54043056472628" lon="11.231272448708097"><ele>241.33333333333331</ele><time>2026-04-04T12:14:46.999Z</time></trkpt><trkpt lat="45.540617625892295" lon="11.23115310234655"><ele>241.0</ele><time>2026-04-04T12:14:47.999Z</time></trkpt><trkpt lat="45.54080700896468" lon="11.231038632971385"><ele>241.0</ele><time>2026-04-04T12:14:48.999Z</time></trkpt><trkpt lat="45.54099468022422" lon="11.230922763622551"><ele>241.0</ele><time>2026-04-04T12:14:49.999Z</time></trkpt><trkpt lat="45.54118187230368" lon="11.230812875609088"><ele>241.0</ele><time>2026-04-04T12:14:50.999Z</time></trkpt><trkpt lat="45.54137318982596" lon="11.230711646942664"><ele>242.33333333333331</ele><time>2026-04-04T12:14:51.999Z</time></trkpt><trkpt lat="45.54156702049391" lon="11.230637191445371"><ele>243.66666666666669</ele><time>2026-04-04T12:14:52.999Z</time></trkpt><trkpt lat="45.54175061832908" lon="11.230567371880086"><ele>245.0</ele><time>2026-04-04T12:14:53.999Z</time></trkpt><trkpt lat="45.5419303521044" lon="11.230503827341765"><ele>246.66666666666669</ele><time>2026-04-04T12:14:54.999Z</time></trkpt><trkpt lat="45.54211294153074" lon="11.230451382301537"><ele>248.33333333333331</ele><time>2026-04-04T12:14:55.999Z</time></trkpt><trkpt lat="45.5423061238297" lon="11.230404784869659"><ele>250.0</ele><time>2026-04-04T12:14:56.999Z</time></trkpt><trkpt lat="45.54250335335474" lon="11.230355466555148"><ele>250.0</ele><time>2026-04-04T12:14:57.999Z</time></trkpt><trkpt lat="45.542712446034415" lon="11.230310430281797"><ele>250.0</ele><time>2026-04-04T12:14:58.999Z</time></trkpt><trkpt lat="45.5429455254439" lon="11.230273681303169"><ele>250.0</ele><time>2026-04-04T12:14:59.999Z</time></trkpt><trkpt lat="45.54317973466274" lon="11.230228267333315"><ele>252.0</ele><time>2026-04-04T12:15:00.999Z</time></trkpt><trkpt lat="45.54342079921862" lon="11.230181850808048"><ele>254.0</ele><time>2026-04-04T12:15:01.999Z</time></trkpt><trkpt lat="45.54366378029545" lon="11.23013620324728"><ele>258.5</ele><time>2026-04-04T12:15:02.999Z</time></trkpt><trkpt lat="45.54389954842288" lon="11.230089941598786"><ele>263.0</ele><time>2026-04-04T12:15:03.999Z</time></trkpt><trkpt lat="45.5441305294157" lon="11.230048904988411"><ele>263.0</ele><time>2026-04-04T12:15:04.999Z</time></trkpt><trkpt lat="45.54435902692501" lon="11.230004668722778"><ele>263.0</ele><time>2026-04-04T12:15:05.999Z</time></trkpt><trkpt lat="45.54458044730203" lon="11.229952896357295"><ele>267.0</ele><time>2026-04-04T12:15:06.999Z</time></trkpt><trkpt lat="45.54479923822148" lon="11.229907131965033"><ele>271.0</ele><time>2026-04-04T12:15:07.999Z</time></trkpt><trkpt lat="45.5450083553668" lon="11.229864732474343"><ele>275.0</ele><time>2026-04-04T12:15:08.999Z</time></trkpt><trkpt lat="45.54521515097523" lon="11.229821850367314"><ele>272.0</ele><time>2026-04-04T12:15:09.999Z</time></trkpt><trkpt lat="45.54542050725253" lon="11.22977775598979"><ele>269.0</ele><time>2026-04-04T12:15:10.999Z</time></trkpt><trkpt lat="45.545632693996936" lon="11.229740134452184"><ele>266.0</ele><time>2026-04-04T12:15:11.999Z</time></trkpt><trkpt lat="45.54583770831846" lon="11.22969564534131"><ele>266.0</ele><time>2026-04-04T12:15:12.999Z</time></trkpt><trkpt lat="45.5460469514035" lon="11.229656582902527"><ele>266.0</ele><time>2026-04-04T12:15:13.999Z</time></trkpt><trkpt lat="45.546253199721335" lon="11.229612205700274"><ele>266.0</ele><time>2026-04-04T12:15:14.999Z</time></trkpt><trkpt lat="45.54645447131255" lon="11.22956146399556"><ele>267.33333333333337</ele><time>2026-04-04T12:15:15.999Z</time></trkpt><trkpt lat="45.546647922278446" lon="11.229510883203297"><ele>268.6666666666667</ele><time>2026-04-04T12:15:16.999Z</time></trkpt><trkpt lat="45.546835602964265" lon="11.229453517545352"><ele>270.0</ele><time>2026-04-04T12:15:17.999Z</time></trkpt><trkpt lat="45.54702125633476" lon="11.229396520062322"><ele>272.3333333333333</ele><time>2026-04-04T12:15:18.999Z</time></trkpt><trkpt lat="45.54720012903121" lon="11.229346400495183"><ele>274.66666666666663</ele><time>2026-04-04T12:15:19.999Z</time></trkpt><trkpt lat="45.54737654791943" lon="11.22929518576699"><ele>277.0</ele><time>2026-04-04T12:15:20.999Z</time></trkpt><trkpt lat="45.54756729512622" lon="11.229265445752626"><ele>277.0</ele><time>2026-04-04T12:15:21.999Z</time></trkpt><trkpt lat="45.54776785992728" lon="11.229219261629533"><ele>277.0</ele><time>2026-04-04T12:15:22.999Z</time></trkpt><trkpt lat="45.5479658688144" lon="11.229164322396647"><ele>277.0</ele><time>2026-04-04T12:15:23.999Z</time></trkpt><trkpt lat="45.54815256094958" lon="11.229107966697592"><ele>276.3333333333333</ele><time>2026-04-04T12:15:24.999Z</time></trkpt><trkpt lat="45.548321931435396" lon="11.22906403008301"><ele>275.6666666666667</ele><time>2026-04-04T12:15:25.999Z</time></trkpt><trkpt lat="45.54849295682944" lon="11.229016682438447"><ele>275.0</ele><time>2026-04-04T12:15:26.999Z</time></trkpt><trkpt lat="45.54866549461157" lon="11.22897311325246"><ele>275.6666666666667</ele><time>2026-04-04T12:15:27.999Z</time></trkpt><trkpt lat="45.54883293678086" lon="11.228924921664904"><ele>276.3333333333333</ele><time>2026-04-04T12:15:28.999Z</time></trkpt><trkpt lat="45.54900756708225" lon="11.228874131126627"><ele>277.0</ele><time>2026-04-04T12:15:29.998Z</time></trkpt><trkpt lat="45.54917812936609" lon="11.228823660273418"><ele>277.0</ele><time>2026-04-04T12:15:30.998Z</time></trkpt><trkpt lat="45.549354250081635" lon="11.228758833068065"><ele>277.0</ele><time>2026-04-04T12:15:31.998Z</time></trkpt><trkpt lat="45.54952576788926" lon="11.228681450103743"><ele>277.0</ele><time>2026-04-04T12:15:32.998Z</time></trkpt><trkpt lat="45.549691705876306" lon="11.228590685453364"><ele>279.0</ele><time>2026-04-04T12:15:33.998Z</time></trkpt><trkpt lat="45.54985902286173" lon="11.228501305854117"><ele>281.0</ele><time>2026-04-04T12:15:34.998Z</time></trkpt><trkpt lat="45.55003831385399" lon="11.228421201682313"><ele>283.0</ele><time>2026-04-04T12:15:35.998Z</time></trkpt><trkpt lat="45.55021741784198" lon="11.228355772314362"><ele>284.0</ele><time>2026-04-04T12:15:36.998Z</time></trkpt><trkpt lat="45.55040085140263" lon="11.228298462724307"><ele>285.0</ele><time>2026-04-04T12:15:37.998Z</time></trkpt><trkpt lat="45.55058088448687" lon="11.22822809311711"><ele>286.0</ele><time>2026-04-04T12:15:38.998Z</time></trkpt><trkpt lat="45.5507496840085" lon="11.228151528116225"><ele>285.66666666666663</ele><time>2026-04-04T12:15:39.998Z</time></trkpt><trkpt lat="45.55091807019932" lon="11.228073664073"><ele>285.3333333333333</ele><time>2026-04-04T12:15:40.998Z</time></trkpt><trkpt lat="45.551090336924986" lon="11.227995118985707"><ele>285.0</ele><time>2026-04-04T12:15:41.998Z</time></trkpt><trkpt lat="45.55126149933212" lon="11.227924645967041"><ele>285.0</ele><time>2026-04-04T12:15:42.998Z</time></trkpt><trkpt lat="45.55143622290042" lon="11.227856642891796"><ele>285.0</ele><time>2026-04-04T12:15:43.998Z</time></trkpt><trkpt lat="45.551608674568" lon="11.227793659103158"><ele>285.0</ele><time>2026-04-04T12:15:44.998Z</time></trkpt><trkpt lat="45.551780545528615" lon="11.22773980746434"><ele>285.0</ele><time>2026-04-04T12:15:45.998Z</time></trkpt><trkpt lat="45.55195919497211" lon="11.227701252838507"><ele>285.0</ele><time>2026-04-04T12:15:46.998Z</time></trkpt><trkpt lat="45.552139408718794" lon="11.227682777653873"><ele>285.0</ele><time>2026-04-04T12:15:47.998Z</time></trkpt><trkpt lat="45.55232220355295" lon="11.22765773051858"><ele>287.3333333333333</ele><time>2026-04-04T12:15:48.998Z</time></trkpt><trkpt lat="45.55252241233806" lon="11.227647206140496"><ele>289.66666666666663</ele><time>2026-04-04T12:15:49.998Z</time></trkpt><trkpt lat="45.552736216928785" lon="11.227650480434727"><ele>292.0</ele><time>2026-04-04T12:15:50.998Z</time></trkpt><trkpt lat="45.552952803096005" lon="11.227674925090971"><ele>292.66666666666663</ele><time>2026-04-04T12:15:51.998Z</time></trkpt><trkpt lat="45.55317299931896" lon="11.227702570008768"><ele>293.3333333333333</ele><time>2026-04-04T12:15:52.998Z</time></trkpt><trkpt lat="45.55339398077381" lon="11.227737309024423"><ele>294.0</ele><time>2026-04-04T12:15:53.998Z</time></trkpt><trkpt lat="45.55361597295619" lon="11.227767072824076"><ele>297.0</ele><time>2026-04-04T12:15:54.998Z</time></trkpt><trkpt lat="45.55383954488429" lon="11.227793883938512"><ele>300.0</ele><time>2026-04-04T12:15:55.998Z</time></trkpt><trkpt lat="45.55406456899057" lon="11.227818342345133"><ele>300.0</ele><time>2026-04-04T12:15:57Z</time></trkpt><trkpt lat="45.55428536781757" lon="11.22784044318466"><ele>300.0</ele><time>2026-04-04T12:15:58Z</time></trkpt><trkpt lat="45.554504523040045" lon="11.227877780797822"><ele>300.0</ele><time>2026-04-04T12:15:59Z</time></trkpt><trkpt lat="45.554727345379675" lon="11.227906195094233"><ele>302.0</ele><time>2026-04-04T12:16:00Z</time></trkpt><trkpt lat="45.55496310836077" lon="11.227923363545118"><ele>304.0</ele><time>2026-04-04T12:16:01Z</time></trkpt><trkpt lat="45.55521154556743" lon="11.227913977501435"><ele>307.0</ele><time>2026-04-04T12:16:02Z</time></trkpt><trkpt lat="45.55545856280859" lon="11.227884116369557"><ele>310.0</ele><time>2026-04-04T12:16:03Z</time></trkpt><trkpt lat="45.555695409682095" lon="11.227856050515415"><ele>310.0</ele><time>2026-04-04T12:16:04Z</time></trkpt><trkpt lat="45.555926084663426" lon="11.227818481542943"><ele>310.0</ele><time>2026-04-04T12:16:05Z</time></trkpt><trkpt lat="45.55614749039495" lon="11.227768455773043"><ele>312.0</ele><time>2026-04-04T12:16:06Z</time></trkpt><trkpt lat="45.5563626833059" lon="11.22771010927479"><ele>314.0</ele><time>2026-04-04T12:16:07Z</time></trkpt><trkpt lat="45.55656336598707" lon="11.227652481616843"><ele>316.0</ele><time>2026-04-04T12:16:08Z</time></trkpt><trkpt lat="45.556750762152774" lon="11.227595861935248"><ele>316.0</ele><time>2026-04-04T12:16:09Z</time></trkpt><trkpt lat="45.55691569276005" lon="11.227562789505939"><ele>316.0</ele><time>2026-04-04T12:16:10Z</time></trkpt><trkpt lat="45.557091253348595" lon="11.227548927987048"><ele>316.0</ele><time>2026-04-04T12:16:11Z</time></trkpt><trkpt lat="45.55727373965132" lon="11.227571254245527"><ele>317.3333333333333</ele><time>2026-04-04T12:16:12Z</time></trkpt><trkpt lat="45.55746821487465" lon="11.227606125245867"><ele>318.6666666666667</ele><time>2026-04-04T12:16:13Z</time></trkpt><trkpt lat="45.557665743474516" lon="11.227621092822403"><ele>320.0</ele><time>2026-04-04T12:16:14Z</time></trkpt><trkpt lat="45.55787275697882" lon="11.227630835238639"><ele>322.0</ele><time>2026-04-04T12:16:15Z</time></trkpt><trkpt lat="45.55808492674228" lon="11.227654293250849"><ele>324.0</ele><time>2026-04-04T12:16:16Z</time></trkpt><trkpt lat="45.55828796953965" lon="11.227655739011"><ele>326.0</ele><time>2026-04-04T12:16:17Z</time></trkpt><trkpt lat="45.558492505130296" lon="11.227634081414383"><ele>328.6666666666667</ele><time>2026-04-04T12:16:18Z</time></trkpt><trkpt lat="45.55870477356456" lon="11.227594458677334"><ele>331.3333333333333</ele><time>2026-04-04T12:16:19Z</time></trkpt><trkpt lat="45.55892253845593" lon="11.227540046706347"><ele>334.0</ele><time>2026-04-04T12:16:20Z</time></trkpt><trkpt lat="45.55913865346971" lon="11.22746692954973"><ele>334.0</ele><time>2026-04-04T12:16:21Z</time></trkpt><trkpt lat="45.55936241413625" lon="11.227390868125232"><ele>334.0</ele><time>2026-04-04T12:16:22Z</time></trkpt><trkpt lat="45.559594375153935" lon="11.227329603717042"><ele>340.0</ele><time>2026-04-04T12:16:23Z</time></trkpt><trkpt lat="45.55982658627593" lon="11.227259070442265"><ele>346.0</ele><time>2026-04-04T12:16:24Z</time></trkpt><trkpt lat="45.560054850912636" lon="11.227192219355388"><ele>346.0</ele><time>2026-04-04T12:16:25Z</time></trkpt><trkpt lat="45.56026575204713" lon="11.22712900874639"><ele>346.0</ele><time>2026-04-04T12:16:26Z</time></trkpt><trkpt lat="45.560458913805164" lon="11.22707451847568"><ele>346.0</ele><time>2026-04-04T12:16:27Z</time></trkpt><trkpt lat="45.5606543105118" lon="11.227050818393836"><ele>345.66666666666663</ele><time>2026-04-04T12:16:28Z</time></trkpt><trkpt lat="45.56085908669307" lon="11.227064323266797"><ele>345.3333333333333</ele><time>2026-04-04T12:16:29Z</time></trkpt><trkpt lat="45.561071736526664" lon="11.227104627628062"><ele>345.0</ele><time>2026-04-04T12:16:30Z</time></trkpt><trkpt lat="45.56128103865743" lon="11.227152178745742"><ele>345.0</ele><time>2026-04-04T12:16:31Z</time></trkpt><trkpt lat="45.56148917205911" lon="11.227221302925978"><ele>345.0</ele><time>2026-04-04T12:16:32Z</time></trkpt><trkpt lat="45.56168762666687" lon="11.227327405161141"><ele>345.0</ele><time>2026-04-04T12:16:33Z</time></trkpt><trkpt lat="45.56191016122576" lon="11.227393901155477"><ele>350.0</ele><time>2026-04-04T12:16:34Z</time></trkpt><trkpt lat="45.56212603253407" lon="11.227491101707557"><ele>355.0</ele><time>2026-04-04T12:16:35Z</time></trkpt><trkpt lat="45.56234036800863" lon="11.227586837793153"><ele>355.0</ele><time>2026-04-04T12:16:36Z</time></trkpt><trkpt lat="45.5625551532177" lon="11.227674836781409"><ele>355.0</ele><time>2026-04-04T12:16:37Z</time></trkpt><trkpt lat="45.562772339891055" lon="11.227772190614298"><ele>356.3333333333333</ele><time>2026-04-04T12:16:37.999Z</time></trkpt><trkpt lat="45.56298161606663" lon="11.227867217901943"><ele>357.6666666666667</ele><time>2026-04-04T12:16:38.999Z</time></trkpt><trkpt lat="45.563184387080874" lon="11.227959394023864"><ele>359.0</ele><time>2026-04-04T12:16:39.999Z</time></trkpt><trkpt lat="45.56338237599865" lon="11.22804672707017"><ele>359.0</ele><time>2026-04-04T12:16:40.999Z</time></trkpt><trkpt lat="45.56357634001052" lon="11.228136567784507"><ele>359.0</ele><time>2026-04-04T12:16:41.999Z</time></trkpt><trkpt lat="45.563769766433595" lon="11.228194470465287"><ele>359.0</ele><time>2026-04-04T12:16:42.999Z</time></trkpt><trkpt lat="45.56396557581621" lon="11.228213215074316"><ele>361.0</ele><time>2026-04-04T12:16:43.999Z</time></trkpt><trkpt lat="45.56415161046343" lon="11.228189700862417"><ele>363.0</ele><time>2026-04-04T12:16:44.999Z</time></trkpt><trkpt lat="45.564329283324014" lon="11.22814353056304"><ele>365.0</ele><time>2026-04-04T12:16:45.999Z</time></trkpt><trkpt lat="45.56450212099984" lon="11.228065337204368"><ele>368.0</ele><time>2026-04-04T12:16:46.999Z</time></trkpt><trkpt lat="45.56466890013963" lon="11.227974933819397"><ele>371.0</ele><time>2026-04-04T12:16:47.999Z</time></trkpt><trkpt lat="45.5648246982853" lon="11.227866458560712"><ele>374.0</ele><time>2026-04-04T12:16:48.999Z</time></trkpt><trkpt lat="45.564975508429946" lon="11.227762868920285"><ele>374.0</ele><time>2026-04-04T12:16:49.999Z</time></trkpt><trkpt lat="45.565129438036166" lon="11.227673694488317"><ele>374.0</ele><time>2026-04-04T12:16:50.999Z</time></trkpt><trkpt lat="45.5652816975781" lon="11.227597964881467"><ele>374.0</ele><time>2026-04-04T12:16:51.999Z</time></trkpt><trkpt lat="45.56545444741714" lon="11.227564022606106"><ele>378.6666666666667</ele><time>2026-04-04T12:16:52.999Z</time></trkpt><trkpt lat="45.565641232263545" lon="11.227554654594675"><ele>383.33333333333337</ele><time>2026-04-04T12:16:53.999Z</time></trkpt><trkpt lat="45.565825280502224" lon="11.227575971034806"><ele>388.0</ele><time>2026-04-04T12:16:54.999Z</time></trkpt><trkpt lat="45.56601808236642" lon="11.22759010936996"><ele>391.0</ele><time>2026-04-04T12:16:55.999Z</time></trkpt><trkpt lat="45.566205089275854" lon="11.22759861323311"><ele>394.0</ele><time>2026-04-04T12:16:56.999Z</time></trkpt><trkpt lat="45.56638931894557" lon="11.22759837648002"><ele>397.0</ele><time>2026-04-04T12:16:57.999Z</time></trkpt><trkpt lat="45.56657096731444" lon="11.227600693393377"><ele>397.0</ele><time>2026-04-04T12:16:58.999Z</time></trkpt><trkpt lat="45.56674966753969" lon="11.22760318626125"><ele>397.0</ele><time>2026-04-04T12:16:59.999Z</time></trkpt><trkpt lat="45.56692612258416" lon="11.227614128808847"><ele>397.0</ele><time>2026-04-04T12:17:00.999Z</time></trkpt><trkpt lat="45.56709932806097" lon="11.227632928223876"><ele>400.33333333333337</ele><time>2026-04-04T12:17:01.999Z</time></trkpt><trkpt lat="45.567273137117844" lon="11.227636374250267"><ele>403.66666666666663</ele><time>2026-04-04T12:17:02.999Z</time></trkpt><trkpt lat="45.56745000315767" lon="11.227638432812917"><ele>407.0</ele><time>2026-04-04T12:17:03.999Z</time></trkpt><trkpt lat="45.56762623402605" lon="11.227647604131265"><ele>407.0</ele><time>2026-04-04T12:17:04.999Z</time></trkpt><trkpt lat="45.567806866801774" lon="11.227661085615239"><ele>407.0</ele><time>2026-04-04T12:17:05.999Z</time></trkpt><trkpt lat="45.56799124897964" lon="11.227696136387436"><ele>407.0</ele><time>2026-04-04T12:17:06.999Z</time></trkpt><trkpt lat="45.56817525385211" lon="11.227752135350807"><ele>408.66666666666663</ele><time>2026-04-04T12:17:07.999Z</time></trkpt><trkpt lat="45.56835199413142" lon="11.227816491226871"><ele>410.33333333333337</ele><time>2026-04-04T12:17:08.999Z</time></trkpt><trkpt lat="45.56852057408269" lon="11.227882863249135"><ele>412.0</ele><time>2026-04-04T12:17:09.999Z</time></trkpt><trkpt lat="45.568688691199256" lon="11.227936622271734"><ele>415.0</ele><time>2026-04-04T12:17:10.999Z</time></trkpt><trkpt lat="45.56885129753518" lon="11.22798530119683"><ele>418.0</ele><time>2026-04-04T12:17:11.999Z</time></trkpt><trkpt lat="45.5690099702848" lon="11.228044046997919"><ele>421.0</ele><time>2026-04-04T12:17:12.999Z</time></trkpt><trkpt lat="45.56916966366524" lon="11.228097215892083"><ele>422.8</ele><time>2026-04-04T12:17:13.999Z</time></trkpt><trkpt lat="45.56932643819008" lon="11.2281485839244"><ele>424.6</ele><time>2026-04-04T12:17:14.999Z</time></trkpt><trkpt lat="45.56944180215516" lon="11.228181055989936"><ele>426.4</ele><time>2026-04-04T12:17:15.999Z</time></trkpt><trkpt lat="45.56952184361186" lon="11.228224749912487"><ele>428.2</ele><time>2026-04-04T12:17:16.999Z</time></trkpt><trkpt lat="45.569578809838546" lon="11.228275453568758"><ele>430.0</ele><time>2026-04-04T12:17:17.999Z</time></trkpt><trkpt lat="45.56962697601412" lon="11.228380752030853"><ele>430.0</ele><time>2026-04-04T12:17:18.999Z</time></trkpt><trkpt lat="45.56964166634002" lon="11.228535175510805"><ele>430.0</ele><time>2026-04-04T12:17:19.999Z</time></trkpt><trkpt lat="45.5695999119883" lon="11.228685720174381"><ele>430.0</ele><time>2026-04-04T12:17:20.999Z</time></trkpt><trkpt lat="45.56952332901598" lon="11.228783886105482"><ele>430.0</ele><time>2026-04-04T12:17:21.999Z</time></trkpt><trkpt lat="45.569426602278725" lon="11.22883136847767"><ele>430.0</ele><time>2026-04-04T12:17:22.999Z</time></trkpt><trkpt lat="45.569290958336474" lon="11.22883715431649"><ele>430.0</ele><time>2026-04-04T12:17:23.999Z</time></trkpt><trkpt lat="45.569158770676964" lon="11.228856592520357"><ele>430.0</ele><time>2026-04-04T12:17:24.999Z</time></trkpt><trkpt lat="45.569050586195466" lon="11.22889611635018"><ele>430.0</ele><time>2026-04-04T12:17:25.999Z</time></trkpt><trkpt lat="45.56896231711683" lon="11.22897414766274"><ele>430.0</ele><time>2026-04-04T12:17:26.999Z</time></trkpt><trkpt lat="45.56889012884683" lon="11.229102999835062"><ele>433.0</ele><time>2026-04-04T12:17:27.999Z</time></trkpt><trkpt lat="45.56885464023868" lon="11.229260892236663"><ele>436.0</ele><time>2026-04-04T12:17:28.999Z</time></trkpt><trkpt lat="45.56887807228596" lon="11.229426027104482"><ele>439.0</ele><time>2026-04-04T12:17:29.999Z</time></trkpt><trkpt lat="45.56893803272645" lon="11.229581072361107"><ele>442.0</ele><time>2026-04-04T12:17:30.999Z</time></trkpt><trkpt lat="45.56903259193864" lon="11.22967427105982"><ele>442.0</ele><time>2026-04-04T12:17:31.999Z</time></trkpt><trkpt lat="45.56914833807959" lon="11.229706401277541"><ele>442.0</ele><time>2026-04-04T12:17:32.999Z</time></trkpt><trkpt lat="45.56928564771309" lon="11.229654885532222"><ele>442.0</ele><time>2026-04-04T12:17:33.999Z</time></trkpt><trkpt lat="45.569426260024635" lon="11.229550068804866"><ele>442.0</ele><time>2026-04-04T12:17:34.998Z</time></trkpt><trkpt lat="45.56956662551641" lon="11.22944298740875"><ele>443.5</ele><time>2026-04-04T12:17:35.998Z</time></trkpt><trkpt lat="45.569695850984594" lon="11.229359976541355"><ele>445.0</ele><time>2026-04-04T12:17:36.998Z</time></trkpt><trkpt lat="45.56981339647829" lon="11.229299194420365"><ele>446.5</ele><time>2026-04-04T12:17:37.998Z</time></trkpt><trkpt lat="45.56991363050878" lon="11.229246557983304"><ele>448.0</ele><time>2026-04-04T12:17:38.998Z</time></trkpt><trkpt lat="45.56999640589305" lon="11.229190916822088"><ele>448.0</ele><time>2026-04-04T12:17:39.998Z</time></trkpt><trkpt lat="45.570100102441614" lon="11.229137221596691"><ele>448.0</ele><time>2026-04-04T12:17:40.998Z</time></trkpt><trkpt lat="45.57021261218687" lon="11.229070070760079"><ele>448.0</ele><time>2026-04-04T12:17:41.998Z</time></trkpt><trkpt lat="45.57033180952376" lon="11.229007638516878"><ele>448.0</ele><time>2026-04-04T12:17:42.998Z</time></trkpt><trkpt lat="45.570454402417255" lon="11.228963571527236"><ele>448.59999999999997</ele><time>2026-04-04T12:17:43.998Z</time></trkpt><trkpt lat="45.57057301180598" lon="11.228942647409719"><ele>449.19999999999993</ele><time>2026-04-04T12:17:44.998Z</time></trkpt><trkpt lat="45.57067409499361" lon="11.228959955579832"><ele>449.8</ele><time>2026-04-04T12:17:45.998Z</time></trkpt><trkpt lat="45.5707550391612" lon="11.229012561255184"><ele>450.4</ele><time>2026-04-04T12:17:46.998Z</time></trkpt><trkpt lat="45.57080766586097" lon="11.22910421470809"><ele>451.0</ele><time>2026-04-04T12:17:47.998Z</time></trkpt><trkpt lat="45.57081944559017" lon="11.22924733986992"><ele>452.75</ele><time>2026-04-04T12:17:48.998Z</time></trkpt><trkpt lat="45.57080436548725" lon="11.229416565922193"><ele>454.5</ele><time>2026-04-04T12:17:49.998Z</time></trkpt><trkpt lat="45.57074092074908" lon="11.229591944047616"><ele>456.25</ele><time>2026-04-04T12:17:50.998Z</time></trkpt><trkpt lat="45.57067124237193" lon="11.229758384778796"><ele>458.0</ele><time>2026-04-04T12:17:51.998Z</time></trkpt><trkpt lat="45.57059781802428" lon="11.229922851607817"><ele>460.5</ele><time>2026-04-04T12:17:52.998Z</time></trkpt><trkpt lat="45.57053883755645" lon="11.230081067260704"><ele>463.0</ele><time>2026-04-04T12:17:53.998Z</time></trkpt><trkpt lat="45.57048465335617" lon="11.230235771780091"><ele>465.5</ele><time>2026-04-04T12:17:54.998Z</time></trkpt><trkpt lat="45.57043393186922" lon="11.23038233774587"><ele>468.0</ele><time>2026-04-04T12:17:55.998Z</time></trkpt><trkpt lat="45.570405245184695" lon="11.230523972528687"><ele>469.75</ele><time>2026-04-04T12:17:56.998Z</time></trkpt><trkpt lat="45.570407415082045" lon="11.230680331508612"><ele>471.5</ele><time>2026-04-04T12:17:57.998Z</time></trkpt><trkpt lat="45.57044686712456" lon="11.230849534379617"><ele>473.25</ele><time>2026-04-04T12:17:58.998Z</time></trkpt><trkpt lat="45.57054064200823" lon="11.230998396715254"><ele>475.0</ele><time>2026-04-04T12:17:59.998Z</time></trkpt><trkpt lat="45.57066971174941" lon="11.231130198650677"><ele>475.0</ele><time>2026-04-04T12:18:00.998Z</time></trkpt><trkpt lat="45.570832002112816" lon="11.231245869883715"><ele>475.0</ele><time>2026-04-04T12:18:01.998Z</time></trkpt><trkpt lat="45.570985556285166" lon="11.231343232461343"><ele>475.0</ele><time>2026-04-04T12:18:03Z</time></trkpt><trkpt lat="45.57113407097019" lon="11.231453682437357"><ele>477.0</ele><time>2026-04-04T12:18:04Z</time></trkpt><trkpt lat="45.571277380237674" lon="11.2315664410777"><ele>479.0</ele><time>2026-04-04T12:18:05Z</time></trkpt><trkpt lat="45.571423939905856" lon="11.231681558874154"><ele>481.0</ele><time>2026-04-04T12:18:06Z</time></trkpt><trkpt lat="45.57156616592559" lon="11.23176800201932"><ele>481.0</ele><time>2026-04-04T12:18:07Z</time></trkpt><trkpt lat="45.571686046293884" lon="11.231863264200115"><ele>481.0</ele><time>2026-04-04T12:18:08Z</time></trkpt><trkpt lat="45.571810821690654" lon="11.231947759216064"><ele>481.0</ele><time>2026-04-04T12:18:09Z</time></trkpt><trkpt lat="45.571947824733655" lon="11.232027759459134"><ele>481.0</ele><time>2026-04-04T12:18:10Z</time></trkpt><trkpt lat="45.57208123297082" lon="11.232138114791075"><ele>481.6666666666667</ele><time>2026-04-04T12:18:11Z</time></trkpt><trkpt lat="45.572214845610844" lon="11.232258761668735"><ele>482.33333333333337</ele><time>2026-04-04T12:18:12Z</time></trkpt><trkpt lat="45.572343167531436" lon="11.232389162927998"><ele>483.0</ele><time>2026-04-04T12:18:13Z</time></trkpt><trkpt lat="45.57246269148479" lon="11.232521410335938"><ele>485.0</ele><time>2026-04-04T12:18:14Z</time></trkpt><trkpt lat="45.572575770607216" lon="11.232645685304966"><ele>487.0</ele><time>2026-04-04T12:18:15Z</time></trkpt><trkpt lat="45.57269196772212" lon="11.232768457433844"><ele>489.0</ele><time>2026-04-04T12:18:16Z</time></trkpt><trkpt lat="45.57280881717169" lon="11.232898934488258"><ele>491.0</ele><time>2026-04-04T12:18:17Z</time></trkpt><trkpt lat="45.572926094991125" lon="11.233028933889626"><ele>491.0</ele><time>2026-04-04T12:18:18Z</time></trkpt><trkpt lat="45.57304644379315" lon="11.233142867448038"><ele>491.0</ele><time>2026-04-04T12:18:19Z</time></trkpt><trkpt lat="45.57318401477438" lon="11.233192816104909"><ele>491.0</ele><time>2026-04-04T12:18:20Z</time></trkpt><trkpt lat="45.57333832759174" lon="11.233189258899811"><ele>491.0</ele><time>2026-04-04T12:18:21Z</time></trkpt><trkpt lat="45.573487860616396" lon="11.233138450515884"><ele>491.0</ele><time>2026-04-04T12:18:22Z</time></trkpt><trkpt lat="45.5736236211623" lon="11.233056043984963"><ele>491.0</ele><time>2026-04-04T12:18:23Z</time></trkpt><trkpt lat="45.57374392801473" lon="11.232956613340574"><ele>491.0</ele><time>2026-04-04T12:18:24Z</time></trkpt><trkpt lat="45.57386697299743" lon="11.232886062325191"><ele>491.0</ele><time>2026-04-04T12:18:25Z</time></trkpt><trkpt lat="45.57400534451557" lon="11.232826326507347"><ele>493.25</ele><time>2026-04-04T12:18:26Z</time></trkpt><trkpt lat="45.574148112614594" lon="11.232782194213534"><ele>495.5</ele><time>2026-04-04T12:18:27Z</time></trkpt><trkpt lat="45.57427776549246" lon="11.232747751902776"><ele>497.75</ele><time>2026-04-04T12:18:28Z</time></trkpt><trkpt lat="45.57438894904425" lon="11.232705120562343"><ele>500.0</ele><time>2026-04-04T12:18:29Z</time></trkpt><trkpt lat="45.57448525810757" lon="11.23263783261638"><ele>502.2</ele><time>2026-04-04T12:18:30Z</time></trkpt><trkpt lat="45.574552127099516" lon="11.232538620915356"><ele>504.4</ele><time>2026-04-04T12:18:31Z</time></trkpt><trkpt lat="45.57458658449791" lon="11.232423219484327"><ele>506.6</ele><time>2026-04-04T12:18:32Z</time></trkpt><trkpt lat="45.57461063579411" lon="11.232278955317511"><ele>508.8</ele><time>2026-04-04T12:18:33Z</time></trkpt><trkpt lat="45.574632653503976" lon="11.232124187966182"><ele>511.0</ele><time>2026-04-04T12:18:34Z</time></trkpt><trkpt lat="45.57467903530154" lon="11.231965839219587"><ele>511.25</ele><time>2026-04-04T12:18:35Z</time></trkpt><trkpt lat="45.57471491395924" lon="11.231796409418434"><ele>511.5</ele><time>2026-04-04T12:18:36Z</time></trkpt><trkpt lat="45.574751376096955" lon="11.231615007862725"><ele>511.75</ele><time>2026-04-04T12:18:37Z</time></trkpt><trkpt lat="45.57477107624884" lon="11.231430726950814"><ele>512.0</ele><time>2026-04-04T12:18:38Z</time></trkpt><trkpt lat="45.57481114705719" lon="11.231262409838468"><ele>512.25</ele><time>2026-04-04T12:18:39Z</time></trkpt><trkpt lat="45.57484143257068" lon="11.231103257771656"><ele>512.5</ele><time>2026-04-04T12:18:40Z</time></trkpt><trkpt lat="45.57487491229482" lon="11.230932522496596"><ele>512.75</ele><time>2026-04-04T12:18:41Z</time></trkpt><trkpt lat="45.5749103245472" lon="11.230763177068681"><ele>513.0</ele><time>2026-04-04T12:18:42Z</time></trkpt><trkpt lat="45.57494822159926" lon="11.230586117554944"><ele>512.25</ele><time>2026-04-04T12:18:43Z</time></trkpt><trkpt lat="45.57497602971908" lon="11.230402397603758"><ele>511.5</ele><time>2026-04-04T12:18:44Z</time></trkpt><trkpt lat="45.5750024273725" lon="11.230225755396338"><ele>510.75</ele><time>2026-04-04T12:18:44.999Z</time></trkpt><trkpt lat="45.57502251060041" lon="11.230074752193259"><ele>510.0</ele><time>2026-04-04T12:18:45.999Z</time></trkpt><trkpt lat="45.57504508485668" lon="11.229939298092049"><ele>510.0</ele><time>2026-04-04T12:18:46.999Z</time></trkpt><trkpt lat="45.575076435711864" lon="11.229821096229092"><ele>510.0</ele><time>2026-04-04T12:18:47.999Z</time></trkpt><trkpt lat="45.575114591335044" lon="11.229721537219577"><ele>510.0</ele><time>2026-04-04T12:18:48.999Z</time></trkpt><trkpt lat="45.57517934608515" lon="11.22965067622917"><ele>510.0</ele><time>2026-04-04T12:18:49.999Z</time></trkpt><trkpt lat="45.575270740130705" lon="11.229619861981753"><ele>510.0</ele><time>2026-04-04T12:18:50.999Z</time></trkpt><trkpt lat="45.57536563202707" lon="11.22964255695844"><ele>510.0</ele><time>2026-04-04T12:18:51.999Z</time></trkpt><trkpt lat="45.575501803471916" lon="11.229639390032569"><ele>511.75</ele><time>2026-04-04T12:18:52.999Z</time></trkpt><trkpt lat="45.575618909068076" lon="11.229649286786165"><ele>513.5</ele><time>2026-04-04T12:18:53.999Z</time></trkpt><trkpt lat="45.57573845567465" lon="11.229628828957367"><ele>515.25</ele><time>2026-04-04T12:18:54.999Z</time></trkpt><trkpt lat="45.5758578513833" lon="11.229566512618273"><ele>517.0</ele><time>2026-04-04T12:18:55.999Z</time></trkpt><trkpt lat="45.575976385560544" lon="11.229488513795197"><ele>517.0</ele><time>2026-04-04T12:18:56.999Z</time></trkpt><trkpt lat="45.5760962121236" lon="11.229417308670952"><ele>517.0</ele><time>2026-04-04T12:18:57.999Z</time></trkpt><trkpt lat="45.57621235137422" lon="11.229351448300575"><ele>517.0</ele><time>2026-04-04T12:18:58.999Z</time></trkpt><trkpt lat="45.57633000493848" lon="11.229312754724338"><ele>517.0</ele><time>2026-04-04T12:18:59.999Z</time></trkpt><trkpt lat="45.57645500984561" lon="11.22930367100443"><ele>518.5</ele><time>2026-04-04T12:19:00.999Z</time></trkpt><trkpt lat="45.57657857739838" lon="11.229351056585267"><ele>520.0</ele><time>2026-04-04T12:19:01.999Z</time></trkpt><trkpt lat="45.57671898514651" lon="11.22937320349296"><ele>521.5</ele><time>2026-04-04T12:19:02.999Z</time></trkpt><trkpt lat="45.57685473218668" lon="11.22941142481694"><ele>523.0</ele><time>2026-04-04T12:19:03.999Z</time></trkpt><trkpt lat="45.57699255363047" lon="11.229461136688629"><ele>525.0</ele><time>2026-04-04T12:19:04.999Z</time></trkpt><trkpt lat="45.57713882129803" lon="11.229490040411285"><ele>527.0</ele><time>2026-04-04T12:19:05.999Z</time></trkpt><trkpt lat="45.57729272315858" lon="11.229503793383625"><ele>529.0</ele><time>2026-04-04T12:19:06.999Z</time></trkpt><trkpt lat="45.57745527747231" lon="11.229500640160387"><ele>529.0</ele><time>2026-04-04T12:19:07.999Z</time></trkpt><trkpt lat="45.57761784425085" lon="11.229490465460087"><ele>529.0</ele><time>2026-04-04T12:19:08.999Z</time></trkpt><trkpt lat="45.57777956394124" lon="11.229463326529615"><ele>529.0</ele><time>2026-04-04T12:19:09.999Z</time></trkpt><trkpt lat="45.5779373737073" lon="11.229434958594391"><ele>532.5</ele><time>2026-04-04T12:19:10.999Z</time></trkpt><trkpt lat="45.578090138308575" lon="11.229383446028793"><ele>536.0</ele><time>2026-04-04T12:19:11.999Z</time></trkpt><trkpt lat="45.57822919129512" lon="11.229331683586505"><ele>539.5</ele><time>2026-04-04T12:19:12.999Z</time></trkpt><trkpt lat="45.5783554765199" lon="11.229293923526557"><ele>543.0</ele><time>2026-04-04T12:19:13.999Z</time></trkpt><trkpt lat="45.57847115022716" lon="11.229257864258248"><ele>543.0</ele><time>2026-04-04T12:19:14.999Z</time></trkpt><trkpt lat="45.57857464934375" lon="11.229212333161835"><ele>543.0</ele><time>2026-04-04T12:19:15.999Z</time></trkpt><trkpt lat="45.578659775721796" lon="11.229136309452725"><ele>543.0</ele><time>2026-04-04T12:19:16.999Z</time></trkpt><trkpt lat="45.578717044277404" lon="11.229024113183813"><ele>543.0</ele><time>2026-04-04T12:19:17.999Z</time></trkpt><trkpt lat="45.578741808058474" lon="11.22888148700215"><ele>543.0</ele><time>2026-04-04T12:19:18.999Z</time></trkpt><trkpt lat="45.57871448769933" lon="11.228732688439475"><ele>543.25</ele><time>2026-04-04T12:19:19.999Z</time></trkpt><trkpt lat="45.57865669721734" lon="11.228585640776037"><ele>543.5</ele><time>2026-04-04T12:19:20.999Z</time></trkpt><trkpt lat="45.578569132324304" lon="11.228415762537853"><ele>543.75</ele><time>2026-04-04T12:19:21.999Z</time></trkpt><trkpt lat="45.578476509730145" lon="11.2282389846424"><ele>544.0</ele><time>2026-04-04T12:19:22.999Z</time></trkpt><trkpt lat="45.57840175517954" lon="11.228064710382183"><ele>545.0</ele><time>2026-04-04T12:19:23.999Z</time></trkpt><trkpt lat="45.57834902424112" lon="11.227914209556488"><ele>546.0</ele><time>2026-04-04T12:19:24.999Z</time></trkpt><trkpt lat="45.57830532362049" lon="11.22778376929474"><ele>547.0</ele><time>2026-04-04T12:19:25.999Z</time></trkpt><trkpt lat="45.57827147403803" lon="11.227659876152206"><ele>548.0</ele><time>2026-04-04T12:19:26.999Z</time></trkpt><trkpt lat="45.57826469067387" lon="11.227505419421863"><ele>549.0</ele><time>2026-04-04T12:19:27.999Z</time></trkpt><trkpt lat="45.57828280804828" lon="11.227344410807827"><ele>548.75</ele><time>2026-04-04T12:19:28.999Z</time></trkpt><trkpt lat="45.57835727013739" lon="11.227195411905164"><ele>548.5</ele><time>2026-04-04T12:19:29.999Z</time></trkpt><trkpt lat="45.578441099175514" lon="11.227036387263814"><ele>548.25</ele><time>2026-04-04T12:19:30.999Z</time></trkpt><trkpt lat="45.578528373662316" lon="11.226859550653154"><ele>548.0</ele><time>2026-04-04T12:19:31.999Z</time></trkpt><trkpt lat="45.57864170270649" lon="11.226698434877788"><ele>551.3333333333333</ele><time>2026-04-04T12:19:32.999Z</time></trkpt><trkpt lat="45.5787534196602" lon="11.22652224098079"><ele>554.6666666666666</ele><time>2026-04-04T12:19:33.999Z</time></trkpt><trkpt lat="45.57886031215919" lon="11.226332975482746"><ele>558.0</ele><time>2026-04-04T12:19:34.999Z</time></trkpt><trkpt lat="45.57895853997648" lon="11.226181594920051"><ele>558.0</ele><time>2026-04-04T12:19:35.999Z</time></trkpt><trkpt lat="45.579046728423606" lon="11.226024879781448"><ele>558.0</ele><time>2026-04-04T12:19:36.999Z</time></trkpt><trkpt lat="45.579133295062455" lon="11.22586947990827"><ele>558.0</ele><time>2026-04-04T12:19:37.999Z</time></trkpt><trkpt lat="45.579219679973356" lon="11.225726456896137"><ele>558.0</ele><time>2026-04-04T12:19:38.999Z</time></trkpt><trkpt lat="45.579304497581795" lon="11.225611494216034"><ele>558.5</ele><time>2026-04-04T12:19:39.999Z</time></trkpt><trkpt lat="45.57942115458055" lon="11.225562583993538"><ele>559.0</ele><time>2026-04-04T12:19:40.999Z</time></trkpt><trkpt lat="45.57956099925496" lon="11.225498631207966"><ele>559.5</ele><time>2026-04-04T12:19:41.998Z</time></trkpt><trkpt lat="45.579717968107566" lon="11.225468240308748"><ele>560.0</ele><time>2026-04-04T12:19:42.998Z</time></trkpt><trkpt lat="45.579866606769095" lon="11.225413794570049"><ele>560.0</ele><time>2026-04-04T12:19:43.998Z</time></trkpt><trkpt lat="45.58000549170615" lon="11.22536219913998"><ele>560.0</ele><time>2026-04-04T12:19:44.998Z</time></trkpt><trkpt lat="45.580149469602496" lon="11.225313490673914"><ele>560.0</ele><time>2026-04-04T12:19:45.998Z</time></trkpt><trkpt lat="45.580323415721395" lon="11.225296014076335"><ele>563.3333333333333</ele><time>2026-04-04T12:19:46.998Z</time></trkpt><trkpt lat="45.58052433977002" lon="11.225371740460396"><ele>566.6666666666666</ele><time>2026-04-04T12:19:47.998Z</time></trkpt><trkpt lat="45.58072707937066" lon="11.2254487530767"><ele>570.0</ele><time>2026-04-04T12:19:48.998Z</time></trkpt><trkpt lat="45.58093068329197" lon="11.225517825035908"><ele>570.0</ele><time>2026-04-04T12:19:49.998Z</time></trkpt><trkpt lat="45.581130894981186" lon="11.225608306154202"><ele>570.0</ele><time>2026-04-04T12:19:50.998Z</time></trkpt><trkpt lat="45.581330984608506" lon="11.225681211154642"><ele>570.0</ele><time>2026-04-04T12:19:51.998Z</time></trkpt><trkpt lat="45.58153957456056" lon="11.225781023221845"><ele>574.6666666666666</ele><time>2026-04-04T12:19:52.998Z</time></trkpt><trkpt lat="45.58174169528269" lon="11.22590750045684"><ele>579.3333333333333</ele><time>2026-04-04T12:19:53.998Z</time></trkpt><trkpt lat="45.5819126260823" lon="11.22602908743066"><ele>584.0</ele><time>2026-04-04T12:19:54.998Z</time></trkpt><trkpt lat="45.58204866898987" lon="11.226140769682889"><ele>585.6666666666666</ele><time>2026-04-04T12:19:55.998Z</time></trkpt><trkpt lat="45.582187387468096" lon="11.22621992062418"><ele>587.3333333333334</ele><time>2026-04-04T12:19:56.998Z</time></trkpt><trkpt lat="45.582342717016665" lon="11.226264935409544"><ele>589.0</ele><time>2026-04-04T12:19:57.998Z</time></trkpt><trkpt lat="45.58251920372555" lon="11.226281028478603"><ele>589.0</ele><time>2026-04-04T12:19:58.998Z</time></trkpt><trkpt lat="45.58270749686994" lon="11.226293059254491"><ele>589.0</ele><time>2026-04-04T12:19:59.998Z</time></trkpt><trkpt lat="45.5828971144338" lon="11.226315925120181"><ele>589.0</ele><time>2026-04-04T12:20:00.998Z</time></trkpt><trkpt lat="45.583087379200244" lon="11.226343835377653"><ele>591.0</ele><time>2026-04-04T12:20:01.998Z</time></trkpt><trkpt lat="45.583272854822475" lon="11.226377875638487"><ele>593.0</ele><time>2026-04-04T12:20:02.998Z</time></trkpt><trkpt lat="45.58345701345772" lon="11.226435724452838"><ele>595.0</ele><time>2026-04-04T12:20:03.998Z</time></trkpt><trkpt lat="45.58364096946437" lon="11.226536749299525"><ele>598.6666666666667</ele><time>2026-04-04T12:20:04.998Z</time></trkpt><trkpt lat="45.583829948871674" lon="11.226660463921156"><ele>602.3333333333334</ele><time>2026-04-04T12:20:05.998Z</time></trkpt><trkpt lat="45.58400709191594" lon="11.22680218108808"><ele>606.0</ele><time>2026-04-04T12:20:06.998Z</time></trkpt><trkpt lat="45.58418094133453" lon="11.226948119011286"><ele>606.0</ele><time>2026-04-04T12:20:07.998Z</time></trkpt><trkpt lat="45.58434152372113" lon="11.227105405597365"><ele>606.0</ele><time>2026-04-04T12:20:09Z</time></trkpt><trkpt lat="45.584502066026516" lon="11.227277316995691"><ele>606.0</ele><time>2026-04-04T12:20:10Z</time></trkpt><trkpt lat="45.58465312106094" lon="11.2274415277002"><ele>609.6666666666666</ele><time>2026-04-04T12:20:11Z</time></trkpt><trkpt lat="45.58479542110521" lon="11.227590841785656"><ele>613.3333333333333</ele><time>2026-04-04T12:20:12Z</time></trkpt><trkpt lat="45.584925195669676" lon="11.227746525344179"><ele>617.0</ele><time>2026-04-04T12:20:13Z</time></trkpt><trkpt lat="45.58503375847737" lon="11.227887716033507"><ele>617.0</ele><time>2026-04-04T12:20:14Z</time></trkpt><trkpt lat="45.58513350320856" lon="11.228008819142046"><ele>617.0</ele><time>2026-04-04T12:20:15Z</time></trkpt><trkpt lat="45.585230501642584" lon="11.228112299529123"><ele>617.0</ele><time>2026-04-04T12:20:16Z</time></trkpt><trkpt lat="45.5853271701289" lon="11.228165027601726"><ele>617.0</ele><time>2026-04-04T12:20:17Z</time></trkpt><trkpt lat="45.585437826479605" lon="11.22817230765306"><ele>620.75</ele><time>2026-04-04T12:20:18Z</time></trkpt><trkpt lat="45.58555733510572" lon="11.228115468707074"><ele>624.5</ele><time>2026-04-04T12:20:19Z</time></trkpt><trkpt lat="45.58567248049221" lon="11.228011147379473"><ele>628.25</ele><time>2026-04-04T12:20:20Z</time></trkpt><trkpt lat="45.5857563469934" lon="11.227855650546324"><ele>632.0</ele><time>2026-04-04T12:20:21Z</time></trkpt><trkpt lat="45.585778655875664" lon="11.22766254791088"><ele>632.0</ele><time>2026-04-04T12:20:22Z</time></trkpt><trkpt lat="45.58575081798375" lon="11.227472138693654"><ele>632.0</ele><time>2026-04-04T12:20:23Z</time></trkpt><trkpt lat="45.58570472581608" lon="11.227265626639834"><ele>632.0</ele><time>2026-04-04T12:20:24Z</time></trkpt><trkpt lat="45.5856483413328" lon="11.227064660757751"><ele>632.0</ele><time>2026-04-04T12:20:25Z</time></trkpt><trkpt lat="45.58560231361446" lon="11.226874338247846"><ele>635.0</ele><time>2026-04-04T12:20:26Z</time></trkpt><trkpt lat="45.585561630300504" lon="11.22667810046779"><ele>638.0</ele><time>2026-04-04T12:20:27Z</time></trkpt><trkpt lat="45.58552458716172" lon="11.226502229837033"><ele>641.0</ele><time>2026-04-04T12:20:28Z</time></trkpt><trkpt lat="45.5854979117233" lon="11.226344788322194"><ele>644.0</ele><time>2026-04-04T12:20:29Z</time></trkpt><trkpt lat="45.58549210984278" lon="11.226181176387083"><ele>644.25</ele><time>2026-04-04T12:20:30Z</time></trkpt><trkpt lat="45.58553240772551" lon="11.226012834019706"><ele>644.5</ele><time>2026-04-04T12:20:31Z</time></trkpt><trkpt lat="45.58555592281318" lon="11.225837063734263"><ele>644.75</ele><time>2026-04-04T12:20:32Z</time></trkpt><trkpt lat="45.585595275820936" lon="11.22566189101784"><ele>645.0</ele><time>2026-04-04T12:20:33Z</time></trkpt><trkpt lat="45.58563246604111" lon="11.225476593753244"><ele>645.0</ele><time>2026-04-04T12:20:34Z</time></trkpt><trkpt lat="45.58566908209527" lon="11.225287031019477"><ele>645.0</ele><time>2026-04-04T12:20:35Z</time></trkpt><trkpt lat="45.58570298400535" lon="11.225113246059625"><ele>645.0</ele><time>2026-04-04T12:20:36Z</time></trkpt><trkpt lat="45.58574568240231" lon="11.224959599667605"><ele>645.0</ele><time>2026-04-04T12:20:37Z</time></trkpt><trkpt lat="45.58580146940625" lon="11.224816916222741"><ele>643.0</ele><time>2026-04-04T12:20:38Z</time></trkpt><trkpt lat="45.585856197097904" lon="11.22469914497067"><ele>641.0</ele><time>2026-04-04T12:20:39Z</time></trkpt><trkpt lat="45.5859108768499" lon="11.224590491416453"><ele>639.0</ele><time>2026-04-04T12:20:40Z</time></trkpt><trkpt lat="45.5859708177294" lon="11.224483522552644"><ele>637.0</ele><time>2026-04-04T12:20:41Z</time></trkpt><trkpt lat="45.58605134588574" lon="11.224405850495943"><ele>635.0</ele><time>2026-04-04T12:20:42Z</time></trkpt><trkpt lat="45.586151388636125" lon="11.224385665197595"><ele>637.5</ele><time>2026-04-04T12:20:43Z</time></trkpt><trkpt lat="45.586264835713095" lon="11.224411962948558"><ele>640.0</ele><time>2026-04-04T12:20:44Z</time></trkpt><trkpt lat="45.58639263903527" lon="11.224464015307106"><ele>642.5</ele><time>2026-04-04T12:20:45Z</time></trkpt><trkpt lat="45.586527256320934" lon="11.224523115333813"><ele>645.0</ele><time>2026-04-04T12:20:46Z</time></trkpt><trkpt lat="45.586691021686896" lon="11.224549959902907"><ele>645.0</ele><time>2026-04-04T12:20:47Z</time></trkpt><trkpt lat="45.586895441959726" lon="11.224573988068109"><ele>645.0</ele><time>2026-04-04T12:20:48Z</time></trkpt><trkpt lat="45.58713023516244" lon="11.22456125965695"><ele>645.0</ele><time>2026-04-04T12:20:49Z</time></trkpt><trkpt lat="45.58737354535242" lon="11.224557800534626"><ele>648.6666666666666</ele><time>2026-04-04T12:20:50Z</time></trkpt><trkpt lat="45.58759659437761" lon="11.22453412668531"><ele>652.3333333333333</ele><time>2026-04-04T12:20:51Z</time></trkpt><trkpt lat="45.587786166345566" lon="11.224481403582315"><ele>656.0</ele><time>2026-04-04T12:20:51.999Z</time></trkpt><trkpt lat="45.58795915408644" lon="11.224444674760699"><ele>658.6666666666666</ele><time>2026-04-04T12:20:52.999Z</time></trkpt><trkpt lat="45.588140857892625" lon="11.224478040596017"><ele>661.3333333333334</ele><time>2026-04-04T12:20:53.999Z</time></trkpt><trkpt lat="45.588331776526665" lon="11.2245115668596"><ele>664.0</ele><time>2026-04-04T12:20:54.999Z</time></trkpt><trkpt lat="45.58850911369112" lon="11.224539019658373"><ele>668.6666666666667</ele><time>2026-04-04T12:20:55.999Z</time></trkpt><trkpt lat="45.58868487613331" lon="11.224532898714147"><ele>673.3333333333334</ele><time>2026-04-04T12:20:56.999Z</time></trkpt><trkpt lat="45.58886007904763" lon="11.22447817288761"><ele>678.0</ele><time>2026-04-04T12:20:57.999Z</time></trkpt><trkpt lat="45.589040746173275" lon="11.224387192906859"><ele>678.0</ele><time>2026-04-04T12:20:58.999Z</time></trkpt><trkpt lat="45.58921460726232" lon="11.224249643372431"><ele>678.0</ele><time>2026-04-04T12:20:59.999Z</time></trkpt><trkpt lat="45.58938879844239" lon="11.224099976944553"><ele>678.0</ele><time>2026-04-04T12:21:00.999Z</time></trkpt><trkpt lat="45.58956075579042" lon="11.223942588101782"><ele>681.3333333333334</ele><time>2026-04-04T12:21:01.999Z</time></trkpt><trkpt lat="45.58972730123094" lon="11.22378434280455"><ele>684.6666666666667</ele><time>2026-04-04T12:21:02.999Z</time></trkpt><trkpt lat="45.589879947974424" lon="11.223627306679209"><ele>688.0</ele><time>2026-04-04T12:21:03.999Z</time></trkpt><trkpt lat="45.59002052920742" lon="11.223473759310197"><ele>688.0</ele><time>2026-04-04T12:21:04.999Z</time></trkpt><trkpt lat="45.590145418462065" lon="11.22333407972731"><ele>688.0</ele><time>2026-04-04T12:21:05.999Z</time></trkpt><trkpt lat="45.59026639087051" lon="11.223194919846248"><ele>688.0</ele><time>2026-04-04T12:21:06.999Z</time></trkpt><trkpt lat="45.590383801913184" lon="11.223057819643484"><ele>690.3333333333334</ele><time>2026-04-04T12:21:07.999Z</time></trkpt><trkpt lat="45.5905029310715" lon="11.222906833345094"><ele>692.6666666666666</ele><time>2026-04-04T12:21:08.999Z</time></trkpt><trkpt lat="45.590617216971246" lon="11.222747203815894"><ele>695.0</ele><time>2026-04-04T12:21:09.999Z</time></trkpt><trkpt lat="45.59072162864455" lon="11.222578190457556"><ele>695.0</ele><time>2026-04-04T12:21:10.999Z</time></trkpt><trkpt lat="45.59082258639001" lon="11.222410677981626"><ele>695.0</ele><time>2026-04-04T12:21:11.999Z</time></trkpt><trkpt lat="45.59091332092578" lon="11.222251140209565"><ele>695.0</ele><time>2026-04-04T12:21:12.999Z</time></trkpt><trkpt lat="45.59100035090127" lon="11.222100950440144"><ele>695.0</ele><time>2026-04-04T12:21:13.999Z</time></trkpt><trkpt lat="45.59109071342312" lon="11.221958277110692"><ele>697.0</ele><time>2026-04-04T12:21:14.999Z</time></trkpt><trkpt lat="45.59119553024027" lon="11.221844834369946"><ele>699.0</ele><time>2026-04-04T12:21:15.999Z</time></trkpt><trkpt lat="45.59131001824366" lon="11.22176600181385"><ele>701.0</ele><time>2026-04-04T12:21:16.999Z</time></trkpt><trkpt lat="45.591417316989165" lon="11.221725289626379"><ele>703.0</ele><time>2026-04-04T12:21:17.999Z</time></trkpt><trkpt lat="45.59150599721017" lon="11.221702716952095"><ele>703.0</ele><time>2026-04-04T12:21:18.999Z</time></trkpt><trkpt lat="45.591567344737186" lon="11.221676592850947"><ele>703.0</ele><time>2026-04-04T12:21:19.999Z</time></trkpt><trkpt lat="45.59161733296168" lon="11.221621811601926"><ele>703.0</ele><time>2026-04-04T12:21:20.999Z</time></trkpt><trkpt lat="45.591666990759336" lon="11.221529456407113"><ele>703.0</ele><time>2026-04-04T12:21:21.999Z</time></trkpt><trkpt lat="45.59168299847414" lon="11.221427111337782"><ele>703.0</ele><time>2026-04-04T12:21:22.999Z</time></trkpt><trkpt lat="45.59165718648882" lon="11.221294851778218"><ele>703.0</ele><time>2026-04-04T12:21:23.999Z</time></trkpt><trkpt lat="45.591602946222075" lon="11.221178432012518"><ele>704.5999999999999</ele><time>2026-04-04T12:21:24.999Z</time></trkpt><trkpt lat="45.591540219426804" lon="11.221065424990236"><ele>706.1999999999999</ele><time>2026-04-04T12:21:25.999Z</time></trkpt><trkpt lat="45.59149568733411" lon="11.220982726424683"><ele>707.8</ele><time>2026-04-04T12:21:26.999Z</time></trkpt><trkpt lat="45.5914312868293" lon="11.220824378989114"><ele>709.4</ele><time>2026-04-04T12:21:28.999Z</time></trkpt><trkpt lat="45.59139814333748" lon="11.22069733608747"><ele>711.0</ele><time>2026-04-04T12:21:29.999Z</time></trkpt><trkpt lat="45.59135638962386" lon="11.220567523565371"><ele>713.0</ele><time>2026-04-04T12:21:30.999Z</time></trkpt><trkpt lat="45.59131820222417" lon="11.220433915505037"><ele>715.0</ele><time>2026-04-04T12:21:31.999Z</time></trkpt><trkpt lat="45.591280649453495" lon="11.220299433986304"><ele>717.0</ele><time>2026-04-04T12:21:32.999Z</time></trkpt><trkpt lat="45.59126117340696" lon="11.220151854133785"><ele>719.0</ele><time>2026-04-04T12:21:33.999Z</time></trkpt><trkpt lat="45.59124942523214" lon="11.220015383612312"><ele>721.0</ele><time>2026-04-04T12:21:34.999Z</time></trkpt><trkpt lat="45.59124776719589" lon="11.219905320093272"><ele>721.4285714285714</ele><time>2026-04-04T12:21:35.999Z</time></trkpt><trkpt lat="45.591251285129104" lon="11.219803552894207"><ele>721.8571428571429</ele><time>2026-04-04T12:21:36.999Z</time></trkpt><trkpt lat="45.59125116539988" lon="11.219706712168954"><ele>722.2857142857142</ele><time>2026-04-04T12:21:37.999Z</time></trkpt><trkpt lat="45.591252426435695" lon="11.219613685673448"><ele>722.7142857142858</ele><time>2026-04-04T12:21:38.999Z</time></trkpt><trkpt lat="45.59125243905977" lon="11.21952056933401"><ele>723.1428571428571</ele><time>2026-04-04T12:21:39.999Z</time></trkpt><trkpt lat="45.59126381359217" lon="11.219424994910131"><ele>723.5714285714286</ele><time>2026-04-04T12:21:40.999Z</time></trkpt><trkpt lat="45.59128077062449" lon="11.21932366152898"><ele>724.0</ele><time>2026-04-04T12:21:41.999Z</time></trkpt><trkpt lat="45.591324756661884" lon="11.21921675545531"><ele>724.0</ele><time>2026-04-04T12:21:42.999Z</time></trkpt><trkpt lat="45.59140561381696" lon="11.219122751938567"><ele>724.0</ele><time>2026-04-04T12:21:43.999Z</time></trkpt><trkpt lat="45.591472599048004" lon="11.219038048235731"><ele>724.0</ele><time>2026-04-04T12:21:44.999Z</time></trkpt><trkpt lat="45.59154400247888" lon="11.218967963719336"><ele>724.0</ele><time>2026-04-04T12:21:45.999Z</time></trkpt><trkpt lat="45.59160102245152" lon="11.218914275546666"><ele>724.0</ele><time>2026-04-04T12:21:46.999Z</time></trkpt><trkpt lat="45.59166631658009" lon="11.218858959190621"><ele>724.0</ele><time>2026-04-04T12:21:47.998Z</time></trkpt><trkpt lat="45.591737414990945" lon="11.218791912241786"><ele>723.75</ele><time>2026-04-04T12:21:48.998Z</time></trkpt><trkpt lat="45.59182274652282" lon="11.218668969811457"><ele>723.5</ele><time>2026-04-04T12:21:49.998Z</time></trkpt><trkpt lat="45.59188925589143" lon="11.218463967630457"><ele>723.25</ele><time>2026-04-04T12:21:50.998Z</time></trkpt><trkpt lat="45.59191061758367" lon="11.218232019906088"><ele>723.0</ele><time>2026-04-04T12:21:51.998Z</time></trkpt><trkpt lat="45.59192629290898" lon="11.218053127473533"><ele>722.75</ele><time>2026-04-04T12:21:52.998Z</time></trkpt><trkpt lat="45.591946640496396" lon="11.21787848317873"><ele>722.5</ele><time>2026-04-04T12:21:53.998Z</time></trkpt><trkpt lat="45.59200427841717" lon="11.217693595620135"><ele>722.25</ele><time>2026-04-04T12:21:54.998Z</time></trkpt><trkpt lat="45.59209284529906" lon="11.217511406202926"><ele>722.0</ele><time>2026-04-04T12:21:55.998Z</time></trkpt><trkpt lat="45.59222057989492" lon="11.217340167706322"><ele>727.6666666666666</ele><time>2026-04-04T12:21:56.998Z</time></trkpt><trkpt lat="45.592330880945795" lon="11.217140864563955"><ele>733.3333333333334</ele><time>2026-04-04T12:21:57.998Z</time></trkpt><trkpt lat="45.59243699319332" lon="11.21691019204022"><ele>739.0</ele><time>2026-04-04T12:21:58.998Z</time></trkpt><trkpt lat="45.59254336149433" lon="11.216695112268335"><ele>739.0</ele><time>2026-04-04T12:21:59.998Z</time></trkpt><trkpt lat="45.592636114028856" lon="11.216547972560777"><ele>739.0</ele><time>2026-04-04T12:22:00.998Z</time></trkpt><trkpt lat="45.59271564993529" lon="11.216411029751045"><ele>739.0</ele><time>2026-04-04T12:22:01.998Z</time></trkpt><trkpt lat="45.59276060978253" lon="11.216230229305463"><ele>739.0</ele><time>2026-04-04T12:22:02.998Z</time></trkpt><trkpt lat="45.59276805512942" lon="11.21601109804963"><ele>738.75</ele><time>2026-04-04T12:22:03.998Z</time></trkpt><trkpt lat="45.592756306903546" lon="11.215781561796401"><ele>738.5</ele><time>2026-04-04T12:22:04.998Z</time></trkpt><trkpt lat="45.592782909287116" lon="11.2155822977583"><ele>738.25</ele><time>2026-04-04T12:22:05.998Z</time></trkpt><trkpt lat="45.5928438621172" lon="11.215440563352468"><ele>738.0</ele><time>2026-04-04T12:22:06.998Z</time></trkpt><trkpt lat="45.59292803948193" lon="11.2153346784189"><ele>742.5</ele><time>2026-04-04T12:22:07.998Z</time></trkpt><trkpt lat="45.593031655468764" lon="11.215236608122613"><ele>747.0</ele><time>2026-04-04T12:22:08.998Z</time></trkpt><trkpt lat="45.59316327312848" lon="11.215148972652909"><ele>751.5</ele><time>2026-04-04T12:22:09.998Z</time></trkpt><trkpt lat="45.59329668750409" lon="11.21509117243981"><ele>756.0</ele><time>2026-04-04T12:22:10.998Z</time></trkpt><trkpt lat="45.59342186197243" lon="11.215050092786928"><ele>756.0</ele><time>2026-04-04T12:22:11.998Z</time></trkpt><trkpt lat="45.59352677117499" lon="11.215017503768351"><ele>756.0</ele><time>2026-04-04T12:22:12.998Z</time></trkpt><trkpt lat="45.59360379939457" lon="11.214967156600492"><ele>756.0</ele><time>2026-04-04T12:22:13.998Z</time></trkpt><trkpt lat="45.5936755966905" lon="11.214871591336767"><ele>756.0</ele><time>2026-04-04T12:22:15Z</time></trkpt><trkpt lat="45.593722096102546" lon="11.214722748917266"><ele>756.0</ele><time>2026-04-04T12:22:16Z</time></trkpt><trkpt lat="45.59375551697024" lon="11.214534019721247"><ele>760.0</ele><time>2026-04-04T12:22:17Z</time></trkpt><trkpt lat="45.5937713122762" lon="11.214332689152481"><ele>764.0</ele><time>2026-04-04T12:22:18Z</time></trkpt><trkpt lat="45.59377503881324" lon="11.214135789139146"><ele>768.0</ele><time>2026-04-04T12:22:19Z</time></trkpt><trkpt lat="45.59378047312566" lon="11.213935939382843"><ele>772.0</ele><time>2026-04-04T12:22:20Z</time></trkpt><trkpt lat="45.5937766716519" lon="11.213724840729379"><ele>776.6666666666666</ele><time>2026-04-04T12:22:21Z</time></trkpt><trkpt lat="45.593764488105656" lon="11.213511057507622"><ele>781.3333333333333</ele><time>2026-04-04T12:22:22Z</time></trkpt><trkpt lat="45.59375141765906" lon="11.213290940895325"><ele>786.0</ele><time>2026-04-04T12:22:23Z</time></trkpt><trkpt lat="45.59373943809404" lon="11.213083596170097"><ele>787.0</ele><time>2026-04-04T12:22:24Z</time></trkpt><trkpt lat="45.59373258321043" lon="11.212865590117644"><ele>788.0</ele><time>2026-04-04T12:22:25Z</time></trkpt><trkpt lat="45.593721930217875" lon="11.212642830910456"><ele>789.0</ele><time>2026-04-04T12:22:26Z</time></trkpt><trkpt lat="45.59372504302243" lon="11.212423899037399"><ele>789.6666666666667</ele><time>2026-04-04T12:22:27Z</time></trkpt><trkpt lat="45.593723365800116" lon="11.212205826223725"><ele>790.3333333333334</ele><time>2026-04-04T12:22:28Z</time></trkpt><trkpt lat="45.59370252747195" lon="11.211975305971823"><ele>791.0</ele><time>2026-04-04T12:22:29Z</time></trkpt><trkpt lat="45.59364467810208" lon="11.211757361437193"><ele>786.3333333333334</ele><time>2026-04-04T12:22:30Z</time></trkpt><trkpt lat="45.59361658807045" lon="11.211540669885933"><ele>781.6666666666667</ele><time>2026-04-04T12:22:31Z</time></trkpt><trkpt lat="45.593594899098406" lon="11.211302432808841"><ele>777.0</ele><time>2026-04-04T12:22:32Z</time></trkpt><trkpt lat="45.593572676188046" lon="11.21108946876896"><ele>777.0</ele><time>2026-04-04T12:22:33Z</time></trkpt><trkpt lat="45.5936111076487" lon="11.21089485283377"><ele>777.0</ele><time>2026-04-04T12:22:34Z</time></trkpt><trkpt lat="45.593629012551546" lon="11.210690364043836"><ele>777.0</ele><time>2026-04-04T12:22:35Z</time></trkpt><trkpt lat="45.59365979017121" lon="11.210492308325783"><ele>777.0</ele><time>2026-04-04T12:22:36Z</time></trkpt><trkpt lat="45.59368638811915" lon="11.210302995651832"><ele>783.25</ele><time>2026-04-04T12:22:37Z</time></trkpt><trkpt lat="45.59370546363358" lon="11.210126588439103"><ele>789.5</ele><time>2026-04-04T12:22:38Z</time></trkpt><trkpt lat="45.593734984427634" lon="11.209956476779409"><ele>795.75</ele><time>2026-04-04T12:22:39Z</time></trkpt><trkpt lat="45.5937584928985" lon="11.209799873628032"><ele>802.0</ele><time>2026-04-04T12:22:40Z</time></trkpt><trkpt lat="45.59379160607129" lon="11.209672360817434"><ele>802.0</ele><time>2026-04-04T12:22:41Z</time></trkpt><trkpt lat="45.59384371641806" lon="11.209560993814488"><ele>802.0</ele><time>2026-04-04T12:22:42Z</time></trkpt><trkpt lat="45.59390299459815" lon="11.209455466827993"><ele>802.0</ele><time>2026-04-04T12:22:43Z</time></trkpt><trkpt lat="45.593961629489165" lon="11.209334049842141"><ele>802.0</ele><time>2026-04-04T12:22:44Z</time></trkpt><trkpt lat="45.59398953079897" lon="11.209186005718673"><ele>802.0</ele><time>2026-04-04T12:22:45Z</time></trkpt><trkpt lat="45.59400287446268" lon="11.208998570372266"><ele>802.1666666666666</ele><time>2026-04-04T12:22:46Z</time></trkpt><trkpt lat="45.59399032732359" lon="11.208858407329918"><ele>802.3333333333333</ele><time>2026-04-04T12:22:47Z</time></trkpt><trkpt lat="45.59399686357334" lon="11.208742356741931"><ele>802.5</ele><time>2026-04-04T12:22:48Z</time></trkpt><trkpt lat="45.59400786097216" lon="11.208640150116695"><ele>802.6666666666667</ele><time>2026-04-04T12:22:49Z</time></trkpt><trkpt lat="45.59403330077904" lon="11.208540199404137"><ele>802.8333333333334</ele><time>2026-04-04T12:22:50Z</time></trkpt><trkpt lat="45.59407168590425" lon="11.208446376798921"><ele>803.0</ele><time>2026-04-04T12:22:51Z</time></trkpt><trkpt lat="45.59412394807898" lon="11.208344725718613"><ele>803.0000000000001</ele><time>2026-04-04T12:22:52Z</time></trkpt><trkpt lat="45.594186804906556" lon="11.20824677588196"><ele>803.0</ele><time>2026-04-04T12:22:53Z</time></trkpt><trkpt lat="45.59424904840104" lon="11.208147012494917"><ele>803.0</ele><time>2026-04-04T12:22:54Z</time></trkpt><trkpt lat="45.59430365328647" lon="11.208063890070623"><ele>803.0</ele><time>2026-04-04T12:22:55Z</time></trkpt><trkpt lat="45.59435009499069" lon="11.20798584379608"><ele>803.0000000000001</ele><time>2026-04-04T12:22:56Z</time></trkpt><trkpt lat="45.5944012627971" lon="11.207925777629729"><ele>803.0</ele><time>2026-04-04T12:22:56.999Z</time></trkpt><trkpt lat="45.594458864122025" lon="11.20786377700657"><ele>804.0</ele><time>2026-04-04T12:22:57.999Z</time></trkpt><trkpt lat="45.594512011356336" lon="11.207774800033107"><ele>805.0</ele><time>2026-04-04T12:22:58.999Z</time></trkpt><trkpt lat="45.59452518198141" lon="11.207628229567757"><ele>806.0</ele><time>2026-04-04T12:22:59.999Z</time></trkpt><trkpt lat="45.59454821950943" lon="11.207471137903683"><ele>807.0</ele><time>2026-04-04T12:23:00.999Z</time></trkpt><trkpt lat="45.594546981873755" lon="11.20731052642828"><ele>808.0</ele><time>2026-04-04T12:23:01.999Z</time></trkpt><trkpt lat="45.59457600500113" lon="11.207176502512207"><ele>808.0</ele><time>2026-04-04T12:23:02.999Z</time></trkpt><trkpt lat="45.59464249947188" lon="11.207082412785285"><ele>808.0</ele><time>2026-04-04T12:23:03.999Z</time></trkpt><trkpt lat="45.594706642317156" lon="11.206957912327542"><ele>808.0</ele><time>2026-04-04T12:23:04.999Z</time></trkpt><trkpt lat="45.594798740302316" lon="11.206845862253495"><ele>808.0</ele><time>2026-04-04T12:23:05.999Z</time></trkpt><trkpt lat="45.59488664729541" lon="11.206727395931495"><ele>808.0</ele><time>2026-04-04T12:23:06.999Z</time></trkpt><trkpt lat="45.59497111939769" lon="11.206587135181204"><ele>808.0</ele><time>2026-04-04T12:23:07.999Z</time></trkpt><trkpt lat="45.5950567813268" lon="11.206423741125054"><ele>808.0</ele><time>2026-04-04T12:23:08.999Z</time></trkpt><trkpt lat="45.59514652315021" lon="11.206246214987146"><ele>808.0</ele><time>2026-04-04T12:23:09.999Z</time></trkpt><trkpt lat="45.595241321814925" lon="11.206068004238304"><ele>808.0</ele><time>2026-04-04T12:23:10.999Z</time></trkpt><trkpt lat="45.595323537692714" lon="11.205912925959264"><ele>808.0</ele><time>2026-04-04T12:23:11.999Z</time></trkpt><trkpt lat="45.595396203744805" lon="11.205762494899052"><ele>808.0</ele><time>2026-04-04T12:23:12.999Z</time></trkpt><trkpt lat="45.59546554948453" lon="11.205608705611665"><ele>808.0</ele><time>2026-04-04T12:23:13.999Z</time></trkpt><trkpt lat="45.595513923757004" lon="11.205453704075802"><ele>812.0</ele><time>2026-04-04T12:23:14.999Z</time></trkpt><trkpt lat="45.59555005916388" lon="11.20529483731278"><ele>816.0</ele><time>2026-04-04T12:23:15.999Z</time></trkpt><trkpt lat="45.59556082939582" lon="11.205126131985066"><ele>820.0</ele><time>2026-04-04T12:23:16.999Z</time></trkpt><trkpt lat="45.59552955859359" lon="11.204957058871173"><ele>824.0</ele><time>2026-04-04T12:23:17.999Z</time></trkpt><trkpt lat="45.59545881092559" lon="11.204809105687833"><ele>826.0</ele><time>2026-04-04T12:23:18.999Z</time></trkpt><trkpt lat="45.59541913706787" lon="11.204678299747739"><ele>828.0</ele><time>2026-04-04T12:23:19.999Z</time></trkpt><trkpt lat="45.59538265375775" lon="11.204581412616669"><ele>830.0</ele><time>2026-04-04T12:23:20.999Z</time></trkpt><trkpt lat="45.595408258939" lon="11.204473022558412"><ele>832.0</ele><time>2026-04-04T12:23:21.999Z</time></trkpt><trkpt lat="45.595480316904826" lon="11.20439651875272"><ele>834.0</ele><time>2026-04-04T12:23:22.999Z</time></trkpt><trkpt lat="45.59558335832273" lon="11.204370157526133"><ele>834.0</ele><time>2026-04-04T12:23:23.999Z</time></trkpt><trkpt lat="45.59572087206552" lon="11.204392792376092"><ele>834.0</ele><time>2026-04-04T12:23:24.999Z</time></trkpt><trkpt lat="45.59588289452719" lon="11.204442267803387"><ele>834.0</ele><time>2026-04-04T12:23:25.999Z</time></trkpt><trkpt lat="45.59604830250495" lon="11.204451671367705"><ele>837.3333333333333</ele><time>2026-04-04T12:23:26.999Z</time></trkpt><trkpt lat="45.5962385519905" lon="11.20441893006718"><ele>840.6666666666666</ele><time>2026-04-04T12:23:27.999Z</time></trkpt><trkpt lat="45.59643204894869" lon="11.204365469289424"><ele>844.0</ele><time>2026-04-04T12:23:28.999Z</time></trkpt><trkpt lat="45.59662035640943" lon="11.204295934636827"><ele>844.0</ele><time>2026-04-04T12:23:29.999Z</time></trkpt><trkpt lat="45.59677669328293" lon="11.20421727054177"><ele>844.0</ele><time>2026-04-04T12:23:30.999Z</time></trkpt><trkpt lat="45.596909244324195" lon="11.204133921035757"><ele>844.0</ele><time>2026-04-04T12:23:31.999Z</time></trkpt><trkpt lat="45.5970295181063" lon="11.204003069781029"><ele>845.6666666666666</ele><time>2026-04-04T12:23:32.999Z</time></trkpt><trkpt lat="45.59715004312479" lon="11.203836850034035"><ele>847.3333333333333</ele><time>2026-04-04T12:23:33.999Z</time></trkpt><trkpt lat="45.59725619720826" lon="11.203674612090113"><ele>849.0</ele><time>2026-04-04T12:23:34.999Z</time></trkpt><trkpt lat="45.59734515599127" lon="11.203534721173304"><ele>849.0</ele><time>2026-04-04T12:23:35.999Z</time></trkpt><trkpt lat="45.59742221307164" lon="11.203397765137966"><ele>849.0</ele><time>2026-04-04T12:23:36.999Z</time></trkpt><trkpt lat="45.597477641108114" lon="11.203254873338127"><ele>849.0</ele><time>2026-04-04T12:23:37.999Z</time></trkpt><trkpt lat="45.59752099699402" lon="11.20309613029396"><ele>849.0</ele><time>2026-04-04T12:23:38.999Z</time></trkpt><trkpt lat="45.59754953681393" lon="11.202924497102046"><ele>848.75</ele><time>2026-04-04T12:23:39.999Z</time></trkpt><trkpt lat="45.59756720511207" lon="11.20274908180986"><ele>848.5</ele><time>2026-04-04T12:23:40.999Z</time></trkpt><trkpt lat="45.59759118341578" lon="11.20257387821053"><ele>848.25</ele><time>2026-04-04T12:23:41.999Z</time></trkpt><trkpt lat="45.59761396505998" lon="11.202414347832384"><ele>848.0</ele><time>2026-04-04T12:23:42.999Z</time></trkpt><trkpt lat="45.59763834182185" lon="11.202261784318035"><ele>848.0</ele><time>2026-04-04T12:23:43.999Z</time></trkpt><trkpt lat="45.597660499285126" lon="11.202115009417572"><ele>848.0</ele><time>2026-04-04T12:23:44.999Z</time></trkpt><trkpt lat="45.597691583319815" lon="11.201979205387623"><ele>848.0</ele><time>2026-04-04T12:23:45.999Z</time></trkpt><trkpt lat="45.597702174057225" lon="11.201840392817864"><ele>848.0</ele><time>2026-04-04T12:23:46.999Z</time></trkpt><trkpt lat="45.59769121849945" lon="11.201691121656504"><ele>848.0</ele><time>2026-04-04T12:23:47.999Z</time></trkpt><trkpt lat="45.597635572397614" lon="11.201523455800688"><ele>845.25</ele><time>2026-04-04T12:23:48.999Z</time></trkpt><trkpt lat="45.597549138263695" lon="11.201356560263688"><ele>842.5</ele><time>2026-04-04T12:23:49.999Z</time></trkpt><trkpt lat="45.59744699368446" lon="11.20119147779037"><ele>839.75</ele><time>2026-04-04T12:23:50.999Z</time></trkpt><trkpt lat="45.597354842430285" lon="11.201030067232395"><ele>837.0</ele><time>2026-04-04T12:23:51.999Z</time></trkpt><trkpt lat="45.59728550176849" lon="11.200867300875498"><ele>837.0</ele><time>2026-04-04T12:23:52.999Z</time></trkpt><trkpt lat="45.597198089543355" lon="11.200746244506288"><ele>837.0</ele><time>2026-04-04T12:23:53.998Z</time></trkpt><trkpt lat="45.59713876153309" lon="11.200624210701852"><ele>837.0</ele><time>2026-04-04T12:23:54.998Z</time></trkpt><trkpt lat="45.59708414474103" lon="11.200503634119931"><ele>837.0</ele><time>2026-04-04T12:23:55.998Z</time></trkpt><trkpt lat="45.59705145294245" lon="11.20035843681337"><ele>837.0</ele><time>2026-04-04T12:23:56.998Z</time></trkpt><trkpt lat="45.597074476144265" lon="11.200193486484894"><ele>838.6666666666667</ele><time>2026-04-04T12:23:57.998Z</time></trkpt><trkpt lat="45.597140214015724" lon="11.20002483495672"><ele>840.3333333333334</ele><time>2026-04-04T12:23:58.998Z</time></trkpt><trkpt lat="45.59724086540553" lon="11.199842731342738"><ele>842.0</ele><time>2026-04-04T12:23:59.998Z</time></trkpt><trkpt lat="45.597345313317156" lon="11.199631651706143"><ele>846.0</ele><time>2026-04-04T12:24:00.998Z</time></trkpt><trkpt lat="45.59744071306598" lon="11.19939367466211"><ele>850.0</ele><time>2026-04-04T12:24:01.998Z</time></trkpt><trkpt lat="45.59754107729065" lon="11.199146869541224"><ele>854.0</ele><time>2026-04-04T12:24:02.998Z</time></trkpt><trkpt lat="45.5976490628445" lon="11.198899920087332"><ele>854.3333333333334</ele><time>2026-04-04T12:24:03.998Z</time></trkpt><trkpt lat="45.59775385286083" lon="11.198656617671922"><ele>854.6666666666667</ele><time>2026-04-04T12:24:04.998Z</time></trkpt><trkpt lat="45.597848839140426" lon="11.198431165760711"><ele>855.0</ele><time>2026-04-04T12:24:05.998Z</time></trkpt><trkpt lat="45.59793400913135" lon="11.198241878556464"><ele>862.6666666666667</ele><time>2026-04-04T12:24:06.998Z</time></trkpt><trkpt lat="45.598029364616" lon="11.198063929417813"><ele>870.3333333333334</ele><time>2026-04-04T12:24:07.998Z</time></trkpt><trkpt lat="45.598152416851526" lon="11.197922306506278"><ele>878.0</ele><time>2026-04-04T12:24:08.998Z</time></trkpt><trkpt lat="45.598293236645155" lon="11.197824377437573"><ele>878.0</ele><time>2026-04-04T12:24:09.998Z</time></trkpt><trkpt lat="45.59845235177528" lon="11.197770817333366"><ele>878.0</ele><time>2026-04-04T12:24:10.998Z</time></trkpt><trkpt lat="45.598626616383456" lon="11.197757787752815"><ele>878.0</ele><time>2026-04-04T12:24:11.998Z</time></trkpt><trkpt lat="45.598808619582336" lon="11.197776419415844"><ele>877.0</ele><time>2026-04-04T12:24:12.998Z</time></trkpt><trkpt lat="45.59898761786805" lon="11.197822860831245"><ele>876.0</ele><time>2026-04-04T12:24:13.998Z</time></trkpt><trkpt lat="45.59917337204758" lon="11.197879462484106"><ele>875.0</ele><time>2026-04-04T12:24:14.998Z</time></trkpt><trkpt lat="45.59935514581186" lon="11.197913383885844"><ele>875.0</ele><time>2026-04-04T12:24:15.998Z</time></trkpt><trkpt lat="45.59952325978198" lon="11.197912034296243"><ele>875.0</ele><time>2026-04-04T12:24:16.998Z</time></trkpt><trkpt lat="45.59968596433779" lon="11.197870218550971"><ele>875.0</ele><time>2026-04-04T12:24:17.998Z</time></trkpt><trkpt lat="45.59984843918569" lon="11.197776048946524"><ele>875.0</ele><time>2026-04-04T12:24:18.998Z</time></trkpt><trkpt lat="45.60002487251184" lon="11.197649977385494"><ele>875.0</ele><time>2026-04-04T12:24:19.998Z</time></trkpt><trkpt lat="45.60019612667111" lon="11.197500274193864"><ele>875.0</ele><time>2026-04-04T12:24:21Z</time></trkpt><trkpt lat="45.600379443963845" lon="11.197397801864527"><ele>873.0</ele><time>2026-04-04T12:24:22Z</time></trkpt><trkpt lat="45.60056080657437" lon="11.19733025990684"><ele>871.0</ele><time>2026-04-04T12:24:23Z</time></trkpt><trkpt lat="45.600717545142174" lon="11.197313106366684"><ele>869.0</ele><time>2026-04-04T12:24:24Z</time></trkpt><trkpt lat="45.60087006845462" lon="11.197313418932918"><ele>869.0</ele><time>2026-04-04T12:24:25Z</time></trkpt><trkpt lat="45.60100319960644" lon="11.197288181434384"><ele>869.0</ele><time>2026-04-04T12:24:26Z</time></trkpt><trkpt lat="45.601135837913304" lon="11.197228698672355"><ele>869.0</ele><time>2026-04-04T12:24:27Z</time></trkpt><trkpt lat="45.60125188972466" lon="11.19710611153176"><ele>869.0</ele><time>2026-04-04T12:24:28Z</time></trkpt><trkpt lat="45.60135948548695" lon="11.19693154371237"><ele>871.0</ele><time>2026-04-04T12:24:29Z</time></trkpt><trkpt lat="45.601452483483236" lon="11.196701259239582"><ele>873.0</ele><time>2026-04-04T12:24:30Z</time></trkpt><trkpt lat="45.60154454111963" lon="11.196457099565269"><ele>875.0</ele><time>2026-04-04T12:24:31Z</time></trkpt><trkpt lat="45.601648314197654" lon="11.196229811602652"><ele>875.0</ele><time>2026-04-04T12:24:32Z</time></trkpt><trkpt lat="45.60174884798051" lon="11.196011828077763"><ele>875.0</ele><time>2026-04-04T12:24:33Z</time></trkpt><trkpt lat="45.60184420361617" lon="11.195806316456563"><ele>875.0</ele><time>2026-04-04T12:24:34Z</time></trkpt><trkpt lat="45.601939440954276" lon="11.195605680210269"><ele>874.3333333333334</ele><time>2026-04-04T12:24:35Z</time></trkpt><trkpt lat="45.6020360080866" lon="11.19539779034488"><ele>873.6666666666667</ele><time>2026-04-04T12:24:36Z</time></trkpt><trkpt lat="45.60213615623983" lon="11.195193093206775"><ele>873.0</ele><time>2026-04-04T12:24:37Z</time></trkpt><trkpt lat="45.602232243127276" lon="11.194985917807333"><ele>876.0</ele><time>2026-04-04T12:24:38Z</time></trkpt><trkpt lat="45.60232979753718" lon="11.194778508961111"><ele>879.0</ele><time>2026-04-04T12:24:39Z</time></trkpt><trkpt lat="45.60243380886299" lon="11.194571623532811"><ele>882.0</ele><time>2026-04-04T12:24:40Z</time></trkpt><trkpt lat="45.60254305468997" lon="11.1943757919508"><ele>882.0</ele><time>2026-04-04T12:24:41Z</time></trkpt><trkpt lat="45.602659522418186" lon="11.194180293029081"><ele>882.0</ele><time>2026-04-04T12:24:42Z</time></trkpt><trkpt lat="45.60279026279936" lon="11.194012503873482"><ele>882.0</ele><time>2026-04-04T12:24:43Z</time></trkpt><trkpt lat="45.602922742245795" lon="11.193855416215975"><ele>882.0</ele><time>2026-04-04T12:24:44Z</time></trkpt><trkpt lat="45.603069851323696" lon="11.19372417911614"><ele>882.0</ele><time>2026-04-04T12:24:45Z</time></trkpt><trkpt lat="45.603217645592096" lon="11.193615264089132"><ele>882.0</ele><time>2026-04-04T12:24:46Z</time></trkpt><trkpt lat="45.60336924149171" lon="11.193509716013759"><ele>882.0</ele><time>2026-04-04T12:24:47Z</time></trkpt><trkpt lat="45.6035221199186" lon="11.19339668067973"><ele>882.0</ele><time>2026-04-04T12:24:48Z</time></trkpt><trkpt lat="45.603661066878885" lon="11.193286586491826"><ele>882.0</ele><time>2026-04-04T12:24:49Z</time></trkpt><trkpt lat="45.603792379112235" lon="11.19317970304023"><ele>879.75</ele><time>2026-04-04T12:24:50Z</time></trkpt><trkpt lat="45.60390954200104" lon="11.193066303337627"><ele>877.5</ele><time>2026-04-04T12:24:51Z</time></trkpt><trkpt lat="45.6040057888906" lon="11.192921035182726"><ele>875.25</ele><time>2026-04-04T12:24:52Z</time></trkpt><trkpt lat="45.60408079058735" lon="11.192765167247053"><ele>873.0</ele><time>2026-04-04T12:24:53Z</time></trkpt><trkpt lat="45.604152784606654" lon="11.192593040793607"><ele>873.0</ele><time>2026-04-04T12:24:54Z</time></trkpt><trkpt lat="45.604242128748126" lon="11.192421727823913"><ele>873.0</ele><time>2026-04-04T12:24:55Z</time></trkpt><trkpt lat="45.60437410343181" lon="11.192292568255043"><ele>873.0</ele><time>2026-04-04T12:24:56Z</time></trkpt><trkpt lat="45.60449868356101" lon="11.19218940378444"><ele>869.0</ele><time>2026-04-04T12:24:57Z</time></trkpt><trkpt lat="45.604623567638754" lon="11.192079335439983"><ele>865.0</ele><time>2026-04-04T12:24:58Z</time></trkpt><trkpt lat="45.604726096182524" lon="11.191892747876135"><ele>861.0</ele><time>2026-04-04T12:24:59Z</time></trkpt><trkpt lat="45.60482212349571" lon="11.191675889673002"><ele>859.3333333333333</ele><time>2026-04-04T12:25:00Z</time></trkpt><trkpt lat="45.604925638184646" lon="11.191456813426656"><ele>857.6666666666666</ele><time>2026-04-04T12:25:01Z</time></trkpt><trkpt lat="45.60503727099643" lon="11.19125888181555"><ele>856.0</ele><time>2026-04-04T12:25:01.999Z</time></trkpt><trkpt lat="45.60515655770086" lon="11.191073531705003"><ele>856.0</ele><time>2026-04-04T12:25:02.999Z</time></trkpt><trkpt lat="45.60528525235475" lon="11.190901834145718"><ele>856.0</ele><time>2026-04-04T12:25:03.999Z</time></trkpt><trkpt lat="45.605423007842035" lon="11.190742949921278"><ele>856.0</ele><time>2026-04-04T12:25:04.999Z</time></trkpt><trkpt lat="45.6055578655956" lon="11.190588413515751"><ele>853.6666666666666</ele><time>2026-04-04T12:25:05.999Z</time></trkpt><trkpt lat="45.60568198673154" lon="11.190436999736002"><ele>851.3333333333333</ele><time>2026-04-04T12:25:06.999Z</time></trkpt><trkpt lat="45.6058072270383" lon="11.190290101845669"><ele>849.0</ele><time>2026-04-04T12:25:07.999Z</time></trkpt><trkpt lat="45.60593697353387" lon="11.190144398619736"><ele>849.0</ele><time>2026-04-04T12:25:08.999Z</time></trkpt><trkpt lat="45.606073882075286" lon="11.190010215850378"><ele>849.0</ele><time>2026-04-04T12:25:09.999Z</time></trkpt><trkpt lat="45.606218128014675" lon="11.189884046840707"><ele>849.0</ele><time>2026-04-04T12:25:10.999Z</time></trkpt><trkpt lat="45.606366777768464" lon="11.189759034498538"><ele>850.75</ele><time>2026-04-04T12:25:11.999Z</time></trkpt><trkpt lat="45.606513101660134" lon="11.189634081456017"><ele>852.5</ele><time>2026-04-04T12:25:12.999Z</time></trkpt><trkpt lat="45.606635601026746" lon="11.189539598005872"><ele>854.25</ele><time>2026-04-04T12:25:13.999Z</time></trkpt><trkpt lat="45.60675653752985" lon="11.189449085429889"><ele>856.0</ele><time>2026-04-04T12:25:14.999Z</time></trkpt><trkpt lat="45.60685334884571" lon="11.189342157581848"><ele>856.0</ele><time>2026-04-04T12:25:15.999Z</time></trkpt><trkpt lat="45.6069204131871" lon="11.189182709078763"><ele>856.0</ele><time>2026-04-04T12:25:16.999Z</time></trkpt><trkpt lat="45.60696073826438" lon="11.189016157674974"><ele>856.0</ele><time>2026-04-04T12:25:17.999Z</time></trkpt><trkpt lat="45.6069934086497" lon="11.188865298929363"><ele>856.0</ele><time>2026-04-04T12:25:18.999Z</time></trkpt><trkpt lat="45.60705730696205" lon="11.188707276032876"><ele>857.5</ele><time>2026-04-04T12:25:19.999Z</time></trkpt><trkpt lat="45.60714506536748" lon="11.1886072213941"><ele>859.0</ele><time>2026-04-04T12:25:20.999Z</time></trkpt><trkpt lat="45.607248977214745" lon="11.188566635873954"><ele>860.5</ele><time>2026-04-04T12:25:21.999Z</time></trkpt><trkpt lat="45.607369818785166" lon="11.188556677263756"><ele>862.0</ele><time>2026-04-04T12:25:22.999Z</time></trkpt><trkpt lat="45.607500407892275" lon="11.188551260924195"><ele>862.0</ele><time>2026-04-04T12:25:23.999Z</time></trkpt><trkpt lat="45.60762302170839" lon="11.1885271997911"><ele>862.0</ele><time>2026-04-04T12:25:24.999Z</time></trkpt><trkpt lat="45.60773857240066" lon="11.18847045633877"><ele>862.0</ele><time>2026-04-04T12:25:25.999Z</time></trkpt><trkpt lat="45.6078355514367" lon="11.188360805600805"><ele>862.0</ele><time>2026-04-04T12:25:26.999Z</time></trkpt><trkpt lat="45.607890007226615" lon="11.188218651440026"><ele>866.6666666666666</ele><time>2026-04-04T12:25:27.999Z</time></trkpt><trkpt lat="45.607905057112134" lon="11.188026000805026"><ele>871.3333333333333</ele><time>2026-04-04T12:25:28.999Z</time></trkpt><trkpt lat="45.607884335685306" lon="11.187785562814334"><ele>876.0</ele><time>2026-04-04T12:25:29.999Z</time></trkpt><trkpt lat="45.60785212199207" lon="11.187545354435983"><ele>875.25</ele><time>2026-04-04T12:25:30.999Z</time></trkpt><trkpt lat="45.60782972142363" lon="11.187326824818655"><ele>874.5</ele><time>2026-04-04T12:25:31.999Z</time></trkpt><trkpt lat="45.60781387393516" lon="11.187152171817992"><ele>873.75</ele><time>2026-04-04T12:25:32.999Z</time></trkpt><trkpt lat="45.60777592779728" lon="11.187010755898179"><ele>873.0</ele><time>2026-04-04T12:25:33.999Z</time></trkpt><trkpt lat="45.607697217306864" lon="11.186896946887824"><ele>873.0</ele><time>2026-04-04T12:25:34.999Z</time></trkpt><trkpt lat="45.6075910414101" lon="11.186804836559489"><ele>873.0</ele><time>2026-04-04T12:25:35.999Z</time></trkpt><trkpt lat="45.60748207557525" lon="11.18666853532477"><ele>873.0</ele><time>2026-04-04T12:25:36.999Z</time></trkpt><trkpt lat="45.607404993587394" lon="11.186512009406"><ele>873.0</ele><time>2026-04-04T12:25:37.999Z</time></trkpt><trkpt lat="45.60735277770854" lon="11.18630422852843"><ele>873.5</ele><time>2026-04-04T12:25:38.999Z</time></trkpt><trkpt lat="45.60731103528719" lon="11.18610448059549"><ele>874.0</ele><time>2026-04-04T12:25:39.999Z</time></trkpt><trkpt lat="45.60730385276924" lon="11.185927084221934"><ele>874.5</ele><time>2026-04-04T12:25:40.999Z</time></trkpt><trkpt lat="45.60733038198515" lon="11.185792615076194"><ele>875.0</ele><time>2026-04-04T12:25:41.999Z</time></trkpt><trkpt lat="45.60738985546146" lon="11.185710350525637"><ele>873.75</ele><time>2026-04-04T12:25:42.999Z</time></trkpt><trkpt lat="45.60748273687138" lon="11.185653812046702"><ele>872.5</ele><time>2026-04-04T12:25:43.999Z</time></trkpt><trkpt lat="45.60761169778264" lon="11.18563215733057"><ele>871.25</ele><time>2026-04-04T12:25:44.999Z</time></trkpt><trkpt lat="45.60775138277074" lon="11.18561812846666"><ele>870.0</ele><time>2026-04-04T12:25:45.999Z</time></trkpt><trkpt lat="45.60789381074911" lon="11.185603137917772"><ele>873.2</ele><time>2026-04-04T12:25:46.999Z</time></trkpt><trkpt lat="45.60802570091216" lon="11.185583198222906"><ele>876.4</ele><time>2026-04-04T12:25:47.999Z</time></trkpt><trkpt lat="45.60813845672278" lon="11.18556486290126"><ele>879.5999999999999</ele><time>2026-04-04T12:25:48.999Z</time></trkpt><trkpt lat="45.60823556710871" lon="11.185547919395738"><ele>882.8</ele><time>2026-04-04T12:25:49.999Z</time></trkpt><trkpt lat="45.60832862609685" lon="11.185520876067674"><ele>886.0</ele><time>2026-04-04T12:25:50.999Z</time></trkpt><trkpt lat="45.60841035586664" lon="11.185442327685992"><ele>886.0</ele><time>2026-04-04T12:25:51.999Z</time></trkpt><trkpt lat="45.60846285930684" lon="11.185292838529886"><ele>886.0</ele><time>2026-04-04T12:25:52.999Z</time></trkpt><trkpt lat="45.60847233442559" lon="11.185095981466986"><ele>886.0</ele><time>2026-04-04T12:25:53.999Z</time></trkpt><trkpt lat="45.608460284415614" lon="11.18485602620793"><ele>886.0</ele><time>2026-04-04T12:25:54.999Z</time></trkpt><trkpt lat="45.60845517401144" lon="11.184657100738432"><ele>888.0</ele><time>2026-04-04T12:25:55.999Z</time></trkpt><trkpt lat="45.608463733036196" lon="11.184489409564256"><ele>889.9999999999999</ele><time>2026-04-04T12:25:56.999Z</time></trkpt><trkpt lat="45.6084326830343" lon="11.184357315222165"><ele>891.9999999999999</ele><time>2026-04-04T12:25:57.999Z</time></trkpt><trkpt lat="45.60837493886345" lon="11.184245755488249"><ele>894.0</ele><time>2026-04-04T12:25:58.998Z</time></trkpt><trkpt lat="45.608285219187756" lon="11.18417609906336"><ele>896.0</ele><time>2026-04-04T12:25:59.998Z</time></trkpt><trkpt lat="45.608161009861526" lon="11.184240959580023"><ele>896.0</ele><time>2026-04-04T12:26:00.998Z</time></trkpt><trkpt lat="45.60805682700948" lon="11.184273700589557"><ele>895.9999999999999</ele><time>2026-04-04T12:26:01.998Z</time></trkpt><trkpt lat="45.607961498009864" lon="11.184282957241455"><ele>895.9999999999999</ele><time>2026-04-04T12:26:02.998Z</time></trkpt><trkpt lat="45.60786968337727" lon="11.184264211877451"><ele>896.0</ele><time>2026-04-04T12:26:03.998Z</time></trkpt><trkpt lat="45.607786468919464" lon="11.184120508186854"><ele>896.0</ele><time>2026-04-04T12:26:04.998Z</time></trkpt><trkpt lat="45.60770998520431" lon="11.183978272169474"><ele>894.8</ele><time>2026-04-04T12:26:05.998Z</time></trkpt><trkpt lat="45.60764784495452" lon="11.183839004770318"><ele>893.5999999999999</ele><time>2026-04-04T12:26:06.998Z</time></trkpt><trkpt lat="45.60760027069347" lon="11.18371243772464"><ele>892.4</ele><time>2026-04-04T12:26:07.998Z</time></trkpt><trkpt lat="45.60760771496518" lon="11.183556381001006"><ele>891.2</ele><time>2026-04-04T12:26:08.998Z</time></trkpt><trkpt lat="45.60764588787271" lon="11.183393497243186"><ele>890.0</ele><time>2026-04-04T12:26:09.998Z</time></trkpt><trkpt lat="45.60768318321204" lon="11.183224881182479"><ele>893.25</ele><time>2026-04-04T12:26:10.998Z</time></trkpt><trkpt lat="45.60769130101677" lon="11.183064635269263"><ele>896.5</ele><time>2026-04-04T12:26:11.998Z</time></trkpt><trkpt lat="45.60764905306438" lon="11.182916943359933"><ele>899.75</ele><time>2026-04-04T12:26:12.998Z</time></trkpt><trkpt lat="45.60756917905522" lon="11.18278364768045"><ele>903.0</ele><time>2026-04-04T12:26:13.998Z</time></trkpt><trkpt lat="45.60744937126271" lon="11.182694785139656"><ele>903.0</ele><time>2026-04-04T12:26:14.998Z</time></trkpt><trkpt lat="45.60734632912052" lon="11.182610795428213"><ele>903.0</ele><time>2026-04-04T12:26:15.998Z</time></trkpt><trkpt lat="45.60727018113907" lon="11.18251959187345"><ele>903.0</ele><time>2026-04-04T12:26:16.998Z</time></trkpt><trkpt lat="45.60722255662903" lon="11.182408467809147"><ele>903.0</ele><time>2026-04-04T12:26:17.998Z</time></trkpt><trkpt lat="45.607203962087254" lon="11.182273077888564"><ele>903.0</ele><time>2026-04-04T12:26:18.998Z</time></trkpt><trkpt lat="45.60722549502579" lon="11.182148464669142"><ele>903.4</ele><time>2026-04-04T12:26:19.998Z</time></trkpt><trkpt lat="45.607284339372676" lon="11.18203680355666"><ele>903.8</ele><time>2026-04-04T12:26:20.998Z</time></trkpt><trkpt lat="45.60737977494566" lon="11.181941541509033"><ele>904.2</ele><time>2026-04-04T12:26:21.998Z</time></trkpt><trkpt lat="45.607469966643436" lon="11.181843832958593"><ele>904.6</ele><time>2026-04-04T12:26:22.998Z</time></trkpt><trkpt lat="45.60754476078856" lon="11.181738056170596"><ele>905.0</ele><time>2026-04-04T12:26:23.998Z</time></trkpt><trkpt lat="45.60761062384388" lon="11.181608806588075"><ele>904.2</ele><time>2026-04-04T12:26:24.998Z</time></trkpt><trkpt lat="45.60766393209167" lon="11.181460272043111"><ele>903.4</ele><time>2026-04-04T12:26:25.998Z</time></trkpt><trkpt lat="45.60770617531911" lon="11.181314339102636"><ele>902.5999999999999</ele><time>2026-04-04T12:26:27Z</time></trkpt><trkpt lat="45.60773745718823" lon="11.181184886088527"><ele>901.8</ele><time>2026-04-04T12:26:28Z</time></trkpt><trkpt lat="45.60776893893883" lon="11.181071959050787"><ele>901.0</ele><time>2026-04-04T12:26:29Z</time></trkpt><trkpt lat="45.60779403044099" lon="11.180971128252002"><ele>900.9999999999999</ele><time>2026-04-04T12:26:30Z</time></trkpt><trkpt lat="45.60782555293654" lon="11.180852343152356"><ele>901.0</ele><time>2026-04-04T12:26:31Z</time></trkpt><trkpt lat="45.60785865125326" lon="11.180737202899458"><ele>901.0</ele><time>2026-04-04T12:26:32Z</time></trkpt><trkpt lat="45.60788837352528" lon="11.180655110787828"><ele>901.0</ele><time>2026-04-04T12:26:33Z</time></trkpt><trkpt lat="45.607918155538115" lon="11.1805582625958"><ele>900.9999999999999</ele><time>2026-04-04T12:26:34Z</time></trkpt><trkpt lat="45.607951902106734" lon="11.18047408760041"><ele>901.0</ele><time>2026-04-04T12:26:35Z</time></trkpt><trkpt lat="45.60800781225744" lon="11.180364287771386"><ele>901.9999999999999</ele><time>2026-04-04T12:26:37Z</time></trkpt><trkpt lat="45.608057308244305" lon="11.180243838907957"><ele>903.0</ele><time>2026-04-04T12:26:39Z</time></trkpt><trkpt lat="45.60809376906874" lon="11.180160148192638"><ele>904.0</ele><time>2026-04-04T12:26:41Z</time></trkpt><trkpt lat="45.60803354878804" lon="11.180032436305057"><ele>905.0</ele><time>2026-04-04T12:26:43Z</time></trkpt><trkpt lat="45.60800312417853" lon="11.179940825416857"><ele>905.9999999999999</ele><time>2026-04-04T12:26:46Z</time></trkpt><trkpt lat="45.60797136030982" lon="11.179856645807439"><ele>907.0</ele><time>2026-04-04T12:26:50Z</time></trkpt><trkpt lat="45.60798011291417" lon="11.179946325059275"><ele>907.0000000000001</ele><time>2026-04-04T12:30:10.999Z</time></trkpt><trkpt lat="45.60795005963652" lon="11.180032069784353"><ele>907.0</ele><time>2026-04-04T12:30:17.998Z</time></trkpt><trkpt lat="45.60797615004641" lon="11.180120753785461"><ele>907.0000000000001</ele><time>2026-04-04T12:30:24.998Z</time></trkpt><trkpt lat="45.60785795267557" lon="11.18010996152055"><ele>907.0000000000001</ele><time>2026-04-04T12:30:51Z</time></trkpt><trkpt lat="45.60788264007108" lon="11.180196876320528"><ele>907.0</ele><time>2026-04-04T12:31:06Z</time></trkpt><trkpt lat="45.60792020805889" lon="11.180124540576037"><ele>907.0000000000001</ele><time>2026-04-04T12:58:51.998Z</time></trkpt><trkpt lat="45.60795970163695" lon="11.180196178206458"><ele>907.0000000000001</ele><time>2026-04-04T12:59:16Z</time></trkpt><trkpt lat="45.607852097643466" lon="11.180185200656933"><ele>906.9999999999999</ele><time>2026-04-04T13:00:15.999Z</time></trkpt><trkpt lat="45.607958002255636" lon="11.180234090806227"><ele>907.0</ele><time>2026-04-04T13:00:17.999Z</time></trkpt><trkpt lat="45.60791637690782" lon="11.180145077035222"><ele>907.0</ele><time>2026-04-04T13:00:52.999Z</time></trkpt><trkpt lat="45.60790032289374" lon="11.1802825742273"><ele>907.0</ele><time>2026-04-04T13:01:40Z</time></trkpt><trkpt lat="45.60792540199924" lon="11.180199293082197"><ele>906.9999999999999</ele><time>2026-04-04T13:02:25.999Z</time></trkpt><trkpt lat="45.607875654220955" lon="11.180260120487395"><ele>907.0</ele><time>2026-04-04T13:02:48.999Z</time></trkpt><trkpt lat="45.60793201980005" lon="11.18014025636042"><ele>906.9999999999999</ele><time>2026-04-04T13:03:22.998Z</time></trkpt><trkpt lat="45.607923050939426" lon="11.180008240680754"><ele>907.0</ele><time>2026-04-04T13:03:39Z</time></trkpt><trkpt lat="45.607911793840394" lon="11.179916222780443"><ele>907.0</ele><time>2026-04-04T13:03:48Z</time></trkpt><trkpt lat="45.60797625996675" lon="11.179834662096052"><ele>907.0</ele><time>2026-04-04T13:06:06Z</time></trkpt><trkpt lat="45.607979181701644" lon="11.179941529648104"><ele>906.9999999999999</ele><time>2026-04-04T13:06:12Z</time></trkpt><trkpt lat="45.608015428577374" lon="11.180018603114215"><ele>907.0</ele><time>2026-04-04T13:06:14Z</time></trkpt><trkpt lat="45.60804588360443" lon="11.180130207259978"><ele>906.9999999999999</ele><time>2026-04-04T13:06:16.999Z</time></trkpt><trkpt lat="45.60810447685453" lon="11.180175330567506"><ele>907.0</ele><time>2026-04-04T13:06:21.999Z</time></trkpt><trkpt lat="45.60820266716636" lon="11.180086301290727"><ele>907.0</ele><time>2026-04-04T13:06:23.999Z</time></trkpt><trkpt lat="45.60833649386464" lon="11.180066114240601"><ele>907.0</ele><time>2026-04-04T13:06:25.999Z</time></trkpt><trkpt lat="45.6083994019382" lon="11.180047049964024"><ele>906.9999999999999</ele><time>2026-04-04T13:06:26.999Z</time></trkpt><trkpt lat="45.60846385892101" lon="11.180053050144789"><ele>907.0</ele><time>2026-04-04T13:06:27.999Z</time></trkpt><trkpt lat="45.608523861941215" lon="11.18009188257975"><ele>907.0</ele><time>2026-04-04T13:06:28.999Z</time></trkpt><trkpt lat="45.60857130852331" lon="11.180154662183105"><ele>907.0</ele><time>2026-04-04T13:06:29.999Z</time></trkpt><trkpt lat="45.608701437437524" lon="11.18011491639063"><ele>907.0</ele><time>2026-04-04T13:06:30.999Z</time></trkpt><trkpt lat="45.608793468114854" lon="11.180139774883953"><ele>907.0</ele><time>2026-04-04T13:06:31.999Z</time></trkpt><trkpt lat="45.608885104561786" lon="11.180121435825173"><ele>907.0</ele><time>2026-04-04T13:06:32.999Z</time></trkpt><trkpt lat="45.608977344699426" lon="11.180071158854217"><ele>906.4000000000001</ele><time>2026-04-04T13:06:33.999Z</time></trkpt><trkpt lat="45.609058590082434" lon="11.179977036844605"><ele>905.8000000000001</ele><time>2026-04-04T13:06:34.999Z</time></trkpt><trkpt lat="45.60912631403832" lon="11.179865295060486"><ele>905.2</ele><time>2026-04-04T13:06:35.999Z</time></trkpt><trkpt lat="45.60919210431649" lon="11.179770707157468"><ele>904.6</ele><time>2026-04-04T13:06:36.999Z</time></trkpt><trkpt lat="45.609256599330735" lon="11.17968521583596"><ele>904.0</ele><time>2026-04-04T13:06:37.999Z</time></trkpt><trkpt lat="45.609321357100605" lon="11.179605985827576"><ele>902.2</ele><time>2026-04-04T13:06:38.999Z</time></trkpt><trkpt lat="45.60938940035495" lon="11.179518964772651"><ele>900.4000000000001</ele><time>2026-04-04T13:06:39.999Z</time></trkpt><trkpt lat="45.60944728468441" lon="11.17941631673754"><ele>898.6</ele><time>2026-04-04T13:06:40.999Z</time></trkpt><trkpt lat="45.60947856400011" lon="11.179293019961195"><ele>896.8</ele><time>2026-04-04T13:06:41.999Z</time></trkpt><trkpt lat="45.60948092643972" lon="11.17916680559341"><ele>895.0</ele><time>2026-04-04T13:06:42.999Z</time></trkpt><trkpt lat="45.609450835135235" lon="11.17903658108195"><ele>892.9999999999999</ele><time>2026-04-04T13:06:43.999Z</time></trkpt><trkpt lat="45.60939878999213" lon="11.178922022079266"><ele>891.0</ele><time>2026-04-04T13:06:44.999Z</time></trkpt><trkpt lat="45.609345869796016" lon="11.178829052049332"><ele>889.0</ele><time>2026-04-04T13:06:45.999Z</time></trkpt><trkpt lat="45.60930516002259" lon="11.1787415512386"><ele>887.0</ele><time>2026-04-04T13:06:46.999Z</time></trkpt><trkpt lat="45.60928009319291" lon="11.17865369555018"><ele>884.9999999999999</ele><time>2026-04-04T13:06:47.999Z</time></trkpt><trkpt lat="45.60927489387814" lon="11.178560549476806"><ele>883.0</ele><time>2026-04-04T13:06:48.999Z</time></trkpt><trkpt lat="45.6093073126505" lon="11.17847200902828"><ele>882.9999999999999</ele><time>2026-04-04T13:06:49.999Z</time></trkpt><trkpt lat="45.60937904940214" lon="11.178407122680715"><ele>883.0</ele><time>2026-04-04T13:06:50.999Z</time></trkpt><trkpt lat="45.60946713698472" lon="11.178384443143878"><ele>883.0</ele><time>2026-04-04T13:06:51.999Z</time></trkpt><trkpt lat="45.60956169954374" lon="11.178360987415607"><ele>883.0</ele><time>2026-04-04T13:06:53.999Z</time></trkpt><trkpt lat="45.60965261555806" lon="11.178309545564849"><ele>882.9999999999999</ele><time>2026-04-04T13:06:55.999Z</time></trkpt><trkpt lat="45.609719777989454" lon="11.17825491686039"><ele>883.0</ele><time>2026-04-04T13:06:56.999Z</time></trkpt><trkpt lat="45.609775744235016" lon="11.178161505367651"><ele>886.6666666666666</ele><time>2026-04-04T13:06:57.999Z</time></trkpt><trkpt lat="45.609799687657585" lon="11.178047504639494"><ele>890.3333333333333</ele><time>2026-04-04T13:06:58.999Z</time></trkpt><trkpt lat="45.609799793241294" lon="11.177920269207407"><ele>894.0</ele><time>2026-04-04T13:06:59.999Z</time></trkpt><trkpt lat="45.60975585161538" lon="11.177814835938985"><ele>897.6666666666667</ele><time>2026-04-04T13:07:00.999Z</time></trkpt><trkpt lat="45.60968704028922" lon="11.17773208564563"><ele>901.3333333333334</ele><time>2026-04-04T13:07:01.999Z</time></trkpt><trkpt lat="45.60960968044282" lon="11.177659705247525"><ele>905.0</ele><time>2026-04-04T13:07:02.999Z</time></trkpt><trkpt lat="45.609535351821414" lon="11.177574979062893"><ele>899.5</ele><time>2026-04-04T13:07:03.999Z</time></trkpt><trkpt lat="45.60943627185686" lon="11.177503682912972"><ele>894.0</ele><time>2026-04-04T13:07:04.999Z</time></trkpt><trkpt lat="45.60932809569246" lon="11.177424883318396"><ele>888.5</ele><time>2026-04-04T13:07:05.999Z</time></trkpt><trkpt lat="45.609218498124136" lon="11.177364167705637"><ele>883.0</ele><time>2026-04-04T13:07:06.999Z</time></trkpt><trkpt lat="45.60913393212485" lon="11.177278950910091"><ele>883.0</ele><time>2026-04-04T13:07:07.999Z</time></trkpt><trkpt lat="45.609061728026255" lon="11.177175903551658"><ele>883.0</ele><time>2026-04-04T13:07:08.999Z</time></trkpt><trkpt lat="45.6090106598913" lon="11.177033121614087"><ele>883.0</ele><time>2026-04-04T13:07:09.999Z</time></trkpt><trkpt lat="45.60897915801964" lon="11.176843864973282"><ele>883.0</ele><time>2026-04-04T13:07:10.999Z</time></trkpt><trkpt lat="45.60895957398466" lon="11.176638577549397"><ele>882.25</ele><time>2026-04-04T13:07:11.999Z</time></trkpt><trkpt lat="45.60893185657254" lon="11.176436660329534"><ele>881.5</ele><time>2026-04-04T13:07:12.999Z</time></trkpt><trkpt lat="45.60891723363911" lon="11.17625203676447"><ele>880.75</ele><time>2026-04-04T13:07:13.998Z</time></trkpt><trkpt lat="45.608925673780874" lon="11.176082351893767"><ele>880.0</ele><time>2026-04-04T13:07:14.998Z</time></trkpt><trkpt lat="45.60892481562679" lon="11.17593252463416"><ele>880.0</ele><time>2026-04-04T13:07:15.998Z</time></trkpt><trkpt lat="45.608904781081215" lon="11.17579949611744"><ele>880.0</ele><time>2026-04-04T13:07:16.998Z</time></trkpt><trkpt lat="45.60885597502347" lon="11.175680648005851"><ele>880.0</ele><time>2026-04-04T13:07:17.998Z</time></trkpt><trkpt lat="45.60877725903397" lon="11.175600677289136"><ele>880.0</ele><time>2026-04-04T13:07:18.998Z</time></trkpt><trkpt lat="45.60867349415092" lon="11.175553674645316"><ele>880.0</ele><time>2026-04-04T13:07:19.998Z</time></trkpt><trkpt lat="45.608540175397216" lon="11.17558466137573"><ele>879.2</ele><time>2026-04-04T13:07:20.998Z</time></trkpt><trkpt lat="45.60842414445806" lon="11.175609578271692"><ele>878.4</ele><time>2026-04-04T13:07:21.998Z</time></trkpt><trkpt lat="45.608317816536704" lon="11.17563001072765"><ele>877.5999999999999</ele><time>2026-04-04T13:07:22.998Z</time></trkpt><trkpt lat="45.60823159967313" lon="11.175660162342407"><ele>876.8</ele><time>2026-04-04T13:07:23.998Z</time></trkpt><trkpt lat="45.608167321201236" lon="11.175651676852668"><ele>876.0</ele><time>2026-04-04T13:07:24.998Z</time></trkpt><trkpt lat="45.60806848477039" lon="11.175716340852357"><ele>873.1999999999999</ele><time>2026-04-04T13:07:26.998Z</time></trkpt><trkpt lat="45.608018277326565" lon="11.175784039570052"><ele>870.3999999999999</ele><time>2026-04-04T13:07:27.998Z</time></trkpt><trkpt lat="45.60804846175337" lon="11.175912648595132"><ele>867.6</ele><time>2026-04-04T13:07:28.998Z</time></trkpt><trkpt lat="45.60819341333144" lon="11.175969822116073"><ele>864.8</ele><time>2026-04-04T13:07:29.998Z</time></trkpt><trkpt lat="45.608263572460594" lon="11.176079659978395"><ele>862.0</ele><time>2026-04-04T13:07:30.998Z</time></trkpt><trkpt lat="45.60832329295892" lon="11.176191153874296"><ele>862.0</ele><time>2026-04-04T13:07:31.998Z</time></trkpt><trkpt lat="45.608365823610704" lon="11.176325077884352"><ele>862.0</ele><time>2026-04-04T13:07:32.998Z</time></trkpt><trkpt lat="45.608383510374104" lon="11.176473194006208"><ele>862.0</ele><time>2026-04-04T13:07:33.998Z</time></trkpt><trkpt lat="45.60838655710456" lon="11.176609351094434"><ele>862.0</ele><time>2026-04-04T13:07:34.998Z</time></trkpt><trkpt lat="45.60837796474149" lon="11.176735000312789"><ele>862.0</ele><time>2026-04-04T13:07:35.998Z</time></trkpt><trkpt lat="45.60834932194971" lon="11.176839091316966"><ele>861.0</ele><time>2026-04-04T13:07:36.998Z</time></trkpt><trkpt lat="45.60829590680604" lon="11.176913266216097"><ele>860.0</ele><time>2026-04-04T13:07:38Z</time></trkpt><trkpt lat="45.608220973596595" lon="11.176976308024242"><ele>859.0</ele><time>2026-04-04T13:07:39Z</time></trkpt><trkpt lat="45.608113105656045" lon="11.176946761036362"><ele>858.0</ele><time>2026-04-04T13:07:40Z</time></trkpt><trkpt lat="45.60799744091657" lon="11.176847101124073"><ele>857.0</ele><time>2026-04-04T13:07:41Z</time></trkpt><trkpt lat="45.60788344866266" lon="11.176715049708047"><ele>855.5</ele><time>2026-04-04T13:07:42Z</time></trkpt><trkpt lat="45.607759096959526" lon="11.17658333504525"><ele>854.0</ele><time>2026-04-04T13:07:43Z</time></trkpt><trkpt lat="45.60764011589251" lon="11.176463039294779"><ele>852.5</ele><time>2026-04-04T13:07:44Z</time></trkpt><trkpt lat="45.607536213182364" lon="11.176336249911442"><ele>851.0</ele><time>2026-04-04T13:07:45Z</time></trkpt><trkpt lat="45.607448647938526" lon="11.176182599876979"><ele>850.0</ele><time>2026-04-04T13:07:46Z</time></trkpt><trkpt lat="45.607390533300425" lon="11.175992898353988"><ele>849.0</ele><time>2026-04-04T13:07:47Z</time></trkpt><trkpt lat="45.60735335050968" lon="11.17581497768811"><ele>848.0</ele><time>2026-04-04T13:07:48Z</time></trkpt><trkpt lat="45.607301596882834" lon="11.175655338991582"><ele>847.0</ele><time>2026-04-04T13:07:49Z</time></trkpt><trkpt lat="45.60725693453472" lon="11.175480759884065"><ele>849.0</ele><time>2026-04-04T13:07:50Z</time></trkpt><trkpt lat="45.607205902304166" lon="11.175304212841118"><ele>851.0</ele><time>2026-04-04T13:07:51Z</time></trkpt><trkpt lat="45.60714568216379" lon="11.175134607854801"><ele>853.0</ele><time>2026-04-04T13:07:52Z</time></trkpt><trkpt lat="45.607076429469814" lon="11.174953390534634"><ele>855.0</ele><time>2026-04-04T13:07:53Z</time></trkpt><trkpt lat="45.606994903820876" lon="11.174749662645702"><ele>848.5</ele><time>2026-04-04T13:07:54Z</time></trkpt><trkpt lat="45.60690560657668" lon="11.17457889819501"><ele>842.0</ele><time>2026-04-04T13:07:55Z</time></trkpt><trkpt lat="45.60680551825212" lon="11.174445190714614"><ele>835.5</ele><time>2026-04-04T13:07:56Z</time></trkpt><trkpt lat="45.60670464072169" lon="11.174332950304809"><ele>829.0</ele><time>2026-04-04T13:07:57Z</time></trkpt><trkpt lat="45.60663036402912" lon="11.174212540971405"><ele>829.0</ele><time>2026-04-04T13:07:58Z</time></trkpt><trkpt lat="45.60658382147661" lon="11.174083904990937"><ele>829.0</ele><time>2026-04-04T13:07:59Z</time></trkpt><trkpt lat="45.6065679712017" lon="11.173940513134982"><ele>829.0</ele><time>2026-04-04T13:08:00Z</time></trkpt><trkpt lat="45.606587983255906" lon="11.17376077300793"><ele>829.0</ele><time>2026-04-04T13:08:01Z</time></trkpt><trkpt lat="45.60660174720461" lon="11.173536863818594"><ele>828.0</ele><time>2026-04-04T13:08:02Z</time></trkpt><trkpt lat="45.60657621886265" lon="11.173285278096074"><ele>827.0</ele><time>2026-04-04T13:08:03Z</time></trkpt><trkpt lat="45.60656976262395" lon="11.173064256465072"><ele>826.0</ele><time>2026-04-04T13:08:04Z</time></trkpt><trkpt lat="45.606578201964" lon="11.172851693581187"><ele>826.1999999999999</ele><time>2026-04-04T13:08:05Z</time></trkpt><trkpt lat="45.606606584417364" lon="11.172666978095403"><ele>826.4</ele><time>2026-04-04T13:08:06Z</time></trkpt><trkpt lat="45.606648945007336" lon="11.172527689508868"><ele>826.6</ele><time>2026-04-04T13:08:07Z</time></trkpt><trkpt lat="45.606685087698835" lon="11.172427515773448"><ele>826.8</ele><time>2026-04-04T13:08:08Z</time></trkpt><trkpt lat="45.60667063650087" lon="11.172295918508514"><ele>827.0</ele><time>2026-04-04T13:08:10Z</time></trkpt><trkpt lat="45.60656334246574" lon="11.172260332226994"><ele>826.25</ele><time>2026-04-04T13:08:12Z</time></trkpt><trkpt lat="45.60652265451451" lon="11.172427731087321"><ele>825.5</ele><time>2026-04-04T13:08:13Z</time></trkpt><trkpt lat="45.60647794617287" lon="11.172619636656615"><ele>824.75</ele><time>2026-04-04T13:08:14Z</time></trkpt><trkpt lat="45.60645413770015" lon="11.172811325697651"><ele>824.0</ele><time>2026-04-04T13:08:15Z</time></trkpt><trkpt lat="45.60643217726762" lon="11.17300130140411"><ele>824.0</ele><time>2026-04-04T13:08:16Z</time></trkpt><trkpt lat="45.606401945495435" lon="11.173164216018607"><ele>824.0</ele><time>2026-04-04T13:08:17Z</time></trkpt><trkpt lat="45.606372631818196" lon="11.173318809210153"><ele>824.0</ele><time>2026-04-04T13:08:18Z</time></trkpt><trkpt lat="45.606357452259104" lon="11.173462525420826"><ele>824.0</ele><time>2026-04-04T13:08:19Z</time></trkpt><trkpt lat="45.60635679870017" lon="11.173576724369758"><ele>824.0</ele><time>2026-04-04T13:08:19.999Z</time></trkpt><trkpt lat="45.60627545291183" lon="11.173548962008768"><ele>824.0</ele><time>2026-04-04T13:08:23.999Z</time></trkpt><trkpt lat="45.60627882728" lon="11.173376248686095"><ele>824.0</ele><time>2026-04-04T13:08:24.999Z</time></trkpt><trkpt lat="45.606303383790625" lon="11.173203623275382"><ele>824.0</ele><time>2026-04-04T13:08:25.999Z</time></trkpt><trkpt lat="45.60632348881691" lon="11.17300113762411"><ele>824.0</ele><time>2026-04-04T13:08:26.999Z</time></trkpt><trkpt lat="45.606338727302656" lon="11.17279776311057"><ele>824.0</ele><time>2026-04-04T13:08:27.999Z</time></trkpt><trkpt lat="45.60635245905951" lon="11.17261291338637"><ele>824.0</ele><time>2026-04-04T13:08:28.999Z</time></trkpt><trkpt lat="45.60636683012033" lon="11.172442534860298"><ele>824.0</ele><time>2026-04-04T13:08:29.999Z</time></trkpt><trkpt lat="45.6063531046719" lon="11.172286579186139"><ele>824.0</ele><time>2026-04-04T13:08:30.999Z</time></trkpt><trkpt lat="45.606305267404615" lon="11.172148378161332"><ele>824.6</ele><time>2026-04-04T13:08:31.999Z</time></trkpt><trkpt lat="45.60625130775114" lon="11.172013421983987"><ele>825.2</ele><time>2026-04-04T13:08:32.999Z</time></trkpt><trkpt lat="45.60618735925866" lon="11.171885679421372"><ele>825.8000000000001</ele><time>2026-04-04T13:08:33.999Z</time></trkpt><trkpt lat="45.606147796161224" lon="11.171757832739623"><ele>826.4000000000001</ele><time>2026-04-04T13:08:34.999Z</time></trkpt><trkpt lat="45.60614453979543" lon="11.171610615519555"><ele>827.0</ele><time>2026-04-04T13:08:35.999Z</time></trkpt><trkpt lat="45.606166634363554" lon="11.171432303082087"><ele>827.3333333333334</ele><time>2026-04-04T13:08:36.999Z</time></trkpt><trkpt lat="45.60618340340639" lon="11.171224266597617"><ele>827.6666666666667</ele><time>2026-04-04T13:08:37.999Z</time></trkpt><trkpt lat="45.606180016886086" lon="11.17101727179226"><ele>828.0</ele><time>2026-04-04T13:08:38.999Z</time></trkpt><trkpt lat="45.60617728803683" lon="11.170790934945288"><ele>823.5</ele><time>2026-04-04T13:08:39.999Z</time></trkpt><trkpt lat="45.60617315474716" lon="11.170573304397994"><ele>819.0</ele><time>2026-04-04T13:08:40.999Z</time></trkpt><trkpt lat="45.60617137027816" lon="11.17037574737489"><ele>814.5</ele><time>2026-04-04T13:08:41.999Z</time></trkpt><trkpt lat="45.60616449036534" lon="11.170190930983344"><ele>810.0</ele><time>2026-04-04T13:08:42.999Z</time></trkpt><trkpt lat="45.60616657567675" lon="11.170020906672487"><ele>810.0</ele><time>2026-04-04T13:08:43.999Z</time></trkpt><trkpt lat="45.60618896041599" lon="11.169865326135028"><ele>810.0</ele><time>2026-04-04T13:08:44.999Z</time></trkpt><trkpt lat="45.60624463919449" lon="11.169719734151263"><ele>810.0</ele><time>2026-04-04T13:08:45.999Z</time></trkpt><trkpt lat="45.6063384589808" lon="11.169583937719622"><ele>810.0</ele><time>2026-04-04T13:08:46.999Z</time></trkpt><trkpt lat="45.606447279372645" lon="11.16944427471607"><ele>801.0</ele><time>2026-04-04T13:08:47.999Z</time></trkpt><trkpt lat="45.60656836058445" lon="11.16930560372747"><ele>792.0</ele><time>2026-04-04T13:08:48.999Z</time></trkpt><trkpt lat="45.60669342131708" lon="11.169160043098225"><ele>783.0</ele><time>2026-04-04T13:08:49.999Z</time></trkpt><trkpt lat="45.60682465568894" lon="11.169005449040775"><ele>781.0</ele><time>2026-04-04T13:08:50.999Z</time></trkpt><trkpt lat="45.60696234127562" lon="11.168838687027682"><ele>779.0</ele><time>2026-04-04T13:08:51.999Z</time></trkpt><trkpt lat="45.60708868735303" lon="11.168664017007885"><ele>777.0</ele><time>2026-04-04T13:08:52.999Z</time></trkpt><trkpt lat="45.607203715891636" lon="11.168491026435914"><ele>777.0</ele><time>2026-04-04T13:08:53.999Z</time></trkpt><trkpt lat="45.6073229032287" lon="11.16833612712354"><ele>777.0</ele><time>2026-04-04T13:08:54.999Z</time></trkpt><trkpt lat="45.60744297502379" lon="11.168191353853736"><ele>777.0</ele><time>2026-04-04T13:08:55.999Z</time></trkpt><trkpt lat="45.60755846648037" lon="11.168049081827013"><ele>775.3333333333333</ele><time>2026-04-04T13:08:56.999Z</time></trkpt><trkpt lat="45.60767967657548" lon="11.167903285231894"><ele>773.6666666666666</ele><time>2026-04-04T13:08:57.999Z</time></trkpt><trkpt lat="45.60781945222921" lon="11.167760770220594"><ele>772.0</ele><time>2026-04-04T13:08:58.999Z</time></trkpt><trkpt lat="45.60796453999178" lon="11.167650589733432"><ele>772.0</ele><time>2026-04-04T13:08:59.999Z</time></trkpt><trkpt lat="45.608098753555176" lon="11.167583033522654"><ele>772.0</ele><time>2026-04-04T13:09:00.999Z</time></trkpt><trkpt lat="45.60822438293711" lon="11.167530933693145"><ele>772.0</ele><time>2026-04-04T13:09:01.999Z</time></trkpt><trkpt lat="45.60833348067577" lon="11.167487980077075"><ele>772.0</ele><time>2026-04-04T13:09:02.999Z</time></trkpt><trkpt lat="45.60840797880958" lon="11.1674333745716"><ele>771.8333333333333</ele><time>2026-04-04T13:09:03.999Z</time></trkpt><trkpt lat="45.60845823517237" lon="11.167349023023109"><ele>771.6666666666666</ele><time>2026-04-04T13:09:04.999Z</time></trkpt><trkpt lat="45.60847034401083" lon="11.167232115779361"><ele>771.5</ele><time>2026-04-04T13:09:05.999Z</time></trkpt><trkpt lat="45.608439401265244" lon="11.16713650116872"><ele>771.3333333333333</ele><time>2026-04-04T13:09:06.999Z</time></trkpt><trkpt lat="45.608373479127955" lon="11.167063395206206"><ele>771.1666666666666</ele><time>2026-04-04T13:09:07.999Z</time></trkpt><trkpt lat="45.60825168161432" lon="11.167002835957916"><ele>771.0</ele><time>2026-04-04T13:09:08.999Z</time></trkpt><trkpt lat="45.60812613214715" lon="11.16690184852677"><ele>771.0</ele><time>2026-04-04T13:09:09.999Z</time></trkpt><trkpt lat="45.607992166722134" lon="11.166748092702383"><ele>771.0</ele><time>2026-04-04T13:09:10.999Z</time></trkpt><trkpt lat="45.60784887848626" lon="11.166626800775397"><ele>771.0</ele><time>2026-04-04T13:09:11.999Z</time></trkpt><trkpt lat="45.60770893911321" lon="11.16653035788206"><ele>770.5</ele><time>2026-04-04T13:09:12.999Z</time></trkpt><trkpt lat="45.60756872725181" lon="11.166446830536136"><ele>770.0</ele><time>2026-04-04T13:09:13.999Z</time></trkpt><trkpt lat="45.60744041922265" lon="11.166370782454466"><ele>769.5</ele><time>2026-04-04T13:09:14.999Z</time></trkpt><trkpt lat="45.6073245087028" lon="11.166297331949448"><ele>769.0</ele><time>2026-04-04T13:09:15.999Z</time></trkpt><trkpt lat="45.607218711470296" lon="11.16620559701932"><ele>769.0</ele><time>2026-04-04T13:09:16.999Z</time></trkpt><trkpt lat="45.607131952084984" lon="11.16608658573977"><ele>769.0</ele><time>2026-04-04T13:09:17.999Z</time></trkpt><trkpt lat="45.60707136591531" lon="11.165955499223143"><ele>769.0</ele><time>2026-04-04T13:09:18.999Z</time></trkpt><trkpt lat="45.60702163052656" lon="11.165860555729097"><ele>769.0</ele><time>2026-04-04T13:09:19.998Z</time></trkpt><trkpt lat="45.60695347207526" lon="11.165816795255092"><ele>769.0</ele><time>2026-04-04T13:09:20.998Z</time></trkpt><trkpt lat="45.606870967061035" lon="11.165827708738929"><ele>766.0</ele><time>2026-04-04T13:09:21.998Z</time></trkpt><trkpt lat="45.60679318959247" lon="11.165869917422082"><ele>763.0</ele><time>2026-04-04T13:09:22.998Z</time></trkpt><trkpt lat="45.60671801248079" lon="11.165991055668687"><ele>760.0</ele><time>2026-04-04T13:09:23.998Z</time></trkpt><trkpt lat="45.606636781069604" lon="11.166121428492747"><ele>757.0</ele><time>2026-04-04T13:09:24.998Z</time></trkpt><trkpt lat="45.60654841477524" lon="11.166265012791333"><ele>757.0</ele><time>2026-04-04T13:09:25.998Z</time></trkpt><trkpt lat="45.60644373711797" lon="11.166399786654917"><ele>757.0</ele><time>2026-04-04T13:09:26.998Z</time></trkpt><trkpt lat="45.60631677671411" lon="11.166524367307952"><ele>757.0</ele><time>2026-04-04T13:09:27.998Z</time></trkpt><trkpt lat="45.60617516449604" lon="11.166638958669486"><ele>754.3333333333334</ele><time>2026-04-04T13:09:28.998Z</time></trkpt><trkpt lat="45.606029951642114" lon="11.166757670055881"><ele>751.6666666666666</ele><time>2026-04-04T13:09:29.998Z</time></trkpt><trkpt lat="45.60589921612013" lon="11.166882146294634"><ele>749.0</ele><time>2026-04-04T13:09:30.998Z</time></trkpt><trkpt lat="45.60577658122951" lon="11.167003004780888"><ele>749.0</ele><time>2026-04-04T13:09:31.998Z</time></trkpt><trkpt lat="45.60565494130996" lon="11.167112383481923"><ele>749.0</ele><time>2026-04-04T13:09:32.998Z</time></trkpt><trkpt lat="45.605532323083835" lon="11.16720071181044"><ele>749.0</ele><time>2026-04-04T13:09:33.998Z</time></trkpt><trkpt lat="45.60541122703351" lon="11.167263175378189"><ele>749.0</ele><time>2026-04-04T13:09:34.998Z</time></trkpt><trkpt lat="45.6052880205264" lon="11.167312142283166"><ele>747.8000000000001</ele><time>2026-04-04T13:09:35.998Z</time></trkpt><trkpt lat="45.60517422502495" lon="11.167342434432543"><ele>746.6</ele><time>2026-04-04T13:09:36.998Z</time></trkpt><trkpt lat="45.605070639885916" lon="11.167359143729673"><ele>745.4</ele><time>2026-04-04T13:09:37.998Z</time></trkpt><trkpt lat="45.604975307689976" lon="11.167353645813954"><ele>744.2</ele><time>2026-04-04T13:09:38.998Z</time></trkpt><trkpt lat="45.60488423322243" lon="11.167330266755956"><ele>743.0</ele><time>2026-04-04T13:09:39.998Z</time></trkpt><trkpt lat="45.604801073699214" lon="11.167205814452863"><ele>743.0</ele><time>2026-04-04T13:09:40.998Z</time></trkpt><trkpt lat="45.604722516386104" lon="11.167049679413966"><ele>743.0</ele><time>2026-04-04T13:09:41.998Z</time></trkpt><trkpt lat="45.60462432489734" lon="11.166877793939008"><ele>743.0</ele><time>2026-04-04T13:09:42.998Z</time></trkpt><trkpt lat="45.60451312504597" lon="11.166710898735039"><ele>734.25</ele><time>2026-04-04T13:09:44Z</time></trkpt><trkpt lat="45.60441560589018" lon="11.166550395664157"><ele>725.5</ele><time>2026-04-04T13:09:45Z</time></trkpt><trkpt lat="45.60433192638677" lon="11.166388386751215"><ele>716.75</ele><time>2026-04-04T13:09:46Z</time></trkpt><trkpt lat="45.60426293884934" lon="11.166204217451492"><ele>708.0</ele><time>2026-04-04T13:09:47Z</time></trkpt><trkpt lat="45.60421850802742" lon="11.165986421054658"><ele>708.0</ele><time>2026-04-04T13:09:48Z</time></trkpt><trkpt lat="45.60416920356448" lon="11.165764902949444"><ele>708.0</ele><time>2026-04-04T13:09:49Z</time></trkpt><trkpt lat="45.60408299324193" lon="11.165586989359822"><ele>708.0</ele><time>2026-04-04T13:09:50Z</time></trkpt><trkpt lat="45.603981447891464" lon="11.165445943887851"><ele>711.0</ele><time>2026-04-04T13:09:51Z</time></trkpt><trkpt lat="45.603879798301385" lon="11.165356494520651"><ele>714.0</ele><time>2026-04-04T13:09:52Z</time></trkpt><trkpt lat="45.60381234765632" lon="11.165254918558883"><ele>717.0</ele><time>2026-04-04T13:09:53Z</time></trkpt><trkpt lat="45.60378000547757" lon="11.165102633742192"><ele>720.0</ele><time>2026-04-04T13:09:54Z</time></trkpt><trkpt lat="45.60378194855914" lon="11.164908356387413"><ele>725.3333333333334</ele><time>2026-04-04T13:09:55Z</time></trkpt><trkpt lat="45.60375305897754" lon="11.164692630810766"><ele>730.6666666666667</ele><time>2026-04-04T13:09:56Z</time></trkpt><trkpt lat="45.60369235078532" lon="11.164486140808082"><ele>736.0</ele><time>2026-04-04T13:09:57Z</time></trkpt><trkpt lat="45.60363926204446" lon="11.16428916913515"><ele>727.25</ele><time>2026-04-04T13:09:58Z</time></trkpt><trkpt lat="45.60360251425077" lon="11.164096753141731"><ele>718.5</ele><time>2026-04-04T13:09:59Z</time></trkpt><trkpt lat="45.60354106101468" lon="11.163924328202647"><ele>709.75</ele><time>2026-04-04T13:10:00Z</time></trkpt><trkpt lat="45.603453315532256" lon="11.163771703171896"><ele>701.0</ele><time>2026-04-04T13:10:01Z</time></trkpt><trkpt lat="45.603368790688" lon="11.163641808869482"><ele>701.0</ele><time>2026-04-04T13:10:02Z</time></trkpt><trkpt lat="45.6033127147661" lon="11.163542722320912"><ele>701.0</ele><time>2026-04-04T13:10:03Z</time></trkpt><trkpt lat="45.60327147703326" lon="11.163454910857906"><ele>701.0</ele><time>2026-04-04T13:10:04Z</time></trkpt><trkpt lat="45.60319251087811" lon="11.163343040336052"><ele>701.0</ele><time>2026-04-04T13:10:06Z</time></trkpt><trkpt lat="45.603068002515855" lon="11.163367033583642"><ele>701.0</ele><time>2026-04-04T13:10:08Z</time></trkpt><trkpt lat="45.603137876133275" lon="11.163616454569333"><ele>701.0</ele><time>2026-04-04T13:10:09Z</time></trkpt><trkpt lat="45.60322510825365" lon="11.163753115657576"><ele>701.0</ele><time>2026-04-04T13:10:10Z</time></trkpt><trkpt lat="45.60328973449857" lon="11.1638775953171"><ele>701.0</ele><time>2026-04-04T13:10:11Z</time></trkpt><trkpt lat="45.60334939455777" lon="11.164024159613433"><ele>701.0</ele><time>2026-04-04T13:10:12Z</time></trkpt><trkpt lat="45.60337733415254" lon="11.164197698518704"><ele>695.0</ele><time>2026-04-04T13:10:13Z</time></trkpt><trkpt lat="45.603380333990124" lon="11.164407114448476"><ele>689.0</ele><time>2026-04-04T13:10:14Z</time></trkpt><trkpt lat="45.6034111371554" lon="11.164595742781264"><ele>683.0</ele><time>2026-04-04T13:10:15Z</time></trkpt><trkpt lat="45.60343685590479" lon="11.164760721390662"><ele>677.0</ele><time>2026-04-04T13:10:16Z</time></trkpt><trkpt lat="45.603434466170455" lon="11.164913816932128"><ele>675.1666666666666</ele><time>2026-04-04T13:10:17Z</time></trkpt><trkpt lat="45.60342275661923" lon="11.16506312776814"><ele>673.3333333333333</ele><time>2026-04-04T13:10:18Z</time></trkpt><trkpt lat="45.60342426578869" lon="11.16518576759101"><ele>671.5</ele><time>2026-04-04T13:10:19Z</time></trkpt><trkpt lat="45.603425594783026" lon="11.165304859721264"><ele>669.6666666666666</ele><time>2026-04-04T13:10:21Z</time></trkpt><trkpt lat="45.60334773025194" lon="11.165310824933744"><ele>667.8333333333334</ele><time>2026-04-04T13:10:23Z</time></trkpt><trkpt lat="45.6033269010662" lon="11.165186139213422"><ele>666.0</ele><time>2026-04-04T13:10:24Z</time></trkpt><trkpt lat="45.603357550025606" lon="11.165021328495842"><ele>668.75</ele><time>2026-04-04T13:10:25Z</time></trkpt><trkpt lat="45.60335361624391" lon="11.164858572119584"><ele>671.5</ele><time>2026-04-04T13:10:26Z</time></trkpt><trkpt lat="45.603299965008304" lon="11.164656008407047"><ele>674.25</ele><time>2026-04-04T13:10:27Z</time></trkpt><trkpt lat="45.60322876152388" lon="11.164460955830984"><ele>677.0</ele><time>2026-04-04T13:10:27.999Z</time></trkpt><trkpt lat="45.60316276383078" lon="11.16425449548985"><ele>677.0</ele><time>2026-04-04T13:10:28.999Z</time></trkpt><trkpt lat="45.603099928750844" lon="11.16407154700498"><ele>677.0</ele><time>2026-04-04T13:10:29.999Z</time></trkpt><trkpt lat="45.6030116326652" lon="11.163927235696157"><ele>677.0</ele><time>2026-04-04T13:10:30.999Z</time></trkpt><trkpt lat="45.602911728662036" lon="11.163813684467364"><ele>677.0</ele><time>2026-04-04T13:10:31.999Z</time></trkpt><trkpt lat="45.60283015680589" lon="11.163701310047625"><ele>670.6</ele><time>2026-04-04T13:10:32.999Z</time></trkpt><trkpt lat="45.60276617867053" lon="11.163594194158174"><ele>664.2</ele><time>2026-04-04T13:10:33.999Z</time></trkpt><trkpt lat="45.602728156001966" lon="11.16347463880121"><ele>657.8</ele><time>2026-04-04T13:10:34.999Z</time></trkpt><trkpt lat="45.60272622199508" lon="11.163311992919585"><ele>651.4</ele><time>2026-04-04T13:10:35.999Z</time></trkpt><trkpt lat="45.60272108314524" lon="11.16315081943901"><ele>645.0</ele><time>2026-04-04T13:10:36.999Z</time></trkpt><trkpt lat="45.60270602774792" lon="11.16301819867816"><ele>645.0</ele><time>2026-04-04T13:10:37.999Z</time></trkpt><trkpt lat="45.60270262159387" lon="11.162899053729351"><ele>645.0</ele><time>2026-04-04T13:10:38.999Z</time></trkpt><trkpt lat="45.60272828141657" lon="11.162786025119432"><ele>645.0</ele><time>2026-04-04T13:10:39.999Z</time></trkpt><trkpt lat="45.60276525543432" lon="11.162690586296945"><ele>645.0</ele><time>2026-04-04T13:10:40.999Z</time></trkpt><trkpt lat="45.60272677193673" lon="11.162551532577226"><ele>645.0</ele><time>2026-04-04T13:10:42.999Z</time></trkpt><trkpt lat="45.60260178882699" lon="11.16254150382227"><ele>645.0</ele><time>2026-04-04T13:10:44.999Z</time></trkpt><trkpt lat="45.60256572352081" lon="11.162792253114235"><ele>645.0</ele><time>2026-04-04T13:10:45.999Z</time></trkpt><trkpt lat="45.60254835874739" lon="11.162989650247805"><ele>645.0</ele><time>2026-04-04T13:10:46.999Z</time></trkpt><trkpt lat="45.602550986113044" lon="11.163185332761433"><ele>642.5</ele><time>2026-04-04T13:10:47.999Z</time></trkpt><trkpt lat="45.60255690723706" lon="11.16335427005559"><ele>640.0</ele><time>2026-04-04T13:10:48.999Z</time></trkpt><trkpt lat="45.60254400887551" lon="11.163511336716942"><ele>637.5</ele><time>2026-04-04T13:10:49.999Z</time></trkpt><trkpt lat="45.60254893673521" lon="11.163675136413312"><ele>635.0</ele><time>2026-04-04T13:10:50.999Z</time></trkpt><trkpt lat="45.60261803613938" lon="11.163833732450476"><ele>635.0</ele><time>2026-04-04T13:10:51.999Z</time></trkpt><trkpt lat="45.60269756978696" lon="11.163975960161318"><ele>635.0</ele><time>2026-04-04T13:10:52.999Z</time></trkpt><trkpt lat="45.60276523235275" lon="11.164127876344923"><ele>635.0</ele><time>2026-04-04T13:10:53.999Z</time></trkpt><trkpt lat="45.602808400672906" lon="11.164283090936594"><ele>635.0</ele><time>2026-04-04T13:10:54.999Z</time></trkpt><trkpt lat="45.60282678370975" lon="11.1644589499294"><ele>631.8</ele><time>2026-04-04T13:10:55.999Z</time></trkpt><trkpt lat="45.60284607528779" lon="11.164629662640486"><ele>628.6</ele><time>2026-04-04T13:10:56.999Z</time></trkpt><trkpt lat="45.60287049550201" lon="11.164789318157277"><ele>625.4</ele><time>2026-04-04T13:10:57.999Z</time></trkpt><trkpt lat="45.6028956169748" lon="11.164917710303165"><ele>622.2</ele><time>2026-04-04T13:10:58.999Z</time></trkpt><trkpt lat="45.602906087467375" lon="11.16506423278432"><ele>619.0</ele><time>2026-04-04T13:11:00.999Z</time></trkpt><trkpt lat="45.6028211261912" lon="11.165079448584255"><ele>619.0</ele><time>2026-04-04T13:11:03.999Z</time></trkpt><trkpt lat="45.60279271487907" lon="11.16494251984229"><ele>619.0</ele><time>2026-04-04T13:11:04.999Z</time></trkpt><trkpt lat="45.60278569537978" lon="11.16481111121364"><ele>619.0</ele><time>2026-04-04T13:11:05.999Z</time></trkpt><trkpt lat="45.602760344130054" lon="11.16466477104755"><ele>619.0</ele><time>2026-04-04T13:11:06.999Z</time></trkpt><trkpt lat="45.60272533697871" lon="11.164509172230211"><ele>619.0</ele><time>2026-04-04T13:11:07.999Z</time></trkpt><trkpt lat="45.60267533403164" lon="11.164344574881678"><ele>620.75</ele><time>2026-04-04T13:11:08.999Z</time></trkpt><trkpt lat="45.60260399878331" lon="11.164178878378332"><ele>622.5</ele><time>2026-04-04T13:11:09.999Z</time></trkpt><trkpt lat="45.60252352515198" lon="11.16401474220521"><ele>624.25</ele><time>2026-04-04T13:11:10.999Z</time></trkpt><trkpt lat="45.60243112192064" lon="11.163879209192878"><ele>626.0</ele><time>2026-04-04T13:11:11.999Z</time></trkpt><trkpt lat="45.60238737794384" lon="11.163716389546833"><ele>628.25</ele><time>2026-04-04T13:11:12.999Z</time></trkpt><trkpt lat="45.60236093772199" lon="11.163525185926153"><ele>630.5</ele><time>2026-04-04T13:11:13.999Z</time></trkpt><trkpt lat="45.602297250285886" lon="11.163343620312135"><ele>632.75</ele><time>2026-04-04T13:11:14.999Z</time></trkpt><trkpt lat="45.60226383753581" lon="11.163162083739168"><ele>635.0</ele><time>2026-04-04T13:11:15.999Z</time></trkpt><trkpt lat="45.60224115436877" lon="11.162971145431953"><ele>637.0</ele><time>2026-04-04T13:11:16.999Z</time></trkpt><trkpt lat="45.602228665676506" lon="11.16277312834705"><ele>639.0</ele><time>2026-04-04T13:11:17.999Z</time></trkpt><trkpt lat="45.60221493043546" lon="11.1625741105823"><ele>641.0</ele><time>2026-04-04T13:11:18.999Z</time></trkpt><trkpt lat="45.602192749985655" lon="11.16237428063544"><ele>643.0</ele><time>2026-04-04T13:11:19.999Z</time></trkpt><trkpt lat="45.60215915563205" lon="11.162178401967555"><ele>643.0</ele><time>2026-04-04T13:11:20.999Z</time></trkpt><trkpt lat="45.602119064986105" lon="11.161999917220788"><ele>643.0</ele><time>2026-04-04T13:11:21.999Z</time></trkpt><trkpt lat="45.60207610188556" lon="11.16182648045658"><ele>643.0</ele><time>2026-04-04T13:11:22.999Z</time></trkpt><trkpt lat="45.602027693332815" lon="11.161665106002445"><ele>643.0</ele><time>2026-04-04T13:11:23.999Z</time></trkpt><trkpt lat="45.601966212234586" lon="11.161532689407457"><ele>637.75</ele><time>2026-04-04T13:11:24.999Z</time></trkpt><trkpt lat="45.60188529337661" lon="11.161433257592954"><ele>632.5</ele><time>2026-04-04T13:11:25.998Z</time></trkpt><trkpt lat="45.60177791000496" lon="11.161382607354579"><ele>627.25</ele><time>2026-04-04T13:11:26.998Z</time></trkpt><trkpt lat="45.60166285281802" lon="11.161349511443676"><ele>622.0</ele><time>2026-04-04T13:11:27.998Z</time></trkpt><trkpt lat="45.6015492341816" lon="11.161307956621638"><ele>622.0</ele><time>2026-04-04T13:11:28.998Z</time></trkpt><trkpt lat="45.60144918517766" lon="11.161222026215063"><ele>622.0</ele><time>2026-04-04T13:11:29.998Z</time></trkpt><trkpt lat="45.60136215247787" lon="11.161075544194059"><ele>622.0</ele><time>2026-04-04T13:11:30.998Z</time></trkpt><trkpt lat="45.60130646398411" lon="11.160906265086291"><ele>622.0</ele><time>2026-04-04T13:11:31.998Z</time></trkpt><trkpt lat="45.601241155368506" lon="11.160759584630469"><ele>618.75</ele><time>2026-04-04T13:11:32.998Z</time></trkpt><trkpt lat="45.60115321802875" lon="11.16063388756644"><ele>615.5</ele><time>2026-04-04T13:11:33.998Z</time></trkpt><trkpt lat="45.60105644387891" lon="11.160513141730975"><ele>612.25</ele><time>2026-04-04T13:11:34.998Z</time></trkpt><trkpt lat="45.60095160479224" lon="11.160401566894897"><ele>609.0</ele><time>2026-04-04T13:11:35.998Z</time></trkpt><trkpt lat="45.60084284238143" lon="11.160311962860435"><ele>609.0</ele><time>2026-04-04T13:11:36.998Z</time></trkpt><trkpt lat="45.60073590308419" lon="11.160244336756314"><ele>609.0</ele><time>2026-04-04T13:11:37.998Z</time></trkpt><trkpt lat="45.60062992178107" lon="11.160179236379784"><ele>609.0</ele><time>2026-04-04T13:11:38.998Z</time></trkpt><trkpt lat="45.60053062493711" lon="11.160105696351046"><ele>609.0</ele><time>2026-04-04T13:11:39.998Z</time></trkpt><trkpt lat="45.600434557078" lon="11.159993368815966"><ele>607.25</ele><time>2026-04-04T13:11:40.998Z</time></trkpt><trkpt lat="45.60034964343135" lon="11.159853204660887"><ele>605.5</ele><time>2026-04-04T13:11:41.998Z</time></trkpt><trkpt lat="45.600273307191244" lon="11.15970951112685"><ele>603.75</ele><time>2026-04-04T13:11:42.998Z</time></trkpt><trkpt lat="45.60018773420429" lon="11.15959190840628"><ele>602.0</ele><time>2026-04-04T13:11:43.998Z</time></trkpt><trkpt lat="45.60009588500682" lon="11.159505662725758"><ele>602.0</ele><time>2026-04-04T13:11:44.998Z</time></trkpt><trkpt lat="45.60000447000079" lon="11.15940450811402"><ele>602.0</ele><time>2026-04-04T13:11:45.998Z</time></trkpt><trkpt lat="45.59991311355721" lon="11.159304487009496"><ele>602.0</ele><time>2026-04-04T13:11:46.998Z</time></trkpt><trkpt lat="45.599821117925984" lon="11.15920025360841"><ele>602.0</ele><time>2026-04-04T13:11:47.998Z</time></trkpt><trkpt lat="45.599727944231496" lon="11.159080494170507"><ele>598.25</ele><time>2026-04-04T13:11:48.998Z</time></trkpt><trkpt lat="45.59962494848542" lon="11.158952940303573"><ele>594.5</ele><time>2026-04-04T13:11:50Z</time></trkpt><trkpt lat="45.59951252320504" lon="11.158819500701396"><ele>590.75</ele><time>2026-04-04T13:11:51Z</time></trkpt><trkpt lat="45.599395574884845" lon="11.15867807504208"><ele>587.0</ele><time>2026-04-04T13:11:52Z</time></trkpt><trkpt lat="45.59927767469439" lon="11.15852289740002"><ele>587.0</ele><time>2026-04-04T13:11:53Z</time></trkpt><trkpt lat="45.59917132366806" lon="11.158358201385393"><ele>587.0</ele><time>2026-04-04T13:11:54Z</time></trkpt><trkpt lat="45.59907173417997" lon="11.158183466081276"><ele>587.0</ele><time>2026-04-04T13:11:55Z</time></trkpt><trkpt lat="45.59898594579385" lon="11.158013816391627"><ele>590.75</ele><time>2026-04-04T13:11:56Z</time></trkpt><trkpt lat="45.59891009077676" lon="11.157849742986857"><ele>594.5</ele><time>2026-04-04T13:11:57Z</time></trkpt><trkpt lat="45.59883818020113" lon="11.157695794703699"><ele>598.25</ele><time>2026-04-04T13:11:58Z</time></trkpt><trkpt lat="45.598778518600795" lon="11.157552464759052"><ele>602.0</ele><time>2026-04-04T13:11:59Z</time></trkpt><trkpt lat="45.59873567830785" lon="11.157395316854231"><ele>603.5</ele><time>2026-04-04T13:12:00Z</time></trkpt><trkpt lat="45.598708096032546" lon="11.15721074233632"><ele>605.0</ele><time>2026-04-04T13:12:01Z</time></trkpt><trkpt lat="45.598678203776984" lon="11.157013941201093"><ele>606.5</ele><time>2026-04-04T13:12:02Z</time></trkpt><trkpt lat="45.598645190913686" lon="11.156812535608287"><ele>608.0</ele><time>2026-04-04T13:12:03Z</time></trkpt><trkpt lat="45.59861673678802" lon="11.156614261936836"><ele>595.0</ele><time>2026-04-04T13:12:04Z</time></trkpt><trkpt lat="45.598598744299466" lon="11.156412638304403"><ele>582.0</ele><time>2026-04-04T13:12:05Z</time></trkpt><trkpt lat="45.59857406155523" lon="11.156213667488576"><ele>569.0</ele><time>2026-04-04T13:12:06Z</time></trkpt><trkpt lat="45.59853170244818" lon="11.15602426131453"><ele>556.0</ele><time>2026-04-04T13:12:07Z</time></trkpt><trkpt lat="45.598473057093734" lon="11.15584575069581"><ele>558.5</ele><time>2026-04-04T13:12:08Z</time></trkpt><trkpt lat="45.5984027034671" lon="11.155674815577889"><ele>561.0</ele><time>2026-04-04T13:12:09Z</time></trkpt><trkpt lat="45.59831764395026" lon="11.155516060663047"><ele>563.5</ele><time>2026-04-04T13:12:10Z</time></trkpt><trkpt lat="45.598220287080615" lon="11.155366488219624"><ele>566.0</ele><time>2026-04-04T13:12:11Z</time></trkpt><trkpt lat="45.59812071978995" lon="11.155219959240812"><ele>566.0</ele><time>2026-04-04T13:12:12Z</time></trkpt><trkpt lat="45.59801816437644" lon="11.155073707110398"><ele>566.0</ele><time>2026-04-04T13:12:13Z</time></trkpt><trkpt lat="45.59790043013023" lon="11.15492156996264"><ele>566.0</ele><time>2026-04-04T13:12:14Z</time></trkpt><trkpt lat="45.597787082062496" lon="11.154765447976311"><ele>562.3333333333333</ele><time>2026-04-04T13:12:15Z</time></trkpt><trkpt lat="45.59767667995706" lon="11.154606438749326"><ele>558.6666666666666</ele><time>2026-04-04T13:12:16Z</time></trkpt><trkpt lat="45.597566319191365" lon="11.154448539825333"><ele>555.0</ele><time>2026-04-04T13:12:17Z</time></trkpt><trkpt lat="45.59745342862174" lon="11.154298645839555"><ele>555.0</ele><time>2026-04-04T13:12:18Z</time></trkpt><trkpt lat="45.59733830058548" lon="11.154167959688984"><ele>555.0</ele><time>2026-04-04T13:12:19Z</time></trkpt><trkpt lat="45.59722789578176" lon="11.154042682624013"><ele>555.0</ele><time>2026-04-04T13:12:20Z</time></trkpt><trkpt lat="45.59713021812748" lon="11.153911038729587"><ele>555.0</ele><time>2026-04-04T13:12:21Z</time></trkpt><trkpt lat="45.59704098837245" lon="11.153772470296309"><ele>551.5</ele><time>2026-04-04T13:12:22Z</time></trkpt><trkpt lat="45.59693228188457" lon="11.15364631103846"><ele>548.0</ele><time>2026-04-04T13:12:23Z</time></trkpt><trkpt lat="45.59680434957737" lon="11.153541190357652"><ele>544.5</ele><time>2026-04-04T13:12:24Z</time></trkpt><trkpt lat="45.59666231906192" lon="11.153457767679692"><ele>541.0</ele><time>2026-04-04T13:12:25Z</time></trkpt><trkpt lat="45.59653510432129" lon="11.153373365681967"><ele>541.0</ele><time>2026-04-04T13:12:26Z</time></trkpt><trkpt lat="45.59641651388939" lon="11.1532846314344"><ele>541.0</ele><time>2026-04-04T13:12:27Z</time></trkpt><trkpt lat="45.59631334609388" lon="11.153171595704048"><ele>541.0</ele><time>2026-04-04T13:12:28Z</time></trkpt><trkpt lat="45.596231749852485" lon="11.153033081867848"><ele>541.0</ele><time>2026-04-04T13:12:29Z</time></trkpt><trkpt lat="45.596166957139886" lon="11.152888722257014"><ele>537.6</ele><time>2026-04-04T13:12:30Z</time></trkpt><trkpt lat="45.596112027929976" lon="11.152746530430333"><ele>534.2</ele><time>2026-04-04T13:12:31Z</time></trkpt><trkpt lat="45.59604954904177" lon="11.152613687248868"><ele>530.8</ele><time>2026-04-04T13:12:32Z</time></trkpt><trkpt lat="45.59597901037009" lon="11.152512565251135"><ele>527.4</ele><time>2026-04-04T13:12:32.999Z</time></trkpt><trkpt lat="45.59588591569517" lon="11.15244749220736"><ele>524.0</ele><time>2026-04-04T13:12:33.999Z</time></trkpt><trkpt lat="45.59577918720547" lon="11.15244198644439"><ele>524.0</ele><time>2026-04-04T13:12:34.999Z</time></trkpt><trkpt lat="45.59567614323118" lon="11.15248852695032"><ele>524.0</ele><time>2026-04-04T13:12:35.999Z</time></trkpt><trkpt lat="45.59557515148562" lon="11.152553896967913"><ele>524.0</ele><time>2026-04-04T13:12:36.999Z</time></trkpt><trkpt lat="45.59547394106742" lon="11.15261926659981"><ele>524.0</ele><time>2026-04-04T13:12:37.999Z</time></trkpt><trkpt lat="45.59534862610677" lon="11.152652042002158"><ele>522.25</ele><time>2026-04-04T13:12:38.999Z</time></trkpt><trkpt lat="45.59521232581848" lon="11.152695541148598"><ele>520.5</ele><time>2026-04-04T13:12:39.999Z</time></trkpt><trkpt lat="45.59507469208395" lon="11.152642167352539"><ele>518.75</ele><time>2026-04-04T13:12:40.999Z</time></trkpt><trkpt lat="45.594937987928546" lon="11.152599040216302"><ele>517.0</ele><time>2026-04-04T13:12:41.999Z</time></trkpt><trkpt lat="45.594810536182145" lon="11.15255547332728"><ele>517.0</ele><time>2026-04-04T13:12:42.999Z</time></trkpt><trkpt lat="45.59467338585397" lon="11.152505655841008"><ele>517.0</ele><time>2026-04-04T13:12:43.999Z</time></trkpt><trkpt lat="45.594542185159796" lon="11.152464543122859"><ele>517.0</ele><time>2026-04-04T13:12:44.999Z</time></trkpt><trkpt lat="45.59442476558021" lon="11.152433124036481"><ele>517.0</ele><time>2026-04-04T13:12:45.999Z</time></trkpt><trkpt lat="45.594313805864644" lon="11.152428466236021"><ele>517.0</ele><time>2026-04-04T13:12:46.999Z</time></trkpt><trkpt lat="45.59421068859474" lon="11.152396819688349"><ele>517.0</ele><time>2026-04-04T13:12:47.999Z</time></trkpt><trkpt lat="45.594110779853985" lon="11.152373292265715"><ele>517.0</ele><time>2026-04-04T13:12:48.999Z</time></trkpt><trkpt lat="45.594019277491185" lon="11.152349775129807"><ele>517.0</ele><time>2026-04-04T13:12:49.999Z</time></trkpt><trkpt lat="45.593925265928235" lon="11.152325769470837"><ele>517.0</ele><time>2026-04-04T13:12:50.999Z</time></trkpt><trkpt lat="45.59384252099906" lon="11.152289555383566"><ele>515.4</ele><time>2026-04-04T13:12:51.999Z</time></trkpt><trkpt lat="45.59378118490939" lon="11.152247142119363"><ele>513.8000000000001</ele><time>2026-04-04T13:12:52.999Z</time></trkpt><trkpt lat="45.59371668090232" lon="11.15215156663286"><ele>512.2</ele><time>2026-04-04T13:12:54.999Z</time></trkpt><trkpt lat="45.59365431838831" lon="11.152061628401587"><ele>510.6</ele><time>2026-04-04T13:12:56.999Z</time></trkpt><trkpt lat="45.593667470950486" lon="11.15180165823238"><ele>509.0</ele><time>2026-04-04T13:12:58.999Z</time></trkpt><trkpt lat="45.59368766943875" lon="11.151660754971859"><ele>509.79999999999995</ele><time>2026-04-04T13:12:59.999Z</time></trkpt><trkpt lat="45.59370630191887" lon="11.151516319322159"><ele>510.59999999999997</ele><time>2026-04-04T13:13:00.999Z</time></trkpt><trkpt lat="45.5937263548885" lon="11.151375293451425"><ele>511.4</ele><time>2026-04-04T13:13:01.999Z</time></trkpt><trkpt lat="45.59377447469747" lon="11.151244429368797"><ele>512.1999999999999</ele><time>2026-04-04T13:13:02.999Z</time></trkpt><trkpt lat="45.59385743072496" lon="11.151125394358083"><ele>513.0</ele><time>2026-04-04T13:13:03.999Z</time></trkpt><trkpt lat="45.59395010022905" lon="11.151034678434865"><ele>513.0</ele><time>2026-04-04T13:13:04.999Z</time></trkpt><trkpt lat="45.59403411606015" lon="11.150955617080864"><ele>513.0</ele><time>2026-04-04T13:13:05.999Z</time></trkpt><trkpt lat="45.59412141486875" lon="11.15086732235164"><ele>513.0</ele><time>2026-04-04T13:13:06.999Z</time></trkpt><trkpt lat="45.5942080125556" lon="11.150786251141756"><ele>513.0</ele><time>2026-04-04T13:13:07.999Z</time></trkpt><trkpt lat="45.594298839832426" lon="11.150718751203144"><ele>513.0</ele><time>2026-04-04T13:13:08.999Z</time></trkpt><trkpt lat="45.59440180527451" lon="11.150676318556902"><ele>514.75</ele><time>2026-04-04T13:13:09.999Z</time></trkpt><trkpt lat="45.59451480860605" lon="11.150650891408574"><ele>516.5</ele><time>2026-04-04T13:13:10.999Z</time></trkpt><trkpt lat="45.59463307701629" lon="11.150644413005342"><ele>518.25</ele><time>2026-04-04T13:13:11.999Z</time></trkpt><trkpt lat="45.59475341187825" lon="11.15063326964687"><ele>520.0</ele><time>2026-04-04T13:13:12.999Z</time></trkpt><trkpt lat="45.59485642353889" lon="11.150608523019098"><ele>520.0</ele><time>2026-04-04T13:13:13.999Z</time></trkpt><trkpt lat="45.59495798732568" lon="11.15058541389479"><ele>520.0</ele><time>2026-04-04T13:13:14.999Z</time></trkpt><trkpt lat="45.595058398649996" lon="11.150566450820111"><ele>520.0</ele><time>2026-04-04T13:13:15.999Z</time></trkpt><trkpt lat="45.59515942478244" lon="11.150540757559883"><ele>520.0</ele><time>2026-04-04T13:13:16.999Z</time></trkpt><trkpt lat="45.5952569343059" lon="11.150504085427588"><ele>520.0</ele><time>2026-04-04T13:13:17.999Z</time></trkpt><trkpt lat="45.59534775320046" lon="11.15044637292673"><ele>519.6</ele><time>2026-04-04T13:13:18.999Z</time></trkpt><trkpt lat="45.59542068571506" lon="11.150360044833036"><ele>519.2</ele><time>2026-04-04T13:13:19.999Z</time></trkpt><trkpt lat="45.59547381743175" lon="11.15025365564626"><ele>518.8</ele><time>2026-04-04T13:13:20.999Z</time></trkpt><trkpt lat="45.59551245279873" lon="11.150131394264566"><ele>518.4</ele><time>2026-04-04T13:13:21.999Z</time></trkpt><trkpt lat="45.59553279917333" lon="11.150011762780636"><ele>518.0</ele><time>2026-04-04T13:13:22.999Z</time></trkpt><trkpt lat="45.595570544535875" lon="11.149891659683247"><ele>519.4</ele><time>2026-04-04T13:13:23.999Z</time></trkpt><trkpt lat="45.59562382938252" lon="11.149765026328067"><ele>520.8</ele><time>2026-04-04T13:13:24.999Z</time></trkpt><trkpt lat="45.59568208694449" lon="11.149636409601184"><ele>522.2</ele><time>2026-04-04T13:13:25.999Z</time></trkpt><trkpt lat="45.59574855989917" lon="11.149515010525452"><ele>523.6</ele><time>2026-04-04T13:13:26.999Z</time></trkpt><trkpt lat="45.59582874169678" lon="11.149413342066842"><ele>525.0</ele><time>2026-04-04T13:13:27.999Z</time></trkpt><trkpt lat="45.59591406070028" lon="11.149327086289805"><ele>525.0</ele><time>2026-04-04T13:13:28.999Z</time></trkpt><trkpt lat="45.59600027751154" lon="11.149259312211896"><ele>525.0</ele><time>2026-04-04T13:13:29.999Z</time></trkpt><trkpt lat="45.596082146121304" lon="11.149194038776999"><ele>525.0</ele><time>2026-04-04T13:13:30.998Z</time></trkpt><trkpt lat="45.59615852193058" lon="11.14913292176805"><ele>525.0</ele><time>2026-04-04T13:13:31.998Z</time></trkpt><trkpt lat="45.59623679570795" lon="11.14907336386962"><ele>525.0</ele><time>2026-04-04T13:13:32.998Z</time></trkpt><trkpt lat="45.596320420050475" lon="11.149023371756666"><ele>525.6</ele><time>2026-04-04T13:13:33.998Z</time></trkpt><trkpt lat="45.59640298902308" lon="11.148974798314034"><ele>526.2</ele><time>2026-04-04T13:13:34.998Z</time></trkpt><trkpt lat="45.59648702899375" lon="11.148934167067923"><ele>526.8</ele><time>2026-04-04T13:13:35.998Z</time></trkpt><trkpt lat="45.59657561792629" lon="11.148896981061792"><ele>527.4</ele><time>2026-04-04T13:13:36.998Z</time></trkpt><trkpt lat="45.59665838374293" lon="11.14884674327641"><ele>528.0</ele><time>2026-04-04T13:13:37.998Z</time></trkpt><trkpt lat="45.59676719310123" lon="11.14881782040531"><ele>528.0</ele><time>2026-04-04T13:13:38.998Z</time></trkpt><trkpt lat="45.59686526211062" lon="11.148775362414126"><ele>528.0</ele><time>2026-04-04T13:13:39.998Z</time></trkpt><trkpt lat="45.59697047124462" lon="11.148734096433795"><ele>528.0</ele><time>2026-04-04T13:13:40.998Z</time></trkpt><trkpt lat="45.59707832607437" lon="11.148704778735635"><ele>528.0</ele><time>2026-04-04T13:13:41.998Z</time></trkpt><trkpt lat="45.59719502572112" lon="11.148659227357363"><ele>528.0</ele><time>2026-04-04T13:13:42.998Z</time></trkpt><trkpt lat="45.59730705259877" lon="11.148591647396042"><ele>528.0</ele><time>2026-04-04T13:13:43.998Z</time></trkpt><trkpt lat="45.597419684736415" lon="11.14851502555066"><ele>528.0</ele><time>2026-04-04T13:13:44.998Z</time></trkpt><trkpt lat="45.59753332646408" lon="11.148437209736082"><ele>528.0</ele><time>2026-04-04T13:13:45.998Z</time></trkpt><trkpt lat="45.59764189743931" lon="11.148351410059247"><ele>528.0</ele><time>2026-04-04T13:13:46.998Z</time></trkpt><trkpt lat="45.59774469577441" lon="11.148255429019944"><ele>527.25</ele><time>2026-04-04T13:13:47.998Z</time></trkpt><trkpt lat="45.59784322419956" lon="11.148141086010128"><ele>526.5</ele><time>2026-04-04T13:13:48.998Z</time></trkpt><trkpt lat="45.59794468881229" lon="11.147995892903007"><ele>525.75</ele><time>2026-04-04T13:13:49.998Z</time></trkpt><trkpt lat="45.598044008123246" lon="11.147833292003567"><ele>525.0</ele><time>2026-04-04T13:13:50.998Z</time></trkpt><trkpt lat="45.598148605449445" lon="11.147658067168713"><ele>525.0</ele><time>2026-04-04T13:13:51.998Z</time></trkpt><trkpt lat="45.59825644539973" lon="11.147481176938019"><ele>525.0</ele><time>2026-04-04T13:13:52.998Z</time></trkpt><trkpt lat="45.59838573763516" lon="11.147319139930422"><ele>525.0</ele><time>2026-04-04T13:13:53.998Z</time></trkpt><trkpt lat="45.59852310123699" lon="11.147169063443304"><ele>524.6666666666666</ele><time>2026-04-04T13:13:54.998Z</time></trkpt><trkpt lat="45.59867429514615" lon="11.147027507424093"><ele>524.3333333333333</ele><time>2026-04-04T13:13:56Z</time></trkpt><trkpt lat="45.59883959466079" lon="11.146895303044543"><ele>524.0</ele><time>2026-04-04T13:13:57Z</time></trkpt><trkpt lat="45.59901816516759" lon="11.14676087457529"><ele>524.0</ele><time>2026-04-04T13:13:58Z</time></trkpt><trkpt lat="45.59919246321826" lon="11.146629988861381"><ele>524.0</ele><time>2026-04-04T13:13:59Z</time></trkpt><trkpt lat="45.59936525653508" lon="11.14649915511748"><ele>524.0</ele><time>2026-04-04T13:14:00Z</time></trkpt><trkpt lat="45.59952774552944" lon="11.146372883589418"><ele>527.3333333333333</ele><time>2026-04-04T13:14:01Z</time></trkpt><trkpt lat="45.599679812018785" lon="11.146247810401329"><ele>530.6666666666666</ele><time>2026-04-04T13:14:02Z</time></trkpt><trkpt lat="45.599828332098156" lon="11.146118112002174"><ele>534.0</ele><time>2026-04-04T13:14:03Z</time></trkpt><trkpt lat="45.59998075724347" lon="11.145978877300854"><ele>534.0</ele><time>2026-04-04T13:14:04Z</time></trkpt><trkpt lat="45.600134143729704" lon="11.145828709107802"><ele>534.0</ele><time>2026-04-04T13:14:05Z</time></trkpt><trkpt lat="45.600285149590995" lon="11.145673036467155"><ele>534.0</ele><time>2026-04-04T13:14:06Z</time></trkpt><trkpt lat="45.600436274190145" lon="11.145514206375314"><ele>535.6666666666666</ele><time>2026-04-04T13:14:07Z</time></trkpt><trkpt lat="45.60058020722237" lon="11.145357594530934"><ele>537.3333333333333</ele><time>2026-04-04T13:14:08Z</time></trkpt><trkpt lat="45.60072091343591" lon="11.145201047088765"><ele>539.0</ele><time>2026-04-04T13:14:09Z</time></trkpt><trkpt lat="45.60086232763413" lon="11.145050451630878"><ele>539.0</ele><time>2026-04-04T13:14:10Z</time></trkpt><trkpt lat="45.60100165660483" lon="11.144890011942948"><ele>539.0</ele><time>2026-04-04T13:14:11Z</time></trkpt><trkpt lat="45.601142852124624" lon="11.144740657747278"><ele>539.0</ele><time>2026-04-04T13:14:12Z</time></trkpt><trkpt lat="45.60130521941687" lon="11.14460412707036"><ele>540.6666666666666</ele><time>2026-04-04T13:14:13Z</time></trkpt><trkpt lat="45.6014771242809" lon="11.144478819270162"><ele>542.3333333333334</ele><time>2026-04-04T13:14:14Z</time></trkpt><trkpt lat="45.60167106453577" lon="11.144359115907271"><ele>544.0</ele><time>2026-04-04T13:14:15Z</time></trkpt><trkpt lat="45.601866518336934" lon="11.144229884125162"><ele>541.6666666666667</ele><time>2026-04-04T13:14:16Z</time></trkpt><trkpt lat="45.6020621214355" lon="11.1440970255391"><ele>539.3333333333334</ele><time>2026-04-04T13:14:17Z</time></trkpt><trkpt lat="45.602250961819145" lon="11.1439716035648"><ele>537.0</ele><time>2026-04-04T13:14:18Z</time></trkpt><trkpt lat="45.602426520388924" lon="11.14384450736963"><ele>542.3333333333334</ele><time>2026-04-04T13:14:19Z</time></trkpt><trkpt lat="45.60258600019228" lon="11.143726771653654"><ele>547.6666666666667</ele><time>2026-04-04T13:14:20Z</time></trkpt><trkpt lat="45.60273594353738" lon="11.143619852376094"><ele>553.0</ele><time>2026-04-04T13:14:21Z</time></trkpt><trkpt lat="45.60289200707968" lon="11.143520400471182"><ele>553.0</ele><time>2026-04-04T13:14:22Z</time></trkpt><trkpt lat="45.603061972708645" lon="11.143420378268923"><ele>553.0</ele><time>2026-04-04T13:14:23Z</time></trkpt><trkpt lat="45.60325532034379" lon="11.143354297522809"><ele>553.0</ele><time>2026-04-04T13:14:24Z</time></trkpt><trkpt lat="45.60346294927375" lon="11.143309231157248"><ele>551.0</ele><time>2026-04-04T13:14:25Z</time></trkpt><trkpt lat="45.60366554165567" lon="11.14325195657782"><ele>549.0</ele><time>2026-04-04T13:14:26Z</time></trkpt><trkpt lat="45.60386795417529" lon="11.143174879235357"><ele>547.0</ele><time>2026-04-04T13:14:27Z</time></trkpt><trkpt lat="45.60407110181182" lon="11.143065694468154"><ele>549.0</ele><time>2026-04-04T13:14:28Z</time></trkpt><trkpt lat="45.60426072246976" lon="11.142963234703709"><ele>551.0</ele><time>2026-04-04T13:14:29Z</time></trkpt><trkpt lat="45.60444457737625" lon="11.142868492060316"><ele>553.0</ele><time>2026-04-04T13:14:30Z</time></trkpt><trkpt lat="45.604617094383414" lon="11.142779812423898"><ele>553.0</ele><time>2026-04-04T13:14:31Z</time></trkpt><trkpt lat="45.60476722691677" lon="11.142708293145798"><ele>553.0</ele><time>2026-04-04T13:14:32Z</time></trkpt><trkpt lat="45.604904502316224" lon="11.142637407582354"><ele>553.0</ele><time>2026-04-04T13:14:33Z</time></trkpt><trkpt lat="45.60503387528347" lon="11.142568194163319"><ele>553.0</ele><time>2026-04-04T13:14:34Z</time></trkpt><trkpt lat="45.605152434247316" lon="11.142506694142643"><ele>553.0</ele><time>2026-04-04T13:14:35Z</time></trkpt><trkpt lat="45.60526520044017" lon="11.142455749721243"><ele>553.0</ele><time>2026-04-04T13:14:36Z</time></trkpt><trkpt lat="45.605371892124964" lon="11.142387469926565"><ele>553.0</ele><time>2026-04-04T13:14:37Z</time></trkpt><trkpt lat="45.60547829161014" lon="11.142261897411126"><ele>553.0</ele><time>2026-04-04T13:14:38Z</time></trkpt><trkpt lat="45.60558162484748" lon="11.142083075043711"><ele>556.6666666666667</ele><time>2026-04-04T13:14:39Z</time></trkpt><trkpt lat="45.60567515140538" lon="11.14190399853612"><ele>560.3333333333334</ele><time>2026-04-04T13:14:39.999Z</time></trkpt><trkpt lat="45.60577166301677" lon="11.141741753740279"><ele>564.0</ele><time>2026-04-04T13:14:40.999Z</time></trkpt><trkpt lat="45.605883560557196" lon="11.141599756850761"><ele>565.5</ele><time>2026-04-04T13:14:41.999Z</time></trkpt><trkpt lat="45.60602407515314" lon="11.141498474148925"><ele>567.0</ele><time>2026-04-04T13:14:42.999Z</time></trkpt><trkpt lat="45.60614894309739" lon="11.141428673348395"><ele>568.5</ele><time>2026-04-04T13:14:43.999Z</time></trkpt><trkpt lat="45.60626452810662" lon="11.141364694543729"><ele>570.0</ele><time>2026-04-04T13:14:44.999Z</time></trkpt><trkpt lat="45.60638366622013" lon="11.14129526410174"><ele>570.0</ele><time>2026-04-04T13:14:45.999Z</time></trkpt><trkpt lat="45.606507843072734" lon="11.141220467486505"><ele>570.0</ele><time>2026-04-04T13:14:46.999Z</time></trkpt><trkpt lat="45.60662816941365" lon="11.141134139286919"><ele>570.0</ele><time>2026-04-04T13:14:47.999Z</time></trkpt><trkpt lat="45.60674947319152" lon="11.141039198179211"><ele>570.0</ele><time>2026-04-04T13:14:48.999Z</time></trkpt><trkpt lat="45.60687392899698" lon="11.140935085193265"><ele>572.0</ele><time>2026-04-04T13:14:49.999Z</time></trkpt><trkpt lat="45.607000520448246" lon="11.140823269882327"><ele>574.0</ele><time>2026-04-04T13:14:50.999Z</time></trkpt><trkpt lat="45.607122117014335" lon="11.140706818888047"><ele>576.0</ele><time>2026-04-04T13:14:51.999Z</time></trkpt><trkpt lat="45.60723543681703" lon="11.140601051443273"><ele>578.0</ele><time>2026-04-04T13:14:52.999Z</time></trkpt><trkpt lat="45.60735176502553" lon="11.140496160766482"><ele>578.0</ele><time>2026-04-04T13:14:53.999Z</time></trkpt><trkpt lat="45.60746405511141" lon="11.14040525184311"><ele>578.0</ele><time>2026-04-04T13:14:54.999Z</time></trkpt><trkpt lat="45.60758152788902" lon="11.140338413510328"><ele>578.0</ele><time>2026-04-04T13:14:55.999Z</time></trkpt><trkpt lat="45.60770532857889" lon="11.140312290659383"><ele>578.0</ele><time>2026-04-04T13:14:56.999Z</time></trkpt><trkpt lat="45.60783064958831" lon="11.140326699076292"><ele>573.25</ele><time>2026-04-04T13:14:57.999Z</time></trkpt><trkpt lat="45.60795078689012" lon="11.140407183758263"><ele>568.5</ele><time>2026-04-04T13:14:58.999Z</time></trkpt><trkpt lat="45.608059503379536" lon="11.140516933675844"><ele>563.75</ele><time>2026-04-04T13:14:59.999Z</time></trkpt><trkpt lat="45.60816132740495" lon="11.14063661014839"><ele>559.0</ele><time>2026-04-04T13:15:00.999Z</time></trkpt><trkpt lat="45.608256560389535" lon="11.140758829397777"><ele>558.75</ele><time>2026-04-04T13:15:01.999Z</time></trkpt><trkpt lat="45.60835164628011" lon="11.140848480968325"><ele>558.5</ele><time>2026-04-04T13:15:02.999Z</time></trkpt><trkpt lat="45.60844997843298" lon="11.140934117236466"><ele>558.25</ele><time>2026-04-04T13:15:03.999Z</time></trkpt><trkpt lat="45.60856547345124" lon="11.140951218557337"><ele>558.0</ele><time>2026-04-04T13:15:04.999Z</time></trkpt><trkpt lat="45.60868643618648" lon="11.140899217836662"><ele>558.5</ele><time>2026-04-04T13:15:05.999Z</time></trkpt><trkpt lat="45.60880511607204" lon="11.14080048938527"><ele>559.0</ele><time>2026-04-04T13:15:06.999Z</time></trkpt><trkpt lat="45.60891896624565" lon="11.140690434119612"><ele>559.5</ele><time>2026-04-04T13:15:07.999Z</time></trkpt><trkpt lat="45.6090340639383" lon="11.140594769968818"><ele>560.0</ele><time>2026-04-04T13:15:08.999Z</time></trkpt><trkpt lat="45.60914302553586" lon="11.140503862737019"><ele>560.0</ele><time>2026-04-04T13:15:09.999Z</time></trkpt><trkpt lat="45.609242008641345" lon="11.140410324490825"><ele>560.0</ele><time>2026-04-04T13:15:10.999Z</time></trkpt><trkpt lat="45.60934760099285" lon="11.140314318428068"><ele>560.0</ele><time>2026-04-04T13:15:11.999Z</time></trkpt><trkpt lat="45.60945630572811" lon="11.140219531022968"><ele>560.0</ele><time>2026-04-04T13:15:12.999Z</time></trkpt><trkpt lat="45.60956554940388" lon="11.140126011143737"><ele>560.25</ele><time>2026-04-04T13:15:13.999Z</time></trkpt><trkpt lat="45.609672977607595" lon="11.140034184999525"><ele>560.5</ele><time>2026-04-04T13:15:14.999Z</time></trkpt><trkpt lat="45.60978414794089" lon="11.13994219193658"><ele>560.75</ele><time>2026-04-04T13:15:15.999Z</time></trkpt><trkpt lat="45.609896437311335" lon="11.13985472667059"><ele>561.0</ele><time>2026-04-04T13:15:16.999Z</time></trkpt><trkpt lat="45.61001269733237" lon="11.139773084016822"><ele>561.0</ele><time>2026-04-04T13:15:17.999Z</time></trkpt><trkpt lat="45.6101195668757" lon="11.139695018646236"><ele>561.0</ele><time>2026-04-04T13:15:18.999Z</time></trkpt><trkpt lat="45.610223964265074" lon="11.139625281316926"><ele>561.0</ele><time>2026-04-04T13:15:19.999Z</time></trkpt><trkpt lat="45.61032750426029" lon="11.13955977438807"><ele>561.0</ele><time>2026-04-04T13:15:20.999Z</time></trkpt><trkpt lat="45.610430819680836" lon="11.139489904716871"><ele>562.75</ele><time>2026-04-04T13:15:21.999Z</time></trkpt><trkpt lat="45.61053578093388" lon="11.1394167384486"><ele>564.5</ele><time>2026-04-04T13:15:22.999Z</time></trkpt><trkpt lat="45.61064219472584" lon="11.139345337221895"><ele>566.25</ele><time>2026-04-04T13:15:23.999Z</time></trkpt><trkpt lat="45.61074909345142" lon="11.139275575011542"><ele>568.0</ele><time>2026-04-04T13:15:24.999Z</time></trkpt><trkpt lat="45.61085861686083" lon="11.139210500030675"><ele>568.0</ele><time>2026-04-04T13:15:25.999Z</time></trkpt><trkpt lat="45.61097176649548" lon="11.139168001290013"><ele>568.0</ele><time>2026-04-04T13:15:26.999Z</time></trkpt><trkpt lat="45.61108906981952" lon="11.139117307945266"><ele>568.0</ele><time>2026-04-04T13:15:27.999Z</time></trkpt><trkpt lat="45.61119909495554" lon="11.13904652698457"><ele>568.0</ele><time>2026-04-04T13:15:28.999Z</time></trkpt><trkpt lat="45.61129215582572" lon="11.13897266000175"><ele>568.4</ele><time>2026-04-04T13:15:29.999Z</time></trkpt><trkpt lat="45.61137353226002" lon="11.13890137569484"><ele>568.8</ele><time>2026-04-04T13:15:30.999Z</time></trkpt><trkpt lat="45.611455561537475" lon="11.138826388565802"><ele>569.2</ele><time>2026-04-04T13:15:31.999Z</time></trkpt><trkpt lat="45.61154467731961" lon="11.1387510021443"><ele>569.6</ele><time>2026-04-04T13:15:32.999Z</time></trkpt><trkpt lat="45.611628186515496" lon="11.1386815667267"><ele>570.0</ele><time>2026-04-04T13:15:33.999Z</time></trkpt><trkpt lat="45.61170827684892" lon="11.138611463892193"><ele>570.0</ele><time>2026-04-04T13:15:34.999Z</time></trkpt><trkpt lat="45.61179116889747" lon="11.138543223959731"><ele>570.0</ele><time>2026-04-04T13:15:35.999Z</time></trkpt><trkpt lat="45.61187754611929" lon="11.138472176704923"><ele>570.0</ele><time>2026-04-04T13:15:36.998Z</time></trkpt><trkpt lat="45.61194875529229" lon="11.138412057714177"><ele>570.0</ele><time>2026-04-04T13:15:37.998Z</time></trkpt><trkpt lat="45.61201611636712" lon="11.138352153597298"><ele>570.0</ele><time>2026-04-04T13:15:38.998Z</time></trkpt><trkpt lat="45.61207641706646" lon="11.138295571424969"><ele>570.0</ele><time>2026-04-04T13:15:39.998Z</time></trkpt><trkpt lat="45.612168503094075" lon="11.138225078894479"><ele>570.2</ele><time>2026-04-04T13:15:41.998Z</time></trkpt><trkpt lat="45.61223163139795" lon="11.138163934197337"><ele>570.4</ele><time>2026-04-04T13:15:43.998Z</time></trkpt><trkpt lat="45.61233657798693" lon="11.138104956324028"><ele>570.6</ele><time>2026-04-04T13:15:45.998Z</time></trkpt><trkpt lat="45.61242588414472" lon="11.138111283679532"><ele>570.8</ele><time>2026-04-04T13:15:46.998Z</time></trkpt><trkpt lat="45.61251966627326" lon="11.138090532292784"><ele>571.0</ele><time>2026-04-04T13:15:47.998Z</time></trkpt><trkpt lat="45.612617171660375" lon="11.138094360756117"><ele>571.0</ele><time>2026-04-04T13:15:48.998Z</time></trkpt><trkpt lat="45.61271875915126" lon="11.138093389610948"><ele>571.0</ele><time>2026-04-04T13:15:49.998Z</time></trkpt><trkpt lat="45.6128274987015" lon="11.138090608516448"><ele>571.0</ele><time>2026-04-04T13:15:50.998Z</time></trkpt><trkpt lat="45.61294801885553" lon="11.138087015671582"><ele>571.0</ele><time>2026-04-04T13:15:51.998Z</time></trkpt><trkpt lat="45.61306769746248" lon="11.138081044381101"><ele>571.75</ele><time>2026-04-04T13:15:52.998Z</time></trkpt><trkpt lat="45.613185723896216" lon="11.138078939312015"><ele>572.5</ele><time>2026-04-04T13:15:53.998Z</time></trkpt><trkpt lat="45.61330721705642" lon="11.138084860432247"><ele>573.25</ele><time>2026-04-04T13:15:54.998Z</time></trkpt><trkpt lat="45.61342560951596" lon="11.138098479570958"><ele>574.0</ele><time>2026-04-04T13:15:55.998Z</time></trkpt><trkpt lat="45.61354117039405" lon="11.138141032762464"><ele>574.25</ele><time>2026-04-04T13:15:56.998Z</time></trkpt><trkpt lat="45.61365555707678" lon="11.13820750173123"><ele>574.5</ele><time>2026-04-04T13:15:57.998Z</time></trkpt><trkpt lat="45.61377200242621" lon="11.138273715458848"><ele>574.75</ele><time>2026-04-04T13:15:58.998Z</time></trkpt><trkpt lat="45.61389004507159" lon="11.138324592685512"><ele>575.0</ele><time>2026-04-04T13:15:59.998Z</time></trkpt><trkpt lat="45.61400335960918" lon="11.138363735031529"><ele>578.0</ele><time>2026-04-04T13:16:00.998Z</time></trkpt><trkpt lat="45.61413335054039" lon="11.138393401691005"><ele>581.0</ele><time>2026-04-04T13:16:02Z</time></trkpt><trkpt lat="45.61427399146335" lon="11.138402649991615"><ele>584.0</ele><time>2026-04-04T13:16:03Z</time></trkpt><trkpt lat="45.61441606153807" lon="11.138380263799764"><ele>587.0</ele><time>2026-04-04T13:16:04Z</time></trkpt><trkpt lat="45.61456126541741" lon="11.138330962504055"><ele>589.3333333333333</ele><time>2026-04-04T13:16:05Z</time></trkpt><trkpt lat="45.61470506498089" lon="11.13826055077879"><ele>591.6666666666666</ele><time>2026-04-04T13:16:06Z</time></trkpt><trkpt lat="45.614844999106666" lon="11.138172695615502"><ele>594.0</ele><time>2026-04-04T13:16:07Z</time></trkpt><trkpt lat="45.61497978911205" lon="11.138077660318014"><ele>592.25</ele><time>2026-04-04T13:16:08Z</time></trkpt><trkpt lat="45.615103526501876" lon="11.137976882519537"><ele>590.5</ele><time>2026-04-04T13:16:09Z</time></trkpt><trkpt lat="45.61521990285443" lon="11.137880499569546"><ele>588.75</ele><time>2026-04-04T13:16:10Z</time></trkpt><trkpt lat="45.61534173983858" lon="11.137797163860077"><ele>587.0</ele><time>2026-04-04T13:16:11Z</time></trkpt><trkpt lat="45.61547540864077" lon="11.13773366468318"><ele>587.0</ele><time>2026-04-04T13:16:12Z</time></trkpt><trkpt lat="45.615620642563975" lon="11.137692053186717"><ele>587.0</ele><time>2026-04-04T13:16:13Z</time></trkpt><trkpt lat="45.61577163642553" lon="11.137661435779142"><ele>587.0</ele><time>2026-04-04T13:16:14Z</time></trkpt><trkpt lat="45.61592928622609" lon="11.137639535708887"><ele>587.0</ele><time>2026-04-04T13:16:15Z</time></trkpt><trkpt lat="45.61608976968556" lon="11.137614508612351"><ele>587.0</ele><time>2026-04-04T13:16:16Z</time></trkpt><trkpt lat="45.61625297523178" lon="11.137582120397306"><ele>587.0</ele><time>2026-04-04T13:16:17Z</time></trkpt><trkpt lat="45.616420366335106" lon="11.137550581690585"><ele>587.6666666666666</ele><time>2026-04-04T13:16:18Z</time></trkpt><trkpt lat="45.61659230627653" lon="11.137518738804145"><ele>588.3333333333334</ele><time>2026-04-04T13:16:19Z</time></trkpt><trkpt lat="45.61677122447332" lon="11.13748566145003"><ele>589.0</ele><time>2026-04-04T13:16:20Z</time></trkpt><trkpt lat="45.616952401178146" lon="11.137449951574057"><ele>587.6666666666667</ele><time>2026-04-04T13:16:21Z</time></trkpt><trkpt lat="45.61712993545305" lon="11.137402958132428"><ele>586.3333333333334</ele><time>2026-04-04T13:16:22Z</time></trkpt><trkpt lat="45.61730791295471" lon="11.137368607011336"><ele>585.0</ele><time>2026-04-04T13:16:23Z</time></trkpt><trkpt lat="45.61746905588077" lon="11.137283648323324"><ele>585.0</ele><time>2026-04-04T13:16:24Z</time></trkpt><trkpt lat="45.617642248003165" lon="11.13722190148075"><ele>585.0</ele><time>2026-04-04T13:16:25Z</time></trkpt><trkpt lat="45.61781734168147" lon="11.137175804748704"><ele>585.0</ele><time>2026-04-04T13:16:26Z</time></trkpt><trkpt lat="45.61799570473659" lon="11.137138960291061"><ele>586.3333333333334</ele><time>2026-04-04T13:16:27Z</time></trkpt><trkpt lat="45.61817240634275" lon="11.137093083283466"><ele>587.6666666666667</ele><time>2026-04-04T13:16:28Z</time></trkpt><trkpt lat="45.61834755291682" lon="11.13703740738917"><ele>589.0</ele><time>2026-04-04T13:16:29Z</time></trkpt><trkpt lat="45.61851791549905" lon="11.13697568492493"><ele>593.6666666666667</ele><time>2026-04-04T13:16:30Z</time></trkpt><trkpt lat="45.61868647330123" lon="11.136915227749636"><ele>598.3333333333334</ele><time>2026-04-04T13:16:31Z</time></trkpt><trkpt lat="45.61885410153228" lon="11.136858910309842"><ele>603.0</ele><time>2026-04-04T13:16:32Z</time></trkpt><trkpt lat="45.619021068415336" lon="11.13679802759609"><ele>603.0</ele><time>2026-04-04T13:16:33Z</time></trkpt><trkpt lat="45.61918586485972" lon="11.136735949217119"><ele>603.0</ele><time>2026-04-04T13:16:34Z</time></trkpt><trkpt lat="45.61933338823945" lon="11.136681574569325"><ele>603.0</ele><time>2026-04-04T13:16:35Z</time></trkpt><trkpt lat="45.61947525185828" lon="11.136620583906668"><ele>600.6666666666666</ele><time>2026-04-04T13:16:36Z</time></trkpt><trkpt lat="45.61962015275828" lon="11.136527613559648"><ele>598.3333333333333</ele><time>2026-04-04T13:16:37Z</time></trkpt><trkpt lat="45.619758127560466" lon="11.136405918661668"><ele>596.0</ele><time>2026-04-04T13:16:38Z</time></trkpt><trkpt lat="45.61988868905939" lon="11.136259477125776"><ele>596.0</ele><time>2026-04-04T13:16:39Z</time></trkpt><trkpt lat="45.62001372646344" lon="11.13610768027974"><ele>596.0</ele><time>2026-04-04T13:16:40Z</time></trkpt><trkpt lat="45.62012650205464" lon="11.135956411638015"><ele>596.0</ele><time>2026-04-04T13:16:41Z</time></trkpt><trkpt lat="45.620233216135155" lon="11.135813274794861"><ele>596.75</ele><time>2026-04-04T13:16:42Z</time></trkpt><trkpt lat="45.62033234690691" lon="11.135689647060886"><ele>597.5</ele><time>2026-04-04T13:16:43Z</time></trkpt><trkpt lat="45.62042216378058" lon="11.135564620588918"><ele>598.25</ele><time>2026-04-04T13:16:44Z</time></trkpt><trkpt lat="45.62051710811568" lon="11.135440512121702"><ele>599.0</ele><time>2026-04-04T13:16:45Z</time></trkpt><trkpt lat="45.62061121935785" lon="11.13531108231638"><ele>599.0</ele><time>2026-04-04T13:16:45.999Z</time></trkpt><trkpt lat="45.620707478232674" lon="11.135181822846857"><ele>599.0</ele><time>2026-04-04T13:16:46.999Z</time></trkpt><trkpt lat="45.620800969295225" lon="11.135056369860669"><ele>599.0</ele><time>2026-04-04T13:16:47.999Z</time></trkpt><trkpt lat="45.62089705563591" lon="11.134930299564402"><ele>599.0</ele><time>2026-04-04T13:16:48.999Z</time></trkpt><trkpt lat="45.62099261910236" lon="11.134804242418603"><ele>599.5</ele><time>2026-04-04T13:16:49.999Z</time></trkpt><trkpt lat="45.621096475779865" lon="11.134689968602226"><ele>600.0</ele><time>2026-04-04T13:16:50.999Z</time></trkpt><trkpt lat="45.62120678604413" lon="11.134581724491648"><ele>600.5</ele><time>2026-04-04T13:16:51.999Z</time></trkpt><trkpt lat="45.62132232492949" lon="11.134477965841505"><ele>601.0</ele><time>2026-04-04T13:16:52.999Z</time></trkpt><trkpt lat="45.621439192583864" lon="11.134378341517955"><ele>602.0</ele><time>2026-04-04T13:16:53.999Z</time></trkpt><trkpt lat="45.62156255059794" lon="11.134279090428508"><ele>603.0</ele><time>2026-04-04T13:16:54.999Z</time></trkpt><trkpt lat="45.621694156624834" lon="11.134181353171293"><ele>604.0</ele><time>2026-04-04T13:16:55.999Z</time></trkpt><trkpt lat="45.6218292033361" lon="11.134086375100452"><ele>605.0</ele><time>2026-04-04T13:16:56.999Z</time></trkpt><trkpt lat="45.621966614225606" lon="11.13399597769459"><ele>605.3333333333333</ele><time>2026-04-04T13:16:57.999Z</time></trkpt><trkpt lat="45.622107212704165" lon="11.133913355208792"><ele>605.6666666666666</ele><time>2026-04-04T13:16:58.999Z</time></trkpt><trkpt lat="45.62225100735561" lon="11.133832441948282"><ele>606.0</ele><time>2026-04-04T13:16:59.999Z</time></trkpt><trkpt lat="45.62239335322699" lon="11.133742867879876"><ele>606.0</ele><time>2026-04-04T13:17:00.999Z</time></trkpt><trkpt lat="45.62252606747588" lon="11.133637817874279"><ele>606.0</ele><time>2026-04-04T13:17:01.999Z</time></trkpt><trkpt lat="45.62265074657407" lon="11.133526150524464"><ele>606.0</ele><time>2026-04-04T13:17:02.999Z</time></trkpt><trkpt lat="45.62277344291009" lon="11.133426042398582"><ele>606.0</ele><time>2026-04-04T13:17:03.999Z</time></trkpt><trkpt lat="45.62289523626188" lon="11.133302673933768"><ele>607.5</ele><time>2026-04-04T13:17:04.999Z</time></trkpt><trkpt lat="45.62300343981667" lon="11.133157222162943"><ele>609.0</ele><time>2026-04-04T13:17:05.999Z</time></trkpt><trkpt lat="45.623098468281896" lon="11.132999425822375"><ele>610.5</ele><time>2026-04-04T13:17:06.999Z</time></trkpt><trkpt lat="45.62319304817176" lon="11.132857470022943"><ele>612.0</ele><time>2026-04-04T13:17:07.999Z</time></trkpt><trkpt lat="45.623295334381936" lon="11.1327482740004"><ele>612.0</ele><time>2026-04-04T13:17:08.999Z</time></trkpt><trkpt lat="45.62341268516337" lon="11.132648615430645"><ele>612.0</ele><time>2026-04-04T13:17:09.999Z</time></trkpt><trkpt lat="45.6235409524424" lon="11.132578146623239"><ele>612.0</ele><time>2026-04-04T13:17:10.999Z</time></trkpt><trkpt lat="45.623678160056585" lon="11.132530747479368"><ele>612.0</ele><time>2026-04-04T13:17:11.999Z</time></trkpt><trkpt lat="45.62382353103862" lon="11.132486806999273"><ele>613.0</ele><time>2026-04-04T13:17:12.999Z</time></trkpt><trkpt lat="45.62397996346946" lon="11.132448007337816"><ele>614.0</ele><time>2026-04-04T13:17:13.999Z</time></trkpt><trkpt lat="45.624138429701546" lon="11.132401371145205"><ele>615.0</ele><time>2026-04-04T13:17:14.999Z</time></trkpt><trkpt lat="45.62429918556061" lon="11.132357106068069"><ele>615.3333333333334</ele><time>2026-04-04T13:17:15.999Z</time></trkpt><trkpt lat="45.624461467194074" lon="11.132307329745007"><ele>615.6666666666667</ele><time>2026-04-04T13:17:16.999Z</time></trkpt><trkpt lat="45.62462751123889" lon="11.132261925346041"><ele>616.0</ele><time>2026-04-04T13:17:17.999Z</time></trkpt><trkpt lat="45.62479332884113" lon="11.132214565062363"><ele>616.0</ele><time>2026-04-04T13:17:18.999Z</time></trkpt><trkpt lat="45.62496579455102" lon="11.13216839090525"><ele>616.0</ele><time>2026-04-04T13:17:19.999Z</time></trkpt><trkpt lat="45.62513276122618" lon="11.13212428962804"><ele>616.0</ele><time>2026-04-04T13:17:20.999Z</time></trkpt><trkpt lat="45.62530302387175" lon="11.132073772580004"><ele>617.75</ele><time>2026-04-04T13:17:21.999Z</time></trkpt><trkpt lat="45.62546487918029" lon="11.132020356219222"><ele>619.5</ele><time>2026-04-04T13:17:22.999Z</time></trkpt><trkpt lat="45.625612970810465" lon="11.131977548863443"><ele>621.25</ele><time>2026-04-04T13:17:23.999Z</time></trkpt><trkpt lat="45.625736556585835" lon="11.131936006246976"><ele>623.0</ele><time>2026-04-04T13:17:24.999Z</time></trkpt><trkpt lat="45.62583937211944" lon="11.131903262922776"><ele>623.0</ele><time>2026-04-04T13:17:25.999Z</time></trkpt><trkpt lat="45.62593123275952" lon="11.131880195937256"><ele>623.0</ele><time>2026-04-04T13:17:26.999Z</time></trkpt><trkpt lat="45.626013388589804" lon="11.131878182917081"><ele>623.0</ele><time>2026-04-04T13:17:27.999Z</time></trkpt><trkpt lat="45.62609848335922" lon="11.131874050712439"><ele>623.0</ele><time>2026-04-04T13:17:28.999Z</time></trkpt><trkpt lat="45.626200524564524" lon="11.131752816579278"><ele>623.0</ele><time>2026-04-04T13:17:29.999Z</time></trkpt><trkpt lat="45.62632011052925" lon="11.131734505832302"><ele>624.5</ele><time>2026-04-04T13:17:30.999Z</time></trkpt><trkpt lat="45.626424754813804" lon="11.13173563096489"><ele>626.0</ele><time>2026-04-04T13:17:31.999Z</time></trkpt><trkpt lat="45.626538773871495" lon="11.131725195099543"><ele>627.5</ele><time>2026-04-04T13:17:32.999Z</time></trkpt><trkpt lat="45.62665661355157" lon="11.1316853208791"><ele>629.0</ele><time>2026-04-04T13:17:33.999Z</time></trkpt><trkpt lat="45.62677307512795" lon="11.131605860906017"><ele>629.0</ele><time>2026-04-04T13:17:34.999Z</time></trkpt><trkpt lat="45.62687503456884" lon="11.131518970656812"><ele>629.0</ele><time>2026-04-04T13:17:35.999Z</time></trkpt><trkpt lat="45.62696582648031" lon="11.131439217159203"><ele>629.0</ele><time>2026-04-04T13:17:36.999Z</time></trkpt><trkpt lat="45.62704165574362" lon="11.131365746783326"><ele>629.0</ele><time>2026-04-04T13:17:37.999Z</time></trkpt><trkpt lat="45.6271017788842" lon="11.131290193325885"><ele>629.0</ele><time>2026-04-04T13:17:38.999Z</time></trkpt><trkpt lat="45.62713191114796" lon="11.131201894345551"><ele>629.0</ele><time>2026-04-04T13:17:39.999Z</time></trkpt><trkpt lat="45.62712581616042" lon="11.131106841057946"><ele>629.0</ele><time>2026-04-04T13:17:40.999Z</time></trkpt><trkpt lat="45.62707720706523" lon="11.131017514036406"><ele>629.0</ele><time>2026-04-04T13:17:41.999Z</time></trkpt><trkpt lat="45.62698742732331" lon="11.13094941413814"><ele>629.0</ele><time>2026-04-04T13:17:42.998Z</time></trkpt><trkpt lat="45.62689461185314" lon="11.130860360531388"><ele>629.0</ele><time>2026-04-04T13:17:43.998Z</time></trkpt><trkpt lat="45.6267981847366" lon="11.130811286628889"><ele>636.5</ele><time>2026-04-04T13:17:44.998Z</time></trkpt><trkpt lat="45.62670181968701" lon="11.130722274574557"><ele>644.0</ele><time>2026-04-04T13:17:45.998Z</time></trkpt><trkpt lat="45.626598259599504" lon="11.130638128282575"><ele>651.5</ele><time>2026-04-04T13:17:46.998Z</time></trkpt><trkpt lat="45.62648744410947" lon="11.130552931305147"><ele>659.0</ele><time>2026-04-04T13:17:47.998Z</time></trkpt><trkpt lat="45.626346347204276" lon="11.130517950884023"><ele>659.0</ele><time>2026-04-04T13:17:48.998Z</time></trkpt><trkpt lat="45.62620141477704" lon="11.130493500066937"><ele>659.0</ele><time>2026-04-04T13:17:49.998Z</time></trkpt><trkpt lat="45.62606061896829" lon="11.130468863845804"><ele>659.0</ele><time>2026-04-04T13:17:50.998Z</time></trkpt><trkpt lat="45.62592724600868" lon="11.130441668176028"><ele>659.0</ele><time>2026-04-04T13:17:51.998Z</time></trkpt><trkpt lat="45.6257953733241" lon="11.130411558793359"><ele>659.0</ele><time>2026-04-04T13:17:52.998Z</time></trkpt><trkpt lat="45.62566635522336" lon="11.130377921870044"><ele>659.0</ele><time>2026-04-04T13:17:53.998Z</time></trkpt><trkpt lat="45.62554311667486" lon="11.130341826126537"><ele>659.0</ele><time>2026-04-04T13:17:54.998Z</time></trkpt><trkpt lat="45.625414171926046" lon="11.130312121922872"><ele>659.0</ele><time>2026-04-04T13:17:55.998Z</time></trkpt><trkpt lat="45.62528108830322" lon="11.13033730386424"><ele>660.0</ele><time>2026-04-04T13:17:56.998Z</time></trkpt><trkpt lat="45.625148914349744" lon="11.130399301195546"><ele>661.0</ele><time>2026-04-04T13:17:57.998Z</time></trkpt><trkpt lat="45.625021038160774" lon="11.13042410836486"><ele>662.0</ele><time>2026-04-04T13:17:58.998Z</time></trkpt><trkpt lat="45.62488966632422" lon="11.130414663137847"><ele>663.0</ele><time>2026-04-04T13:17:59.998Z</time></trkpt><trkpt lat="45.624759215874484" lon="11.130408233951197"><ele>663.0</ele><time>2026-04-04T13:18:00.998Z</time></trkpt><trkpt lat="45.624641782520065" lon="11.130421554152655"><ele>663.0</ele><time>2026-04-04T13:18:01.998Z</time></trkpt><trkpt lat="45.62453026819479" lon="11.130437775240685"><ele>663.0</ele><time>2026-04-04T13:18:02.998Z</time></trkpt><trkpt lat="45.624429944126334" lon="11.13045311380128"><ele>663.0</ele><time>2026-04-04T13:18:03.998Z</time></trkpt><trkpt lat="45.6243549809876" lon="11.130481942345924"><ele>663.0</ele><time>2026-04-04T13:18:04.998Z</time></trkpt><trkpt lat="45.62427546326357" lon="11.130459700573018"><ele>664.5999999999999</ele><time>2026-04-04T13:18:05.998Z</time></trkpt><trkpt lat="45.62418863706597" lon="11.130406909475427"><ele>666.1999999999999</ele><time>2026-04-04T13:18:06.998Z</time></trkpt><trkpt lat="45.62410340343428" lon="11.130332087818713"><ele>667.8</ele><time>2026-04-04T13:18:08Z</time></trkpt><trkpt lat="45.6240235061166" lon="11.13027267686492"><ele>669.4</ele><time>2026-04-04T13:18:09Z</time></trkpt><trkpt lat="45.62394278407674" lon="11.130224885443024"><ele>671.0</ele><time>2026-04-04T13:18:10Z</time></trkpt><trkpt lat="45.623844575327624" lon="11.130221904345976"><ele>671.0</ele><time>2026-04-04T13:18:11Z</time></trkpt><trkpt lat="45.62372012080731" lon="11.130259536216613"><ele>671.0</ele><time>2026-04-04T13:18:12Z</time></trkpt><trkpt lat="45.62360405553236" lon="11.130336439431701"><ele>671.0</ele><time>2026-04-04T13:18:13Z</time></trkpt><trkpt lat="45.62349385604366" lon="11.130408451376683"><ele>671.0</ele><time>2026-04-04T13:18:14Z</time></trkpt><trkpt lat="45.62338529124274" lon="11.130470420900101"><ele>673.0</ele><time>2026-04-04T13:18:15Z</time></trkpt><trkpt lat="45.62327897476746" lon="11.130529527661391"><ele>675.0</ele><time>2026-04-04T13:18:16Z</time></trkpt><trkpt lat="45.623181262704755" lon="11.130587268070098"><ele>677.0</ele><time>2026-04-04T13:18:17Z</time></trkpt><trkpt lat="45.62308000698512" lon="11.130651916032885"><ele>679.0</ele><time>2026-04-04T13:18:18Z</time></trkpt><trkpt lat="45.62298095983265" lon="11.130717133067591"><ele>681.0</ele><time>2026-04-04T13:18:19Z</time></trkpt><trkpt lat="45.62287809651406" lon="11.130783756728308"><ele>679.5</ele><time>2026-04-04T13:18:20Z</time></trkpt><trkpt lat="45.62275310718222" lon="11.130800786643773"><ele>678.0</ele><time>2026-04-04T13:18:21Z</time></trkpt><trkpt lat="45.6226238950496" lon="11.130818062702213"><ele>676.5</ele><time>2026-04-04T13:18:22Z</time></trkpt><trkpt lat="45.62249227352894" lon="11.130853038035356"><ele>675.0</ele><time>2026-04-04T13:18:23Z</time></trkpt><trkpt lat="45.62235463331" lon="11.130887160184422"><ele>675.0</ele><time>2026-04-04T13:18:24Z</time></trkpt><trkpt lat="45.62222032488814" lon="11.130972255488711"><ele>675.0</ele><time>2026-04-04T13:18:25Z</time></trkpt><trkpt lat="45.622092805165586" lon="11.131063396219535"><ele>675.0</ele><time>2026-04-04T13:18:26Z</time></trkpt><trkpt lat="45.62198531134771" lon="11.131189943878915"><ele>675.0</ele><time>2026-04-04T13:18:27Z</time></trkpt><trkpt lat="45.62187714947722" lon="11.131270723231426"><ele>680.0</ele><time>2026-04-04T13:18:28Z</time></trkpt><trkpt lat="45.62176617156102" lon="11.131339029599772"><ele>685.0</ele><time>2026-04-04T13:18:29Z</time></trkpt><trkpt lat="45.621657311272585" lon="11.131378729121362"><ele>690.0</ele><time>2026-04-04T13:18:30Z</time></trkpt><trkpt lat="45.621561542993184" lon="11.131389402590088"><ele>695.0</ele><time>2026-04-04T13:18:31Z</time></trkpt><trkpt lat="45.6214604308984" lon="11.131355209671788"><ele>700.0</ele><time>2026-04-04T13:18:32Z</time></trkpt><trkpt lat="45.62135433624228" lon="11.131420597496513"><ele>700.0</ele><time>2026-04-04T13:18:33Z</time></trkpt><trkpt lat="45.62126189546456" lon="11.131494459609403"><ele>700.0</ele><time>2026-04-04T13:18:34Z</time></trkpt><trkpt lat="45.62119432767308" lon="11.131588270192355"><ele>700.0</ele><time>2026-04-04T13:18:35Z</time></trkpt><trkpt lat="45.62112413659338" lon="11.131686069566221"><ele>700.0</ele><time>2026-04-04T13:18:36Z</time></trkpt><trkpt lat="45.62102621535162" lon="11.131703412266221"><ele>700.0</ele><time>2026-04-04T13:18:37Z</time></trkpt><trkpt lat="45.62091736543641" lon="11.131705198649252"><ele>698.0</ele><time>2026-04-04T13:18:38Z</time></trkpt><trkpt lat="45.620788384301804" lon="11.131723547187802"><ele>696.0</ele><time>2026-04-04T13:18:39Z</time></trkpt><trkpt lat="45.62066600227753" lon="11.131751321356102"><ele>694.0</ele><time>2026-04-04T13:18:40Z</time></trkpt><trkpt lat="45.620552617688105" lon="11.131780007651612"><ele>692.0</ele><time>2026-04-04T13:18:41Z</time></trkpt><trkpt lat="45.62045079771744" lon="11.131805768051992"><ele>692.0</ele><time>2026-04-04T13:18:42Z</time></trkpt><trkpt lat="45.62035031330608" lon="11.131834328081924"><ele>692.0</ele><time>2026-04-04T13:18:43Z</time></trkpt><trkpt lat="45.620252302696024" lon="11.131792281636967"><ele>692.0</ele><time>2026-04-04T13:18:44Z</time></trkpt><trkpt lat="45.620140256501045" lon="11.131764611812264"><ele>692.0</ele><time>2026-04-04T13:18:45Z</time></trkpt><trkpt lat="45.620017152693364" lon="11.131819909351305"><ele>692.0</ele><time>2026-04-04T13:18:46Z</time></trkpt><trkpt lat="45.619906753622594" lon="11.131890586878658"><ele>697.25</ele><time>2026-04-04T13:18:47Z</time></trkpt><trkpt lat="45.61979033177988" lon="11.131958421455135"><ele>702.5</ele><time>2026-04-04T13:18:48Z</time></trkpt><trkpt lat="45.619672974524185" lon="11.132026063049132"><ele>707.75</ele><time>2026-04-04T13:18:49Z</time></trkpt><trkpt lat="45.619559669232366" lon="11.132112131141737"><ele>713.0</ele><time>2026-04-04T13:18:50Z</time></trkpt><trkpt lat="45.61943306057548" lon="11.132172075595156"><ele>719.25</ele><time>2026-04-04T13:18:50.999Z</time></trkpt><trkpt lat="45.61929530907267" lon="11.132199210861929"><ele>725.5</ele><time>2026-04-04T13:18:51.999Z</time></trkpt><trkpt lat="45.61915941636407" lon="11.132220774073566"><ele>731.75</ele><time>2026-04-04T13:18:52.999Z</time></trkpt><trkpt lat="45.61903649700861" lon="11.132245236284934"><ele>738.0</ele><time>2026-04-04T13:18:53.999Z</time></trkpt><trkpt lat="45.61893239440663" lon="11.13226697486223"><ele>738.0</ele><time>2026-04-04T13:18:54.999Z</time></trkpt><trkpt lat="45.618841585220345" lon="11.132304396216494"><ele>738.0</ele><time>2026-04-04T13:18:55.999Z</time></trkpt><trkpt lat="45.61875146188148" lon="11.13237994520077"><ele>738.0</ele><time>2026-04-04T13:18:56.999Z</time></trkpt><trkpt lat="45.61868195046533" lon="11.13249697693693"><ele>738.0</ele><time>2026-04-04T13:18:57.999Z</time></trkpt><trkpt lat="45.61861044191278" lon="11.132618259653011"><ele>738.0</ele><time>2026-04-04T13:18:58.999Z</time></trkpt><trkpt lat="45.618545533225635" lon="11.13271654485725"><ele>735.8</ele><time>2026-04-04T13:18:59.999Z</time></trkpt><trkpt lat="45.61846352658641" lon="11.132725007048306"><ele>733.5999999999999</ele><time>2026-04-04T13:19:00.999Z</time></trkpt><trkpt lat="45.618363147924335" lon="11.132682118619396"><ele>731.4000000000001</ele><time>2026-04-04T13:19:01.999Z</time></trkpt><trkpt lat="45.6182578773517" lon="11.132619691212524"><ele>729.2</ele><time>2026-04-04T13:19:02.999Z</time></trkpt><trkpt lat="45.61814947212524" lon="11.13261415313215"><ele>727.0</ele><time>2026-04-04T13:19:03.999Z</time></trkpt><trkpt lat="45.61804092196992" lon="11.132663608485046"><ele>727.0</ele><time>2026-04-04T13:19:04.999Z</time></trkpt><trkpt lat="45.617938271450626" lon="11.132768484943321"><ele>727.0</ele><time>2026-04-04T13:19:05.999Z</time></trkpt><trkpt lat="45.61783760773732" lon="11.132893195003835"><ele>727.0</ele><time>2026-04-04T13:19:06.999Z</time></trkpt><trkpt lat="45.61773502847204" lon="11.133016201632543"><ele>727.0</ele><time>2026-04-04T13:19:07.999Z</time></trkpt><trkpt lat="45.61761715316077" lon="11.133118712870726"><ele>725.2</ele><time>2026-04-04T13:19:08.999Z</time></trkpt><trkpt lat="45.61749714773752" lon="11.133213805362175"><ele>723.4000000000001</ele><time>2026-04-04T13:19:09.999Z</time></trkpt><trkpt lat="45.61739678299505" lon="11.133298056377937"><ele>721.5999999999999</ele><time>2026-04-04T13:19:10.999Z</time></trkpt><trkpt lat="45.61731610886333" lon="11.133372201308246"><ele>719.8</ele><time>2026-04-04T13:19:11.999Z</time></trkpt><trkpt lat="45.61724145401772" lon="11.133439495147607"><ele>718.0</ele><time>2026-04-04T13:19:12.999Z</time></trkpt><trkpt lat="45.61716998663842" lon="11.133483416635368"><ele>718.0</ele><time>2026-04-04T13:19:13.999Z</time></trkpt><trkpt lat="45.617092777636536" lon="11.133509270972828"><ele>718.0</ele><time>2026-04-04T13:19:14.999Z</time></trkpt><trkpt lat="45.61699465927158" lon="11.133502981843467"><ele>718.0</ele><time>2026-04-04T13:19:15.999Z</time></trkpt><trkpt lat="45.61689060771475" lon="11.133456819225362"><ele>718.0</ele><time>2026-04-04T13:19:16.999Z</time></trkpt><trkpt lat="45.61679631280536" lon="11.13337539578028"><ele>718.0</ele><time>2026-04-04T13:19:17.999Z</time></trkpt><trkpt lat="45.61671223835386" lon="11.133258551980509"><ele>728.75</ele><time>2026-04-04T13:19:18.999Z</time></trkpt><trkpt lat="45.616625165409765" lon="11.133115896902465"><ele>739.5</ele><time>2026-04-04T13:19:19.999Z</time></trkpt><trkpt lat="45.616525310176556" lon="11.132967422395646"><ele>750.25</ele><time>2026-04-04T13:19:20.999Z</time></trkpt><trkpt lat="45.61641274218619" lon="11.132826268991424"><ele>761.0</ele><time>2026-04-04T13:19:21.999Z</time></trkpt><trkpt lat="45.61631253253908" lon="11.132674900586643"><ele>761.0</ele><time>2026-04-04T13:19:22.999Z</time></trkpt><trkpt lat="45.616208501034976" lon="11.132556749897615"><ele>761.0</ele><time>2026-04-04T13:19:23.999Z</time></trkpt><trkpt lat="45.6161326217166" lon="11.132442950542652"><ele>761.0</ele><time>2026-04-04T13:19:24.999Z</time></trkpt><trkpt lat="45.61605561089423" lon="11.132349683487691"><ele>761.0</ele><time>2026-04-04T13:19:25.999Z</time></trkpt><trkpt lat="45.61596108064703" lon="11.132282050401894"><ele>761.0</ele><time>2026-04-04T13:19:26.999Z</time></trkpt><trkpt lat="45.615850790665625" lon="11.132242451979785"><ele>766.0</ele><time>2026-04-04T13:19:27.999Z</time></trkpt><trkpt lat="45.61573080810376" lon="11.132232934093082"><ele>771.0</ele><time>2026-04-04T13:19:28.999Z</time></trkpt><trkpt lat="45.61561365125222" lon="11.132262376837565"><ele>776.0</ele><time>2026-04-04T13:19:29.999Z</time></trkpt><trkpt lat="45.61550418211713" lon="11.13232043993188"><ele>781.0</ele><time>2026-04-04T13:19:30.999Z</time></trkpt><trkpt lat="45.61539461045284" lon="11.13242075338379"><ele>778.3333333333333</ele><time>2026-04-04T13:19:31.999Z</time></trkpt><trkpt lat="45.61527883820674" lon="11.132581827063966"><ele>775.6666666666667</ele><time>2026-04-04T13:19:32.999Z</time></trkpt><trkpt lat="45.61515037436513" lon="11.13274723684249"><ele>773.0</ele><time>2026-04-04T13:19:33.999Z</time></trkpt><trkpt lat="45.61502923734956" lon="11.132946246691741"><ele>773.0</ele><time>2026-04-04T13:19:34.999Z</time></trkpt><trkpt lat="45.61492054331518" lon="11.133110636219898"><ele>773.0</ele><time>2026-04-04T13:19:35.999Z</time></trkpt><trkpt lat="45.61483784959447" lon="11.133212507731873"><ele>773.0</ele><time>2026-04-04T13:19:36.999Z</time></trkpt><trkpt lat="45.61475630651614" lon="11.133272952674492"><ele>773.0</ele><time>2026-04-04T13:19:37.999Z</time></trkpt><trkpt lat="45.61467002769501" lon="11.133322975402388"><ele>774.75</ele><time>2026-04-04T13:19:38.999Z</time></trkpt><trkpt lat="45.6145582583321" lon="11.133286263295126"><ele>776.5</ele><time>2026-04-04T13:19:39.999Z</time></trkpt><trkpt lat="45.614436140431266" lon="11.133257880823829"><ele>778.25</ele><time>2026-04-04T13:19:40.999Z</time></trkpt><trkpt lat="45.61430939996924" lon="11.133231445822437"><ele>780.0</ele><time>2026-04-04T13:19:41.999Z</time></trkpt><trkpt lat="45.61419030980917" lon="11.133203302038535"><ele>780.0</ele><time>2026-04-04T13:19:42.999Z</time></trkpt><trkpt lat="45.61408770623815" lon="11.133193634289727"><ele>780.0</ele><time>2026-04-04T13:19:43.999Z</time></trkpt><trkpt lat="45.61400327732591" lon="11.133188419711045"><ele>780.0</ele><time>2026-04-04T13:19:44.999Z</time></trkpt><trkpt lat="45.613891718192704" lon="11.133167296229901"><ele>780.0</ele><time>2026-04-04T13:19:46.999Z</time></trkpt><trkpt lat="45.613824633909665" lon="11.133131625181491"><ele>780.0</ele><time>2026-04-04T13:19:47.999Z</time></trkpt><trkpt lat="45.61376128550062" lon="11.133049921305952"><ele>780.0</ele><time>2026-04-04T13:19:48.998Z</time></trkpt><trkpt lat="45.61372168970387" lon="11.132935350729559"><ele>780.0</ele><time>2026-04-04T13:19:49.998Z</time></trkpt><trkpt lat="45.61370171046646" lon="11.132807920251448"><ele>780.0</ele><time>2026-04-04T13:19:50.998Z</time></trkpt><trkpt lat="45.613695314692954" lon="11.132654390370188"><ele>780.0</ele><time>2026-04-04T13:19:51.998Z</time></trkpt><trkpt lat="45.61369756642204" lon="11.13251528248336"><ele>780.0</ele><time>2026-04-04T13:19:52.998Z</time></trkpt><trkpt lat="45.61369645419265" lon="11.132386625103791"><ele>782.1666666666666</ele><time>2026-04-04T13:19:53.998Z</time></trkpt><trkpt lat="45.61369439768271" lon="11.132258470744993"><ele>784.3333333333333</ele><time>2026-04-04T13:19:54.998Z</time></trkpt><trkpt lat="45.61368952664094" lon="11.13214290949681"><ele>786.5</ele><time>2026-04-04T13:19:55.998Z</time></trkpt><trkpt lat="45.61368547297974" lon="11.132032391621868"><ele>788.6666666666666</ele><time>2026-04-04T13:19:56.998Z</time></trkpt><trkpt lat="45.61365605320934" lon="11.131920516778985"><ele>790.8333333333333</ele><time>2026-04-04T13:19:57.998Z</time></trkpt><trkpt lat="45.613631875918614" lon="11.131801734301499"><ele>793.0</ele><time>2026-04-04T13:19:58.998Z</time></trkpt><trkpt lat="45.613614157662475" lon="11.13167405118934"><ele>794.0</ele><time>2026-04-04T13:19:59.998Z</time></trkpt><trkpt lat="45.61362713771252" lon="11.131533494544037"><ele>795.0</ele><time>2026-04-04T13:20:00.998Z</time></trkpt><trkpt lat="45.61364739167933" lon="11.131384141490177"><ele>796.0</ele><time>2026-04-04T13:20:01.998Z</time></trkpt><trkpt lat="45.6137058130176" lon="11.1312275054618"><ele>797.0</ele><time>2026-04-04T13:20:02.998Z</time></trkpt><trkpt lat="45.61376529450509" lon="11.131093569339514"><ele>798.0</ele><time>2026-04-04T13:20:03.998Z</time></trkpt><trkpt lat="45.61381075726002" lon="11.130963302516008"><ele>798.0</ele><time>2026-04-04T13:20:04.998Z</time></trkpt><trkpt lat="45.613824362603005" lon="11.130834808132255"><ele>798.0</ele><time>2026-04-04T13:20:05.998Z</time></trkpt><trkpt lat="45.61382022243726" lon="11.130696602559066"><ele>798.0</ele><time>2026-04-04T13:20:06.998Z</time></trkpt><trkpt lat="45.6138059927385" lon="11.130558954617644"><ele>798.0</ele><time>2026-04-04T13:20:07.998Z</time></trkpt><trkpt lat="45.6137761864073" lon="11.130437426317943"><ele>798.0</ele><time>2026-04-04T13:20:08.998Z</time></trkpt><trkpt lat="45.6136884087219" lon="11.130325526201801"><ele>798.8</ele><time>2026-04-04T13:20:09.998Z</time></trkpt><trkpt lat="45.61360763133683" lon="11.130223070752493"><ele>799.5999999999999</ele><time>2026-04-04T13:20:10.998Z</time></trkpt><trkpt lat="45.6135224901237" lon="11.130143496143678"><ele>800.4000000000001</ele><time>2026-04-04T13:20:11.998Z</time></trkpt><trkpt lat="45.613438752974595" lon="11.130054165395771"><ele>801.2</ele><time>2026-04-04T13:20:12.998Z</time></trkpt><trkpt lat="45.61334108087381" lon="11.129963014764535"><ele>802.0</ele><time>2026-04-04T13:20:14Z</time></trkpt><trkpt lat="45.61325191519137" lon="11.12986703149321"><ele>802.0</ele><time>2026-04-04T13:20:15Z</time></trkpt><trkpt lat="45.613175213627144" lon="11.129769601725206"><ele>802.0</ele><time>2026-04-04T13:20:16Z</time></trkpt><trkpt lat="45.61311775580229" lon="11.129674075752332"><ele>802.0</ele><time>2026-04-04T13:20:17Z</time></trkpt><trkpt lat="45.613082494696684" lon="11.129578520148202"><ele>802.0</ele><time>2026-04-04T13:20:18Z</time></trkpt><trkpt lat="45.61307679615578" lon="11.129469661827969"><ele>802.0</ele><time>2026-04-04T13:20:19Z</time></trkpt><trkpt lat="45.61312689531884" lon="11.129315840998737"><ele>801.9999999999999</ele><time>2026-04-04T13:20:20Z</time></trkpt><trkpt lat="45.61312895678543" lon="11.129203026763294"><ele>802.0</ele><time>2026-04-04T13:20:21Z</time></trkpt><trkpt lat="45.61310115139187" lon="11.129077711165003"><ele>802.0</ele><time>2026-04-04T13:20:22Z</time></trkpt><trkpt lat="45.613046663509486" lon="11.128961441730173"><ele>802.0</ele><time>2026-04-04T13:20:23Z</time></trkpt><trkpt lat="45.61299821006489" lon="11.128849398998659"><ele>801.9999999999999</ele><time>2026-04-04T13:20:24Z</time></trkpt><trkpt lat="45.612955285423794" lon="11.128776300604445"><ele>802.0</ele><time>2026-04-04T13:20:25Z</time></trkpt><trkpt lat="45.612894495229696" lon="11.128693942776923"><ele>801.6</ele><time>2026-04-04T13:20:26Z</time></trkpt><trkpt lat="45.6128717536771" lon="11.128584410758032"><ele>801.2</ele><time>2026-04-04T13:20:27Z</time></trkpt><trkpt lat="45.612883631373194" lon="11.128477193900192"><ele>800.8</ele><time>2026-04-04T13:20:28Z</time></trkpt><trkpt lat="45.61293464823483" lon="11.128379271288358"><ele>800.4</ele><time>2026-04-04T13:20:29Z</time></trkpt><trkpt lat="45.613019148665224" lon="11.128282323378665"><ele>800.0</ele><time>2026-04-04T13:20:30Z</time></trkpt><trkpt lat="45.61308165545372" lon="11.128143903599872"><ele>800.0</ele><time>2026-04-04T13:20:31Z</time></trkpt><trkpt lat="45.61315375669925" lon="11.127968733193944"><ele>800.0</ele><time>2026-04-04T13:20:32Z</time></trkpt><trkpt lat="45.61325293134573" lon="11.127790429977383"><ele>800.0</ele><time>2026-04-04T13:20:33Z</time></trkpt><trkpt lat="45.61333292825164" lon="11.127621583987409"><ele>800.0</ele><time>2026-04-04T13:20:34Z</time></trkpt><trkpt lat="45.61339280276491" lon="11.12749466325044"><ele>800.0000000000001</ele><time>2026-04-04T13:20:35Z</time></trkpt><trkpt lat="45.613437863332834" lon="11.127395445165625"><ele>800.0</ele><time>2026-04-04T13:20:36Z</time></trkpt><trkpt lat="45.613471060716456" lon="11.127297833603915"><ele>800.0</ele><time>2026-04-04T13:20:37Z</time></trkpt><trkpt lat="45.613491587243765" lon="11.127193243876395"><ele>800.0</ele><time>2026-04-04T13:20:38Z</time></trkpt><trkpt lat="45.613495799176434" lon="11.12707904077554"><ele>800.0000000000001</ele><time>2026-04-04T13:20:39Z</time></trkpt><trkpt lat="45.61347194177359" lon="11.126975598080916"><ele>800.0</ele><time>2026-04-04T13:20:40Z</time></trkpt><trkpt lat="45.61342986097213" lon="11.126890971481707"><ele>803.4</ele><time>2026-04-04T13:20:41Z</time></trkpt><trkpt lat="45.61336986448114" lon="11.12679353472241"><ele>806.8</ele><time>2026-04-04T13:20:42Z</time></trkpt><trkpt lat="45.6132633124815" lon="11.12675678274556"><ele>810.2</ele><time>2026-04-04T13:20:43Z</time></trkpt><trkpt lat="45.613163544875384" lon="11.126708024740525"><ele>813.6</ele><time>2026-04-04T13:20:44Z</time></trkpt><trkpt lat="45.6130619705499" lon="11.126662576017782"><ele>817.0</ele><time>2026-04-04T13:20:45Z</time></trkpt><trkpt lat="45.61296585866884" lon="11.126609126574973"><ele>816.9999999999999</ele><time>2026-04-04T13:20:46Z</time></trkpt><trkpt lat="45.61287845690028" lon="11.12659891348624"><ele>817.0</ele><time>2026-04-04T13:20:47Z</time></trkpt><trkpt lat="45.61281780055782" lon="11.126565540718547"><ele>817.0</ele><time>2026-04-04T13:20:48Z</time></trkpt><trkpt lat="45.612698511178166" lon="11.126499487198439"><ele>817.0</ele><time>2026-04-04T13:20:50Z</time></trkpt><trkpt lat="45.61267078508261" lon="11.126413703178821"><ele>816.9999999999999</ele><time>2026-04-04T13:20:51Z</time></trkpt><trkpt lat="45.612682351595765" lon="11.126270852390189"><ele>817.0</ele><time>2026-04-04T13:20:52Z</time></trkpt><trkpt lat="45.61269717059964" lon="11.126119125420722"><ele>815.8</ele><time>2026-04-04T13:20:53Z</time></trkpt><trkpt lat="45.61271689851893" lon="11.125979240428965"><ele>814.6</ele><time>2026-04-04T13:20:54Z</time></trkpt><trkpt lat="45.61273021539591" lon="11.125852653549108"><ele>813.4</ele><time>2026-04-04T13:20:55Z</time></trkpt><trkpt lat="45.61272060630921" lon="11.125721443641112"><ele>812.1999999999999</ele><time>2026-04-04T13:20:55.999Z</time></trkpt><trkpt lat="45.612710110822206" lon="11.125587038702674"><ele>811.0</ele><time>2026-04-04T13:20:56.999Z</time></trkpt><trkpt lat="45.61270236757093" lon="11.125458820095988"><ele>810.9999999999999</ele><time>2026-04-04T13:20:57.999Z</time></trkpt><trkpt lat="45.61269682712304" lon="11.125334051161662"><ele>811.0</ele><time>2026-04-04T13:20:58.999Z</time></trkpt><trkpt lat="45.61270493726697" lon="11.125220250094559"><ele>811.0</ele><time>2026-04-04T13:20:59.999Z</time></trkpt><trkpt lat="45.61272037305975" lon="11.125118675015164"><ele>811.0</ele><time>2026-04-04T13:21:00.999Z</time></trkpt><trkpt lat="45.61267970105302" lon="11.12499229129759"><ele>810.9999999999999</ele><time>2026-04-04T13:21:01.999Z</time></trkpt><trkpt lat="45.6126271789322" lon="11.12486837359726"><ele>811.0</ele><time>2026-04-04T13:21:02.999Z</time></trkpt><trkpt lat="45.61256567965852" lon="11.124762728930163"><ele>815.4999999999999</ele><time>2026-04-04T13:21:03.999Z</time></trkpt><trkpt lat="45.61248297872787" lon="11.124678995283453"><ele>820.0</ele><time>2026-04-04T13:21:04.999Z</time></trkpt><trkpt lat="45.61241677980786" lon="11.124602040906343"><ele>824.5</ele><time>2026-04-04T13:21:05.999Z</time></trkpt><trkpt lat="45.61234603613075" lon="11.12453252320789"><ele>829.0</ele><time>2026-04-04T13:21:06.999Z</time></trkpt><trkpt lat="45.61229108548686" lon="11.124468034365941"><ele>833.4999999999999</ele><time>2026-04-04T13:21:07.999Z</time></trkpt><trkpt lat="45.61225360285603" lon="11.124369944501423"><ele>838.0</ele><time>2026-04-04T13:21:08.999Z</time></trkpt><trkpt lat="45.61223837833926" lon="11.124242989028486"><ele>837.9999999999999</ele><time>2026-04-04T13:21:09.999Z</time></trkpt><trkpt lat="45.612242209893154" lon="11.124116157582863"><ele>838.0</ele><time>2026-04-04T13:21:10.999Z</time></trkpt><trkpt lat="45.61225030836678" lon="11.12399398121342"><ele>838.0</ele><time>2026-04-04T13:21:11.999Z</time></trkpt><trkpt lat="45.612259726491196" lon="11.12388506258492"><ele>838.0</ele><time>2026-04-04T13:21:12.999Z</time></trkpt><trkpt lat="45.6122542695355" lon="11.123772107949922"><ele>837.9999999999999</ele><time>2026-04-04T13:21:13.999Z</time></trkpt><trkpt lat="45.612232819395274" lon="11.123653305079753"><ele>838.0</ele><time>2026-04-04T13:21:14.999Z</time></trkpt><trkpt lat="45.6122004179394" lon="11.123538961373587"><ele>834.8333333333333</ele><time>2026-04-04T13:21:15.999Z</time></trkpt><trkpt lat="45.612121342112395" lon="11.123461044412961"><ele>831.6666666666666</ele><time>2026-04-04T13:21:16.999Z</time></trkpt><trkpt lat="45.6120367514824" lon="11.12342799111275"><ele>828.5</ele><time>2026-04-04T13:21:17.999Z</time></trkpt><trkpt lat="45.6119477794933" lon="11.123411085612531"><ele>825.3333333333333</ele><time>2026-04-04T13:21:18.999Z</time></trkpt><trkpt lat="45.61186920678478" lon="11.123396850272592"><ele>822.1666666666666</ele><time>2026-04-04T13:21:19.999Z</time></trkpt><trkpt lat="45.61179851623235" lon="11.123362398913287"><ele>819.0</ele><time>2026-04-04T13:21:20.999Z</time></trkpt><trkpt lat="45.611734469354154" lon="11.123308887860476"><ele>824.8333333333334</ele><time>2026-04-04T13:21:21.999Z</time></trkpt><trkpt lat="45.611681622464246" lon="11.123230180280746"><ele>830.6666666666667</ele><time>2026-04-04T13:21:22.999Z</time></trkpt><trkpt lat="45.6116662620919" lon="11.123112418992683"><ele>836.5</ele><time>2026-04-04T13:21:23.999Z</time></trkpt><trkpt lat="45.611655468380306" lon="11.122976635708318"><ele>842.3333333333334</ele><time>2026-04-04T13:21:24.999Z</time></trkpt><trkpt lat="45.61162210555062" lon="11.12285430281382"><ele>848.1666666666667</ele><time>2026-04-04T13:21:25.999Z</time></trkpt><trkpt lat="45.61156370917403" lon="11.122735000956677"><ele>854.0</ele><time>2026-04-04T13:21:26.999Z</time></trkpt><trkpt lat="45.61149047119297" lon="11.122635453338509"><ele>854.0</ele><time>2026-04-04T13:21:27.999Z</time></trkpt><trkpt lat="45.611412179752676" lon="11.122534228724524"><ele>854.0000000000001</ele><time>2026-04-04T13:21:28.999Z</time></trkpt><trkpt lat="45.611311544787455" lon="11.122486386335522"><ele>854.0000000000001</ele><time>2026-04-04T13:21:29.999Z</time></trkpt><trkpt lat="45.61121434006181" lon="11.12242439297796"><ele>854.0</ele><time>2026-04-04T13:21:30.999Z</time></trkpt><trkpt lat="45.61112291606502" lon="11.122370158118251"><ele>854.0</ele><time>2026-04-04T13:21:31.999Z</time></trkpt><trkpt lat="45.611036845729615" lon="11.122296824114832"><ele>855.3333333333334</ele><time>2026-04-04T13:21:32.999Z</time></trkpt><trkpt lat="45.610966286620894" lon="11.122148365213057"><ele>856.6666666666667</ele><time>2026-04-04T13:21:33.999Z</time></trkpt><trkpt lat="45.610852112308706" lon="11.12196760831358"><ele>858.0</ele><time>2026-04-04T13:21:34.999Z</time></trkpt><trkpt lat="45.61071798788195" lon="11.121793759787137"><ele>858.0</ele><time>2026-04-04T13:21:35.999Z</time></trkpt><trkpt lat="45.610574730694964" lon="11.1216955791876"><ele>858.0</ele><time>2026-04-04T13:21:36.999Z</time></trkpt><trkpt lat="45.61046318084681" lon="11.121611222760231"><ele>858.0</ele><time>2026-04-04T13:21:37.999Z</time></trkpt><trkpt lat="45.61038028634158" lon="11.121553161971512"><ele>858.0</ele><time>2026-04-04T13:21:38.999Z</time></trkpt><trkpt lat="45.61033063970629" lon="11.1214724387789"><ele>859.75</ele><time>2026-04-04T13:21:39.999Z</time></trkpt><trkpt lat="45.610307960821444" lon="11.121323235153419"><ele>861.5</ele><time>2026-04-04T13:21:40.999Z</time></trkpt><trkpt lat="45.610258311643264" lon="11.121118984421658"><ele>863.25</ele><time>2026-04-04T13:21:41.999Z</time></trkpt><trkpt lat="45.610218754723476" lon="11.120869065498647"><ele>865.0</ele><time>2026-04-04T13:21:42.999Z</time></trkpt><trkpt lat="45.61018931063881" lon="11.120624691612175"><ele>865.0</ele><time>2026-04-04T13:21:43.999Z</time></trkpt><trkpt lat="45.6101708355838" lon="11.120437492869915"><ele>865.0</ele><time>2026-04-04T13:21:44.999Z</time></trkpt><trkpt lat="45.610153155845616" lon="11.120289629800867"><ele>865.0</ele><time>2026-04-04T13:21:45.999Z</time></trkpt><trkpt lat="45.61012611685124" lon="11.120174281615151"><ele>865.0</ele><time>2026-04-04T13:21:46.999Z</time></trkpt><trkpt lat="45.610064207207685" lon="11.120054966158067"><ele>865.0</ele><time>2026-04-04T13:21:47.999Z</time></trkpt><trkpt lat="45.609976940024154" lon="11.119933408963353"><ele>873.75</ele><time>2026-04-04T13:21:48.999Z</time></trkpt><trkpt lat="45.60987711159499" lon="11.119834184678952"><ele>882.5</ele><time>2026-04-04T13:21:49.999Z</time></trkpt><trkpt lat="45.6097597931444" lon="11.119761075138294"><ele>891.25</ele><time>2026-04-04T13:21:50.999Z</time></trkpt><trkpt lat="45.60962777399886" lon="11.119684304189077"><ele>900.0</ele><time>2026-04-04T13:21:51.999Z</time></trkpt><trkpt lat="45.60949827760303" lon="11.119606271134726"><ele>892.2</ele><time>2026-04-04T13:21:52.999Z</time></trkpt><trkpt lat="45.609379222518065" lon="11.119515030348412"><ele>884.4</ele><time>2026-04-04T13:21:53.999Z</time></trkpt><trkpt lat="45.60927895616187" lon="11.119437489291883"><ele>876.5999999999999</ele><time>2026-04-04T13:21:54.999Z</time></trkpt><trkpt lat="45.609201206270605" lon="11.119356076680983"><ele>868.8</ele><time>2026-04-04T13:21:55.998Z</time></trkpt><trkpt lat="45.60916183531652" lon="11.119237120061516"><ele>861.0</ele><time>2026-04-04T13:21:56.998Z</time></trkpt><trkpt lat="45.6091410479177" lon="11.119125913261259"><ele>864.5</ele><time>2026-04-04T13:21:57.998Z</time></trkpt><trkpt lat="45.60916009942835" lon="11.11895888097723"><ele>868.0</ele><time>2026-04-04T13:21:58.998Z</time></trkpt><trkpt lat="45.60920921282772" lon="11.11876937143436"><ele>871.5</ele><time>2026-04-04T13:21:59.998Z</time></trkpt><trkpt lat="45.60926194812416" lon="11.118611519504858"><ele>875.0</ele><time>2026-04-04T13:22:00.998Z</time></trkpt><trkpt lat="45.609285498355064" lon="11.118449593961003"><ele>875.0</ele><time>2026-04-04T13:22:01.998Z</time></trkpt><trkpt lat="45.60928981029852" lon="11.118291928612424"><ele>875.0</ele><time>2026-04-04T13:22:02.998Z</time></trkpt><trkpt lat="45.60927956534274" lon="11.118147775013078"><ele>875.0</ele><time>2026-04-04T13:22:03.998Z</time></trkpt><trkpt lat="45.60926656489227" lon="11.118034152567425"><ele>875.0</ele><time>2026-04-04T13:22:04.998Z</time></trkpt><trkpt lat="45.6092564836941" lon="11.117880655524655"><ele>875.0</ele><time>2026-04-04T13:22:06.998Z</time></trkpt><trkpt lat="45.60930187779526" lon="11.117814419345398"><ele>875.0</ele><time>2026-04-04T13:22:08.998Z</time></trkpt><trkpt lat="45.60938457564171" lon="11.117893184025908"><ele>875.0</ele><time>2026-04-04T13:22:09.998Z</time></trkpt><trkpt lat="45.609347548287" lon="11.118079919153946"><ele>875.0</ele><time>2026-04-04T13:22:10.998Z</time></trkpt><trkpt lat="45.60934565021117" lon="11.118273358781279"><ele>875.0</ele><time>2026-04-04T13:22:11.998Z</time></trkpt><trkpt lat="45.60934167489272" lon="11.118468795760556"><ele>875.0000000000001</ele><time>2026-04-04T13:22:12.998Z</time></trkpt><trkpt lat="45.609336849713195" lon="11.118637837071038"><ele>875.0</ele><time>2026-04-04T13:22:13.998Z</time></trkpt><trkpt lat="45.60932030547268" lon="11.118767822996638"><ele>875.0</ele><time>2026-04-04T13:22:14.998Z</time></trkpt><trkpt lat="45.609307876669604" lon="11.118857586314821"><ele>875.0</ele><time>2026-04-04T13:22:15.998Z</time></trkpt><trkpt lat="45.6093429870377" lon="11.1189778637486"><ele>875.0000000000001</ele><time>2026-04-04T13:22:17.998Z</time></trkpt><trkpt lat="45.609424668054714" lon="11.118979883724624"><ele>875.0</ele><time>2026-04-04T13:22:18.998Z</time></trkpt><trkpt lat="45.6094869260223" lon="11.11886418350606"><ele>881.75</ele><time>2026-04-04T13:22:20Z</time></trkpt><trkpt lat="45.609497379155414" lon="11.11867440160477"><ele>888.5</ele><time>2026-04-04T13:22:21Z</time></trkpt><trkpt lat="45.609494170733484" lon="11.118453090170819"><ele>895.25</ele><time>2026-04-04T13:22:22Z</time></trkpt><trkpt lat="45.609502188945214" lon="11.11822779234545"><ele>902.0</ele><time>2026-04-04T13:22:23Z</time></trkpt><trkpt lat="45.609498364442345" lon="11.118067101593537"><ele>902.0</ele><time>2026-04-04T13:22:24Z</time></trkpt><trkpt lat="45.60950430846515" lon="11.117898809504394"><ele>902.0</ele><time>2026-04-04T13:22:25Z</time></trkpt><trkpt lat="45.609533835790245" lon="11.1177607294632"><ele>902.0</ele><time>2026-04-04T13:22:26Z</time></trkpt><trkpt lat="45.60960071046342" lon="11.117630685372767"><ele>902.0</ele><time>2026-04-04T13:22:27Z</time></trkpt><trkpt lat="45.60970337522464" lon="11.117516496086624"><ele>902.0</ele><time>2026-04-04T13:22:28Z</time></trkpt><trkpt lat="45.60984821713017" lon="11.117440687201404"><ele>902.0</ele><time>2026-04-04T13:22:29Z</time></trkpt><trkpt lat="45.60998868101145" lon="11.117321512854428"><ele>902.0</ele><time>2026-04-04T13:22:30Z</time></trkpt><trkpt lat="45.61011411173586" lon="11.117261300930236"><ele>902.4000000000001</ele><time>2026-04-04T13:22:31Z</time></trkpt><trkpt lat="45.61020774940579" lon="11.11717017466518"><ele>902.8000000000001</ele><time>2026-04-04T13:22:32Z</time></trkpt><trkpt lat="45.61028525466796" lon="11.117072380999893"><ele>903.2</ele><time>2026-04-04T13:22:33Z</time></trkpt><trkpt lat="45.61035038755527" lon="11.116979256635732"><ele>903.6</ele><time>2026-04-04T13:22:34Z</time></trkpt><trkpt lat="45.61042001251637" lon="11.116917492804085"><ele>904.0</ele><time>2026-04-04T13:22:35Z</time></trkpt><trkpt lat="45.61050733344421" lon="11.11690912779088"><ele>904.0</ele><time>2026-04-04T13:22:36Z</time></trkpt><trkpt lat="45.61062795497649" lon="11.116914497631557"><ele>904.0</ele><time>2026-04-04T13:22:37Z</time></trkpt><trkpt lat="45.6107602219837" lon="11.11693053752314"><ele>904.0</ele><time>2026-04-04T13:22:38Z</time></trkpt><trkpt lat="45.61089760999336" lon="11.116943039507747"><ele>904.0</ele><time>2026-04-04T13:22:39Z</time></trkpt><trkpt lat="45.61104168303556" lon="11.116951113747291"><ele>903.3333333333333</ele><time>2026-04-04T13:22:40Z</time></trkpt><trkpt lat="45.61119512387556" lon="11.1169356938099"><ele>902.6666666666667</ele><time>2026-04-04T13:22:41Z</time></trkpt><trkpt lat="45.61134514403007" lon="11.116935031198839"><ele>902.0</ele><time>2026-04-04T13:22:42Z</time></trkpt><trkpt lat="45.61149214295788" lon="11.116923681341701"><ele>902.0</ele><time>2026-04-04T13:22:43Z</time></trkpt><trkpt lat="45.61163743744489" lon="11.116892172785011"><ele>902.0</ele><time>2026-04-04T13:22:44Z</time></trkpt><trkpt lat="45.61178755687203" lon="11.116837361335742"><ele>902.0</ele><time>2026-04-04T13:22:45Z</time></trkpt><trkpt lat="45.611933411155526" lon="11.11675463551647"><ele>902.3333333333334</ele><time>2026-04-04T13:22:46Z</time></trkpt><trkpt lat="45.612082814131895" lon="11.116653036799105"><ele>902.6666666666667</ele><time>2026-04-04T13:22:47Z</time></trkpt><trkpt lat="45.61222932453991" lon="11.116547795257368"><ele>903.0</ele><time>2026-04-04T13:22:48Z</time></trkpt><trkpt lat="45.61236565897397" lon="11.116452462862457"><ele>904.3333333333333</ele><time>2026-04-04T13:22:49Z</time></trkpt><trkpt lat="45.6125051826682" lon="11.116359871584715"><ele>905.6666666666666</ele><time>2026-04-04T13:22:50Z</time></trkpt><trkpt lat="45.612642842525865" lon="11.116269975675241"><ele>907.0</ele><time>2026-04-04T13:22:51Z</time></trkpt><trkpt lat="45.61277988330444" lon="11.116182672928646"><ele>907.5</ele><time>2026-04-04T13:22:52Z</time></trkpt><trkpt lat="45.612911947808065" lon="11.116093811291764"><ele>908.0</ele><time>2026-04-04T13:22:53Z</time></trkpt><trkpt lat="45.6130383755091" lon="11.116002391363546"><ele>908.5</ele><time>2026-04-04T13:22:54Z</time></trkpt><trkpt lat="45.613159882187965" lon="11.115892655381913"><ele>909.0</ele><time>2026-04-04T13:22:55Z</time></trkpt><trkpt lat="45.61327226216856" lon="11.115734409688224"><ele>912.3333333333333</ele><time>2026-04-04T13:22:56Z</time></trkpt><trkpt lat="45.61337270077163" lon="11.115555627602767"><ele>915.6666666666666</ele><time>2026-04-04T13:22:57Z</time></trkpt><trkpt lat="45.613463245390165" lon="11.115378053206026"><ele>919.0</ele><time>2026-04-04T13:22:58Z</time></trkpt><trkpt lat="45.613551286028134" lon="11.115211320752538"><ele>919.0</ele><time>2026-04-04T13:22:59Z</time></trkpt><trkpt lat="45.61364828403765" lon="11.11507903309366"><ele>919.0</ele><time>2026-04-04T13:23:00Z</time></trkpt><trkpt lat="45.61375907435555" lon="11.114970725089409"><ele>919.0</ele><time>2026-04-04T13:23:00.999Z</time></trkpt><trkpt lat="45.613895706156235" lon="11.114879703922908"><ele>919.0</ele><time>2026-04-04T13:23:01.999Z</time></trkpt><trkpt lat="45.61405584688675" lon="11.114823060351451"><ele>920.3333333333333</ele><time>2026-04-04T13:23:02.999Z</time></trkpt><trkpt lat="45.614219951050416" lon="11.114778476561908"><ele>921.6666666666667</ele><time>2026-04-04T13:23:03.999Z</time></trkpt><trkpt lat="45.61437562299805" lon="11.114745624975324"><ele>923.0</ele><time>2026-04-04T13:23:04.999Z</time></trkpt><trkpt lat="45.614509861599956" lon="11.114715949277466"><ele>921.0</ele><time>2026-04-04T13:23:05.999Z</time></trkpt><trkpt lat="45.61463321466616" lon="11.114687409721851"><ele>919.0</ele><time>2026-04-04T13:23:06.999Z</time></trkpt><trkpt lat="45.61475772495435" lon="11.114655840369224"><ele>917.0</ele><time>2026-04-04T13:23:07.999Z</time></trkpt><trkpt lat="45.614886822834556" lon="11.114617388242596"><ele>915.0</ele><time>2026-04-04T13:23:08.999Z</time></trkpt><trkpt lat="45.61500889816974" lon="11.114538275689918"><ele>915.0</ele><time>2026-04-04T13:23:09.999Z</time></trkpt><trkpt lat="45.61513256312128" lon="11.11439670565637"><ele>915.0</ele><time>2026-04-04T13:23:10.999Z</time></trkpt><trkpt lat="45.615255134242105" lon="11.1142266322275"><ele>915.0</ele><time>2026-04-04T13:23:11.999Z</time></trkpt><trkpt lat="45.61538057747339" lon="11.114055166058565"><ele>917.0</ele><time>2026-04-04T13:23:12.999Z</time></trkpt><trkpt lat="45.61551845947483" lon="11.11387816405484"><ele>919.0</ele><time>2026-04-04T13:23:13.999Z</time></trkpt><trkpt lat="45.615652921690376" lon="11.113706952256734"><ele>921.0</ele><time>2026-04-04T13:23:14.999Z</time></trkpt><trkpt lat="45.61578422525536" lon="11.113540125316005"><ele>921.0</ele><time>2026-04-04T13:23:15.999Z</time></trkpt><trkpt lat="45.615906176055525" lon="11.113386684494627"><ele>921.0</ele><time>2026-04-04T13:23:16.999Z</time></trkpt><trkpt lat="45.61603615746839" lon="11.11325601662013"><ele>921.0</ele><time>2026-04-04T13:23:17.999Z</time></trkpt><trkpt lat="45.61617228235588" lon="11.113157873741319"><ele>922.5</ele><time>2026-04-04T13:23:18.999Z</time></trkpt><trkpt lat="45.61630144508874" lon="11.11308939642256"><ele>924.0</ele><time>2026-04-04T13:23:19.999Z</time></trkpt><trkpt lat="45.61641423692473" lon="11.113032704351218"><ele>925.5</ele><time>2026-04-04T13:23:20.999Z</time></trkpt><trkpt lat="45.61650918001748" lon="11.112971440528456"><ele>927.0</ele><time>2026-04-04T13:23:21.999Z</time></trkpt><trkpt lat="45.61658602500974" lon="11.112902492693124"><ele>927.0</ele><time>2026-04-04T13:23:22.999Z</time></trkpt><trkpt lat="45.616638013831654" lon="11.112758994867365"><ele>927.0</ele><time>2026-04-04T13:23:23.999Z</time></trkpt><trkpt lat="45.616647538424" lon="11.112586205204266"><ele>927.0</ele><time>2026-04-04T13:23:24.999Z</time></trkpt><trkpt lat="45.616594370393024" lon="11.112440559411159"><ele>927.0</ele><time>2026-04-04T13:23:25.999Z</time></trkpt><trkpt lat="45.61654627378814" lon="11.112339474792003"><ele>927.0</ele><time>2026-04-04T13:23:26.999Z</time></trkpt><trkpt lat="45.61643768749637" lon="11.112279796728386"><ele>929.6666666666667</ele><time>2026-04-04T13:23:27.999Z</time></trkpt><trkpt lat="45.61629326403783" lon="11.112253739846178"><ele>932.3333333333334</ele><time>2026-04-04T13:23:28.999Z</time></trkpt><trkpt lat="45.61613181916844" lon="11.112204606809055"><ele>935.0</ele><time>2026-04-04T13:23:29.999Z</time></trkpt><trkpt lat="45.615985416923785" lon="11.112155159906415"><ele>935.4</ele><time>2026-04-04T13:23:30.999Z</time></trkpt><trkpt lat="45.615879323341176" lon="11.112116062182919"><ele>935.8</ele><time>2026-04-04T13:23:31.999Z</time></trkpt><trkpt lat="45.615808615556446" lon="11.112071578097405"><ele>936.2</ele><time>2026-04-04T13:23:32.999Z</time></trkpt><trkpt lat="45.61574100571537" lon="11.112005418372934"><ele>936.6</ele><time>2026-04-04T13:23:33.999Z</time></trkpt><trkpt lat="45.615727414572916" lon="11.111858388888285"><ele>937.0</ele><time>2026-04-04T13:23:34.999Z</time></trkpt><trkpt lat="45.61575868291059" lon="11.11170512214539"><ele>937.0</ele><time>2026-04-04T13:23:35.999Z</time></trkpt><trkpt lat="45.6158648667864" lon="11.111588547145617"><ele>937.0</ele><time>2026-04-04T13:23:36.999Z</time></trkpt><trkpt lat="45.615996340080095" lon="11.111509906452104"><ele>937.0</ele><time>2026-04-04T13:23:37.999Z</time></trkpt><trkpt lat="45.616154208940024" lon="11.111421231049611"><ele>937.0</ele><time>2026-04-04T13:23:38.999Z</time></trkpt><trkpt lat="45.61630388502754" lon="11.111313775754404"><ele>938.75</ele><time>2026-04-04T13:23:39.999Z</time></trkpt><trkpt lat="45.616445015808544" lon="11.111218052385047"><ele>940.5</ele><time>2026-04-04T13:23:40.999Z</time></trkpt><trkpt lat="45.616574191781204" lon="11.111139138738844"><ele>942.25</ele><time>2026-04-04T13:23:41.999Z</time></trkpt><trkpt lat="45.616678613954996" lon="11.111067510538751"><ele>944.0</ele><time>2026-04-04T13:23:42.999Z</time></trkpt><trkpt lat="45.61675192592999" lon="11.11098527438419"><ele>944.0</ele><time>2026-04-04T13:23:43.999Z</time></trkpt><trkpt lat="45.616794994021106" lon="11.110879895859282"><ele>944.0000000000001</ele><time>2026-04-04T13:23:44.999Z</time></trkpt><trkpt lat="45.616805731574644" lon="11.110752528935384"><ele>944.0000000000001</ele><time>2026-04-04T13:23:45.999Z</time></trkpt><trkpt lat="45.61677048336158" lon="11.110617899882426"><ele>944.0</ele><time>2026-04-04T13:23:46.999Z</time></trkpt><trkpt lat="45.61668658703754" lon="11.11048349517423"><ele>944.0</ele><time>2026-04-04T13:23:47.999Z</time></trkpt><trkpt lat="45.61656257335943" lon="11.110358544892298"><ele>948.0</ele><time>2026-04-04T13:23:48.999Z</time></trkpt><trkpt lat="45.61641238780695" lon="11.110231582424932"><ele>952.0</ele><time>2026-04-04T13:23:49.999Z</time></trkpt><trkpt lat="45.61624693400989" lon="11.11008894765615"><ele>956.0</ele><time>2026-04-04T13:23:50.999Z</time></trkpt><trkpt lat="45.61607776869971" lon="11.10992711426831"><ele>960.0</ele><time>2026-04-04T13:23:51.999Z</time></trkpt><trkpt lat="45.61591495109061" lon="11.109769309678557"><ele>964.0</ele><time>2026-04-04T13:23:52.999Z</time></trkpt><trkpt lat="45.615755203576896" lon="11.109627357751394"><ele>968.0</ele><time>2026-04-04T13:23:53.999Z</time></trkpt><trkpt lat="45.6156181063097" lon="11.10950676366655"><ele>968.0</ele><time>2026-04-04T13:23:54.999Z</time></trkpt><trkpt lat="45.615499617027446" lon="11.10940121100816"><ele>968.0</ele><time>2026-04-04T13:23:55.999Z</time></trkpt><trkpt lat="45.61537851741076" lon="11.109297075703031"><ele>968.0</ele><time>2026-04-04T13:23:56.999Z</time></trkpt><trkpt lat="45.615258613923004" lon="11.109200329100426"><ele>968.0</ele><time>2026-04-04T13:23:57.999Z</time></trkpt><trkpt lat="45.61515376911915" lon="11.109107568911877"><ele>968.0</ele><time>2026-04-04T13:23:58.998Z</time></trkpt><trkpt lat="45.615055901844215" lon="11.108989317245483"><ele>968.0</ele><time>2026-04-04T13:23:59.998Z</time></trkpt><trkpt lat="45.61496826697301" lon="11.108850723182984"><ele>968.0</ele><time>2026-04-04T13:24:00.998Z</time></trkpt><trkpt lat="45.61488398954934" lon="11.108712135760497"><ele>968.0</ele><time>2026-04-04T13:24:01.998Z</time></trkpt><trkpt lat="45.61481308932114" lon="11.108589184263066"><ele>968.0</ele><time>2026-04-04T13:24:02.998Z</time></trkpt><trkpt lat="45.61474194114338" lon="11.108467504102132"><ele>968.0</ele><time>2026-04-04T13:24:03.998Z</time></trkpt><trkpt lat="45.61467874380162" lon="11.108354514384153"><ele>968.0</ele><time>2026-04-04T13:24:04.998Z</time></trkpt><trkpt lat="45.61461743070042" lon="11.108249600913906"><ele>968.0</ele><time>2026-04-04T13:24:05.998Z</time></trkpt><trkpt lat="45.61454410283638" lon="11.108161619375954"><ele>968.0</ele><time>2026-04-04T13:24:06.998Z</time></trkpt><trkpt lat="45.61447380968179" lon="11.108089849279217"><ele>968.0</ele><time>2026-04-04T13:24:07.998Z</time></trkpt><trkpt lat="45.61435350381571" lon="11.108139489423081"><ele>968.0</ele><time>2026-04-04T13:24:08.998Z</time></trkpt><trkpt lat="45.6142576134963" lon="11.108184077379219"><ele>968.0</ele><time>2026-04-04T13:24:09.998Z</time></trkpt><trkpt lat="45.614156194515836" lon="11.108204358016904"><ele>968.0</ele><time>2026-04-04T13:24:10.998Z</time></trkpt><trkpt lat="45.614057276996185" lon="11.108236148806874"><ele>968.0</ele><time>2026-04-04T13:24:11.998Z</time></trkpt><trkpt lat="45.61396175490179" lon="11.108255868146754"><ele>971.75</ele><time>2026-04-04T13:24:12.998Z</time></trkpt><trkpt lat="45.61386270146949" lon="11.108207882617775"><ele>975.5</ele><time>2026-04-04T13:24:13.998Z</time></trkpt><trkpt lat="45.61375452349188" lon="11.10816414173453"><ele>979.25</ele><time>2026-04-04T13:24:14.998Z</time></trkpt><trkpt lat="45.613640806303565" lon="11.108111322405192"><ele>983.0</ele><time>2026-04-04T13:24:15.998Z</time></trkpt><trkpt lat="45.61351326968083" lon="11.108051543114147"><ele>983.5</ele><time>2026-04-04T13:24:16.998Z</time></trkpt><trkpt lat="45.613379771761274" lon="11.107989305884967"><ele>984.0</ele><time>2026-04-04T13:24:17.998Z</time></trkpt><trkpt lat="45.61323493807727" lon="11.107942323499124"><ele>984.5</ele><time>2026-04-04T13:24:18.998Z</time></trkpt><trkpt lat="45.61309513186343" lon="11.10787631933912"><ele>985.0</ele><time>2026-04-04T13:24:19.998Z</time></trkpt><trkpt lat="45.612964080905435" lon="11.107817928475205"><ele>985.0</ele><time>2026-04-04T13:24:20.998Z</time></trkpt><trkpt lat="45.612838783201134" lon="11.107755235453311"><ele>985.0</ele><time>2026-04-04T13:24:21.998Z</time></trkpt><trkpt lat="45.612717881987216" lon="11.107681602656301"><ele>985.0</ele><time>2026-04-04T13:24:22.998Z</time></trkpt><trkpt lat="45.61260476911567" lon="11.107589320827108"><ele>985.0</ele><time>2026-04-04T13:24:23.998Z</time></trkpt><trkpt lat="45.612491081453484" lon="11.107487641227667"><ele>993.3333333333333</ele><time>2026-04-04T13:24:24.998Z</time></trkpt><trkpt lat="45.61236092061029" lon="11.107396150181213"><ele>1001.6666666666667</ele><time>2026-04-04T13:24:26Z</time></trkpt><trkpt lat="45.61221543025601" lon="11.107327217510715"><ele>1010.0</ele><time>2026-04-04T13:24:27Z</time></trkpt><trkpt lat="45.61206137779478" lon="11.10728392006379"><ele>1009.75</ele><time>2026-04-04T13:24:28Z</time></trkpt><trkpt lat="45.6119058141812" lon="11.107255348345857"><ele>1009.5</ele><time>2026-04-04T13:24:29Z</time></trkpt><trkpt lat="45.61176494667447" lon="11.107229544622818"><ele>1009.25</ele><time>2026-04-04T13:24:30Z</time></trkpt><trkpt lat="45.611635525463754" lon="11.107206823985576"><ele>1009.0</ele><time>2026-04-04T13:24:31Z</time></trkpt><trkpt lat="45.61151824971146" lon="11.107181796945026"><ele>1009.0</ele><time>2026-04-04T13:24:32Z</time></trkpt><trkpt lat="45.61139844062908" lon="11.107221780381074"><ele>1009.0</ele><time>2026-04-04T13:24:33Z</time></trkpt><trkpt lat="45.611298164371384" lon="11.107354879595603"><ele>1009.0</ele><time>2026-04-04T13:24:34Z</time></trkpt><trkpt lat="45.611231632829345" lon="11.107460928776444"><ele>1009.0</ele><time>2026-04-04T13:24:35Z</time></trkpt><trkpt lat="45.61114511903198" lon="11.107544296128637"><ele>1007.5</ele><time>2026-04-04T13:24:36Z</time></trkpt><trkpt lat="45.61103203476812" lon="11.1075881154954"><ele>1006.0</ele><time>2026-04-04T13:24:37Z</time></trkpt><trkpt lat="45.610912574939526" lon="11.107618702400533"><ele>1004.5</ele><time>2026-04-04T13:24:38Z</time></trkpt><trkpt lat="45.61078441642481" lon="11.107618087867248"><ele>1003.0</ele><time>2026-04-04T13:24:39Z</time></trkpt><trkpt lat="45.610653137099206" lon="11.107639994114212"><ele>1003.0</ele><time>2026-04-04T13:24:40Z</time></trkpt><trkpt lat="45.610524431748665" lon="11.107709522655727"><ele>1003.0</ele><time>2026-04-04T13:24:41Z</time></trkpt><trkpt lat="45.610403112310955" lon="11.107807874647762"><ele>1003.0</ele><time>2026-04-04T13:24:42Z</time></trkpt><trkpt lat="45.61031639383667" lon="11.107907478638001"><ele>1003.0</ele><time>2026-04-04T13:24:43Z</time></trkpt><trkpt lat="45.61024099689162" lon="11.107981441755971"><ele>1005.75</ele><time>2026-04-04T13:24:44Z</time></trkpt><trkpt lat="45.61015452859113" lon="11.10801363385702"><ele>1008.5</ele><time>2026-04-04T13:24:45Z</time></trkpt><trkpt lat="45.610048478004394" lon="11.108025403609792"><ele>1011.25</ele><time>2026-04-04T13:24:46Z</time></trkpt><trkpt lat="45.60992301754872" lon="11.107959209306712"><ele>1014.0</ele><time>2026-04-04T13:24:47Z</time></trkpt><trkpt lat="45.60978544205646" lon="11.107871098970058"><ele>1014.0</ele><time>2026-04-04T13:24:48Z</time></trkpt><trkpt lat="45.609640909219394" lon="11.107794421355226"><ele>1014.0</ele><time>2026-04-04T13:24:49Z</time></trkpt><trkpt lat="45.60948846643998" lon="11.107726573802035"><ele>1014.0</ele><time>2026-04-04T13:24:50Z</time></trkpt><trkpt lat="45.609347751734234" lon="11.10767062833461"><ele>1013.8000000000001</ele><time>2026-04-04T13:24:51Z</time></trkpt><trkpt lat="45.60923657378593" lon="11.107595519943267"><ele>1013.6000000000001</ele><time>2026-04-04T13:24:52Z</time></trkpt><trkpt lat="45.60912562439044" lon="11.107566246421888"><ele>1013.4</ele><time>2026-04-04T13:24:53Z</time></trkpt><trkpt lat="45.6090353683668" lon="11.10749605895535"><ele>1013.2</ele><time>2026-04-04T13:24:54Z</time></trkpt><trkpt lat="45.60895543950847" lon="11.107395751870705"><ele>1013.0</ele><time>2026-04-04T13:24:55Z</time></trkpt><trkpt lat="45.608889344571466" lon="11.107271527850582"><ele>1014.8</ele><time>2026-04-04T13:24:56Z</time></trkpt><trkpt lat="45.608831716061054" lon="11.107126558759306"><ele>1016.5999999999999</ele><time>2026-04-04T13:24:57Z</time></trkpt><trkpt lat="45.608795292406626" lon="11.106969487479338"><ele>1018.4000000000001</ele><time>2026-04-04T13:24:58Z</time></trkpt><trkpt lat="45.60879581632432" lon="11.106813420364826"><ele>1020.2</ele><time>2026-04-04T13:24:59Z</time></trkpt><trkpt lat="45.60882993421514" lon="11.10668132940199"><ele>1022.0</ele><time>2026-04-04T13:25:00Z</time></trkpt><trkpt lat="45.6088981722019" lon="11.106549735751067"><ele>1022.25</ele><time>2026-04-04T13:25:01Z</time></trkpt><trkpt lat="45.60898994769536" lon="11.106441321661933"><ele>1022.5</ele><time>2026-04-04T13:25:02Z</time></trkpt><trkpt lat="45.60909998166486" lon="11.10635339399854"><ele>1022.75</ele><time>2026-04-04T13:25:03Z</time></trkpt><trkpt lat="45.609190829203044" lon="11.106263504137571"><ele>1023.0</ele><time>2026-04-04T13:25:04Z</time></trkpt><trkpt lat="45.609243964951645" lon="11.106148408617434"><ele>1023.0</ele><time>2026-04-04T13:25:05Z</time></trkpt><trkpt lat="45.6092616927307" lon="11.106017692024796"><ele>1023.0</ele><time>2026-04-04T13:25:05.999Z</time></trkpt><trkpt lat="45.609246039970635" lon="11.105878798775413"><ele>1023.0</ele><time>2026-04-04T13:25:06.999Z</time></trkpt><trkpt lat="45.60920089773126" lon="11.105758514735419"><ele>1023.0</ele><time>2026-04-04T13:25:07.999Z</time></trkpt><trkpt lat="45.60915860291715" lon="11.105690055026912"><ele>1023.0</ele><time>2026-04-04T13:25:08.999Z</time></trkpt><trkpt lat="45.60910278703377" lon="11.105595012674371"><ele>1023.0</ele><time>2026-04-04T13:25:10.999Z</time></trkpt><trkpt lat="45.60912969754207" lon="11.105489637517024"><ele>1023.0</ele><time>2026-04-04T13:25:12.999Z</time></trkpt><trkpt lat="45.60923490213607" lon="11.105540923345679"><ele>1023.0</ele><time>2026-04-04T13:25:14.999Z</time></trkpt><trkpt lat="45.609250168324344" lon="11.105702120909573"><ele>1023.0</ele><time>2026-04-04T13:25:15.999Z</time></trkpt><trkpt lat="45.60931720551529" lon="11.10584387349906"><ele>1023.0</ele><time>2026-04-04T13:25:16.999Z</time></trkpt><trkpt lat="45.6093985588349" lon="11.105993546162821"><ele>1023.0</ele><time>2026-04-04T13:25:17.999Z</time></trkpt><trkpt lat="45.609464090732516" lon="11.106111685076282"><ele>1023.0</ele><time>2026-04-04T13:25:18.999Z</time></trkpt><trkpt lat="45.60951299748956" lon="11.10620980116161"><ele>1023.0</ele><time>2026-04-04T13:25:19.999Z</time></trkpt><trkpt lat="45.609577788748695" lon="11.106273791979046"><ele>1023.0</ele><time>2026-04-04T13:25:20.999Z</time></trkpt><trkpt lat="45.60967842862905" lon="11.10629766171319"><ele>1023.0</ele><time>2026-04-04T13:25:22.999Z</time></trkpt><trkpt lat="45.609734279690606" lon="11.106158965682601"><ele>1025.25</ele><time>2026-04-04T13:25:24.999Z</time></trkpt><trkpt lat="45.60960159754155" lon="11.105989509027534"><ele>1027.5</ele><time>2026-04-04T13:25:25.999Z</time></trkpt><trkpt lat="45.609503784933686" lon="11.105867309127264"><ele>1029.75</ele><time>2026-04-04T13:25:26.999Z</time></trkpt><trkpt lat="45.609438253876796" lon="11.1056888372609"><ele>1032.0</ele><time>2026-04-04T13:25:27.999Z</time></trkpt><trkpt lat="45.60938209674284" lon="11.105468813113397"><ele>1032.0</ele><time>2026-04-04T13:25:28.999Z</time></trkpt><trkpt lat="45.60933371873321" lon="11.105235298376288"><ele>1032.0</ele><time>2026-04-04T13:25:29.999Z</time></trkpt><trkpt lat="45.60929737697693" lon="11.104998028835581"><ele>1032.0</ele><time>2026-04-04T13:25:30.999Z</time></trkpt><trkpt lat="45.6092669108029" lon="11.10478664309716"><ele>1035.75</ele><time>2026-04-04T13:25:31.999Z</time></trkpt><trkpt lat="45.60923588398131" lon="11.10461147649982"><ele>1039.5</ele><time>2026-04-04T13:25:32.999Z</time></trkpt><trkpt lat="45.60920442636467" lon="11.104457816469045"><ele>1043.25</ele><time>2026-04-04T13:25:33.999Z</time></trkpt><trkpt lat="45.60915696767372" lon="11.104315046270022"><ele>1047.0</ele><time>2026-04-04T13:25:34.999Z</time></trkpt><trkpt lat="45.60908537263587" lon="11.104189482548742"><ele>1047.0</ele><time>2026-04-04T13:25:35.999Z</time></trkpt><trkpt lat="45.6089987561061" lon="11.104090758173763"><ele>1047.0</ele><time>2026-04-04T13:25:36.999Z</time></trkpt><trkpt lat="45.60891273043572" lon="11.103969120014968"><ele>1047.0</ele><time>2026-04-04T13:25:37.999Z</time></trkpt><trkpt lat="45.60883987211793" lon="11.103828578542892"><ele>1047.0</ele><time>2026-04-04T13:25:38.999Z</time></trkpt><trkpt lat="45.608789469522215" lon="11.103682700278352"><ele>1050.5</ele><time>2026-04-04T13:25:39.999Z</time></trkpt><trkpt lat="45.60876302550425" lon="11.103545227417039"><ele>1054.0</ele><time>2026-04-04T13:25:40.999Z</time></trkpt><trkpt lat="45.60875440983429" lon="11.10339696605802"><ele>1057.5</ele><time>2026-04-04T13:25:41.999Z</time></trkpt><trkpt lat="45.608789447085584" lon="11.103236294979387"><ele>1061.0</ele><time>2026-04-04T13:25:42.999Z</time></trkpt><trkpt lat="45.60882350666213" lon="11.1030479859788"><ele>1062.75</ele><time>2026-04-04T13:25:43.999Z</time></trkpt><trkpt lat="45.60887306139432" lon="11.102853930641308"><ele>1064.5</ele><time>2026-04-04T13:25:44.999Z</time></trkpt><trkpt lat="45.608887260038976" lon="11.102676994727547"><ele>1066.25</ele><time>2026-04-04T13:25:45.999Z</time></trkpt><trkpt lat="45.608882453041744" lon="11.102501224884165"><ele>1068.0</ele><time>2026-04-04T13:25:46.999Z</time></trkpt><trkpt lat="45.60886052183404" lon="11.102314405164227"><ele>1071.5</ele><time>2026-04-04T13:25:47.999Z</time></trkpt><trkpt lat="45.60881467707641" lon="11.102124753460155"><ele>1075.0</ele><time>2026-04-04T13:25:48.999Z</time></trkpt><trkpt lat="45.608761155785984" lon="11.101924060381386"><ele>1078.5</ele><time>2026-04-04T13:25:49.999Z</time></trkpt><trkpt lat="45.60871592901738" lon="11.10172302763515"><ele>1082.0</ele><time>2026-04-04T13:25:50.999Z</time></trkpt><trkpt lat="45.608662077002286" lon="11.101524325107153"><ele>1076.3333333333335</ele><time>2026-04-04T13:25:51.999Z</time></trkpt><trkpt lat="45.60858372095049" lon="11.101335946275592"><ele>1070.6666666666667</ele><time>2026-04-04T13:25:52.999Z</time></trkpt><trkpt lat="45.60849906723486" lon="11.101156326656143"><ele>1065.0</ele><time>2026-04-04T13:25:53.999Z</time></trkpt><trkpt lat="45.60842314055604" lon="11.100975074307899"><ele>1065.0</ele><time>2026-04-04T13:25:54.999Z</time></trkpt><trkpt lat="45.60831785308624" lon="11.100831939076306"><ele>1065.0</ele><time>2026-04-04T13:25:55.999Z</time></trkpt><trkpt lat="45.60822614205099" lon="11.100687368798326"><ele>1065.0</ele><time>2026-04-04T13:25:56.999Z</time></trkpt><trkpt lat="45.60814069491761" lon="11.100552460114265"><ele>1065.0</ele><time>2026-04-04T13:25:57.999Z</time></trkpt><trkpt lat="45.608069773314945" lon="11.100416288771175"><ele>1069.75</ele><time>2026-04-04T13:25:58.999Z</time></trkpt><trkpt lat="45.60801767092214" lon="11.100246256643885"><ele>1074.5</ele><time>2026-04-04T13:25:59.999Z</time></trkpt><trkpt lat="45.60797428618059" lon="11.100080535584896"><ele>1079.25</ele><time>2026-04-04T13:26:00.999Z</time></trkpt><trkpt lat="45.60792959989912" lon="11.099919885144951"><ele>1084.0</ele><time>2026-04-04T13:26:01.999Z</time></trkpt><trkpt lat="45.60788874209899" lon="11.099751943710741"><ele>1080.75</ele><time>2026-04-04T13:26:02.999Z</time></trkpt><trkpt lat="45.6078416012708" lon="11.099573957743097"><ele>1077.5</ele><time>2026-04-04T13:26:03.999Z</time></trkpt><trkpt lat="45.6078136774669" lon="11.099373158925573"><ele>1074.25</ele><time>2026-04-04T13:26:04.999Z</time></trkpt><trkpt lat="45.607814358689204" lon="11.099153332531326"><ele>1071.0</ele><time>2026-04-04T13:26:05.998Z</time></trkpt><trkpt lat="45.60781425025075" lon="11.098934895004684"><ele>1071.0</ele><time>2026-04-04T13:26:06.998Z</time></trkpt><trkpt lat="45.60780820563388" lon="11.098713370541228"><ele>1071.0</ele><time>2026-04-04T13:26:07.998Z</time></trkpt><trkpt lat="45.607789824337175" lon="11.0984919827953"><ele>1071.0</ele><time>2026-04-04T13:26:08.998Z</time></trkpt><trkpt lat="45.60775647398985" lon="11.09826920591274"><ele>1073.6666666666667</ele><time>2026-04-04T13:26:09.998Z</time></trkpt><trkpt lat="45.60771266201287" lon="11.098049632661915"><ele>1076.3333333333335</ele><time>2026-04-04T13:26:10.998Z</time></trkpt><trkpt lat="45.60766566830213" lon="11.097838952814204"><ele>1079.0</ele><time>2026-04-04T13:26:11.998Z</time></trkpt><trkpt lat="45.607610717623785" lon="11.097640195823102"><ele>1079.0</ele><time>2026-04-04T13:26:12.998Z</time></trkpt><trkpt lat="45.60754565330299" lon="11.097463278977614"><ele>1079.0</ele><time>2026-04-04T13:26:13.998Z</time></trkpt><trkpt lat="45.607479047177534" lon="11.097301025723423"><ele>1079.0</ele><time>2026-04-04T13:26:14.998Z</time></trkpt><trkpt lat="45.607405241591074" lon="11.097148142479968"><ele>1079.0</ele><time>2026-04-04T13:26:15.998Z</time></trkpt><trkpt lat="45.607317589379846" lon="11.097024326332718"><ele>1079.4</ele><time>2026-04-04T13:26:16.998Z</time></trkpt><trkpt lat="45.60722961208805" lon="11.096938476640085"><ele>1079.8000000000002</ele><time>2026-04-04T13:26:17.998Z</time></trkpt><trkpt lat="45.60713309768803" lon="11.096850427763515"><ele>1080.1999999999998</ele><time>2026-04-04T13:26:18.998Z</time></trkpt><trkpt lat="45.607036878931844" lon="11.096762199636116"><ele>1080.6</ele><time>2026-04-04T13:26:19.998Z</time></trkpt><trkpt lat="45.6069565328298" lon="11.096682198607702"><ele>1081.0</ele><time>2026-04-04T13:26:20.998Z</time></trkpt><trkpt lat="45.606888021817696" lon="11.09660676757511"><ele>1080.8333333333333</ele><time>2026-04-04T13:26:21.998Z</time></trkpt><trkpt lat="45.60682414658581" lon="11.09654320030067"><ele>1080.6666666666665</ele><time>2026-04-04T13:26:22.998Z</time></trkpt><trkpt lat="45.60673142972396" lon="11.096459789282468"><ele>1080.5</ele><time>2026-04-04T13:26:24.998Z</time></trkpt><trkpt lat="45.6066745088755" lon="11.096381238146028"><ele>1080.3333333333333</ele><time>2026-04-04T13:26:26.998Z</time></trkpt><trkpt lat="45.60667167131923" lon="11.096273084257101"><ele>1080.1666666666667</ele><time>2026-04-04T13:26:28.998Z</time></trkpt><trkpt lat="45.60669204711578" lon="11.096155352830879"><ele>1080.0</ele><time>2026-04-04T13:26:30.998Z</time></trkpt><trkpt lat="45.60666733204161" lon="11.096049307688208"><ele>1080.0</ele><time>2026-04-04T13:26:33Z</time></trkpt><trkpt lat="45.60655848059689" lon="11.095995214569927"><ele>1080.0</ele><time>2026-04-04T13:26:35Z</time></trkpt><trkpt lat="45.60648323415335" lon="11.095974494591221"><ele>1080.0</ele><time>2026-04-04T13:26:36Z</time></trkpt><trkpt lat="45.60640758452901" lon="11.095928210051142"><ele>1080.0</ele><time>2026-04-04T13:26:37Z</time></trkpt><trkpt lat="45.60632341702857" lon="11.095859495216054"><ele>1080.0</ele><time>2026-04-04T13:26:38Z</time></trkpt><trkpt lat="45.6062365111179" lon="11.095780486280022"><ele>1078.4</ele><time>2026-04-04T13:26:39Z</time></trkpt><trkpt lat="45.606147724144" lon="11.095694391993074"><ele>1076.8</ele><time>2026-04-04T13:26:40Z</time></trkpt><trkpt lat="45.606057798116254" lon="11.09560516397938"><ele>1075.2</ele><time>2026-04-04T13:26:41Z</time></trkpt><trkpt lat="45.605968684934986" lon="11.09551580846373"><ele>1073.6</ele><time>2026-04-04T13:26:42Z</time></trkpt><trkpt lat="45.60587561303128" lon="11.095424996597217"><ele>1072.0</ele><time>2026-04-04T13:26:43Z</time></trkpt><trkpt lat="45.605780010475286" lon="11.095343842058725"><ele>1072.0</ele><time>2026-04-04T13:26:44Z</time></trkpt><trkpt lat="45.60568114212473" lon="11.095265348526008"><ele>1072.0</ele><time>2026-04-04T13:26:45Z</time></trkpt><trkpt lat="45.6055810243755" lon="11.09519109189116"><ele>1072.0</ele><time>2026-04-04T13:26:46Z</time></trkpt><trkpt lat="45.605471227845904" lon="11.09513008727708"><ele>1072.0</ele><time>2026-04-04T13:26:47Z</time></trkpt><trkpt lat="45.60536869236529" lon="11.09504597543271"><ele>1074.25</ele><time>2026-04-04T13:26:48Z</time></trkpt><trkpt lat="45.60525383959785" lon="11.095004992920979"><ele>1076.5</ele><time>2026-04-04T13:26:49Z</time></trkpt><trkpt lat="45.60513439450756" lon="11.094972847067"><ele>1078.75</ele><time>2026-04-04T13:26:50Z</time></trkpt><trkpt lat="45.6050141062384" lon="11.09495096248992"><ele>1081.0</ele><time>2026-04-04T13:26:51Z</time></trkpt><trkpt lat="45.604893882800575" lon="11.094942269038189"><ele>1081.0</ele><time>2026-04-04T13:26:52Z</time></trkpt><trkpt lat="45.604787020774396" lon="11.094940470951121"><ele>1081.0</ele><time>2026-04-04T13:26:53Z</time></trkpt><trkpt lat="45.6046908617724" lon="11.094964368929874"><ele>1081.0</ele><time>2026-04-04T13:26:54Z</time></trkpt><trkpt lat="45.604604727524126" lon="11.094962869415065"><ele>1081.0</ele><time>2026-04-04T13:26:55Z</time></trkpt><trkpt lat="45.60453032155051" lon="11.094956554584495"><ele>1081.0</ele><time>2026-04-04T13:26:56Z</time></trkpt><trkpt lat="45.604462502156245" lon="11.094953666136014"><ele>1081.0</ele><time>2026-04-04T13:26:57Z</time></trkpt><trkpt lat="45.604357079738016" lon="11.09493137071166"><ele>1081.2</ele><time>2026-04-04T13:26:59Z</time></trkpt><trkpt lat="45.604292218856095" lon="11.09485123096691"><ele>1081.3999999999999</ele><time>2026-04-04T13:27:01Z</time></trkpt><trkpt lat="45.604254937198675" lon="11.094699321055533"><ele>1081.6</ele><time>2026-04-04T13:27:06Z</time></trkpt><trkpt lat="45.60414572255805" lon="11.094699939140673"><ele>1081.8</ele><time>2026-04-04T13:45:54Z</time></trkpt><trkpt lat="45.604094071764" lon="11.094593084387007"><ele>1082.0</ele><time>2026-04-04T13:45:56Z</time></trkpt><trkpt lat="45.604110519703816" lon="11.094482297778422"><ele>1082.0</ele><time>2026-04-04T13:45:57Z</time></trkpt><trkpt lat="45.60416246471941" lon="11.09430498551358"><ele>1082.0</ele><time>2026-04-04T13:45:58Z</time></trkpt><trkpt lat="45.60423823070034" lon="11.094113616273345"><ele>1082.0</ele><time>2026-04-04T13:45:59Z</time></trkpt><trkpt lat="45.604302243439015" lon="11.093987898057803"><ele>1082.0</ele><time>2026-04-04T13:46:00Z</time></trkpt><trkpt lat="45.6043588450314" lon="11.093901007338225"><ele>1081.1666666666667</ele><time>2026-04-04T13:46:01Z</time></trkpt><trkpt lat="45.604405247807634" lon="11.093825336635017"><ele>1080.3333333333335</ele><time>2026-04-04T13:46:02Z</time></trkpt><trkpt lat="45.60444856429956" lon="11.093739433899195"><ele>1079.5</ele><time>2026-04-04T13:46:03Z</time></trkpt><trkpt lat="45.60450552352525" lon="11.09364943939947"><ele>1078.6666666666667</ele><time>2026-04-04T13:46:04Z</time></trkpt><trkpt lat="45.60455366613294" lon="11.093560830883165"><ele>1077.8333333333333</ele><time>2026-04-04T13:46:05Z</time></trkpt><trkpt lat="45.60459944054489" lon="11.093458782056542"><ele>1077.0</ele><time>2026-04-04T13:46:06Z</time></trkpt><trkpt lat="45.60464313044704" lon="11.093355486338472"><ele>1078.8</ele><time>2026-04-04T13:46:07Z</time></trkpt><trkpt lat="45.604694926212595" lon="11.093201023442196"><ele>1080.6</ele><time>2026-04-04T13:46:08Z</time></trkpt><trkpt lat="45.604725721666505" lon="11.093040251755669"><ele>1082.3999999999999</ele><time>2026-04-04T13:46:08.999Z</time></trkpt><trkpt lat="45.604758260018556" lon="11.092910821289525"><ele>1084.2</ele><time>2026-04-04T13:46:09.999Z</time></trkpt><trkpt lat="45.60477462351093" lon="11.092775269090886"><ele>1086.0</ele><time>2026-04-04T13:46:10.999Z</time></trkpt><trkpt lat="45.60478667190919" lon="11.092640773424082"><ele>1086.0</ele><time>2026-04-04T13:46:11.999Z</time></trkpt><trkpt lat="45.60479288674311" lon="11.092504122454018"><ele>1086.0</ele><time>2026-04-04T13:46:12.999Z</time></trkpt><trkpt lat="45.60479844823028" lon="11.092365454767572"><ele>1086.0</ele><time>2026-04-04T13:46:13.999Z</time></trkpt><trkpt lat="45.60480550419787" lon="11.092223971369725"><ele>1086.0</ele><time>2026-04-04T13:46:14.999Z</time></trkpt><trkpt lat="45.60481458216892" lon="11.09208146248223"><ele>1086.0</ele><time>2026-04-04T13:46:15.999Z</time></trkpt><trkpt lat="45.604821766629996" lon="11.09194764079095"><ele>1086.8</ele><time>2026-04-04T13:46:16.999Z</time></trkpt><trkpt lat="45.60482875201974" lon="11.091822378889784"><ele>1087.6</ele><time>2026-04-04T13:46:17.999Z</time></trkpt><trkpt lat="45.60485933025375" lon="11.091700262695815"><ele>1088.4</ele><time>2026-04-04T13:46:18.999Z</time></trkpt><trkpt lat="45.604935291082434" lon="11.091639687926977"><ele>1089.2</ele><time>2026-04-04T13:46:19.999Z</time></trkpt><trkpt lat="45.60500180499125" lon="11.091542066465248"><ele>1090.0</ele><time>2026-04-04T13:46:20.999Z</time></trkpt><trkpt lat="45.60506435796929" lon="11.091450258022958"><ele>1090.0</ele><time>2026-04-04T13:46:21.999Z</time></trkpt><trkpt lat="45.60512781677695" lon="11.091353700217025"><ele>1090.0</ele><time>2026-04-04T13:46:22.999Z</time></trkpt><trkpt lat="45.6051774824877" lon="11.091242074741434"><ele>1090.0</ele><time>2026-04-04T13:46:23.999Z</time></trkpt><trkpt lat="45.605242594882846" lon="11.091169006862955"><ele>1090.0</ele><time>2026-04-04T13:46:24.999Z</time></trkpt><trkpt lat="45.60528537869456" lon="11.09109576865096"><ele>1090.0</ele><time>2026-04-04T13:46:25.999Z</time></trkpt><trkpt lat="45.6053630646317" lon="11.09095252937669"><ele>1089.8</ele><time>2026-04-04T13:46:27.999Z</time></trkpt><trkpt lat="45.60541800960817" lon="11.090815586508896"><ele>1089.6</ele><time>2026-04-04T13:46:29.999Z</time></trkpt><trkpt lat="45.60548520095184" lon="11.090700460766618"><ele>1089.4</ele><time>2026-04-04T13:46:31.999Z</time></trkpt><trkpt lat="45.60553550035486" lon="11.090629217359023"><ele>1089.2</ele><time>2026-04-04T13:46:32.999Z</time></trkpt><trkpt lat="45.605613247752714" lon="11.090571456336264"><ele>1089.0</ele><time>2026-04-04T13:46:33.999Z</time></trkpt><trkpt lat="45.60568318878119" lon="11.090500211647077"><ele>1088.4</ele><time>2026-04-04T13:46:34.999Z</time></trkpt><trkpt lat="45.605758575420076" lon="11.090440135383954"><ele>1087.8000000000002</ele><time>2026-04-04T13:46:35.999Z</time></trkpt><trkpt lat="45.605841350724425" lon="11.090383294923589"><ele>1087.1999999999998</ele><time>2026-04-04T13:46:36.999Z</time></trkpt><trkpt lat="45.605922734294346" lon="11.090318206247137"><ele>1086.6</ele><time>2026-04-04T13:46:37.999Z</time></trkpt><trkpt lat="45.606009999102355" lon="11.09029476367412"><ele>1086.0</ele><time>2026-04-04T13:46:38.999Z</time></trkpt><trkpt lat="45.60608538043332" lon="11.090210579009144"><ele>1086.0</ele><time>2026-04-04T13:46:39.999Z</time></trkpt><trkpt lat="45.60614530988831" lon="11.09010863017538"><ele>1086.0</ele><time>2026-04-04T13:46:40.999Z</time></trkpt><trkpt lat="45.60619551429944" lon="11.090008975965322"><ele>1086.0</ele><time>2026-04-04T13:46:41.999Z</time></trkpt><trkpt lat="45.606235151743945" lon="11.089887797717429"><ele>1086.0</ele><time>2026-04-04T13:46:42.999Z</time></trkpt><trkpt lat="45.60626635209755" lon="11.089760187713036"><ele>1086.0</ele><time>2026-04-04T13:46:43.999Z</time></trkpt><trkpt lat="45.60630204663689" lon="11.089624690612592"><ele>1086.6</ele><time>2026-04-04T13:46:44.999Z</time></trkpt><trkpt lat="45.60633411139224" lon="11.089480567176881"><ele>1087.1999999999998</ele><time>2026-04-04T13:46:45.999Z</time></trkpt><trkpt lat="45.606403858642416" lon="11.089360497079776"><ele>1087.8000000000002</ele><time>2026-04-04T13:46:46.999Z</time></trkpt><trkpt lat="45.60647851013007" lon="11.089243785423706"><ele>1088.4</ele><time>2026-04-04T13:46:47.999Z</time></trkpt><trkpt lat="45.6065587023843" lon="11.08914188078339"><ele>1089.0</ele><time>2026-04-04T13:46:48.999Z</time></trkpt><trkpt lat="45.60662838258834" lon="11.089037284916044"><ele>1089.0</ele><time>2026-04-04T13:46:49.999Z</time></trkpt><trkpt lat="45.60667410171615" lon="11.088922848797603"><ele>1089.0</ele><time>2026-04-04T13:46:50.999Z</time></trkpt><trkpt lat="45.60673417214103" lon="11.088830106681392"><ele>1089.0</ele><time>2026-04-04T13:46:51.999Z</time></trkpt><trkpt lat="45.60676179592311" lon="11.088709883855705"><ele>1089.0</ele><time>2026-04-04T13:46:52.999Z</time></trkpt><trkpt lat="45.60676085231954" lon="11.088579262921645"><ele>1089.0</ele><time>2026-04-04T13:46:53.999Z</time></trkpt><trkpt lat="45.60672941962854" lon="11.088451545750544"><ele>1089.0</ele><time>2026-04-04T13:46:54.999Z</time></trkpt><trkpt lat="45.60670286205954" lon="11.088314416970151"><ele>1089.0</ele><time>2026-04-04T13:46:55.999Z</time></trkpt><trkpt lat="45.606665580567565" lon="11.08816552800791"><ele>1089.0</ele><time>2026-04-04T13:46:56.999Z</time></trkpt><trkpt lat="45.606622999892004" lon="11.088020453116883"><ele>1089.0</ele><time>2026-04-04T13:46:57.999Z</time></trkpt><trkpt lat="45.60656457159374" lon="11.087875009853546"><ele>1089.0</ele><time>2026-04-04T13:46:58.999Z</time></trkpt><trkpt lat="45.60649588196617" lon="11.087720580426547"><ele>1089.0</ele><time>2026-04-04T13:46:59.999Z</time></trkpt><trkpt lat="45.60642638934968" lon="11.08755607501427"><ele>1089.0</ele><time>2026-04-04T13:47:00.999Z</time></trkpt><trkpt lat="45.60634920143833" lon="11.087397270226639"><ele>1089.0</ele><time>2026-04-04T13:47:01.999Z</time></trkpt><trkpt lat="45.60624911104475" lon="11.087251586774665"><ele>1089.0</ele><time>2026-04-04T13:47:02.999Z</time></trkpt><trkpt lat="45.606141120664994" lon="11.087120324284381"><ele>1087.8</ele><time>2026-04-04T13:47:03.999Z</time></trkpt><trkpt lat="45.60603750164059" lon="11.087013593476225"><ele>1086.6000000000001</ele><time>2026-04-04T13:47:04.999Z</time></trkpt><trkpt lat="45.6059412468344" lon="11.086919509164359"><ele>1085.4</ele><time>2026-04-04T13:47:05.998Z</time></trkpt><trkpt lat="45.605858165034" lon="11.08682835812518"><ele>1084.2</ele><time>2026-04-04T13:47:06.998Z</time></trkpt><trkpt lat="45.60580207094741" lon="11.086724167150352"><ele>1083.0</ele><time>2026-04-04T13:47:07.998Z</time></trkpt><trkpt lat="45.605780114925295" lon="11.086592680010465"><ele>1083.0</ele><time>2026-04-04T13:47:08.998Z</time></trkpt><trkpt lat="45.605803862690074" lon="11.086431885617506"><ele>1083.0</ele><time>2026-04-04T13:47:09.998Z</time></trkpt><trkpt lat="45.6057934641404" lon="11.086264312396082"><ele>1083.0</ele><time>2026-04-04T13:47:10.998Z</time></trkpt><trkpt lat="45.605799953565" lon="11.086099231342898"><ele>1083.0</ele><time>2026-04-04T13:47:11.998Z</time></trkpt><trkpt lat="45.60582865681348" lon="11.085929240487186"><ele>1081.5</ele><time>2026-04-04T13:47:12.998Z</time></trkpt><trkpt lat="45.60583452112889" lon="11.08574903045276"><ele>1080.0</ele><time>2026-04-04T13:47:13.998Z</time></trkpt><trkpt lat="45.60585912211335" lon="11.085577012954362"><ele>1078.5</ele><time>2026-04-04T13:47:14.998Z</time></trkpt><trkpt lat="45.60588838216651" lon="11.085411827248327"><ele>1077.0</ele><time>2026-04-04T13:47:15.998Z</time></trkpt><trkpt lat="45.605932225133415" lon="11.085268932110584"><ele>1077.0</ele><time>2026-04-04T13:47:16.998Z</time></trkpt><trkpt lat="45.6059711654707" lon="11.0851484840144"><ele>1077.0</ele><time>2026-04-04T13:47:17.998Z</time></trkpt><trkpt lat="45.60603226779676" lon="11.085039310867932"><ele>1077.0</ele><time>2026-04-04T13:47:18.998Z</time></trkpt><trkpt lat="45.606081480771" lon="11.084917723366507"><ele>1077.0</ele><time>2026-04-04T13:47:19.998Z</time></trkpt><trkpt lat="45.606116581731264" lon="11.084792254078248"><ele>1077.0</ele><time>2026-04-04T13:47:20.998Z</time></trkpt><trkpt lat="45.606169671623306" lon="11.08468079931021"><ele>1074.6</ele><time>2026-04-04T13:47:21.998Z</time></trkpt><trkpt lat="45.606227040669026" lon="11.084571230756096"><ele>1072.2</ele><time>2026-04-04T13:47:22.998Z</time></trkpt><trkpt lat="45.60628480837476" lon="11.084463704791181"><ele>1069.8</ele><time>2026-04-04T13:47:23.998Z</time></trkpt><trkpt lat="45.606337583953284" lon="11.08435309572742"><ele>1067.4</ele><time>2026-04-04T13:47:24.998Z</time></trkpt><trkpt lat="45.60638558506349" lon="11.084231067252443"><ele>1065.0</ele><time>2026-04-04T13:47:25.998Z</time></trkpt><trkpt lat="45.60642300333579" lon="11.084101569456545"><ele>1064.0</ele><time>2026-04-04T13:47:26.998Z</time></trkpt><trkpt lat="45.60645393734629" lon="11.083960297819132"><ele>1063.0</ele><time>2026-04-04T13:47:27.998Z</time></trkpt><trkpt lat="45.60645932211292" lon="11.083798459023232"><ele>1062.0</ele><time>2026-04-04T13:47:28.998Z</time></trkpt><trkpt lat="45.6064571817707" lon="11.083624964646638"><ele>1061.0</ele><time>2026-04-04T13:47:29.998Z</time></trkpt><trkpt lat="45.606450381979606" lon="11.083444613245566"><ele>1061.0</ele><time>2026-04-04T13:47:30.998Z</time></trkpt><trkpt lat="45.60646821063084" lon="11.083265129404575"><ele>1061.0</ele><time>2026-04-04T13:47:32Z</time></trkpt><trkpt lat="45.60646534466522" lon="11.08308930728192"><ele>1061.0</ele><time>2026-04-04T13:47:33Z</time></trkpt><trkpt lat="45.60649680853618" lon="11.082927069458709"><ele>1061.0</ele><time>2026-04-04T13:47:34Z</time></trkpt><trkpt lat="45.606503069100114" lon="11.082773035413494"><ele>1061.8</ele><time>2026-04-04T13:47:35Z</time></trkpt><trkpt lat="45.60652324499019" lon="11.082625125299229"><ele>1062.6</ele><time>2026-04-04T13:47:36Z</time></trkpt><trkpt lat="45.60654012284241" lon="11.082482525313855"><ele>1063.4</ele><time>2026-04-04T13:47:37Z</time></trkpt><trkpt lat="45.60655980275845" lon="11.08235446629008"><ele>1064.2</ele><time>2026-04-04T13:47:38Z</time></trkpt><trkpt lat="45.60658716864" lon="11.082245125182721"><ele>1065.0</ele><time>2026-04-04T13:47:39Z</time></trkpt><trkpt lat="45.60662280093751" lon="11.082147416931988"><ele>1065.6</ele><time>2026-04-04T13:47:40Z</time></trkpt><trkpt lat="45.606666959232385" lon="11.082049394366294"><ele>1066.2</ele><time>2026-04-04T13:47:41Z</time></trkpt><trkpt lat="45.60671979190753" lon="11.081942490497031"><ele>1066.8</ele><time>2026-04-04T13:47:42Z</time></trkpt><trkpt lat="45.606803377785624" lon="11.081852035301957"><ele>1067.4</ele><time>2026-04-04T13:47:43Z</time></trkpt><trkpt lat="45.60688106144104" lon="11.081743051345637"><ele>1068.0</ele><time>2026-04-04T13:47:44Z</time></trkpt><trkpt lat="45.60696057923227" lon="11.08163149400265"><ele>1064.5</ele><time>2026-04-04T13:47:45Z</time></trkpt><trkpt lat="45.607035015010844" lon="11.081529445677468"><ele>1061.0</ele><time>2026-04-04T13:47:46Z</time></trkpt><trkpt lat="45.60711781135814" lon="11.081413105583506"><ele>1057.5</ele><time>2026-04-04T13:47:47Z</time></trkpt><trkpt lat="45.60720590130133" lon="11.081276268647091"><ele>1054.0</ele><time>2026-04-04T13:47:48Z</time></trkpt><trkpt lat="45.60728139872624" lon="11.081134509977213"><ele>1054.0</ele><time>2026-04-04T13:47:49Z</time></trkpt><trkpt lat="45.607329444503584" lon="11.080976444721102"><ele>1054.0</ele><time>2026-04-04T13:47:50Z</time></trkpt><trkpt lat="45.60739313348084" lon="11.080838195004933"><ele>1054.0</ele><time>2026-04-04T13:47:51Z</time></trkpt><trkpt lat="45.607456734298594" lon="11.080706051476897"><ele>1054.0</ele><time>2026-04-04T13:47:52Z</time></trkpt><trkpt lat="45.60751586457779" lon="11.08058642649005"><ele>1052.0</ele><time>2026-04-04T13:47:53Z</time></trkpt><trkpt lat="45.6075670199665" lon="11.080474838237311"><ele>1050.0</ele><time>2026-04-04T13:47:54Z</time></trkpt><trkpt lat="45.60760454992297" lon="11.080349205572357"><ele>1048.0</ele><time>2026-04-04T13:47:55Z</time></trkpt><trkpt lat="45.60766260017344" lon="11.080234419734929"><ele>1046.0</ele><time>2026-04-04T13:47:56Z</time></trkpt><trkpt lat="45.60776465182798" lon="11.080154022059562"><ele>1044.0</ele><time>2026-04-04T13:47:57Z</time></trkpt><trkpt lat="45.607867433984694" lon="11.080068897205575"><ele>1042.4</ele><time>2026-04-04T13:47:58Z</time></trkpt><trkpt lat="45.60796068871212" lon="11.07999265737116"><ele>1040.8000000000002</ele><time>2026-04-04T13:47:59Z</time></trkpt><trkpt lat="45.60805230206583" lon="11.079918354350538"><ele>1039.1999999999998</ele><time>2026-04-04T13:48:00Z</time></trkpt><trkpt lat="45.60814164856073" lon="11.079847001740584"><ele>1037.6</ele><time>2026-04-04T13:48:01Z</time></trkpt><trkpt lat="45.6082328650032" lon="11.079774155958372"><ele>1036.0</ele><time>2026-04-04T13:48:02Z</time></trkpt><trkpt lat="45.60832700667028" lon="11.079695807450689"><ele>1035.3999999999999</ele><time>2026-04-04T13:48:03Z</time></trkpt><trkpt lat="45.60841125806075" lon="11.079598650689054"><ele>1034.8</ele><time>2026-04-04T13:48:04Z</time></trkpt><trkpt lat="45.60849141159877" lon="11.07951322475825"><ele>1034.1999999999998</ele><time>2026-04-04T13:48:05Z</time></trkpt><trkpt lat="45.60855158401208" lon="11.07941561762255"><ele>1033.6</ele><time>2026-04-04T13:48:06Z</time></trkpt><trkpt lat="45.608603545042406" lon="11.079313297982761"><ele>1033.0</ele><time>2026-04-04T13:48:07Z</time></trkpt><trkpt lat="45.60864791280085" lon="11.079195156871403"><ele>1029.25</ele><time>2026-04-04T13:48:08Z</time></trkpt><trkpt lat="45.60869310180919" lon="11.07906379374152"><ele>1025.5</ele><time>2026-04-04T13:48:09Z</time></trkpt><trkpt lat="45.6087307703113" lon="11.078923232307863"><ele>1021.75</ele><time>2026-04-04T13:48:10Z</time></trkpt><trkpt lat="45.6087545788596" lon="11.07876086723669"><ele>1018.0</ele><time>2026-04-04T13:48:11Z</time></trkpt><trkpt lat="45.60876535675468" lon="11.078577149472391"><ele>1018.0</ele><time>2026-04-04T13:48:12Z</time></trkpt><trkpt lat="45.608767773939974" lon="11.078383067041878"><ele>1018.0</ele><time>2026-04-04T13:48:13Z</time></trkpt><trkpt lat="45.60876683161541" lon="11.078193088217107"><ele>1018.0</ele><time>2026-04-04T13:48:14Z</time></trkpt><trkpt lat="45.60876931224807" lon="11.078008400215221"><ele>1018.0</ele><time>2026-04-04T13:48:14.999Z</time></trkpt><trkpt lat="45.60876817870486" lon="11.077839339154698"><ele>1017.2</ele><time>2026-04-04T13:48:15.999Z</time></trkpt><trkpt lat="45.60877984139732" lon="11.077678004504538"><ele>1016.4</ele><time>2026-04-04T13:48:16.999Z</time></trkpt><trkpt lat="45.608801664980085" lon="11.077516556292274"><ele>1015.6000000000001</ele><time>2026-04-04T13:48:17.999Z</time></trkpt><trkpt lat="45.608826490114346" lon="11.077359787613352"><ele>1014.8000000000001</ele><time>2026-04-04T13:48:18.999Z</time></trkpt><trkpt lat="45.60884819975487" lon="11.077214750176157"><ele>1014.0</ele><time>2026-04-04T13:48:19.999Z</time></trkpt><trkpt lat="45.60886901284873" lon="11.077072461499583"><ele>1014.0</ele><time>2026-04-04T13:48:20.999Z</time></trkpt><trkpt lat="45.60887911769766" lon="11.076942309599833"><ele>1014.0</ele><time>2026-04-04T13:48:21.999Z</time></trkpt><trkpt lat="45.60888431602962" lon="11.076824933178717"><ele>1014.0</ele><time>2026-04-04T13:48:22.999Z</time></trkpt><trkpt lat="45.60888674213106" lon="11.076708534899593"><ele>1014.0</ele><time>2026-04-04T13:48:23.999Z</time></trkpt><trkpt lat="45.608892853049426" lon="11.076581399921485"><ele>1014.0</ele><time>2026-04-04T13:48:24.999Z</time></trkpt><trkpt lat="45.60889885766814" lon="11.076448697949102"><ele>1014.0</ele><time>2026-04-04T13:48:25.999Z</time></trkpt><trkpt lat="45.60890994085918" lon="11.07631700980591"><ele>1014.0</ele><time>2026-04-04T13:48:26.999Z</time></trkpt><trkpt lat="45.608926907194885" lon="11.076188979142703"><ele>1014.0</ele><time>2026-04-04T13:48:27.999Z</time></trkpt><trkpt lat="45.6089399661473" lon="11.076068537782328"><ele>1014.0</ele><time>2026-04-04T13:48:28.999Z</time></trkpt><trkpt lat="45.608960941100584" lon="11.075945232978075"><ele>1014.0</ele><time>2026-04-04T13:48:29.999Z</time></trkpt><trkpt lat="45.60898203097595" lon="11.075825904973561"><ele>1014.0</ele><time>2026-04-04T13:48:30.999Z</time></trkpt><trkpt lat="45.60900788824361" lon="11.075713443244403"><ele>1014.0</ele><time>2026-04-04T13:48:31.999Z</time></trkpt><trkpt lat="45.60902568882908" lon="11.075598323256207"><ele>1014.0</ele><time>2026-04-04T13:48:32.999Z</time></trkpt><trkpt lat="45.60902232367264" lon="11.075475295582269"><ele>1014.0</ele><time>2026-04-04T13:48:33.999Z</time></trkpt><trkpt lat="45.609002413795" lon="11.07535983644417"><ele>1014.0</ele><time>2026-04-04T13:48:34.999Z</time></trkpt><trkpt lat="45.608970301869746" lon="11.075260027274902"><ele>1014.0</ele><time>2026-04-04T13:48:35.999Z</time></trkpt><trkpt lat="45.60894939065442" lon="11.075160439888188"><ele>1014.0</ele><time>2026-04-04T13:48:36.999Z</time></trkpt><trkpt lat="45.60892974911798" lon="11.075046350870709"><ele>1014.0</ele><time>2026-04-04T13:48:37.999Z</time></trkpt><trkpt lat="45.60890370460557" lon="11.07493338327078"><ele>1012.8333333333334</ele><time>2026-04-04T13:48:38.999Z</time></trkpt><trkpt lat="45.608865598949336" lon="11.074827686078336"><ele>1011.6666666666667</ele><time>2026-04-04T13:48:39.999Z</time></trkpt><trkpt lat="45.60883419043747" lon="11.074725641651604"><ele>1010.5</ele><time>2026-04-04T13:48:40.999Z</time></trkpt><trkpt lat="45.608804118539844" lon="11.074630345131476"><ele>1009.3333333333334</ele><time>2026-04-04T13:48:41.999Z</time></trkpt><trkpt lat="45.60878462001543" lon="11.07454401914588"><ele>1008.1666666666667</ele><time>2026-04-04T13:48:42.999Z</time></trkpt><trkpt lat="45.60880780381139" lon="11.074362592867258"><ele>1007.0</ele><time>2026-04-04T13:48:44.999Z</time></trkpt><trkpt lat="45.60884298728776" lon="11.074259924196696"><ele>1007.0</ele><time>2026-04-04T13:48:45.999Z</time></trkpt><trkpt lat="45.60887315622203" lon="11.074147548633531"><ele>1007.0</ele><time>2026-04-04T13:48:46.999Z</time></trkpt><trkpt lat="45.608901623883334" lon="11.074027208325901"><ele>1007.0</ele><time>2026-04-04T13:48:47.999Z</time></trkpt><trkpt lat="45.60893226156325" lon="11.073905077452398"><ele>1007.0</ele><time>2026-04-04T13:48:48.999Z</time></trkpt><trkpt lat="45.60897096047939" lon="11.073773970664575"><ele>1007.0</ele><time>2026-04-04T13:48:49.999Z</time></trkpt><trkpt lat="45.60899662304382" lon="11.073624406020109"><ele>1007.2</ele><time>2026-04-04T13:48:50.999Z</time></trkpt><trkpt lat="45.60901698025559" lon="11.073481484126269"><ele>1007.4000000000001</ele><time>2026-04-04T13:48:51.999Z</time></trkpt><trkpt lat="45.60904178307994" lon="11.07333869943088"><ele>1007.5999999999999</ele><time>2026-04-04T13:48:52.999Z</time></trkpt><trkpt lat="45.60905927718854" lon="11.073201734226025"><ele>1007.8</ele><time>2026-04-04T13:48:53.999Z</time></trkpt><trkpt lat="45.609076758617896" lon="11.073078212782633"><ele>1008.0</ele><time>2026-04-04T13:48:54.999Z</time></trkpt><trkpt lat="45.609084736841496" lon="11.072957006160104"><ele>1008.0</ele><time>2026-04-04T13:48:55.999Z</time></trkpt><trkpt lat="45.60911044700702" lon="11.072830534330896"><ele>1008.0</ele><time>2026-04-04T13:48:56.999Z</time></trkpt><trkpt lat="45.60914208615304" lon="11.07270946152026"><ele>1008.0</ele><time>2026-04-04T13:48:57.999Z</time></trkpt><trkpt lat="45.609189957308836" lon="11.072595354061415"><ele>1008.0</ele><time>2026-04-04T13:48:58.999Z</time></trkpt><trkpt lat="45.60923861964813" lon="11.072488801729552"><ele>1008.0</ele><time>2026-04-04T13:48:59.999Z</time></trkpt><trkpt lat="45.60928817970883" lon="11.072402533616104"><ele>1008.0</ele><time>2026-04-04T13:49:00.999Z</time></trkpt><trkpt lat="45.60935773545428" lon="11.072288759923211"><ele>1007.75</ele><time>2026-04-04T13:49:02.999Z</time></trkpt><trkpt lat="45.60940725993866" lon="11.072221252046553"><ele>1007.5</ele><time>2026-04-04T13:49:07.999Z</time></trkpt><trkpt lat="45.60920815557897" lon="11.072150991162692"><ele>1007.25</ele><time>2026-04-04T13:49:10.999Z</time></trkpt><trkpt lat="45.60909786781942" lon="11.072186318686958"><ele>1007.0</ele><time>2026-04-04T13:49:11.998Z</time></trkpt><trkpt lat="45.60896839832041" lon="11.07220607520869"><ele>1007.0</ele><time>2026-04-04T13:49:12.998Z</time></trkpt><trkpt lat="45.60882209922366" lon="11.072228254960852"><ele>1007.0</ele><time>2026-04-04T13:49:13.998Z</time></trkpt><trkpt lat="45.60866562924192" lon="11.072255988847495"><ele>1007.0</ele><time>2026-04-04T13:49:14.998Z</time></trkpt><trkpt lat="45.6085258525564" lon="11.072285355394277"><ele>1007.0</ele><time>2026-04-04T13:49:15.998Z</time></trkpt><trkpt lat="45.608401797521275" lon="11.07231827737089"><ele>1004.5</ele><time>2026-04-04T13:49:16.998Z</time></trkpt><trkpt lat="45.60827542346168" lon="11.072347413572023"><ele>1002.0</ele><time>2026-04-04T13:49:17.998Z</time></trkpt><trkpt lat="45.60816210623955" lon="11.072339210104037"><ele>999.5</ele><time>2026-04-04T13:49:18.998Z</time></trkpt><trkpt lat="45.60805431946575" lon="11.072290231233302"><ele>997.0</ele><time>2026-04-04T13:49:19.998Z</time></trkpt><trkpt lat="45.60795099567796" lon="11.072199852259313"><ele>997.0</ele><time>2026-04-04T13:49:20.998Z</time></trkpt><trkpt lat="45.60785412278882" lon="11.072068230928883"><ele>997.0</ele><time>2026-04-04T13:49:21.998Z</time></trkpt><trkpt lat="45.60775562796151" lon="11.071913689367916"><ele>997.0</ele><time>2026-04-04T13:49:22.998Z</time></trkpt><trkpt lat="45.60764922094393" lon="11.071759567906994"><ele>997.0</ele><time>2026-04-04T13:49:23.998Z</time></trkpt><trkpt lat="45.60754056482042" lon="11.071621520578713"><ele>994.5</ele><time>2026-04-04T13:49:24.998Z</time></trkpt><trkpt lat="45.60743583573161" lon="11.071491910645587"><ele>992.0</ele><time>2026-04-04T13:49:25.998Z</time></trkpt><trkpt lat="45.607327728975385" lon="11.071352047462419"><ele>989.5</ele><time>2026-04-04T13:49:26.998Z</time></trkpt><trkpt lat="45.60721726044022" lon="11.07120920597088"><ele>987.0</ele><time>2026-04-04T13:49:27.998Z</time></trkpt><trkpt lat="45.60709563948556" lon="11.07107445632802"><ele>987.3333333333333</ele><time>2026-04-04T13:49:28.998Z</time></trkpt><trkpt lat="45.60696226064915" lon="11.070952131678903"><ele>987.6666666666666</ele><time>2026-04-04T13:49:29.998Z</time></trkpt><trkpt lat="45.60682787990463" lon="11.070839712024725"><ele>988.0</ele><time>2026-04-04T13:49:30.998Z</time></trkpt><trkpt lat="45.606695169278375" lon="11.07073090479485"><ele>984.5</ele><time>2026-04-04T13:49:31.998Z</time></trkpt><trkpt lat="45.60656663312198" lon="11.0706143423919"><ele>981.0</ele><time>2026-04-04T13:49:32.998Z</time></trkpt><trkpt lat="45.60644029896223" lon="11.070501483155432"><ele>977.5</ele><time>2026-04-04T13:49:33.998Z</time></trkpt><trkpt lat="45.6063101295927" lon="11.070401346121084"><ele>974.0</ele><time>2026-04-04T13:49:34.998Z</time></trkpt><trkpt lat="45.606170442190155" lon="11.07032991932138"><ele>975.5</ele><time>2026-04-04T13:49:35.998Z</time></trkpt><trkpt lat="45.60603520857877" lon="11.070269895703484"><ele>977.0</ele><time>2026-04-04T13:49:36.998Z</time></trkpt><trkpt lat="45.60589274429638" lon="11.070221328224225"><ele>978.5</ele><time>2026-04-04T13:49:38Z</time></trkpt><trkpt lat="45.605752996858556" lon="11.070173786198637"><ele>980.0</ele><time>2026-04-04T13:49:39Z</time></trkpt><trkpt lat="45.605610078242705" lon="11.070131851214825"><ele>980.0</ele><time>2026-04-04T13:49:40Z</time></trkpt><trkpt lat="45.60546558605344" lon="11.070093823786493"><ele>980.0</ele><time>2026-04-04T13:49:41Z</time></trkpt><trkpt lat="45.60531520521123" lon="11.07006886104756"><ele>980.0</ele><time>2026-04-04T13:49:42Z</time></trkpt><trkpt lat="45.6051588350174" lon="11.070052746753449"><ele>979.0</ele><time>2026-04-04T13:49:43Z</time></trkpt><trkpt lat="45.604996505309856" lon="11.07003448498001"><ele>978.0</ele><time>2026-04-04T13:49:44Z</time></trkpt><trkpt lat="45.60483272975865" lon="11.070013776808551"><ele>977.0</ele><time>2026-04-04T13:49:45Z</time></trkpt><trkpt lat="45.60467420264132" lon="11.070003587176103"><ele>977.0</ele><time>2026-04-04T13:49:46Z</time></trkpt><trkpt lat="45.604509049934435" lon="11.069988822863479"><ele>977.0</ele><time>2026-04-04T13:49:47Z</time></trkpt><trkpt lat="45.6043484204544" lon="11.069976955601243"><ele>977.0</ele><time>2026-04-04T13:49:48Z</time></trkpt><trkpt lat="45.60418596759932" lon="11.069975357375785"><ele>974.3333333333334</ele><time>2026-04-04T13:49:49Z</time></trkpt><trkpt lat="45.60401958357751" lon="11.069980524430456"><ele>971.6666666666667</ele><time>2026-04-04T13:49:50Z</time></trkpt><trkpt lat="45.60386017239649" lon="11.0699903204331"><ele>969.0</ele><time>2026-04-04T13:49:51Z</time></trkpt><trkpt lat="45.60370451368844" lon="11.069999089572972"><ele>965.6666666666667</ele><time>2026-04-04T13:49:52Z</time></trkpt><trkpt lat="45.60354464598404" lon="11.070010274751787"><ele>962.3333333333334</ele><time>2026-04-04T13:49:53Z</time></trkpt><trkpt lat="45.60338545850351" lon="11.070025689398594"><ele>959.0</ele><time>2026-04-04T13:49:54Z</time></trkpt><trkpt lat="45.60322088059888" lon="11.070034714160595"><ele>959.0</ele><time>2026-04-04T13:49:55Z</time></trkpt><trkpt lat="45.60305353388623" lon="11.070046248326877"><ele>959.0</ele><time>2026-04-04T13:49:56Z</time></trkpt><trkpt lat="45.60288853469084" lon="11.070056860091885"><ele>959.0</ele><time>2026-04-04T13:49:57Z</time></trkpt><trkpt lat="45.602728330204776" lon="11.07007210039561"><ele>956.6666666666667</ele><time>2026-04-04T13:49:58Z</time></trkpt><trkpt lat="45.602570114273995" lon="11.070086438798416"><ele>954.3333333333333</ele><time>2026-04-04T13:49:59Z</time></trkpt><trkpt lat="45.60241274246603" lon="11.070095141159097"><ele>952.0</ele><time>2026-04-04T13:50:00Z</time></trkpt><trkpt lat="45.60225711560502" lon="11.070096215299053"><ele>952.0</ele><time>2026-04-04T13:50:01Z</time></trkpt><trkpt lat="45.60210020595282" lon="11.070089752005458"><ele>952.0</ele><time>2026-04-04T13:50:02Z</time></trkpt><trkpt lat="45.60195313094884" lon="11.070075086409314"><ele>952.0</ele><time>2026-04-04T13:50:03Z</time></trkpt><trkpt lat="45.60181417635324" lon="11.070038017522867"><ele>952.0</ele><time>2026-04-04T13:50:04Z</time></trkpt><trkpt lat="45.601678684101124" lon="11.069988206798202"><ele>947.5</ele><time>2026-04-04T13:50:05Z</time></trkpt><trkpt lat="45.6015499278045" lon="11.069935155098447"><ele>943.0</ele><time>2026-04-04T13:50:06Z</time></trkpt><trkpt lat="45.60143310181942" lon="11.069882979858942"><ele>938.5</ele><time>2026-04-04T13:50:07Z</time></trkpt><trkpt lat="45.6013241553755" lon="11.069843610676187"><ele>934.0</ele><time>2026-04-04T13:50:08Z</time></trkpt><trkpt lat="45.60122707124923" lon="11.069838209836432"><ele>933.0</ele><time>2026-04-04T13:50:09Z</time></trkpt><trkpt lat="45.6011371822606" lon="11.069873852611229"><ele>932.0000000000001</ele><time>2026-04-04T13:50:10Z</time></trkpt><trkpt lat="45.60107623056329" lon="11.069942794421175"><ele>931.0000000000001</ele><time>2026-04-04T13:50:11Z</time></trkpt><trkpt lat="45.60102702547093" lon="11.070026570510588"><ele>930.0</ele><time>2026-04-04T13:50:12Z</time></trkpt><trkpt lat="45.60104761958488" lon="11.070181855332487"><ele>929.0</ele><time>2026-04-04T13:50:13Z</time></trkpt><trkpt lat="45.601120025838405" lon="11.070313254201455"><ele>931.0</ele><time>2026-04-04T13:50:14Z</time></trkpt><trkpt lat="45.60119763127028" lon="11.070440424170108"><ele>933.0</ele><time>2026-04-04T13:50:15Z</time></trkpt><trkpt lat="45.60129349791393" lon="11.07055360120441"><ele>935.0</ele><time>2026-04-04T13:50:16Z</time></trkpt><trkpt lat="45.60137501866045" lon="11.070699334155284"><ele>937.0</ele><time>2026-04-04T13:50:17Z</time></trkpt><trkpt lat="45.601479671108265" lon="11.070826586871158"><ele>937.0</ele><time>2026-04-04T13:50:18Z</time></trkpt><trkpt lat="45.60159111318474" lon="11.070949489390749"><ele>937.0</ele><time>2026-04-04T13:50:18.999Z</time></trkpt><trkpt lat="45.60171061705276" lon="11.07106647793428"><ele>937.0</ele><time>2026-04-04T13:50:19.999Z</time></trkpt><trkpt lat="45.6018321201664" lon="11.07117686230863"><ele>937.0</ele><time>2026-04-04T13:50:20.999Z</time></trkpt><trkpt lat="45.601957919243056" lon="11.071261666715623"><ele>938.75</ele><time>2026-04-04T13:50:21.999Z</time></trkpt><trkpt lat="45.602064858824164" lon="11.071377636806611"><ele>940.5</ele><time>2026-04-04T13:50:22.999Z</time></trkpt><trkpt lat="45.602183048150714" lon="11.071461476393694"><ele>942.25</ele><time>2026-04-04T13:50:23.999Z</time></trkpt><trkpt lat="45.602311618633486" lon="11.071535573259743"><ele>944.0</ele><time>2026-04-04T13:50:24.999Z</time></trkpt><trkpt lat="45.60245517826133" lon="11.071592201476514"><ele>939.6666666666667</ele><time>2026-04-04T13:50:25.999Z</time></trkpt><trkpt lat="45.60260258097444" lon="11.071633445891852"><ele>935.3333333333333</ele><time>2026-04-04T13:50:26.999Z</time></trkpt><trkpt lat="45.60275670735894" lon="11.07167015370045"><ele>931.0</ele><time>2026-04-04T13:50:27.999Z</time></trkpt><trkpt lat="45.6029029813688" lon="11.071704601920226"><ele>931.0</ele><time>2026-04-04T13:50:28.999Z</time></trkpt><trkpt lat="45.60303815861973" lon="11.071743719803367"><ele>931.0</ele><time>2026-04-04T13:50:29.999Z</time></trkpt><trkpt lat="45.603164485084314" lon="11.071778956669766"><ele>931.0</ele><time>2026-04-04T13:50:30.999Z</time></trkpt><trkpt lat="45.603283178533175" lon="11.071803749604486"><ele>931.0</ele><time>2026-04-04T13:50:31.999Z</time></trkpt><trkpt lat="45.603364616491206" lon="11.071821554180557"><ele>930.9999999999999</ele><time>2026-04-04T13:50:32.999Z</time></trkpt><trkpt lat="45.60343631714321" lon="11.071839370648526"><ele>931.0</ele><time>2026-04-04T13:50:33.999Z</time></trkpt><trkpt lat="45.6034979079121" lon="11.071864908448688"><ele>931.0</ele><time>2026-04-04T13:50:34.999Z</time></trkpt><trkpt lat="45.60353549918717" lon="11.071982316676635"><ele>931.0</ele><time>2026-04-04T13:50:36.999Z</time></trkpt><trkpt lat="45.60347997950651" lon="11.072030574870002"><ele>930.9999999999999</ele><time>2026-04-04T13:50:37.999Z</time></trkpt><trkpt lat="45.603402002996184" lon="11.071975696083053"><ele>931.0</ele><time>2026-04-04T13:50:38.999Z</time></trkpt><trkpt lat="45.60329352752067" lon="11.07190793993296"><ele>931.0</ele><time>2026-04-04T13:50:39.999Z</time></trkpt><trkpt lat="45.60317027627569" lon="11.071866105618573"><ele>931.0</ele><time>2026-04-04T13:50:40.999Z</time></trkpt><trkpt lat="45.60302814074728" lon="11.071855229593975"><ele>931.0</ele><time>2026-04-04T13:50:41.999Z</time></trkpt><trkpt lat="45.60287993710412" lon="11.071849829215308"><ele>931.0</ele><time>2026-04-04T13:50:42.999Z</time></trkpt><trkpt lat="45.602729303507466" lon="11.071865054903574"><ele>929.0</ele><time>2026-04-04T13:50:43.999Z</time></trkpt><trkpt lat="45.60257069242695" lon="11.071854087664013"><ele>927.0</ele><time>2026-04-04T13:50:44.999Z</time></trkpt><trkpt lat="45.602411372815816" lon="11.071866516204123"><ele>925.0</ele><time>2026-04-04T13:50:45.999Z</time></trkpt><trkpt lat="45.60226255035035" lon="11.071870454726312"><ele>925.0</ele><time>2026-04-04T13:50:46.999Z</time></trkpt><trkpt lat="45.602115030784766" lon="11.071835128131193"><ele>925.0</ele><time>2026-04-04T13:50:47.999Z</time></trkpt><trkpt lat="45.601965990379504" lon="11.071771279697813"><ele>925.0</ele><time>2026-04-04T13:50:48.999Z</time></trkpt><trkpt lat="45.60181226876007" lon="11.07169471595777"><ele>924.0</ele><time>2026-04-04T13:50:49.999Z</time></trkpt><trkpt lat="45.60165526578512" lon="11.071614166043586"><ele>923.0</ele><time>2026-04-04T13:50:50.999Z</time></trkpt><trkpt lat="45.60149677675183" lon="11.071536725726233"><ele>922.0</ele><time>2026-04-04T13:50:51.999Z</time></trkpt><trkpt lat="45.601340056335495" lon="11.071462861843395"><ele>921.3333333333333</ele><time>2026-04-04T13:50:52.999Z</time></trkpt><trkpt lat="45.60118339730624" lon="11.071390191751032"><ele>920.6666666666667</ele><time>2026-04-04T13:50:53.999Z</time></trkpt><trkpt lat="45.601023620604934" lon="11.071313865535496"><ele>920.0</ele><time>2026-04-04T13:50:54.999Z</time></trkpt><trkpt lat="45.60086713667955" lon="11.071230447847807"><ele>920.0</ele><time>2026-04-04T13:50:55.999Z</time></trkpt><trkpt lat="45.60071519730907" lon="11.071134356459233"><ele>920.0</ele><time>2026-04-04T13:50:56.999Z</time></trkpt><trkpt lat="45.6005743346524" lon="11.071026006613065"><ele>920.0</ele><time>2026-04-04T13:50:57.999Z</time></trkpt><trkpt lat="45.60044754841809" lon="11.070916615301261"><ele>916.5</ele><time>2026-04-04T13:50:58.999Z</time></trkpt><trkpt lat="45.6003288326322" lon="11.070800215447337"><ele>913.0</ele><time>2026-04-04T13:50:59.999Z</time></trkpt><trkpt lat="45.600220867401546" lon="11.070673686419884"><ele>909.5</ele><time>2026-04-04T13:51:00.999Z</time></trkpt><trkpt lat="45.60012334769966" lon="11.070537905510584"><ele>906.0</ele><time>2026-04-04T13:51:01.999Z</time></trkpt><trkpt lat="45.60001001043632" lon="11.07040098230368"><ele>906.0</ele><time>2026-04-04T13:51:02.999Z</time></trkpt><trkpt lat="45.59990359523888" lon="11.070239526077872"><ele>906.0</ele><time>2026-04-04T13:51:03.999Z</time></trkpt><trkpt lat="45.59980243797003" lon="11.07005850517078"><ele>906.0</ele><time>2026-04-04T13:51:04.999Z</time></trkpt><trkpt lat="45.599687823574165" lon="11.06989652924623"><ele>906.5</ele><time>2026-04-04T13:51:05.999Z</time></trkpt><trkpt lat="45.5995816892839" lon="11.06974876593502"><ele>907.0</ele><time>2026-04-04T13:51:06.999Z</time></trkpt><trkpt lat="45.59946902034268" lon="11.06962559285096"><ele>907.5</ele><time>2026-04-04T13:51:07.999Z</time></trkpt><trkpt lat="45.59937597264982" lon="11.0694969877425"><ele>908.0</ele><time>2026-04-04T13:51:08.999Z</time></trkpt><trkpt lat="45.59930821071038" lon="11.069369084905965"><ele>903.0</ele><time>2026-04-04T13:51:09.999Z</time></trkpt><trkpt lat="45.59923740258801" lon="11.069283445509166"><ele>898.0</ele><time>2026-04-04T13:51:10.999Z</time></trkpt><trkpt lat="45.59920692082056" lon="11.06917260150173"><ele>893.0</ele><time>2026-04-04T13:51:11.999Z</time></trkpt><trkpt lat="45.59922191253038" lon="11.069041073424929"><ele>888.0</ele><time>2026-04-04T13:51:12.999Z</time></trkpt><trkpt lat="45.5992871179628" lon="11.068903238714851"><ele>883.0</ele><time>2026-04-04T13:51:13.999Z</time></trkpt><trkpt lat="45.599385852091864" lon="11.068752677463566"><ele>881.25</ele><time>2026-04-04T13:51:14.999Z</time></trkpt><trkpt lat="45.59948263314909" lon="11.068587548360938"><ele>879.5</ele><time>2026-04-04T13:51:15.999Z</time></trkpt><trkpt lat="45.59957237937545" lon="11.068416904068066"><ele>877.75</ele><time>2026-04-04T13:51:16.998Z</time></trkpt><trkpt lat="45.59965222530879" lon="11.068266917667406"><ele>876.0</ele><time>2026-04-04T13:51:17.998Z</time></trkpt><trkpt lat="45.59973843598238" lon="11.068153621040477"><ele>879.8</ele><time>2026-04-04T13:51:18.998Z</time></trkpt><trkpt lat="45.59984624932887" lon="11.068078971790506"><ele>883.5999999999999</ele><time>2026-04-04T13:51:19.998Z</time></trkpt><trkpt lat="45.59994351099188" lon="11.068034178417133"><ele>887.4</ele><time>2026-04-04T13:51:20.998Z</time></trkpt><trkpt lat="45.60001794945196" lon="11.06799998247481"><ele>891.2</ele><time>2026-04-04T13:51:21.998Z</time></trkpt><trkpt lat="45.60007917102287" lon="11.067958642224188"><ele>895.0</ele><time>2026-04-04T13:51:22.998Z</time></trkpt><trkpt lat="45.600095055168964" lon="11.067805768074246"><ele>895.0</ele><time>2026-04-04T13:51:24.998Z</time></trkpt><trkpt lat="45.600063759485" lon="11.067721281040445"><ele>895.0</ele><time>2026-04-04T13:51:26.998Z</time></trkpt><trkpt lat="45.59986896961717" lon="11.067830190720018"><ele>895.0</ele><time>2026-04-04T13:51:27.998Z</time></trkpt><trkpt lat="45.599747872102334" lon="11.067897475478658"><ele>895.0</ele><time>2026-04-04T13:51:28.998Z</time></trkpt><trkpt lat="45.599634894840875" lon="11.068008784910287"><ele>895.0</ele><time>2026-04-04T13:51:29.998Z</time></trkpt><trkpt lat="45.59950351404686" lon="11.068099984863899"><ele>895.0</ele><time>2026-04-04T13:51:30.998Z</time></trkpt><trkpt lat="45.59937588267093" lon="11.068185653482173"><ele>895.0</ele><time>2026-04-04T13:51:31.998Z</time></trkpt><trkpt lat="45.599260026229345" lon="11.06827053176018"><ele>895.0</ele><time>2026-04-04T13:51:32.998Z</time></trkpt><trkpt lat="45.599156451136835" lon="11.06835971409087"><ele>891.2</ele><time>2026-04-04T13:51:33.998Z</time></trkpt><trkpt lat="45.599048620287306" lon="11.068427602963185"><ele>887.4</ele><time>2026-04-04T13:51:34.998Z</time></trkpt><trkpt lat="45.59895493943232" lon="11.068501311133819"><ele>883.5999999999999</ele><time>2026-04-04T13:51:35.998Z</time></trkpt><trkpt lat="45.5988705891345" lon="11.06858475697071"><ele>879.8</ele><time>2026-04-04T13:51:36.998Z</time></trkpt><trkpt lat="45.59878767982865" lon="11.06865975991917"><ele>876.0</ele><time>2026-04-04T13:51:37.998Z</time></trkpt><trkpt lat="45.598701907134014" lon="11.068733903658643"><ele>873.1999999999999</ele><time>2026-04-04T13:51:38.998Z</time></trkpt><trkpt lat="45.598638203362185" lon="11.068829700444695"><ele>870.3999999999999</ele><time>2026-04-04T13:51:39.998Z</time></trkpt><trkpt lat="45.59859880840072" lon="11.068942483349607"><ele>867.6</ele><time>2026-04-04T13:51:40.998Z</time></trkpt><trkpt lat="45.598583710886544" lon="11.069075882573234"><ele>864.8</ele><time>2026-04-04T13:51:41.998Z</time></trkpt><trkpt lat="45.598589861526015" lon="11.06922221849302"><ele>862.0</ele><time>2026-04-04T13:51:42.998Z</time></trkpt><trkpt lat="45.59861824203303" lon="11.069374919300566"><ele>862.0</ele><time>2026-04-04T13:51:44Z</time></trkpt><trkpt lat="45.59864418515635" lon="11.069542774060562"><ele>862.0</ele><time>2026-04-04T13:51:45Z</time></trkpt><trkpt lat="45.598704407507036" lon="11.069709316786199"><ele>862.0</ele><time>2026-04-04T13:51:46Z</time></trkpt><trkpt lat="45.59877977423648" lon="11.069876171553654"><ele>862.0</ele><time>2026-04-04T13:51:47Z</time></trkpt><trkpt lat="45.5988663818141" lon="11.07004131686362"><ele>865.5</ele><time>2026-04-04T13:51:48Z</time></trkpt><trkpt lat="45.598952961953565" lon="11.070195615553969"><ele>869.0</ele><time>2026-04-04T13:51:49Z</time></trkpt><trkpt lat="45.599034995867136" lon="11.070336582090162"><ele>872.5</ele><time>2026-04-04T13:51:50Z</time></trkpt><trkpt lat="45.599108252955524" lon="11.070462466569102"><ele>876.0</ele><time>2026-04-04T13:51:51Z</time></trkpt><trkpt lat="45.59916985201978" lon="11.070568318009524"><ele>876.0</ele><time>2026-04-04T13:51:52Z</time></trkpt><trkpt lat="45.59922338051609" lon="11.07063272746809"><ele>875.9999999999999</ele><time>2026-04-04T13:51:53Z</time></trkpt><trkpt lat="45.59922379584635" lon="11.070798570966522"><ele>875.9999999999999</ele><time>2026-04-04T13:51:55Z</time></trkpt><trkpt lat="45.59916860882501" lon="11.070842500721408"><ele>876.0</ele><time>2026-04-04T13:51:56Z</time></trkpt><trkpt lat="45.5990815415903" lon="11.07083475231194"><ele>876.0</ele><time>2026-04-04T13:51:57Z</time></trkpt><trkpt lat="45.59897389182388" lon="11.070771685555203"><ele>876.0</ele><time>2026-04-04T13:51:58Z</time></trkpt><trkpt lat="45.59886191372681" lon="11.070695527693909"><ele>876.0</ele><time>2026-04-04T13:51:59Z</time></trkpt><trkpt lat="45.59874867427618" lon="11.070601278173285"><ele>876.0</ele><time>2026-04-04T13:52:00Z</time></trkpt><trkpt lat="45.5986231824323" lon="11.070491182121373"><ele>876.0</ele><time>2026-04-04T13:52:01Z</time></trkpt><trkpt lat="45.59848406611825" lon="11.070382979743151"><ele>869.6666666666667</ele><time>2026-04-04T13:52:02Z</time></trkpt><trkpt lat="45.59834120354959" lon="11.070263733498216"><ele>863.3333333333334</ele><time>2026-04-04T13:52:03Z</time></trkpt><trkpt lat="45.598210553342376" lon="11.070121381291807"><ele>857.0</ele><time>2026-04-04T13:52:04Z</time></trkpt><trkpt lat="45.59808052713489" lon="11.06999555317993"><ele>858.25</ele><time>2026-04-04T13:52:05Z</time></trkpt><trkpt lat="45.597955657105736" lon="11.069876595427116"><ele>859.5</ele><time>2026-04-04T13:52:06Z</time></trkpt><trkpt lat="45.59783353169847" lon="11.069765348412401"><ele>860.75</ele><time>2026-04-04T13:52:07Z</time></trkpt><trkpt lat="45.59771565890659" lon="11.069650485113584"><ele>862.0</ele><time>2026-04-04T13:52:08Z</time></trkpt><trkpt lat="45.59759522660564" lon="11.069547980759625"><ele>859.2</ele><time>2026-04-04T13:52:09Z</time></trkpt><trkpt lat="45.597487918489" lon="11.069451879882633"><ele>856.4000000000001</ele><time>2026-04-04T13:52:10Z</time></trkpt><trkpt lat="45.59739232728665" lon="11.069359657697575"><ele>853.5999999999999</ele><time>2026-04-04T13:52:11Z</time></trkpt><trkpt lat="45.59729807426773" lon="11.06929110638683"><ele>850.8</ele><time>2026-04-04T13:52:12Z</time></trkpt><trkpt lat="45.59719970266667" lon="11.069259441142515"><ele>848.0</ele><time>2026-04-04T13:52:13Z</time></trkpt><trkpt lat="45.59710097587937" lon="11.069282706779584"><ele>848.0</ele><time>2026-04-04T13:52:14Z</time></trkpt><trkpt lat="45.597014648937474" lon="11.06934901285296"><ele>848.0</ele><time>2026-04-04T13:52:15Z</time></trkpt><trkpt lat="45.59694162121824" lon="11.0694343546035"><ele>848.0</ele><time>2026-04-04T13:52:16Z</time></trkpt><trkpt lat="45.59686058459434" lon="11.069530171927006"><ele>848.0</ele><time>2026-04-04T13:52:17Z</time></trkpt><trkpt lat="45.596796853474714" lon="11.069615718661263"><ele>848.0</ele><time>2026-04-04T13:52:18Z</time></trkpt><trkpt lat="45.59675771476405" lon="11.069734981841854"><ele>847.8</ele><time>2026-04-04T13:52:19Z</time></trkpt><trkpt lat="45.596741377272615" lon="11.06988968234001"><ele>847.5999999999999</ele><time>2026-04-04T13:52:20Z</time></trkpt><trkpt lat="45.59673724918715" lon="11.070063109253367"><ele>847.4000000000001</ele><time>2026-04-04T13:52:21Z</time></trkpt><trkpt lat="45.59670666150678" lon="11.070220919413138"><ele>847.2</ele><time>2026-04-04T13:52:22Z</time></trkpt><trkpt lat="45.59668308610717" lon="11.070361416834974"><ele>847.0</ele><time>2026-04-04T13:52:23Z</time></trkpt><trkpt lat="45.59665607453061" lon="11.070474394524105"><ele>846.6</ele><time>2026-04-04T13:52:24Z</time></trkpt><trkpt lat="45.59662565623705" lon="11.070579280350955"><ele>846.2</ele><time>2026-04-04T13:52:25Z</time></trkpt><trkpt lat="45.59655161344029" lon="11.070637393146907"><ele>845.8</ele><time>2026-04-04T13:52:26Z</time></trkpt><trkpt lat="45.59646592002212" lon="11.070640170871213"><ele>845.4</ele><time>2026-04-04T13:52:26.999Z</time></trkpt><trkpt lat="45.59637652121453" lon="11.07058966371838"><ele>845.0</ele><time>2026-04-04T13:52:27.999Z</time></trkpt><trkpt lat="45.59628513803504" lon="11.070491869396237"><ele>845.0</ele><time>2026-04-04T13:52:28.999Z</time></trkpt><trkpt lat="45.59618528591754" lon="11.07037936988609"><ele>845.0</ele><time>2026-04-04T13:52:29.999Z</time></trkpt><trkpt lat="45.59606432331258" lon="11.070291156782146"><ele>845.0</ele><time>2026-04-04T13:52:30.999Z</time></trkpt><trkpt lat="45.595937081090035" lon="11.070199930466556"><ele>845.0</ele><time>2026-04-04T13:52:31.999Z</time></trkpt><trkpt lat="45.59579948684296" lon="11.070097545185805"><ele>844.6666666666667</ele><time>2026-04-04T13:52:32.999Z</time></trkpt><trkpt lat="45.59565537802276" lon="11.069995815983152"><ele>844.3333333333333</ele><time>2026-04-04T13:52:33.999Z</time></trkpt><trkpt lat="45.59550543487232" lon="11.069892266155025"><ele>844.0</ele><time>2026-04-04T13:52:34.999Z</time></trkpt><trkpt lat="45.595357336468574" lon="11.069799673764988"><ele>841.6666666666666</ele><time>2026-04-04T13:52:35.999Z</time></trkpt><trkpt lat="45.59521347332017" lon="11.069706542565404"><ele>839.3333333333333</ele><time>2026-04-04T13:52:36.999Z</time></trkpt><trkpt lat="45.595072439723126" lon="11.06961369646091"><ele>837.0</ele><time>2026-04-04T13:52:37.999Z</time></trkpt><trkpt lat="45.594933284155275" lon="11.069517276523618"><ele>837.0</ele><time>2026-04-04T13:52:38.999Z</time></trkpt><trkpt lat="45.594796612254804" lon="11.069421618789596"><ele>837.0</ele><time>2026-04-04T13:52:39.999Z</time></trkpt><trkpt lat="45.59466623319701" lon="11.069322725658832"><ele>837.0</ele><time>2026-04-04T13:52:40.999Z</time></trkpt><trkpt lat="45.59453369810824" lon="11.069221155086163"><ele>835.0</ele><time>2026-04-04T13:52:41.999Z</time></trkpt><trkpt lat="45.5944057314644" lon="11.06911243328721"><ele>833.0</ele><time>2026-04-04T13:52:42.999Z</time></trkpt><trkpt lat="45.59428468248455" lon="11.068986750608618"><ele>831.0</ele><time>2026-04-04T13:52:43.999Z</time></trkpt><trkpt lat="45.59417934474007" lon="11.068821275562094"><ele>831.0</ele><time>2026-04-04T13:52:44.999Z</time></trkpt><trkpt lat="45.594092417403225" lon="11.068627405746202"><ele>831.0</ele><time>2026-04-04T13:52:45.999Z</time></trkpt><trkpt lat="45.59401024807132" lon="11.068422404075692"><ele>831.0</ele><time>2026-04-04T13:52:46.999Z</time></trkpt><trkpt lat="45.59392467183005" lon="11.06823031763166"><ele>829.5</ele><time>2026-04-04T13:52:47.999Z</time></trkpt><trkpt lat="45.59384207724584" lon="11.068046930690523"><ele>828.0</ele><time>2026-04-04T13:52:48.999Z</time></trkpt><trkpt lat="45.593770148696194" lon="11.067867450675907"><ele>826.5</ele><time>2026-04-04T13:52:49.999Z</time></trkpt><trkpt lat="45.59370858652014" lon="11.067704961237878"><ele>825.0</ele><time>2026-04-04T13:52:50.999Z</time></trkpt><trkpt lat="45.59365037019994" lon="11.067554856946623"><ele>828.5</ele><time>2026-04-04T13:52:51.999Z</time></trkpt><trkpt lat="45.59359538922643" lon="11.067400772644088"><ele>832.0</ele><time>2026-04-04T13:52:52.999Z</time></trkpt><trkpt lat="45.593550650516434" lon="11.06723467589947"><ele>835.5</ele><time>2026-04-04T13:52:53.999Z</time></trkpt><trkpt lat="45.59352926771973" lon="11.06705845349555"><ele>839.0</ele><time>2026-04-04T13:52:54.999Z</time></trkpt><trkpt lat="45.59351859130905" lon="11.066892009253786"><ele>839.0</ele><time>2026-04-04T13:52:55.999Z</time></trkpt><trkpt lat="45.59350621960648" lon="11.066727285235586"><ele>839.0</ele><time>2026-04-04T13:52:56.999Z</time></trkpt><trkpt lat="45.593507140852026" lon="11.066574070456074"><ele>839.0</ele><time>2026-04-04T13:52:57.999Z</time></trkpt><trkpt lat="45.59348350350811" lon="11.066436052754508"><ele>839.0</ele><time>2026-04-04T13:52:58.999Z</time></trkpt><trkpt lat="45.593464617523864" lon="11.0663182949896"><ele>839.0</ele><time>2026-04-04T13:52:59.999Z</time></trkpt><trkpt lat="45.593456309302276" lon="11.066205503466973"><ele>838.5000000000001</ele><time>2026-04-04T13:53:00.999Z</time></trkpt><trkpt lat="45.593446143426846" lon="11.066103488130638"><ele>838.0</ele><time>2026-04-04T13:53:01.999Z</time></trkpt><trkpt lat="45.5934421179783" lon="11.065968565945584"><ele>837.5</ele><time>2026-04-04T13:53:03.999Z</time></trkpt><trkpt lat="45.59342092924674" lon="11.065881356302102"><ele>837.0</ele><time>2026-04-04T13:53:05.999Z</time></trkpt><trkpt lat="45.59337273128948" lon="11.065803146686427"><ele>836.5000000000001</ele><time>2026-04-04T13:53:07.999Z</time></trkpt><trkpt lat="45.59328713630896" lon="11.065738091537682"><ele>836.0</ele><time>2026-04-04T13:53:09.999Z</time></trkpt><trkpt lat="45.593156855604036" lon="11.06588310268842"><ele>836.0</ele><time>2026-04-04T13:53:11.999Z</time></trkpt><trkpt lat="45.59309149847097" lon="11.065985972999005"><ele>836.0</ele><time>2026-04-04T13:53:12.999Z</time></trkpt><trkpt lat="45.59302523586142" lon="11.066084059032242"><ele>836.0</ele><time>2026-04-04T13:53:13.999Z</time></trkpt><trkpt lat="45.59292106693411" lon="11.066172147153788"><ele>836.0</ele><time>2026-04-04T13:53:14.999Z</time></trkpt><trkpt lat="45.59281934473368" lon="11.066252034659351"><ele>836.0</ele><time>2026-04-04T13:53:15.999Z</time></trkpt><trkpt lat="45.59273809715788" lon="11.066359375842936"><ele>835.8</ele><time>2026-04-04T13:53:16.999Z</time></trkpt><trkpt lat="45.59265845364764" lon="11.066450959611345"><ele>835.5999999999999</ele><time>2026-04-04T13:53:17.999Z</time></trkpt><trkpt lat="45.592589731538666" lon="11.066538614747314"><ele>835.4</ele><time>2026-04-04T13:53:18.999Z</time></trkpt><trkpt lat="45.59252919753311" lon="11.066647614271643"><ele>835.2</ele><time>2026-04-04T13:53:19.999Z</time></trkpt><trkpt lat="45.59245565322855" lon="11.066745308301508"><ele>835.0</ele><time>2026-04-04T13:53:20.999Z</time></trkpt><trkpt lat="45.59238845797961" lon="11.06686600649383"><ele>834.9999999999999</ele><time>2026-04-04T13:53:21.999Z</time></trkpt><trkpt lat="45.59232993819681" lon="11.066976428186553"><ele>835.0</ele><time>2026-04-04T13:53:22.999Z</time></trkpt><trkpt lat="45.59227303523488" lon="11.067079766924415"><ele>835.0</ele><time>2026-04-04T13:53:23.999Z</time></trkpt><trkpt lat="45.592225657537256" lon="11.06717888645674"><ele>835.0</ele><time>2026-04-04T13:53:24.998Z</time></trkpt><trkpt lat="45.59218649668194" lon="11.067280090683733"><ele>834.9999999999999</ele><time>2026-04-04T13:53:25.998Z</time></trkpt><trkpt lat="45.59214520378431" lon="11.067369068453106"><ele>835.0</ele><time>2026-04-04T13:53:26.998Z</time></trkpt><trkpt lat="45.5920999601822" lon="11.067458292929835"><ele>837.0</ele><time>2026-04-04T13:53:27.998Z</time></trkpt><trkpt lat="45.5920432704984" lon="11.067565719355729"><ele>839.0</ele><time>2026-04-04T13:53:28.998Z</time></trkpt><trkpt lat="45.59197538660943" lon="11.067680276834626"><ele>841.0</ele><time>2026-04-04T13:53:29.998Z</time></trkpt><trkpt lat="45.591904069317074" lon="11.067811450290108"><ele>843.0</ele><time>2026-04-04T13:53:30.998Z</time></trkpt><trkpt lat="45.59182592662283" lon="11.067945762291203"><ele>845.0</ele><time>2026-04-04T13:53:31.998Z</time></trkpt><trkpt lat="45.59173913799249" lon="11.068084062687975"><ele>840.25</ele><time>2026-04-04T13:53:32.998Z</time></trkpt><trkpt lat="45.59164686395715" lon="11.068206337103627"><ele>835.5</ele><time>2026-04-04T13:53:33.998Z</time></trkpt><trkpt lat="45.591548421950094" lon="11.068331780111205"><ele>830.75</ele><time>2026-04-04T13:53:34.998Z</time></trkpt><trkpt lat="45.591447649376526" lon="11.068476843072252"><ele>826.0</ele><time>2026-04-04T13:53:35.998Z</time></trkpt><trkpt lat="45.59134261236119" lon="11.068648435053527"><ele>826.0</ele><time>2026-04-04T13:53:36.998Z</time></trkpt><trkpt lat="45.59124158208671" lon="11.068838377717848"><ele>826.0</ele><time>2026-04-04T13:53:37.998Z</time></trkpt><trkpt lat="45.59115138188073" lon="11.069025829233825"><ele>826.0</ele><time>2026-04-04T13:53:38.998Z</time></trkpt><trkpt lat="45.59105492999786" lon="11.069208481542125"><ele>819.3333333333333</ele><time>2026-04-04T13:53:39.998Z</time></trkpt><trkpt lat="45.59095827172693" lon="11.069401002125588"><ele>812.6666666666667</ele><time>2026-04-04T13:53:40.998Z</time></trkpt><trkpt lat="45.590869819279206" lon="11.069586465423658"><ele>806.0</ele><time>2026-04-04T13:53:41.998Z</time></trkpt><trkpt lat="45.59076798748949" lon="11.069773797734076"><ele>809.25</ele><time>2026-04-04T13:53:42.998Z</time></trkpt><trkpt lat="45.59067738230718" lon="11.069949251829371"><ele>812.5</ele><time>2026-04-04T13:53:43.998Z</time></trkpt><trkpt lat="45.59059364877993" lon="11.070112066588646"><ele>815.75</ele><time>2026-04-04T13:53:44.998Z</time></trkpt><trkpt lat="45.590514310254235" lon="11.070266232838325"><ele>819.0</ele><time>2026-04-04T13:53:45.998Z</time></trkpt><trkpt lat="45.590445738390414" lon="11.070418895024629"><ele>819.0</ele><time>2026-04-04T13:53:46.998Z</time></trkpt><trkpt lat="45.59038948927054" lon="11.07056453712043"><ele>819.0</ele><time>2026-04-04T13:53:47.998Z</time></trkpt><trkpt lat="45.5903484351812" lon="11.07069287079149"><ele>819.0</ele><time>2026-04-04T13:53:48.998Z</time></trkpt><trkpt lat="45.59030804890554" lon="11.070799085141921"><ele>819.0</ele><time>2026-04-04T13:53:50Z</time></trkpt><trkpt lat="45.59022724446722" lon="11.070921168425528"><ele>819.0</ele><time>2026-04-04T13:53:52Z</time></trkpt><trkpt lat="45.59012220188028" lon="11.070903455442808"><ele>818.0</ele><time>2026-04-04T13:53:54Z</time></trkpt><trkpt lat="45.59002043936277" lon="11.070829276185556"><ele>817.0</ele><time>2026-04-04T13:53:56Z</time></trkpt><trkpt lat="45.59009023541671" lon="11.070614849573241"><ele>816.0</ele><time>2026-04-04T13:53:57Z</time></trkpt><trkpt lat="45.59012311782109" lon="11.070434311838936"><ele>815.0</ele><time>2026-04-04T13:53:58Z</time></trkpt><trkpt lat="45.59015114766415" lon="11.070217520403324"><ele>813.6666666666667</ele><time>2026-04-04T13:53:59Z</time></trkpt><trkpt lat="45.590198290974996" lon="11.069990998577621"><ele>812.3333333333333</ele><time>2026-04-04T13:54:00Z</time></trkpt><trkpt lat="45.590237840372765" lon="11.069788953882629"><ele>811.0</ele><time>2026-04-04T13:54:01Z</time></trkpt><trkpt lat="45.5902720085734" lon="11.069597152178371"><ele>810.0</ele><time>2026-04-04T13:54:02Z</time></trkpt><trkpt lat="45.59030622469743" lon="11.069414196616414"><ele>809.0</ele><time>2026-04-04T13:54:03Z</time></trkpt><trkpt lat="45.590305775291014" lon="11.069213038556487"><ele>808.0</ele><time>2026-04-04T13:54:04Z</time></trkpt><trkpt lat="45.590290921132215" lon="11.068991064682105"><ele>807.0</ele><time>2026-04-04T13:54:05Z</time></trkpt><trkpt lat="45.590238965658585" lon="11.06876902475589"><ele>805.75</ele><time>2026-04-04T13:54:06Z</time></trkpt><trkpt lat="45.5901922643032" lon="11.068555366358773"><ele>804.5</ele><time>2026-04-04T13:54:07Z</time></trkpt><trkpt lat="45.59014621180825" lon="11.068370937403644"><ele>803.25</ele><time>2026-04-04T13:54:08Z</time></trkpt><trkpt lat="45.590105490496114" lon="11.068189700816564"><ele>802.0</ele><time>2026-04-04T13:54:09Z</time></trkpt><trkpt lat="45.59004477990154" lon="11.068018347032078"><ele>799.5</ele><time>2026-04-04T13:54:10Z</time></trkpt><trkpt lat="45.58995301706909" lon="11.067868574203933"><ele>797.0</ele><time>2026-04-04T13:54:11Z</time></trkpt><trkpt lat="45.58983424855234" lon="11.06775143086932"><ele>794.5</ele><time>2026-04-04T13:54:12Z</time></trkpt><trkpt lat="45.58970561772739" lon="11.067669349150881"><ele>792.0</ele><time>2026-04-04T13:54:13Z</time></trkpt><trkpt lat="45.589561945885215" lon="11.067616200790962"><ele>793.6666666666667</ele><time>2026-04-04T13:54:14Z</time></trkpt><trkpt lat="45.58941598760095" lon="11.06756785260572"><ele>795.3333333333334</ele><time>2026-04-04T13:54:15Z</time></trkpt><trkpt lat="45.5892585043008" lon="11.067513920075456"><ele>797.0</ele><time>2026-04-04T13:54:16Z</time></trkpt><trkpt lat="45.58910469976667" lon="11.067464634789962"><ele>796.6666666666667</ele><time>2026-04-04T13:54:17Z</time></trkpt><trkpt lat="45.58894021566854" lon="11.06741196014519"><ele>796.3333333333333</ele><time>2026-04-04T13:54:18Z</time></trkpt><trkpt lat="45.58877114942348" lon="11.067363042280428"><ele>796.0</ele><time>2026-04-04T13:54:19Z</time></trkpt><trkpt lat="45.588614181936855" lon="11.0673170154274"><ele>795.6666666666666</ele><time>2026-04-04T13:54:20Z</time></trkpt><trkpt lat="45.588449984493614" lon="11.067263808902103"><ele>795.3333333333333</ele><time>2026-04-04T13:54:21Z</time></trkpt><trkpt lat="45.58829115040515" lon="11.067219074177832"><ele>795.0</ele><time>2026-04-04T13:54:22Z</time></trkpt><trkpt lat="45.58814932639148" lon="11.067175410366529"><ele>795.0</ele><time>2026-04-04T13:54:23Z</time></trkpt><trkpt lat="45.58801940668527" lon="11.067119747267034"><ele>795.0</ele><time>2026-04-04T13:54:24Z</time></trkpt><trkpt lat="45.58790739498349" lon="11.06703868098984"><ele>795.0</ele><time>2026-04-04T13:54:25Z</time></trkpt><trkpt lat="45.58782344729502" lon="11.066895396215873"><ele>795.0</ele><time>2026-04-04T13:54:26Z</time></trkpt><trkpt lat="45.58777461183572" lon="11.06671334219165"><ele>793.5</ele><time>2026-04-04T13:54:27Z</time></trkpt><trkpt lat="45.587741851463235" lon="11.066514466734755"><ele>792.0</ele><time>2026-04-04T13:54:28Z</time></trkpt><trkpt lat="45.587703355775766" lon="11.06631983230248"><ele>790.5</ele><time>2026-04-04T13:54:29Z</time></trkpt><trkpt lat="45.58762193204545" lon="11.066134989235529"><ele>789.0</ele><time>2026-04-04T13:54:30Z</time></trkpt><trkpt lat="45.58751898281599" lon="11.065968555474445"><ele>789.0</ele><time>2026-04-04T13:54:31Z</time></trkpt><trkpt lat="45.58738606092717" lon="11.065849782962701"><ele>789.0</ele><time>2026-04-04T13:54:31.999Z</time></trkpt><trkpt lat="45.58723368126008" lon="11.065764219332175"><ele>789.0</ele><time>2026-04-04T13:54:32.999Z</time></trkpt><trkpt lat="45.58706603619956" lon="11.065696502354788"><ele>783.6666666666667</ele><time>2026-04-04T13:54:33.999Z</time></trkpt><trkpt lat="45.5868917547757" lon="11.065617382028195"><ele>778.3333333333334</ele><time>2026-04-04T13:54:34.999Z</time></trkpt><trkpt lat="45.586708573642056" lon="11.065533176839784"><ele>773.0</ele><time>2026-04-04T13:54:35.999Z</time></trkpt><trkpt lat="45.58652568942572" lon="11.065434628238055"><ele>773.0</ele><time>2026-04-04T13:54:36.999Z</time></trkpt><trkpt lat="45.58635623646946" lon="11.065354202209754"><ele>773.0</ele><time>2026-04-04T13:54:37.999Z</time></trkpt><trkpt lat="45.58619500191203" lon="11.0652731257982"><ele>773.0</ele><time>2026-04-04T13:54:38.999Z</time></trkpt><trkpt lat="45.58605127121868" lon="11.065202449567707"><ele>776.3333333333334</ele><time>2026-04-04T13:54:39.999Z</time></trkpt><trkpt lat="45.58591341198346" lon="11.065167099541156"><ele>779.6666666666667</ele><time>2026-04-04T13:54:40.999Z</time></trkpt><trkpt lat="45.58575863717078" lon="11.065179511313447"><ele>783.0</ele><time>2026-04-04T13:54:41.999Z</time></trkpt><trkpt lat="45.58559402228631" lon="11.06523252622923"><ele>783.0</ele><time>2026-04-04T13:54:42.999Z</time></trkpt><trkpt lat="45.585429477372024" lon="11.065304491605989"><ele>783.0</ele><time>2026-04-04T13:54:43.999Z</time></trkpt><trkpt lat="45.58527192397182" lon="11.065371877349943"><ele>783.0</ele><time>2026-04-04T13:54:44.999Z</time></trkpt><trkpt lat="45.585125427565856" lon="11.065423401024763"><ele>781.75</ele><time>2026-04-04T13:54:45.999Z</time></trkpt><trkpt lat="45.58500478369789" lon="11.06546661539785"><ele>780.5</ele><time>2026-04-04T13:54:46.999Z</time></trkpt><trkpt lat="45.58488371538835" lon="11.065486424936212"><ele>779.25</ele><time>2026-04-04T13:54:47.999Z</time></trkpt><trkpt lat="45.58476657297938" lon="11.0654422421602"><ele>778.0</ele><time>2026-04-04T13:54:48.999Z</time></trkpt><trkpt lat="45.58465695647971" lon="11.065338040420642"><ele>778.0</ele><time>2026-04-04T13:54:49.999Z</time></trkpt><trkpt lat="45.58456392213992" lon="11.065176932495838"><ele>778.0</ele><time>2026-04-04T13:54:50.999Z</time></trkpt><trkpt lat="45.584490778102115" lon="11.064973272023959"><ele>778.0</ele><time>2026-04-04T13:54:51.999Z</time></trkpt><trkpt lat="45.58440933326782" lon="11.064762471006981"><ele>774.0</ele><time>2026-04-04T13:54:52.999Z</time></trkpt><trkpt lat="45.58429987502036" lon="11.064563126779575"><ele>770.0</ele><time>2026-04-04T13:54:53.999Z</time></trkpt><trkpt lat="45.584169414628946" lon="11.064373134736712"><ele>766.0</ele><time>2026-04-04T13:54:54.999Z</time></trkpt><trkpt lat="45.58403585312972" lon="11.064189815040232"><ele>766.6666666666667</ele><time>2026-04-04T13:54:55.999Z</time></trkpt><trkpt lat="45.58390813300887" lon="11.064013757894946"><ele>767.3333333333334</ele><time>2026-04-04T13:54:56.999Z</time></trkpt><trkpt lat="45.583792102584525" lon="11.063843241310034"><ele>768.0</ele><time>2026-04-04T13:54:57.999Z</time></trkpt><trkpt lat="45.583686987634614" lon="11.063675814466357"><ele>763.0</ele><time>2026-04-04T13:54:58.999Z</time></trkpt><trkpt lat="45.583588731562685" lon="11.063507672596558"><ele>758.0</ele><time>2026-04-04T13:54:59.999Z</time></trkpt><trkpt lat="45.58349201481838" lon="11.063334636454078"><ele>753.0</ele><time>2026-04-04T13:55:00.999Z</time></trkpt><trkpt lat="45.58339743282857" lon="11.063144588469168"><ele>753.0</ele><time>2026-04-04T13:55:01.999Z</time></trkpt><trkpt lat="45.58330530080328" lon="11.062931965552005"><ele>753.0</ele><time>2026-04-04T13:55:02.999Z</time></trkpt><trkpt lat="45.583215750861" lon="11.062704735243278"><ele>753.0</ele><time>2026-04-04T13:55:03.999Z</time></trkpt><trkpt lat="45.58312949333115" lon="11.06248158716036"><ele>753.6666666666666</ele><time>2026-04-04T13:55:04.999Z</time></trkpt><trkpt lat="45.583052228072695" lon="11.062271269704603"><ele>754.3333333333333</ele><time>2026-04-04T13:55:05.999Z</time></trkpt><trkpt lat="45.582980901514496" lon="11.062068631546163"><ele>755.0</ele><time>2026-04-04T13:55:06.999Z</time></trkpt><trkpt lat="45.58291661600698" lon="11.061876522856526"><ele>755.0</ele><time>2026-04-04T13:55:07.999Z</time></trkpt><trkpt lat="45.58285942145327" lon="11.061688685221059"><ele>755.0</ele><time>2026-04-04T13:55:08.999Z</time></trkpt><trkpt lat="45.58283066174839" lon="11.061493225208137"><ele>755.0</ele><time>2026-04-04T13:55:09.999Z</time></trkpt><trkpt lat="45.582831735523676" lon="11.061281728698315"><ele>755.0</ele><time>2026-04-04T13:55:10.999Z</time></trkpt><trkpt lat="45.58286253847524" lon="11.06108615697373"><ele>751.0</ele><time>2026-04-04T13:55:11.999Z</time></trkpt><trkpt lat="45.582928461717266" lon="11.06089131160349"><ele>747.0</ele><time>2026-04-04T13:55:12.999Z</time></trkpt><trkpt lat="45.58302680968284" lon="11.060716826772262"><ele>743.0</ele><time>2026-04-04T13:55:13.999Z</time></trkpt><trkpt lat="45.583148264132234" lon="11.060580593582483"><ele>736.3333333333333</ele><time>2026-04-04T13:55:14.999Z</time></trkpt><trkpt lat="45.5832923318243" lon="11.060485754843015"><ele>729.6666666666666</ele><time>2026-04-04T13:55:15.999Z</time></trkpt><trkpt lat="45.58345496771701" lon="11.060424221073381"><ele>723.0</ele><time>2026-04-04T13:55:16.999Z</time></trkpt><trkpt lat="45.58362713398669" lon="11.060375574080219"><ele>724.0</ele><time>2026-04-04T13:55:17.999Z</time></trkpt><trkpt lat="45.58379936642741" lon="11.060319075943358"><ele>725.0</ele><time>2026-04-04T13:55:18.999Z</time></trkpt><trkpt lat="45.58396727724533" lon="11.060255387682615"><ele>726.0</ele><time>2026-04-04T13:55:19.999Z</time></trkpt><trkpt lat="45.58413002545186" lon="11.060212035838443"><ele>726.0</ele><time>2026-04-04T13:55:20.999Z</time></trkpt><trkpt lat="45.58427979074266" lon="11.06016804339888"><ele>726.0</ele><time>2026-04-04T13:55:21.999Z</time></trkpt><trkpt lat="45.58442465322943" lon="11.060135570795431"><ele>726.0</ele><time>2026-04-04T13:55:22.999Z</time></trkpt><trkpt lat="45.58456734849339" lon="11.060140069601527"><ele>726.0</ele><time>2026-04-04T13:55:23.999Z</time></trkpt><trkpt lat="45.58472355119521" lon="11.06016279209187"><ele>724.75</ele><time>2026-04-04T13:55:24.999Z</time></trkpt><trkpt lat="45.58487938390369" lon="11.060186109061517"><ele>723.5</ele><time>2026-04-04T13:55:25.999Z</time></trkpt><trkpt lat="45.58502590080747" lon="11.060210381658354"><ele>722.25</ele><time>2026-04-04T13:55:26.999Z</time></trkpt><trkpt lat="45.58516533471587" lon="11.06023878303411"><ele>721.0</ele><time>2026-04-04T13:55:27.999Z</time></trkpt><trkpt lat="45.58529383612049" lon="11.060277597945813"><ele>719.75</ele><time>2026-04-04T13:55:28.999Z</time></trkpt><trkpt lat="45.585403383987504" lon="11.060349611063664"><ele>718.5</ele><time>2026-04-04T13:55:29.998Z</time></trkpt><trkpt lat="45.58550360174417" lon="11.060448797431368"><ele>717.25</ele><time>2026-04-04T13:55:30.998Z</time></trkpt><trkpt lat="45.58559347012476" lon="11.060590019615692"><ele>716.0</ele><time>2026-04-04T13:55:31.998Z</time></trkpt><trkpt lat="45.58567487270512" lon="11.060737346718298"><ele>716.0</ele><time>2026-04-04T13:55:32.998Z</time></trkpt><trkpt lat="45.58573915963028" lon="11.060837174027863"><ele>716.0</ele><time>2026-04-04T13:55:33.998Z</time></trkpt><trkpt lat="45.58581800961796" lon="11.060898627675158"><ele>716.0</ele><time>2026-04-04T13:55:34.998Z</time></trkpt><trkpt lat="45.5858975494144" lon="11.060896802384715"><ele>716.0</ele><time>2026-04-04T13:55:35.998Z</time></trkpt><trkpt lat="45.58595369871251" lon="11.060800935022947"><ele>716.0</ele><time>2026-04-04T13:55:36.998Z</time></trkpt><trkpt lat="45.585973091018914" lon="11.06068742874029"><ele>716.0</ele><time>2026-04-04T13:55:37.998Z</time></trkpt><trkpt lat="45.58594256401947" lon="11.060530415644841"><ele>716.0</ele><time>2026-04-04T13:55:38.998Z</time></trkpt><trkpt lat="45.58587048740418" lon="11.060351222780156"><ele>716.0</ele><time>2026-04-04T13:55:39.998Z</time></trkpt><trkpt lat="45.58579733077711" lon="11.060163914572014"><ele>716.0</ele><time>2026-04-04T13:55:40.998Z</time></trkpt><trkpt lat="45.585764148337915" lon="11.059975542156844"><ele>716.0</ele><time>2026-04-04T13:55:41.998Z</time></trkpt><trkpt lat="45.585755470036055" lon="11.059757460185283"><ele>715.0</ele><time>2026-04-04T13:55:42.998Z</time></trkpt><trkpt lat="45.58576729626674" lon="11.059510980730368"><ele>714.0</ele><time>2026-04-04T13:55:43.998Z</time></trkpt><trkpt lat="45.58578417102115" lon="11.059248726373372"><ele>713.0</ele><time>2026-04-04T13:55:44.998Z</time></trkpt><trkpt lat="45.585796853021684" lon="11.058969302123078"><ele>711.6666666666666</ele><time>2026-04-04T13:55:45.998Z</time></trkpt><trkpt lat="45.58580303465888" lon="11.05871067234484"><ele>710.3333333333334</ele><time>2026-04-04T13:55:46.998Z</time></trkpt><trkpt lat="45.585811275518694" lon="11.058470813116573"><ele>709.0</ele><time>2026-04-04T13:55:47.998Z</time></trkpt><trkpt lat="45.58582077237334" lon="11.058243127790023"><ele>707.6666666666667</ele><time>2026-04-04T13:55:48.998Z</time></trkpt><trkpt lat="45.58582832605351" lon="11.05802341646098"><ele>706.3333333333334</ele><time>2026-04-04T13:55:49.998Z</time></trkpt><trkpt lat="45.58584808986211" lon="11.057811151631677"><ele>705.0</ele><time>2026-04-04T13:55:50.998Z</time></trkpt><trkpt lat="45.58591190842375" lon="11.057617653905952"><ele>705.0</ele><time>2026-04-04T13:55:51.998Z</time></trkpt><trkpt lat="45.58600831931639" lon="11.057462714066872"><ele>705.0</ele><time>2026-04-04T13:55:52.998Z</time></trkpt><trkpt lat="45.58613823352558" lon="11.057303350548944"><ele>705.0</ele><time>2026-04-04T13:55:53.998Z</time></trkpt><trkpt lat="45.58627916836982" lon="11.057141275596285"><ele>702.6666666666666</ele><time>2026-04-04T13:55:54.998Z</time></trkpt><trkpt lat="45.58642528435624" lon="11.056973533387563"><ele>700.3333333333333</ele><time>2026-04-04T13:55:56Z</time></trkpt><trkpt lat="45.58657050611111" lon="11.056805968578642"><ele>698.0</ele><time>2026-04-04T13:55:57Z</time></trkpt><trkpt lat="45.586707627229934" lon="11.056635359512754"><ele>699.6666666666666</ele><time>2026-04-04T13:55:58Z</time></trkpt><trkpt lat="45.58682646311305" lon="11.056460113013628"><ele>701.3333333333334</ele><time>2026-04-04T13:55:59Z</time></trkpt><trkpt lat="45.58692610701678" lon="11.056264872196397"><ele>703.0</ele><time>2026-04-04T13:56:00Z</time></trkpt><trkpt lat="45.587017943456175" lon="11.056051050199722"><ele>703.0</ele><time>2026-04-04T13:56:01Z</time></trkpt><trkpt lat="45.58710833956938" lon="11.055830596690214"><ele>703.0</ele><time>2026-04-04T13:56:02Z</time></trkpt><trkpt lat="45.587199730216" lon="11.055607717453592"><ele>703.0</ele><time>2026-04-04T13:56:03Z</time></trkpt><trkpt lat="45.58729207318216" lon="11.055382515974538"><ele>695.6666666666667</ele><time>2026-04-04T13:56:04Z</time></trkpt><trkpt lat="45.587384464611986" lon="11.055157196636193"><ele>688.3333333333334</ele><time>2026-04-04T13:56:05Z</time></trkpt><trkpt lat="45.58747700458572" lon="11.054934756286697"><ele>681.0</ele><time>2026-04-04T13:56:06Z</time></trkpt><trkpt lat="45.58756488021998" lon="11.054724126223725"><ele>677.0</ele><time>2026-04-04T13:56:07Z</time></trkpt><trkpt lat="45.58764548022594" lon="11.054526258954818"><ele>673.0</ele><time>2026-04-04T13:56:08Z</time></trkpt><trkpt lat="45.58770387781165" lon="11.054325565387337"><ele>669.0</ele><time>2026-04-04T13:56:09Z</time></trkpt><trkpt lat="45.58774962487252" lon="11.05413189345659"><ele>665.75</ele><time>2026-04-04T13:56:10Z</time></trkpt><trkpt lat="45.587752491498534" lon="11.053933586036543"><ele>662.5</ele><time>2026-04-04T13:56:11Z</time></trkpt><trkpt lat="45.58776067372945" lon="11.053745065376837"><ele>659.25</ele><time>2026-04-04T13:56:12Z</time></trkpt><trkpt lat="45.58777726552162" lon="11.053559994981464"><ele>656.0</ele><time>2026-04-04T13:56:13Z</time></trkpt><trkpt lat="45.58782598588549" lon="11.053383145299671"><ele>656.5</ele><time>2026-04-04T13:56:14Z</time></trkpt><trkpt lat="45.58790354293027" lon="11.053210428465617"><ele>657.0</ele><time>2026-04-04T13:56:15Z</time></trkpt><trkpt lat="45.58801279993485" lon="11.053059676406711"><ele>657.5</ele><time>2026-04-04T13:56:16Z</time></trkpt><trkpt lat="45.5881230549738" lon="11.052919192125382"><ele>658.0</ele><time>2026-04-04T13:56:17Z</time></trkpt><trkpt lat="45.588229699548044" lon="11.052800565499453"><ele>658.0</ele><time>2026-04-04T13:56:18Z</time></trkpt><trkpt lat="45.588345828807554" lon="11.052716907658615"><ele>658.0</ele><time>2026-04-04T13:56:19Z</time></trkpt><trkpt lat="45.588497860012964" lon="11.05266633439632"><ele>658.0</ele><time>2026-04-04T13:56:20Z</time></trkpt><trkpt lat="45.588666253740286" lon="11.05262192190317"><ele>660.3333333333334</ele><time>2026-04-04T13:56:21Z</time></trkpt><trkpt lat="45.58883524472944" lon="11.05257739410093"><ele>662.6666666666666</ele><time>2026-04-04T13:56:22Z</time></trkpt><trkpt lat="45.588993163324865" lon="11.0525357837948"><ele>665.0</ele><time>2026-04-04T13:56:23Z</time></trkpt><trkpt lat="45.58913200466433" lon="11.052499606403163"><ele>665.0</ele><time>2026-04-04T13:56:24Z</time></trkpt><trkpt lat="45.58925806486364" lon="11.05246867966304"><ele>665.0</ele><time>2026-04-04T13:56:25Z</time></trkpt><trkpt lat="45.58937590282045" lon="11.05244466078407"><ele>665.0</ele><time>2026-04-04T13:56:26Z</time></trkpt><trkpt lat="45.58948047082612" lon="11.052424861285756"><ele>665.0</ele><time>2026-04-04T13:56:27Z</time></trkpt><trkpt lat="45.58956973557253" lon="11.052413750442007"><ele>665.0</ele><time>2026-04-04T13:56:28Z</time></trkpt><trkpt lat="45.589649844069115" lon="11.05240305763036"><ele>660.2</ele><time>2026-04-04T13:56:29Z</time></trkpt><trkpt lat="45.58975988464179" lon="11.052385338348559"><ele>655.4</ele><time>2026-04-04T13:56:31Z</time></trkpt><trkpt lat="45.589822458928424" lon="11.052358517684457"><ele>650.5999999999999</ele><time>2026-04-04T13:56:33Z</time></trkpt><trkpt lat="45.58992068252911" lon="11.052276983227145"><ele>645.8</ele><time>2026-04-04T13:56:41.999Z</time></trkpt><trkpt lat="45.58998408197814" lon="11.052196855872634"><ele>641.0</ele><time>2026-04-04T13:56:42.999Z</time></trkpt><trkpt lat="45.5900558216083" lon="11.052060587976909"><ele>641.0</ele><time>2026-04-04T13:56:43.999Z</time></trkpt><trkpt lat="45.59010672790654" lon="11.051895051927033"><ele>641.0</ele><time>2026-04-04T13:56:44.999Z</time></trkpt><trkpt lat="45.59018166851437" lon="11.051723571947017"><ele>641.0</ele><time>2026-04-04T13:56:45.999Z</time></trkpt><trkpt lat="45.59025111262786" lon="11.051562487416515"><ele>641.0</ele><time>2026-04-04T13:56:46.999Z</time></trkpt><trkpt lat="45.59031626474787" lon="11.051419592857561"><ele>641.8</ele><time>2026-04-04T13:56:47.999Z</time></trkpt><trkpt lat="45.59037126614587" lon="11.051290219612822"><ele>642.5999999999999</ele><time>2026-04-04T13:56:48.999Z</time></trkpt><trkpt lat="45.59041283972136" lon="11.051179830608906"><ele>643.4</ele><time>2026-04-04T13:56:49.999Z</time></trkpt><trkpt lat="45.590415760560454" lon="11.051059875525922"><ele>644.2</ele><time>2026-04-04T13:56:50.999Z</time></trkpt><trkpt lat="45.59037128167357" lon="11.05094554960062"><ele>645.0</ele><time>2026-04-04T13:56:51.999Z</time></trkpt><trkpt lat="45.59027949208971" lon="11.050822757888966"><ele>645.0</ele><time>2026-04-04T13:56:52.999Z</time></trkpt><trkpt lat="45.590165190449405" lon="11.050705515291343"><ele>645.0</ele><time>2026-04-04T13:56:53.999Z</time></trkpt><trkpt lat="45.590061494927404" lon="11.050597838510662"><ele>645.0</ele><time>2026-04-04T13:56:54.999Z</time></trkpt><trkpt lat="45.58996850848641" lon="11.050493480693373"><ele>645.0</ele><time>2026-04-04T13:56:55.999Z</time></trkpt><trkpt lat="45.58988011945669" lon="11.050405073858968"><ele>645.0</ele><time>2026-04-04T13:56:56.999Z</time></trkpt><trkpt lat="45.589803812657905" lon="11.050321300771436"><ele>645.0</ele><time>2026-04-04T13:56:57.999Z</time></trkpt><trkpt lat="45.58974556326706" lon="11.050224339710676"><ele>645.0</ele><time>2026-04-04T13:56:58.999Z</time></trkpt><trkpt lat="45.58973076926072" lon="11.05009834809893"><ele>645.0</ele><time>2026-04-04T13:56:59.999Z</time></trkpt><trkpt lat="45.58975747597455" lon="11.049957116415461"><ele>645.0</ele><time>2026-04-04T13:57:00.999Z</time></trkpt><trkpt lat="45.58984220478405" lon="11.049802795751823"><ele>638.0</ele><time>2026-04-04T13:57:01.999Z</time></trkpt><trkpt lat="45.58994834448858" lon="11.049643399490533"><ele>631.0</ele><time>2026-04-04T13:57:02.999Z</time></trkpt><trkpt lat="45.59004310590452" lon="11.049465618558457"><ele>624.0</ele><time>2026-04-04T13:57:03.999Z</time></trkpt><trkpt lat="45.59012461228438" lon="11.049279543430206"><ele>624.25</ele><time>2026-04-04T13:57:04.999Z</time></trkpt><trkpt lat="45.590201820261555" lon="11.049114197702178"><ele>624.5</ele><time>2026-04-04T13:57:05.999Z</time></trkpt><trkpt lat="45.59030741262042" lon="11.04897811474049"><ele>624.75</ele><time>2026-04-04T13:57:06.999Z</time></trkpt><trkpt lat="45.59044955863009" lon="11.048869315665945"><ele>625.0</ele><time>2026-04-04T13:57:07.999Z</time></trkpt><trkpt lat="45.590598942195356" lon="11.048765422525188"><ele>625.0</ele><time>2026-04-04T13:57:08.999Z</time></trkpt><trkpt lat="45.59074209517612" lon="11.04864294162994"><ele>625.0</ele><time>2026-04-04T13:57:09.999Z</time></trkpt><trkpt lat="45.59088989624867" lon="11.048518180304272"><ele>625.0</ele><time>2026-04-04T13:57:10.999Z</time></trkpt><trkpt lat="45.59101269313551" lon="11.048349117620475"><ele>625.25</ele><time>2026-04-04T13:57:11.999Z</time></trkpt><trkpt lat="45.59111920623482" lon="11.04819212894715"><ele>625.5</ele><time>2026-04-04T13:57:12.999Z</time></trkpt><trkpt lat="45.59123315226234" lon="11.048054774030875"><ele>625.75</ele><time>2026-04-04T13:57:13.999Z</time></trkpt><trkpt lat="45.591363087773864" lon="11.04796228646909"><ele>626.0</ele><time>2026-04-04T13:57:14.999Z</time></trkpt><trkpt lat="45.591500674984836" lon="11.047862917322632"><ele>626.0</ele><time>2026-04-04T13:57:15.999Z</time></trkpt><trkpt lat="45.591624088706766" lon="11.047727957997639"><ele>626.0</ele><time>2026-04-04T13:57:16.999Z</time></trkpt><trkpt lat="45.59172875008168" lon="11.047565656494719"><ele>626.0</ele><time>2026-04-04T13:57:17.999Z</time></trkpt><trkpt lat="45.59181989302776" lon="11.047379200731351"><ele>624.75</ele><time>2026-04-04T13:57:18.999Z</time></trkpt><trkpt lat="45.591889965436685" lon="11.047188856748813"><ele>623.5</ele><time>2026-04-04T13:57:19.999Z</time></trkpt><trkpt lat="45.59193403473162" lon="11.047013906834243"><ele>622.25</ele><time>2026-04-04T13:57:20.999Z</time></trkpt><trkpt lat="45.59198093636908" lon="11.046882556871575"><ele>621.0</ele><time>2026-04-04T13:57:21.999Z</time></trkpt><trkpt lat="45.59199945851255" lon="11.046764315805527"><ele>621.0</ele><time>2026-04-04T13:57:22.999Z</time></trkpt><trkpt lat="45.59198615988923" lon="11.046650546921965"><ele>621.0</ele><time>2026-04-04T13:57:23.999Z</time></trkpt><trkpt lat="45.59193525819528" lon="11.04656220074767"><ele>621.0</ele><time>2026-04-04T13:57:24.999Z</time></trkpt><trkpt lat="45.59186300344935" lon="11.046522111014863"><ele>621.0</ele><time>2026-04-04T13:57:25.999Z</time></trkpt><trkpt lat="45.591761212631695" lon="11.046546257775496"><ele>621.0</ele><time>2026-04-04T13:57:26.999Z</time></trkpt><trkpt lat="45.591650107832066" lon="11.046643146500827"><ele>621.0</ele><time>2026-04-04T13:57:27.999Z</time></trkpt><trkpt lat="45.59156582182766" lon="11.04680084314704"><ele>621.0</ele><time>2026-04-04T13:57:28.999Z</time></trkpt><trkpt lat="45.59146674260339" lon="11.046958704964712"><ele>621.0</ele><time>2026-04-04T13:57:29.999Z</time></trkpt><trkpt lat="45.591345469169696" lon="11.047108265209554"><ele>621.0</ele><time>2026-04-04T13:57:30.999Z</time></trkpt><trkpt lat="45.591172894569034" lon="11.04724653415141"><ele>618.0</ele><time>2026-04-04T13:57:31.999Z</time></trkpt><trkpt lat="45.59096196907987" lon="11.047409063715369"><ele>615.0</ele><time>2026-04-04T13:57:32.999Z</time></trkpt><trkpt lat="45.590765121485035" lon="11.047536841961085"><ele>615.0</ele><time>2026-04-04T13:57:33.999Z</time></trkpt><trkpt lat="45.59060757341179" lon="11.047633586814483"><ele>615.0</ele><time>2026-04-04T13:57:34.999Z</time></trkpt><trkpt lat="45.590466137672564" lon="11.047735392300341"><ele>615.0</ele><time>2026-04-04T13:57:35.999Z</time></trkpt><trkpt lat="45.59029679916643" lon="11.047787750277365"><ele>624.6666666666666</ele><time>2026-04-04T13:57:36.998Z</time></trkpt><trkpt lat="45.5900938617182" lon="11.04780884246112"><ele>634.3333333333333</ele><time>2026-04-04T13:57:37.998Z</time></trkpt><trkpt lat="45.58992205370989" lon="11.047827113173016"><ele>644.0</ele><time>2026-04-04T13:57:38.998Z</time></trkpt><trkpt lat="45.589741082575074" lon="11.047855621548637"><ele>644.0</ele><time>2026-04-04T13:57:39.998Z</time></trkpt><trkpt lat="45.589555100834914" lon="11.047948891099594"><ele>644.0</ele><time>2026-04-04T13:57:40.998Z</time></trkpt><trkpt lat="45.58938431040045" lon="11.048088507560557"><ele>644.0</ele><time>2026-04-04T13:57:41.998Z</time></trkpt><trkpt lat="45.58923966287676" lon="11.04821914976402"><ele>641.3333333333333</ele><time>2026-04-04T13:57:42.998Z</time></trkpt><trkpt lat="45.58912173167991" lon="11.048371876569554"><ele>638.6666666666666</ele><time>2026-04-04T13:57:43.998Z</time></trkpt><trkpt lat="45.58902130300344" lon="11.048551055111602"><ele>636.0</ele><time>2026-04-04T13:57:44.998Z</time></trkpt><trkpt lat="45.58890615953885" lon="11.048664881027964"><ele>636.0</ele><time>2026-04-04T13:57:45.998Z</time></trkpt><trkpt lat="45.58875591369499" lon="11.048760155742437"><ele>636.0</ele><time>2026-04-04T13:57:46.998Z</time></trkpt><trkpt lat="45.588589109893846" lon="11.048856522272493"><ele>636.0</ele><time>2026-04-04T13:57:47.998Z</time></trkpt><trkpt lat="45.58844362445823" lon="11.04900814398811"><ele>638.6666666666666</ele><time>2026-04-04T13:57:48.998Z</time></trkpt><trkpt lat="45.58831037330967" lon="11.04919668942575"><ele>641.3333333333333</ele><time>2026-04-04T13:57:49.998Z</time></trkpt><trkpt lat="45.588210920466004" lon="11.04935038975891"><ele>644.0</ele><time>2026-04-04T13:57:50.998Z</time></trkpt><trkpt lat="45.58809950403068" lon="11.04949911433208"><ele>644.0</ele><time>2026-04-04T13:57:51.998Z</time></trkpt><trkpt lat="45.58798132328046" lon="11.049612581946077"><ele>644.0</ele><time>2026-04-04T13:57:52.998Z</time></trkpt><trkpt lat="45.58783083576311" lon="11.04969003824581"><ele>644.0</ele><time>2026-04-04T13:57:53.998Z</time></trkpt><trkpt lat="45.587672665214534" lon="11.049754515569633"><ele>651.3333333333333</ele><time>2026-04-04T13:57:54.998Z</time></trkpt><trkpt lat="45.587517333462415" lon="11.049812987135665"><ele>658.6666666666666</ele><time>2026-04-04T13:57:55.998Z</time></trkpt><trkpt lat="45.5873545569243" lon="11.049834895316351"><ele>666.0</ele><time>2026-04-04T13:57:56.998Z</time></trkpt><trkpt lat="45.58717050511503" lon="11.049789824841175"><ele>670.6666666666666</ele><time>2026-04-04T13:57:57.998Z</time></trkpt><trkpt lat="45.58696972027067" lon="11.049730893183154"><ele>675.3333333333333</ele><time>2026-04-04T13:57:58.998Z</time></trkpt><trkpt lat="45.58678036283865" lon="11.049666289099042"><ele>680.0</ele><time>2026-04-04T13:57:59.998Z</time></trkpt><trkpt lat="45.586595889197696" lon="11.049629319654091"><ele>680.0</ele><time>2026-04-04T13:58:00.998Z</time></trkpt><trkpt lat="45.58640663289325" lon="11.049618771206834"><ele>680.0</ele><time>2026-04-04T13:58:02Z</time></trkpt><trkpt lat="45.58621331445576" lon="11.049640244943394"><ele>680.0</ele><time>2026-04-04T13:58:03Z</time></trkpt><trkpt lat="45.58601288419378" lon="11.049689080957966"><ele>682.5</ele><time>2026-04-04T13:58:04Z</time></trkpt><trkpt lat="45.5858609094408" lon="11.04974813347019"><ele>685.0</ele><time>2026-04-04T13:58:05Z</time></trkpt><trkpt lat="45.58572736982183" lon="11.049821060410068"><ele>687.5</ele><time>2026-04-04T13:58:06Z</time></trkpt><trkpt lat="45.58561903194698" lon="11.04990630930078"><ele>690.0</ele><time>2026-04-04T13:58:07Z</time></trkpt><trkpt lat="45.58550269016584" lon="11.049971291469781"><ele>687.25</ele><time>2026-04-04T13:58:08Z</time></trkpt><trkpt lat="45.58540499609429" lon="11.050023324436612"><ele>684.5</ele><time>2026-04-04T13:58:09Z</time></trkpt><trkpt lat="45.58528845586991" lon="11.050045183261496"><ele>681.75</ele><time>2026-04-04T13:58:10Z</time></trkpt><trkpt lat="45.585167056244124" lon="11.049975385888024"><ele>679.0</ele><time>2026-04-04T13:58:11Z</time></trkpt><trkpt lat="45.585062419261234" lon="11.049846644957986"><ele>679.0</ele><time>2026-04-04T13:58:12Z</time></trkpt><trkpt lat="45.58497069163696" lon="11.049681543259116"><ele>679.0</ele><time>2026-04-04T13:58:13Z</time></trkpt><trkpt lat="45.5848875843474" lon="11.049519406831129"><ele>679.0</ele><time>2026-04-04T13:58:14Z</time></trkpt><trkpt lat="45.58481424151755" lon="11.04932541517789"><ele>679.0</ele><time>2026-04-04T13:58:15Z</time></trkpt><trkpt lat="45.58476221990588" lon="11.049077113219226"><ele>685.3333333333334</ele><time>2026-04-04T13:58:16Z</time></trkpt><trkpt lat="45.58471912615395" lon="11.048795586149437"><ele>691.6666666666666</ele><time>2026-04-04T13:58:17Z</time></trkpt><trkpt lat="45.58467705533922" lon="11.048501716501017"><ele>698.0</ele><time>2026-04-04T13:58:18Z</time></trkpt><trkpt lat="45.58461829447093" lon="11.048206988779242"><ele>701.0</ele><time>2026-04-04T13:58:19Z</time></trkpt><trkpt lat="45.584555511024725" lon="11.047940881258556"><ele>704.0</ele><time>2026-04-04T13:58:20Z</time></trkpt><trkpt lat="45.584502145971626" lon="11.047691249965515"><ele>707.0</ele><time>2026-04-04T13:58:21Z</time></trkpt><trkpt lat="45.58445865105593" lon="11.047448476996854"><ele>699.6666666666666</ele><time>2026-04-04T13:58:22Z</time></trkpt><trkpt lat="45.58441755415007" lon="11.047223587327451"><ele>692.3333333333334</ele><time>2026-04-04T13:58:23Z</time></trkpt><trkpt lat="45.58438533100373" lon="11.047009098812882"><ele>685.0</ele><time>2026-04-04T13:58:24Z</time></trkpt><trkpt lat="45.58438285920495" lon="11.046803295773259"><ele>687.0</ele><time>2026-04-04T13:58:25Z</time></trkpt><trkpt lat="45.584409255417775" lon="11.046597337905446"><ele>689.0</ele><time>2026-04-04T13:58:26Z</time></trkpt><trkpt lat="45.584438696439975" lon="11.046388290155967"><ele>691.0</ele><time>2026-04-04T13:58:27Z</time></trkpt><trkpt lat="45.58444183843015" lon="11.046171339988902"><ele>693.0</ele><time>2026-04-04T13:58:28Z</time></trkpt><trkpt lat="45.58440211839114" lon="11.045964412328079"><ele>697.6666666666666</ele><time>2026-04-04T13:58:29Z</time></trkpt><trkpt lat="45.584319933450736" lon="11.04578422800531"><ele>702.3333333333333</ele><time>2026-04-04T13:58:30Z</time></trkpt><trkpt lat="45.58420082176892" lon="11.045649298406246"><ele>707.0</ele><time>2026-04-04T13:58:31Z</time></trkpt><trkpt lat="45.58406670943354" lon="11.045539295907384"><ele>707.0</ele><time>2026-04-04T13:58:32Z</time></trkpt><trkpt lat="45.58391653391133" lon="11.045429111340162"><ele>707.0</ele><time>2026-04-04T13:58:33Z</time></trkpt><trkpt lat="45.583769402671834" lon="11.045301238647651"><ele>707.0</ele><time>2026-04-04T13:58:34Z</time></trkpt><trkpt lat="45.58366141509279" lon="11.04516813766902"><ele>706.5</ele><time>2026-04-04T13:58:35Z</time></trkpt><trkpt lat="45.58357365528195" lon="11.045010823381645"><ele>706.0</ele><time>2026-04-04T13:58:36Z</time></trkpt><trkpt lat="45.58350610071334" lon="11.044822953622631"><ele>705.5</ele><time>2026-04-04T13:58:37Z</time></trkpt><trkpt lat="45.58346039968083" lon="11.044603554084565"><ele>705.0</ele><time>2026-04-04T13:58:38Z</time></trkpt><trkpt lat="45.58339593602803" lon="11.044401476449986"><ele>706.6666666666666</ele><time>2026-04-04T13:58:39Z</time></trkpt><trkpt lat="45.58331663789641" lon="11.044206739844604"><ele>708.3333333333333</ele><time>2026-04-04T13:58:40Z</time></trkpt><trkpt lat="45.58321929756583" lon="11.04403475956868"><ele>710.0</ele><time>2026-04-04T13:58:41Z</time></trkpt><trkpt lat="45.58309694017006" lon="11.043898116026378"><ele>712.3333333333333</ele><time>2026-04-04T13:58:42Z</time></trkpt><trkpt lat="45.58296382948863" lon="11.043781200727912"><ele>714.6666666666666</ele><time>2026-04-04T13:58:43Z</time></trkpt><trkpt lat="45.58281367359263" lon="11.043703899220981"><ele>717.0</ele><time>2026-04-04T13:58:44Z</time></trkpt><trkpt lat="45.58266322343461" lon="11.043648686998786"><ele>718.0</ele><time>2026-04-04T13:58:44.999Z</time></trkpt><trkpt lat="45.58251035663117" lon="11.043592186335506"><ele>719.0</ele><time>2026-04-04T13:58:45.999Z</time></trkpt><trkpt lat="45.582362291829675" lon="11.043525039214815"><ele>720.0</ele><time>2026-04-04T13:58:46.999Z</time></trkpt><trkpt lat="45.58222047584281" lon="11.043465356061951"><ele>720.0</ele><time>2026-04-04T13:58:47.999Z</time></trkpt><trkpt lat="45.58207868224294" lon="11.043406463085864"><ele>720.0</ele><time>2026-04-04T13:58:48.999Z</time></trkpt><trkpt lat="45.5819419494873" lon="11.04334827596967"><ele>720.0</ele><time>2026-04-04T13:58:49.999Z</time></trkpt><trkpt lat="45.58181633662675" lon="11.043301577315926"><ele>720.0</ele><time>2026-04-04T13:58:50.999Z</time></trkpt><trkpt lat="45.581697493918185" lon="11.043251951675316"><ele>724.25</ele><time>2026-04-04T13:58:51.999Z</time></trkpt><trkpt lat="45.58157437494063" lon="11.043206610432653"><ele>728.5</ele><time>2026-04-04T13:58:52.999Z</time></trkpt><trkpt lat="45.58145377051502" lon="11.043157404039212"><ele>732.75</ele><time>2026-04-04T13:58:53.999Z</time></trkpt><trkpt lat="45.581337192642046" lon="11.04310369766237"><ele>737.0</ele><time>2026-04-04T13:58:54.999Z</time></trkpt><trkpt lat="45.58121574529538" lon="11.043055838635928"><ele>736.5</ele><time>2026-04-04T13:58:55.999Z</time></trkpt><trkpt lat="45.581090629434414" lon="11.043006272410503"><ele>736.0</ele><time>2026-04-04T13:58:56.999Z</time></trkpt><trkpt lat="45.58095985810728" lon="11.04296206471458"><ele>735.5</ele><time>2026-04-04T13:58:57.999Z</time></trkpt><trkpt lat="45.58082263247011" lon="11.042936961938222"><ele>735.0</ele><time>2026-04-04T13:58:58.999Z</time></trkpt><trkpt lat="45.580684586315485" lon="11.042941706374187"><ele>735.0</ele><time>2026-04-04T13:58:59.999Z</time></trkpt><trkpt lat="45.58055396757349" lon="11.042958802891624"><ele>735.0</ele><time>2026-04-04T13:59:00.999Z</time></trkpt><trkpt lat="45.580425591122506" lon="11.04297144187386"><ele>735.0</ele><time>2026-04-04T13:59:01.999Z</time></trkpt><trkpt lat="45.58030337886639" lon="11.042979732765419"><ele>735.0</ele><time>2026-04-04T13:59:02.999Z</time></trkpt><trkpt lat="45.580191881342586" lon="11.042989056176983"><ele>735.6</ele><time>2026-04-04T13:59:03.999Z</time></trkpt><trkpt lat="45.580086504011376" lon="11.042997742746433"><ele>736.2</ele><time>2026-04-04T13:59:04.999Z</time></trkpt><trkpt lat="45.57998633625036" lon="11.042997341667977"><ele>736.8</ele><time>2026-04-04T13:59:05.999Z</time></trkpt><trkpt lat="45.579890329616646" lon="11.042974025356191"><ele>737.4</ele><time>2026-04-04T13:59:06.999Z</time></trkpt><trkpt lat="45.57980769446417" lon="11.04292215788395"><ele>738.0</ele><time>2026-04-04T13:59:07.999Z</time></trkpt><trkpt lat="45.57974835691159" lon="11.042855538662076"><ele>738.0</ele><time>2026-04-04T13:59:08.999Z</time></trkpt><trkpt lat="45.57970115059864" lon="11.042779727288718"><ele>738.0</ele><time>2026-04-04T13:59:09.999Z</time></trkpt><trkpt lat="45.579666654600274" lon="11.042634626534742"><ele>738.0</ele><time>2026-04-04T13:59:11.999Z</time></trkpt><trkpt lat="45.57959174329525" lon="11.042543986001183"><ele>738.0</ele><time>2026-04-04T13:59:17.999Z</time></trkpt><trkpt lat="45.57942472261625" lon="11.042662082773724"><ele>737.25</ele><time>2026-04-04T13:59:19.999Z</time></trkpt><trkpt lat="45.579329632019196" lon="11.04276137203166"><ele>736.5</ele><time>2026-04-04T13:59:20.999Z</time></trkpt><trkpt lat="45.57920918150243" lon="11.042845019717092"><ele>735.75</ele><time>2026-04-04T13:59:21.999Z</time></trkpt><trkpt lat="45.57909587157547" lon="11.04294918605477"><ele>735.0</ele><time>2026-04-04T13:59:22.999Z</time></trkpt><trkpt lat="45.57897841796719" lon="11.04305599356417"><ele>735.0</ele><time>2026-04-04T13:59:23.999Z</time></trkpt><trkpt lat="45.578864490400186" lon="11.043158884476341"><ele>735.0</ele><time>2026-04-04T13:59:24.999Z</time></trkpt><trkpt lat="45.57875310394736" lon="11.043265551215375"><ele>735.0</ele><time>2026-04-04T13:59:25.999Z</time></trkpt><trkpt lat="45.578623010839934" lon="11.043316715625838"><ele>735.0</ele><time>2026-04-04T13:59:26.999Z</time></trkpt><trkpt lat="45.57848831799621" lon="11.043336146159387"><ele>735.75</ele><time>2026-04-04T13:59:27.999Z</time></trkpt><trkpt lat="45.57835222677319" lon="11.04332897774826"><ele>736.5</ele><time>2026-04-04T13:59:28.999Z</time></trkpt><trkpt lat="45.578219214089685" lon="11.043285436507828"><ele>737.25</ele><time>2026-04-04T13:59:29.999Z</time></trkpt><trkpt lat="45.57809736536069" lon="11.04322031080608"><ele>738.0</ele><time>2026-04-04T13:59:30.999Z</time></trkpt><trkpt lat="45.57798950386655" lon="11.04312494319187"><ele>736.5</ele><time>2026-04-04T13:59:31.999Z</time></trkpt><trkpt lat="45.577889277451305" lon="11.043001621740666"><ele>735.0</ele><time>2026-04-04T13:59:32.999Z</time></trkpt><trkpt lat="45.57780138591396" lon="11.042858047476356"><ele>733.5</ele><time>2026-04-04T13:59:33.999Z</time></trkpt><trkpt lat="45.57772972349737" lon="11.042691507909932"><ele>732.0</ele><time>2026-04-04T13:59:34.999Z</time></trkpt><trkpt lat="45.57768347870579" lon="11.042511331935739"><ele>730.25</ele><time>2026-04-04T13:59:35.999Z</time></trkpt><trkpt lat="45.5776375478326" lon="11.04232772708684"><ele>728.5</ele><time>2026-04-04T13:59:36.999Z</time></trkpt><trkpt lat="45.57759397946442" lon="11.042144819145854"><ele>726.75</ele><time>2026-04-04T13:59:37.999Z</time></trkpt><trkpt lat="45.57754833822241" lon="11.041969001794087"><ele>725.0</ele><time>2026-04-04T13:59:38.999Z</time></trkpt><trkpt lat="45.57750331232973" lon="11.041803315899365"><ele>725.0</ele><time>2026-04-04T13:59:39.999Z</time></trkpt><trkpt lat="45.57744455680882" lon="11.041649994396302"><ele>725.0</ele><time>2026-04-04T13:59:40.999Z</time></trkpt><trkpt lat="45.577364202985564" lon="11.041512685353343"><ele>725.0</ele><time>2026-04-04T13:59:41.999Z</time></trkpt><trkpt lat="45.57727228416425" lon="11.041403242201767"><ele>725.0</ele><time>2026-04-04T13:59:42.998Z</time></trkpt><trkpt lat="45.5771653229525" lon="11.041319677023544"><ele>723.5</ele><time>2026-04-04T13:59:43.998Z</time></trkpt><trkpt lat="45.57704391397096" lon="11.041264208480216"><ele>722.0</ele><time>2026-04-04T13:59:44.998Z</time></trkpt><trkpt lat="45.576921046206614" lon="11.041238270459095"><ele>720.5</ele><time>2026-04-04T13:59:45.998Z</time></trkpt><trkpt lat="45.57679887833024" lon="11.041238948923496"><ele>719.0</ele><time>2026-04-04T13:59:46.998Z</time></trkpt><trkpt lat="45.576691157249314" lon="11.041253783839236"><ele>719.0</ele><time>2026-04-04T13:59:47.998Z</time></trkpt><trkpt lat="45.57658786604511" lon="11.041265907798566"><ele>719.0</ele><time>2026-04-04T13:59:48.998Z</time></trkpt><trkpt lat="45.576484221662284" lon="11.041274454617971"><ele>719.0</ele><time>2026-04-04T13:59:49.998Z</time></trkpt><trkpt lat="45.576371432227546" lon="11.041288092930214"><ele>719.0</ele><time>2026-04-04T13:59:50.998Z</time></trkpt><trkpt lat="45.57626049209796" lon="11.04129237696859"><ele>719.0</ele><time>2026-04-04T13:59:51.998Z</time></trkpt><trkpt lat="45.57614110077366" lon="11.041305704590787"><ele>718.25</ele><time>2026-04-04T13:59:52.998Z</time></trkpt><trkpt lat="45.57601434731832" lon="11.041317876211187"><ele>717.5</ele><time>2026-04-04T13:59:53.998Z</time></trkpt><trkpt lat="45.5758908632062" lon="11.041323536501356"><ele>716.75</ele><time>2026-04-04T13:59:54.998Z</time></trkpt><trkpt lat="45.575772156695486" lon="11.041319550897859"><ele>716.0</ele><time>2026-04-04T13:59:55.998Z</time></trkpt><trkpt lat="45.57566318971336" lon="11.041333445729741"><ele>716.0</ele><time>2026-04-04T13:59:56.998Z</time></trkpt><trkpt lat="45.575554547189434" lon="11.04132563475749"><ele>716.0</ele><time>2026-04-04T13:59:57.998Z</time></trkpt><trkpt lat="45.57546072292907" lon="11.041314067484294"><ele>716.0</ele><time>2026-04-04T13:59:58.998Z</time></trkpt><trkpt lat="45.5753763733241" lon="11.041241718458275"><ele>716.0</ele><time>2026-04-04T13:59:59.998Z</time></trkpt><trkpt lat="45.575307681663766" lon="11.041129944227883"><ele>716.0</ele><time>2026-04-04T14:00:00.998Z</time></trkpt><trkpt lat="45.57525075684241" lon="11.040990596486584"><ele>715.25</ele><time>2026-04-04T14:00:01.998Z</time></trkpt><trkpt lat="45.5752035099519" lon="11.040840561358973"><ele>714.5</ele><time>2026-04-04T14:00:02.998Z</time></trkpt><trkpt lat="45.57515990683574" lon="11.04068519500032"><ele>713.75</ele><time>2026-04-04T14:00:03.998Z</time></trkpt><trkpt lat="45.5751102415806" lon="11.040534251154183"><ele>713.0</ele><time>2026-04-04T14:00:04.998Z</time></trkpt><trkpt lat="45.575057669952386" lon="11.040383471920487"><ele>713.0</ele><time>2026-04-04T14:00:05.998Z</time></trkpt><trkpt lat="45.57500927307886" lon="11.040222953088339"><ele>713.0</ele><time>2026-04-04T14:00:06.998Z</time></trkpt><trkpt lat="45.57495576566422" lon="11.0400555228332"><ele>713.0</ele><time>2026-04-04T14:00:08Z</time></trkpt><trkpt lat="45.57490260247057" lon="11.03988781072074"><ele>713.0</ele><time>2026-04-04T14:00:09Z</time></trkpt><trkpt lat="45.57484419923275" lon="11.039720367584492"><ele>712.5</ele><time>2026-04-04T14:00:10Z</time></trkpt><trkpt lat="45.57478758955775" lon="11.039562686292822"><ele>712.0</ele><time>2026-04-04T14:00:11Z</time></trkpt><trkpt lat="45.57473683965385" lon="11.039410701208684"><ele>711.5</ele><time>2026-04-04T14:00:12Z</time></trkpt><trkpt lat="45.57468704331376" lon="11.039261094828959"><ele>711.0</ele><time>2026-04-04T14:00:13Z</time></trkpt><trkpt lat="45.57462797479311" lon="11.039113039461082"><ele>711.0</ele><time>2026-04-04T14:00:14Z</time></trkpt><trkpt lat="45.57456100465599" lon="11.038964979518763"><ele>711.0</ele><time>2026-04-04T14:00:15Z</time></trkpt><trkpt lat="45.57449527807574" lon="11.038830969794228"><ele>711.0</ele><time>2026-04-04T14:00:16Z</time></trkpt><trkpt lat="45.57439787955776" lon="11.038731927494283"><ele>711.0</ele><time>2026-04-04T14:00:17Z</time></trkpt><trkpt lat="45.57428643680791" lon="11.038660809828649"><ele>711.1999999999999</ele><time>2026-04-04T14:00:18Z</time></trkpt><trkpt lat="45.57418458987139" lon="11.03860180074764"><ele>711.4</ele><time>2026-04-04T14:00:19Z</time></trkpt><trkpt lat="45.57408556739583" lon="11.03856218700846"><ele>711.6</ele><time>2026-04-04T14:00:20Z</time></trkpt><trkpt lat="45.57398460665742" lon="11.038545300655414"><ele>711.8</ele><time>2026-04-04T14:00:21Z</time></trkpt><trkpt lat="45.5738836160278" lon="11.038552490619571"><ele>712.0</ele><time>2026-04-04T14:00:22Z</time></trkpt><trkpt lat="45.57376777915013" lon="11.038578681900626"><ele>709.75</ele><time>2026-04-04T14:00:23Z</time></trkpt><trkpt lat="45.57365390960604" lon="11.038638396964563"><ele>707.5</ele><time>2026-04-04T14:00:24Z</time></trkpt><trkpt lat="45.573538602125915" lon="11.038700166746604"><ele>705.25</ele><time>2026-04-04T14:00:25Z</time></trkpt><trkpt lat="45.57343729966957" lon="11.038794775682934"><ele>703.0</ele><time>2026-04-04T14:00:26Z</time></trkpt><trkpt lat="45.573349381143586" lon="11.03891446569617"><ele>703.0</ele><time>2026-04-04T14:00:27Z</time></trkpt><trkpt lat="45.5732783307211" lon="11.039034735807942"><ele>703.0</ele><time>2026-04-04T14:00:28Z</time></trkpt><trkpt lat="45.57321792024278" lon="11.039161900321798"><ele>703.0</ele><time>2026-04-04T14:00:29Z</time></trkpt><trkpt lat="45.573169908462404" lon="11.039286511460753"><ele>703.0</ele><time>2026-04-04T14:00:30Z</time></trkpt><trkpt lat="45.573140073402094" lon="11.039419290344243"><ele>703.0</ele><time>2026-04-04T14:00:31Z</time></trkpt><trkpt lat="45.57308178293042" lon="11.039539715069628"><ele>702.2</ele><time>2026-04-04T14:00:32Z</time></trkpt><trkpt lat="45.57303598822863" lon="11.039673620226006"><ele>701.4</ele><time>2026-04-04T14:00:33Z</time></trkpt><trkpt lat="45.57299871922296" lon="11.039816842793332"><ele>700.6</ele><time>2026-04-04T14:00:34Z</time></trkpt><trkpt lat="45.572925608113046" lon="11.039929539179374"><ele>699.8000000000001</ele><time>2026-04-04T14:00:35Z</time></trkpt><trkpt lat="45.572856967487205" lon="11.040048182035397"><ele>699.0</ele><time>2026-04-04T14:00:36Z</time></trkpt><trkpt lat="45.57279153041527" lon="11.040171476712574"><ele>699.0</ele><time>2026-04-04T14:00:37Z</time></trkpt><trkpt lat="45.57269549341812" lon="11.040256500949821"><ele>699.0</ele><time>2026-04-04T14:00:38Z</time></trkpt><trkpt lat="45.572607532124735" lon="11.040359244323069"><ele>699.0</ele><time>2026-04-04T14:00:39Z</time></trkpt><trkpt lat="45.57253331432059" lon="11.040474377398992"><ele>699.0</ele><time>2026-04-04T14:00:40Z</time></trkpt><trkpt lat="45.57244852981384" lon="11.04056553935908"><ele>699.0</ele><time>2026-04-04T14:00:41Z</time></trkpt><trkpt lat="45.57236492180267" lon="11.040660317529673"><ele>699.0</ele><time>2026-04-04T14:00:42Z</time></trkpt><trkpt lat="45.57227750913008" lon="11.04075668801563"><ele>699.0</ele><time>2026-04-04T14:00:43Z</time></trkpt><trkpt lat="45.57219304592697" lon="11.04087606375703"><ele>699.0</ele><time>2026-04-04T14:00:44Z</time></trkpt><trkpt lat="45.572117725037515" lon="11.041002285131933"><ele>699.0</ele><time>2026-04-04T14:00:45Z</time></trkpt><trkpt lat="45.572048942346676" lon="11.041134967684252"><ele>700.0</ele><time>2026-04-04T14:00:46Z</time></trkpt><trkpt lat="45.571991339605404" lon="11.041275116697893"><ele>701.0</ele><time>2026-04-04T14:00:47Z</time></trkpt><trkpt lat="45.571949644097074" lon="11.041431091699796"><ele>702.0</ele><time>2026-04-04T14:00:48Z</time></trkpt><trkpt lat="45.57192797246428" lon="11.041605144982721"><ele>703.0</ele><time>2026-04-04T14:00:49Z</time></trkpt><trkpt lat="45.57192013559862" lon="11.041792491395096"><ele>703.0</ele><time>2026-04-04T14:00:50Z</time></trkpt><trkpt lat="45.5719181047801" lon="11.041992611774244"><ele>703.0</ele><time>2026-04-04T14:00:51Z</time></trkpt><trkpt lat="45.57191409752845" lon="11.042206238439784"><ele>703.0</ele><time>2026-04-04T14:00:51.999Z</time></trkpt><trkpt lat="45.571885772739705" lon="11.042420196587102"><ele>703.0</ele><time>2026-04-04T14:00:52.999Z</time></trkpt><trkpt lat="45.571855481880725" lon="11.0426375298336"><ele>703.25</ele><time>2026-04-04T14:00:53.999Z</time></trkpt><trkpt lat="45.57181591788203" lon="11.04282233769502"><ele>703.5</ele><time>2026-04-04T14:00:54.999Z</time></trkpt><trkpt lat="45.57177014390948" lon="11.043018926181805"><ele>703.75</ele><time>2026-04-04T14:00:55.999Z</time></trkpt><trkpt lat="45.57169901203695" lon="11.043207768821725"><ele>704.0</ele><time>2026-04-04T14:00:56.999Z</time></trkpt><trkpt lat="45.5716144319801" lon="11.043385873030173"><ele>704.0</ele><time>2026-04-04T14:00:57.999Z</time></trkpt><trkpt lat="45.57154207795609" lon="11.043565797818495"><ele>704.0</ele><time>2026-04-04T14:00:58.999Z</time></trkpt><trkpt lat="45.571471445939956" lon="11.043737684842974"><ele>704.0</ele><time>2026-04-04T14:00:59.999Z</time></trkpt><trkpt lat="45.57140124563787" lon="11.043901179190476"><ele>704.0</ele><time>2026-04-04T14:01:00.999Z</time></trkpt><trkpt lat="45.57132964937341" lon="11.044062303293693"><ele>705.5</ele><time>2026-04-04T14:01:01.999Z</time></trkpt><trkpt lat="45.57125986523459" lon="11.044232652148942"><ele>707.0</ele><time>2026-04-04T14:01:02.999Z</time></trkpt><trkpt lat="45.57115747820899" lon="11.044364560225821"><ele>708.5</ele><time>2026-04-04T14:01:03.999Z</time></trkpt><trkpt lat="45.57104647670109" lon="11.044464188474567"><ele>710.0</ele><time>2026-04-04T14:01:04.999Z</time></trkpt><trkpt lat="45.570935522046945" lon="11.044539221618527"><ele>710.0</ele><time>2026-04-04T14:01:05.999Z</time></trkpt><trkpt lat="45.57082452403139" lon="11.044586074447944"><ele>710.0</ele><time>2026-04-04T14:01:06.999Z</time></trkpt><trkpt lat="45.57070745608511" lon="11.044605813917862"><ele>710.0</ele><time>2026-04-04T14:01:07.999Z</time></trkpt><trkpt lat="45.5705834791542" lon="11.044608435213677"><ele>710.0</ele><time>2026-04-04T14:01:08.999Z</time></trkpt><trkpt lat="45.57045278003663" lon="11.044589576053726"><ele>710.0</ele><time>2026-04-04T14:01:09.999Z</time></trkpt><trkpt lat="45.57031593034023" lon="11.044546293495063"><ele>710.0</ele><time>2026-04-04T14:01:10.999Z</time></trkpt><trkpt lat="45.57017046548917" lon="11.044493729654294"><ele>710.0</ele><time>2026-04-04T14:01:11.999Z</time></trkpt><trkpt lat="45.570017091616315" lon="11.044444705773248"><ele>710.0</ele><time>2026-04-04T14:01:12.999Z</time></trkpt><trkpt lat="45.56986315978448" lon="11.044381916179178"><ele>710.0</ele><time>2026-04-04T14:01:13.999Z</time></trkpt><trkpt lat="45.56971056282006" lon="11.04430434566077"><ele>710.0</ele><time>2026-04-04T14:01:14.999Z</time></trkpt><trkpt lat="45.56956723936375" lon="11.044210251899214"><ele>710.0</ele><time>2026-04-04T14:01:15.999Z</time></trkpt><trkpt lat="45.56942931230497" lon="11.044102781111638"><ele>711.5</ele><time>2026-04-04T14:01:16.999Z</time></trkpt><trkpt lat="45.56930318725607" lon="11.043988317536824"><ele>713.0</ele><time>2026-04-04T14:01:17.999Z</time></trkpt><trkpt lat="45.56918752266938" lon="11.043870499378112"><ele>714.5</ele><time>2026-04-04T14:01:18.999Z</time></trkpt><trkpt lat="45.56908074101059" lon="11.043748466820011"><ele>716.0</ele><time>2026-04-04T14:01:19.999Z</time></trkpt><trkpt lat="45.56897518260696" lon="11.043623365841128"><ele>716.0</ele><time>2026-04-04T14:01:20.999Z</time></trkpt><trkpt lat="45.56886106083388" lon="11.043492919785159"><ele>716.0</ele><time>2026-04-04T14:01:21.999Z</time></trkpt><trkpt lat="45.56873468915583" lon="11.043357408284582"><ele>716.0</ele><time>2026-04-04T14:01:22.999Z</time></trkpt><trkpt lat="45.56859914869168" lon="11.043210319245702"><ele>715.6666666666666</ele><time>2026-04-04T14:01:23.999Z</time></trkpt><trkpt lat="45.56846616405156" lon="11.043053227842119"><ele>715.3333333333334</ele><time>2026-04-04T14:01:24.999Z</time></trkpt><trkpt lat="45.56833505775249" lon="11.042900498602418"><ele>715.0</ele><time>2026-04-04T14:01:25.999Z</time></trkpt><trkpt lat="45.56818022003455" lon="11.042729277141357"><ele>715.0</ele><time>2026-04-04T14:01:26.999Z</time></trkpt><trkpt lat="45.56800909194067" lon="11.042539669108981"><ele>715.0</ele><time>2026-04-04T14:01:27.999Z</time></trkpt><trkpt lat="45.567861288162796" lon="11.042347468941875"><ele>715.0</ele><time>2026-04-04T14:01:28.999Z</time></trkpt><trkpt lat="45.56772120952796" lon="11.042175061511735"><ele>714.3333333333334</ele><time>2026-04-04T14:01:29.999Z</time></trkpt><trkpt lat="45.567589584690296" lon="11.042027419656572"><ele>713.6666666666666</ele><time>2026-04-04T14:01:30.999Z</time></trkpt><trkpt lat="45.567470033635" lon="11.0418889933083"><ele>713.0</ele><time>2026-04-04T14:01:31.999Z</time></trkpt><trkpt lat="45.56735963893467" lon="11.041758967368457"><ele>713.0</ele><time>2026-04-04T14:01:32.999Z</time></trkpt><trkpt lat="45.56725696364843" lon="11.041642952240146"><ele>713.0</ele><time>2026-04-04T14:01:33.999Z</time></trkpt><trkpt lat="45.56714988314678" lon="11.041530890440034"><ele>713.0</ele><time>2026-04-04T14:01:34.999Z</time></trkpt><trkpt lat="45.567041870169206" lon="11.04142666882049"><ele>713.0</ele><time>2026-04-04T14:01:35.999Z</time></trkpt><trkpt lat="45.56692377750979" lon="11.041343558295825"><ele>712.5</ele><time>2026-04-04T14:01:36.999Z</time></trkpt><trkpt lat="45.56679486086281" lon="11.041285932789053"><ele>712.0</ele><time>2026-04-04T14:01:37.999Z</time></trkpt><trkpt lat="45.56664999963893" lon="11.041254985627956"><ele>711.5</ele><time>2026-04-04T14:01:38.999Z</time></trkpt><trkpt lat="45.566492786998865" lon="11.041224262055081"><ele>711.0</ele><time>2026-04-04T14:01:39.999Z</time></trkpt><trkpt lat="45.56629002821883" lon="11.041211582743356"><ele>707.0</ele><time>2026-04-04T14:01:40.999Z</time></trkpt><trkpt lat="45.566069613867946" lon="11.041198641402714"><ele>703.0</ele><time>2026-04-04T14:01:41.999Z</time></trkpt><trkpt lat="45.56586548838581" lon="11.041204067148701"><ele>699.0</ele><time>2026-04-04T14:01:42.999Z</time></trkpt><trkpt lat="45.56568299942502" lon="11.041195613968462"><ele>699.0</ele><time>2026-04-04T14:01:43.999Z</time></trkpt><trkpt lat="45.565505836624304" lon="11.04119527156246"><ele>699.0</ele><time>2026-04-04T14:01:44.999Z</time></trkpt><trkpt lat="45.56532908889045" lon="11.041215856445723"><ele>699.0</ele><time>2026-04-04T14:01:45.999Z</time></trkpt><trkpt lat="45.56516461474137" lon="11.041271349546179"><ele>697.0</ele><time>2026-04-04T14:01:46.999Z</time></trkpt><trkpt lat="45.56501897773354" lon="11.041318446496774"><ele>695.0</ele><time>2026-04-04T14:01:47.999Z</time></trkpt><trkpt lat="45.564887714414006" lon="11.041345175382332"><ele>693.0</ele><time>2026-04-04T14:01:48.999Z</time></trkpt><trkpt lat="45.56476639271164" lon="11.041396031012125"><ele>691.0</ele><time>2026-04-04T14:01:49.998Z</time></trkpt><trkpt lat="45.564650470951975" lon="11.041415419841956"><ele>691.0</ele><time>2026-04-04T14:01:50.998Z</time></trkpt><trkpt lat="45.5645417828873" lon="11.04146612981387"><ele>691.0</ele><time>2026-04-04T14:01:51.998Z</time></trkpt><trkpt lat="45.56441336243458" lon="11.041494284951995"><ele>691.0</ele><time>2026-04-04T14:01:52.998Z</time></trkpt><trkpt lat="45.564297222553144" lon="11.041528441276428"><ele>691.0</ele><time>2026-04-04T14:01:53.998Z</time></trkpt><trkpt lat="45.56417492052589" lon="11.041576868391937"><ele>694.25</ele><time>2026-04-04T14:01:54.998Z</time></trkpt><trkpt lat="45.564052017274484" lon="11.041647929742268"><ele>697.5</ele><time>2026-04-04T14:01:55.998Z</time></trkpt><trkpt lat="45.56394463672864" lon="11.041743574226688"><ele>700.75</ele><time>2026-04-04T14:01:56.998Z</time></trkpt><trkpt lat="45.56384925583169" lon="11.041849512734869"><ele>704.0</ele><time>2026-04-04T14:01:57.998Z</time></trkpt><trkpt lat="45.56373751342627" lon="11.041942840373967"><ele>700.5</ele><time>2026-04-04T14:01:58.998Z</time></trkpt><trkpt lat="45.56362643443743" lon="11.042054653555423"><ele>697.0</ele><time>2026-04-04T14:01:59.998Z</time></trkpt><trkpt lat="45.563510601484396" lon="11.042175318935534"><ele>693.5</ele><time>2026-04-04T14:02:00.998Z</time></trkpt><trkpt lat="45.56336485590915" lon="11.042229285617138"><ele>690.0</ele><time>2026-04-04T14:02:01.998Z</time></trkpt><trkpt lat="45.56321207455971" lon="11.042247989434582"><ele>690.0</ele><time>2026-04-04T14:02:02.998Z</time></trkpt><trkpt lat="45.56305885726869" lon="11.042233977759942"><ele>690.0</ele><time>2026-04-04T14:02:03.998Z</time></trkpt><trkpt lat="45.56290290707432" lon="11.042217210650687"><ele>690.0</ele><time>2026-04-04T14:02:04.998Z</time></trkpt><trkpt lat="45.562753242305156" lon="11.042204472835037"><ele>690.6666666666666</ele><time>2026-04-04T14:02:05.998Z</time></trkpt><trkpt lat="45.562599065332826" lon="11.042186093386855"><ele>691.3333333333333</ele><time>2026-04-04T14:02:06.998Z</time></trkpt><trkpt lat="45.56244160760031" lon="11.042173800383448"><ele>692.0</ele><time>2026-04-04T14:02:07.998Z</time></trkpt><trkpt lat="45.56228802441187" lon="11.042187920991482"><ele>692.0</ele><time>2026-04-04T14:02:08.998Z</time></trkpt><trkpt lat="45.562134416250636" lon="11.04223382986472"><ele>692.0</ele><time>2026-04-04T14:02:09.998Z</time></trkpt><trkpt lat="45.56199164518478" lon="11.042297596094688"><ele>692.0</ele><time>2026-04-04T14:02:10.998Z</time></trkpt><trkpt lat="45.56185733204333" lon="11.042369073490542"><ele>694.0</ele><time>2026-04-04T14:02:11.998Z</time></trkpt><trkpt lat="45.56172612912466" lon="11.042438650472514"><ele>696.0</ele><time>2026-04-04T14:02:12.998Z</time></trkpt><trkpt lat="45.561571726482036" lon="11.042465656851535"><ele>698.0</ele><time>2026-04-04T14:02:14Z</time></trkpt><trkpt lat="45.56141293729699" lon="11.042424229789209"><ele>691.3333333333333</ele><time>2026-04-04T14:02:15Z</time></trkpt><trkpt lat="45.56126427746274" lon="11.04233277254852"><ele>684.6666666666666</ele><time>2026-04-04T14:02:16Z</time></trkpt><trkpt lat="45.56112720186381" lon="11.042231400851342"><ele>678.0</ele><time>2026-04-04T14:02:17Z</time></trkpt><trkpt lat="45.560984519511955" lon="11.042147472885754"><ele>676.6666666666666</ele><time>2026-04-04T14:02:18Z</time></trkpt><trkpt lat="45.56083211724973" lon="11.042084677130715"><ele>675.3333333333333</ele><time>2026-04-04T14:02:19Z</time></trkpt><trkpt lat="45.56067140295987" lon="11.042035670684772"><ele>674.0</ele><time>2026-04-04T14:02:20Z</time></trkpt><trkpt lat="45.5605014865012" lon="11.041990154221232"><ele>677.6666666666666</ele><time>2026-04-04T14:02:21Z</time></trkpt><trkpt lat="45.56033032473033" lon="11.041945167211292"><ele>681.3333333333334</ele><time>2026-04-04T14:02:22Z</time></trkpt><trkpt lat="45.56016070078932" lon="11.041889781964288"><ele>685.0</ele><time>2026-04-04T14:02:23Z</time></trkpt><trkpt lat="45.55999638239704" lon="11.041820418742418"><ele>685.0</ele><time>2026-04-04T14:02:24Z</time></trkpt><trkpt lat="45.55983847956253" lon="11.041714685881725"><ele>685.0</ele><time>2026-04-04T14:02:25Z</time></trkpt><trkpt lat="45.55967635759256" lon="11.041582970432525"><ele>685.0</ele><time>2026-04-04T14:02:26Z</time></trkpt><trkpt lat="45.55952058415114" lon="11.04145655250602"><ele>682.0</ele><time>2026-04-04T14:02:27Z</time></trkpt><trkpt lat="45.5593701646758" lon="11.041335885904624"><ele>679.0</ele><time>2026-04-04T14:02:28Z</time></trkpt><trkpt lat="45.55923401025327" lon="11.041211675901033"><ele>676.0</ele><time>2026-04-04T14:02:29Z</time></trkpt><trkpt lat="45.55911856600668" lon="11.04107246160045"><ele>676.0</ele><time>2026-04-04T14:02:30Z</time></trkpt><trkpt lat="45.5590238648306" lon="11.040905456184959"><ele>676.0</ele><time>2026-04-04T14:02:31Z</time></trkpt><trkpt lat="45.55894541855137" lon="11.040719107684863"><ele>676.0</ele><time>2026-04-04T14:02:32Z</time></trkpt><trkpt lat="45.55887734837909" lon="11.040521875753406"><ele>675.3333333333334</ele><time>2026-04-04T14:02:33Z</time></trkpt><trkpt lat="45.558801739088864" lon="11.040323746116298"><ele>674.6666666666666</ele><time>2026-04-04T14:02:34Z</time></trkpt><trkpt lat="45.55869317190921" lon="11.040148054599346"><ele>674.0</ele><time>2026-04-04T14:02:35Z</time></trkpt><trkpt lat="45.558558566260324" lon="11.040011035824973"><ele>667.0</ele><time>2026-04-04T14:02:36Z</time></trkpt><trkpt lat="45.558402474102444" lon="11.03991300885494"><ele>660.0</ele><time>2026-04-04T14:02:37Z</time></trkpt><trkpt lat="45.55822634675149" lon="11.039844219958269"><ele>653.0</ele><time>2026-04-04T14:02:38Z</time></trkpt><trkpt lat="45.55804682897241" lon="11.039798205649033"><ele>653.0</ele><time>2026-04-04T14:02:39Z</time></trkpt><trkpt lat="45.5578803333738" lon="11.039754617623604"><ele>653.0</ele><time>2026-04-04T14:02:40Z</time></trkpt><trkpt lat="45.55772603912158" lon="11.0396953662775"><ele>653.0</ele><time>2026-04-04T14:02:41Z</time></trkpt><trkpt lat="45.55758521243296" lon="11.039609812901977"><ele>657.3333333333333</ele><time>2026-04-04T14:02:42Z</time></trkpt><trkpt lat="45.55745813205416" lon="11.039493004684289"><ele>661.6666666666666</ele><time>2026-04-04T14:02:43Z</time></trkpt><trkpt lat="45.55732934397184" lon="11.039345628236376"><ele>666.0</ele><time>2026-04-04T14:02:44Z</time></trkpt><trkpt lat="45.557217600302785" lon="11.039188916945093"><ele>664.75</ele><time>2026-04-04T14:02:45Z</time></trkpt><trkpt lat="45.55712436582026" lon="11.03902931859224"><ele>663.5</ele><time>2026-04-04T14:02:46Z</time></trkpt><trkpt lat="45.557041667574126" lon="11.038871010619227"><ele>662.25</ele><time>2026-04-04T14:02:47Z</time></trkpt><trkpt lat="45.55695675374619" lon="11.038724511304183"><ele>661.0</ele><time>2026-04-04T14:02:48Z</time></trkpt><trkpt lat="45.556872948217894" lon="11.038584165301819"><ele>659.0</ele><time>2026-04-04T14:02:49Z</time></trkpt><trkpt lat="45.55680786050024" lon="11.038432796338794"><ele>657.0</ele><time>2026-04-04T14:02:50Z</time></trkpt><trkpt lat="45.55678237734509" lon="11.038264236502025"><ele>655.0</ele><time>2026-04-04T14:02:51Z</time></trkpt><trkpt lat="45.5567919628569" lon="11.03810156768136"><ele>653.0</ele><time>2026-04-04T14:02:52Z</time></trkpt><trkpt lat="45.5568575924268" lon="11.03797014768102"><ele>652.0</ele><time>2026-04-04T14:02:53Z</time></trkpt><trkpt lat="45.55695613986166" lon="11.037882358774207"><ele>651.0</ele><time>2026-04-04T14:02:54Z</time></trkpt><trkpt lat="45.557063722792485" lon="11.037804905840934"><ele>650.0</ele><time>2026-04-04T14:02:55Z</time></trkpt><trkpt lat="45.557172093862285" lon="11.03773800770647"><ele>649.0</ele><time>2026-04-04T14:02:56Z</time></trkpt><trkpt lat="45.55728855483585" lon="11.037675479205218"><ele>649.0</ele><time>2026-04-04T14:02:56.999Z</time></trkpt><trkpt lat="45.55741489467201" lon="11.037642340277515"><ele>649.0</ele><time>2026-04-04T14:02:57.999Z</time></trkpt><trkpt lat="45.55754670982894" lon="11.037637349256444"><ele>649.0</ele><time>2026-04-04T14:02:58.999Z</time></trkpt><trkpt lat="45.557670880327315" lon="11.037677933818351"><ele>649.0</ele><time>2026-04-04T14:02:59.999Z</time></trkpt><trkpt lat="45.55778447491332" lon="11.037731928283497"><ele>648.2</ele><time>2026-04-04T14:03:00.999Z</time></trkpt><trkpt lat="45.55789865705201" lon="11.03776637689612"><ele>647.4000000000001</ele><time>2026-04-04T14:03:01.999Z</time></trkpt><trkpt lat="45.557999417624224" lon="11.037816877879512"><ele>646.6</ele><time>2026-04-04T14:03:02.999Z</time></trkpt><trkpt lat="45.55808846744532" lon="11.037881057268224"><ele>645.8</ele><time>2026-04-04T14:03:03.999Z</time></trkpt><trkpt lat="45.55819732221429" lon="11.03782473158618"><ele>645.0</ele><time>2026-04-04T14:03:04.999Z</time></trkpt><trkpt lat="45.55829106193179" lon="11.037748433103744"><ele>645.0</ele><time>2026-04-04T14:03:05.999Z</time></trkpt><trkpt lat="45.55835158088279" lon="11.037621976435734"><ele>645.0</ele><time>2026-04-04T14:03:06.999Z</time></trkpt><trkpt lat="45.55837355507803" lon="11.037471639283586"><ele>645.0</ele><time>2026-04-04T14:03:07.999Z</time></trkpt><trkpt lat="45.558353758976374" lon="11.03732328652855"><ele>645.0</ele><time>2026-04-04T14:03:08.999Z</time></trkpt><trkpt lat="45.55829052673929" lon="11.037192907368864"><ele>645.0</ele><time>2026-04-04T14:03:09.999Z</time></trkpt><trkpt lat="45.558184292468525" lon="11.037097455834962"><ele>641.6666666666666</ele><time>2026-04-04T14:03:10.999Z</time></trkpt><trkpt lat="45.55804301646574" lon="11.037041848382204"><ele>638.3333333333333</ele><time>2026-04-04T14:03:11.999Z</time></trkpt><trkpt lat="45.557883059989706" lon="11.037011186070355"><ele>635.0</ele><time>2026-04-04T14:03:12.999Z</time></trkpt><trkpt lat="45.55772385799529" lon="11.036975167161767"><ele>635.0</ele><time>2026-04-04T14:03:13.999Z</time></trkpt><trkpt lat="45.557575458219006" lon="11.036930488210656"><ele>635.0</ele><time>2026-04-04T14:03:14.999Z</time></trkpt><trkpt lat="45.557433565007365" lon="11.036894883492659"><ele>635.0</ele><time>2026-04-04T14:03:15.999Z</time></trkpt><trkpt lat="45.55729718562877" lon="11.036852943766112"><ele>635.0</ele><time>2026-04-04T14:03:16.999Z</time></trkpt><trkpt lat="45.55715701618541" lon="11.036794737510563"><ele>635.25</ele><time>2026-04-04T14:03:17.999Z</time></trkpt><trkpt lat="45.55702626324246" lon="11.036690553840433"><ele>635.5</ele><time>2026-04-04T14:03:18.999Z</time></trkpt><trkpt lat="45.556914252082585" lon="11.036543902036545"><ele>635.75</ele><time>2026-04-04T14:03:19.999Z</time></trkpt><trkpt lat="45.55681613228747" lon="11.036386939774534"><ele>636.0</ele><time>2026-04-04T14:03:20.999Z</time></trkpt><trkpt lat="45.556703181235164" lon="11.036251327822974"><ele>636.6666666666666</ele><time>2026-04-04T14:03:21.999Z</time></trkpt><trkpt lat="45.55655902861537" lon="11.036147230794604"><ele>637.3333333333333</ele><time>2026-04-04T14:03:22.999Z</time></trkpt><trkpt lat="45.55639014861712" lon="11.036082733791593"><ele>638.0</ele><time>2026-04-04T14:03:23.999Z</time></trkpt><trkpt lat="45.556203831206496" lon="11.036046950314805"><ele>636.6666666666666</ele><time>2026-04-04T14:03:24.999Z</time></trkpt><trkpt lat="45.55602519561393" lon="11.03599283580876"><ele>635.3333333333334</ele><time>2026-04-04T14:03:25.999Z</time></trkpt><trkpt lat="45.55584979340771" lon="11.035933159546614"><ele>634.0</ele><time>2026-04-04T14:03:26.999Z</time></trkpt><trkpt lat="45.55567747827074" lon="11.035880465777806"><ele>634.0</ele><time>2026-04-04T14:03:27.999Z</time></trkpt><trkpt lat="45.55550386891379" lon="11.035832364561273"><ele>634.0</ele><time>2026-04-04T14:03:28.999Z</time></trkpt><trkpt lat="45.5553373808157" lon="11.0357760282121"><ele>634.0</ele><time>2026-04-04T14:03:29.999Z</time></trkpt><trkpt lat="45.555169437545224" lon="11.035734429722494"><ele>636.6666666666667</ele><time>2026-04-04T14:03:30.999Z</time></trkpt><trkpt lat="45.55500413661319" lon="11.035688198130401"><ele>639.3333333333334</ele><time>2026-04-04T14:03:31.999Z</time></trkpt><trkpt lat="45.55483885801899" lon="11.035638751086713"><ele>642.0</ele><time>2026-04-04T14:03:32.999Z</time></trkpt><trkpt lat="45.55466625267614" lon="11.035580313940603"><ele>638.0</ele><time>2026-04-04T14:03:33.999Z</time></trkpt><trkpt lat="45.55448964337295" lon="11.035502661691671"><ele>634.0</ele><time>2026-04-04T14:03:34.999Z</time></trkpt><trkpt lat="45.55431569923157" lon="11.035408689519288"><ele>630.0</ele><time>2026-04-04T14:03:35.999Z</time></trkpt><trkpt lat="45.55414849331575" lon="11.035301426394495"><ele>630.0</ele><time>2026-04-04T14:03:36.999Z</time></trkpt><trkpt lat="45.55398332827581" lon="11.035185569459633"><ele>630.0</ele><time>2026-04-04T14:03:37.999Z</time></trkpt><trkpt lat="45.553828468527655" lon="11.035057898578781"><ele>630.0</ele><time>2026-04-04T14:03:38.999Z</time></trkpt><trkpt lat="45.55366926045769" lon="11.034936108435566"><ele>628.3333333333334</ele><time>2026-04-04T14:03:39.999Z</time></trkpt><trkpt lat="45.55351131595092" lon="11.034810573096427"><ele>626.6666666666667</ele><time>2026-04-04T14:03:40.999Z</time></trkpt><trkpt lat="45.553357454583356" lon="11.034684132687103"><ele>625.0</ele><time>2026-04-04T14:03:41.999Z</time></trkpt><trkpt lat="45.55320983596944" lon="11.034569306756099"><ele>625.0</ele><time>2026-04-04T14:03:42.999Z</time></trkpt><trkpt lat="45.55306709906731" lon="11.03445677864872"><ele>625.0</ele><time>2026-04-04T14:03:43.999Z</time></trkpt><trkpt lat="45.55292982022183" lon="11.034340051391188"><ele>625.0</ele><time>2026-04-04T14:03:44.999Z</time></trkpt><trkpt lat="45.55281391010123" lon="11.03421594485504"><ele>620.5</ele><time>2026-04-04T14:03:45.999Z</time></trkpt><trkpt lat="45.55271090296316" lon="11.034066784026855"><ele>616.0</ele><time>2026-04-04T14:03:46.999Z</time></trkpt><trkpt lat="45.55263693521286" lon="11.033900521465279"><ele>611.5</ele><time>2026-04-04T14:03:47.999Z</time></trkpt><trkpt lat="45.55258285573928" lon="11.033707115431367"><ele>607.0</ele><time>2026-04-04T14:03:48.999Z</time></trkpt><trkpt lat="45.55254319841429" lon="11.033489854414423"><ele>607.0</ele><time>2026-04-04T14:03:49.999Z</time></trkpt><trkpt lat="45.55252302283777" lon="11.03325247963467"><ele>607.0</ele><time>2026-04-04T14:03:50.999Z</time></trkpt><trkpt lat="45.55250876011272" lon="11.03300273508206"><ele>607.0</ele><time>2026-04-04T14:03:51.999Z</time></trkpt><trkpt lat="45.55248410153819" lon="11.032781039974843"><ele>607.0</ele><time>2026-04-04T14:03:52.999Z</time></trkpt><trkpt lat="45.5524485075951" lon="11.032562285196635"><ele>607.0</ele><time>2026-04-04T14:03:53.999Z</time></trkpt><trkpt lat="45.552393396698776" lon="11.032351924773778"><ele>607.0</ele><time>2026-04-04T14:03:54.998Z</time></trkpt><trkpt lat="45.55231831837014" lon="11.032149414576072"><ele>608.6666666666667</ele><time>2026-04-04T14:03:55.998Z</time></trkpt><trkpt lat="45.5522337327818" lon="11.03195681202648"><ele>610.3333333333334</ele><time>2026-04-04T14:03:56.998Z</time></trkpt><trkpt lat="45.5521459553377" lon="11.031766960958231"><ele>612.0</ele><time>2026-04-04T14:03:57.998Z</time></trkpt><trkpt lat="45.5520514761889" lon="11.031577157160903"><ele>605.0</ele><time>2026-04-04T14:03:58.998Z</time></trkpt><trkpt lat="45.55196650815211" lon="11.031394220629563"><ele>598.0</ele><time>2026-04-04T14:03:59.998Z</time></trkpt><trkpt lat="45.551891464391716" lon="11.031209729969495"><ele>591.0</ele><time>2026-04-04T14:04:00.998Z</time></trkpt><trkpt lat="45.55182925647645" lon="11.031016740621764"><ele>591.0</ele><time>2026-04-04T14:04:01.998Z</time></trkpt><trkpt lat="45.551780607399" lon="11.030807735828056"><ele>591.0</ele><time>2026-04-04T14:04:02.998Z</time></trkpt><trkpt lat="45.55173184528187" lon="11.030584571877254"><ele>591.0</ele><time>2026-04-04T14:04:03.998Z</time></trkpt><trkpt lat="45.551686836896" lon="11.03036509376798"><ele>592.25</ele><time>2026-04-04T14:04:04.998Z</time></trkpt><trkpt lat="45.55163883416072" lon="11.030157712762218"><ele>593.5</ele><time>2026-04-04T14:04:05.998Z</time></trkpt><trkpt lat="45.55157171708383" lon="11.029979805912811"><ele>594.75</ele><time>2026-04-04T14:04:06.998Z</time></trkpt><trkpt lat="45.551467711149925" lon="11.02984124939217"><ele>596.0</ele><time>2026-04-04T14:04:07.998Z</time></trkpt><trkpt lat="45.55133898661382" lon="11.02972135510027"><ele>595.75</ele><time>2026-04-04T14:04:08.998Z</time></trkpt><trkpt lat="45.55120225327956" lon="11.029651451923451"><ele>595.5</ele><time>2026-04-04T14:04:09.998Z</time></trkpt><trkpt lat="45.55106412210784" lon="11.029604904569917"><ele>595.25</ele><time>2026-04-04T14:04:10.998Z</time></trkpt><trkpt lat="45.55093824719441" lon="11.029555599455104"><ele>595.0</ele><time>2026-04-04T14:04:11.998Z</time></trkpt><trkpt lat="45.55082321373565" lon="11.029508917449888"><ele>595.0</ele><time>2026-04-04T14:04:12.998Z</time></trkpt><trkpt lat="45.55071260182965" lon="11.02946326308915"><ele>595.0</ele><time>2026-04-04T14:04:13.998Z</time></trkpt><trkpt lat="45.55061200541445" lon="11.029418325904569"><ele>595.0</ele><time>2026-04-04T14:04:14.998Z</time></trkpt><trkpt lat="45.55053615975137" lon="11.029387971926214"><ele>595.0</ele><time>2026-04-04T14:04:15.998Z</time></trkpt><trkpt lat="45.55047320405725" lon="11.02935769033846"><ele>595.0</ele><time>2026-04-04T14:04:16.998Z</time></trkpt><trkpt lat="45.55038632195529" lon="11.029302285540991"><ele>593.0</ele><time>2026-04-04T14:04:18.998Z</time></trkpt><trkpt lat="45.55032095231149" lon="11.029252990479657"><ele>591.0</ele><time>2026-04-04T14:04:21Z</time></trkpt><trkpt lat="45.550245361765846" lon="11.029183032091566"><ele>589.0</ele><time>2026-04-04T14:04:23Z</time></trkpt><trkpt lat="45.55016205269296" lon="11.029130967302548"><ele>587.0</ele><time>2026-04-04T14:04:25Z</time></trkpt><trkpt lat="45.55009162345537" lon="11.029099203180362"><ele>585.0</ele><time>2026-04-04T14:04:26Z</time></trkpt><trkpt lat="45.54998621516767" lon="11.02909434768929"><ele>583.0</ele><time>2026-04-04T14:04:28Z</time></trkpt><trkpt lat="45.54991410380322" lon="11.029080179350736"><ele>583.0</ele><time>2026-04-04T14:04:29Z</time></trkpt><trkpt lat="45.549832289549656" lon="11.0290152913309"><ele>583.0</ele><time>2026-04-04T14:04:30Z</time></trkpt><trkpt lat="45.54975494211721" lon="11.02891433595195"><ele>583.0</ele><time>2026-04-04T14:04:31Z</time></trkpt><trkpt lat="45.54967986898767" lon="11.028787068484773"><ele>583.0</ele><time>2026-04-04T14:04:32Z</time></trkpt><trkpt lat="45.549615569059775" lon="11.028649227611941"><ele>583.0</ele><time>2026-04-04T14:04:33Z</time></trkpt><trkpt lat="45.549561223623115" lon="11.028499846673851"><ele>576.0</ele><time>2026-04-04T14:04:34Z</time></trkpt><trkpt lat="45.549520239683126" lon="11.028336246016025"><ele>569.0</ele><time>2026-04-04T14:04:35Z</time></trkpt><trkpt lat="45.549503053673476" lon="11.028156034581738"><ele>562.0</ele><time>2026-04-04T14:04:36Z</time></trkpt><trkpt lat="45.54950548772698" lon="11.027968272808959"><ele>555.0</ele><time>2026-04-04T14:04:37Z</time></trkpt><trkpt lat="45.54952666731322" lon="11.027777073709444"><ele>555.5</ele><time>2026-04-04T14:04:38Z</time></trkpt><trkpt lat="45.549565185076254" lon="11.027587776738276"><ele>556.0</ele><time>2026-04-04T14:04:39Z</time></trkpt><trkpt lat="45.54962744844345" lon="11.02740741380544"><ele>556.5</ele><time>2026-04-04T14:04:40Z</time></trkpt><trkpt lat="45.54971026714064" lon="11.027235955512678"><ele>557.0</ele><time>2026-04-04T14:04:41Z</time></trkpt><trkpt lat="45.54981212235553" lon="11.027084929391952"><ele>557.0</ele><time>2026-04-04T14:04:42Z</time></trkpt><trkpt lat="45.54994067267503" lon="11.026953936905741"><ele>557.0</ele><time>2026-04-04T14:04:43Z</time></trkpt><trkpt lat="45.55007416076913" lon="11.026867086402431"><ele>557.0</ele><time>2026-04-04T14:04:44Z</time></trkpt><trkpt lat="45.55020033965202" lon="11.026791482379133"><ele>557.0</ele><time>2026-04-04T14:04:45Z</time></trkpt><trkpt lat="45.55031790865832" lon="11.026701375931223"><ele>559.25</ele><time>2026-04-04T14:04:46Z</time></trkpt><trkpt lat="45.550421411402695" lon="11.026579954841221"><ele>561.5</ele><time>2026-04-04T14:04:47Z</time></trkpt><trkpt lat="45.55050770462772" lon="11.026436689530087"><ele>563.75</ele><time>2026-04-04T14:04:48Z</time></trkpt><trkpt lat="45.550574898442036" lon="11.026273519286315"><ele>566.0</ele><time>2026-04-04T14:04:49Z</time></trkpt><trkpt lat="45.55061284875083" lon="11.026090833062135"><ele>566.0</ele><time>2026-04-04T14:04:50Z</time></trkpt><trkpt lat="45.5506216205842" lon="11.02589198227103"><ele>566.0</ele><time>2026-04-04T14:04:51Z</time></trkpt><trkpt lat="45.5505913430883" lon="11.025695136263836"><ele>566.0</ele><time>2026-04-04T14:04:52Z</time></trkpt><trkpt lat="45.550529287162426" lon="11.025515543704811"><ele>566.0</ele><time>2026-04-04T14:04:53Z</time></trkpt><trkpt lat="45.55044467520275" lon="11.025353797541026"><ele>564.0</ele><time>2026-04-04T14:04:54Z</time></trkpt><trkpt lat="45.55034381000024" lon="11.025215284220172"><ele>562.0</ele><time>2026-04-04T14:04:55Z</time></trkpt><trkpt lat="45.55022030733026" lon="11.025103478097945"><ele>560.0</ele><time>2026-04-04T14:04:56Z</time></trkpt><trkpt lat="45.5500911488138" lon="11.025002942398798"><ele>558.0</ele><time>2026-04-04T14:04:57Z</time></trkpt><trkpt lat="45.54996870454916" lon="11.024897318199868"><ele>558.0</ele><time>2026-04-04T14:04:58Z</time></trkpt><trkpt lat="45.549852172629336" lon="11.024785513715532"><ele>558.0</ele><time>2026-04-04T14:04:59Z</time></trkpt><trkpt lat="45.549734624731215" lon="11.02467831661692"><ele>558.0</ele><time>2026-04-04T14:05:00Z</time></trkpt><trkpt lat="45.54961907722257" lon="11.024576237656607"><ele>558.0</ele><time>2026-04-04T14:05:01Z</time></trkpt><trkpt lat="45.54950308704543" lon="11.024475292589557"><ele>554.25</ele><time>2026-04-04T14:05:02Z</time></trkpt><trkpt lat="45.54938791718901" lon="11.024368457173994"><ele>550.5</ele><time>2026-04-04T14:05:02.999Z</time></trkpt><trkpt lat="45.549272625257004" lon="11.024257165158915"><ele>546.75</ele><time>2026-04-04T14:05:03.999Z</time></trkpt><trkpt lat="45.54915945052246" lon="11.024139844399448"><ele>543.0</ele><time>2026-04-04T14:05:04.999Z</time></trkpt><trkpt lat="45.54904514763007" lon="11.024014727108373"><ele>543.0</ele><time>2026-04-04T14:05:05.999Z</time></trkpt><trkpt lat="45.54892706198852" lon="11.023888922889686"><ele>543.0</ele><time>2026-04-04T14:05:06.999Z</time></trkpt><trkpt lat="45.548804112917246" lon="11.023767253007158"><ele>543.0</ele><time>2026-04-04T14:05:07.999Z</time></trkpt><trkpt lat="45.54867338741715" lon="11.023649214699864"><ele>539.3333333333334</ele><time>2026-04-04T14:05:08.999Z</time></trkpt><trkpt lat="45.54853147425809" lon="11.023556026527512"><ele>535.6666666666667</ele><time>2026-04-04T14:05:09.999Z</time></trkpt><trkpt lat="45.54837912235906" lon="11.023503202362969"><ele>532.0</ele><time>2026-04-04T14:05:10.999Z</time></trkpt><trkpt lat="45.54821835349902" lon="11.023486687399123"><ele>532.0</ele><time>2026-04-04T14:05:11.999Z</time></trkpt><trkpt lat="45.54805619207892" lon="11.023512457188247"><ele>532.0</ele><time>2026-04-04T14:05:12.999Z</time></trkpt><trkpt lat="45.54789270492122" lon="11.02353638153255"><ele>532.0</ele><time>2026-04-04T14:05:13.999Z</time></trkpt><trkpt lat="45.547746035590464" lon="11.023575360233806"><ele>530.0</ele><time>2026-04-04T14:05:14.999Z</time></trkpt><trkpt lat="45.54760659533586" lon="11.023624795431338"><ele>528.0</ele><time>2026-04-04T14:05:15.999Z</time></trkpt><trkpt lat="45.54746959352132" lon="11.023627806301565"><ele>526.0</ele><time>2026-04-04T14:05:16.999Z</time></trkpt><trkpt lat="45.547339159009134" lon="11.023608915314774"><ele>524.0</ele><time>2026-04-04T14:05:17.999Z</time></trkpt><trkpt lat="45.54720163877323" lon="11.023566351026783"><ele>523.0</ele><time>2026-04-04T14:05:18.999Z</time></trkpt><trkpt lat="45.547023454629084" lon="11.023496542573788"><ele>522.0</ele><time>2026-04-04T14:05:19.999Z</time></trkpt><trkpt lat="45.546831939752124" lon="11.023369181936134"><ele>521.0</ele><time>2026-04-04T14:05:20.999Z</time></trkpt><trkpt lat="45.54660860268121" lon="11.023243159925006"><ele>521.0</ele><time>2026-04-04T14:05:21.999Z</time></trkpt><trkpt lat="45.54638635918967" lon="11.02311662648051"><ele>521.0</ele><time>2026-04-04T14:05:22.999Z</time></trkpt><trkpt lat="45.546187569634704" lon="11.023003987620882"><ele>516.3333333333333</ele><time>2026-04-04T14:05:23.999Z</time></trkpt><trkpt lat="45.54599853812552" lon="11.022896877900155"><ele>511.66666666666663</ele><time>2026-04-04T14:05:24.999Z</time></trkpt><trkpt lat="45.5458175639236" lon="11.022794333250365"><ele>507.0</ele><time>2026-04-04T14:05:25.999Z</time></trkpt><trkpt lat="45.5456216895468" lon="11.0226833460173"><ele>507.0</ele><time>2026-04-04T14:05:26.999Z</time></trkpt><trkpt lat="45.545442871123164" lon="11.022582023154845"><ele>507.0</ele><time>2026-04-04T14:05:27.999Z</time></trkpt><trkpt lat="45.54528343568704" lon="11.022509511028217"><ele>507.0</ele><time>2026-04-04T14:05:28.999Z</time></trkpt><trkpt lat="45.545146005201005" lon="11.022425528524849"><ele>505.25</ele><time>2026-04-04T14:05:29.999Z</time></trkpt><trkpt lat="45.54502142425398" lon="11.022355142373648"><ele>503.5</ele><time>2026-04-04T14:05:30.999Z</time></trkpt><trkpt lat="45.54489660652287" lon="11.022287707809767"><ele>501.75</ele><time>2026-04-04T14:05:31.999Z</time></trkpt><trkpt lat="45.54477396593383" lon="11.022207105393493"><ele>500.0</ele><time>2026-04-04T14:05:32.999Z</time></trkpt><trkpt lat="45.54464931401942" lon="11.022113192703477"><ele>496.5</ele><time>2026-04-04T14:05:33.999Z</time></trkpt><trkpt lat="45.54453581629175" lon="11.02200000345482"><ele>493.0</ele><time>2026-04-04T14:05:34.999Z</time></trkpt><trkpt lat="45.544433442270005" lon="11.021867371211242"><ele>489.5</ele><time>2026-04-04T14:05:35.999Z</time></trkpt><trkpt lat="45.54433151743989" lon="11.021712580027636"><ele>486.0</ele><time>2026-04-04T14:05:36.999Z</time></trkpt><trkpt lat="45.544229130163856" lon="11.021523909859429"><ele>486.0</ele><time>2026-04-04T14:05:37.999Z</time></trkpt><trkpt lat="45.544129946544366" lon="11.021322131793196"><ele>486.0</ele><time>2026-04-04T14:05:38.999Z</time></trkpt><trkpt lat="45.54400975940064" lon="11.021093169398847"><ele>486.0</ele><time>2026-04-04T14:05:39.999Z</time></trkpt><trkpt lat="45.54387084132131" lon="11.02081719849738"><ele>487.0</ele><time>2026-04-04T14:05:40.999Z</time></trkpt><trkpt lat="45.54372105095846" lon="11.020497327164076"><ele>488.0</ele><time>2026-04-04T14:05:41.999Z</time></trkpt><trkpt lat="45.54359554342522" lon="11.02019912808828"><ele>483.0</ele><time>2026-04-04T14:05:42.999Z</time></trkpt><trkpt lat="45.54348460962828" lon="11.019922125348875"><ele>478.0</ele><time>2026-04-04T14:05:43.999Z</time></trkpt><trkpt lat="45.54339433665868" lon="11.019647837611112"><ele>473.0</ele><time>2026-04-04T14:05:44.999Z</time></trkpt><trkpt lat="45.54332674474334" lon="11.01935445881313"><ele>472.0</ele><time>2026-04-04T14:05:45.999Z</time></trkpt><trkpt lat="45.54327974929894" lon="11.019044964295016"><ele>471.0</ele><time>2026-04-04T14:05:46.999Z</time></trkpt><trkpt lat="45.54324090679882" lon="11.01876233423231"><ele>470.0</ele><time>2026-04-04T14:05:47.999Z</time></trkpt><trkpt lat="45.54319239724758" lon="11.018492684620059"><ele>471.66666666666663</ele><time>2026-04-04T14:05:48.999Z</time></trkpt><trkpt lat="45.54312550525892" lon="11.018218176007894"><ele>473.33333333333337</ele><time>2026-04-04T14:05:49.999Z</time></trkpt><trkpt lat="45.543030520457044" lon="11.017951823887065"><ele>475.0</ele><time>2026-04-04T14:05:50.999Z</time></trkpt><trkpt lat="45.542913945860704" lon="11.017704383451957"><ele>471.33333333333337</ele><time>2026-04-04T14:05:51.999Z</time></trkpt><trkpt lat="45.54277873372778" lon="11.017485406142502"><ele>467.66666666666663</ele><time>2026-04-04T14:05:52.999Z</time></trkpt><trkpt lat="45.542619029560825" lon="11.01728843633052"><ele>464.0</ele><time>2026-04-04T14:05:53.999Z</time></trkpt><trkpt lat="45.54242052985723" lon="11.01711795644779"><ele>464.0</ele><time>2026-04-04T14:05:54.999Z</time></trkpt><trkpt lat="45.54219138539262" lon="11.016975917568077"><ele>464.0</ele><time>2026-04-04T14:05:55.999Z</time></trkpt><trkpt lat="45.541992106748914" lon="11.016852045888948"><ele>461.3333333333333</ele><time>2026-04-04T14:05:56.999Z</time></trkpt><trkpt lat="45.54181115938931" lon="11.016712370845411"><ele>458.66666666666663</ele><time>2026-04-04T14:05:57.999Z</time></trkpt><trkpt lat="45.54164344827799" lon="11.016554393665512"><ele>456.0</ele><time>2026-04-04T14:05:58.999Z</time></trkpt><trkpt lat="45.54147944862166" lon="11.016357924679772"><ele>456.0</ele><time>2026-04-04T14:05:59.998Z</time></trkpt><trkpt lat="45.5413105292497" lon="11.016110560606242"><ele>456.0</ele><time>2026-04-04T14:06:00.998Z</time></trkpt><trkpt lat="45.5411306832739" lon="11.015796696095503"><ele>448.0</ele><time>2026-04-04T14:06:01.998Z</time></trkpt><trkpt lat="45.54092446938253" lon="11.015445944195582"><ele>440.0</ele><time>2026-04-04T14:06:02.998Z</time></trkpt><trkpt lat="45.54070013983873" lon="11.015071194018889"><ele>441.5</ele><time>2026-04-04T14:06:03.998Z</time></trkpt><trkpt lat="45.540492015952914" lon="11.014721094291332"><ele>443.0</ele><time>2026-04-04T14:06:04.998Z</time></trkpt><trkpt lat="45.540305390784916" lon="11.014407854189168"><ele>435.0</ele><time>2026-04-04T14:06:05.998Z</time></trkpt><trkpt lat="45.54013678575171" lon="11.014103458630588"><ele>427.0</ele><time>2026-04-04T14:06:06.998Z</time></trkpt><trkpt lat="45.539971098572394" lon="11.013817335602248"><ele>427.0</ele><time>2026-04-04T14:06:07.998Z</time></trkpt><trkpt lat="45.539811706361775" lon="11.013554209064386"><ele>427.0</ele><time>2026-04-04T14:06:08.998Z</time></trkpt><trkpt lat="45.539648990145174" lon="11.013294751956165"><ele>420.0</ele><time>2026-04-04T14:06:09.998Z</time></trkpt><trkpt lat="45.539471677716044" lon="11.013034709369789"><ele>413.0</ele><time>2026-04-04T14:06:10.998Z</time></trkpt><trkpt lat="45.539290917948954" lon="11.012801371469694"><ele>413.0</ele><time>2026-04-04T14:06:11.998Z</time></trkpt><trkpt lat="45.539100379902294" lon="11.012595809823216"><ele>413.0</ele><time>2026-04-04T14:06:12.998Z</time></trkpt><trkpt lat="45.538905391036295" lon="11.012416071890483"><ele>411.0</ele><time>2026-04-04T14:06:13.998Z</time></trkpt><trkpt lat="45.53870964922976" lon="11.012258489743003"><ele>409.0</ele><time>2026-04-04T14:06:14.998Z</time></trkpt><trkpt lat="45.53851901743207" lon="11.012113556748396"><ele>407.0</ele><time>2026-04-04T14:06:15.998Z</time></trkpt><trkpt lat="45.53833973001967" lon="11.011972055962794"><ele>407.0</ele><time>2026-04-04T14:06:16.998Z</time></trkpt><trkpt lat="45.53817320490103" lon="11.011834149935"><ele>407.0</ele><time>2026-04-04T14:06:17.998Z</time></trkpt><trkpt lat="45.53803527491865" lon="11.011704973523877"><ele>407.0</ele><time>2026-04-04T14:06:18.998Z</time></trkpt><trkpt lat="45.537905912245904" lon="11.011548321683003"><ele>400.0</ele><time>2026-04-04T14:06:19.998Z</time></trkpt><trkpt lat="45.537801824969335" lon="11.011374121397859"><ele>393.0</ele><time>2026-04-04T14:06:20.998Z</time></trkpt><trkpt lat="45.53773216168052" lon="11.011179495765454"><ele>386.0</ele><time>2026-04-04T14:06:21.998Z</time></trkpt><trkpt lat="45.53768416030961" lon="11.010980319613319"><ele>384.0</ele><time>2026-04-04T14:06:22.998Z</time></trkpt><trkpt lat="45.53766562096716" lon="11.010770418708923"><ele>382.0</ele><time>2026-04-04T14:06:23.998Z</time></trkpt><trkpt lat="45.53766642985123" lon="11.010573616961514"><ele>380.0</ele><time>2026-04-04T14:06:24.998Z</time></trkpt><trkpt lat="45.5376868020563" lon="11.010372486653205"><ele>378.0</ele><time>2026-04-04T14:06:26Z</time></trkpt><trkpt lat="45.53772508768116" lon="11.010168269671306"><ele>376.6666666666667</ele><time>2026-04-04T14:06:27Z</time></trkpt><trkpt lat="45.53774000568963" lon="11.009972433402234"><ele>375.33333333333337</ele><time>2026-04-04T14:06:28Z</time></trkpt><trkpt lat="45.537757728529556" lon="11.009798017565775"><ele>374.0</ele><time>2026-04-04T14:06:29Z</time></trkpt><trkpt lat="45.538048385468876" lon="11.00969787223709"><ele>374.0</ele><time>2026-04-04T14:06:30Z</time></trkpt><trkpt lat="45.538188640632846" lon="11.00959370248521"><ele>374.0</ele><time>2026-04-04T14:06:31Z</time></trkpt><trkpt lat="45.53835130303153" lon="11.00953086248"><ele>374.0</ele><time>2026-04-04T14:06:32Z</time></trkpt><trkpt lat="45.538529214785605" lon="11.009516856756656"><ele>374.0</ele><time>2026-04-04T14:06:33Z</time></trkpt><trkpt lat="45.5386997885764" lon="11.00954292351868"><ele>374.0</ele><time>2026-04-04T14:06:34Z</time></trkpt><trkpt lat="45.53886226780975" lon="11.009592369852875"><ele>374.0</ele><time>2026-04-04T14:06:35Z</time></trkpt><trkpt lat="45.53901167948349" lon="11.009648541762145"><ele>371.5</ele><time>2026-04-04T14:06:36Z</time></trkpt><trkpt lat="45.539154724297724" lon="11.009696826566117"><ele>369.0</ele><time>2026-04-04T14:06:37Z</time></trkpt><trkpt lat="45.53929475129976" lon="11.009734434824388"><ele>366.5</ele><time>2026-04-04T14:06:38Z</time></trkpt><trkpt lat="45.53943201714441" lon="11.009771245479488"><ele>364.0</ele><time>2026-04-04T14:06:39Z</time></trkpt><trkpt lat="45.53958120215255" lon="11.009784828736352"><ele>363.5</ele><time>2026-04-04T14:06:40Z</time></trkpt><trkpt lat="45.539725747989955" lon="11.009764152226706"><ele>363.0</ele><time>2026-04-04T14:06:41Z</time></trkpt><trkpt lat="45.53985726798631" lon="11.009720403112775"><ele>362.5</ele><time>2026-04-04T14:06:42Z</time></trkpt><trkpt lat="45.53997651463066" lon="11.009654445578027"><ele>362.0</ele><time>2026-04-04T14:06:43Z</time></trkpt><trkpt lat="45.540081245080735" lon="11.009558208893829"><ele>362.0</ele><time>2026-04-04T14:06:44Z</time></trkpt><trkpt lat="45.54017684178725" lon="11.009439837066692"><ele>362.0</ele><time>2026-04-04T14:06:45Z</time></trkpt><trkpt lat="45.54027105922148" lon="11.009305691911655"><ele>362.0</ele><time>2026-04-04T14:06:46Z</time></trkpt><trkpt lat="45.54036278727951" lon="11.009159252123158"><ele>362.0</ele><time>2026-04-04T14:06:47Z</time></trkpt><trkpt lat="45.54045483522577" lon="11.009030438530832"><ele>358.0</ele><time>2026-04-04T14:06:48Z</time></trkpt><trkpt lat="45.54055802435941" lon="11.00890949401863"><ele>354.0</ele><time>2026-04-04T14:06:49Z</time></trkpt><trkpt lat="45.54069598969704" lon="11.008791934135008"><ele>350.0</ele><time>2026-04-04T14:06:50Z</time></trkpt><trkpt lat="45.540857405870696" lon="11.008699080427586"><ele>350.0</ele><time>2026-04-04T14:06:51Z</time></trkpt><trkpt lat="45.54102468084675" lon="11.008629426607854"><ele>350.0</ele><time>2026-04-04T14:06:52Z</time></trkpt><trkpt lat="45.54118492401202" lon="11.00856938599011"><ele>350.0</ele><time>2026-04-04T14:06:53Z</time></trkpt><trkpt lat="45.54134114585847" lon="11.008522225622402"><ele>349.0</ele><time>2026-04-04T14:06:54Z</time></trkpt><trkpt lat="45.54149024898857" lon="11.008473269835994"><ele>348.0</ele><time>2026-04-04T14:06:55Z</time></trkpt><trkpt lat="45.5416334654039" lon="11.008417275540586"><ele>347.0</ele><time>2026-04-04T14:06:56Z</time></trkpt><trkpt lat="45.541796302644855" lon="11.008371715033885"><ele>347.0</ele><time>2026-04-04T14:06:57Z</time></trkpt><trkpt lat="45.541963148798374" lon="11.008343912211092"><ele>347.0</ele><time>2026-04-04T14:06:58Z</time></trkpt><trkpt lat="45.542125506854" lon="11.008344552353162"><ele>347.0</ele><time>2026-04-04T14:06:59Z</time></trkpt><trkpt lat="45.542284060501395" lon="11.008369531863508"><ele>343.6666666666667</ele><time>2026-04-04T14:07:00Z</time></trkpt><trkpt lat="45.54243795826348" lon="11.008412871026982"><ele>340.3333333333333</ele><time>2026-04-04T14:07:01Z</time></trkpt><trkpt lat="45.542588812871884" lon="11.008473549415276"><ele>337.0</ele><time>2026-04-04T14:07:02Z</time></trkpt><trkpt lat="45.54273339703233" lon="11.008550145338535"><ele>337.0</ele><time>2026-04-04T14:07:03Z</time></trkpt><trkpt lat="45.54287129619814" lon="11.00864467357202"><ele>337.0</ele><time>2026-04-04T14:07:04Z</time></trkpt><trkpt lat="45.54300169666581" lon="11.00876030225903"><ele>337.0</ele><time>2026-04-04T14:07:05Z</time></trkpt><trkpt lat="45.54312670342709" lon="11.008882149800645"><ele>336.0</ele><time>2026-04-04T14:07:06Z</time></trkpt><trkpt lat="45.5432431839162" lon="11.009015391679895"><ele>335.0</ele><time>2026-04-04T14:07:07Z</time></trkpt><trkpt lat="45.54334756485743" lon="11.009166353253576"><ele>334.0</ele><time>2026-04-04T14:07:07.999Z</time></trkpt><trkpt lat="45.5434436762025" lon="11.009321008410584"><ele>333.0</ele><time>2026-04-04T14:07:08.999Z</time></trkpt><trkpt lat="45.54353479198217" lon="11.009475598190237"><ele>333.0</ele><time>2026-04-04T14:07:09.999Z</time></trkpt><trkpt lat="45.543629818073995" lon="11.00961590222914"><ele>333.0</ele><time>2026-04-04T14:07:10.999Z</time></trkpt><trkpt lat="45.54372819462112" lon="11.009745742070896"><ele>333.0</ele><time>2026-04-04T14:07:11.999Z</time></trkpt><trkpt lat="45.54383176526973" lon="11.009852073146975"><ele>333.0</ele><time>2026-04-04T14:07:12.999Z</time></trkpt><trkpt lat="45.54394628620095" lon="11.009928996481813"><ele>325.5</ele><time>2026-04-04T14:07:13.999Z</time></trkpt><trkpt lat="45.54406804734759" lon="11.009970607430043"><ele>318.0</ele><time>2026-04-04T14:07:14.999Z</time></trkpt><trkpt lat="45.54418700380859" lon="11.009969633878727"><ele>310.5</ele><time>2026-04-04T14:07:15.999Z</time></trkpt><trkpt lat="45.544305762303644" lon="11.009928018271184"><ele>303.0</ele><time>2026-04-04T14:07:16.999Z</time></trkpt><trkpt lat="45.54441981129823" lon="11.009858851663951"><ele>303.0</ele><time>2026-04-04T14:07:17.999Z</time></trkpt><trkpt lat="45.54452873109508" lon="11.009751621197369"><ele>303.0</ele><time>2026-04-04T14:07:18.999Z</time></trkpt><trkpt lat="45.54461790247291" lon="11.009608637125847"><ele>303.0</ele><time>2026-04-04T14:07:19.999Z</time></trkpt><trkpt lat="45.54468783620856" lon="11.0094410120871"><ele>303.0</ele><time>2026-04-04T14:07:20.999Z</time></trkpt><trkpt lat="45.54474238317021" lon="11.009246678398053"><ele>306.75</ele><time>2026-04-04T14:07:21.999Z</time></trkpt><trkpt lat="45.54478809228147" lon="11.009069804616797"><ele>310.5</ele><time>2026-04-04T14:07:22.999Z</time></trkpt><trkpt lat="45.54483352303329" lon="11.008901039443206"><ele>314.25</ele><time>2026-04-04T14:07:23.999Z</time></trkpt><trkpt lat="45.54487127082045" lon="11.008732870406922"><ele>318.0</ele><time>2026-04-04T14:07:24.999Z</time></trkpt><trkpt lat="45.544908286683594" lon="11.008554363695177"><ele>318.0</ele><time>2026-04-04T14:07:25.999Z</time></trkpt><trkpt lat="45.5449513832565" lon="11.008371274342817"><ele>318.0</ele><time>2026-04-04T14:07:26.999Z</time></trkpt><trkpt lat="45.54499611701769" lon="11.008190803921794"><ele>318.0</ele><time>2026-04-04T14:07:27.999Z</time></trkpt><trkpt lat="45.54503713290627" lon="11.008006873224407"><ele>318.0</ele><time>2026-04-04T14:07:28.999Z</time></trkpt><trkpt lat="45.545080751846605" lon="11.007826490210283"><ele>314.0</ele><time>2026-04-04T14:07:29.999Z</time></trkpt><trkpt lat="45.54513862417485" lon="11.007652621189836"><ele>310.0</ele><time>2026-04-04T14:07:30.999Z</time></trkpt><trkpt lat="45.54520652820011" lon="11.007484237899781"><ele>306.0</ele><time>2026-04-04T14:07:31.999Z</time></trkpt><trkpt lat="45.54529521363318" lon="11.00733127777367"><ele>302.0</ele><time>2026-04-04T14:07:32.999Z</time></trkpt><trkpt lat="45.54541289496942" lon="11.007182784685394"><ele>301.33333333333337</ele><time>2026-04-04T14:07:33.999Z</time></trkpt><trkpt lat="45.545556746368376" lon="11.007055578552063"><ele>300.6666666666667</ele><time>2026-04-04T14:07:34.999Z</time></trkpt><trkpt lat="45.545710541500725" lon="11.006943863226562"><ele>300.0</ele><time>2026-04-04T14:07:35.999Z</time></trkpt><trkpt lat="45.54585738897254" lon="11.006820844132893"><ele>300.0</ele><time>2026-04-04T14:07:36.999Z</time></trkpt><trkpt lat="45.54599399337613" lon="11.006705941901256"><ele>300.0</ele><time>2026-04-04T14:07:37.999Z</time></trkpt><trkpt lat="45.54613287108579" lon="11.006595196311968"><ele>300.0</ele><time>2026-04-04T14:07:38.999Z</time></trkpt><trkpt lat="45.54628775943168" lon="11.006465943030955"><ele>291.0</ele><time>2026-04-04T14:07:39.999Z</time></trkpt><trkpt lat="45.54649221535728" lon="11.00631965335932"><ele>282.0</ele><time>2026-04-04T14:07:40.999Z</time></trkpt><trkpt lat="45.54673208052024" lon="11.006132806132522"><ele>282.0</ele><time>2026-04-04T14:07:41.999Z</time></trkpt><trkpt lat="45.54698143223137" lon="11.005938875884722"><ele>282.0</ele><time>2026-04-04T14:07:42.999Z</time></trkpt><trkpt lat="45.547211844809354" lon="11.005759423350929"><ele>273.0</ele><time>2026-04-04T14:07:43.999Z</time></trkpt><trkpt lat="45.54742138415896" lon="11.005598705562287"><ele>264.0</ele><time>2026-04-04T14:07:44.999Z</time></trkpt><trkpt lat="45.54763112719811" lon="11.005459875078905"><ele>264.0</ele><time>2026-04-04T14:07:45.999Z</time></trkpt><trkpt lat="45.54783115816571" lon="11.005350354527273"><ele>264.0</ele><time>2026-04-04T14:07:46.999Z</time></trkpt><trkpt lat="45.548042553216476" lon="11.0052670512889"><ele>264.0</ele><time>2026-04-04T14:07:47.999Z</time></trkpt><trkpt lat="45.548256715531394" lon="11.00519999905699"><ele>265.0</ele><time>2026-04-04T14:07:48.999Z</time></trkpt><trkpt lat="45.54845610829004" lon="11.00514014280176"><ele>266.0</ele><time>2026-04-04T14:07:49.999Z</time></trkpt><trkpt lat="45.54865544970011" lon="11.005087349364292"><ele>267.0</ele><time>2026-04-04T14:07:50.999Z</time></trkpt><trkpt lat="45.548850166185616" lon="11.005068825457485"><ele>267.0</ele><time>2026-04-04T14:07:51.999Z</time></trkpt><trkpt lat="45.54906524354927" lon="11.005098045454043"><ele>267.0</ele><time>2026-04-04T14:07:52.999Z</time></trkpt><trkpt lat="45.549308858435765" lon="11.005154640543871"><ele>261.5</ele><time>2026-04-04T14:07:53.999Z</time></trkpt><trkpt lat="45.54956509215416" lon="11.005218754562677"><ele>256.0</ele><time>2026-04-04T14:07:54.999Z</time></trkpt><trkpt lat="45.549824633614556" lon="11.005281296720586"><ele>256.0</ele><time>2026-04-04T14:07:55.999Z</time></trkpt><trkpt lat="45.55005836326646" lon="11.005338894826751"><ele>256.0</ele><time>2026-04-04T14:07:56.999Z</time></trkpt><trkpt lat="45.55028357172834" lon="11.005398085821074"><ele>254.33333333333331</ele><time>2026-04-04T14:07:57.999Z</time></trkpt><trkpt lat="45.5504977025795" lon="11.005455451666352"><ele>252.66666666666669</ele><time>2026-04-04T14:07:58.999Z</time></trkpt><trkpt lat="45.55069791728918" lon="11.0055088769601"><ele>251.0</ele><time>2026-04-04T14:07:59.999Z</time></trkpt><trkpt lat="45.55089275037019" lon="11.005531990060257"><ele>251.0</ele><time>2026-04-04T14:08:00.999Z</time></trkpt><trkpt lat="45.55107083480891" lon="11.00551001212449"><ele>251.0</ele><time>2026-04-04T14:08:01.999Z</time></trkpt><trkpt lat="45.551230163682995" lon="11.005441776285702"><ele>251.0</ele><time>2026-04-04T14:08:02.999Z</time></trkpt><trkpt lat="45.55137192859483" lon="11.005330294158636"><ele>250.66666666666669</ele><time>2026-04-04T14:08:03.999Z</time></trkpt><trkpt lat="45.551482772554046" lon="11.00516923797931"><ele>250.33333333333331</ele><time>2026-04-04T14:08:04.999Z</time></trkpt><trkpt lat="45.551590628214214" lon="11.004995144886028"><ele>250.0</ele><time>2026-04-04T14:08:05.998Z</time></trkpt><trkpt lat="45.5516756750098" lon="11.004788927506477"><ele>250.0</ele><time>2026-04-04T14:08:06.998Z</time></trkpt><trkpt lat="45.55172513482342" lon="11.004557283806985"><ele>250.0</ele><time>2026-04-04T14:08:07.998Z</time></trkpt><trkpt lat="45.551746911454394" lon="11.004323553942154"><ele>250.0</ele><time>2026-04-04T14:08:08.998Z</time></trkpt><trkpt lat="45.55174103296435" lon="11.004102774714273"><ele>250.33333333333331</ele><time>2026-04-04T14:08:09.998Z</time></trkpt><trkpt lat="45.55169593729612" lon="11.003886938740417"><ele>250.66666666666669</ele><time>2026-04-04T14:08:10.998Z</time></trkpt><trkpt lat="45.55162406678584" lon="11.003689530488257"><ele>251.0</ele><time>2026-04-04T14:08:11.998Z</time></trkpt><trkpt lat="45.55153577811061" lon="11.003518757517178"><ele>251.0</ele><time>2026-04-04T14:08:12.998Z</time></trkpt><trkpt lat="45.55142862223097" lon="11.003383239473665"><ele>251.0</ele><time>2026-04-04T14:08:13.998Z</time></trkpt><trkpt lat="45.55130873096782" lon="11.003285653126069"><ele>251.0</ele><time>2026-04-04T14:08:14.998Z</time></trkpt><trkpt lat="45.55117812074469" lon="11.00321709658793"><ele>251.0</ele><time>2026-04-04T14:08:15.998Z</time></trkpt><trkpt lat="45.55104389501359" lon="11.003171085775596"><ele>249.75</ele><time>2026-04-04T14:08:16.998Z</time></trkpt><trkpt lat="45.5509123961849" lon="11.003153669077724"><ele>248.5</ele><time>2026-04-04T14:08:17.998Z</time></trkpt><trkpt lat="45.55078692501254" lon="11.003158425369332"><ele>247.25</ele><time>2026-04-04T14:08:18.998Z</time></trkpt><trkpt lat="45.550669123590794" lon="11.003167408772082"><ele>246.0</ele><time>2026-04-04T14:08:19.998Z</time></trkpt><trkpt lat="45.550576418403935" lon="11.003176708349535"><ele>246.0</ele><time>2026-04-04T14:08:20.998Z</time></trkpt><trkpt lat="45.55049183426267" lon="11.003193399183884"><ele>246.00000000000003</ele><time>2026-04-04T14:08:22.998Z</time></trkpt><trkpt lat="45.55040324423974" lon="11.003221979025785"><ele>246.00000000000003</ele><time>2026-04-04T14:09:29.999Z</time></trkpt><trkpt lat="45.55033508123564" lon="11.003281710124599"><ele>246.0</ele><time>2026-04-04T14:09:30.999Z</time></trkpt><trkpt lat="45.55023168290622" lon="11.003336955586548"><ele>246.0</ele><time>2026-04-04T14:09:31.999Z</time></trkpt><trkpt lat="45.55011028600714" lon="11.003375174495444"><ele>245.5</ele><time>2026-04-04T14:09:32.999Z</time></trkpt><trkpt lat="45.550005632042456" lon="11.003406409427159"><ele>245.0</ele><time>2026-04-04T14:09:33.999Z</time></trkpt><trkpt lat="45.5498985035569" lon="11.00343773073346"><ele>244.5</ele><time>2026-04-04T14:09:34.999Z</time></trkpt><trkpt lat="45.54978111558036" lon="11.003468574652727"><ele>244.0</ele><time>2026-04-04T14:09:35.999Z</time></trkpt><trkpt lat="45.54965202511063" lon="11.003507637394584"><ele>243.5</ele><time>2026-04-04T14:09:36.999Z</time></trkpt><trkpt lat="45.54951532513766" lon="11.003545581168204"><ele>243.0</ele><time>2026-04-04T14:09:37.999Z</time></trkpt><trkpt lat="45.549371756724625" lon="11.003588784684135"><ele>242.5</ele><time>2026-04-04T14:09:38.999Z</time></trkpt><trkpt lat="45.54921744977085" lon="11.003620822870648"><ele>242.0</ele><time>2026-04-04T14:09:39.999Z</time></trkpt><trkpt lat="45.54908306958642" lon="11.00364937349093"><ele>242.0</ele><time>2026-04-04T14:09:40.999Z</time></trkpt><trkpt lat="45.548967891885226" lon="11.003671623709007"><ele>242.0</ele><time>2026-04-04T14:09:41.999Z</time></trkpt><trkpt lat="45.54886447766909" lon="11.003691063013582"><ele>242.0</ele><time>2026-04-04T14:09:42.999Z</time></trkpt><trkpt lat="45.54876387942061" lon="11.003712834331814"><ele>242.0</ele><time>2026-04-04T14:09:43.999Z</time></trkpt><trkpt lat="45.54866760479443" lon="11.00374472236861"><ele>242.0</ele><time>2026-04-04T14:09:44.999Z</time></trkpt><trkpt lat="45.548589542702736" lon="11.003771144605802"><ele>241.6</ele><time>2026-04-04T14:09:45.999Z</time></trkpt><trkpt lat="45.548512413318576" lon="11.00377145887289"><ele>241.2</ele><time>2026-04-04T14:09:46.999Z</time></trkpt><trkpt lat="45.54844080006083" lon="11.003748872988059"><ele>240.8</ele><time>2026-04-04T14:09:47.999Z</time></trkpt><trkpt lat="45.548355021805726" lon="11.003721976687022"><ele>240.4</ele><time>2026-04-04T14:09:48.999Z</time></trkpt><trkpt lat="45.54825459043461" lon="11.003724220478917"><ele>240.0</ele><time>2026-04-04T14:09:49.999Z</time></trkpt><trkpt lat="45.548128739115676" lon="11.003767636749444"><ele>240.0</ele><time>2026-04-04T14:09:50.999Z</time></trkpt><trkpt lat="45.54800905933425" lon="11.003781859746804"><ele>240.0</ele><time>2026-04-04T14:09:51.999Z</time></trkpt><trkpt lat="45.547895208217234" lon="11.003776807986037"><ele>240.0</ele><time>2026-04-04T14:09:52.999Z</time></trkpt><trkpt lat="45.54777480989743" lon="11.003777519272115"><ele>240.0</ele><time>2026-04-04T14:09:53.999Z</time></trkpt><trkpt lat="45.54765513100117" lon="11.003783470792166"><ele>239.8</ele><time>2026-04-04T14:09:54.999Z</time></trkpt><trkpt lat="45.54753020517652" lon="11.003790942572103"><ele>239.6</ele><time>2026-04-04T14:09:55.999Z</time></trkpt><trkpt lat="45.54741909053378" lon="11.003795610250595"><ele>239.39999999999998</ele><time>2026-04-04T14:09:56.999Z</time></trkpt><trkpt lat="45.547305370889646" lon="11.003799738469121"><ele>239.2</ele><time>2026-04-04T14:09:57.999Z</time></trkpt><trkpt lat="45.54720625883067" lon="11.003788747398046"><ele>239.0</ele><time>2026-04-04T14:09:58.999Z</time></trkpt><trkpt lat="45.54710841707595" lon="11.003779128234664"><ele>238.6</ele><time>2026-04-04T14:09:59.999Z</time></trkpt><trkpt lat="45.546996776816655" lon="11.003749912822752"><ele>238.2</ele><time>2026-04-04T14:10:00.999Z</time></trkpt><trkpt lat="45.546890468950366" lon="11.00371368267749"><ele>237.79999999999998</ele><time>2026-04-04T14:10:01.999Z</time></trkpt><trkpt lat="45.546788800234054" lon="11.003670077712599"><ele>237.39999999999998</ele><time>2026-04-04T14:10:02.999Z</time></trkpt><trkpt lat="45.546683826429636" lon="11.003615019609262"><ele>237.0</ele><time>2026-04-04T14:10:03.999Z</time></trkpt><trkpt lat="45.54658115190654" lon="11.003547519989997"><ele>237.0</ele><time>2026-04-04T14:10:04.999Z</time></trkpt><trkpt lat="45.54647668883071" lon="11.003474809351669"><ele>237.0</ele><time>2026-04-04T14:10:05.999Z</time></trkpt><trkpt lat="45.54637573176506" lon="11.003402476147318"><ele>237.0</ele><time>2026-04-04T14:10:06.999Z</time></trkpt><trkpt lat="45.54628374780139" lon="11.003332080920188"><ele>237.0</ele><time>2026-04-04T14:10:07.999Z</time></trkpt><trkpt lat="45.54620507837212" lon="11.003264778242823"><ele>237.0</ele><time>2026-04-04T14:10:08.999Z</time></trkpt><trkpt lat="45.54613819611234" lon="11.003211409257338"><ele>236.66666666666666</ele><time>2026-04-04T14:10:09.999Z</time></trkpt><trkpt lat="45.54607324113278" lon="11.003160856723634"><ele>236.33333333333331</ele><time>2026-04-04T14:10:10.999Z</time></trkpt><trkpt lat="45.5460180098268" lon="11.003117417217936"><ele>236.0</ele><time>2026-04-04T14:10:11.999Z</time></trkpt><trkpt lat="45.54596059345104" lon="11.003074638637802"><ele>235.66666666666666</ele><time>2026-04-04T14:10:12.998Z</time></trkpt><trkpt lat="45.54586273380553" lon="11.002996349080703"><ele>235.33333333333331</ele><time>2026-04-04T14:10:14.998Z</time></trkpt><trkpt lat="45.545753986328535" lon="11.002907143072447"><ele>235.0</ele><time>2026-04-04T14:10:16.998Z</time></trkpt><trkpt lat="45.54568701905425" lon="11.002817688441027"><ele>235.0</ele><time>2026-04-04T14:10:17.998Z</time></trkpt><trkpt lat="45.54561577367326" lon="11.002682415267543"><ele>235.0</ele><time>2026-04-04T14:10:18.998Z</time></trkpt><trkpt lat="45.54555498975517" lon="11.002525904264116"><ele>235.0</ele><time>2026-04-04T14:10:19.998Z</time></trkpt><trkpt lat="45.545508399650885" lon="11.002391630358417"><ele>235.0</ele><time>2026-04-04T14:10:20.998Z</time></trkpt><trkpt lat="45.54544663419834" lon="11.00226182129241"><ele>235.4</ele><time>2026-04-04T14:10:21.998Z</time></trkpt><trkpt lat="45.545379591076845" lon="11.002135049060671"><ele>235.8</ele><time>2026-04-04T14:10:22.998Z</time></trkpt><trkpt lat="45.54531147738518" lon="11.002025318186668"><ele>236.2</ele><time>2026-04-04T14:10:23.998Z</time></trkpt><trkpt lat="45.54524808853747" lon="11.001928939682102"><ele>236.6</ele><time>2026-04-04T14:10:24.998Z</time></trkpt><trkpt lat="45.54518457796916" lon="11.001832048693766"><ele>237.0</ele><time>2026-04-04T14:10:25.998Z</time></trkpt><trkpt lat="45.545125098978225" lon="11.001741462373676"><ele>237.0</ele><time>2026-04-04T14:10:26.998Z</time></trkpt><trkpt lat="45.5450714084575" lon="11.001665462126708"><ele>237.0</ele><time>2026-04-04T14:10:27.998Z</time></trkpt><trkpt lat="45.54500622261989" lon="11.001556281531487"><ele>237.0</ele><time>2026-04-04T14:10:29.998Z</time></trkpt><trkpt lat="45.54495400509118" lon="11.001458874647632"><ele>237.0</ele><time>2026-04-04T14:10:31.998Z</time></trkpt><trkpt lat="45.544913260482886" lon="11.001378098649438"><ele>237.0</ele><time>2026-04-04T14:10:32.998Z</time></trkpt><trkpt lat="45.54487462086988" lon="11.00128667288109"><ele>237.0</ele><time>2026-04-04T14:10:33.998Z</time></trkpt><trkpt lat="45.54484487132044" lon="11.00119686272979"><ele>238.16666666666666</ele><time>2026-04-04T14:10:34.998Z</time></trkpt><trkpt lat="45.54480963673508" lon="11.001108472901073"><ele>239.33333333333331</ele><time>2026-04-04T14:10:35.998Z</time></trkpt><trkpt lat="45.54475343071192" lon="11.001027060218785"><ele>240.5</ele><time>2026-04-04T14:10:36.998Z</time></trkpt><trkpt lat="45.544683066280406" lon="11.000956313123265"><ele>241.66666666666666</ele><time>2026-04-04T14:10:38Z</time></trkpt><trkpt lat="45.54462708422388" lon="11.00086043327339"><ele>242.83333333333331</ele><time>2026-04-04T14:10:39Z</time></trkpt><trkpt lat="45.54456772107663" lon="11.000765898634489"><ele>244.0</ele><time>2026-04-04T14:10:40Z</time></trkpt><trkpt lat="45.54453720092775" lon="11.000666124626939"><ele>243.99999999999997</ele><time>2026-04-04T14:10:41Z</time></trkpt><trkpt lat="45.54448553060411" lon="11.000587166960067"><ele>244.0</ele><time>2026-04-04T14:10:43Z</time></trkpt><trkpt lat="45.54440049841096" lon="11.0005264632673"><ele>244.0</ele><time>2026-04-04T14:12:15.999Z</time></trkpt><trkpt lat="45.54435890375559" lon="11.000454270126012"><ele>244.0</ele><time>2026-04-04T14:12:16.999Z</time></trkpt><trkpt lat="45.544317819793136" lon="11.000352322701014"><ele>243.99999999999997</ele><time>2026-04-04T14:12:17.999Z</time></trkpt><trkpt lat="45.54428030727302" lon="11.000242982470631"><ele>244.0</ele><time>2026-04-04T14:12:18.999Z</time></trkpt><trkpt lat="45.54424043869658" lon="11.000120504056122"><ele>244.0</ele><time>2026-04-04T14:12:19.998Z</time></trkpt><trkpt lat="45.54419337749837" lon="10.999990194288525"><ele>243.99999999999997</ele><time>2026-04-04T14:12:20.998Z</time></trkpt><trkpt lat="45.54415335726326" lon="10.999860094141564"><ele>243.99999999999997</ele><time>2026-04-04T14:12:21.998Z</time></trkpt><trkpt lat="45.54411957776428" lon="10.999728579845877"><ele>244.0</ele><time>2026-04-04T14:12:22.998Z</time></trkpt><trkpt lat="45.5440815789649" lon="10.999608055212857"><ele>244.0</ele><time>2026-04-04T14:12:23.998Z</time></trkpt><trkpt lat="45.54403461959946" lon="10.999488476981744"><ele>243.99999999999997</ele><time>2026-04-04T14:12:24.998Z</time></trkpt><trkpt lat="45.54400803830992" lon="10.99936398796287"><ele>244.0</ele><time>2026-04-04T14:12:25.998Z</time></trkpt><trkpt lat="45.54396400438636" lon="10.99927447773312"><ele>244.0</ele><time>2026-04-04T14:12:26.998Z</time></trkpt><trkpt lat="45.54393879636626" lon="10.999170955149044"><ele>244.0</ele><time>2026-04-04T14:12:27.998Z</time></trkpt><trkpt lat="45.54392039465586" lon="10.9990458857032"><ele>243.99999999999997</ele><time>2026-04-04T14:12:28.998Z</time></trkpt><trkpt lat="45.54390457929657" lon="10.998920014882922"><ele>244.0</ele><time>2026-04-04T14:12:29.998Z</time></trkpt><trkpt lat="45.54389957790876" lon="10.998790362677788"><ele>245.79999999999998</ele><time>2026-04-04T14:12:30.998Z</time></trkpt><trkpt lat="45.543934918194836" lon="10.998628235770372"><ele>247.59999999999997</ele><time>2026-04-04T14:12:31.998Z</time></trkpt><trkpt lat="45.54399583485445" lon="10.998473367775222"><ele>249.4</ele><time>2026-04-04T14:12:32.998Z</time></trkpt><trkpt lat="45.54404995375476" lon="10.998350088421972"><ele>251.2</ele><time>2026-04-04T14:12:33.998Z</time></trkpt><trkpt lat="45.54407394363692" lon="10.99822202478696"><ele>253.0</ele><time>2026-04-04T14:12:34.998Z</time></trkpt><trkpt lat="45.544062716071096" lon="10.998069087219147"><ele>253.83333333333331</ele><time>2026-04-04T14:12:35.998Z</time></trkpt><trkpt lat="45.544012990054014" lon="10.99791779683566"><ele>254.66666666666666</ele><time>2026-04-04T14:12:36.998Z</time></trkpt><trkpt lat="45.54395571077998" lon="10.997802488292304"><ele>255.5</ele><time>2026-04-04T14:12:37.998Z</time></trkpt><trkpt lat="45.5439049170994" lon="10.997702730136067"><ele>256.3333333333333</ele><time>2026-04-04T14:12:38.998Z</time></trkpt><trkpt lat="45.54386853412676" lon="10.997610567289122"><ele>257.1666666666667</ele><time>2026-04-04T14:12:39.998Z</time></trkpt><trkpt lat="45.54384260797589" lon="10.997525083446236"><ele>258.0</ele><time>2026-04-04T14:12:40.998Z</time></trkpt><trkpt lat="45.543878418279014" lon="10.997401714135401"><ele>258.0</ele><time>2026-04-04T14:12:42.998Z</time></trkpt><trkpt lat="45.54399504272955" lon="10.997386812639588"><ele>258.0</ele><time>2026-04-04T14:12:45Z</time></trkpt><trkpt lat="45.54402991542453" lon="10.99751018581729"><ele>258.0</ele><time>2026-04-04T14:12:46Z</time></trkpt><trkpt lat="45.54408751996707" lon="10.997615011216222"><ele>258.0</ele><time>2026-04-04T14:12:47Z</time></trkpt><trkpt lat="45.54414936323398" lon="10.997716898480236"><ele>258.0</ele><time>2026-04-04T14:12:48Z</time></trkpt><trkpt lat="45.54421326214065" lon="10.997822214804627"><ele>258.0</ele><time>2026-04-04T14:12:49Z</time></trkpt><trkpt lat="45.5442764372444" lon="10.997926338177116"><ele>258.0</ele><time>2026-04-04T14:12:50Z</time></trkpt><trkpt lat="45.54432987092135" lon="10.99801440602631"><ele>258.0</ele><time>2026-04-04T14:12:51Z</time></trkpt><trkpt lat="45.544376212036475" lon="10.998084612590107"><ele>258.0</ele><time>2026-04-04T14:12:52Z</time></trkpt><trkpt lat="45.544467910520524" lon="10.998140661889261"><ele>258.0</ele><time>2026-04-04T14:12:54Z</time></trkpt><trkpt lat="45.54453215817209" lon="10.998017600176686"><ele>258.0</ele><time>2026-04-04T14:12:56Z</time></trkpt><trkpt lat="45.544488900102984" lon="10.997903255934974"><ele>258.0</ele><time>2026-04-04T14:12:57Z</time></trkpt><trkpt lat="45.544389484625356" lon="10.997802080357568"><ele>258.0</ele><time>2026-04-04T14:12:58Z</time></trkpt><trkpt lat="45.54430787472773" lon="10.99767834964331"><ele>258.0</ele><time>2026-04-04T14:12:59Z</time></trkpt><trkpt lat="45.54423467298765" lon="10.997509113559492"><ele>263.6666666666667</ele><time>2026-04-04T14:13:00Z</time></trkpt><trkpt lat="45.54416316026631" lon="10.99730162038941"><ele>269.33333333333337</ele><time>2026-04-04T14:13:01Z</time></trkpt><trkpt lat="45.54408783480243" lon="10.9970510903347"><ele>275.0</ele><time>2026-04-04T14:13:02Z</time></trkpt><trkpt lat="45.5440125146242" lon="10.996795990683045"><ele>283.0</ele><time>2026-04-04T14:13:03Z</time></trkpt><trkpt lat="45.54394702161683" lon="10.996589608180765"><ele>291.0</ele><time>2026-04-04T14:13:04Z</time></trkpt><trkpt lat="45.54387251341744" lon="10.996392558141869"><ele>299.0</ele><time>2026-04-04T14:13:05Z</time></trkpt><trkpt lat="45.54378234195052" lon="10.996230166325812"><ele>293.0</ele><time>2026-04-04T14:13:06Z</time></trkpt><trkpt lat="45.54367817336574" lon="10.996094149370887"><ele>287.0</ele><time>2026-04-04T14:13:07Z</time></trkpt><trkpt lat="45.543584997258876" lon="10.995968275015912"><ele>281.0</ele><time>2026-04-04T14:13:08Z</time></trkpt><trkpt lat="45.543508255476446" lon="10.995851208476411"><ele>275.0</ele><time>2026-04-04T14:13:09Z</time></trkpt><trkpt lat="45.54345545639902" lon="10.995733637867048"><ele>275.0</ele><time>2026-04-04T14:13:10Z</time></trkpt><trkpt lat="45.54342330424923" lon="10.995603111913352"><ele>275.0</ele><time>2026-04-04T14:13:11Z</time></trkpt><trkpt lat="45.543409085596075" lon="10.995463644881745"><ele>275.0</ele><time>2026-04-04T14:13:12Z</time></trkpt><trkpt lat="45.54342305001751" lon="10.995342663423267"><ele>275.0</ele><time>2026-04-04T14:13:13Z</time></trkpt><trkpt lat="45.54347098711247" lon="10.995236496677595"><ele>275.0</ele><time>2026-04-04T14:13:14Z</time></trkpt><trkpt lat="45.543552600140224" lon="10.99513875822929"><ele>275.0</ele><time>2026-04-04T14:13:15Z</time></trkpt><trkpt lat="45.54365651135649" lon="10.995025678581078"><ele>275.0</ele><time>2026-04-04T14:13:16Z</time></trkpt><trkpt lat="45.54374092753772" lon="10.994875268111121"><ele>275.0</ele><time>2026-04-04T14:13:17Z</time></trkpt><trkpt lat="45.543789840608234" lon="10.994704632514292"><ele>275.0</ele><time>2026-04-04T14:13:18Z</time></trkpt><trkpt lat="45.54380053914907" lon="10.994512713931256"><ele>284.0</ele><time>2026-04-04T14:13:19Z</time></trkpt><trkpt lat="45.54378388996108" lon="10.994297501353152"><ele>293.0</ele><time>2026-04-04T14:13:20Z</time></trkpt><trkpt lat="45.54376799258354" lon="10.994088470679504"><ele>302.0</ele><time>2026-04-04T14:13:21Z</time></trkpt><trkpt lat="45.543752617342186" lon="10.99389845624679"><ele>311.0</ele><time>2026-04-04T14:13:22Z</time></trkpt><trkpt lat="45.54372352430118" lon="10.99373038046323"><ele>308.0</ele><time>2026-04-04T14:13:23Z</time></trkpt><trkpt lat="45.543694694400486" lon="10.993557434310457"><ele>305.0</ele><time>2026-04-04T14:13:24Z</time></trkpt><trkpt lat="45.54366833687319" lon="10.993393476405117"><ele>302.0</ele><time>2026-04-04T14:13:25Z</time></trkpt><trkpt lat="45.54363020668889" lon="10.993244452423026"><ele>299.0</ele><time>2026-04-04T14:13:26Z</time></trkpt><trkpt lat="45.54357290665826" lon="10.993117745889505"><ele>299.0</ele><time>2026-04-04T14:13:26.999Z</time></trkpt><trkpt lat="45.54348291371067" lon="10.993033205839591"><ele>299.0</ele><time>2026-04-04T14:13:27.999Z</time></trkpt><trkpt lat="45.54336949154616" lon="10.993010681921984"><ele>299.0</ele><time>2026-04-04T14:13:28.999Z</time></trkpt><trkpt lat="45.54325039722103" lon="10.993044921655118"><ele>299.0</ele><time>2026-04-04T14:13:29.999Z</time></trkpt><trkpt lat="45.54314835600901" lon="10.99314441948839"><ele>299.0</ele><time>2026-04-04T14:13:30.999Z</time></trkpt><trkpt lat="45.54305606399738" lon="10.993252222715991"><ele>299.0</ele><time>2026-04-04T14:13:31.999Z</time></trkpt><trkpt lat="45.543007790328325" lon="10.993366011026609"><ele>299.0</ele><time>2026-04-04T14:13:32.999Z</time></trkpt><trkpt lat="45.54292856281278" lon="10.9934612684872"><ele>299.0</ele><time>2026-04-04T14:13:34.999Z</time></trkpt><trkpt lat="45.54282697722085" lon="10.993410813781928"><ele>299.0</ele><time>2026-04-04T14:13:36.999Z</time></trkpt><trkpt lat="45.54279485089102" lon="10.993302067011596"><ele>299.4</ele><time>2026-04-04T14:13:37.999Z</time></trkpt><trkpt lat="45.542795132904146" lon="10.99314735507758"><ele>299.79999999999995</ele><time>2026-04-04T14:13:38.999Z</time></trkpt><trkpt lat="45.54281062930642" lon="10.992977679410762"><ele>300.20000000000005</ele><time>2026-04-04T14:13:39.999Z</time></trkpt><trkpt lat="45.54282345967752" lon="10.992811318873779"><ele>300.6</ele><time>2026-04-04T14:13:40.999Z</time></trkpt><trkpt lat="45.5428352597581" lon="10.992664003981897"><ele>301.0</ele><time>2026-04-04T14:13:41.999Z</time></trkpt><trkpt lat="45.5428383144542" lon="10.992529301459976"><ele>302.6</ele><time>2026-04-04T14:13:42.999Z</time></trkpt><trkpt lat="45.54283015111254" lon="10.992386134322476"><ele>304.20000000000005</ele><time>2026-04-04T14:13:43.999Z</time></trkpt><trkpt lat="45.54279929869777" lon="10.992242380052549"><ele>305.79999999999995</ele><time>2026-04-04T14:13:44.999Z</time></trkpt><trkpt lat="45.54274949222699" lon="10.99210867169968"><ele>307.4</ele><time>2026-04-04T14:13:45.999Z</time></trkpt><trkpt lat="45.54269027432931" lon="10.9919849426149"><ele>309.0</ele><time>2026-04-04T14:13:46.999Z</time></trkpt><trkpt lat="45.54262614484979" lon="10.99186341888266"><ele>309.0</ele><time>2026-04-04T14:13:47.999Z</time></trkpt><trkpt lat="45.54255460092741" lon="10.99172979632321"><ele>309.0</ele><time>2026-04-04T14:13:48.999Z</time></trkpt><trkpt lat="45.542487354135865" lon="10.991589252360543"><ele>309.0</ele><time>2026-04-04T14:13:49.999Z</time></trkpt><trkpt lat="45.54241770591024" lon="10.991441611197754"><ele>309.0</ele><time>2026-04-04T14:13:50.999Z</time></trkpt><trkpt lat="45.542350863058026" lon="10.991291166959197"><ele>311.25</ele><time>2026-04-04T14:13:51.999Z</time></trkpt><trkpt lat="45.54228770610649" lon="10.991126651857634"><ele>313.5</ele><time>2026-04-04T14:13:52.999Z</time></trkpt><trkpt lat="45.542238793259614" lon="10.990962492408405"><ele>315.75</ele><time>2026-04-04T14:13:53.999Z</time></trkpt><trkpt lat="45.54218600037913" lon="10.990817063760002"><ele>318.0</ele><time>2026-04-04T14:13:54.999Z</time></trkpt><trkpt lat="45.54221763153234" lon="10.990614577189202"><ele>320.5</ele><time>2026-04-04T14:13:55.999Z</time></trkpt><trkpt lat="45.54222280224607" lon="10.990431654615197"><ele>323.0</ele><time>2026-04-04T14:13:56.999Z</time></trkpt><trkpt lat="45.542224522526304" lon="10.990250220420602"><ele>325.5</ele><time>2026-04-04T14:13:57.999Z</time></trkpt><trkpt lat="45.54221902013209" lon="10.990067730166821"><ele>328.0</ele><time>2026-04-04T14:13:58.999Z</time></trkpt><trkpt lat="45.54220175116803" lon="10.98988526994865"><ele>327.75</ele><time>2026-04-04T14:13:59.999Z</time></trkpt><trkpt lat="45.542168854834756" lon="10.989703016511555"><ele>327.5</ele><time>2026-04-04T14:14:00.999Z</time></trkpt><trkpt lat="45.5421204612142" lon="10.989527446188823"><ele>327.25</ele><time>2026-04-04T14:14:01.999Z</time></trkpt><trkpt lat="45.542068839667564" lon="10.989356283408052"><ele>327.0</ele><time>2026-04-04T14:14:02.999Z</time></trkpt><trkpt lat="45.54201542333341" lon="10.98919089278864"><ele>329.25</ele><time>2026-04-04T14:14:03.999Z</time></trkpt><trkpt lat="45.541966880139675" lon="10.989035490764346"><ele>331.5</ele><time>2026-04-04T14:14:04.999Z</time></trkpt><trkpt lat="45.54192884245062" lon="10.98887239479989"><ele>333.75</ele><time>2026-04-04T14:14:05.999Z</time></trkpt><trkpt lat="45.54190400471424" lon="10.988704802511146"><ele>336.0</ele><time>2026-04-04T14:14:06.999Z</time></trkpt><trkpt lat="45.54189749100074" lon="10.98853407895214"><ele>336.0</ele><time>2026-04-04T14:14:07.999Z</time></trkpt><trkpt lat="45.54192059565296" lon="10.988345809030463"><ele>336.0</ele><time>2026-04-04T14:14:08.999Z</time></trkpt><trkpt lat="45.541971730725834" lon="10.988153173424068"><ele>336.0</ele><time>2026-04-04T14:14:09.999Z</time></trkpt><trkpt lat="45.54203339876237" lon="10.98799418736881"><ele>336.0</ele><time>2026-04-04T14:14:10.999Z</time></trkpt><trkpt lat="45.542109521534435" lon="10.987833716646689"><ele>340.5</ele><time>2026-04-04T14:14:11.999Z</time></trkpt><trkpt lat="45.542196759834326" lon="10.987686458797326"><ele>345.0</ele><time>2026-04-04T14:14:12.999Z</time></trkpt><trkpt lat="45.54229097730059" lon="10.98755785217706"><ele>349.5</ele><time>2026-04-04T14:14:13.999Z</time></trkpt><trkpt lat="45.54237180483234" lon="10.987405740739847"><ele>354.0</ele><time>2026-04-04T14:14:14.999Z</time></trkpt><trkpt lat="45.54242218074533" lon="10.987236126896983"><ele>354.2</ele><time>2026-04-04T14:14:15.999Z</time></trkpt><trkpt lat="45.542445638517655" lon="10.98707188870397"><ele>354.4</ele><time>2026-04-04T14:14:16.999Z</time></trkpt><trkpt lat="45.54246331100491" lon="10.98692689575994"><ele>354.6</ele><time>2026-04-04T14:14:17.999Z</time></trkpt><trkpt lat="45.542473493489446" lon="10.986822719141971"><ele>354.8</ele><time>2026-04-04T14:14:18.999Z</time></trkpt><trkpt lat="45.54249719198808" lon="10.986667412249192"><ele>355.0</ele><time>2026-04-04T14:14:20.999Z</time></trkpt><trkpt lat="45.54253526156726" lon="10.986541806420627"><ele>355.0</ele><time>2026-04-04T14:14:22.999Z</time></trkpt><trkpt lat="45.54263646812963" lon="10.986553290866272"><ele>355.0</ele><time>2026-04-04T14:14:24.998Z</time></trkpt><trkpt lat="45.54262391596298" lon="10.986669200744984"><ele>355.0</ele><time>2026-04-04T14:14:25.998Z</time></trkpt><trkpt lat="45.54261687265157" lon="10.986813847909879"><ele>355.0</ele><time>2026-04-04T14:14:26.998Z</time></trkpt><trkpt lat="45.542623584702575" lon="10.986942848469965"><ele>355.0</ele><time>2026-04-04T14:14:27.998Z</time></trkpt><trkpt lat="45.542622517961846" lon="10.987072997779318"><ele>355.0</ele><time>2026-04-04T14:14:28.998Z</time></trkpt><trkpt lat="45.54262657042427" lon="10.98721947462056"><ele>355.0</ele><time>2026-04-04T14:14:29.998Z</time></trkpt><trkpt lat="45.54268921279083" lon="10.987375560369179"><ele>355.0</ele><time>2026-04-04T14:14:30.998Z</time></trkpt><trkpt lat="45.542764642379915" lon="10.98752219380648"><ele>355.0</ele><time>2026-04-04T14:14:31.998Z</time></trkpt><trkpt lat="45.54283998091577" lon="10.987668440922327"><ele>358.2</ele><time>2026-04-04T14:14:32.998Z</time></trkpt><trkpt lat="45.54291041571713" lon="10.98780285006939"><ele>361.4</ele><time>2026-04-04T14:14:33.998Z</time></trkpt><trkpt lat="45.54297473122431" lon="10.98792558189729"><ele>364.6</ele><time>2026-04-04T14:14:34.998Z</time></trkpt><trkpt lat="45.54303569617734" lon="10.988039360712657"><ele>367.8</ele><time>2026-04-04T14:14:35.998Z</time></trkpt><trkpt lat="45.54309633727255" lon="10.988144962783874"><ele>371.0</ele><time>2026-04-04T14:14:36.998Z</time></trkpt><trkpt lat="45.5431617293791" lon="10.98825300625438"><ele>367.75</ele><time>2026-04-04T14:14:37.998Z</time></trkpt><trkpt lat="45.543248971750835" lon="10.988360206272795"><ele>364.5</ele><time>2026-04-04T14:14:38.998Z</time></trkpt><trkpt lat="45.54336034600218" lon="10.988438369094498"><ele>361.25</ele><time>2026-04-04T14:14:39.998Z</time></trkpt><trkpt lat="45.54350056082259" lon="10.988458205484594"><ele>358.0</ele><time>2026-04-04T14:14:40.998Z</time></trkpt><trkpt lat="45.54363200960766" lon="10.988445845732624"><ele>362.0</ele><time>2026-04-04T14:14:41.998Z</time></trkpt><trkpt lat="45.543761334021006" lon="10.988423247991324"><ele>366.0</ele><time>2026-04-04T14:14:42.998Z</time></trkpt><trkpt lat="45.54387996407113" lon="10.988396205970288"><ele>370.0</ele><time>2026-04-04T14:14:43.998Z</time></trkpt><trkpt lat="45.54398488438268" lon="10.988372420791578"><ele>374.0</ele><time>2026-04-04T14:14:44.998Z</time></trkpt><trkpt lat="45.54408428875679" lon="10.988360317215784"><ele>374.0</ele><time>2026-04-04T14:14:45.998Z</time></trkpt><trkpt lat="45.5441778019127" lon="10.988360692523953"><ele>374.0</ele><time>2026-04-04T14:14:46.998Z</time></trkpt><trkpt lat="45.54426202952535" lon="10.98838439329423"><ele>374.0</ele><time>2026-04-04T14:14:47.998Z</time></trkpt><trkpt lat="45.54433785445173" lon="10.988440616444146"><ele>374.0</ele><time>2026-04-04T14:14:48.998Z</time></trkpt><trkpt lat="45.544422002275546" lon="10.98852358843487"><ele>374.0</ele><time>2026-04-04T14:14:50Z</time></trkpt><trkpt lat="45.544498461312195" lon="10.98862768524627"><ele>378.6</ele><time>2026-04-04T14:14:51Z</time></trkpt><trkpt lat="45.54457149712148" lon="10.988744735307588"><ele>383.2</ele><time>2026-04-04T14:14:52Z</time></trkpt><trkpt lat="45.54462842178412" lon="10.988870312950981"><ele>387.8</ele><time>2026-04-04T14:14:53Z</time></trkpt><trkpt lat="45.54467997595469" lon="10.988979776679498"><ele>392.40000000000003</ele><time>2026-04-04T14:14:54Z</time></trkpt><trkpt lat="45.54472991638982" lon="10.98908555905702"><ele>397.0</ele><time>2026-04-04T14:14:55Z</time></trkpt><trkpt lat="45.54480058731224" lon="10.98916047066016"><ele>397.0</ele><time>2026-04-04T14:14:56Z</time></trkpt><trkpt lat="45.544886840847035" lon="10.989175932934765"><ele>397.0</ele><time>2026-04-04T14:14:57Z</time></trkpt><trkpt lat="45.54497869869368" lon="10.989125437882757"><ele>397.0</ele><time>2026-04-04T14:14:58Z</time></trkpt><trkpt lat="45.545037889575866" lon="10.988985414768273"><ele>397.0</ele><time>2026-04-04T14:14:59Z</time></trkpt><trkpt lat="45.54506347197468" lon="10.988808850016373"><ele>397.0</ele><time>2026-04-04T14:15:00Z</time></trkpt><trkpt lat="45.54505268594722" lon="10.988562254155008"><ele>398.6666666666667</ele><time>2026-04-04T14:15:01Z</time></trkpt><trkpt lat="45.54505532246266" lon="10.98826517729405"><ele>400.33333333333337</ele><time>2026-04-04T14:15:02Z</time></trkpt><trkpt lat="45.545060660954206" lon="10.98794588599371"><ele>402.0</ele><time>2026-04-04T14:15:03Z</time></trkpt><trkpt lat="45.54511008150482" lon="10.987615885307395"><ele>404.0</ele><time>2026-04-04T14:15:04Z</time></trkpt><trkpt lat="45.545146709936915" lon="10.987302408491695"><ele>406.0</ele><time>2026-04-04T14:15:05Z</time></trkpt><trkpt lat="45.545154664782146" lon="10.987040835244377"><ele>408.0</ele><time>2026-04-04T14:15:06Z</time></trkpt><trkpt lat="45.545170057496904" lon="10.986825580619492"><ele>410.0</ele><time>2026-04-04T14:15:07Z</time></trkpt><trkpt lat="45.545206375836614" lon="10.986586091184137"><ele>412.0</ele><time>2026-04-04T14:15:08Z</time></trkpt><trkpt lat="45.545270570818545" lon="10.986337516043562"><ele>414.0</ele><time>2026-04-04T14:15:09Z</time></trkpt><trkpt lat="45.54534283106408" lon="10.986119024342635"><ele>414.5</ele><time>2026-04-04T14:15:10Z</time></trkpt><trkpt lat="45.54538888437353" lon="10.985939851819609"><ele>415.0</ele><time>2026-04-04T14:15:11Z</time></trkpt><trkpt lat="45.545418736448994" lon="10.985787808328459"><ele>415.5</ele><time>2026-04-04T14:15:12Z</time></trkpt><trkpt lat="45.545423034527744" lon="10.985622595070362"><ele>416.0</ele><time>2026-04-04T14:15:13Z</time></trkpt><trkpt lat="45.545374481859916" lon="10.985417934736397"><ele>416.0</ele><time>2026-04-04T14:15:14Z</time></trkpt><trkpt lat="45.54528844142657" lon="10.985221701599022"><ele>416.0</ele><time>2026-04-04T14:15:15Z</time></trkpt><trkpt lat="45.54520880213217" lon="10.985054623020293"><ele>416.0</ele><time>2026-04-04T14:15:16Z</time></trkpt><trkpt lat="45.545159461840434" lon="10.984868492355032"><ele>416.0</ele><time>2026-04-04T14:15:17Z</time></trkpt><trkpt lat="45.54514463158684" lon="10.984660251584948"><ele>418.0</ele><time>2026-04-04T14:15:18Z</time></trkpt><trkpt lat="45.54515396676345" lon="10.98443793044264"><ele>420.0</ele><time>2026-04-04T14:15:19Z</time></trkpt><trkpt lat="45.54518946055551" lon="10.984197001063395"><ele>422.0</ele><time>2026-04-04T14:15:20Z</time></trkpt><trkpt lat="45.54521735070848" lon="10.983953941138012"><ele>424.20000000000005</ele><time>2026-04-04T14:15:21Z</time></trkpt><trkpt lat="45.54520231135945" lon="10.983717024300999"><ele>426.4</ele><time>2026-04-04T14:15:22Z</time></trkpt><trkpt lat="45.54516619020923" lon="10.983572174346765"><ele>428.59999999999997</ele><time>2026-04-04T14:15:23Z</time></trkpt><trkpt lat="45.545155918818516" lon="10.983445921988157"><ele>430.79999999999995</ele><time>2026-04-04T14:15:24Z</time></trkpt><trkpt lat="45.545166233471335" lon="10.983348749968766"><ele>433.0</ele><time>2026-04-04T14:15:25Z</time></trkpt><trkpt lat="45.545241619946935" lon="10.983283859510498"><ele>433.0</ele><time>2026-04-04T14:15:27Z</time></trkpt><trkpt lat="45.54533414050499" lon="10.983430277768276"><ele>433.0</ele><time>2026-04-04T14:15:28Z</time></trkpt><trkpt lat="45.54546127132154" lon="10.983579507662368"><ele>433.0</ele><time>2026-04-04T14:15:29Z</time></trkpt><trkpt lat="45.54561166238647" lon="10.983734010115585"><ele>436.6666666666667</ele><time>2026-04-04T14:15:30Z</time></trkpt><trkpt lat="45.54576826532167" lon="10.983910783473794"><ele>440.33333333333337</ele><time>2026-04-04T14:15:31Z</time></trkpt><trkpt lat="45.545933007269504" lon="10.984124959596455"><ele>444.0</ele><time>2026-04-04T14:15:32Z</time></trkpt><trkpt lat="45.546114411971196" lon="10.984320577621785"><ele>448.66666666666663</ele><time>2026-04-04T14:15:32.999Z</time></trkpt><trkpt lat="45.5462828271781" lon="10.984492131639616"><ele>453.3333333333333</ele><time>2026-04-04T14:15:33.999Z</time></trkpt><trkpt lat="45.54644222200027" lon="10.984638976333015"><ele>458.0</ele><time>2026-04-04T14:15:34.999Z</time></trkpt><trkpt lat="45.54661160902789" lon="10.984747620382409"><ele>458.0</ele><time>2026-04-04T14:15:35.999Z</time></trkpt><trkpt lat="45.54676662204784" lon="10.9848622733251"><ele>458.0</ele><time>2026-04-04T14:15:36.999Z</time></trkpt><trkpt lat="45.54691836115673" lon="10.98496745464951"><ele>458.0</ele><time>2026-04-04T14:15:37.999Z</time></trkpt><trkpt lat="45.54707005169942" lon="10.985057645464517"><ele>458.0</ele><time>2026-04-04T14:15:38.999Z</time></trkpt><trkpt lat="45.54721094301229" lon="10.985173844670028"><ele>458.0</ele><time>2026-04-04T14:15:39.999Z</time></trkpt><trkpt lat="45.54735413259238" lon="10.98527032456036"><ele>458.0</ele><time>2026-04-04T14:15:40.999Z</time></trkpt><trkpt lat="45.547488869519846" lon="10.98537175128082"><ele>458.0</ele><time>2026-04-04T14:15:41.999Z</time></trkpt><trkpt lat="45.54761333219491" lon="10.985478671550947"><ele>458.0</ele><time>2026-04-04T14:15:42.999Z</time></trkpt><trkpt lat="45.547731755031954" lon="10.985580689530437"><ele>458.0</ele><time>2026-04-04T14:15:43.999Z</time></trkpt><trkpt lat="45.547843054260085" lon="10.985676042972232"><ele>458.0</ele><time>2026-04-04T14:15:44.999Z</time></trkpt><trkpt lat="45.547947091758815" lon="10.985765595377702"><ele>461.5</ele><time>2026-04-04T14:15:45.999Z</time></trkpt><trkpt lat="45.54805210473368" lon="10.985857033211934"><ele>465.0</ele><time>2026-04-04T14:15:46.999Z</time></trkpt><trkpt lat="45.548157745699264" lon="10.985948129267575"><ele>468.5</ele><time>2026-04-04T14:15:47.999Z</time></trkpt><trkpt lat="45.5482670968431" lon="10.986041851395745"><ele>472.0</ele><time>2026-04-04T14:15:48.999Z</time></trkpt><trkpt lat="45.548377936297754" lon="10.986136474570914"><ele>472.0</ele><time>2026-04-04T14:15:49.999Z</time></trkpt><trkpt lat="45.54848656809841" lon="10.986229029626811"><ele>472.0</ele><time>2026-04-04T14:15:50.999Z</time></trkpt><trkpt lat="45.548593937216424" lon="10.98632050882621"><ele>472.0</ele><time>2026-04-04T14:15:51.999Z</time></trkpt><trkpt lat="45.54869838414024" lon="10.986408578513634"><ele>472.0</ele><time>2026-04-04T14:15:52.999Z</time></trkpt><trkpt lat="45.54879984833444" lon="10.986495522110872"><ele>472.75</ele><time>2026-04-04T14:15:53.999Z</time></trkpt><trkpt lat="45.5489066065856" lon="10.98657662179606"><ele>473.5</ele><time>2026-04-04T14:15:54.999Z</time></trkpt><trkpt lat="45.549022670143536" lon="10.98664180684598"><ele>474.25</ele><time>2026-04-04T14:15:55.999Z</time></trkpt><trkpt lat="45.549150799249134" lon="10.986676164738924"><ele>475.0</ele><time>2026-04-04T14:15:56.999Z</time></trkpt><trkpt lat="45.54928284945926" lon="10.986698758550881"><ele>475.0</ele><time>2026-04-04T14:15:57.999Z</time></trkpt><trkpt lat="45.549415820189296" lon="10.986711579504297"><ele>475.0</ele><time>2026-04-04T14:15:58.999Z</time></trkpt><trkpt lat="45.549551476218205" lon="10.986714428441012"><ele>475.0</ele><time>2026-04-04T14:15:59.999Z</time></trkpt><trkpt lat="45.54968645022526" lon="10.986700646295215"><ele>475.0</ele><time>2026-04-04T14:16:00.999Z</time></trkpt><trkpt lat="45.549809084789025" lon="10.986679253378728"><ele>478.5</ele><time>2026-04-04T14:16:01.999Z</time></trkpt><trkpt lat="45.549925860065336" lon="10.98667900712597"><ele>482.0</ele><time>2026-04-04T14:16:02.999Z</time></trkpt><trkpt lat="45.5500467840652" lon="10.986704306321986"><ele>485.5</ele><time>2026-04-04T14:16:03.999Z</time></trkpt><trkpt lat="45.55016842544152" lon="10.98674783359997"><ele>489.0</ele><time>2026-04-04T14:16:04.999Z</time></trkpt><trkpt lat="45.55028296741944" lon="10.986806392544455"><ele>491.5</ele><time>2026-04-04T14:16:05.999Z</time></trkpt><trkpt lat="45.550385854047036" lon="10.986874313163282"><ele>494.0</ele><time>2026-04-04T14:16:06.999Z</time></trkpt><trkpt lat="45.55048552124245" lon="10.986955641522986"><ele>496.5</ele><time>2026-04-04T14:16:07.999Z</time></trkpt><trkpt lat="45.55056931019981" lon="10.987058551440915"><ele>499.0</ele><time>2026-04-04T14:16:08.999Z</time></trkpt><trkpt lat="45.5506361173325" lon="10.987194948681767"><ele>499.0</ele><time>2026-04-04T14:16:09.999Z</time></trkpt><trkpt lat="45.55070179228572" lon="10.987329646079473"><ele>499.0</ele><time>2026-04-04T14:16:10.999Z</time></trkpt><trkpt lat="45.55076352244727" lon="10.987448062510653"><ele>499.0</ele><time>2026-04-04T14:16:11.999Z</time></trkpt><trkpt lat="45.550856626294205" lon="10.987561764458675"><ele>499.0</ele><time>2026-04-04T14:16:12.999Z</time></trkpt><trkpt lat="45.550977306030774" lon="10.987635281665558"><ele>498.25</ele><time>2026-04-04T14:16:13.999Z</time></trkpt><trkpt lat="45.5511150164246" lon="10.987686616496822"><ele>497.5</ele><time>2026-04-04T14:16:14.999Z</time></trkpt><trkpt lat="45.55124781596549" lon="10.987734190150592"><ele>496.75</ele><time>2026-04-04T14:16:15.999Z</time></trkpt><trkpt lat="45.55137415479985" lon="10.987782205720414"><ele>496.0</ele><time>2026-04-04T14:16:16.999Z</time></trkpt><trkpt lat="45.55149749653493" lon="10.98783759699299"><ele>496.0</ele><time>2026-04-04T14:16:17.999Z</time></trkpt><trkpt lat="45.55162324589166" lon="10.987903588136277"><ele>496.0</ele><time>2026-04-04T14:16:18.999Z</time></trkpt><trkpt lat="45.55174792953809" lon="10.987979565270175"><ele>496.0</ele><time>2026-04-04T14:16:19.999Z</time></trkpt><trkpt lat="45.551875051729134" lon="10.988069279397346"><ele>496.0</ele><time>2026-04-04T14:16:20.999Z</time></trkpt><trkpt lat="45.55201098157564" lon="10.988170915183215"><ele>497.33333333333337</ele><time>2026-04-04T14:16:21.999Z</time></trkpt><trkpt lat="45.55214845411524" lon="10.988277214430548"><ele>498.66666666666663</ele><time>2026-04-04T14:16:22.999Z</time></trkpt><trkpt lat="45.55228830060824" lon="10.988384898412999"><ele>500.0</ele><time>2026-04-04T14:16:23.999Z</time></trkpt><trkpt lat="45.55242516862714" lon="10.988481743280301"><ele>500.0</ele><time>2026-04-04T14:16:24.999Z</time></trkpt><trkpt lat="45.552567578336394" lon="10.988557342693266"><ele>500.0</ele><time>2026-04-04T14:16:25.999Z</time></trkpt><trkpt lat="45.552706968216256" lon="10.988621164797458"><ele>500.0</ele><time>2026-04-04T14:16:26.999Z</time></trkpt><trkpt lat="45.552862923916145" lon="10.98860669854933"><ele>499.5</ele><time>2026-04-04T14:16:27.999Z</time></trkpt><trkpt lat="45.55301065624197" lon="10.98862706777071"><ele>499.0</ele><time>2026-04-04T14:16:28.999Z</time></trkpt><trkpt lat="45.55315349909382" lon="10.988625173477"><ele>498.5</ele><time>2026-04-04T14:16:29.998Z</time></trkpt><trkpt lat="45.5532982453849" lon="10.988603069048132"><ele>498.0</ele><time>2026-04-04T14:16:30.998Z</time></trkpt><trkpt lat="45.55345544163318" lon="10.98860327138403"><ele>498.0</ele><time>2026-04-04T14:16:31.998Z</time></trkpt><trkpt lat="45.55361266465389" lon="10.98857034239041"><ele>498.0</ele><time>2026-04-04T14:16:32.998Z</time></trkpt><trkpt lat="45.55376736742646" lon="10.988528273546168"><ele>498.0</ele><time>2026-04-04T14:16:33.998Z</time></trkpt><trkpt lat="45.55390707488954" lon="10.988466408768643"><ele>495.5</ele><time>2026-04-04T14:16:34.998Z</time></trkpt><trkpt lat="45.55404091187562" lon="10.98842471533809"><ele>493.0</ele><time>2026-04-04T14:16:35.998Z</time></trkpt><trkpt lat="45.554172912134426" lon="10.988375167748604"><ele>490.5</ele><time>2026-04-04T14:16:36.998Z</time></trkpt><trkpt lat="45.55430329104913" lon="10.988307428706547"><ele>488.0</ele><time>2026-04-04T14:16:37.998Z</time></trkpt><trkpt lat="45.554426436560355" lon="10.988204768495185"><ele>488.3333333333333</ele><time>2026-04-04T14:16:38.998Z</time></trkpt><trkpt lat="45.55454693080266" lon="10.988057075942326"><ele>488.66666666666663</ele><time>2026-04-04T14:16:39.998Z</time></trkpt><trkpt lat="45.55466637357384" lon="10.987870269478481"><ele>489.0</ele><time>2026-04-04T14:16:40.998Z</time></trkpt><trkpt lat="45.55477933184656" lon="10.987685044735164"><ele>495.33333333333337</ele><time>2026-04-04T14:16:41.998Z</time></trkpt><trkpt lat="45.554887096400336" lon="10.98751043516601"><ele>501.6666666666667</ele><time>2026-04-04T14:16:42.998Z</time></trkpt><trkpt lat="45.55500747608893" lon="10.987337301318655"><ele>508.0</ele><time>2026-04-04T14:16:43.998Z</time></trkpt><trkpt lat="45.555138230674494" lon="10.987181326253431"><ele>508.0</ele><time>2026-04-04T14:16:44.998Z</time></trkpt><trkpt lat="45.55527313911187" lon="10.987050671026562"><ele>507.99999999999994</ele><time>2026-04-04T14:16:45.998Z</time></trkpt><trkpt lat="45.555389201769266" lon="10.98699050776936"><ele>507.99999999999994</ele><time>2026-04-04T14:16:46.998Z</time></trkpt><trkpt lat="45.555467996312316" lon="10.986925929270734"><ele>508.0</ele><time>2026-04-04T14:16:47.998Z</time></trkpt><trkpt lat="45.55553057854283" lon="10.98690428550591"><ele>508.0</ele><time>2026-04-04T14:16:48.998Z</time></trkpt><trkpt lat="45.555600651632645" lon="10.986881629888618"><ele>504.75</ele><time>2026-04-04T14:16:49.998Z</time></trkpt><trkpt lat="45.55568423684791" lon="10.9868538821148"><ele>501.5</ele><time>2026-04-04T14:16:50.998Z</time></trkpt><trkpt lat="45.55579489190456" lon="10.986855048959043"><ele>498.25</ele><time>2026-04-04T14:16:51.998Z</time></trkpt><trkpt lat="45.55591470242846" lon="10.986813197839245"><ele>495.0</ele><time>2026-04-04T14:16:52.998Z</time></trkpt><trkpt lat="45.55604655253063" lon="10.986794440268445"><ele>495.0</ele><time>2026-04-04T14:16:53.998Z</time></trkpt><trkpt lat="45.55618556989078" lon="10.986770976888778"><ele>495.0</ele><time>2026-04-04T14:16:54.998Z</time></trkpt><trkpt lat="45.55632950365565" lon="10.986748671292402"><ele>495.0</ele><time>2026-04-04T14:16:56Z</time></trkpt><trkpt lat="45.5564713769543" lon="10.986725961501064"><ele>495.0</ele><time>2026-04-04T14:16:57Z</time></trkpt><trkpt lat="45.556609825869586" lon="10.986703887301353"><ele>494.75</ele><time>2026-04-04T14:16:58Z</time></trkpt><trkpt lat="45.55674571358712" lon="10.98668058359151"><ele>494.5</ele><time>2026-04-04T14:16:59Z</time></trkpt><trkpt lat="45.55688154791185" lon="10.98665962949569"><ele>494.25</ele><time>2026-04-04T14:17:00Z</time></trkpt><trkpt lat="45.55701716567323" lon="10.986635579068555"><ele>494.0</ele><time>2026-04-04T14:17:01Z</time></trkpt><trkpt lat="45.55715708123856" lon="10.986643357338604"><ele>500.75</ele><time>2026-04-04T14:17:02Z</time></trkpt><trkpt lat="45.55729624182454" lon="10.986631440614092"><ele>507.5</ele><time>2026-04-04T14:17:03Z</time></trkpt><trkpt lat="45.55743445171533" lon="10.986599466571047"><ele>514.25</ele><time>2026-04-04T14:17:04Z</time></trkpt><trkpt lat="45.55757728890772" lon="10.98659637132405"><ele>521.0</ele><time>2026-04-04T14:17:05Z</time></trkpt><trkpt lat="45.55771797447864" lon="10.986598345816981"><ele>521.0</ele><time>2026-04-04T14:17:06Z</time></trkpt><trkpt lat="45.55786089034761" lon="10.98660602262285"><ele>521.0</ele><time>2026-04-04T14:17:07Z</time></trkpt><trkpt lat="45.558005022360184" lon="10.986638823785782"><ele>521.0</ele><time>2026-04-04T14:17:08Z</time></trkpt><trkpt lat="45.55815689914492" lon="10.98661537002695"><ele>521.0</ele><time>2026-04-04T14:17:09Z</time></trkpt><trkpt lat="45.5583142104661" lon="10.986597416197455"><ele>521.5</ele><time>2026-04-04T14:17:10Z</time></trkpt><trkpt lat="45.558467595036404" lon="10.986562786644019"><ele>522.0</ele><time>2026-04-04T14:17:11Z</time></trkpt><trkpt lat="45.5586113189714" lon="10.986518254047873"><ele>522.5</ele><time>2026-04-04T14:17:12Z</time></trkpt><trkpt lat="45.558748372753804" lon="10.9864723605843"><ele>523.0</ele><time>2026-04-04T14:17:13Z</time></trkpt><trkpt lat="45.55888387497559" lon="10.986433021190559"><ele>524.25</ele><time>2026-04-04T14:17:14Z</time></trkpt><trkpt lat="45.55902308161775" lon="10.9864390043514"><ele>525.5</ele><time>2026-04-04T14:17:15Z</time></trkpt><trkpt lat="45.55917002811373" lon="10.986481903488105"><ele>526.75</ele><time>2026-04-04T14:17:16Z</time></trkpt><trkpt lat="45.559319303156066" lon="10.986561949790456"><ele>528.0</ele><time>2026-04-04T14:17:17Z</time></trkpt><trkpt lat="45.559461672255104" lon="10.986654850018585"><ele>530.0</ele><time>2026-04-04T14:17:18Z</time></trkpt><trkpt lat="45.55959189773623" lon="10.986758185062712"><ele>532.0</ele><time>2026-04-04T14:17:19Z</time></trkpt><trkpt lat="45.55971846088364" lon="10.986875796958174"><ele>534.0</ele><time>2026-04-04T14:17:20Z</time></trkpt><trkpt lat="45.55984056306061" lon="10.987005442808371"><ele>534.0</ele><time>2026-04-04T14:17:21Z</time></trkpt><trkpt lat="45.55997802685855" lon="10.987115772945996"><ele>534.0</ele><time>2026-04-04T14:17:22Z</time></trkpt><trkpt lat="45.560085020122564" lon="10.98726555805631"><ele>534.0</ele><time>2026-04-04T14:17:23Z</time></trkpt><trkpt lat="45.56017931029529" lon="10.987399106094028"><ele>534.0</ele><time>2026-04-04T14:17:24Z</time></trkpt><trkpt lat="45.560260339001765" lon="10.987519120764118"><ele>533.0</ele><time>2026-04-04T14:17:25Z</time></trkpt><trkpt lat="45.560330452714524" lon="10.98762656839004"><ele>532.0</ele><time>2026-04-04T14:17:26Z</time></trkpt><trkpt lat="45.560389214279695" lon="10.987733976106952"><ele>531.0</ele><time>2026-04-04T14:17:27Z</time></trkpt><trkpt lat="45.56047706022625" lon="10.987761541840586"><ele>530.0</ele><time>2026-04-04T14:17:28Z</time></trkpt><trkpt lat="45.560569017358944" lon="10.987697469784676"><ele>529.0</ele><time>2026-04-04T14:17:29Z</time></trkpt><trkpt lat="45.56063496926511" lon="10.987595652133205"><ele>529.5</ele><time>2026-04-04T14:17:30Z</time></trkpt><trkpt lat="45.56067415472266" lon="10.987442391749292"><ele>530.0</ele><time>2026-04-04T14:17:31Z</time></trkpt><trkpt lat="45.56068806717852" lon="10.98724679411005"><ele>530.5</ele><time>2026-04-04T14:17:32Z</time></trkpt><trkpt lat="45.56070234739562" lon="10.987026458134316"><ele>531.0</ele><time>2026-04-04T14:17:33Z</time></trkpt><trkpt lat="45.560754536852144" lon="10.986813137768625"><ele>534.0</ele><time>2026-04-04T14:17:34Z</time></trkpt><trkpt lat="45.56081788207492" lon="10.986618213184443"><ele>537.0</ele><time>2026-04-04T14:17:35Z</time></trkpt><trkpt lat="45.56088114127486" lon="10.986454818824816"><ele>540.0</ele><time>2026-04-04T14:17:36Z</time></trkpt><trkpt lat="45.56095835476751" lon="10.986310611887882"><ele>543.0</ele><time>2026-04-04T14:17:37Z</time></trkpt><trkpt lat="45.56106672785788" lon="10.986222538891553"><ele>543.0</ele><time>2026-04-04T14:17:37.999Z</time></trkpt><trkpt lat="45.56119208442429" lon="10.986198607058252"><ele>543.0</ele><time>2026-04-04T14:17:38.999Z</time></trkpt><trkpt lat="45.56133048623975" lon="10.986200002622919"><ele>543.0</ele><time>2026-04-04T14:17:39.999Z</time></trkpt><trkpt lat="45.56147501181821" lon="10.986168473815798"><ele>543.0</ele><time>2026-04-04T14:17:40.999Z</time></trkpt><trkpt lat="45.56160802941062" lon="10.986167427395573"><ele>540.25</ele><time>2026-04-04T14:17:41.999Z</time></trkpt><trkpt lat="45.56174499868866" lon="10.986107626223436"><ele>537.5</ele><time>2026-04-04T14:17:42.999Z</time></trkpt><trkpt lat="45.561874791750014" lon="10.986039851409286"><ele>534.75</ele><time>2026-04-04T14:17:43.999Z</time></trkpt><trkpt lat="45.56197115261773" lon="10.985961310999047"><ele>532.0</ele><time>2026-04-04T14:17:44.999Z</time></trkpt><trkpt lat="45.56204680009498" lon="10.985867432236086"><ele>535.0</ele><time>2026-04-04T14:17:45.999Z</time></trkpt><trkpt lat="45.562125845233865" lon="10.985737474551334"><ele>538.0</ele><time>2026-04-04T14:17:46.999Z</time></trkpt><trkpt lat="45.56220718062721" lon="10.985616919794806"><ele>541.0</ele><time>2026-04-04T14:17:47.999Z</time></trkpt><trkpt lat="45.56228556714317" lon="10.985505506523953"><ele>544.0</ele><time>2026-04-04T14:17:48.999Z</time></trkpt><trkpt lat="45.56236052419586" lon="10.985397587279996"><ele>544.0</ele><time>2026-04-04T14:17:49.999Z</time></trkpt><trkpt lat="45.562436452371166" lon="10.985281529914685"><ele>544.0</ele><time>2026-04-04T14:17:50.999Z</time></trkpt><trkpt lat="45.562509541051305" lon="10.98516156219595"><ele>544.0</ele><time>2026-04-04T14:17:51.999Z</time></trkpt><trkpt lat="45.56257660398765" lon="10.985032539889565"><ele>544.0</ele><time>2026-04-04T14:17:52.999Z</time></trkpt><trkpt lat="45.56263126982911" lon="10.984889826267834"><ele>544.0</ele><time>2026-04-04T14:17:53.999Z</time></trkpt><trkpt lat="45.56267894332508" lon="10.98474757404143"><ele>546.8</ele><time>2026-04-04T14:17:54.999Z</time></trkpt><trkpt lat="45.56272647288935" lon="10.984610258661569"><ele>549.5999999999999</ele><time>2026-04-04T14:17:55.999Z</time></trkpt><trkpt lat="45.56279738602179" lon="10.984496312103998"><ele>552.4</ele><time>2026-04-04T14:17:56.999Z</time></trkpt><trkpt lat="45.5628953558863" lon="10.984405315870534"><ele>555.1999999999999</ele><time>2026-04-04T14:17:57.999Z</time></trkpt><trkpt lat="45.56299933544936" lon="10.984329043565268"><ele>558.0</ele><time>2026-04-04T14:17:58.999Z</time></trkpt><trkpt lat="45.563107880735856" lon="10.984261272005172"><ele>558.0</ele><time>2026-04-04T14:17:59.999Z</time></trkpt><trkpt lat="45.56321656480278" lon="10.984193455731074"><ele>558.0</ele><time>2026-04-04T14:18:00.999Z</time></trkpt><trkpt lat="45.563325932282346" lon="10.984118370182856"><ele>558.0</ele><time>2026-04-04T14:18:01.999Z</time></trkpt><trkpt lat="45.56343733297347" lon="10.984042010768725"><ele>558.0</ele><time>2026-04-04T14:18:02.999Z</time></trkpt><trkpt lat="45.56355442477079" lon="10.98398844386567"><ele>561.0</ele><time>2026-04-04T14:18:03.999Z</time></trkpt><trkpt lat="45.56366960424156" lon="10.983951471659271"><ele>564.0</ele><time>2026-04-04T14:18:04.999Z</time></trkpt><trkpt lat="45.56378381292662" lon="10.983905988384537"><ele>567.0</ele><time>2026-04-04T14:18:05.999Z</time></trkpt><trkpt lat="45.56389534141801" lon="10.983835906862144"><ele>570.0</ele><time>2026-04-04T14:18:06.999Z</time></trkpt><trkpt lat="45.56399945465828" lon="10.983762418395667"><ele>570.0</ele><time>2026-04-04T14:18:07.999Z</time></trkpt><trkpt lat="45.56409131257213" lon="10.983697940053093"><ele>570.0</ele><time>2026-04-04T14:18:08.999Z</time></trkpt><trkpt lat="45.564184117149814" lon="10.983653023801384"><ele>570.0</ele><time>2026-04-04T14:18:09.999Z</time></trkpt><trkpt lat="45.564269851912705" lon="10.983631802052184"><ele>570.0</ele><time>2026-04-04T14:18:10.999Z</time></trkpt><trkpt lat="45.564348055196994" lon="10.983633699747886"><ele>570.0</ele><time>2026-04-04T14:18:11.999Z</time></trkpt><trkpt lat="45.56441829009149" lon="10.983656292040338"><ele>570.0</ele><time>2026-04-04T14:18:12.999Z</time></trkpt><trkpt lat="45.564489791394884" lon="10.983704943625904"><ele>568.8</ele><time>2026-04-04T14:18:13.999Z</time></trkpt><trkpt lat="45.564575020688714" lon="10.9837740258878"><ele>567.6</ele><time>2026-04-04T14:18:15.999Z</time></trkpt><trkpt lat="45.564636316383776" lon="10.983817382193433"><ele>566.4</ele><time>2026-04-04T14:18:17.999Z</time></trkpt><trkpt lat="45.56471152451308" lon="10.983855264237121"><ele>565.2</ele><time>2026-04-04T14:18:19.999Z</time></trkpt><trkpt lat="45.56481647139008" lon="10.983766503972763"><ele>564.0</ele><time>2026-04-04T14:18:20.999Z</time></trkpt><trkpt lat="45.56493328702218" lon="10.98365684252238"><ele>564.0</ele><time>2026-04-04T14:18:21.999Z</time></trkpt><trkpt lat="45.565061973655055" lon="10.98354615630719"><ele>564.0</ele><time>2026-04-04T14:18:22.999Z</time></trkpt><trkpt lat="45.56519841632313" lon="10.98342433673562"><ele>564.0</ele><time>2026-04-04T14:18:23.999Z</time></trkpt><trkpt lat="45.5653162109125" lon="10.983297707358611"><ele>565.3333333333334</ele><time>2026-04-04T14:18:24.999Z</time></trkpt><trkpt lat="45.56541533710938" lon="10.983138343964454"><ele>566.6666666666667</ele><time>2026-04-04T14:18:25.999Z</time></trkpt><trkpt lat="45.565512958363236" lon="10.982970171678149"><ele>568.0</ele><time>2026-04-04T14:18:26.999Z</time></trkpt><trkpt lat="45.56559342057775" lon="10.982783292386744"><ele>568.0</ele><time>2026-04-04T14:18:27.999Z</time></trkpt><trkpt lat="45.565678226505725" lon="10.982578354595526"><ele>568.0</ele><time>2026-04-04T14:18:28.999Z</time></trkpt><trkpt lat="45.56575849164541" lon="10.982376768117659"><ele>568.0</ele><time>2026-04-04T14:18:29.999Z</time></trkpt><trkpt lat="45.565862645684376" lon="10.982193587896594"><ele>573.6666666666667</ele><time>2026-04-04T14:18:30.999Z</time></trkpt><trkpt lat="45.565983612539334" lon="10.982032945467452"><ele>579.3333333333334</ele><time>2026-04-04T14:18:31.999Z</time></trkpt><trkpt lat="45.56607454857131" lon="10.98187649687969"><ele>585.0</ele><time>2026-04-04T14:18:32.999Z</time></trkpt><trkpt lat="45.56616543195268" lon="10.981711736080458"><ele>584.0</ele><time>2026-04-04T14:18:33.999Z</time></trkpt><trkpt lat="45.56623145171283" lon="10.981524083370616"><ele>583.0</ele><time>2026-04-04T14:18:34.999Z</time></trkpt><trkpt lat="45.56629157578235" lon="10.981324003793546"><ele>582.0</ele><time>2026-04-04T14:18:35.998Z</time></trkpt><trkpt lat="45.56635993137781" lon="10.981136022462982"><ele>581.0</ele><time>2026-04-04T14:18:36.998Z</time></trkpt><trkpt lat="45.566442715613896" lon="10.981000553183474"><ele>581.0</ele><time>2026-04-04T14:18:37.998Z</time></trkpt><trkpt lat="45.56654882147678" lon="10.980898725307027"><ele>581.0</ele><time>2026-04-04T14:18:38.998Z</time></trkpt><trkpt lat="45.56668819172825" lon="10.980834806291126"><ele>581.0</ele><time>2026-04-04T14:18:39.998Z</time></trkpt><trkpt lat="45.566832645455094" lon="10.980735637070778"><ele>581.0</ele><time>2026-04-04T14:18:40.998Z</time></trkpt><trkpt lat="45.56695748436285" lon="10.980566330724544"><ele>583.0</ele><time>2026-04-04T14:18:41.998Z</time></trkpt><trkpt lat="45.567086731469836" lon="10.980396642766747"><ele>585.0</ele><time>2026-04-04T14:18:42.998Z</time></trkpt><trkpt lat="45.567200880351" lon="10.980216577415492"><ele>587.0</ele><time>2026-04-04T14:18:43.998Z</time></trkpt><trkpt lat="45.567311485409554" lon="10.980027693716531"><ele>594.0</ele><time>2026-04-04T14:18:44.998Z</time></trkpt><trkpt lat="45.56743361099575" lon="10.979859684434663"><ele>601.0</ele><time>2026-04-04T14:18:45.998Z</time></trkpt><trkpt lat="45.567570404428814" lon="10.979732122025004"><ele>608.0</ele><time>2026-04-04T14:18:46.998Z</time></trkpt><trkpt lat="45.56768778615453" lon="10.979625857672374"><ele>608.0</ele><time>2026-04-04T14:18:47.998Z</time></trkpt><trkpt lat="45.5677808261962" lon="10.979486928834376"><ele>608.0</ele><time>2026-04-04T14:18:48.998Z</time></trkpt><trkpt lat="45.56785983940905" lon="10.979305656499742"><ele>608.0</ele><time>2026-04-04T14:18:49.998Z</time></trkpt><trkpt lat="45.56793428950383" lon="10.97912301852526"><ele>608.0</ele><time>2026-04-04T14:18:50.998Z</time></trkpt><trkpt lat="45.56803251984071" lon="10.978961920980268"><ele>610.0</ele><time>2026-04-04T14:18:51.998Z</time></trkpt><trkpt lat="45.56816834262351" lon="10.978825812276526"><ele>612.0</ele><time>2026-04-04T14:18:52.998Z</time></trkpt><trkpt lat="45.56833286285914" lon="10.97872055069608"><ele>614.0</ele><time>2026-04-04T14:18:53.998Z</time></trkpt><trkpt lat="45.56850207945571" lon="10.978632271195178"><ele>614.0</ele><time>2026-04-04T14:18:54.998Z</time></trkpt><trkpt lat="45.568671604129946" lon="10.97855972275415"><ele>614.0</ele><time>2026-04-04T14:18:55.998Z</time></trkpt><trkpt lat="45.5688420895111" lon="10.978485536800532"><ele>614.0</ele><time>2026-04-04T14:18:56.998Z</time></trkpt><trkpt lat="45.56900966147439" lon="10.978399730041568"><ele>620.0</ele><time>2026-04-04T14:18:57.998Z</time></trkpt><trkpt lat="45.56917573487683" lon="10.97831429257059"><ele>626.0</ele><time>2026-04-04T14:18:58.998Z</time></trkpt><trkpt lat="45.56932453412407" lon="10.978269486036"><ele>632.0</ele><time>2026-04-04T14:18:59.998Z</time></trkpt><trkpt lat="45.56945043280202" lon="10.978232247002824"><ele>631.0</ele><time>2026-04-04T14:19:00.998Z</time></trkpt><trkpt lat="45.56956173041709" lon="10.978184059515792"><ele>630.0</ele><time>2026-04-04T14:19:02Z</time></trkpt><trkpt lat="45.56965992452108" lon="10.978145793136981"><ele>629.0</ele><time>2026-04-04T14:19:03Z</time></trkpt><trkpt lat="45.569736583426526" lon="10.978116393441335"><ele>628.0</ele><time>2026-04-04T14:19:04Z</time></trkpt><trkpt lat="45.56979919837247" lon="10.978096968294066"><ele>627.0</ele><time>2026-04-04T14:19:05Z</time></trkpt><trkpt lat="45.569878363299736" lon="10.978010553909566"><ele>627.0</ele><time>2026-04-04T14:19:07Z</time></trkpt><trkpt lat="45.56985982268804" lon="10.977916344158515"><ele>627.0</ele><time>2026-04-04T14:19:08Z</time></trkpt><trkpt lat="45.56981201677735" lon="10.977836982724659"><ele>627.0</ele><time>2026-04-04T14:19:09Z</time></trkpt><trkpt lat="45.56970624217529" lon="10.977861561832944"><ele>627.0</ele><time>2026-04-04T14:19:10Z</time></trkpt><trkpt lat="45.56960649745614" lon="10.977895755083681"><ele>627.0</ele><time>2026-04-04T14:19:11Z</time></trkpt><trkpt lat="45.56947498957665" lon="10.977910984316974"><ele>628.0</ele><time>2026-04-04T14:19:12Z</time></trkpt><trkpt lat="45.56933300261025" lon="10.977932388591423"><ele>629.0</ele><time>2026-04-04T14:19:13Z</time></trkpt><trkpt lat="45.56922206283941" lon="10.977942586321802"><ele>630.0</ele><time>2026-04-04T14:19:14Z</time></trkpt><trkpt lat="45.56913276704816" lon="10.977940704280687"><ele>631.0</ele><time>2026-04-04T14:19:15Z</time></trkpt><trkpt lat="45.56906894802431" lon="10.977936673537789"><ele>632.0</ele><time>2026-04-04T14:19:16Z</time></trkpt><trkpt lat="45.569028373671905" lon="10.977861077260307"><ele>632.0</ele><time>2026-04-04T14:19:18Z</time></trkpt><trkpt lat="45.569133342819725" lon="10.977772877035473"><ele>632.0</ele><time>2026-04-04T14:19:20Z</time></trkpt><trkpt lat="45.56926416165329" lon="10.97784062345108"><ele>632.0</ele><time>2026-04-04T14:19:21Z</time></trkpt><trkpt lat="45.56942766452807" lon="10.977783594843594"><ele>632.0</ele><time>2026-04-04T14:19:22Z</time></trkpt><trkpt lat="45.569621934653824" lon="10.977690140109964"><ele>630.3333333333333</ele><time>2026-04-04T14:19:23Z</time></trkpt><trkpt lat="45.56982326172005" lon="10.977569303683"><ele>628.6666666666666</ele><time>2026-04-04T14:19:24Z</time></trkpt><trkpt lat="45.569986032471526" lon="10.977472008329864"><ele>627.0</ele><time>2026-04-04T14:19:25Z</time></trkpt><trkpt lat="45.57013381823799" lon="10.977375616384693"><ele>632.0</ele><time>2026-04-04T14:19:26Z</time></trkpt><trkpt lat="45.570276138715755" lon="10.977251023866543"><ele>637.0</ele><time>2026-04-04T14:19:27Z</time></trkpt><trkpt lat="45.570410886075905" lon="10.977092731072336"><ele>642.0</ele><time>2026-04-04T14:19:28Z</time></trkpt><trkpt lat="45.57053432941641" lon="10.976896661886327"><ele>642.0</ele><time>2026-04-04T14:19:29Z</time></trkpt><trkpt lat="45.57065724512515" lon="10.976693752361662"><ele>642.0</ele><time>2026-04-04T14:19:30Z</time></trkpt><trkpt lat="45.57078821386674" lon="10.976508460182012"><ele>642.0</ele><time>2026-04-04T14:19:31Z</time></trkpt><trkpt lat="45.570922039404465" lon="10.976341299327066"><ele>644.25</ele><time>2026-04-04T14:19:32Z</time></trkpt><trkpt lat="45.57103757232519" lon="10.976205213717453"><ele>646.5</ele><time>2026-04-04T14:19:33Z</time></trkpt><trkpt lat="45.57114852753572" lon="10.976077843599855"><ele>648.75</ele><time>2026-04-04T14:19:34Z</time></trkpt><trkpt lat="45.57125316802772" lon="10.975956692156435"><ele>651.0</ele><time>2026-04-04T14:19:35Z</time></trkpt><trkpt lat="45.57135504652017" lon="10.975850045495601"><ele>655.5</ele><time>2026-04-04T14:19:36Z</time></trkpt><trkpt lat="45.57145371462937" lon="10.975741914859265"><ele>660.0</ele><time>2026-04-04T14:19:37Z</time></trkpt><trkpt lat="45.57155350915851" lon="10.975637937253667"><ele>664.5</ele><time>2026-04-04T14:19:38Z</time></trkpt><trkpt lat="45.571649997336756" lon="10.975534805301425"><ele>669.0</ele><time>2026-04-04T14:19:39Z</time></trkpt><trkpt lat="45.57175225513858" lon="10.9754345889287"><ele>669.0</ele><time>2026-04-04T14:19:40Z</time></trkpt><trkpt lat="45.5718720464858" lon="10.975338720730297"><ele>669.0</ele><time>2026-04-04T14:19:41Z</time></trkpt><trkpt lat="45.572010395204636" lon="10.975247655538592"><ele>669.0</ele><time>2026-04-04T14:19:42Z</time></trkpt><trkpt lat="45.57215755714035" lon="10.975165013632225"><ele>669.0</ele><time>2026-04-04T14:19:43Z</time></trkpt><trkpt lat="45.572302984237794" lon="10.97508702924725"><ele>671.6666666666666</ele><time>2026-04-04T14:19:43.999Z</time></trkpt><trkpt lat="45.572448429817804" lon="10.975014835870535"><ele>674.3333333333333</ele><time>2026-04-04T14:19:44.999Z</time></trkpt><trkpt lat="45.57259262690232" lon="10.974945938773857"><ele>677.0</ele><time>2026-04-04T14:19:45.999Z</time></trkpt><trkpt lat="45.572737157990325" lon="10.974887813559862"><ele>678.25</ele><time>2026-04-04T14:19:46.999Z</time></trkpt><trkpt lat="45.572879369304296" lon="10.974836090770873"><ele>679.5</ele><time>2026-04-04T14:19:47.999Z</time></trkpt><trkpt lat="45.573018817265826" lon="10.974782933099654"><ele>680.75</ele><time>2026-04-04T14:19:48.999Z</time></trkpt><trkpt lat="45.57315238775527" lon="10.974727869114314"><ele>682.0</ele><time>2026-04-04T14:19:49.999Z</time></trkpt><trkpt lat="45.573279875451746" lon="10.974664815850094"><ele>682.0</ele><time>2026-04-04T14:19:50.999Z</time></trkpt><trkpt lat="45.57340422843663" lon="10.97458776397895"><ele>682.0</ele><time>2026-04-04T14:19:51.999Z</time></trkpt><trkpt lat="45.573530849147524" lon="10.974508166381423"><ele>682.0</ele><time>2026-04-04T14:19:52.999Z</time></trkpt><trkpt lat="45.57366225729797" lon="10.974435875171586"><ele>682.0</ele><time>2026-04-04T14:19:53.999Z</time></trkpt><trkpt lat="45.57379794417177" lon="10.974373498531055"><ele>682.75</ele><time>2026-04-04T14:19:54.999Z</time></trkpt><trkpt lat="45.57393520705124" lon="10.974318553047928"><ele>683.5</ele><time>2026-04-04T14:19:55.999Z</time></trkpt><trkpt lat="45.57407504079542" lon="10.974260421323361"><ele>684.25</ele><time>2026-04-04T14:19:56.999Z</time></trkpt><trkpt lat="45.574214772545496" lon="10.974198648529727"><ele>685.0</ele><time>2026-04-04T14:19:57.999Z</time></trkpt><trkpt lat="45.57434739511029" lon="10.974142020605745"><ele>687.25</ele><time>2026-04-04T14:19:58.999Z</time></trkpt><trkpt lat="45.574477224165726" lon="10.97408927438239"><ele>689.5</ele><time>2026-04-04T14:19:59.999Z</time></trkpt><trkpt lat="45.57460583794541" lon="10.974036858031742"><ele>691.75</ele><time>2026-04-04T14:20:00.999Z</time></trkpt><trkpt lat="45.57473495760485" lon="10.973987064831482"><ele>694.0</ele><time>2026-04-04T14:20:01.999Z</time></trkpt><trkpt lat="45.57486523233619" lon="10.973947006897337"><ele>695.0</ele><time>2026-04-04T14:20:02.999Z</time></trkpt><trkpt lat="45.5750010571659" lon="10.973905147273552"><ele>696.0</ele><time>2026-04-04T14:20:03.999Z</time></trkpt><trkpt lat="45.575138691974914" lon="10.97386398702113"><ele>697.0</ele><time>2026-04-04T14:20:04.999Z</time></trkpt><trkpt lat="45.57527626787425" lon="10.973819068052451"><ele>698.0</ele><time>2026-04-04T14:20:05.999Z</time></trkpt><trkpt lat="45.575416926466374" lon="10.97378072662127"><ele>699.0</ele><time>2026-04-04T14:20:06.999Z</time></trkpt><trkpt lat="45.575559307591476" lon="10.97375348488877"><ele>700.0</ele><time>2026-04-04T14:20:07.999Z</time></trkpt><trkpt lat="45.57570158113883" lon="10.973733779985926"><ele>701.0</ele><time>2026-04-04T14:20:08.999Z</time></trkpt><trkpt lat="45.57584299766715" lon="10.973706347756123"><ele>702.0</ele><time>2026-04-04T14:20:09.999Z</time></trkpt><trkpt lat="45.575986483274264" lon="10.973669025717598"><ele>702.0</ele><time>2026-04-04T14:20:10.999Z</time></trkpt><trkpt lat="45.576129426831265" lon="10.973610717607112"><ele>702.0</ele><time>2026-04-04T14:20:11.999Z</time></trkpt><trkpt lat="45.57627085641607" lon="10.973532763561165"><ele>702.0</ele><time>2026-04-04T14:20:12.999Z</time></trkpt><trkpt lat="45.576403769358805" lon="10.973449222728812"><ele>702.0</ele><time>2026-04-04T14:20:13.999Z</time></trkpt><trkpt lat="45.57652934345892" lon="10.973366242394567"><ele>702.25</ele><time>2026-04-04T14:20:14.999Z</time></trkpt><trkpt lat="45.57665564762961" lon="10.973279031450527"><ele>702.5</ele><time>2026-04-04T14:20:15.999Z</time></trkpt><trkpt lat="45.576787851794926" lon="10.973193830704732"><ele>702.75</ele><time>2026-04-04T14:20:16.999Z</time></trkpt><trkpt lat="45.57692434863848" lon="10.973107625391654"><ele>703.0</ele><time>2026-04-04T14:20:17.999Z</time></trkpt><trkpt lat="45.57706571923901" lon="10.973014291318593"><ele>703.6666666666667</ele><time>2026-04-04T14:20:18.999Z</time></trkpt><trkpt lat="45.577211818641416" lon="10.972923410661295"><ele>704.3333333333334</ele><time>2026-04-04T14:20:19.999Z</time></trkpt><trkpt lat="45.5773591919721" lon="10.972840956285776"><ele>705.0</ele><time>2026-04-04T14:20:20.999Z</time></trkpt><trkpt lat="45.57750770094111" lon="10.972767366947664"><ele>705.0</ele><time>2026-04-04T14:20:21.999Z</time></trkpt><trkpt lat="45.577641465620765" lon="10.972709251219118"><ele>705.0</ele><time>2026-04-04T14:20:22.999Z</time></trkpt><trkpt lat="45.57776659857875" lon="10.972692580056991"><ele>705.0</ele><time>2026-04-04T14:20:23.999Z</time></trkpt><trkpt lat="45.577891272043765" lon="10.972679501883736"><ele>705.0</ele><time>2026-04-04T14:20:24.999Z</time></trkpt><trkpt lat="45.578002084578266" lon="10.972705219089299"><ele>706.0</ele><time>2026-04-04T14:20:25.999Z</time></trkpt><trkpt lat="45.57810208062858" lon="10.972753095433514"><ele>707.0</ele><time>2026-04-04T14:20:26.999Z</time></trkpt><trkpt lat="45.57820801398625" lon="10.972754317064993"><ele>708.0</ele><time>2026-04-04T14:20:27.999Z</time></trkpt><trkpt lat="45.57831702511913" lon="10.972734516424627"><ele>709.0</ele><time>2026-04-04T14:20:28.999Z</time></trkpt><trkpt lat="45.578424434088106" lon="10.9726702924698"><ele>710.0</ele><time>2026-04-04T14:20:29.999Z</time></trkpt><trkpt lat="45.5785265206411" lon="10.972585297230857"><ele>709.5</ele><time>2026-04-04T14:20:30.999Z</time></trkpt><trkpt lat="45.578630901770865" lon="10.972482653306953"><ele>709.0</ele><time>2026-04-04T14:20:31.999Z</time></trkpt><trkpt lat="45.578744433060535" lon="10.97238482039567"><ele>708.5</ele><time>2026-04-04T14:20:32.999Z</time></trkpt><trkpt lat="45.57886636684285" lon="10.972300607297676"><ele>708.0</ele><time>2026-04-04T14:20:33.999Z</time></trkpt><trkpt lat="45.57899067890509" lon="10.972224257577972"><ele>709.25</ele><time>2026-04-04T14:20:34.999Z</time></trkpt><trkpt lat="45.579125588346166" lon="10.972164276243577"><ele>710.5</ele><time>2026-04-04T14:20:35.999Z</time></trkpt><trkpt lat="45.57926239487703" lon="10.9720955417282"><ele>711.75</ele><time>2026-04-04T14:20:36.999Z</time></trkpt><trkpt lat="45.57940352493549" lon="10.972006002405953"><ele>713.0</ele><time>2026-04-04T14:20:37.999Z</time></trkpt><trkpt lat="45.579539160035644" lon="10.97189115949014"><ele>713.75</ele><time>2026-04-04T14:20:38.999Z</time></trkpt><trkpt lat="45.579660067492796" lon="10.971779491245666"><ele>714.5</ele><time>2026-04-04T14:20:39.999Z</time></trkpt><trkpt lat="45.5797825982902" lon="10.971686940998127"><ele>715.25</ele><time>2026-04-04T14:20:40.999Z</time></trkpt><trkpt lat="45.57989676281542" lon="10.971618487251819"><ele>716.0</ele><time>2026-04-04T14:20:41.999Z</time></trkpt><trkpt lat="45.580011796883525" lon="10.971574867144001"><ele>716.0</ele><time>2026-04-04T14:20:42.998Z</time></trkpt><trkpt lat="45.58012403792954" lon="10.97156137625069"><ele>716.0</ele><time>2026-04-04T14:20:43.998Z</time></trkpt><trkpt lat="45.58024115921614" lon="10.971554033824225"><ele>716.0</ele><time>2026-04-04T14:20:44.998Z</time></trkpt><trkpt lat="45.58036657137195" lon="10.971529697015582"><ele>716.0</ele><time>2026-04-04T14:20:45.998Z</time></trkpt><trkpt lat="45.5804760174715" lon="10.971485808061487"><ele>718.1666666666666</ele><time>2026-04-04T14:20:46.998Z</time></trkpt><trkpt lat="45.58057389825096" lon="10.971443855478295"><ele>720.3333333333333</ele><time>2026-04-04T14:20:47.998Z</time></trkpt><trkpt lat="45.580660636636175" lon="10.971402904634433"><ele>722.5</ele><time>2026-04-04T14:20:48.998Z</time></trkpt><trkpt lat="45.5807360007474" lon="10.9713524659842"><ele>724.6666666666666</ele><time>2026-04-04T14:20:49.998Z</time></trkpt><trkpt lat="45.580803893950225" lon="10.971282766213276"><ele>726.8333333333334</ele><time>2026-04-04T14:20:50.998Z</time></trkpt><trkpt lat="45.58085971792311" lon="10.97120471083739"><ele>729.0</ele><time>2026-04-04T14:20:51.998Z</time></trkpt><trkpt lat="45.58091332932786" lon="10.971102876896364"><ele>729.0</ele><time>2026-04-04T14:20:52.998Z</time></trkpt><trkpt lat="45.58096054229142" lon="10.970975138029429"><ele>729.0</ele><time>2026-04-04T14:20:53.998Z</time></trkpt><trkpt lat="45.58098509823889" lon="10.970841149861819"><ele>729.0</ele><time>2026-04-04T14:20:54.998Z</time></trkpt><trkpt lat="45.58099082986246" lon="10.970700229477025"><ele>729.0</ele><time>2026-04-04T14:20:55.998Z</time></trkpt><trkpt lat="45.58098246157517" lon="10.970561512891061"><ele>729.0</ele><time>2026-04-04T14:20:56.998Z</time></trkpt><trkpt lat="45.58096127095281" lon="10.970421504317017"><ele>726.25</ele><time>2026-04-04T14:20:57.998Z</time></trkpt><trkpt lat="45.580926641969725" lon="10.970278358566757"><ele>723.5</ele><time>2026-04-04T14:20:58.998Z</time></trkpt><trkpt lat="45.58087674965117" lon="10.970138038647633"><ele>720.75</ele><time>2026-04-04T14:20:59.998Z</time></trkpt><trkpt lat="45.58080747455223" lon="10.970004506864896"><ele>718.0</ele><time>2026-04-04T14:21:00.998Z</time></trkpt><trkpt lat="45.58072437666509" lon="10.969879422598115"><ele>717.2</ele><time>2026-04-04T14:21:01.998Z</time></trkpt><trkpt lat="45.580644057471346" lon="10.96976482397824"><ele>716.4</ele><time>2026-04-04T14:21:02.998Z</time></trkpt><trkpt lat="45.58056325020012" lon="10.969658385621448"><ele>715.6</ele><time>2026-04-04T14:21:03.998Z</time></trkpt><trkpt lat="45.58048083447416" lon="10.969556454448826"><ele>714.8000000000001</ele><time>2026-04-04T14:21:04.998Z</time></trkpt><trkpt lat="45.580392779806004" lon="10.969459310814715"><ele>714.0</ele><time>2026-04-04T14:21:05.998Z</time></trkpt><trkpt lat="45.58029923488528" lon="10.9693681782221"><ele>710.0</ele><time>2026-04-04T14:21:06.998Z</time></trkpt><trkpt lat="45.580203990507215" lon="10.969280569605054"><ele>706.0</ele><time>2026-04-04T14:21:08Z</time></trkpt><trkpt lat="45.580108768260494" lon="10.969192910250783"><ele>702.0</ele><time>2026-04-04T14:21:09Z</time></trkpt><trkpt lat="45.580011510150776" lon="10.969105697351063"><ele>698.0</ele><time>2026-04-04T14:21:10Z</time></trkpt><trkpt lat="45.57991319807661" lon="10.969018370091481"><ele>698.0</ele><time>2026-04-04T14:21:11Z</time></trkpt><trkpt lat="45.5798141527288" lon="10.96892168406126"><ele>698.0</ele><time>2026-04-04T14:21:12Z</time></trkpt><trkpt lat="45.57971043058531" lon="10.96881936296593"><ele>698.0</ele><time>2026-04-04T14:21:13Z</time></trkpt><trkpt lat="45.57961289618926" lon="10.968721621953948"><ele>698.0</ele><time>2026-04-04T14:21:14Z</time></trkpt><trkpt lat="45.579525499145035" lon="10.968625386559408"><ele>695.1666666666666</ele><time>2026-04-04T14:21:15Z</time></trkpt><trkpt lat="45.579447707487844" lon="10.968540574362722"><ele>692.3333333333333</ele><time>2026-04-04T14:21:16Z</time></trkpt><trkpt lat="45.579376148606684" lon="10.96847907410619"><ele>689.5</ele><time>2026-04-04T14:21:17Z</time></trkpt><trkpt lat="45.57930041751822" lon="10.968452281665396"><ele>686.6666666666666</ele><time>2026-04-04T14:21:18Z</time></trkpt><trkpt lat="45.57923325588925" lon="10.968414845975468"><ele>683.8333333333334</ele><time>2026-04-04T14:21:19Z</time></trkpt><trkpt lat="45.579164169697634" lon="10.968473018685831"><ele>681.0</ele><time>2026-04-04T14:21:20Z</time></trkpt><trkpt lat="45.57906463636239" lon="10.96850509714834"><ele>681.0</ele><time>2026-04-04T14:21:22Z</time></trkpt><trkpt lat="45.57894513259239" lon="10.96847607893677"><ele>681.0</ele><time>2026-04-04T14:21:24Z</time></trkpt><trkpt lat="45.578848197668755" lon="10.96838833993764"><ele>681.0</ele><time>2026-04-04T14:21:26Z</time></trkpt><trkpt lat="45.578843432066385" lon="10.968214733088756"><ele>681.0</ele><time>2026-04-04T14:21:28Z</time></trkpt><trkpt lat="45.57888463494844" lon="10.968139852796195"><ele>681.0</ele><time>2026-04-04T14:21:29Z</time></trkpt><trkpt lat="45.57893695679887" lon="10.968089722077568"><ele>681.5999999999999</ele><time>2026-04-04T14:21:30Z</time></trkpt><trkpt lat="45.579030519167524" lon="10.968007808386316"><ele>682.2</ele><time>2026-04-04T14:21:32Z</time></trkpt><trkpt lat="45.57910179683666" lon="10.967946839051653"><ele>682.8</ele><time>2026-04-04T14:21:34Z</time></trkpt><trkpt lat="45.57916601660468" lon="10.967888255398844"><ele>683.4000000000001</ele><time>2026-04-04T14:21:38Z</time></trkpt><trkpt lat="45.579204356024604" lon="10.967803429012008"><ele>684.0</ele><time>2026-04-04T14:21:43Z</time></trkpt><trkpt lat="45.57896204125889" lon="10.96786676468199"><ele>684.0</ele><time>2026-04-04T14:21:49Z</time></trkpt><trkpt lat="45.578856042865375" lon="10.96796474915037"><ele>684.0</ele><time>2026-04-04T14:21:49.999Z</time></trkpt><trkpt lat="45.57875539328984" lon="10.968058040598578"><ele>684.0</ele><time>2026-04-04T14:21:50.999Z</time></trkpt><trkpt lat="45.578668778209874" lon="10.968140570250913"><ele>684.0</ele><time>2026-04-04T14:21:51.999Z</time></trkpt><trkpt lat="45.57859005838459" lon="10.96821557659225"><ele>684.0</ele><time>2026-04-04T14:21:52.999Z</time></trkpt><trkpt lat="45.578521685475984" lon="10.968279181295205"><ele>678.2</ele><time>2026-04-04T14:21:53.999Z</time></trkpt><trkpt lat="45.57840687177942" lon="10.968264584244787"><ele>672.4000000000001</ele><time>2026-04-04T14:21:55.999Z</time></trkpt><trkpt lat="45.578387288878446" lon="10.968163668912172"><ele>666.6</ele><time>2026-04-04T14:21:56.999Z</time></trkpt><trkpt lat="45.578423418475246" lon="10.968060846977519"><ele>660.8</ele><time>2026-04-04T14:21:57.999Z</time></trkpt><trkpt lat="45.578521214009534" lon="10.96795882309258"><ele>655.0</ele><time>2026-04-04T14:21:58.999Z</time></trkpt><trkpt lat="45.578626799326635" lon="10.96787913664048"><ele>657.0</ele><time>2026-04-04T14:21:59.999Z</time></trkpt><trkpt lat="45.578720909736894" lon="10.96779485531035"><ele>659.0</ele><time>2026-04-04T14:22:00.999Z</time></trkpt><trkpt lat="45.578802679307" lon="10.96771197084682"><ele>661.0</ele><time>2026-04-04T14:22:01.999Z</time></trkpt><trkpt lat="45.57888446502464" lon="10.967623601837246"><ele>663.0</ele><time>2026-04-04T14:22:02.999Z</time></trkpt><trkpt lat="45.57896945782593" lon="10.967523030527587"><ele>665.0</ele><time>2026-04-04T14:22:03.999Z</time></trkpt><trkpt lat="45.57905704687895" lon="10.967410953764535"><ele>665.0</ele><time>2026-04-04T14:22:04.999Z</time></trkpt><trkpt lat="45.57914534826299" lon="10.967292666777277"><ele>665.0</ele><time>2026-04-04T14:22:05.999Z</time></trkpt><trkpt lat="45.57923683293789" lon="10.967169871251286"><ele>665.0</ele><time>2026-04-04T14:22:06.999Z</time></trkpt><trkpt lat="45.579332824432655" lon="10.967048543442614"><ele>665.0</ele><time>2026-04-04T14:22:07.999Z</time></trkpt><trkpt lat="45.57942763915226" lon="10.966928598817809"><ele>665.0</ele><time>2026-04-04T14:22:08.999Z</time></trkpt><trkpt lat="45.579516221065546" lon="10.966827624016075"><ele>665.0</ele><time>2026-04-04T14:22:09.999Z</time></trkpt><trkpt lat="45.57960546931557" lon="10.966741747764834"><ele>665.0</ele><time>2026-04-04T14:22:10.999Z</time></trkpt><trkpt lat="45.579691707833035" lon="10.966663455717002"><ele>665.0</ele><time>2026-04-04T14:22:11.999Z</time></trkpt><trkpt lat="45.57977453895892" lon="10.966591201906235"><ele>665.0</ele><time>2026-04-04T14:22:12.999Z</time></trkpt><trkpt lat="45.57986732734909" lon="10.966516763958342"><ele>665.75</ele><time>2026-04-04T14:22:13.999Z</time></trkpt><trkpt lat="45.57996859620841" lon="10.966438914729133"><ele>666.5</ele><time>2026-04-04T14:22:14.999Z</time></trkpt><trkpt lat="45.58007009813034" lon="10.966344895429227"><ele>667.25</ele><time>2026-04-04T14:22:15.999Z</time></trkpt><trkpt lat="45.58016300238329" lon="10.96622649800562"><ele>668.0</ele><time>2026-04-04T14:22:16.999Z</time></trkpt><trkpt lat="45.580244735824095" lon="10.966107222589649"><ele>668.0</ele><time>2026-04-04T14:22:17.999Z</time></trkpt><trkpt lat="45.58032368635179" lon="10.965994065175357"><ele>668.0</ele><time>2026-04-04T14:22:18.999Z</time></trkpt><trkpt lat="45.580406706700565" lon="10.96588639728781"><ele>668.0</ele><time>2026-04-04T14:22:19.999Z</time></trkpt><trkpt lat="45.580490254905136" lon="10.965777124586452"><ele>668.0</ele><time>2026-04-04T14:22:20.999Z</time></trkpt><trkpt lat="45.58057501150553" lon="10.965662880457602"><ele>667.5</ele><time>2026-04-04T14:22:21.999Z</time></trkpt><trkpt lat="45.58066877549275" lon="10.965542675094193"><ele>667.0</ele><time>2026-04-04T14:22:22.999Z</time></trkpt><trkpt lat="45.58076280819038" lon="10.96542127909864"><ele>666.5</ele><time>2026-04-04T14:22:23.999Z</time></trkpt><trkpt lat="45.580860927380414" lon="10.965280815788532"><ele>666.0</ele><time>2026-04-04T14:22:24.999Z</time></trkpt><trkpt lat="45.580963691038" lon="10.96513881582366"><ele>666.5</ele><time>2026-04-04T14:22:25.999Z</time></trkpt><trkpt lat="45.58106288040479" lon="10.96500540581364"><ele>667.0</ele><time>2026-04-04T14:22:26.999Z</time></trkpt><trkpt lat="45.581161231189874" lon="10.964868699762215"><ele>667.5</ele><time>2026-04-04T14:22:27.999Z</time></trkpt><trkpt lat="45.581257916629035" lon="10.964725493505107"><ele>668.0</ele><time>2026-04-04T14:22:28.999Z</time></trkpt><trkpt lat="45.58134649455016" lon="10.964568637355443"><ele>668.0</ele><time>2026-04-04T14:22:29.999Z</time></trkpt><trkpt lat="45.58142852237802" lon="10.964409632377311"><ele>668.0</ele><time>2026-04-04T14:22:30.999Z</time></trkpt><trkpt lat="45.58150510369935" lon="10.964259049286715"><ele>668.0</ele><time>2026-04-04T14:22:31.999Z</time></trkpt><trkpt lat="45.58157465088663" lon="10.96411216957951"><ele>668.0</ele><time>2026-04-04T14:22:32.999Z</time></trkpt><trkpt lat="45.58163964605956" lon="10.96397151492183"><ele>668.25</ele><time>2026-04-04T14:22:33.999Z</time></trkpt><trkpt lat="45.58171304211617" lon="10.96382814821146"><ele>668.5</ele><time>2026-04-04T14:22:34.999Z</time></trkpt><trkpt lat="45.58180439128627" lon="10.96369059419929"><ele>668.75</ele><time>2026-04-04T14:22:35.999Z</time></trkpt><trkpt lat="45.581910900784756" lon="10.963567660684161"><ele>669.0</ele><time>2026-04-04T14:22:36.999Z</time></trkpt><trkpt lat="45.582016213668325" lon="10.963459859698663"><ele>663.6</ele><time>2026-04-04T14:22:37.999Z</time></trkpt><trkpt lat="45.58211165979442" lon="10.963357919256271"><ele>658.2</ele><time>2026-04-04T14:22:38.999Z</time></trkpt><trkpt lat="45.58219159020908" lon="10.963268882916314"><ele>652.8000000000001</ele><time>2026-04-04T14:22:39.999Z</time></trkpt><trkpt lat="45.58225234311004" lon="10.963181500510819"><ele>647.4000000000001</ele><time>2026-04-04T14:22:40.999Z</time></trkpt><trkpt lat="45.58227549672354" lon="10.963068159900834"><ele>642.0</ele><time>2026-04-04T14:22:41.999Z</time></trkpt><trkpt lat="45.58225550635151" lon="10.962949625406148"><ele>642.0</ele><time>2026-04-04T14:22:42.999Z</time></trkpt><trkpt lat="45.58218545832944" lon="10.962859175470477"><ele>642.0</ele><time>2026-04-04T14:22:43.999Z</time></trkpt><trkpt lat="45.58206692383937" lon="10.962797331139651"><ele>642.0</ele><time>2026-04-04T14:22:44.999Z</time></trkpt><trkpt lat="45.58193653672955" lon="10.962770992679001"><ele>642.0</ele><time>2026-04-04T14:22:45.999Z</time></trkpt><trkpt lat="45.5818044301802" lon="10.962772710429933"><ele>638.75</ele><time>2026-04-04T14:22:46.999Z</time></trkpt><trkpt lat="45.5816790438126" lon="10.962808166192232"><ele>635.5</ele><time>2026-04-04T14:22:47.998Z</time></trkpt><trkpt lat="45.58156321520341" lon="10.962857745176116"><ele>632.25</ele><time>2026-04-04T14:22:48.998Z</time></trkpt><trkpt lat="45.58145053218979" lon="10.962910395677973"><ele>629.0</ele><time>2026-04-04T14:22:49.998Z</time></trkpt><trkpt lat="45.58134351339982" lon="10.962977782320324"><ele>629.0</ele><time>2026-04-04T14:22:50.998Z</time></trkpt><trkpt lat="45.58125045676841" lon="10.963076955595229"><ele>629.0</ele><time>2026-04-04T14:22:51.998Z</time></trkpt><trkpt lat="45.58115210754116" lon="10.963158560545082"><ele>629.0</ele><time>2026-04-04T14:22:52.998Z</time></trkpt><trkpt lat="45.58107082835182" lon="10.963255752806399"><ele>629.0</ele><time>2026-04-04T14:22:53.998Z</time></trkpt><trkpt lat="45.581004426374996" lon="10.963368092992422"><ele>629.0</ele><time>2026-04-04T14:22:54.998Z</time></trkpt><trkpt lat="45.58093662869552" lon="10.963445771742974"><ele>628.6666666666666</ele><time>2026-04-04T14:22:55.998Z</time></trkpt><trkpt lat="45.580868579869225" lon="10.963505346931658"><ele>628.3333333333333</ele><time>2026-04-04T14:22:56.998Z</time></trkpt><trkpt lat="45.58078725521182" lon="10.9635336358454"><ele>628.0</ele><time>2026-04-04T14:22:57.998Z</time></trkpt><trkpt lat="45.580699566438845" lon="10.963505713676572"><ele>627.6666666666666</ele><time>2026-04-04T14:22:58.998Z</time></trkpt><trkpt lat="45.58063636540089" lon="10.963432370901712"><ele>627.3333333333334</ele><time>2026-04-04T14:22:59.998Z</time></trkpt><trkpt lat="45.58058721053683" lon="10.96334516901167"><ele>627.0</ele><time>2026-04-04T14:23:00.998Z</time></trkpt><trkpt lat="45.58053389106641" lon="10.96322868645785"><ele>624.0</ele><time>2026-04-04T14:23:01.998Z</time></trkpt><trkpt lat="45.58047518127608" lon="10.96310501074112"><ele>621.0</ele><time>2026-04-04T14:23:02.998Z</time></trkpt><trkpt lat="45.58040796546511" lon="10.962974848305564"><ele>618.0</ele><time>2026-04-04T14:23:03.998Z</time></trkpt><trkpt lat="45.58033745034024" lon="10.962843643395761"><ele>615.0</ele><time>2026-04-04T14:23:04.998Z</time></trkpt><trkpt lat="45.58026641879851" lon="10.96270654802311"><ele>613.8</ele><time>2026-04-04T14:23:05.998Z</time></trkpt><trkpt lat="45.580198300798266" lon="10.96257099993163"><ele>612.6</ele><time>2026-04-04T14:23:06.998Z</time></trkpt><trkpt lat="45.58013382488808" lon="10.962439195601227"><ele>611.4</ele><time>2026-04-04T14:23:07.998Z</time></trkpt><trkpt lat="45.580067070399984" lon="10.962314859452015"><ele>610.2</ele><time>2026-04-04T14:23:08.998Z</time></trkpt><trkpt lat="45.580004104252524" lon="10.962193718384901"><ele>609.0</ele><time>2026-04-04T14:23:09.998Z</time></trkpt><trkpt lat="45.57994762527851" lon="10.962072396436985"><ele>607.4</ele><time>2026-04-04T14:23:10.998Z</time></trkpt><trkpt lat="45.57987162101189" lon="10.961982302817567"><ele>605.8</ele><time>2026-04-04T14:23:11.998Z</time></trkpt><trkpt lat="45.579782515083565" lon="10.961944788206333"><ele>604.2</ele><time>2026-04-04T14:23:12.998Z</time></trkpt><trkpt lat="45.57968716773792" lon="10.961974549286634"><ele>602.6</ele><time>2026-04-04T14:23:14Z</time></trkpt><trkpt lat="45.57958229898362" lon="10.96203985088465"><ele>601.0</ele><time>2026-04-04T14:23:15Z</time></trkpt><trkpt lat="45.5794808939816" lon="10.962117581085886"><ele>599.5</ele><time>2026-04-04T14:23:16Z</time></trkpt><trkpt lat="45.57937829237159" lon="10.96221182013724"><ele>598.0</ele><time>2026-04-04T14:23:17Z</time></trkpt><trkpt lat="45.579268196412016" lon="10.96229623874659"><ele>596.5</ele><time>2026-04-04T14:23:18Z</time></trkpt><trkpt lat="45.57915526306891" lon="10.962383880311373"><ele>595.0</ele><time>2026-04-04T14:23:19Z</time></trkpt><trkpt lat="45.579043016300346" lon="10.962470974233932"><ele>593.5</ele><time>2026-04-04T14:23:20Z</time></trkpt><trkpt lat="45.57893175323411" lon="10.962559827930702"><ele>592.0</ele><time>2026-04-04T14:23:21Z</time></trkpt><trkpt lat="45.57882174381362" lon="10.962648733709356"><ele>590.5</ele><time>2026-04-04T14:23:22Z</time></trkpt><trkpt lat="45.57871380413291" lon="10.96274240113897"><ele>589.0</ele><time>2026-04-04T14:23:23Z</time></trkpt><trkpt lat="45.578609207316745" lon="10.962838800170946"><ele>589.0</ele><time>2026-04-04T14:23:24Z</time></trkpt><trkpt lat="45.57850904770106" lon="10.962942109746587"><ele>589.0</ele><time>2026-04-04T14:23:25Z</time></trkpt><trkpt lat="45.57840050326103" lon="10.96302823617353"><ele>589.0</ele><time>2026-04-04T14:23:26Z</time></trkpt><trkpt lat="45.57830847734275" lon="10.963155775687289"><ele>589.0</ele><time>2026-04-04T14:23:27Z</time></trkpt><trkpt lat="45.57822359198031" lon="10.963294524994721"><ele>591.0</ele><time>2026-04-04T14:23:28Z</time></trkpt><trkpt lat="45.5781395943531" lon="10.96343545926612"><ele>593.0</ele><time>2026-04-04T14:23:29Z</time></trkpt><trkpt lat="45.57805631464775" lon="10.9635751081906"><ele>595.0</ele><time>2026-04-04T14:23:30Z</time></trkpt><trkpt lat="45.57797471083872" lon="10.963710220584794"><ele>597.0</ele><time>2026-04-04T14:23:31Z</time></trkpt><trkpt lat="45.57789192240694" lon="10.963846189487896"><ele>593.25</ele><time>2026-04-04T14:23:32Z</time></trkpt><trkpt lat="45.5777675090044" lon="10.96390532139263"><ele>589.5</ele><time>2026-04-04T14:23:33Z</time></trkpt><trkpt lat="45.57764217741065" lon="10.963996546283198"><ele>585.75</ele><time>2026-04-04T14:23:34Z</time></trkpt><trkpt lat="45.57750682368644" lon="10.964049268879931"><ele>582.0</ele><time>2026-04-04T14:23:35Z</time></trkpt><trkpt lat="45.577378799388725" lon="10.964102816706985"><ele>582.0</ele><time>2026-04-04T14:23:36Z</time></trkpt><trkpt lat="45.577259089032154" lon="10.9641610944562"><ele>582.0</ele><time>2026-04-04T14:23:37Z</time></trkpt><trkpt lat="45.577140971990524" lon="10.96422038699194"><ele>582.0</ele><time>2026-04-04T14:23:38Z</time></trkpt><trkpt lat="45.577022186885586" lon="10.96429275826277"><ele>582.0</ele><time>2026-04-04T14:23:39Z</time></trkpt><trkpt lat="45.57690406698544" lon="10.96438856456914"><ele>580.25</ele><time>2026-04-04T14:23:40Z</time></trkpt><trkpt lat="45.57678909899224" lon="10.964506568725186"><ele>578.5</ele><time>2026-04-04T14:23:41Z</time></trkpt><trkpt lat="45.5766737280834" lon="10.964599934767081"><ele>576.75</ele><time>2026-04-04T14:23:42Z</time></trkpt><trkpt lat="45.57657504252598" lon="10.964704100880688"><ele>575.0</ele><time>2026-04-04T14:23:43Z</time></trkpt><trkpt lat="45.57648112496531" lon="10.964812985908544"><ele>575.0</ele><time>2026-04-04T14:23:44Z</time></trkpt><trkpt lat="45.57639306512707" lon="10.964934076771923"><ele>575.0</ele><time>2026-04-04T14:23:45Z</time></trkpt><trkpt lat="45.57631775769773" lon="10.965082226546812"><ele>575.0</ele><time>2026-04-04T14:23:46Z</time></trkpt><trkpt lat="45.57626298007537" lon="10.965239756013403"><ele>575.0</ele><time>2026-04-04T14:23:47Z</time></trkpt><trkpt lat="45.57623412678847" lon="10.965388051116845"><ele>575.6666666666666</ele><time>2026-04-04T14:23:48Z</time></trkpt><trkpt lat="45.57621745424354" lon="10.965499021360262"><ele>576.3333333333333</ele><time>2026-04-04T14:23:49Z</time></trkpt><trkpt lat="45.57619719436474" lon="10.965588684710003"><ele>577.0</ele><time>2026-04-04T14:23:50Z</time></trkpt><trkpt lat="45.576112062035556" lon="10.965657745346702"><ele>577.6666666666666</ele><time>2026-04-04T14:23:52Z</time></trkpt><trkpt lat="45.57604692118548" lon="10.965592812958883"><ele>578.3333333333334</ele><time>2026-04-04T14:23:53Z</time></trkpt><trkpt lat="45.57599259052561" lon="10.965506247041466"><ele>579.0</ele><time>2026-04-04T14:23:54Z</time></trkpt><trkpt lat="45.57594119207232" lon="10.96540203819079"><ele>580.4</ele><time>2026-04-04T14:23:55Z</time></trkpt><trkpt lat="45.57588138767747" lon="10.965285793325348"><ele>581.8</ele><time>2026-04-04T14:23:56Z</time></trkpt><trkpt lat="45.57580633349179" lon="10.965168956421964"><ele>583.2</ele><time>2026-04-04T14:23:56.999Z</time></trkpt><trkpt lat="45.57572253966906" lon="10.965047518188443"><ele>584.6</ele><time>2026-04-04T14:23:57.999Z</time></trkpt><trkpt lat="45.57564707032164" lon="10.964924794175806"><ele>586.0</ele><time>2026-04-04T14:23:58.999Z</time></trkpt><trkpt lat="45.57556885802723" lon="10.964814328234407"><ele>585.0</ele><time>2026-04-04T14:23:59.999Z</time></trkpt><trkpt lat="45.57548851756946" lon="10.964710306621768"><ele>584.0</ele><time>2026-04-04T14:24:00.999Z</time></trkpt><trkpt lat="45.57539262178851" lon="10.964623135398067"><ele>583.0</ele><time>2026-04-04T14:24:01.999Z</time></trkpt><trkpt lat="45.57528293318" lon="10.964567621176895"><ele>582.0</ele><time>2026-04-04T14:24:02.999Z</time></trkpt><trkpt lat="45.575167824907346" lon="10.964522020683019"><ele>582.0</ele><time>2026-04-04T14:24:03.999Z</time></trkpt><trkpt lat="45.57505833614001" lon="10.964458193654584"><ele>582.0</ele><time>2026-04-04T14:24:04.999Z</time></trkpt><trkpt lat="45.574951915949754" lon="10.964382368880893"><ele>582.0</ele><time>2026-04-04T14:24:05.999Z</time></trkpt><trkpt lat="45.57484146967054" lon="10.964294190053328"><ele>582.0</ele><time>2026-04-04T14:24:06.999Z</time></trkpt><trkpt lat="45.574753687618944" lon="10.964189520055228"><ele>576.8000000000001</ele><time>2026-04-04T14:24:07.999Z</time></trkpt><trkpt lat="45.57468411446912" lon="10.964087650032592"><ele>571.6</ele><time>2026-04-04T14:24:08.999Z</time></trkpt><trkpt lat="45.57463343677011" lon="10.963963533979728"><ele>566.4000000000001</ele><time>2026-04-04T14:24:09.999Z</time></trkpt><trkpt lat="45.574598527547835" lon="10.963811099477983"><ele>561.2</ele><time>2026-04-04T14:24:10.999Z</time></trkpt><trkpt lat="45.57457503402486" lon="10.96363206142475"><ele>556.0</ele><time>2026-04-04T14:24:11.999Z</time></trkpt><trkpt lat="45.5745250152224" lon="10.963449042592659"><ele>560.3333333333334</ele><time>2026-04-04T14:24:12.999Z</time></trkpt><trkpt lat="45.57444391965325" lon="10.963266430559228"><ele>564.6666666666666</ele><time>2026-04-04T14:24:13.999Z</time></trkpt><trkpt lat="45.574342530763424" lon="10.96309388013446"><ele>569.0</ele><time>2026-04-04T14:24:14.999Z</time></trkpt><trkpt lat="45.574234147765665" lon="10.962929885190311"><ele>569.0</ele><time>2026-04-04T14:24:15.999Z</time></trkpt><trkpt lat="45.574153759817754" lon="10.962766454138052"><ele>569.0</ele><time>2026-04-04T14:24:16.999Z</time></trkpt><trkpt lat="45.57409676938046" lon="10.962576867562941"><ele>569.0</ele><time>2026-04-04T14:24:17.999Z</time></trkpt><trkpt lat="45.574056528646864" lon="10.962375664396797"><ele>569.0</ele><time>2026-04-04T14:24:18.999Z</time></trkpt><trkpt lat="45.57401860825609" lon="10.962172581570966"><ele>561.3333333333333</ele><time>2026-04-04T14:24:19.999Z</time></trkpt><trkpt lat="45.57397163565139" lon="10.96196922708034"><ele>553.6666666666666</ele><time>2026-04-04T14:24:20.999Z</time></trkpt><trkpt lat="45.57390988116349" lon="10.961751226429792"><ele>546.0</ele><time>2026-04-04T14:24:21.999Z</time></trkpt><trkpt lat="45.573818936888046" lon="10.961494373372329"><ele>538.0</ele><time>2026-04-04T14:24:22.999Z</time></trkpt><trkpt lat="45.57370659265273" lon="10.961198549285038"><ele>530.0</ele><time>2026-04-04T14:24:23.999Z</time></trkpt><trkpt lat="45.573609533913555" lon="10.960919147025775"><ele>537.3333333333333</ele><time>2026-04-04T14:24:24.999Z</time></trkpt><trkpt lat="45.57352719316368" lon="10.960681543212116"><ele>544.6666666666666</ele><time>2026-04-04T14:24:25.999Z</time></trkpt><trkpt lat="45.57345548843915" lon="10.96044410281067"><ele>552.0</ele><time>2026-04-04T14:24:26.999Z</time></trkpt><trkpt lat="45.573373098872985" lon="10.960211159324977"><ele>545.0</ele><time>2026-04-04T14:24:27.999Z</time></trkpt><trkpt lat="45.573295921393445" lon="10.959988314674938"><ele>538.0</ele><time>2026-04-04T14:24:28.999Z</time></trkpt><trkpt lat="45.57321420762977" lon="10.959775415999214"><ele>531.0</ele><time>2026-04-04T14:24:29.999Z</time></trkpt><trkpt lat="45.57314071188826" lon="10.959569208978303"><ele>531.0</ele><time>2026-04-04T14:24:30.999Z</time></trkpt><trkpt lat="45.57306564715684" lon="10.959366729680932"><ele>531.0</ele><time>2026-04-04T14:24:31.999Z</time></trkpt><trkpt lat="45.57300119192386" lon="10.959168901210463"><ele>531.0</ele><time>2026-04-04T14:24:32.999Z</time></trkpt><trkpt lat="45.57293515339391" lon="10.958984868202814"><ele>528.75</ele><time>2026-04-04T14:24:33.999Z</time></trkpt><trkpt lat="45.57286522697184" lon="10.958812969239945"><ele>526.5</ele><time>2026-04-04T14:24:34.999Z</time></trkpt><trkpt lat="45.57279539474136" lon="10.958652173317331"><ele>524.25</ele><time>2026-04-04T14:24:35.999Z</time></trkpt><trkpt lat="45.57272086719126" lon="10.958499398852513"><ele>522.0</ele><time>2026-04-04T14:24:36.999Z</time></trkpt><trkpt lat="45.57262692002772" lon="10.95835081179377"><ele>522.0</ele><time>2026-04-04T14:24:37.999Z</time></trkpt><trkpt lat="45.57251713462724" lon="10.958211310561667"><ele>522.0</ele><time>2026-04-04T14:24:38.999Z</time></trkpt><trkpt lat="45.5723846481392" lon="10.9580909133795"><ele>522.0</ele><time>2026-04-04T14:24:39.999Z</time></trkpt><trkpt lat="45.572242178908304" lon="10.957989809235787"><ele>522.0</ele><time>2026-04-04T14:24:40.999Z</time></trkpt><trkpt lat="45.57209481166771" lon="10.957901339840486"><ele>522.0</ele><time>2026-04-04T14:24:41.999Z</time></trkpt><trkpt lat="45.57195561494517" lon="10.957812783279655"><ele>522.0</ele><time>2026-04-04T14:24:42.999Z</time></trkpt><trkpt lat="45.57182971649365" lon="10.957727553903037"><ele>524.25</ele><time>2026-04-04T14:24:43.999Z</time></trkpt><trkpt lat="45.57170416398181" lon="10.95764969565312"><ele>526.5</ele><time>2026-04-04T14:24:44.999Z</time></trkpt><trkpt lat="45.571573912978785" lon="10.95756973836591"><ele>528.75</ele><time>2026-04-04T14:24:45.999Z</time></trkpt><trkpt lat="45.571453639482364" lon="10.957493654226594"><ele>531.0</ele><time>2026-04-04T14:24:46.999Z</time></trkpt><trkpt lat="45.571346246171544" lon="10.957415878952439"><ele>528.75</ele><time>2026-04-04T14:24:47.999Z</time></trkpt><trkpt lat="45.57125074484207" lon="10.957321392248776"><ele>526.5</ele><time>2026-04-04T14:24:48.999Z</time></trkpt><trkpt lat="45.571168653352245" lon="10.957208220280902"><ele>524.25</ele><time>2026-04-04T14:24:49.999Z</time></trkpt><trkpt lat="45.57108973724345" lon="10.957067132876075"><ele>522.0</ele><time>2026-04-04T14:24:50.999Z</time></trkpt><trkpt lat="45.571009226943644" lon="10.956914636357268"><ele>522.0</ele><time>2026-04-04T14:24:51.999Z</time></trkpt><trkpt lat="45.57091801938078" lon="10.956786065448009"><ele>522.0</ele><time>2026-04-04T14:24:52.999Z</time></trkpt><trkpt lat="45.570822212204185" lon="10.956680154314764"><ele>522.0</ele><time>2026-04-04T14:24:53.999Z</time></trkpt><trkpt lat="45.570724091134736" lon="10.956585550186965"><ele>522.0</ele><time>2026-04-04T14:24:54.998Z</time></trkpt><trkpt lat="45.57062698272666" lon="10.956499266491837"><ele>518.5</ele><time>2026-04-04T14:24:55.998Z</time></trkpt><trkpt lat="45.57052651719278" lon="10.956429434202544"><ele>515.0</ele><time>2026-04-04T14:24:56.998Z</time></trkpt><trkpt lat="45.57041516397345" lon="10.95638386034219"><ele>511.5</ele><time>2026-04-04T14:24:57.998Z</time></trkpt><trkpt lat="45.570298335858666" lon="10.956371710757631"><ele>508.0</ele><time>2026-04-04T14:24:58.998Z</time></trkpt><trkpt lat="45.57018087061367" lon="10.95637866649727"><ele>507.59999999999997</ele><time>2026-04-04T14:24:59.998Z</time></trkpt><trkpt lat="45.57007178324895" lon="10.956385920175348"><ele>507.19999999999993</ele><time>2026-04-04T14:25:00.998Z</time></trkpt><trkpt lat="45.569965115658086" lon="10.956394554298287"><ele>506.8</ele><time>2026-04-04T14:25:01.998Z</time></trkpt><trkpt lat="45.569853872307306" lon="10.956403920704448"><ele>506.4</ele><time>2026-04-04T14:25:02.998Z</time></trkpt><trkpt lat="45.569744344606406" lon="10.956416902518294"><ele>506.0</ele><time>2026-04-04T14:25:03.998Z</time></trkpt><trkpt lat="45.56963583039313" lon="10.95644279390332"><ele>506.5</ele><time>2026-04-04T14:25:04.998Z</time></trkpt><trkpt lat="45.56952313041456" lon="10.956501983213714"><ele>507.0</ele><time>2026-04-04T14:25:05.998Z</time></trkpt><trkpt lat="45.569412511477225" lon="10.95655138841052"><ele>507.5</ele><time>2026-04-04T14:25:06.998Z</time></trkpt><trkpt lat="45.56931957567189" lon="10.956628010065918"><ele>508.0</ele><time>2026-04-04T14:25:07.998Z</time></trkpt><trkpt lat="45.5692271507895" lon="10.956711263883959"><ele>508.0</ele><time>2026-04-04T14:25:08.998Z</time></trkpt><trkpt lat="45.569134348094614" lon="10.956801446703787"><ele>508.0</ele><time>2026-04-04T14:25:09.998Z</time></trkpt><trkpt lat="45.569045035385194" lon="10.956917489340169"><ele>508.0</ele><time>2026-04-04T14:25:10.998Z</time></trkpt><trkpt lat="45.568971435431415" lon="10.957044226167405"><ele>508.0</ele><time>2026-04-04T14:25:11.998Z</time></trkpt><trkpt lat="45.568898066365165" lon="10.95716716110814"><ele>508.0</ele><time>2026-04-04T14:25:12.998Z</time></trkpt><trkpt lat="45.56882653696489" lon="10.957278255216957"><ele>507.99999999999994</ele><time>2026-04-04T14:25:13.998Z</time></trkpt><trkpt lat="45.56875167667771" lon="10.957373950167122"><ele>507.99999999999994</ele><time>2026-04-04T14:25:14.998Z</time></trkpt><trkpt lat="45.568676769585124" lon="10.957466811447315"><ele>508.0</ele><time>2026-04-04T14:25:15.998Z</time></trkpt><trkpt lat="45.568619145926796" lon="10.957569383086438"><ele>508.0</ele><time>2026-04-04T14:25:16.998Z</time></trkpt><trkpt lat="45.56854765845183" lon="10.957648021682308"><ele>503.75</ele><time>2026-04-04T14:25:17.998Z</time></trkpt><trkpt lat="45.568508074533135" lon="10.957784721420373"><ele>499.5</ele><time>2026-04-04T14:25:18.998Z</time></trkpt><trkpt lat="45.56850632015782" lon="10.957943793129626"><ele>495.25</ele><time>2026-04-04T14:25:20Z</time></trkpt><trkpt lat="45.5685254152095" lon="10.958163864574004"><ele>491.0</ele><time>2026-04-04T14:25:21Z</time></trkpt><trkpt lat="45.56854712261656" lon="10.958439614983531"><ele>488.0</ele><time>2026-04-04T14:25:22Z</time></trkpt><trkpt lat="45.568568804998954" lon="10.958727484291108"><ele>485.0</ele><time>2026-04-04T14:25:23Z</time></trkpt><trkpt lat="45.568591349427855" lon="10.95902679542819"><ele>482.0</ele><time>2026-04-04T14:25:24Z</time></trkpt><trkpt lat="45.56861490585627" lon="10.95933710983353"><ele>481.3333333333333</ele><time>2026-04-04T14:25:25Z</time></trkpt><trkpt lat="45.56863919525228" lon="10.959617181105358"><ele>480.66666666666663</ele><time>2026-04-04T14:25:26Z</time></trkpt><trkpt lat="45.56866382901459" lon="10.959869616864856"><ele>480.0</ele><time>2026-04-04T14:25:27Z</time></trkpt><trkpt lat="45.56868803759721" lon="10.960103650630604"><ele>488.75</ele><time>2026-04-04T14:25:28Z</time></trkpt><trkpt lat="45.56871012890778" lon="10.960310397423468"><ele>497.5</ele><time>2026-04-04T14:25:29Z</time></trkpt><trkpt lat="45.56873693981937" lon="10.960505797032273"><ele>506.25</ele><time>2026-04-04T14:25:30Z</time></trkpt><trkpt lat="45.56875724337562" lon="10.960673136862113"><ele>515.0</ele><time>2026-04-04T14:25:31Z</time></trkpt><trkpt lat="45.568753897784994" lon="10.960823053160023"><ele>511.75</ele><time>2026-04-04T14:25:32Z</time></trkpt><trkpt lat="45.5687063761568" lon="10.9609471279999"><ele>508.5</ele><time>2026-04-04T14:25:33Z</time></trkpt><trkpt lat="45.568619517332046" lon="10.961061911848741"><ele>505.25</ele><time>2026-04-04T14:25:34Z</time></trkpt><trkpt lat="45.568507355201334" lon="10.961161016885983"><ele>502.0</ele><time>2026-04-04T14:25:35Z</time></trkpt><trkpt lat="45.56838703001468" lon="10.961264078816926"><ele>502.0</ele><time>2026-04-04T14:25:36Z</time></trkpt><trkpt lat="45.5682503949959" lon="10.961321031494744"><ele>502.0</ele><time>2026-04-04T14:25:37Z</time></trkpt><trkpt lat="45.56811854269055" lon="10.961323433587356"><ele>502.0</ele><time>2026-04-04T14:25:38Z</time></trkpt><trkpt lat="45.56800083265151" lon="10.961261444297888"><ele>502.0</ele><time>2026-04-04T14:25:39Z</time></trkpt><trkpt lat="45.56789176707976" lon="10.961139645334429"><ele>507.33333333333337</ele><time>2026-04-04T14:25:40Z</time></trkpt><trkpt lat="45.56778597980668" lon="10.960947682531037"><ele>512.6666666666666</ele><time>2026-04-04T14:25:41Z</time></trkpt><trkpt lat="45.567674021903215" lon="10.960783472825247"><ele>518.0</ele><time>2026-04-04T14:25:42Z</time></trkpt><trkpt lat="45.56754885011627" lon="10.960658533524306"><ele>507.3333333333333</ele><time>2026-04-04T14:25:43Z</time></trkpt><trkpt lat="45.567389878142315" lon="10.96055999096873"><ele>496.66666666666663</ele><time>2026-04-04T14:25:44Z</time></trkpt><trkpt lat="45.56721663721241" lon="10.960504006629092"><ele>486.0</ele><time>2026-04-04T14:25:45Z</time></trkpt><trkpt lat="45.5670336009951" lon="10.960433029341358"><ele>483.33333333333337</ele><time>2026-04-04T14:25:46Z</time></trkpt><trkpt lat="45.566860833199726" lon="10.96027981472229"><ele>480.6666666666667</ele><time>2026-04-04T14:25:47Z</time></trkpt><trkpt lat="45.5667010802411" lon="10.960128556311432"><ele>478.0</ele><time>2026-04-04T14:25:48Z</time></trkpt><trkpt lat="45.566556610510474" lon="10.959996628632988"><ele>478.0</ele><time>2026-04-04T14:25:49Z</time></trkpt><trkpt lat="45.56640611039425" lon="10.959897294522673"><ele>478.0</ele><time>2026-04-04T14:25:50Z</time></trkpt><trkpt lat="45.566245823559996" lon="10.959836771235693"><ele>478.0</ele><time>2026-04-04T14:25:51Z</time></trkpt><trkpt lat="45.56608318611884" lon="10.959783495967024"><ele>482.0</ele><time>2026-04-04T14:25:52Z</time></trkpt><trkpt lat="45.565922714407336" lon="10.959685211223345"><ele>486.0</ele><time>2026-04-04T14:25:53Z</time></trkpt><trkpt lat="45.56576337928417" lon="10.959533755765563"><ele>490.0</ele><time>2026-04-04T14:25:54Z</time></trkpt><trkpt lat="45.56561433054328" lon="10.959370712294978"><ele>490.0</ele><time>2026-04-04T14:25:55Z</time></trkpt><trkpt lat="45.565475302564444" lon="10.95920483222059"><ele>490.0</ele><time>2026-04-04T14:25:56Z</time></trkpt><trkpt lat="45.56533199262985" lon="10.959037390751329"><ele>490.0</ele><time>2026-04-04T14:25:57Z</time></trkpt><trkpt lat="45.56519036375623" lon="10.958867363100962"><ele>488.6666666666667</ele><time>2026-04-04T14:25:58Z</time></trkpt><trkpt lat="45.56505165935041" lon="10.95869122768086"><ele>487.33333333333337</ele><time>2026-04-04T14:25:59Z</time></trkpt><trkpt lat="45.564915444752174" lon="10.958506667878003"><ele>486.0</ele><time>2026-04-04T14:26:00Z</time></trkpt><trkpt lat="45.56478795529301" lon="10.95830848445125"><ele>480.0</ele><time>2026-04-04T14:26:01Z</time></trkpt><trkpt lat="45.564680192572766" lon="10.958088403426455"><ele>474.0</ele><time>2026-04-04T14:26:02Z</time></trkpt><trkpt lat="45.5646020694874" lon="10.95786592427909"><ele>468.0</ele><time>2026-04-04T14:26:03Z</time></trkpt><trkpt lat="45.564541322164004" lon="10.957659987227421"><ele>472.0</ele><time>2026-04-04T14:26:04Z</time></trkpt><trkpt lat="45.564476539118786" lon="10.957470468744628"><ele>476.0</ele><time>2026-04-04T14:26:04.999Z</time></trkpt><trkpt lat="45.5643859945239" lon="10.957285174530176"><ele>480.0</ele><time>2026-04-04T14:26:05.999Z</time></trkpt><trkpt lat="45.56426791649771" lon="10.957124850007343"><ele>480.0</ele><time>2026-04-04T14:26:06.999Z</time></trkpt><trkpt lat="45.564128733112824" lon="10.956999705382605"><ele>480.0</ele><time>2026-04-04T14:26:07.999Z</time></trkpt><trkpt lat="45.56398373503722" lon="10.95689711644738"><ele>480.0</ele><time>2026-04-04T14:26:08.999Z</time></trkpt><trkpt lat="45.5638460645368" lon="10.95679664879053"><ele>479.5</ele><time>2026-04-04T14:26:09.999Z</time></trkpt><trkpt lat="45.563714935051834" lon="10.956702021220677"><ele>479.0</ele><time>2026-04-04T14:26:10.999Z</time></trkpt><trkpt lat="45.56359895167815" lon="10.956616042983397"><ele>478.5</ele><time>2026-04-04T14:26:11.999Z</time></trkpt><trkpt lat="45.56348796005289" lon="10.95652740122607"><ele>478.0</ele><time>2026-04-04T14:26:12.999Z</time></trkpt><trkpt lat="45.56337142491541" lon="10.95643793654311"><ele>478.0</ele><time>2026-04-04T14:26:13.999Z</time></trkpt><trkpt lat="45.56325080073172" lon="10.956345687372275"><ele>478.0</ele><time>2026-04-04T14:26:14.999Z</time></trkpt><trkpt lat="45.56313081330016" lon="10.95625508788738"><ele>478.0</ele><time>2026-04-04T14:26:15.999Z</time></trkpt><trkpt lat="45.5630245579266" lon="10.956170048282942"><ele>478.0</ele><time>2026-04-04T14:26:16.999Z</time></trkpt><trkpt lat="45.56292984912947" lon="10.956084182208702"><ele>477.79999999999995</ele><time>2026-04-04T14:26:17.999Z</time></trkpt><trkpt lat="45.56283471276806" lon="10.955998676148159"><ele>477.59999999999997</ele><time>2026-04-04T14:26:18.999Z</time></trkpt><trkpt lat="45.56274027944568" lon="10.95591254933987"><ele>477.40000000000003</ele><time>2026-04-04T14:26:19.999Z</time></trkpt><trkpt lat="45.56265111777156" lon="10.95584518824343"><ele>477.20000000000005</ele><time>2026-04-04T14:26:20.999Z</time></trkpt><trkpt lat="45.562564916813265" lon="10.955817100796153"><ele>477.0</ele><time>2026-04-04T14:26:21.999Z</time></trkpt><trkpt lat="45.56248543677482" lon="10.95584091858026"><ele>476.20000000000005</ele><time>2026-04-04T14:26:22.999Z</time></trkpt><trkpt lat="45.56240975204567" lon="10.955882391352405"><ele>475.40000000000003</ele><time>2026-04-04T14:26:23.999Z</time></trkpt><trkpt lat="45.56236129795479" lon="10.956005305492349"><ele>474.59999999999997</ele><time>2026-04-04T14:26:24.999Z</time></trkpt><trkpt lat="45.5623767930194" lon="10.956193273446393"><ele>473.79999999999995</ele><time>2026-04-04T14:26:25.999Z</time></trkpt><trkpt lat="45.562385890751656" lon="10.956377153684697"><ele>473.0</ele><time>2026-04-04T14:26:26.999Z</time></trkpt><trkpt lat="45.56240262793244" lon="10.956576630139482"><ele>470.3333333333333</ele><time>2026-04-04T14:26:27.999Z</time></trkpt><trkpt lat="45.562435195463976" lon="10.956805864840936"><ele>467.66666666666663</ele><time>2026-04-04T14:26:28.999Z</time></trkpt><trkpt lat="45.56248513913424" lon="10.957045573614343"><ele>465.0</ele><time>2026-04-04T14:26:29.999Z</time></trkpt><trkpt lat="45.56254308957489" lon="10.95727819042613"><ele>465.0</ele><time>2026-04-04T14:26:30.999Z</time></trkpt><trkpt lat="45.56260393515532" lon="10.957508549821862"><ele>465.0</ele><time>2026-04-04T14:26:31.999Z</time></trkpt><trkpt lat="45.56266371418525" lon="10.957731898011783"><ele>465.0</ele><time>2026-04-04T14:26:32.999Z</time></trkpt><trkpt lat="45.56272129841758" lon="10.957949268593543"><ele>462.33333333333337</ele><time>2026-04-04T14:26:33.999Z</time></trkpt><trkpt lat="45.56277471730813" lon="10.958165994272443"><ele>459.6666666666667</ele><time>2026-04-04T14:26:34.999Z</time></trkpt><trkpt lat="45.56281363080928" lon="10.958370151505392"><ele>457.0</ele><time>2026-04-04T14:26:35.999Z</time></trkpt><trkpt lat="45.56284177920879" lon="10.958576892214804"><ele>457.0</ele><time>2026-04-04T14:26:36.999Z</time></trkpt><trkpt lat="45.56285178882776" lon="10.958762279376488"><ele>457.00000000000006</ele><time>2026-04-04T14:26:37.999Z</time></trkpt><trkpt lat="45.56284372319365" lon="10.95891068360321"><ele>457.00000000000006</ele><time>2026-04-04T14:26:38.999Z</time></trkpt><trkpt lat="45.56280913079139" lon="10.959033145373512"><ele>457.0</ele><time>2026-04-04T14:26:39.999Z</time></trkpt><trkpt lat="45.56275094833255" lon="10.959132871485915"><ele>457.0</ele><time>2026-04-04T14:26:40.999Z</time></trkpt><trkpt lat="45.56267370674799" lon="10.959223163502784"><ele>457.0</ele><time>2026-04-04T14:26:41.999Z</time></trkpt><trkpt lat="45.56255505337381" lon="10.959235496415692"><ele>457.0</ele><time>2026-04-04T14:26:42.999Z</time></trkpt><trkpt lat="45.562434237867755" lon="10.959186133650213"><ele>457.0</ele><time>2026-04-04T14:26:43.999Z</time></trkpt><trkpt lat="45.562318737286375" lon="10.959076601448016"><ele>457.0</ele><time>2026-04-04T14:26:44.999Z</time></trkpt><trkpt lat="45.56219783292345" lon="10.958921419760703"><ele>457.0</ele><time>2026-04-04T14:26:45.999Z</time></trkpt><trkpt lat="45.56207693422439" lon="10.958756658402532"><ele>457.0</ele><time>2026-04-04T14:26:46.999Z</time></trkpt><trkpt lat="45.56195096951631" lon="10.958599999299718"><ele>457.0</ele><time>2026-04-04T14:26:47.999Z</time></trkpt><trkpt lat="45.5618274225721" lon="10.958436719594449"><ele>454.0</ele><time>2026-04-04T14:26:48.999Z</time></trkpt><trkpt lat="45.56169784660811" lon="10.958269898497493"><ele>451.0</ele><time>2026-04-04T14:26:49.999Z</time></trkpt><trkpt lat="45.561565147344446" lon="10.958100585504688"><ele>448.0</ele><time>2026-04-04T14:26:50.999Z</time></trkpt><trkpt lat="45.561435776694275" lon="10.957925753033749"><ele>448.0</ele><time>2026-04-04T14:26:51.999Z</time></trkpt><trkpt lat="45.561301488977854" lon="10.957751420007789"><ele>448.0</ele><time>2026-04-04T14:26:52.999Z</time></trkpt><trkpt lat="45.56116378399285" lon="10.957578703337346"><ele>448.0</ele><time>2026-04-04T14:26:53.999Z</time></trkpt><trkpt lat="45.56102858509304" lon="10.957410351976705"><ele>444.0</ele><time>2026-04-04T14:26:54.999Z</time></trkpt><trkpt lat="45.56089912098588" lon="10.957240722815392"><ele>440.0</ele><time>2026-04-04T14:26:55.999Z</time></trkpt><trkpt lat="45.56076830049958" lon="10.957064882681976"><ele>436.0</ele><time>2026-04-04T14:26:56.999Z</time></trkpt><trkpt lat="45.56063929569392" lon="10.956873092574451"><ele>435.6666666666667</ele><time>2026-04-04T14:26:57.999Z</time></trkpt><trkpt lat="45.560529239693764" lon="10.956654018393113"><ele>435.33333333333337</ele><time>2026-04-04T14:26:58.999Z</time></trkpt><trkpt lat="45.5604458728425" lon="10.956413162668266"><ele>435.0</ele><time>2026-04-04T14:26:59.999Z</time></trkpt><trkpt lat="45.560359999749416" lon="10.956193903774373"><ele>432.33333333333337</ele><time>2026-04-04T14:27:00.999Z</time></trkpt><trkpt lat="45.56024302295671" lon="10.955998429072071"><ele>429.6666666666667</ele><time>2026-04-04T14:27:01.998Z</time></trkpt><trkpt lat="45.56008994338413" lon="10.955830175175779"><ele>427.0</ele><time>2026-04-04T14:27:02.998Z</time></trkpt><trkpt lat="45.559911651971085" lon="10.955683258120818"><ele>427.0</ele><time>2026-04-04T14:27:03.998Z</time></trkpt><trkpt lat="45.55973871482501" lon="10.95552028224409"><ele>427.0</ele><time>2026-04-04T14:27:04.998Z</time></trkpt><trkpt lat="45.559569680219944" lon="10.955357049057602"><ele>427.0</ele><time>2026-04-04T14:27:05.998Z</time></trkpt><trkpt lat="45.55940576115058" lon="10.95518885889447"><ele>422.6666666666667</ele><time>2026-04-04T14:27:06.998Z</time></trkpt><trkpt lat="45.559245766319634" lon="10.955009837767182"><ele>418.33333333333337</ele><time>2026-04-04T14:27:07.998Z</time></trkpt><trkpt lat="45.55909513354271" lon="10.95480725302682"><ele>414.0</ele><time>2026-04-04T14:27:08.998Z</time></trkpt><trkpt lat="45.55895706009653" lon="10.954610663792359"><ele>414.0</ele><time>2026-04-04T14:27:09.998Z</time></trkpt><trkpt lat="45.558823871099335" lon="10.95442521443496"><ele>414.0</ele><time>2026-04-04T14:27:10.998Z</time></trkpt><trkpt lat="45.558699762892246" lon="10.954242880208323"><ele>414.0</ele><time>2026-04-04T14:27:11.998Z</time></trkpt><trkpt lat="45.558587229687895" lon="10.954057551672275"><ele>407.0</ele><time>2026-04-04T14:27:12.998Z</time></trkpt><trkpt lat="45.558505340857835" lon="10.953856848431839"><ele>400.0</ele><time>2026-04-04T14:27:13.998Z</time></trkpt><trkpt lat="45.55845811158764" lon="10.953646963564283"><ele>393.0</ele><time>2026-04-04T14:27:14.998Z</time></trkpt><trkpt lat="45.55841959339141" lon="10.95344806502231"><ele>394.75</ele><time>2026-04-04T14:27:15.998Z</time></trkpt><trkpt lat="45.55835395524938" lon="10.953272908627435"><ele>396.5</ele><time>2026-04-04T14:27:16.998Z</time></trkpt><trkpt lat="45.55825521831091" lon="10.95313524177344"><ele>398.25</ele><time>2026-04-04T14:27:17.998Z</time></trkpt><trkpt lat="45.558137589120534" lon="10.953022569215817"><ele>400.0</ele><time>2026-04-04T14:27:18.998Z</time></trkpt><trkpt lat="45.5580332097151" lon="10.952887283490952"><ele>400.0</ele><time>2026-04-04T14:27:19.998Z</time></trkpt><trkpt lat="45.55795256987132" lon="10.952697316872035"><ele>400.0</ele><time>2026-04-04T14:27:20.998Z</time></trkpt><trkpt lat="45.55791843599758" lon="10.952438798256622"><ele>400.0</ele><time>2026-04-04T14:27:21.998Z</time></trkpt><trkpt lat="45.557900567822394" lon="10.95217496703241"><ele>395.33333333333337</ele><time>2026-04-04T14:27:22.998Z</time></trkpt><trkpt lat="45.5578627547107" lon="10.951919409200668"><ele>390.66666666666663</ele><time>2026-04-04T14:27:23.998Z</time></trkpt><trkpt lat="45.557786987131934" lon="10.951683110177097"><ele>386.0</ele><time>2026-04-04T14:27:24.998Z</time></trkpt><trkpt lat="45.55771779829948" lon="10.951456986531237"><ele>386.0</ele><time>2026-04-04T14:27:26Z</time></trkpt><trkpt lat="45.55765667801189" lon="10.951238271584984"><ele>386.0</ele><time>2026-04-04T14:27:27Z</time></trkpt><trkpt lat="45.55759687896963" lon="10.951046171651981"><ele>386.0</ele><time>2026-04-04T14:27:28Z</time></trkpt><trkpt lat="45.557557372999675" lon="10.950873011570312"><ele>386.0</ele><time>2026-04-04T14:27:29Z</time></trkpt><trkpt lat="45.55753935376576" lon="10.95070070361916"><ele>384.6</ele><time>2026-04-04T14:27:30Z</time></trkpt><trkpt lat="45.55756214740652" lon="10.950537498984074"><ele>383.20000000000005</ele><time>2026-04-04T14:27:31Z</time></trkpt><trkpt lat="45.5576123584582" lon="10.950393205726186"><ele>381.79999999999995</ele><time>2026-04-04T14:27:32Z</time></trkpt><trkpt lat="45.557643325181246" lon="10.95026933216741"><ele>380.4</ele><time>2026-04-04T14:27:33Z</time></trkpt><trkpt lat="45.55762622828931" lon="10.950138395565036"><ele>379.0</ele><time>2026-04-04T14:27:34Z</time></trkpt><trkpt lat="45.5575690426038" lon="10.950036388344728"><ele>379.0</ele><time>2026-04-04T14:27:35Z</time></trkpt><trkpt lat="45.55746338850903" lon="10.949983670959796"><ele>379.0</ele><time>2026-04-04T14:27:36Z</time></trkpt><trkpt lat="45.55732034809407" lon="10.95000386036778"><ele>379.0</ele><time>2026-04-04T14:27:37Z</time></trkpt><trkpt lat="45.557157791401245" lon="10.95005772777077"><ele>379.0</ele><time>2026-04-04T14:27:38Z</time></trkpt><trkpt lat="45.55698981729658" lon="10.950113883602192"><ele>375.0</ele><time>2026-04-04T14:27:39Z</time></trkpt><trkpt lat="45.55680898022466" lon="10.950175880945505"><ele>371.0</ele><time>2026-04-04T14:27:40Z</time></trkpt><trkpt lat="45.556624290214245" lon="10.950243587575397"><ele>367.0</ele><time>2026-04-04T14:27:41Z</time></trkpt><trkpt lat="45.556442255122334" lon="10.950314890879085"><ele>367.0</ele><time>2026-04-04T14:27:42Z</time></trkpt><trkpt lat="45.55627133943149" lon="10.950386403186464"><ele>367.0</ele><time>2026-04-04T14:27:43Z</time></trkpt><trkpt lat="45.55610680982369" lon="10.950448654792549"><ele>367.0</ele><time>2026-04-04T14:27:44Z</time></trkpt><trkpt lat="45.555948157741476" lon="10.95049323476583"><ele>359.3333333333333</ele><time>2026-04-04T14:27:45Z</time></trkpt><trkpt lat="45.555789612213026" lon="10.950511316668184"><ele>351.6666666666667</ele><time>2026-04-04T14:27:46Z</time></trkpt><trkpt lat="45.55563007613125" lon="10.950472699188216"><ele>344.0</ele><time>2026-04-04T14:27:47Z</time></trkpt><trkpt lat="45.55546918155129" lon="10.950386178489621"><ele>342.33333333333337</ele><time>2026-04-04T14:27:48Z</time></trkpt><trkpt lat="45.55531500020382" lon="10.950268716312356"><ele>340.6666666666667</ele><time>2026-04-04T14:27:49Z</time></trkpt><trkpt lat="45.55518447312725" lon="10.950131211906141"><ele>339.0</ele><time>2026-04-04T14:27:50Z</time></trkpt><trkpt lat="45.55507047012551" lon="10.949982393019797"><ele>339.0</ele><time>2026-04-04T14:27:51Z</time></trkpt><trkpt lat="45.55496252973726" lon="10.949828626782747"><ele>339.0</ele><time>2026-04-04T14:27:52Z</time></trkpt><trkpt lat="45.55485608699256" lon="10.949661983674563"><ele>339.0</ele><time>2026-04-04T14:27:53Z</time></trkpt><trkpt lat="45.55475179384897" lon="10.949481670009051"><ele>339.0</ele><time>2026-04-04T14:27:54Z</time></trkpt><trkpt lat="45.55464986245833" lon="10.949302102918162"><ele>339.0</ele><time>2026-04-04T14:27:55Z</time></trkpt><trkpt lat="45.5545521281519" lon="10.949133155413966"><ele>339.0</ele><time>2026-04-04T14:27:56Z</time></trkpt><trkpt lat="45.55445806839702" lon="10.94896943391754"><ele>339.0</ele><time>2026-04-04T14:27:57Z</time></trkpt><trkpt lat="45.55436968406167" lon="10.948810788748736"><ele>339.0</ele><time>2026-04-04T14:27:58Z</time></trkpt><trkpt lat="45.554276676038" lon="10.948669195770304"><ele>339.0</ele><time>2026-04-04T14:27:59Z</time></trkpt><trkpt lat="45.554170345421994" lon="10.948542988530082"><ele>339.0</ele><time>2026-04-04T14:28:00Z</time></trkpt><trkpt lat="45.55405871592676" lon="10.948424923204847"><ele>338.25</ele><time>2026-04-04T14:28:01Z</time></trkpt><trkpt lat="45.5539493196986" lon="10.948301546986594"><ele>337.5</ele><time>2026-04-04T14:28:02Z</time></trkpt><trkpt lat="45.5538397409129" lon="10.948180075758401"><ele>336.75</ele><time>2026-04-04T14:28:03Z</time></trkpt><trkpt lat="45.55372885810934" lon="10.948064162235553"><ele>336.0</ele><time>2026-04-04T14:28:04Z</time></trkpt><trkpt lat="45.55361143784137" lon="10.947960432887806"><ele>336.0</ele><time>2026-04-04T14:28:05Z</time></trkpt><trkpt lat="45.55349053072339" lon="10.947868153267043"><ele>336.0</ele><time>2026-04-04T14:28:06Z</time></trkpt><trkpt lat="45.55336220403562" lon="10.947786612377497"><ele>336.0</ele><time>2026-04-04T14:28:07Z</time></trkpt><trkpt lat="45.553232247087294" lon="10.947698485049001"><ele>336.0</ele><time>2026-04-04T14:28:08Z</time></trkpt><trkpt lat="45.55310591358808" lon="10.947616376205103"><ele>336.0</ele><time>2026-04-04T14:28:08.999Z</time></trkpt><trkpt lat="45.55298094810032" lon="10.947557580756579"><ele>336.0</ele><time>2026-04-04T14:28:09.999Z</time></trkpt><trkpt lat="45.55285869676256" lon="10.947509011957044"><ele>336.0</ele><time>2026-04-04T14:28:10.999Z</time></trkpt><trkpt lat="45.552741975284334" lon="10.947459282834933"><ele>336.0</ele><time>2026-04-04T14:28:11.999Z</time></trkpt><trkpt lat="45.552627471752295" lon="10.94740633505743"><ele>332.0</ele><time>2026-04-04T14:28:12.999Z</time></trkpt><trkpt lat="45.55250491381484" lon="10.947353407701348"><ele>328.0</ele><time>2026-04-04T14:28:13.999Z</time></trkpt><trkpt lat="45.55237312292649" lon="10.947296588067697"><ele>324.0</ele><time>2026-04-04T14:28:14.999Z</time></trkpt><trkpt lat="45.55223861872876" lon="10.947232260781865"><ele>320.0</ele><time>2026-04-04T14:28:15.999Z</time></trkpt><trkpt lat="45.55211361638542" lon="10.947151109837742"><ele>321.25</ele><time>2026-04-04T14:28:16.999Z</time></trkpt><trkpt lat="45.55199139622096" lon="10.947044529996928"><ele>322.5</ele><time>2026-04-04T14:28:17.999Z</time></trkpt><trkpt lat="45.55187183396422" lon="10.946906999857125"><ele>323.75</ele><time>2026-04-04T14:28:18.999Z</time></trkpt><trkpt lat="45.55176839094534" lon="10.946755619280015"><ele>325.0</ele><time>2026-04-04T14:28:19.999Z</time></trkpt><trkpt lat="45.551678875953996" lon="10.94660840481017"><ele>321.0</ele><time>2026-04-04T14:28:20.999Z</time></trkpt><trkpt lat="45.55159107268992" lon="10.946467178449096"><ele>317.0</ele><time>2026-04-04T14:28:21.999Z</time></trkpt><trkpt lat="45.55150677544064" lon="10.946337542096465"><ele>313.0</ele><time>2026-04-04T14:28:22.999Z</time></trkpt><trkpt lat="45.55143011847756" lon="10.94620693311006"><ele>309.0</ele><time>2026-04-04T14:28:23.999Z</time></trkpt><trkpt lat="45.55137077637087" lon="10.946076398380022"><ele>309.0</ele><time>2026-04-04T14:28:24.999Z</time></trkpt><trkpt lat="45.55131194509386" lon="10.945951092609594"><ele>309.0</ele><time>2026-04-04T14:28:25.999Z</time></trkpt><trkpt lat="45.551258567205586" lon="10.945824732945153"><ele>309.0</ele><time>2026-04-04T14:28:26.999Z</time></trkpt><trkpt lat="45.551209314724176" lon="10.945697491572698"><ele>309.0</ele><time>2026-04-04T14:28:27.999Z</time></trkpt><trkpt lat="45.55115927144039" lon="10.945575356251123"><ele>309.0</ele><time>2026-04-04T14:28:28.999Z</time></trkpt><trkpt lat="45.55110598278036" lon="10.945460951330233"><ele>308.2</ele><time>2026-04-04T14:28:29.999Z</time></trkpt><trkpt lat="45.55104910430767" lon="10.945358618902064"><ele>307.4</ele><time>2026-04-04T14:28:30.999Z</time></trkpt><trkpt lat="45.55096964531982" lon="10.945289023604028"><ele>306.6</ele><time>2026-04-04T14:28:31.999Z</time></trkpt><trkpt lat="45.55087788689079" lon="10.945262818784801"><ele>305.8</ele><time>2026-04-04T14:28:32.999Z</time></trkpt><trkpt lat="45.55078202830223" lon="10.945281870546422"><ele>305.0</ele><time>2026-04-04T14:28:33.999Z</time></trkpt><trkpt lat="45.55068759574149" lon="10.945348445213716"><ele>305.0</ele><time>2026-04-04T14:28:34.999Z</time></trkpt><trkpt lat="45.55060228567259" lon="10.945443244054054"><ele>305.0</ele><time>2026-04-04T14:28:35.999Z</time></trkpt><trkpt lat="45.55050444413344" lon="10.945527526640584"><ele>305.0</ele><time>2026-04-04T14:28:36.999Z</time></trkpt><trkpt lat="45.55041857958371" lon="10.94562478215854"><ele>305.0</ele><time>2026-04-04T14:28:37.999Z</time></trkpt><trkpt lat="45.550342699640275" lon="10.945730067051564"><ele>305.0</ele><time>2026-04-04T14:28:38.999Z</time></trkpt><trkpt lat="45.55025697087781" lon="10.945804179815067"><ele>302.8</ele><time>2026-04-04T14:28:39.999Z</time></trkpt><trkpt lat="45.550165362912104" lon="10.94585156296675"><ele>300.6</ele><time>2026-04-04T14:28:40.999Z</time></trkpt><trkpt lat="45.55006419068793" lon="10.945853140000283"><ele>298.4</ele><time>2026-04-04T14:28:41.999Z</time></trkpt><trkpt lat="45.5499569118237" lon="10.945801576836338"><ele>296.2</ele><time>2026-04-04T14:28:42.999Z</time></trkpt><trkpt lat="45.54984694192548" lon="10.945704461746764"><ele>294.0</ele><time>2026-04-04T14:28:43.999Z</time></trkpt><trkpt lat="45.54973587396059" lon="10.945584610204786"><ele>294.0</ele><time>2026-04-04T14:28:44.999Z</time></trkpt><trkpt lat="45.54962498544443" lon="10.945463666421523"><ele>294.0</ele><time>2026-04-04T14:28:45.999Z</time></trkpt><trkpt lat="45.54951556026081" lon="10.945348732413478"><ele>294.0</ele><time>2026-04-04T14:28:46.999Z</time></trkpt><trkpt lat="45.54940771726444" lon="10.945243523689735"><ele>294.0</ele><time>2026-04-04T14:28:47.999Z</time></trkpt><trkpt lat="45.549299731713155" lon="10.945146876486191"><ele>294.0</ele><time>2026-04-04T14:28:48.999Z</time></trkpt><trkpt lat="45.549188627387785" lon="10.945054287440179"><ele>294.0</ele><time>2026-04-04T14:28:49.999Z</time></trkpt><trkpt lat="45.549072419389475" lon="10.94497924669018"><ele>294.0</ele><time>2026-04-04T14:28:50.999Z</time></trkpt><trkpt lat="45.54895457951032" lon="10.944916548736138"><ele>294.0</ele><time>2026-04-04T14:28:51.999Z</time></trkpt><trkpt lat="45.548843797893035" lon="10.944861905547464"><ele>290.59999999999997</ele><time>2026-04-04T14:28:52.999Z</time></trkpt><trkpt lat="45.54874072013464" lon="10.94481511384061"><ele>287.2</ele><time>2026-04-04T14:28:53.999Z</time></trkpt><trkpt lat="45.54864341355639" lon="10.944776860682946"><ele>283.79999999999995</ele><time>2026-04-04T14:28:54.999Z</time></trkpt><trkpt lat="45.54854608727714" lon="10.94474070595569"><ele>280.4</ele><time>2026-04-04T14:28:55.999Z</time></trkpt><trkpt lat="45.54844940209758" lon="10.944714354093735"><ele>277.0</ele><time>2026-04-04T14:28:56.999Z</time></trkpt><trkpt lat="45.54834944763793" lon="10.944706696810764"><ele>275.8</ele><time>2026-04-04T14:28:57.999Z</time></trkpt><trkpt lat="45.548254089468905" lon="10.94471374871571"><ele>274.6</ele><time>2026-04-04T14:28:58.999Z</time></trkpt><trkpt lat="45.54816372861561" lon="10.944733403406016"><ele>273.40000000000003</ele><time>2026-04-04T14:28:59.999Z</time></trkpt><trkpt lat="45.548083364558394" lon="10.94477914474536"><ele>272.2</ele><time>2026-04-04T14:29:00.999Z</time></trkpt><trkpt lat="45.54800734013263" lon="10.944850011375971"><ele>271.0</ele><time>2026-04-04T14:29:01.999Z</time></trkpt><trkpt lat="45.547939756278666" lon="10.944939207418688"><ele>268.6</ele><time>2026-04-04T14:29:02.999Z</time></trkpt><trkpt lat="45.54786138340798" lon="10.945018683634803"><ele>266.20000000000005</ele><time>2026-04-04T14:29:03.999Z</time></trkpt><trkpt lat="45.54780004206576" lon="10.945131639444941"><ele>263.79999999999995</ele><time>2026-04-04T14:29:04.999Z</time></trkpt><trkpt lat="45.54774637029635" lon="10.945254891491343"><ele>261.4</ele><time>2026-04-04T14:29:05.999Z</time></trkpt><trkpt lat="45.54769790983506" lon="10.945369495632136"><ele>259.0</ele><time>2026-04-04T14:29:06.998Z</time></trkpt><trkpt lat="45.54764774169392" lon="10.945474598642246"><ele>259.0</ele><time>2026-04-04T14:29:07.998Z</time></trkpt><trkpt lat="45.547603086708364" lon="10.945586836271078"><ele>259.0</ele><time>2026-04-04T14:29:08.998Z</time></trkpt><trkpt lat="45.54752838367809" lon="10.945678929314825"><ele>259.0</ele><time>2026-04-04T14:29:09.998Z</time></trkpt><trkpt lat="45.547440710396174" lon="10.945761866557122"><ele>259.0</ele><time>2026-04-04T14:29:10.998Z</time></trkpt><trkpt lat="45.54733020583786" lon="10.945814371932078"><ele>259.0</ele><time>2026-04-04T14:29:11.998Z</time></trkpt><trkpt lat="45.547205244458596" lon="10.9458332131379"><ele>259.0</ele><time>2026-04-04T14:29:12.998Z</time></trkpt><trkpt lat="45.54706047683925" lon="10.945809145723876"><ele>259.0</ele><time>2026-04-04T14:29:13.998Z</time></trkpt><trkpt lat="45.546889100495584" lon="10.945762308304884"><ele>259.0</ele><time>2026-04-04T14:29:14.998Z</time></trkpt><trkpt lat="45.54670320272798" lon="10.945693247765345"><ele>256.0</ele><time>2026-04-04T14:29:15.998Z</time></trkpt><trkpt lat="45.546506657263826" lon="10.945616172236262"><ele>253.0</ele><time>2026-04-04T14:29:16.998Z</time></trkpt><trkpt lat="45.5463182671506" lon="10.945535998587287"><ele>250.0</ele><time>2026-04-04T14:29:17.998Z</time></trkpt><trkpt lat="45.54614746573369" lon="10.945463976342197"><ele>248.66666666666666</ele><time>2026-04-04T14:29:18.998Z</time></trkpt><trkpt lat="45.545977973894566" lon="10.945385939342279"><ele>247.33333333333331</ele><time>2026-04-04T14:29:19.998Z</time></trkpt><trkpt lat="45.54578784631723" lon="10.945305665559234"><ele>246.0</ele><time>2026-04-04T14:29:20.998Z</time></trkpt><trkpt lat="45.545590041097064" lon="10.945225540276796"><ele>246.0</ele><time>2026-04-04T14:29:21.998Z</time></trkpt><trkpt lat="45.54541373465852" lon="10.945139810490021"><ele>246.0</ele><time>2026-04-04T14:29:22.998Z</time></trkpt><trkpt lat="45.545269551832185" lon="10.945058682410425"><ele>246.0</ele><time>2026-04-04T14:29:23.998Z</time></trkpt><trkpt lat="45.545143697635446" lon="10.944987392880831"><ele>244.20000000000002</ele><time>2026-04-04T14:29:24.998Z</time></trkpt><trkpt lat="45.54503568303756" lon="10.944929672974443"><ele>242.40000000000003</ele><time>2026-04-04T14:29:25.998Z</time></trkpt><trkpt lat="45.544937961847324" lon="10.944875407645858"><ele>240.6</ele><time>2026-04-04T14:29:26.998Z</time></trkpt><trkpt lat="45.54484053504376" lon="10.944818461672579"><ele>238.8</ele><time>2026-04-04T14:29:27.998Z</time></trkpt><trkpt lat="45.54474264646752" lon="10.944760373894331"><ele>237.0</ele><time>2026-04-04T14:29:28.998Z</time></trkpt><trkpt lat="45.544642390346134" lon="10.944702647294331"><ele>236.39999999999998</ele><time>2026-04-04T14:29:29.998Z</time></trkpt><trkpt lat="45.54453687246576" lon="10.94464212733327"><ele>235.79999999999998</ele><time>2026-04-04T14:29:30.998Z</time></trkpt><trkpt lat="45.54443110501368" lon="10.94458077193005"><ele>235.2</ele><time>2026-04-04T14:29:32Z</time></trkpt><trkpt lat="45.54433116786246" lon="10.944525109700189"><ele>234.6</ele><time>2026-04-04T14:29:33Z</time></trkpt><trkpt lat="45.54423367776556" lon="10.944470182336357"><ele>234.0</ele><time>2026-04-04T14:29:34Z</time></trkpt><trkpt lat="45.544133944233934" lon="10.944412163595217"><ele>234.0</ele><time>2026-04-04T14:29:35Z</time></trkpt><trkpt lat="45.54403351621768" lon="10.944349639866514"><ele>233.99999999999997</ele><time>2026-04-04T14:29:36Z</time></trkpt><trkpt lat="45.54393188346776" lon="10.944290182392747"><ele>233.99999999999997</ele><time>2026-04-04T14:29:37Z</time></trkpt><trkpt lat="45.54383323853201" lon="10.944228554144715"><ele>234.0</ele><time>2026-04-04T14:29:38Z</time></trkpt><trkpt lat="45.543739465097154" lon="10.944149946035292"><ele>234.0</ele><time>2026-04-04T14:29:39Z</time></trkpt><trkpt lat="45.5436514844421" lon="10.944049796887407"><ele>233.0</ele><time>2026-04-04T14:29:40Z</time></trkpt><trkpt lat="45.543573536884374" lon="10.943931397500071"><ele>232.0</ele><time>2026-04-04T14:29:41Z</time></trkpt><trkpt lat="45.543507988119025" lon="10.943794397053411"><ele>231.0</ele><time>2026-04-04T14:29:42Z</time></trkpt><trkpt lat="45.543447816348895" lon="10.943648417424559"><ele>230.0</ele><time>2026-04-04T14:29:43Z</time></trkpt><trkpt lat="45.54338907441096" lon="10.943500113882257"><ele>229.6</ele><time>2026-04-04T14:29:44Z</time></trkpt><trkpt lat="45.543334030160786" lon="10.943358974156316"><ele>229.2</ele><time>2026-04-04T14:29:45Z</time></trkpt><trkpt lat="45.54327656395799" lon="10.943223876808116"><ele>228.8</ele><time>2026-04-04T14:29:46Z</time></trkpt><trkpt lat="45.54321472607888" lon="10.943089055107555"><ele>228.4</ele><time>2026-04-04T14:29:47Z</time></trkpt><trkpt lat="45.543143381019156" lon="10.942965331878966"><ele>228.0</ele><time>2026-04-04T14:29:48Z</time></trkpt><trkpt lat="45.543060560314956" lon="10.942859448228607"><ele>228.0</ele><time>2026-04-04T14:29:49Z</time></trkpt><trkpt lat="45.542966267431105" lon="10.94277909866162"><ele>228.0</ele><time>2026-04-04T14:29:50Z</time></trkpt><trkpt lat="45.5428440845239" lon="10.942738019522798"><ele>228.0</ele><time>2026-04-04T14:29:51Z</time></trkpt><trkpt lat="45.542724526985594" lon="10.94272135466888"><ele>228.0</ele><time>2026-04-04T14:29:52Z</time></trkpt><trkpt lat="45.542607488395966" lon="10.942721483292459"><ele>227.0</ele><time>2026-04-04T14:29:53Z</time></trkpt><trkpt lat="45.54249300911356" lon="10.942720984503612"><ele>226.0</ele><time>2026-04-04T14:29:54Z</time></trkpt><trkpt lat="45.54237834878576" lon="10.942716731774029"><ele>225.0</ele><time>2026-04-04T14:29:55Z</time></trkpt><trkpt lat="45.54226289652765" lon="10.94271112687061"><ele>224.0</ele><time>2026-04-04T14:29:56Z</time></trkpt><trkpt lat="45.54214571438101" lon="10.942706712433512"><ele>223.0</ele><time>2026-04-04T14:29:57Z</time></trkpt><trkpt lat="45.54202730003217" lon="10.94270155366272"><ele>222.0</ele><time>2026-04-04T14:29:58Z</time></trkpt><trkpt lat="45.541909694592924" lon="10.942698367543473"><ele>221.0</ele><time>2026-04-04T14:29:59Z</time></trkpt><trkpt lat="45.54179469906876" lon="10.942692857132618"><ele>220.0</ele><time>2026-04-04T14:30:00Z</time></trkpt><trkpt lat="45.541677908874206" lon="10.942682308723597"><ele>220.0</ele><time>2026-04-04T14:30:01Z</time></trkpt><trkpt lat="45.541560318139425" lon="10.942659080638444"><ele>220.0</ele><time>2026-04-04T14:30:02Z</time></trkpt><trkpt lat="45.541432839252955" lon="10.94262811411254"><ele>220.0</ele><time>2026-04-04T14:30:03Z</time></trkpt><trkpt lat="45.541301156446224" lon="10.942588532979745"><ele>220.0</ele><time>2026-04-04T14:30:04Z</time></trkpt><trkpt lat="45.54114329946417" lon="10.942528393987528"><ele>218.66666666666666</ele><time>2026-04-04T14:30:05Z</time></trkpt><trkpt lat="45.54095569653294" lon="10.94243952531492"><ele>217.33333333333331</ele><time>2026-04-04T14:30:06Z</time></trkpt><trkpt lat="45.540793233462026" lon="10.942340155720656"><ele>216.0</ele><time>2026-04-04T14:30:07Z</time></trkpt><trkpt lat="45.54064799135948" lon="10.942255983227614"><ele>216.0</ele><time>2026-04-04T14:30:08Z</time></trkpt><trkpt lat="45.54051020498853" lon="10.942181523237721"><ele>216.0</ele><time>2026-04-04T14:30:09Z</time></trkpt><trkpt lat="45.54038141012682" lon="10.942111586370894"><ele>216.0</ele><time>2026-04-04T14:30:10Z</time></trkpt><trkpt lat="45.54025993063908" lon="10.942047893574076"><ele>216.0</ele><time>2026-04-04T14:30:11Z</time></trkpt><trkpt lat="45.5401465818516" lon="10.94199155227431"><ele>215.75</ele><time>2026-04-04T14:30:12Z</time></trkpt><trkpt lat="45.540032467404636" lon="10.941936617789404"><ele>215.5</ele><time>2026-04-04T14:30:13Z</time></trkpt><trkpt lat="45.53991671197074" lon="10.941883258752267"><ele>215.25</ele><time>2026-04-04T14:30:13.999Z</time></trkpt><trkpt lat="45.53979207511506" lon="10.941828760197295"><ele>215.0</ele><time>2026-04-04T14:30:14.999Z</time></trkpt><trkpt lat="45.53966075975701" lon="10.94177812550631"><ele>214.5</ele><time>2026-04-04T14:30:15.999Z</time></trkpt><trkpt lat="45.53952791653551" lon="10.94173202472422"><ele>214.0</ele><time>2026-04-04T14:30:16.999Z</time></trkpt><trkpt lat="45.53940281148693" lon="10.941688471212476"><ele>213.5</ele><time>2026-04-04T14:30:17.999Z</time></trkpt><trkpt lat="45.5392857408259" lon="10.941645486344886"><ele>213.0</ele><time>2026-04-04T14:30:18.999Z</time></trkpt><trkpt lat="45.539165447341" lon="10.941601649206588"><ele>213.0</ele><time>2026-04-04T14:30:19.999Z</time></trkpt><trkpt lat="45.53904290010265" lon="10.94155180447034"><ele>213.0</ele><time>2026-04-04T14:30:20.999Z</time></trkpt><trkpt lat="45.538931634675" lon="10.941492477334076"><ele>213.0</ele><time>2026-04-04T14:30:21.999Z</time></trkpt><trkpt lat="45.53882863294237" lon="10.941424619892862"><ele>213.0</ele><time>2026-04-04T14:30:22.999Z</time></trkpt><trkpt lat="45.538721247759185" lon="10.941346226458682"><ele>212.0</ele><time>2026-04-04T14:30:23.999Z</time></trkpt><trkpt lat="45.53861012873749" lon="10.941256816897031"><ele>211.0</ele><time>2026-04-04T14:30:24.999Z</time></trkpt><trkpt lat="45.538504192733086" lon="10.94117377806216"><ele>210.0</ele><time>2026-04-04T14:30:25.999Z</time></trkpt><trkpt lat="45.53840486603102" lon="10.941087581856866"><ele>209.0</ele><time>2026-04-04T14:30:26.999Z</time></trkpt><trkpt lat="45.53830606217318" lon="10.940999749111782"><ele>209.0</ele><time>2026-04-04T14:30:27.999Z</time></trkpt><trkpt lat="45.53820834187532" lon="10.940900356858949"><ele>209.0</ele><time>2026-04-04T14:30:28.999Z</time></trkpt><trkpt lat="45.538114035175994" lon="10.940790515323462"><ele>209.0</ele><time>2026-04-04T14:30:29.999Z</time></trkpt><trkpt lat="45.53802383550087" lon="10.940669801721409"><ele>209.0</ele><time>2026-04-04T14:30:30.999Z</time></trkpt><trkpt lat="45.53793531425385" lon="10.940549971618287"><ele>208.5</ele><time>2026-04-04T14:30:31.999Z</time></trkpt><trkpt lat="45.53784879279323" lon="10.9404356976354"><ele>208.0</ele><time>2026-04-04T14:30:32.999Z</time></trkpt><trkpt lat="45.53776398651037" lon="10.940324811188377"><ele>207.5</ele><time>2026-04-04T14:30:33.999Z</time></trkpt><trkpt lat="45.53767805836151" lon="10.94022204489851"><ele>207.0</ele><time>2026-04-04T14:30:34.999Z</time></trkpt><trkpt lat="45.53758985611125" lon="10.940127539023525"><ele>207.2</ele><time>2026-04-04T14:30:35.999Z</time></trkpt><trkpt lat="45.53749936985377" lon="10.940039799339752"><ele>207.39999999999998</ele><time>2026-04-04T14:30:36.999Z</time></trkpt><trkpt lat="45.53741084087339" lon="10.939952340617163"><ele>207.60000000000002</ele><time>2026-04-04T14:30:37.999Z</time></trkpt><trkpt lat="45.53731940069895" lon="10.939861690717853"><ele>207.8</ele><time>2026-04-04T14:30:38.999Z</time></trkpt><trkpt lat="45.53722356940999" lon="10.939761913612278"><ele>208.0</ele><time>2026-04-04T14:30:39.999Z</time></trkpt><trkpt lat="45.537119819824206" lon="10.939665091177613"><ele>207.60000000000002</ele><time>2026-04-04T14:30:40.999Z</time></trkpt><trkpt lat="45.53701344206199" lon="10.939582284982924"><ele>207.20000000000002</ele><time>2026-04-04T14:30:41.999Z</time></trkpt><trkpt lat="45.53691228571312" lon="10.939508418667288"><ele>206.8</ele><time>2026-04-04T14:30:42.999Z</time></trkpt><trkpt lat="45.53681093928298" lon="10.939452733790661"><ele>206.4</ele><time>2026-04-04T14:30:43.999Z</time></trkpt><trkpt lat="45.53671529153293" lon="10.939406061936085"><ele>206.0</ele><time>2026-04-04T14:30:44.999Z</time></trkpt><trkpt lat="45.53662055661177" lon="10.939369157931138"><ele>206.0</ele><time>2026-04-04T14:30:45.999Z</time></trkpt><trkpt lat="45.53651847255649" lon="10.939348906317422"><ele>206.0</ele><time>2026-04-04T14:30:46.999Z</time></trkpt><trkpt lat="45.53641034431915" lon="10.939343412738387"><ele>206.0</ele><time>2026-04-04T14:30:47.999Z</time></trkpt><trkpt lat="45.536307096751536" lon="10.939347655996068"><ele>206.0</ele><time>2026-04-04T14:30:48.999Z</time></trkpt><trkpt lat="45.536211456743025" lon="10.939357433156292"><ele>206.0</ele><time>2026-04-04T14:30:49.999Z</time></trkpt><trkpt lat="45.53611740683218" lon="10.939372687392936"><ele>205.33333333333334</ele><time>2026-04-04T14:30:50.999Z</time></trkpt><trkpt lat="45.536023504239395" lon="10.93939671690837"><ele>204.66666666666669</ele><time>2026-04-04T14:30:51.999Z</time></trkpt><trkpt lat="45.535932364929515" lon="10.939405633329592"><ele>204.0</ele><time>2026-04-04T14:30:52.999Z</time></trkpt><trkpt lat="45.53585506628835" lon="10.9394349367872"><ele>203.33333333333331</ele><time>2026-04-04T14:30:53.999Z</time></trkpt><trkpt lat="45.53578948039332" lon="10.939465754282107"><ele>202.66666666666666</ele><time>2026-04-04T14:30:54.999Z</time></trkpt><trkpt lat="45.53572811419233" lon="10.939496717162973"><ele>202.0</ele><time>2026-04-04T14:30:55.999Z</time></trkpt><trkpt lat="45.535617996894786" lon="10.939562520901799"><ele>202.0</ele><time>2026-04-04T14:30:57.999Z</time></trkpt><trkpt lat="45.53555764623406" lon="10.939601515513255"><ele>202.0</ele><time>2026-04-04T14:30:58.999Z</time></trkpt><trkpt lat="45.535498375594685" lon="10.939642861631086"><ele>202.0</ele><time>2026-04-04T14:30:59.999Z</time></trkpt><trkpt lat="45.53543215260053" lon="10.939691343818392"><ele>202.0</ele><time>2026-04-04T14:31:00.999Z</time></trkpt><trkpt lat="45.53536426177451" lon="10.939743187951427"><ele>202.0</ele><time>2026-04-04T14:31:01.999Z</time></trkpt><trkpt lat="45.53529562128747" lon="10.939795602776114"><ele>202.0</ele><time>2026-04-04T14:31:02.999Z</time></trkpt><trkpt lat="45.53522186193172" lon="10.939851926441838"><ele>202.0</ele><time>2026-04-04T14:31:03.999Z</time></trkpt><trkpt lat="45.535141176341824" lon="10.93991487923658"><ele>201.6</ele><time>2026-04-04T14:31:04.999Z</time></trkpt><trkpt lat="45.535055587091925" lon="10.93998644383781"><ele>201.2</ele><time>2026-04-04T14:31:05.999Z</time></trkpt><trkpt lat="45.5349618655472" lon="10.940068289188453"><ele>200.8</ele><time>2026-04-04T14:31:06.999Z</time></trkpt><trkpt lat="45.53487516771837" lon="10.94014951196184"><ele>200.4</ele><time>2026-04-04T14:31:07.999Z</time></trkpt><trkpt lat="45.534786441136426" lon="10.940237862027134"><ele>200.0</ele><time>2026-04-04T14:31:08.999Z</time></trkpt><trkpt lat="45.534693871756694" lon="10.940340244452562"><ele>200.0</ele><time>2026-04-04T14:31:09.999Z</time></trkpt><trkpt lat="45.534616097571096" lon="10.940463330108189"><ele>200.0</ele><time>2026-04-04T14:31:10.999Z</time></trkpt><trkpt lat="45.53452604872393" lon="10.940548923222526"><ele>200.0</ele><time>2026-04-04T14:31:11.998Z</time></trkpt><trkpt lat="45.53445092450018" lon="10.940646372895126"><ele>200.0</ele><time>2026-04-04T14:31:12.998Z</time></trkpt><trkpt lat="45.53437441429036" lon="10.94074216390688"><ele>200.0</ele><time>2026-04-04T14:31:13.998Z</time></trkpt><trkpt lat="45.534290911532246" lon="10.940831595061635"><ele>199.0</ele><time>2026-04-04T14:31:14.998Z</time></trkpt><trkpt lat="45.534199075042224" lon="10.940904136842533"><ele>198.0</ele><time>2026-04-04T14:31:15.998Z</time></trkpt><trkpt lat="45.534095169985164" lon="10.940945736118767"><ele>197.0</ele><time>2026-04-04T14:31:16.998Z</time></trkpt><trkpt lat="45.533989169290585" lon="10.940962563659003"><ele>196.0</ele><time>2026-04-04T14:31:17.998Z</time></trkpt><trkpt lat="45.533884924339105" lon="10.940959118243395"><ele>195.0</ele><time>2026-04-04T14:31:18.998Z</time></trkpt><trkpt lat="45.533781186419056" lon="10.940931023856729"><ele>195.0</ele><time>2026-04-04T14:31:19.998Z</time></trkpt><trkpt lat="45.53368216648514" lon="10.940887419286469"><ele>195.0</ele><time>2026-04-04T14:31:20.998Z</time></trkpt><trkpt lat="45.53358523938926" lon="10.94083544374295"><ele>195.0</ele><time>2026-04-04T14:31:21.998Z</time></trkpt><trkpt lat="45.533490014746604" lon="10.940776219915097"><ele>195.0</ele><time>2026-04-04T14:31:22.998Z</time></trkpt><trkpt lat="45.533392143194874" lon="10.940717699156915"><ele>195.0</ele><time>2026-04-04T14:31:23.998Z</time></trkpt><trkpt lat="45.53329342621079" lon="10.94066017469353"><ele>195.0</ele><time>2026-04-04T14:31:24.998Z</time></trkpt><trkpt lat="45.53319239104287" lon="10.940609878681531"><ele>195.0</ele><time>2026-04-04T14:31:25.998Z</time></trkpt><trkpt lat="45.53308886708511" lon="10.940569195196256"><ele>195.0</ele><time>2026-04-04T14:31:26.998Z</time></trkpt><trkpt lat="45.53297724241718" lon="10.94052646114375"><ele>195.0</ele><time>2026-04-04T14:31:27.998Z</time></trkpt><trkpt lat="45.532860434114546" lon="10.940481638237959"><ele>194.0</ele><time>2026-04-04T14:31:28.998Z</time></trkpt><trkpt lat="45.53274577638222" lon="10.940426661496362"><ele>193.0</ele><time>2026-04-04T14:31:29.998Z</time></trkpt><trkpt lat="45.53263881788176" lon="10.940363888255222"><ele>192.0</ele><time>2026-04-04T14:31:30.998Z</time></trkpt><trkpt lat="45.53253665024743" lon="10.940296074285667"><ele>191.0</ele><time>2026-04-04T14:31:31.998Z</time></trkpt><trkpt lat="45.53244164977454" lon="10.94023128259686"><ele>191.0</ele><time>2026-04-04T14:31:32.998Z</time></trkpt><trkpt lat="45.53235106851436" lon="10.940162428769288"><ele>191.0</ele><time>2026-04-04T14:31:33.998Z</time></trkpt><trkpt lat="45.5322568901584" lon="10.940096223345023"><ele>191.0</ele><time>2026-04-04T14:31:34.998Z</time></trkpt><trkpt lat="45.53215756702227" lon="10.940024223694822"><ele>191.0</ele><time>2026-04-04T14:31:35.998Z</time></trkpt><trkpt lat="45.532056499310485" lon="10.939953858649782"><ele>191.0</ele><time>2026-04-04T14:31:36.998Z</time></trkpt><trkpt lat="45.53195485716115" lon="10.939881032675123"><ele>190.8</ele><time>2026-04-04T14:31:38Z</time></trkpt><trkpt lat="45.531865166209094" lon="10.939814120219857"><ele>190.60000000000002</ele><time>2026-04-04T14:31:39Z</time></trkpt><trkpt lat="45.53177653731172" lon="10.939754705543681"><ele>190.4</ele><time>2026-04-04T14:31:40Z</time></trkpt><trkpt lat="45.53169235420403" lon="10.939699279286664"><ele>190.2</ele><time>2026-04-04T14:31:41Z</time></trkpt><trkpt lat="45.53161099124136" lon="10.939646484877164"><ele>190.0</ele><time>2026-04-04T14:31:42Z</time></trkpt><trkpt lat="45.531529679188125" lon="10.939598617063686"><ele>190.0</ele><time>2026-04-04T14:31:43Z</time></trkpt><trkpt lat="45.53144998264459" lon="10.939557330062936"><ele>190.0</ele><time>2026-04-04T14:31:44Z</time></trkpt><trkpt lat="45.5313704886863" lon="10.93952708229221"><ele>190.0</ele><time>2026-04-04T14:31:45Z</time></trkpt><trkpt lat="45.53128959884089" lon="10.939504593184287"><ele>190.0</ele><time>2026-04-04T14:31:46Z</time></trkpt><trkpt lat="45.53120595823617" lon="10.939495829104507"><ele>190.0</ele><time>2026-04-04T14:31:47Z</time></trkpt><trkpt lat="45.53112682193828" lon="10.939489274893425"><ele>190.0</ele><time>2026-04-04T14:31:48Z</time></trkpt><trkpt lat="45.53105557439836" lon="10.939482513154745"><ele>189.6</ele><time>2026-04-04T14:31:49Z</time></trkpt><trkpt lat="45.53092533220827" lon="10.939485719475298"><ele>189.2</ele><time>2026-04-04T14:31:51Z</time></trkpt><trkpt lat="45.53079748394005" lon="10.939493269442716"><ele>188.8</ele><time>2026-04-04T14:31:53Z</time></trkpt><trkpt lat="45.53072909759802" lon="10.939500306983927"><ele>188.4</ele><time>2026-04-04T14:31:54Z</time></trkpt><trkpt lat="45.53066081206044" lon="10.93951454565893"><ele>188.0</ele><time>2026-04-04T14:31:55Z</time></trkpt><trkpt lat="45.53059320499951" lon="10.939531502351484"><ele>188.0</ele><time>2026-04-04T14:31:56Z</time></trkpt><trkpt lat="45.530523036097414" lon="10.939561899396066"><ele>188.0</ele><time>2026-04-04T14:31:57Z</time></trkpt><trkpt lat="45.53044574073895" lon="10.939573600000418"><ele>188.0</ele><time>2026-04-04T14:31:58Z</time></trkpt><trkpt lat="45.53037692590808" lon="10.939627257687874"><ele>188.0</ele><time>2026-04-04T14:31:59Z</time></trkpt><trkpt lat="45.53031726103003" lon="10.939684079149703"><ele>188.0</ele><time>2026-04-04T14:32:00Z</time></trkpt><trkpt lat="45.53026744016929" lon="10.939741701873588"><ele>188.0</ele><time>2026-04-04T14:32:01Z</time></trkpt><trkpt lat="45.5302292018218" lon="10.939813210206191"><ele>188.0</ele><time>2026-04-04T14:32:02Z</time></trkpt><trkpt lat="45.53013276705608" lon="10.939925784079502"><ele>187.5</ele><time>2026-04-04T14:32:04Z</time></trkpt><trkpt lat="45.5300793111948" lon="10.939980721750558"><ele>187.0</ele><time>2026-04-04T14:32:05Z</time></trkpt><trkpt lat="45.52997839225187" lon="10.94003807205989"><ele>186.5</ele><time>2026-04-04T14:32:07Z</time></trkpt><trkpt lat="45.5298943720306" lon="10.94002313658427"><ele>186.0</ele><time>2026-04-04T14:32:09Z</time></trkpt><trkpt lat="45.52982731788452" lon="10.939942964900876"><ele>185.5</ele><time>2026-04-04T14:32:11Z</time></trkpt><trkpt lat="45.52976072404959" lon="10.939855006699565"><ele>185.0</ele><time>2026-04-04T14:32:13Z</time></trkpt><trkpt lat="45.5296611538985" lon="10.939836103168826"><ele>184.66666666666666</ele><time>2026-04-04T14:32:15Z</time></trkpt><trkpt lat="45.529552236318416" lon="10.939936148502818"><ele>184.33333333333331</ele><time>2026-04-04T14:32:17Z</time></trkpt><trkpt lat="45.52949995716623" lon="10.940012250065774"><ele>184.0</ele><time>2026-04-04T14:32:18Z</time></trkpt><trkpt lat="45.52944562743335" lon="10.940081038771536"><ele>183.66666666666666</ele><time>2026-04-04T14:32:19Z</time></trkpt><trkpt lat="45.529379573208175" lon="10.940129193657894"><ele>183.33333333333334</ele><time>2026-04-04T14:32:20Z</time></trkpt><trkpt lat="45.52931558351453" lon="10.940179542932503"><ele>183.0</ele><time>2026-04-04T14:32:20.999Z</time></trkpt><trkpt lat="45.52922173430501" lon="10.940202112377271"><ele>182.60000000000002</ele><time>2026-04-04T14:32:21.999Z</time></trkpt><trkpt lat="45.52912788717559" lon="10.940239306626127"><ele>182.20000000000002</ele><time>2026-04-04T14:32:22.999Z</time></trkpt><trkpt lat="45.52903682160667" lon="10.940283922891817"><ele>181.8</ele><time>2026-04-04T14:32:23.999Z</time></trkpt><trkpt lat="45.528947431834204" lon="10.940341199956233"><ele>181.4</ele><time>2026-04-04T14:32:24.999Z</time></trkpt><trkpt lat="45.52884088453123" lon="10.940390190565347"><ele>181.0</ele><time>2026-04-04T14:32:25.999Z</time></trkpt><trkpt lat="45.52873898346067" lon="10.940467676023706"><ele>180.60000000000002</ele><time>2026-04-04T14:32:26.999Z</time></trkpt><trkpt lat="45.52864085221126" lon="10.9405446705477"><ele>180.2</ele><time>2026-04-04T14:32:27.999Z</time></trkpt><trkpt lat="45.52854713610724" lon="10.940617697461514"><ele>179.8</ele><time>2026-04-04T14:32:28.999Z</time></trkpt><trkpt lat="45.528461142693814" lon="10.940710281829107"><ele>179.39999999999998</ele><time>2026-04-04T14:32:29.999Z</time></trkpt><trkpt lat="45.52835446670139" lon="10.940749497461288"><ele>179.0</ele><time>2026-04-04T14:32:30.999Z</time></trkpt><trkpt lat="45.528242535913215" lon="10.940816869233927"><ele>179.0</ele><time>2026-04-04T14:32:31.999Z</time></trkpt><trkpt lat="45.52812023763354" lon="10.940855694456584"><ele>179.0</ele><time>2026-04-04T14:32:32.999Z</time></trkpt><trkpt lat="45.5279826261554" lon="10.94088377673382"><ele>179.0</ele><time>2026-04-04T14:32:33.999Z</time></trkpt><trkpt lat="45.52783982027952" lon="10.940894238522201"><ele>179.0</ele><time>2026-04-04T14:32:34.999Z</time></trkpt><trkpt lat="45.52770010326733" lon="10.940892072098364"><ele>178.0</ele><time>2026-04-04T14:32:35.999Z</time></trkpt><trkpt lat="45.52755707814596" lon="10.94090185821974"><ele>177.0</ele><time>2026-04-04T14:32:36.999Z</time></trkpt><trkpt lat="45.527417446655896" lon="10.940913092839699"><ele>176.0</ele><time>2026-04-04T14:32:37.999Z</time></trkpt><trkpt lat="45.52727919969648" lon="10.940925175307035"><ele>175.0</ele><time>2026-04-04T14:32:38.999Z</time></trkpt><trkpt lat="45.52714658108711" lon="10.94093119588355"><ele>174.75</ele><time>2026-04-04T14:32:39.999Z</time></trkpt><trkpt lat="45.527019483181384" lon="10.940932944976558"><ele>174.5</ele><time>2026-04-04T14:32:40.999Z</time></trkpt><trkpt lat="45.5268959157925" lon="10.940947383629814"><ele>174.25</ele><time>2026-04-04T14:32:41.999Z</time></trkpt><trkpt lat="45.526771302325955" lon="10.940960117120229"><ele>174.0</ele><time>2026-04-04T14:32:42.999Z</time></trkpt><trkpt lat="45.52664936601667" lon="10.94096649438124"><ele>174.0</ele><time>2026-04-04T14:32:43.999Z</time></trkpt><trkpt lat="45.52652853951087" lon="10.94097317095585"><ele>174.0</ele><time>2026-04-04T14:32:44.999Z</time></trkpt><trkpt lat="45.52640797632067" lon="10.940978681390966"><ele>174.0</ele><time>2026-04-04T14:32:45.999Z</time></trkpt><trkpt lat="45.5262841003208" lon="10.940979118225355"><ele>174.0</ele><time>2026-04-04T14:32:46.999Z</time></trkpt><trkpt lat="45.526151608960454" lon="10.940975281753566"><ele>174.0</ele><time>2026-04-04T14:32:47.999Z</time></trkpt><trkpt lat="45.526013695519296" lon="10.940960773457302"><ele>174.0</ele><time>2026-04-04T14:32:48.999Z</time></trkpt><trkpt lat="45.52587558072722" lon="10.940944588013037"><ele>174.0</ele><time>2026-04-04T14:32:49.999Z</time></trkpt><trkpt lat="45.5257377892159" lon="10.94092354003787"><ele>174.0</ele><time>2026-04-04T14:32:50.999Z</time></trkpt><trkpt lat="45.52559539033427" lon="10.940901211082245"><ele>174.0</ele><time>2026-04-04T14:32:51.999Z</time></trkpt><trkpt lat="45.525450337902384" lon="10.940888340285305"><ele>174.0</ele><time>2026-04-04T14:32:52.999Z</time></trkpt><trkpt lat="45.52530230320748" lon="10.940864790462687"><ele>174.0</ele><time>2026-04-04T14:32:53.999Z</time></trkpt><trkpt lat="45.525160238989436" lon="10.94079778833454"><ele>174.0</ele><time>2026-04-04T14:32:54.999Z</time></trkpt><trkpt lat="45.52502537124634" lon="10.940700918159955"><ele>173.5</ele><time>2026-04-04T14:32:55.999Z</time></trkpt><trkpt lat="45.5249001565144" lon="10.940576452633575"><ele>173.0</ele><time>2026-04-04T14:32:56.999Z</time></trkpt><trkpt lat="45.524780169500254" lon="10.940443393583095"><ele>172.5</ele><time>2026-04-04T14:32:57.999Z</time></trkpt><trkpt lat="45.52467245262126" lon="10.940307650024897"><ele>172.0</ele><time>2026-04-04T14:32:58.999Z</time></trkpt><trkpt lat="45.52457477984222" lon="10.940180905338028"><ele>171.75</ele><time>2026-04-04T14:32:59.999Z</time></trkpt><trkpt lat="45.52447866755531" lon="10.940071750266602"><ele>171.5</ele><time>2026-04-04T14:33:00.999Z</time></trkpt><trkpt lat="45.52438379609254" lon="10.939983832369965"><ele>171.25</ele><time>2026-04-04T14:33:01.999Z</time></trkpt><trkpt lat="45.52428108694389" lon="10.939910488966087"><ele>171.0</ele><time>2026-04-04T14:33:02.999Z</time></trkpt><trkpt lat="45.52417123547257" lon="10.939839397578085"><ele>171.0</ele><time>2026-04-04T14:33:03.999Z</time></trkpt><trkpt lat="45.524065130285116" lon="10.939785032842469"><ele>171.0</ele><time>2026-04-04T14:33:04.999Z</time></trkpt><trkpt lat="45.52396400540771" lon="10.939757424352159"><ele>171.0</ele><time>2026-04-04T14:33:05.999Z</time></trkpt><trkpt lat="45.523867319861886" lon="10.939744381613112"><ele>171.0</ele><time>2026-04-04T14:33:06.999Z</time></trkpt><trkpt lat="45.523789849678195" lon="10.939745948793298"><ele>171.0</ele><time>2026-04-04T14:33:07.999Z</time></trkpt><trkpt lat="45.523669035097285" lon="10.939767128248297"><ele>169.5</ele><time>2026-04-04T14:33:09.999Z</time></trkpt><trkpt lat="45.52353447453547" lon="10.939807154891714"><ele>168.0</ele><time>2026-04-04T14:33:11.999Z</time></trkpt><trkpt lat="45.52341497082046" lon="10.939842854446676"><ele>166.5</ele><time>2026-04-04T14:33:12.999Z</time></trkpt><trkpt lat="45.52329050399539" lon="10.939890852102392"><ele>165.0</ele><time>2026-04-04T14:33:13.999Z</time></trkpt><trkpt lat="45.523171632414616" lon="10.939941042908169"><ele>165.0</ele><time>2026-04-04T14:33:14.999Z</time></trkpt><trkpt lat="45.523064892321976" lon="10.939979586789692"><ele>165.0</ele><time>2026-04-04T14:33:15.999Z</time></trkpt><trkpt lat="45.5229611876843" lon="10.940008216085406"><ele>165.0</ele><time>2026-04-04T14:33:16.999Z</time></trkpt><trkpt lat="45.52283987012523" lon="10.940019789733814"><ele>165.0</ele><time>2026-04-04T14:33:17.999Z</time></trkpt><trkpt lat="45.5226958024261" lon="10.939993637852822"><ele>164.75</ele><time>2026-04-04T14:33:18.998Z</time></trkpt><trkpt lat="45.52255548123724" lon="10.939948212982232"><ele>164.5</ele><time>2026-04-04T14:33:19.998Z</time></trkpt><trkpt lat="45.52242470666654" lon="10.93988817699536"><ele>164.25</ele><time>2026-04-04T14:33:20.998Z</time></trkpt><trkpt lat="45.522292988340745" lon="10.93982743182015"><ele>164.0</ele><time>2026-04-04T14:33:21.998Z</time></trkpt><trkpt lat="45.52215831703995" lon="10.939769426530852"><ele>163.5</ele><time>2026-04-04T14:33:22.998Z</time></trkpt><trkpt lat="45.52202907786951" lon="10.939713877917114"><ele>163.0</ele><time>2026-04-04T14:33:23.998Z</time></trkpt><trkpt lat="45.52191183666565" lon="10.939658431561497"><ele>162.5</ele><time>2026-04-04T14:33:24.998Z</time></trkpt><trkpt lat="45.521794466007506" lon="10.939606422712792"><ele>162.0</ele><time>2026-04-04T14:33:25.998Z</time></trkpt><trkpt lat="45.52167988552184" lon="10.939548503081577"><ele>162.0</ele><time>2026-04-04T14:33:26.998Z</time></trkpt><trkpt lat="45.52156330621071" lon="10.93949084090402"><ele>162.0</ele><time>2026-04-04T14:33:27.998Z</time></trkpt><trkpt lat="45.52143792901592" lon="10.939431637176462"><ele>162.0</ele><time>2026-04-04T14:33:28.998Z</time></trkpt><trkpt lat="45.521300395449806" lon="10.939386636695023"><ele>162.0</ele><time>2026-04-04T14:33:29.998Z</time></trkpt><trkpt lat="45.52117116958597" lon="10.939359072330936"><ele>161.5</ele><time>2026-04-04T14:33:30.998Z</time></trkpt><trkpt lat="45.521052538093734" lon="10.939345069260517"><ele>161.0</ele><time>2026-04-04T14:33:31.998Z</time></trkpt><trkpt lat="45.520938416111875" lon="10.939338407250876"><ele>160.5</ele><time>2026-04-04T14:33:32.998Z</time></trkpt><trkpt lat="45.520817638188035" lon="10.939324299223856"><ele>160.0</ele><time>2026-04-04T14:33:33.998Z</time></trkpt><trkpt lat="45.520688092540624" lon="10.939315570343268"><ele>160.0</ele><time>2026-04-04T14:33:34.998Z</time></trkpt><trkpt lat="45.52055619441249" lon="10.939300156964293"><ele>160.0</ele><time>2026-04-04T14:33:35.998Z</time></trkpt><trkpt lat="45.520430794251475" lon="10.939286471810936"><ele>160.0</ele><time>2026-04-04T14:33:36.998Z</time></trkpt><trkpt lat="45.520301033300335" lon="10.939271509226382"><ele>160.0</ele><time>2026-04-04T14:33:37.998Z</time></trkpt><trkpt lat="45.520172406267" lon="10.939254514899048"><ele>159.25</ele><time>2026-04-04T14:33:38.998Z</time></trkpt><trkpt lat="45.52004171720635" lon="10.939238150661666"><ele>158.5</ele><time>2026-04-04T14:33:39.998Z</time></trkpt><trkpt lat="45.51990859840005" lon="10.9392256424926"><ele>157.75</ele><time>2026-04-04T14:33:40.998Z</time></trkpt><trkpt lat="45.51976875007541" lon="10.939207584532348"><ele>157.0</ele><time>2026-04-04T14:33:41.998Z</time></trkpt><trkpt lat="45.51962520627341" lon="10.939188673525958"><ele>155.75</ele><time>2026-04-04T14:33:42.998Z</time></trkpt><trkpt lat="45.51947732106254" lon="10.939165247877852"><ele>154.5</ele><time>2026-04-04T14:33:44Z</time></trkpt><trkpt lat="45.51932895481275" lon="10.939144963711017"><ele>153.25</ele><time>2026-04-04T14:33:45Z</time></trkpt><trkpt lat="45.519179701039114" lon="10.93912675726731"><ele>152.0</ele><time>2026-04-04T14:33:46Z</time></trkpt><trkpt lat="45.519024226565094" lon="10.939105828660121"><ele>152.0</ele><time>2026-04-04T14:33:47Z</time></trkpt><trkpt lat="45.51886403959273" lon="10.939080272231282"><ele>152.0</ele><time>2026-04-04T14:33:48Z</time></trkpt><trkpt lat="45.51869426609654" lon="10.939059258969573"><ele>152.0</ele><time>2026-04-04T14:33:49Z</time></trkpt><trkpt lat="45.51852566621889" lon="10.939046877807659"><ele>151.33333333333331</ele><time>2026-04-04T14:33:50Z</time></trkpt><trkpt lat="45.51836600132092" lon="10.939031517399252"><ele>150.66666666666666</ele><time>2026-04-04T14:33:51Z</time></trkpt><trkpt lat="45.51820600144475" lon="10.939013773914528"><ele>150.0</ele><time>2026-04-04T14:33:52Z</time></trkpt><trkpt lat="45.518049483586346" lon="10.938995251248409"><ele>150.0</ele><time>2026-04-04T14:33:53Z</time></trkpt><trkpt lat="45.51789219633078" lon="10.938978739545792"><ele>150.0</ele><time>2026-04-04T14:33:54Z</time></trkpt><trkpt lat="45.5177336445273" lon="10.938965546713879"><ele>150.0</ele><time>2026-04-04T14:33:55Z</time></trkpt><trkpt lat="45.51756913294869" lon="10.938965540125851"><ele>150.0</ele><time>2026-04-04T14:33:56Z</time></trkpt><trkpt lat="45.517407414018315" lon="10.938971007917758"><ele>150.0</ele><time>2026-04-04T14:33:57Z</time></trkpt><trkpt lat="45.51725074162048" lon="10.938969607748769"><ele>150.0</ele><time>2026-04-04T14:33:58Z</time></trkpt><trkpt lat="45.51710518174278" lon="10.938965527008024"><ele>150.0</ele><time>2026-04-04T14:33:59Z</time></trkpt><trkpt lat="45.51696902833285" lon="10.938962033001149"><ele>150.0</ele><time>2026-04-04T14:34:00Z</time></trkpt><trkpt lat="45.5168345566398" lon="10.93895377273181"><ele>150.0</ele><time>2026-04-04T14:34:01Z</time></trkpt><trkpt lat="45.516704089116246" lon="10.93893482946808"><ele>150.0</ele><time>2026-04-04T14:34:02Z</time></trkpt><trkpt lat="45.516565864841134" lon="10.93890230636221"><ele>150.0</ele><time>2026-04-04T14:34:03Z</time></trkpt><trkpt lat="45.516424229288404" lon="10.938865388877572"><ele>150.0</ele><time>2026-04-04T14:34:04Z</time></trkpt><trkpt lat="45.51628800068378" lon="10.938825574440342"><ele>150.0</ele><time>2026-04-04T14:34:05Z</time></trkpt><trkpt lat="45.51616620739753" lon="10.938774969787868"><ele>150.0</ele><time>2026-04-04T14:34:06Z</time></trkpt><trkpt lat="45.51605337580965" lon="10.938708040056403"><ele>149.75</ele><time>2026-04-04T14:34:07Z</time></trkpt><trkpt lat="45.515941059051094" lon="10.938631093799575"><ele>149.5</ele><time>2026-04-04T14:34:08Z</time></trkpt><trkpt lat="45.515830967692324" lon="10.93854220193518"><ele>149.25</ele><time>2026-04-04T14:34:09Z</time></trkpt><trkpt lat="45.51571345930839" lon="10.93843953241729"><ele>149.0</ele><time>2026-04-04T14:34:10Z</time></trkpt><trkpt lat="45.51557462016397" lon="10.938348982628474"><ele>148.25</ele><time>2026-04-04T14:34:11Z</time></trkpt><trkpt lat="45.51545708049865" lon="10.938263195641504"><ele>147.5</ele><time>2026-04-04T14:34:12Z</time></trkpt><trkpt lat="45.515346109447584" lon="10.938183603121331"><ele>146.75</ele><time>2026-04-04T14:34:13Z</time></trkpt><trkpt lat="45.51522923633486" lon="10.938103095175174"><ele>146.0</ele><time>2026-04-04T14:34:14Z</time></trkpt><trkpt lat="45.51511118612741" lon="10.938022073453423"><ele>146.0</ele><time>2026-04-04T14:34:15Z</time></trkpt><trkpt lat="45.514993076945515" lon="10.937945666662603"><ele>146.0</ele><time>2026-04-04T14:34:16Z</time></trkpt><trkpt lat="45.51487384044879" lon="10.937868780536473"><ele>146.0</ele><time>2026-04-04T14:34:17Z</time></trkpt><trkpt lat="45.514754667286695" lon="10.93779331762354"><ele>146.0</ele><time>2026-04-04T14:34:18Z</time></trkpt><trkpt lat="45.514637393293675" lon="10.937717940525104"><ele>145.75</ele><time>2026-04-04T14:34:19Z</time></trkpt><trkpt lat="45.51452058067829" lon="10.937639874561581"><ele>145.5</ele><time>2026-04-04T14:34:20Z</time></trkpt><trkpt lat="45.514412475832735" lon="10.937555979530092"><ele>145.25</ele><time>2026-04-04T14:34:21Z</time></trkpt><trkpt lat="45.51431566954802" lon="10.937473932193479"><ele>145.0</ele><time>2026-04-04T14:34:22Z</time></trkpt><trkpt lat="45.51422540932926" lon="10.937392642714599"><ele>145.0</ele><time>2026-04-04T14:34:23Z</time></trkpt><trkpt lat="45.51413749001707" lon="10.93731157396241"><ele>145.0</ele><time>2026-04-04T14:34:24Z</time></trkpt><trkpt lat="45.51404995885041" lon="10.937229463688094"><ele>145.0</ele><time>2026-04-04T14:34:25Z</time></trkpt><trkpt lat="45.51396410754694" lon="10.937142490071812"><ele>145.0</ele><time>2026-04-04T14:34:26Z</time></trkpt><trkpt lat="45.51387331251152" lon="10.93705426752918"><ele>145.0</ele><time>2026-04-04T14:34:27Z</time></trkpt><trkpt lat="45.51377751296817" lon="10.936963226076882"><ele>144.25</ele><time>2026-04-04T14:34:27.999Z</time></trkpt><trkpt lat="45.51368102676374" lon="10.936872077746907"><ele>143.5</ele><time>2026-04-04T14:34:28.999Z</time></trkpt><trkpt lat="45.51358196160174" lon="10.936781728921128"><ele>142.75</ele><time>2026-04-04T14:34:29.999Z</time></trkpt><trkpt lat="45.51347695169041" lon="10.936687711442428"><ele>142.0</ele><time>2026-04-04T14:34:30.999Z</time></trkpt><trkpt lat="45.513366131318584" lon="10.936585517589874"><ele>142.0</ele><time>2026-04-04T14:34:31.999Z</time></trkpt><trkpt lat="45.51325247456729" lon="10.936480070405192"><ele>142.0</ele><time>2026-04-04T14:34:32.999Z</time></trkpt><trkpt lat="45.51313701705286" lon="10.936373390194243"><ele>142.0</ele><time>2026-04-04T14:34:33.999Z</time></trkpt><trkpt lat="45.51303591370061" lon="10.936264546702194"><ele>142.0</ele><time>2026-04-04T14:34:34.999Z</time></trkpt><trkpt lat="45.512936887930444" lon="10.936169548430732"><ele>141.5</ele><time>2026-04-04T14:34:35.999Z</time></trkpt><trkpt lat="45.51283963075402" lon="10.936068427373769"><ele>141.0</ele><time>2026-04-04T14:34:36.999Z</time></trkpt><trkpt lat="45.51273338037595" lon="10.935964835962357"><ele>140.5</ele><time>2026-04-04T14:34:37.999Z</time></trkpt><trkpt lat="45.51262447457921" lon="10.935854974008455"><ele>140.0</ele><time>2026-04-04T14:34:38.999Z</time></trkpt><trkpt lat="45.51251166067663" lon="10.93573925065959"><ele>140.0</ele><time>2026-04-04T14:34:39.999Z</time></trkpt><trkpt lat="45.512398993791116" lon="10.935620859112758"><ele>140.0</ele><time>2026-04-04T14:34:40.999Z</time></trkpt><trkpt lat="45.51228929816566" lon="10.935496623011074"><ele>140.0</ele><time>2026-04-04T14:34:41.999Z</time></trkpt><trkpt lat="45.51217552856123" lon="10.935378667233099"><ele>140.0</ele><time>2026-04-04T14:34:42.999Z</time></trkpt><trkpt lat="45.51205673369074" lon="10.935268851495712"><ele>138.75</ele><time>2026-04-04T14:34:43.999Z</time></trkpt><trkpt lat="45.51193574221607" lon="10.935154033434634"><ele>137.5</ele><time>2026-04-04T14:34:44.999Z</time></trkpt><trkpt lat="45.51181951918145" lon="10.935053329021738"><ele>136.25</ele><time>2026-04-04T14:34:45.999Z</time></trkpt><trkpt lat="45.51170608284545" lon="10.934944124947956"><ele>135.0</ele><time>2026-04-04T14:34:46.999Z</time></trkpt><trkpt lat="45.51159827681377" lon="10.934847145019852"><ele>134.75</ele><time>2026-04-04T14:34:47.999Z</time></trkpt><trkpt lat="45.511489667049275" lon="10.934756416971346"><ele>134.5</ele><time>2026-04-04T14:34:48.999Z</time></trkpt><trkpt lat="45.51137540173094" lon="10.934666545024788"><ele>134.25</ele><time>2026-04-04T14:34:49.999Z</time></trkpt><trkpt lat="45.51125560493033" lon="10.934572331527932"><ele>134.0</ele><time>2026-04-04T14:34:50.999Z</time></trkpt><trkpt lat="45.511130508404754" lon="10.934471416672693"><ele>134.0</ele><time>2026-04-04T14:34:51.999Z</time></trkpt><trkpt lat="45.51100123555025" lon="10.934379541892335"><ele>134.0</ele><time>2026-04-04T14:34:52.999Z</time></trkpt><trkpt lat="45.51087003317507" lon="10.934302041637055"><ele>134.0</ele><time>2026-04-04T14:34:53.999Z</time></trkpt><trkpt lat="45.51073865540726" lon="10.934233075552847"><ele>134.0</ele><time>2026-04-04T14:34:54.999Z</time></trkpt><trkpt lat="45.51060743632974" lon="10.934181304315958"><ele>133.5</ele><time>2026-04-04T14:34:55.999Z</time></trkpt><trkpt lat="45.51046281136844" lon="10.93413583303339"><ele>133.0</ele><time>2026-04-04T14:34:56.999Z</time></trkpt><trkpt lat="45.510318369290104" lon="10.934093754803646"><ele>132.5</ele><time>2026-04-04T14:34:57.999Z</time></trkpt><trkpt lat="45.51017495334916" lon="10.934063491590063"><ele>132.0</ele><time>2026-04-04T14:34:58.999Z</time></trkpt><trkpt lat="45.51003275040117" lon="10.934031294439531"><ele>132.0</ele><time>2026-04-04T14:34:59.999Z</time></trkpt><trkpt lat="45.509891057331835" lon="10.934004187047995"><ele>132.0</ele><time>2026-04-04T14:35:00.999Z</time></trkpt><trkpt lat="45.50974888998083" lon="10.933974609062581"><ele>132.0</ele><time>2026-04-04T14:35:01.999Z</time></trkpt><trkpt lat="45.50960490285942" lon="10.93395384484893"><ele>132.0</ele><time>2026-04-04T14:35:02.999Z</time></trkpt><trkpt lat="45.509461318665046" lon="10.933939095628087"><ele>131.25</ele><time>2026-04-04T14:35:03.999Z</time></trkpt><trkpt lat="45.50931486690254" lon="10.933925349869932"><ele>130.5</ele><time>2026-04-04T14:35:04.999Z</time></trkpt><trkpt lat="45.509163726056244" lon="10.933908529012866"><ele>129.75</ele><time>2026-04-04T14:35:05.999Z</time></trkpt><trkpt lat="45.50901415378795" lon="10.933885971139912"><ele>129.0</ele><time>2026-04-04T14:35:06.999Z</time></trkpt><trkpt lat="45.508864460395614" lon="10.933864691728573"><ele>129.0</ele><time>2026-04-04T14:35:07.999Z</time></trkpt><trkpt lat="45.508723826568975" lon="10.933843755037465"><ele>129.0</ele><time>2026-04-04T14:35:08.999Z</time></trkpt><trkpt lat="45.508582519071226" lon="10.933823529268986"><ele>129.0</ele><time>2026-04-04T14:35:09.999Z</time></trkpt><trkpt lat="45.50843541899485" lon="10.933805534065456"><ele>129.0</ele><time>2026-04-04T14:35:10.999Z</time></trkpt><trkpt lat="45.50828340838936" lon="10.933785782415177"><ele>129.0</ele><time>2026-04-04T14:35:11.999Z</time></trkpt><trkpt lat="45.50813229084047" lon="10.93376515452321"><ele>129.0</ele><time>2026-04-04T14:35:12.999Z</time></trkpt><trkpt lat="45.50797620237641" lon="10.933745025783958"><ele>129.0</ele><time>2026-04-04T14:35:13.999Z</time></trkpt><trkpt lat="45.50781747581978" lon="10.933730473979043"><ele>128.66666666666666</ele><time>2026-04-04T14:35:14.999Z</time></trkpt><trkpt lat="45.507657040330656" lon="10.933720261365618"><ele>128.33333333333331</ele><time>2026-04-04T14:35:15.999Z</time></trkpt><trkpt lat="45.50750656165677" lon="10.93371624174281"><ele>128.0</ele><time>2026-04-04T14:35:16.999Z</time></trkpt><trkpt lat="45.507358819621764" lon="10.933731002220956"><ele>128.0</ele><time>2026-04-04T14:35:17.999Z</time></trkpt><trkpt lat="45.50722077415706" lon="10.933747282375132"><ele>128.0</ele><time>2026-04-04T14:35:18.999Z</time></trkpt><trkpt lat="45.50709323749443" lon="10.93376305805939"><ele>128.0</ele><time>2026-04-04T14:35:19.999Z</time></trkpt><trkpt lat="45.506975541635505" lon="10.933782677725182"><ele>128.0</ele><time>2026-04-04T14:35:20.999Z</time></trkpt><trkpt lat="45.50686604537309" lon="10.933802720887712"><ele>128.20000000000002</ele><time>2026-04-04T14:35:21.999Z</time></trkpt><trkpt lat="45.506764189437" lon="10.933819811955582"><ele>128.4</ele><time>2026-04-04T14:35:22.999Z</time></trkpt><trkpt lat="45.50667355071148" lon="10.933834348139715"><ele>128.60000000000002</ele><time>2026-04-04T14:35:23.999Z</time></trkpt><trkpt lat="45.50658605075248" lon="10.933846770820788"><ele>128.8</ele><time>2026-04-04T14:35:24.999Z</time></trkpt><trkpt lat="45.50650335819293" lon="10.933866381034393"><ele>129.0</ele><time>2026-04-04T14:35:25.998Z</time></trkpt><trkpt lat="45.50641951211842" lon="10.933890523834426"><ele>129.0</ele><time>2026-04-04T14:35:26.998Z</time></trkpt><trkpt lat="45.50634293111898" lon="10.933905705725786"><ele>129.0</ele><time>2026-04-04T14:35:27.998Z</time></trkpt><trkpt lat="45.50627513804004" lon="10.933913035835333"><ele>129.0</ele><time>2026-04-04T14:35:28.998Z</time></trkpt><trkpt lat="45.50617020967873" lon="10.9339203108196"><ele>129.0</ele><time>2026-04-04T14:35:30.998Z</time></trkpt><trkpt lat="45.506099298161516" lon="10.933933052158782"><ele>129.0</ele><time>2026-04-04T14:35:32.998Z</time></trkpt><trkpt lat="45.50601338355252" lon="10.933941373123501"><ele>129.0</ele><time>2026-04-04T14:35:53Z</time></trkpt><trkpt lat="45.50591669226913" lon="10.93396949603946"><ele>128.4</ele><time>2026-04-04T14:35:55Z</time></trkpt><trkpt lat="45.505834386106805" lon="10.93398858895136"><ele>127.80000000000001</ele><time>2026-04-04T14:35:56Z</time></trkpt><trkpt lat="45.50573089956111" lon="10.934011568107627"><ele>127.19999999999999</ele><time>2026-04-04T14:35:57Z</time></trkpt><trkpt lat="45.505612774720746" lon="10.934026538333441"><ele>126.6</ele><time>2026-04-04T14:35:58Z</time></trkpt><trkpt lat="45.50549036490578" lon="10.93405187870495"><ele>126.0</ele><time>2026-04-04T14:35:59Z</time></trkpt><trkpt lat="45.505375180083036" lon="10.934080554671187"><ele>125.25</ele><time>2026-04-04T14:36:00Z</time></trkpt><trkpt lat="45.505258796577124" lon="10.934107774897635"><ele>124.5</ele><time>2026-04-04T14:36:01Z</time></trkpt><trkpt lat="45.50514301119684" lon="10.934129425778085"><ele>123.75</ele><time>2026-04-04T14:36:02Z</time></trkpt><trkpt lat="45.50501726040042" lon="10.934156440592936"><ele>123.0</ele><time>2026-04-04T14:36:03Z</time></trkpt><trkpt lat="45.50487919628881" lon="10.934189936482298"><ele>123.0</ele><time>2026-04-04T14:36:04Z</time></trkpt><trkpt lat="45.50473047779644" lon="10.934213271949178"><ele>123.0</ele><time>2026-04-04T14:36:05Z</time></trkpt><trkpt lat="45.504573552665434" lon="10.934242821436019"><ele>123.0</ele><time>2026-04-04T14:36:06Z</time></trkpt><trkpt lat="45.50442372024688" lon="10.9342668421582"><ele>122.25</ele><time>2026-04-04T14:36:07Z</time></trkpt><trkpt lat="45.5042835050283" lon="10.934293033713494"><ele>121.5</ele><time>2026-04-04T14:36:08Z</time></trkpt><trkpt lat="45.504144764367865" lon="10.934319417169815"><ele>120.75</ele><time>2026-04-04T14:36:09Z</time></trkpt><trkpt lat="45.5040116060601" lon="10.934343318508152"><ele>120.0</ele><time>2026-04-04T14:36:10Z</time></trkpt><trkpt lat="45.503885332661035" lon="10.934365914197983"><ele>120.0</ele><time>2026-04-04T14:36:11Z</time></trkpt><trkpt lat="45.50377711138112" lon="10.934389569099878"><ele>120.0</ele><time>2026-04-04T14:36:12Z</time></trkpt><trkpt lat="45.503670254938726" lon="10.934409645026943"><ele>120.0</ele><time>2026-04-04T14:36:13Z</time></trkpt><trkpt lat="45.503573882506316" lon="10.93442751302688"><ele>120.0</ele><time>2026-04-04T14:36:14Z</time></trkpt><trkpt lat="45.50348230507686" lon="10.934443350560228"><ele>120.0</ele><time>2026-04-04T14:36:15Z</time></trkpt><trkpt lat="45.5033912641152" lon="10.934460929140753"><ele>119.83333333333333</ele><time>2026-04-04T14:36:16Z</time></trkpt><trkpt lat="45.503303495604136" lon="10.93448000000281"><ele>119.66666666666666</ele><time>2026-04-04T14:36:17Z</time></trkpt><trkpt lat="45.50322594539094" lon="10.934497482971539"><ele>119.5</ele><time>2026-04-04T14:36:18Z</time></trkpt><trkpt lat="45.50312652851727" lon="10.934502255390646"><ele>119.33333333333333</ele><time>2026-04-04T14:36:20Z</time></trkpt><trkpt lat="45.50303601249982" lon="10.934469765661204"><ele>119.16666666666666</ele><time>2026-04-04T14:36:23Z</time></trkpt><trkpt lat="45.502975983659915" lon="10.934431094530256"><ele>119.0</ele><time>2026-04-04T14:36:24Z</time></trkpt><trkpt lat="45.50290809022537" lon="10.93436632363987"><ele>118.5</ele><time>2026-04-04T14:36:25Z</time></trkpt><trkpt lat="45.50285002373775" lon="10.93425196683999"><ele>118.0</ele><time>2026-04-04T14:36:26Z</time></trkpt><trkpt lat="45.5028061937949" lon="10.934109394332461"><ele>117.5</ele><time>2026-04-04T14:36:27Z</time></trkpt><trkpt lat="45.502790875234844" lon="10.933918750900679"><ele>117.0</ele><time>2026-04-04T14:36:28Z</time></trkpt><trkpt lat="45.50278147814898" lon="10.933705976970366"><ele>117.0</ele><time>2026-04-04T14:36:29Z</time></trkpt><trkpt lat="45.50276048825715" lon="10.933476958961547"><ele>117.0</ele><time>2026-04-04T14:36:30Z</time></trkpt><trkpt lat="45.50273545321559" lon="10.933233640893135"><ele>117.0</ele><time>2026-04-04T14:36:31Z</time></trkpt><trkpt lat="45.50271785792015" lon="10.93297635175433"><ele>117.33333333333334</ele><time>2026-04-04T14:36:31.999Z</time></trkpt><trkpt lat="45.50270440901891" lon="10.93273511273194"><ele>117.66666666666667</ele><time>2026-04-04T14:36:32.999Z</time></trkpt><trkpt lat="45.50269535524164" lon="10.93252088937791"><ele>118.0</ele><time>2026-04-04T14:36:33.999Z</time></trkpt><trkpt lat="45.50268009974003" lon="10.932310965515017"><ele>118.0</ele><time>2026-04-04T14:36:34.999Z</time></trkpt><trkpt lat="45.50266542757364" lon="10.932108961410597"><ele>118.0</ele><time>2026-04-04T14:36:35.999Z</time></trkpt><trkpt lat="45.50265382120721" lon="10.93191598886643"><ele>118.0</ele><time>2026-04-04T14:36:36.999Z</time></trkpt><trkpt lat="45.50264255008221" lon="10.931732479254727"><ele>118.0</ele><time>2026-04-04T14:36:37.999Z</time></trkpt><trkpt lat="45.50263035715963" lon="10.9315536402075"><ele>117.75</ele><time>2026-04-04T14:36:38.999Z</time></trkpt><trkpt lat="45.502620612223424" lon="10.93136787745276"><ele>117.5</ele><time>2026-04-04T14:36:39.999Z</time></trkpt><trkpt lat="45.502604982453896" lon="10.93118738536961"><ele>117.25</ele><time>2026-04-04T14:36:40.999Z</time></trkpt><trkpt lat="45.502589268589006" lon="10.931000115897504"><ele>117.0</ele><time>2026-04-04T14:36:41.999Z</time></trkpt><trkpt lat="45.50257398526059" lon="10.930811713291284"><ele>117.0</ele><time>2026-04-04T14:36:42.999Z</time></trkpt><trkpt lat="45.5025622341409" lon="10.930628909906636"><ele>117.0</ele><time>2026-04-04T14:36:43.999Z</time></trkpt><trkpt lat="45.502547541768806" lon="10.930443583679486"><ele>117.0</ele><time>2026-04-04T14:36:44.999Z</time></trkpt><trkpt lat="45.50253489624051" lon="10.93025217302955"><ele>117.0</ele><time>2026-04-04T14:36:45.999Z</time></trkpt><trkpt lat="45.502517760391314" lon="10.930052638491123"><ele>116.5</ele><time>2026-04-04T14:36:46.999Z</time></trkpt><trkpt lat="45.502502736393815" lon="10.929859224664066"><ele>116.0</ele><time>2026-04-04T14:36:47.999Z</time></trkpt><trkpt lat="45.50249234591557" lon="10.9296727415161"><ele>115.5</ele><time>2026-04-04T14:36:48.999Z</time></trkpt><trkpt lat="45.502487569784286" lon="10.929485755570484"><ele>115.0</ele><time>2026-04-04T14:36:49.999Z</time></trkpt><trkpt lat="45.502484358155385" lon="10.929295092736123"><ele>114.75</ele><time>2026-04-04T14:36:50.999Z</time></trkpt><trkpt lat="45.50248277137057" lon="10.929106563727082"><ele>114.5</ele><time>2026-04-04T14:36:51.999Z</time></trkpt><trkpt lat="45.502481927006286" lon="10.928919816579757"><ele>114.25</ele><time>2026-04-04T14:36:52.999Z</time></trkpt><trkpt lat="45.502481558660584" lon="10.928733084351492"><ele>114.0</ele><time>2026-04-04T14:36:53.999Z</time></trkpt><trkpt lat="45.50247924897431" lon="10.928545834132207"><ele>114.0</ele><time>2026-04-04T14:36:54.999Z</time></trkpt><trkpt lat="45.50247897469674" lon="10.928357401332978"><ele>114.0</ele><time>2026-04-04T14:36:55.999Z</time></trkpt><trkpt lat="45.50248152576959" lon="10.928167450728035"><ele>114.0</ele><time>2026-04-04T14:36:56.999Z</time></trkpt><trkpt lat="45.50248117111448" lon="10.927982434996139"><ele>114.0</ele><time>2026-04-04T14:36:57.999Z</time></trkpt><trkpt lat="45.502480460944625" lon="10.927791272922326"><ele>114.0</ele><time>2026-04-04T14:36:58.999Z</time></trkpt><trkpt lat="45.50247717054342" lon="10.927599425000496"><ele>114.0</ele><time>2026-04-04T14:36:59.999Z</time></trkpt><trkpt lat="45.502476927673285" lon="10.927412575859224"><ele>114.0</ele><time>2026-04-04T14:37:00.999Z</time></trkpt><trkpt lat="45.502476623611635" lon="10.927231289790974"><ele>114.0</ele><time>2026-04-04T14:37:01.999Z</time></trkpt><trkpt lat="45.50247515693641" lon="10.927058246587857"><ele>113.75</ele><time>2026-04-04T14:37:02.999Z</time></trkpt><trkpt lat="45.50247392984993" lon="10.926889505947983"><ele>113.5</ele><time>2026-04-04T14:37:03.999Z</time></trkpt><trkpt lat="45.50247535683587" lon="10.926724417515743"><ele>113.25</ele><time>2026-04-04T14:37:04.999Z</time></trkpt><trkpt lat="45.50247390905849" lon="10.92656061391959"><ele>113.0</ele><time>2026-04-04T14:37:05.999Z</time></trkpt><trkpt lat="45.50247304111539" lon="10.926397922556092"><ele>112.80000000000001</ele><time>2026-04-04T14:37:06.999Z</time></trkpt><trkpt lat="45.50247037827835" lon="10.926237409551486"><ele>112.60000000000001</ele><time>2026-04-04T14:37:07.999Z</time></trkpt><trkpt lat="45.50246958803803" lon="10.92608177273386"><ele>112.39999999999999</ele><time>2026-04-04T14:37:08.999Z</time></trkpt><trkpt lat="45.50246818774857" lon="10.92592841143444"><ele>112.19999999999999</ele><time>2026-04-04T14:37:09.999Z</time></trkpt><trkpt lat="45.502466966474124" lon="10.925763448604755"><ele>112.0</ele><time>2026-04-04T14:37:10.999Z</time></trkpt><trkpt lat="45.50246107789666" lon="10.925589159951281"><ele>111.75</ele><time>2026-04-04T14:37:11.999Z</time></trkpt><trkpt lat="45.50245888574666" lon="10.925407642714285"><ele>111.5</ele><time>2026-04-04T14:37:12.999Z</time></trkpt><trkpt lat="45.5024590448102" lon="10.925220332619178"><ele>111.25</ele><time>2026-04-04T14:37:13.999Z</time></trkpt><trkpt lat="45.50245764835034" lon="10.925035396148582"><ele>111.0</ele><time>2026-04-04T14:37:14.999Z</time></trkpt><trkpt lat="45.50245667737625" lon="10.924851786794596"><ele>111.0</ele><time>2026-04-04T14:37:15.999Z</time></trkpt><trkpt lat="45.50245620806379" lon="10.924671642843206"><ele>111.0</ele><time>2026-04-04T14:37:16.999Z</time></trkpt><trkpt lat="45.502452163438" lon="10.924492851480116"><ele>111.0</ele><time>2026-04-04T14:37:17.999Z</time></trkpt><trkpt lat="45.50244937825634" lon="10.924311532195075"><ele>111.0</ele><time>2026-04-04T14:37:18.999Z</time></trkpt><trkpt lat="45.50246486457058" lon="10.924126185845369"><ele>111.0</ele><time>2026-04-04T14:37:19.999Z</time></trkpt><trkpt lat="45.502450131935966" lon="10.923938883548326"><ele>111.0</ele><time>2026-04-04T14:37:20.999Z</time></trkpt><trkpt lat="45.502448521610326" lon="10.923749162506034"><ele>111.0</ele><time>2026-04-04T14:37:21.999Z</time></trkpt><trkpt lat="45.50244888653895" lon="10.923556287562192"><ele>111.0</ele><time>2026-04-04T14:37:22.999Z</time></trkpt><trkpt lat="45.50244866860942" lon="10.92336136016972"><ele>110.75</ele><time>2026-04-04T14:37:23.999Z</time></trkpt><trkpt lat="45.50244963324501" lon="10.92317850275541"><ele>110.5</ele><time>2026-04-04T14:37:24.999Z</time></trkpt><trkpt lat="45.50244957676892" lon="10.923006535610584"><ele>110.25</ele><time>2026-04-04T14:37:25.999Z</time></trkpt><trkpt lat="45.50244562893405" lon="10.922843869784264"><ele>110.0</ele><time>2026-04-04T14:37:26.999Z</time></trkpt><trkpt lat="45.50244716768786" lon="10.922684507745505"><ele>110.0</ele><time>2026-04-04T14:37:27.999Z</time></trkpt><trkpt lat="45.5024473919257" lon="10.92252760395614"><ele>110.0</ele><time>2026-04-04T14:37:28.999Z</time></trkpt><trkpt lat="45.50244468707668" lon="10.92238345468725"><ele>110.0</ele><time>2026-04-04T14:37:29.998Z</time></trkpt><trkpt lat="45.50244520259185" lon="10.922249451976963"><ele>110.0</ele><time>2026-04-04T14:37:30.998Z</time></trkpt><trkpt lat="45.50244665066393" lon="10.922125104340383"><ele>110.0</ele><time>2026-04-04T14:37:31.998Z</time></trkpt><trkpt lat="45.50244547637108" lon="10.921994538525501"><ele>110.0</ele><time>2026-04-04T14:37:32.998Z</time></trkpt><trkpt lat="45.50244637152733" lon="10.921856434930481"><ele>110.0</ele><time>2026-04-04T14:37:33.998Z</time></trkpt><trkpt lat="45.50244766215601" lon="10.92173413332248"><ele>110.0</ele><time>2026-04-04T14:37:34.998Z</time></trkpt><trkpt lat="45.50244775927066" lon="10.92162755216394"><ele>110.0</ele><time>2026-04-04T14:37:35.998Z</time></trkpt><trkpt lat="45.502448037950295" lon="10.921475303490888"><ele>110.0</ele><time>2026-04-04T14:37:37.998Z</time></trkpt><trkpt lat="45.50244922139744" lon="10.921340867233294"><ele>109.8</ele><time>2026-04-04T14:37:39.998Z</time></trkpt><trkpt lat="45.50245319350356" lon="10.921168806928286"><ele>109.6</ele><time>2026-04-04T14:37:41.998Z</time></trkpt><trkpt lat="45.50245211134087" lon="10.92106968764247"><ele>109.4</ele><time>2026-04-04T14:37:42.998Z</time></trkpt><trkpt lat="45.5024522436114" lon="10.920979854273089"><ele>109.2</ele><time>2026-04-04T14:37:43.998Z</time></trkpt><trkpt lat="45.50245685871823" lon="10.920823655280936"><ele>109.0</ele><time>2026-04-04T14:37:45.998Z</time></trkpt><trkpt lat="45.502455394917995" lon="10.920638096910515"><ele>109.0</ele><time>2026-04-04T14:37:47.998Z</time></trkpt><trkpt lat="45.5024530168575" lon="10.920540853297766"><ele>109.0</ele><time>2026-04-04T14:37:48.998Z</time></trkpt><trkpt lat="45.502453914065086" lon="10.92044898945333"><ele>109.0</ele><time>2026-04-04T14:37:49.998Z</time></trkpt><trkpt lat="45.50245550988279" lon="10.92027688430418"><ele>109.0</ele><time>2026-04-04T14:37:51.998Z</time></trkpt><trkpt lat="45.502455390664885" lon="10.920097838238652"><ele>109.0</ele><time>2026-04-04T14:37:53.998Z</time></trkpt><trkpt lat="45.50245912550747" lon="10.91991982230217"><ele>109.2</ele><time>2026-04-04T14:37:56Z</time></trkpt><trkpt lat="45.50246387539037" lon="10.919757194869392"><ele>109.4</ele><time>2026-04-04T14:37:58Z</time></trkpt><trkpt lat="45.50246350674885" lon="10.919628393880133"><ele>109.6</ele><time>2026-04-04T14:38:00Z</time></trkpt><trkpt lat="45.502465782083014" lon="10.919527942572364"><ele>109.8</ele><time>2026-04-04T14:38:03Z</time></trkpt><trkpt lat="45.502470484495234" lon="10.919391530860386"><ele>110.0</ele><time>2026-04-04T14:38:05Z</time></trkpt><trkpt lat="45.50246441389643" lon="10.919214655915995"><ele>109.99999999999999</ele><time>2026-04-04T14:38:07Z</time></trkpt><trkpt lat="45.50245778623593" lon="10.919113909407232"><ele>110.0</ele><time>2026-04-04T14:38:08Z</time></trkpt><trkpt lat="45.50244918742771" lon="10.919003082461275"><ele>110.0</ele><time>2026-04-04T14:38:09Z</time></trkpt><trkpt lat="45.50244406618315" lon="10.918889208861696"><ele>110.0</ele><time>2026-04-04T14:38:10Z</time></trkpt><trkpt lat="45.50244394381899" lon="10.918771373152245"><ele>109.99999999999999</ele><time>2026-04-04T14:38:11Z</time></trkpt><trkpt lat="45.50244549161594" lon="10.91864770924362"><ele>110.0</ele><time>2026-04-04T14:38:12Z</time></trkpt><trkpt lat="45.50245186306639" lon="10.91852155734828"><ele>109.8</ele><time>2026-04-04T14:38:13Z</time></trkpt><trkpt lat="45.50246690762288" lon="10.91839140835373"><ele>109.6</ele><time>2026-04-04T14:38:14Z</time></trkpt><trkpt lat="45.50248776243109" lon="10.918257834460613"><ele>109.4</ele><time>2026-04-04T14:38:15Z</time></trkpt><trkpt lat="45.50251376978214" lon="10.918124049863133"><ele>109.2</ele><time>2026-04-04T14:38:16Z</time></trkpt><trkpt lat="45.502550570202416" lon="10.917988897586175"><ele>109.0</ele><time>2026-04-04T14:38:17Z</time></trkpt><trkpt lat="45.502599620199604" lon="10.917848897592256"><ele>109.0</ele><time>2026-04-04T14:38:18Z</time></trkpt><trkpt lat="45.502657507590214" lon="10.917718808025628"><ele>109.0</ele><time>2026-04-04T14:38:19Z</time></trkpt><trkpt lat="45.502727697954086" lon="10.917599121479068"><ele>109.0</ele><time>2026-04-04T14:38:20Z</time></trkpt><trkpt lat="45.502808440686536" lon="10.917491338624824"><ele>109.0</ele><time>2026-04-04T14:38:21Z</time></trkpt><trkpt lat="45.50290281781804" lon="10.917385365961618"><ele>109.0</ele><time>2026-04-04T14:38:22Z</time></trkpt><trkpt lat="45.503012225702086" lon="10.9172853080612"><ele>109.25</ele><time>2026-04-04T14:38:23Z</time></trkpt><trkpt lat="45.50312769384755" lon="10.917198088126337"><ele>109.5</ele><time>2026-04-04T14:38:24Z</time></trkpt><trkpt lat="45.503251555374106" lon="10.91711604090684"><ele>109.75</ele><time>2026-04-04T14:38:25Z</time></trkpt><trkpt lat="45.50337678244564" lon="10.917045311713242"><ele>110.0</ele><time>2026-04-04T14:38:26Z</time></trkpt><trkpt lat="45.50349698855534" lon="10.91697978204614"><ele>110.0</ele><time>2026-04-04T14:38:27Z</time></trkpt><trkpt lat="45.50361352834117" lon="10.916911594235964"><ele>110.0</ele><time>2026-04-04T14:38:28Z</time></trkpt><trkpt lat="45.503724572028396" lon="10.916845286383491"><ele>110.0</ele><time>2026-04-04T14:38:29Z</time></trkpt><trkpt lat="45.5038348011547" lon="10.916783894553836"><ele>110.0</ele><time>2026-04-04T14:38:30Z</time></trkpt><trkpt lat="45.503946619081674" lon="10.916720331595894"><ele>110.5</ele><time>2026-04-04T14:38:31Z</time></trkpt><trkpt lat="45.50406109595818" lon="10.916656476723281"><ele>111.0</ele><time>2026-04-04T14:38:32Z</time></trkpt><trkpt lat="45.50417410800032" lon="10.916593045965742"><ele>111.5</ele><time>2026-04-04T14:38:33Z</time></trkpt><trkpt lat="45.504287563307905" lon="10.916533441686225"><ele>112.0</ele><time>2026-04-04T14:38:34Z</time></trkpt><trkpt lat="45.50439869892279" lon="10.916469982723383"><ele>112.0</ele><time>2026-04-04T14:38:35Z</time></trkpt><trkpt lat="45.50451727984052" lon="10.916414535042495"><ele>112.0</ele><time>2026-04-04T14:38:36Z</time></trkpt><trkpt lat="45.50463709401843" lon="10.916349419304288"><ele>112.0</ele><time>2026-04-04T14:38:37Z</time></trkpt><trkpt lat="45.504764687885825" lon="10.916268910281232"><ele>112.0</ele><time>2026-04-04T14:38:38Z</time></trkpt><trkpt lat="45.50488525847305" lon="10.916183522431895"><ele>112.25</ele><time>2026-04-04T14:38:38.999Z</time></trkpt><trkpt lat="45.5050151799775" lon="10.916121024812947"><ele>112.5</ele><time>2026-04-04T14:38:39.999Z</time></trkpt><trkpt lat="45.50514635149232" lon="10.916045801093444"><ele>112.75</ele><time>2026-04-04T14:38:40.999Z</time></trkpt><trkpt lat="45.50526760090219" lon="10.915956590283622"><ele>113.0</ele><time>2026-04-04T14:38:41.999Z</time></trkpt><trkpt lat="45.50539760690132" lon="10.915889172674571"><ele>113.0</ele><time>2026-04-04T14:38:42.999Z</time></trkpt><trkpt lat="45.50552747229724" lon="10.915809789428502"><ele>113.0</ele><time>2026-04-04T14:38:43.999Z</time></trkpt><trkpt lat="45.505660532146045" lon="10.915733020691853"><ele>113.0</ele><time>2026-04-04T14:38:44.999Z</time></trkpt><trkpt lat="45.5057934968246" lon="10.915655247164459"><ele>113.0</ele><time>2026-04-04T14:38:45.999Z</time></trkpt><trkpt lat="45.50592442523779" lon="10.915580733909941"><ele>113.0</ele><time>2026-04-04T14:38:46.999Z</time></trkpt><trkpt lat="45.506055850955164" lon="10.91550616412058"><ele>113.0</ele><time>2026-04-04T14:38:47.999Z</time></trkpt><trkpt lat="45.50618229640469" lon="10.915436883379424"><ele>113.0</ele><time>2026-04-04T14:38:48.999Z</time></trkpt><trkpt lat="45.506306594842" lon="10.91536590934111"><ele>113.0</ele><time>2026-04-04T14:38:49.999Z</time></trkpt><trkpt lat="45.506433420367046" lon="10.915293867641552"><ele>113.25</ele><time>2026-04-04T14:38:50.999Z</time></trkpt><trkpt lat="45.5065617185998" lon="10.915219246213976"><ele>113.5</ele><time>2026-04-04T14:38:51.999Z</time></trkpt><trkpt lat="45.506693601647186" lon="10.915144628257496"><ele>113.75</ele><time>2026-04-04T14:38:52.999Z</time></trkpt><trkpt lat="45.50682675926894" lon="10.915069123797368"><ele>114.0</ele><time>2026-04-04T14:38:53.999Z</time></trkpt><trkpt lat="45.506966339689" lon="10.914994130178004"><ele>114.66666666666666</ele><time>2026-04-04T14:38:54.999Z</time></trkpt><trkpt lat="45.50710510865431" lon="10.914913642763677"><ele>115.33333333333333</ele><time>2026-04-04T14:38:55.999Z</time></trkpt><trkpt lat="45.50724566556249" lon="10.914828460436642"><ele>116.0</ele><time>2026-04-04T14:38:56.999Z</time></trkpt><trkpt lat="45.50738800753667" lon="10.914745865804994"><ele>116.0</ele><time>2026-04-04T14:38:57.999Z</time></trkpt><trkpt lat="45.50753102574282" lon="10.914665801751614"><ele>116.0</ele><time>2026-04-04T14:38:58.999Z</time></trkpt><trkpt lat="45.50767399203792" lon="10.914583190093092"><ele>116.0</ele><time>2026-04-04T14:38:59.999Z</time></trkpt><trkpt lat="45.50781555300236" lon="10.914502260752279"><ele>116.66666666666666</ele><time>2026-04-04T14:39:00.999Z</time></trkpt><trkpt lat="45.50796019790323" lon="10.914421541607084"><ele>117.33333333333334</ele><time>2026-04-04T14:39:01.999Z</time></trkpt><trkpt lat="45.50810994091642" lon="10.914344147871674"><ele>118.0</ele><time>2026-04-04T14:39:02.999Z</time></trkpt><trkpt lat="45.50826314118643" lon="10.914267660493637"><ele>117.33333333333334</ele><time>2026-04-04T14:39:03.999Z</time></trkpt><trkpt lat="45.508415777807954" lon="10.914192264142178"><ele>116.66666666666666</ele><time>2026-04-04T14:39:04.999Z</time></trkpt><trkpt lat="45.50857240871517" lon="10.91412449145713"><ele>116.0</ele><time>2026-04-04T14:39:05.999Z</time></trkpt><trkpt lat="45.50873719396639" lon="10.91405892106006"><ele>116.0</ele><time>2026-04-04T14:39:06.999Z</time></trkpt><trkpt lat="45.50891198047449" lon="10.913994116298603"><ele>116.0</ele><time>2026-04-04T14:39:07.999Z</time></trkpt><trkpt lat="45.509089325297545" lon="10.913938245546165"><ele>116.0</ele><time>2026-04-04T14:39:08.999Z</time></trkpt><trkpt lat="45.509267524770884" lon="10.913887762352344"><ele>116.0</ele><time>2026-04-04T14:39:09.999Z</time></trkpt><trkpt lat="45.50943187168676" lon="10.913838896159778"><ele>116.0</ele><time>2026-04-04T14:39:10.999Z</time></trkpt><trkpt lat="45.50958299162628" lon="10.913809154609398"><ele>116.0</ele><time>2026-04-04T14:39:11.999Z</time></trkpt><trkpt lat="45.50974061354133" lon="10.913779773909875"><ele>117.0</ele><time>2026-04-04T14:39:12.999Z</time></trkpt><trkpt lat="45.50990341787199" lon="10.913753404906338"><ele>118.0</ele><time>2026-04-04T14:39:13.999Z</time></trkpt><trkpt lat="45.51007220862508" lon="10.913730300191116"><ele>119.0</ele><time>2026-04-04T14:39:14.999Z</time></trkpt><trkpt lat="45.510244229687935" lon="10.91370974554579"><ele>119.66666666666666</ele><time>2026-04-04T14:39:15.999Z</time></trkpt><trkpt lat="45.51041687174751" lon="10.913726825467691"><ele>120.33333333333334</ele><time>2026-04-04T14:39:16.999Z</time></trkpt><trkpt lat="45.510589910740585" lon="10.913723976501021"><ele>121.0</ele><time>2026-04-04T14:39:17.999Z</time></trkpt><trkpt lat="45.510760658974164" lon="10.913721167282148"><ele>121.0</ele><time>2026-04-04T14:39:18.999Z</time></trkpt><trkpt lat="45.510923907336675" lon="10.913718922885128"><ele>121.0</ele><time>2026-04-04T14:39:19.999Z</time></trkpt><trkpt lat="45.51108021865367" lon="10.913717497553035"><ele>121.0</ele><time>2026-04-04T14:39:20.999Z</time></trkpt><trkpt lat="45.51123424958004" lon="10.913716092990539"><ele>121.33333333333334</ele><time>2026-04-04T14:39:21.999Z</time></trkpt><trkpt lat="45.51139228827757" lon="10.913716642241527"><ele>121.66666666666666</ele><time>2026-04-04T14:39:22.999Z</time></trkpt><trkpt lat="45.5115518898882" lon="10.913716247112596"><ele>122.0</ele><time>2026-04-04T14:39:23.999Z</time></trkpt><trkpt lat="45.51171079065392" lon="10.913715853719319"><ele>122.0</ele><time>2026-04-04T14:39:24.999Z</time></trkpt><trkpt lat="45.511875213463895" lon="10.913715446654647"><ele>122.0</ele><time>2026-04-04T14:39:25.999Z</time></trkpt><trkpt lat="45.512039624622716" lon="10.913715039618753"><ele>122.0</ele><time>2026-04-04T14:39:26.999Z</time></trkpt><trkpt lat="45.512206796708895" lon="10.91371462574811"><ele>122.66666666666666</ele><time>2026-04-04T14:39:27.999Z</time></trkpt><trkpt lat="45.512376953958594" lon="10.913714204486944"><ele>123.33333333333334</ele><time>2026-04-04T14:39:28.999Z</time></trkpt><trkpt lat="45.51254884638718" lon="10.913713778930077"><ele>124.0</ele><time>2026-04-04T14:39:29.999Z</time></trkpt><trkpt lat="45.512723872698736" lon="10.913713345614655"><ele>124.0</ele><time>2026-04-04T14:39:30.999Z</time></trkpt><trkpt lat="45.51289929978323" lon="10.913712911306718"><ele>124.0</ele><time>2026-04-04T14:39:31.999Z</time></trkpt><trkpt lat="45.51307267418552" lon="10.913712774115124"><ele>124.0</ele><time>2026-04-04T14:39:32.999Z</time></trkpt><trkpt lat="45.5132499796497" lon="10.913712774114172"><ele>124.66666666666667</ele><time>2026-04-04T14:39:33.999Z</time></trkpt><trkpt lat="45.51343064385812" lon="10.913712774112632"><ele>125.33333333333334</ele><time>2026-04-04T14:39:34.999Z</time></trkpt><trkpt lat="45.51361300866922" lon="10.913712774110726"><ele>126.0</ele><time>2026-04-04T14:39:35.998Z</time></trkpt><trkpt lat="45.51379443002302" lon="10.913712774109309"><ele>127.33333333333334</ele><time>2026-04-04T14:39:36.998Z</time></trkpt><trkpt lat="45.513966373830435" lon="10.913712774106703"><ele>128.66666666666669</ele><time>2026-04-04T14:39:37.998Z</time></trkpt><trkpt lat="45.514123338901726" lon="10.913712774104543"><ele>130.0</ele><time>2026-04-04T14:39:38.998Z</time></trkpt><trkpt lat="45.51427599760374" lon="10.913712774102573"><ele>130.0</ele><time>2026-04-04T14:39:39.998Z</time></trkpt><trkpt lat="45.514438666047965" lon="10.91371277410109"><ele>130.0</ele><time>2026-04-04T14:39:40.998Z</time></trkpt><trkpt lat="45.51460782369301" lon="10.91371277409844"><ele>130.0</ele><time>2026-04-04T14:39:41.998Z</time></trkpt><trkpt lat="45.5147838753679" lon="10.913712300690309"><ele>131.33333333333334</ele><time>2026-04-04T14:39:42.998Z</time></trkpt><trkpt lat="45.51496410911218" lon="10.913711420577105"><ele>132.66666666666666</ele><time>2026-04-04T14:39:43.998Z</time></trkpt><trkpt lat="45.51514844206164" lon="10.913711006561568"><ele>134.0</ele><time>2026-04-04T14:39:44.998Z</time></trkpt><trkpt lat="45.51533134102785" lon="10.913710622067859"><ele>135.0</ele><time>2026-04-04T14:39:45.998Z</time></trkpt><trkpt lat="45.51551070808213" lon="10.91371024702856"><ele>136.0</ele><time>2026-04-04T14:39:46.998Z</time></trkpt><trkpt lat="45.515685000631436" lon="10.913708668883714"><ele>137.0</ele><time>2026-04-04T14:39:47.998Z</time></trkpt><trkpt lat="45.51585582628789" lon="10.913706076106084"><ele>137.0</ele><time>2026-04-04T14:39:48.998Z</time></trkpt><trkpt lat="45.516031624137554" lon="10.913703304258881"><ele>137.0</ele><time>2026-04-04T14:39:49.998Z</time></trkpt><trkpt lat="45.516201488345075" lon="10.91367237985137"><ele>137.0</ele><time>2026-04-04T14:39:50.998Z</time></trkpt><trkpt lat="45.51635400490229" lon="10.913621418994513"><ele>137.25</ele><time>2026-04-04T14:39:51.998Z</time></trkpt><trkpt lat="45.5164995053418" lon="10.913541829198591"><ele>137.5</ele><time>2026-04-04T14:39:52.998Z</time></trkpt><trkpt lat="45.516622350528124" lon="10.913426468182408"><ele>137.75</ele><time>2026-04-04T14:39:53.998Z</time></trkpt><trkpt lat="45.51673831579198" lon="10.913327110210119"><ele>138.0</ele><time>2026-04-04T14:39:54.998Z</time></trkpt><trkpt lat="45.51683955104097" lon="10.913212027020148"><ele>138.0</ele><time>2026-04-04T14:39:55.998Z</time></trkpt><trkpt lat="45.516932756430585" lon="10.913083494817933"><ele>138.0</ele><time>2026-04-04T14:39:56.998Z</time></trkpt><trkpt lat="45.51702538403919" lon="10.912939526040025"><ele>138.0</ele><time>2026-04-04T14:39:57.998Z</time></trkpt><trkpt lat="45.517108594626336" lon="10.912785809641052"><ele>138.0</ele><time>2026-04-04T14:39:58.998Z</time></trkpt><trkpt lat="45.51718231016731" lon="10.9126266672872"><ele>138.0</ele><time>2026-04-04T14:39:59.998Z</time></trkpt><trkpt lat="45.517243426777945" lon="10.91246242858724"><ele>138.0</ele><time>2026-04-04T14:40:00.998Z</time></trkpt><trkpt lat="45.51730126794268" lon="10.912295717139626"><ele>138.0</ele><time>2026-04-04T14:40:02Z</time></trkpt><trkpt lat="45.517355073549695" lon="10.912127655773407"><ele>138.0</ele><time>2026-04-04T14:40:03Z</time></trkpt><trkpt lat="45.517411738693035" lon="10.911952053421441"><ele>138.0</ele><time>2026-04-04T14:40:04Z</time></trkpt><trkpt lat="45.51747076941698" lon="10.911768156487295"><ele>138.0</ele><time>2026-04-04T14:40:05Z</time></trkpt><trkpt lat="45.51753214567498" lon="10.911589470755715"><ele>138.0</ele><time>2026-04-04T14:40:06Z</time></trkpt><trkpt lat="45.51759396504689" lon="10.911417248745497"><ele>138.0</ele><time>2026-04-04T14:40:07Z</time></trkpt><trkpt lat="45.51765464508722" lon="10.911240791908368"><ele>138.0</ele><time>2026-04-04T14:40:08Z</time></trkpt><trkpt lat="45.51770897148311" lon="10.91107004983192"><ele>138.0</ele><time>2026-04-04T14:40:09Z</time></trkpt><trkpt lat="45.51776300865815" lon="10.910900876879754"><ele>138.0</ele><time>2026-04-04T14:40:10Z</time></trkpt><trkpt lat="45.51781338868081" lon="10.910724715296933"><ele>138.0</ele><time>2026-04-04T14:40:11Z</time></trkpt><trkpt lat="45.517864726804774" lon="10.910542594951139"><ele>138.5</ele><time>2026-04-04T14:40:12Z</time></trkpt><trkpt lat="45.51791033855831" lon="10.910357651729408"><ele>139.0</ele><time>2026-04-04T14:40:13Z</time></trkpt><trkpt lat="45.517947728154226" lon="10.910177006780273"><ele>139.5</ele><time>2026-04-04T14:40:14Z</time></trkpt><trkpt lat="45.51798150613119" lon="10.910010360955486"><ele>140.0</ele><time>2026-04-04T14:40:15Z</time></trkpt><trkpt lat="45.51800251382121" lon="10.909851867210573"><ele>140.0</ele><time>2026-04-04T14:40:16Z</time></trkpt><trkpt lat="45.51801923130567" lon="10.909689813288958"><ele>140.0</ele><time>2026-04-04T14:40:17Z</time></trkpt><trkpt lat="45.51803327800135" lon="10.909518527803566"><ele>140.0</ele><time>2026-04-04T14:40:18Z</time></trkpt><trkpt lat="45.51805012768703" lon="10.909352867372409"><ele>140.0</ele><time>2026-04-04T14:40:19Z</time></trkpt><trkpt lat="45.518061243393156" lon="10.909195412045944"><ele>140.0</ele><time>2026-04-04T14:40:20Z</time></trkpt><trkpt lat="45.51806816572827" lon="10.909049813412482"><ele>140.0</ele><time>2026-04-04T14:40:21Z</time></trkpt><trkpt lat="45.51807765805638" lon="10.908910974701447"><ele>140.0</ele><time>2026-04-04T14:40:22Z</time></trkpt><trkpt lat="45.51808821393664" lon="10.908779962125378"><ele>140.0</ele><time>2026-04-04T14:40:23Z</time></trkpt><trkpt lat="45.51809413180733" lon="10.908657917040008"><ele>140.0</ele><time>2026-04-04T14:40:24Z</time></trkpt><trkpt lat="45.51809789644452" lon="10.908545360160508"><ele>140.0</ele><time>2026-04-04T14:40:25Z</time></trkpt><trkpt lat="45.5181016721247" lon="10.908438283826612"><ele>140.0</ele><time>2026-04-04T14:40:26Z</time></trkpt><trkpt lat="45.51810343180147" lon="10.908340139026587"><ele>140.0</ele><time>2026-04-04T14:40:27Z</time></trkpt><trkpt lat="45.51810538886872" lon="10.90824941366266"><ele>140.0</ele><time>2026-04-04T14:40:28Z</time></trkpt><trkpt lat="45.51810819470073" lon="10.908121610694481"><ele>140.0</ele><time>2026-04-04T14:40:30Z</time></trkpt><trkpt lat="45.51810591195568" lon="10.907980645783582"><ele>140.0</ele><time>2026-04-04T14:40:35Z</time></trkpt><trkpt lat="45.518103547064804" lon="10.907884197544073"><ele>140.0</ele><time>2026-04-04T14:40:36Z</time></trkpt><trkpt lat="45.518095579634846" lon="10.907752379810324"><ele>140.0</ele><time>2026-04-04T14:40:37Z</time></trkpt><trkpt lat="45.51807268501747" lon="10.907593745546686"><ele>140.0</ele><time>2026-04-04T14:40:38Z</time></trkpt><trkpt lat="45.51802980953883" lon="10.90741780767302"><ele>140.0</ele><time>2026-04-04T14:40:39Z</time></trkpt><trkpt lat="45.517984819175865" lon="10.907230888011416"><ele>140.0</ele><time>2026-04-04T14:40:40Z</time></trkpt><trkpt lat="45.51793307108757" lon="10.907027170536145"><ele>140.0</ele><time>2026-04-04T14:40:41Z</time></trkpt><trkpt lat="45.51787651688247" lon="10.90681754798772"><ele>140.0</ele><time>2026-04-04T14:40:42Z</time></trkpt><trkpt lat="45.51782098015308" lon="10.906614259397605"><ele>139.0</ele><time>2026-04-04T14:40:43Z</time></trkpt><trkpt lat="45.517770367149" lon="10.906411669956206"><ele>138.0</ele><time>2026-04-04T14:40:43.999Z</time></trkpt><trkpt lat="45.517715971832175" lon="10.906211795123165"><ele>137.0</ele><time>2026-04-04T14:40:44.999Z</time></trkpt><trkpt lat="45.51765914735538" lon="10.906016801323243"><ele>136.0</ele><time>2026-04-04T14:40:45.999Z</time></trkpt><trkpt lat="45.51760519379775" lon="10.905820751489143"><ele>136.0</ele><time>2026-04-04T14:40:46.999Z</time></trkpt><trkpt lat="45.51755218049754" lon="10.905629942406183"><ele>136.0</ele><time>2026-04-04T14:40:47.999Z</time></trkpt><trkpt lat="45.51749695392442" lon="10.905435718372658"><ele>136.0</ele><time>2026-04-04T14:40:48.999Z</time></trkpt><trkpt lat="45.51744175943768" lon="10.90523663309901"><ele>136.0</ele><time>2026-04-04T14:40:49.999Z</time></trkpt><trkpt lat="45.51738526373826" lon="10.905042543808966"><ele>135.66666666666669</ele><time>2026-04-04T14:40:50.999Z</time></trkpt><trkpt lat="45.51732581945995" lon="10.904840522852192"><ele>135.33333333333334</ele><time>2026-04-04T14:40:51.999Z</time></trkpt><trkpt lat="45.517267361918385" lon="10.904632010459505"><ele>135.0</ele><time>2026-04-04T14:40:52.999Z</time></trkpt><trkpt lat="45.51721028771901" lon="10.904417726696968"><ele>135.33333333333334</ele><time>2026-04-04T14:40:53.999Z</time></trkpt><trkpt lat="45.517156140968886" lon="10.904202608147989"><ele>135.66666666666669</ele><time>2026-04-04T14:40:54.999Z</time></trkpt><trkpt lat="45.517106885715116" lon="10.903993970768537"><ele>136.0</ele><time>2026-04-04T14:40:55.999Z</time></trkpt><trkpt lat="45.51706131609052" lon="10.903791179580343"><ele>135.5</ele><time>2026-04-04T14:40:56.999Z</time></trkpt><trkpt lat="45.51701448071614" lon="10.903592609182457"><ele>135.0</ele><time>2026-04-04T14:40:57.999Z</time></trkpt><trkpt lat="45.51697004999845" lon="10.903395535563217"><ele>134.5</ele><time>2026-04-04T14:40:58.999Z</time></trkpt><trkpt lat="45.51693211596229" lon="10.903193594067"><ele>134.0</ele><time>2026-04-04T14:40:59.999Z</time></trkpt><trkpt lat="45.5168978249203" lon="10.902983381185953"><ele>134.0</ele><time>2026-04-04T14:41:00.999Z</time></trkpt><trkpt lat="45.516866674991334" lon="10.902765264694603"><ele>134.0</ele><time>2026-04-04T14:41:01.999Z</time></trkpt><trkpt lat="45.51683906218503" lon="10.90254279219849"><ele>134.0</ele><time>2026-04-04T14:41:02.999Z</time></trkpt><trkpt lat="45.51681634980082" lon="10.90231313565672"><ele>134.66666666666666</ele><time>2026-04-04T14:41:03.999Z</time></trkpt><trkpt lat="45.51679653916227" lon="10.902081227196236"><ele>135.33333333333334</ele><time>2026-04-04T14:41:04.999Z</time></trkpt><trkpt lat="45.51678141754373" lon="10.901843312653565"><ele>136.0</ele><time>2026-04-04T14:41:05.999Z</time></trkpt><trkpt lat="45.5167652297048" lon="10.901619271567014"><ele>136.0</ele><time>2026-04-04T14:41:06.999Z</time></trkpt><trkpt lat="45.51674524021925" lon="10.90141236248995"><ele>136.0</ele><time>2026-04-04T14:41:07.999Z</time></trkpt><trkpt lat="45.516729913486685" lon="10.901208720911153"><ele>136.0</ele><time>2026-04-04T14:41:08.999Z</time></trkpt><trkpt lat="45.51671460318346" lon="10.901006558165362"><ele>136.0</ele><time>2026-04-04T14:41:09.999Z</time></trkpt><trkpt lat="45.516697577918976" lon="10.90081005503118"><ele>135.0</ele><time>2026-04-04T14:41:10.999Z</time></trkpt><trkpt lat="45.51668181603267" lon="10.900619606379733"><ele>134.0</ele><time>2026-04-04T14:41:11.999Z</time></trkpt><trkpt lat="45.51666835329076" lon="10.90043100362166"><ele>133.0</ele><time>2026-04-04T14:41:12.999Z</time></trkpt><trkpt lat="45.51665467552724" lon="10.90024325412779"><ele>132.0</ele><time>2026-04-04T14:41:13.999Z</time></trkpt><trkpt lat="45.51664024558076" lon="10.900065545153318"><ele>131.75</ele><time>2026-04-04T14:41:14.999Z</time></trkpt><trkpt lat="45.51662892771739" lon="10.89989414657071"><ele>131.5</ele><time>2026-04-04T14:41:15.999Z</time></trkpt><trkpt lat="45.51661833585497" lon="10.899719407141015"><ele>131.25</ele><time>2026-04-04T14:41:16.999Z</time></trkpt><trkpt lat="45.51660513745407" lon="10.899543109319971"><ele>131.0</ele><time>2026-04-04T14:41:17.999Z</time></trkpt><trkpt lat="45.516590930427405" lon="10.89937045333557"><ele>130.75</ele><time>2026-04-04T14:41:18.999Z</time></trkpt><trkpt lat="45.5165754740674" lon="10.899199903508102"><ele>130.5</ele><time>2026-04-04T14:41:19.999Z</time></trkpt><trkpt lat="45.51656065610633" lon="10.899024015106143"><ele>130.25</ele><time>2026-04-04T14:41:20.999Z</time></trkpt><trkpt lat="45.51654450854041" lon="10.89884347108507"><ele>130.0</ele><time>2026-04-04T14:41:21.999Z</time></trkpt><trkpt lat="45.516527627058956" lon="10.898663491412"><ele>130.0</ele><time>2026-04-04T14:41:22.999Z</time></trkpt><trkpt lat="45.51651508839952" lon="10.898479895371922"><ele>130.0</ele><time>2026-04-04T14:41:23.999Z</time></trkpt><trkpt lat="45.516502858371176" lon="10.898298840711128"><ele>130.0</ele><time>2026-04-04T14:41:24.999Z</time></trkpt><trkpt lat="45.516489799219045" lon="10.898119759926752"><ele>130.0</ele><time>2026-04-04T14:41:25.999Z</time></trkpt><trkpt lat="45.516476935458684" lon="10.897935731349058"><ele>130.25</ele><time>2026-04-04T14:41:26.999Z</time></trkpt><trkpt lat="45.51646147789723" lon="10.897748703587865"><ele>130.5</ele><time>2026-04-04T14:41:27.999Z</time></trkpt><trkpt lat="45.51644601923801" lon="10.897563544978905"><ele>130.75</ele><time>2026-04-04T14:41:28.999Z</time></trkpt><trkpt lat="45.516434823760164" lon="10.897378880530693"><ele>131.0</ele><time>2026-04-04T14:41:29.999Z</time></trkpt><trkpt lat="45.516421639563625" lon="10.897193755396746"><ele>131.0</ele><time>2026-04-04T14:41:30.999Z</time></trkpt><trkpt lat="45.51640645788021" lon="10.897004391517436"><ele>131.0</ele><time>2026-04-04T14:41:31.999Z</time></trkpt><trkpt lat="45.5163877902377" lon="10.896814050285613"><ele>131.0</ele><time>2026-04-04T14:41:32.999Z</time></trkpt><trkpt lat="45.51637031842784" lon="10.89662014298546"><ele>131.0</ele><time>2026-04-04T14:41:33.999Z</time></trkpt><trkpt lat="45.51635559194939" lon="10.89642645013964"><ele>131.5</ele><time>2026-04-04T14:41:34.999Z</time></trkpt><trkpt lat="45.51634039762896" lon="10.896240030001499"><ele>132.0</ele><time>2026-04-04T14:41:35.999Z</time></trkpt><trkpt lat="45.51632537223531" lon="10.896057174641895"><ele>132.5</ele><time>2026-04-04T14:41:36.999Z</time></trkpt><trkpt lat="45.51631012827535" lon="10.895874339342486"><ele>133.0</ele><time>2026-04-04T14:41:37.999Z</time></trkpt><trkpt lat="45.51629552040107" lon="10.895687680591273"><ele>133.0</ele><time>2026-04-04T14:41:38.999Z</time></trkpt><trkpt lat="45.51627945786521" lon="10.895505223806763"><ele>133.0</ele><time>2026-04-04T14:41:39.999Z</time></trkpt><trkpt lat="45.516263091911405" lon="10.895321389533215"><ele>133.0</ele><time>2026-04-04T14:41:40.999Z</time></trkpt><trkpt lat="45.51625246159479" lon="10.895141406573682"><ele>133.0</ele><time>2026-04-04T14:41:41.998Z</time></trkpt><trkpt lat="45.51623902105296" lon="10.894969408637236"><ele>133.6</ele><time>2026-04-04T14:41:42.998Z</time></trkpt><trkpt lat="45.51622517470194" lon="10.894796796936674"><ele>134.20000000000002</ele><time>2026-04-04T14:41:43.998Z</time></trkpt><trkpt lat="45.51621510550869" lon="10.894634175933058"><ele>134.8</ele><time>2026-04-04T14:41:44.998Z</time></trkpt><trkpt lat="45.51620700529821" lon="10.894486882987433"><ele>135.4</ele><time>2026-04-04T14:41:45.998Z</time></trkpt><trkpt lat="45.51620445510297" lon="10.89435243543593"><ele>136.0</ele><time>2026-04-04T14:41:46.998Z</time></trkpt><trkpt lat="45.51620851719776" lon="10.89423360032514"><ele>135.99999999999997</ele><time>2026-04-04T14:41:47.998Z</time></trkpt><trkpt lat="45.51621435543018" lon="10.894123726907765"><ele>136.0</ele><time>2026-04-04T14:41:48.998Z</time></trkpt><trkpt lat="45.51621796639486" lon="10.894027416229532"><ele>136.0</ele><time>2026-04-04T14:41:49.998Z</time></trkpt><trkpt lat="45.51621958228902" lon="10.893937225715964"><ele>136.0</ele><time>2026-04-04T14:41:50.998Z</time></trkpt><trkpt lat="45.51620629594568" lon="10.893808578605173"><ele>136.0</ele><time>2026-04-04T14:41:52.998Z</time></trkpt><trkpt lat="45.51618908632132" lon="10.893706825368424"><ele>135.99999999999997</ele><time>2026-04-04T14:41:54.998Z</time></trkpt><trkpt lat="45.51618645109175" lon="10.893615603389035"><ele>136.0</ele><time>2026-04-04T14:41:59.998Z</time></trkpt><trkpt lat="45.51620983183289" lon="10.89345489566019"><ele>136.5</ele><time>2026-04-04T14:42:06.998Z</time></trkpt><trkpt lat="45.516230406780714" lon="10.893357111699856"><ele>137.0</ele><time>2026-04-04T14:42:08Z</time></trkpt><trkpt lat="45.51625701254619" lon="10.893271560769755"><ele>137.5</ele><time>2026-04-04T14:42:09Z</time></trkpt><trkpt lat="45.51629294334311" lon="10.89318283923498"><ele>138.0</ele><time>2026-04-04T14:42:10Z</time></trkpt><trkpt lat="45.51634374688939" lon="10.893093128299352"><ele>138.5</ele><time>2026-04-04T14:42:11Z</time></trkpt><trkpt lat="45.51639798503299" lon="10.893011189623639"><ele>139.0</ele><time>2026-04-04T14:42:12Z</time></trkpt><trkpt lat="45.51645648581804" lon="10.89292537053429"><ele>139.0</ele><time>2026-04-04T14:42:13Z</time></trkpt><trkpt lat="45.51651866054748" lon="10.892840520110024"><ele>139.0</ele><time>2026-04-04T14:42:14Z</time></trkpt><trkpt lat="45.516584122674395" lon="10.892755540479097"><ele>139.0</ele><time>2026-04-04T14:42:15Z</time></trkpt><trkpt lat="45.51664999354767" lon="10.892669958040878"><ele>139.0</ele><time>2026-04-04T14:42:16Z</time></trkpt><trkpt lat="45.51671585296766" lon="10.892581182215778"><ele>139.0</ele><time>2026-04-04T14:42:17Z</time></trkpt><trkpt lat="45.516781677098436" lon="10.892493481775192"><ele>139.0</ele><time>2026-04-04T14:42:18Z</time></trkpt><trkpt lat="45.51683848371169" lon="10.892411025631015"><ele>139.16666666666669</ele><time>2026-04-04T14:42:19Z</time></trkpt><trkpt lat="45.516895363958305" lon="10.89233449796066"><ele>139.33333333333334</ele><time>2026-04-04T14:42:20Z</time></trkpt><trkpt lat="45.516955485168836" lon="10.89224969570212"><ele>139.5</ele><time>2026-04-04T14:42:21Z</time></trkpt><trkpt lat="45.51701692710195" lon="10.892160904623003"><ele>139.66666666666666</ele><time>2026-04-04T14:42:22Z</time></trkpt><trkpt lat="45.51708211231779" lon="10.892066391496117"><ele>139.83333333333331</ele><time>2026-04-04T14:42:23Z</time></trkpt><trkpt lat="45.51715188767121" lon="10.891971510972674"><ele>140.0</ele><time>2026-04-04T14:42:24Z</time></trkpt><trkpt lat="45.517222557454495" lon="10.891876176285253"><ele>140.16666666666666</ele><time>2026-04-04T14:42:25Z</time></trkpt><trkpt lat="45.51729088805384" lon="10.891788468691226"><ele>140.33333333333331</ele><time>2026-04-04T14:42:26Z</time></trkpt><trkpt lat="45.51735531196344" lon="10.891701288770353"><ele>140.5</ele><time>2026-04-04T14:42:27Z</time></trkpt><trkpt lat="45.51741617343151" lon="10.891613690561357"><ele>140.66666666666666</ele><time>2026-04-04T14:42:28Z</time></trkpt><trkpt lat="45.517478614746125" lon="10.891523366341362"><ele>140.83333333333334</ele><time>2026-04-04T14:42:29Z</time></trkpt><trkpt lat="45.51754334990595" lon="10.891434159758893"><ele>141.0</ele><time>2026-04-04T14:42:30Z</time></trkpt><trkpt lat="45.517604803367234" lon="10.891343630720812"><ele>141.0</ele><time>2026-04-04T14:42:31Z</time></trkpt><trkpt lat="45.51766725116492" lon="10.891245635836883"><ele>141.0</ele><time>2026-04-04T14:42:32Z</time></trkpt><trkpt lat="45.51773818477974" lon="10.891134603658083"><ele>141.0</ele><time>2026-04-04T14:42:33Z</time></trkpt><trkpt lat="45.51782261564379" lon="10.891019298889814"><ele>141.0</ele><time>2026-04-04T14:42:34Z</time></trkpt><trkpt lat="45.51791236605151" lon="10.890919947840835"><ele>141.0</ele><time>2026-04-04T14:42:35Z</time></trkpt><trkpt lat="45.51799714664025" lon="10.890800643178315"><ele>141.2</ele><time>2026-04-04T14:42:36Z</time></trkpt><trkpt lat="45.51807114543774" lon="10.890664937770826"><ele>141.39999999999998</ele><time>2026-04-04T14:42:37Z</time></trkpt><trkpt lat="45.518156732210805" lon="10.890547757048866"><ele>141.6</ele><time>2026-04-04T14:42:38Z</time></trkpt><trkpt lat="45.51823381536885" lon="10.890442827408043"><ele>141.79999999999998</ele><time>2026-04-04T14:42:39Z</time></trkpt><trkpt lat="45.518303601782414" lon="10.89034591429643"><ele>142.0</ele><time>2026-04-04T14:42:40Z</time></trkpt><trkpt lat="45.518379391173674" lon="10.890244058475632"><ele>142.0</ele><time>2026-04-04T14:42:41Z</time></trkpt><trkpt lat="45.51844422052747" lon="10.890150619866867"><ele>142.0</ele><time>2026-04-04T14:42:42Z</time></trkpt><trkpt lat="45.51849895845666" lon="10.890072587896128"><ele>142.0</ele><time>2026-04-04T14:42:43Z</time></trkpt><trkpt lat="45.51855041553114" lon="10.890003029342465"><ele>142.0</ele><time>2026-04-04T14:42:44Z</time></trkpt><trkpt lat="45.51860532941144" lon="10.889952315698206"><ele>142.0</ele><time>2026-04-04T14:42:45Z</time></trkpt><trkpt lat="45.51865205044669" lon="10.889888024046641"><ele>142.0</ele><time>2026-04-04T14:42:46Z</time></trkpt><trkpt lat="45.51870884564705" lon="10.889809916417182"><ele>142.5</ele><time>2026-04-04T14:42:47Z</time></trkpt><trkpt lat="45.518780303309576" lon="10.889710793032844"><ele>143.0</ele><time>2026-04-04T14:42:48Z</time></trkpt><trkpt lat="45.5188621485838" lon="10.889568906045847"><ele>143.5</ele><time>2026-04-04T14:42:49Z</time></trkpt><trkpt lat="45.51895508065963" lon="10.889450539428088"><ele>144.0</ele><time>2026-04-04T14:42:50Z</time></trkpt><trkpt lat="45.519046557016416" lon="10.889322817826203"><ele>144.0</ele><time>2026-04-04T14:42:51Z</time></trkpt><trkpt lat="45.51913744077829" lon="10.889198560524212"><ele>144.0</ele><time>2026-04-04T14:42:51.999Z</time></trkpt><trkpt lat="45.51922744863412" lon="10.889073116571039"><ele>144.0</ele><time>2026-04-04T14:42:52.999Z</time></trkpt><trkpt lat="45.51931770156558" lon="10.888955981047534"><ele>144.0</ele><time>2026-04-04T14:42:53.999Z</time></trkpt><trkpt lat="45.519403659656064" lon="10.88883738201908"><ele>144.0</ele><time>2026-04-04T14:42:54.999Z</time></trkpt><trkpt lat="45.51948751409796" lon="10.888722162370577"><ele>144.0</ele><time>2026-04-04T14:42:55.999Z</time></trkpt><trkpt lat="45.51956746224962" lon="10.888608799937298"><ele>144.0</ele><time>2026-04-04T14:42:56.999Z</time></trkpt><trkpt lat="45.51964112942616" lon="10.88851231868085"><ele>144.0</ele><time>2026-04-04T14:42:57.999Z</time></trkpt><trkpt lat="45.51970186565738" lon="10.888427014428663"><ele>144.0</ele><time>2026-04-04T14:42:58.999Z</time></trkpt><trkpt lat="45.51976035960567" lon="10.88835158620508"><ele>144.0</ele><time>2026-04-04T14:42:59.999Z</time></trkpt><trkpt lat="45.519813797625034" lon="10.888287800778734"><ele>144.0</ele><time>2026-04-04T14:43:00.999Z</time></trkpt><trkpt lat="45.519917033215926" lon="10.888229340639947"><ele>144.0</ele><time>2026-04-04T14:43:02.999Z</time></trkpt><trkpt lat="45.51998739776075" lon="10.888223179842157"><ele>144.0</ele><time>2026-04-04T14:43:03.999Z</time></trkpt><trkpt lat="45.520060669218935" lon="10.888220213469406"><ele>144.0</ele><time>2026-04-04T14:43:04.999Z</time></trkpt><trkpt lat="45.520126901368045" lon="10.888171881655943"><ele>144.0</ele><time>2026-04-04T14:43:05.999Z</time></trkpt><trkpt lat="45.52016277629993" lon="10.88805869339648"><ele>144.0</ele><time>2026-04-04T14:43:06.999Z</time></trkpt><trkpt lat="45.520183413477135" lon="10.887927369326906"><ele>144.0</ele><time>2026-04-04T14:43:07.999Z</time></trkpt><trkpt lat="45.52021944245971" lon="10.887798525118432"><ele>144.0</ele><time>2026-04-04T14:43:08.999Z</time></trkpt><trkpt lat="45.52027433200958" lon="10.887679330711087"><ele>144.0</ele><time>2026-04-04T14:43:09.999Z</time></trkpt><trkpt lat="45.520342038332785" lon="10.887564663363676"><ele>144.0</ele><time>2026-04-04T14:43:10.999Z</time></trkpt><trkpt lat="45.52041302268495" lon="10.88744825023231"><ele>144.8</ele><time>2026-04-04T14:43:11.999Z</time></trkpt><trkpt lat="45.520481423632326" lon="10.887326600857019"><ele>145.60000000000002</ele><time>2026-04-04T14:43:12.999Z</time></trkpt><trkpt lat="45.52054669502851" lon="10.887213257510975"><ele>146.4</ele><time>2026-04-04T14:43:13.999Z</time></trkpt><trkpt lat="45.520605574131395" lon="10.887103208163726"><ele>147.20000000000002</ele><time>2026-04-04T14:43:14.999Z</time></trkpt><trkpt lat="45.52065659624575" lon="10.887002235543283"><ele>148.0</ele><time>2026-04-04T14:43:15.999Z</time></trkpt><trkpt lat="45.520702903395204" lon="10.886911348751262"><ele>148.0</ele><time>2026-04-04T14:43:16.999Z</time></trkpt><trkpt lat="45.52075515754906" lon="10.88681841860084"><ele>148.0</ele><time>2026-04-04T14:43:17.999Z</time></trkpt><trkpt lat="45.52080798235212" lon="10.88671375184127"><ele>148.0</ele><time>2026-04-04T14:43:18.999Z</time></trkpt><trkpt lat="45.52086540049535" lon="10.886603430627487"><ele>148.0</ele><time>2026-04-04T14:43:19.999Z</time></trkpt><trkpt lat="45.520928753154934" lon="10.886491270937968"><ele>148.0</ele><time>2026-04-04T14:43:20.999Z</time></trkpt><trkpt lat="45.5209881673084" lon="10.886369805167531"><ele>147.83333333333334</ele><time>2026-04-04T14:43:21.999Z</time></trkpt><trkpt lat="45.52103414297067" lon="10.886238265218845"><ele>147.66666666666669</ele><time>2026-04-04T14:43:22.999Z</time></trkpt><trkpt lat="45.52107031298696" lon="10.886117278733108"><ele>147.5</ele><time>2026-04-04T14:43:23.999Z</time></trkpt><trkpt lat="45.52109694011425" lon="10.886004391510983"><ele>147.33333333333334</ele><time>2026-04-04T14:43:24.999Z</time></trkpt><trkpt lat="45.52111857069102" lon="10.885895806720297"><ele>147.16666666666666</ele><time>2026-04-04T14:43:25.999Z</time></trkpt><trkpt lat="45.52113682149373" lon="10.885796178352674"><ele>147.0</ele><time>2026-04-04T14:43:26.999Z</time></trkpt><trkpt lat="45.52114669257734" lon="10.885686864114277"><ele>147.0</ele><time>2026-04-04T14:43:27.999Z</time></trkpt><trkpt lat="45.52116666274069" lon="10.885564935526128"><ele>147.0</ele><time>2026-04-04T14:43:28.999Z</time></trkpt><trkpt lat="45.521210769722785" lon="10.885435338331883"><ele>147.0</ele><time>2026-04-04T14:43:29.999Z</time></trkpt><trkpt lat="45.52124360487692" lon="10.885286512680736"><ele>147.0</ele><time>2026-04-04T14:43:30.999Z</time></trkpt><trkpt lat="45.52127214396227" lon="10.885124948618538"><ele>147.0</ele><time>2026-04-04T14:43:31.999Z</time></trkpt><trkpt lat="45.52130178432525" lon="10.884960551178429"><ele>147.75</ele><time>2026-04-04T14:43:32.999Z</time></trkpt><trkpt lat="45.52133699707679" lon="10.884811066846662"><ele>148.5</ele><time>2026-04-04T14:43:33.999Z</time></trkpt><trkpt lat="45.52137684346429" lon="10.884656313812451"><ele>149.25</ele><time>2026-04-04T14:43:34.999Z</time></trkpt><trkpt lat="45.52141225824234" lon="10.884492651196364"><ele>150.0</ele><time>2026-04-04T14:43:35.999Z</time></trkpt><trkpt lat="45.52145010773097" lon="10.884330884020722"><ele>150.0</ele><time>2026-04-04T14:43:36.999Z</time></trkpt><trkpt lat="45.52148673632959" lon="10.884168761649281"><ele>150.0</ele><time>2026-04-04T14:43:37.999Z</time></trkpt><trkpt lat="45.52151815184108" lon="10.88401627124168"><ele>150.0</ele><time>2026-04-04T14:43:38.999Z</time></trkpt><trkpt lat="45.52155485535449" lon="10.88386000750316"><ele>150.0</ele><time>2026-04-04T14:43:39.999Z</time></trkpt><trkpt lat="45.52159282032307" lon="10.883719135023684"><ele>150.0</ele><time>2026-04-04T14:43:40.999Z</time></trkpt><trkpt lat="45.52163561726872" lon="10.88357995793649"><ele>150.0</ele><time>2026-04-04T14:43:41.999Z</time></trkpt><trkpt lat="45.52167581296002" lon="10.883436743087254"><ele>150.0</ele><time>2026-04-04T14:43:42.999Z</time></trkpt><trkpt lat="45.521713591414276" lon="10.883281211070821"><ele>150.0</ele><time>2026-04-04T14:43:43.999Z</time></trkpt><trkpt lat="45.52175690827917" lon="10.883116423135675"><ele>149.75</ele><time>2026-04-04T14:43:44.999Z</time></trkpt><trkpt lat="45.52180039546901" lon="10.882947077912444"><ele>149.5</ele><time>2026-04-04T14:43:45.999Z</time></trkpt><trkpt lat="45.52184703990788" lon="10.882774711956067"><ele>149.25</ele><time>2026-04-04T14:43:46.999Z</time></trkpt><trkpt lat="45.521891623397806" lon="10.882605736034769"><ele>149.0</ele><time>2026-04-04T14:43:47.999Z</time></trkpt><trkpt lat="45.52193447670958" lon="10.88244083657622"><ele>149.0</ele><time>2026-04-04T14:43:48.998Z</time></trkpt><trkpt lat="45.521973583046595" lon="10.882280757493595"><ele>149.0</ele><time>2026-04-04T14:43:49.998Z</time></trkpt><trkpt lat="45.52201234418502" lon="10.882132051315994"><ele>149.0</ele><time>2026-04-04T14:43:50.998Z</time></trkpt><trkpt lat="45.52204930937908" lon="10.881988652601894"><ele>149.0</ele><time>2026-04-04T14:43:51.998Z</time></trkpt><trkpt lat="45.52208528940385" lon="10.881848028331982"><ele>149.0</ele><time>2026-04-04T14:43:52.998Z</time></trkpt><trkpt lat="45.522126395707694" lon="10.881699845224013"><ele>148.6</ele><time>2026-04-04T14:43:53.998Z</time></trkpt><trkpt lat="45.5221637909309" lon="10.881545286621568"><ele>148.2</ele><time>2026-04-04T14:43:54.998Z</time></trkpt><trkpt lat="45.52220254529788" lon="10.881406077658507"><ele>147.79999999999998</ele><time>2026-04-04T14:43:55.998Z</time></trkpt><trkpt lat="45.52223947267892" lon="10.881279279014278"><ele>147.4</ele><time>2026-04-04T14:43:56.998Z</time></trkpt><trkpt lat="45.52227193911981" lon="10.881160525291081"><ele>147.0</ele><time>2026-04-04T14:43:57.998Z</time></trkpt><trkpt lat="45.522303042113975" lon="10.881045751459547"><ele>147.0</ele><time>2026-04-04T14:43:58.998Z</time></trkpt><trkpt lat="45.52232958173719" lon="10.880933503540081"><ele>147.0</ele><time>2026-04-04T14:43:59.998Z</time></trkpt><trkpt lat="45.52235657848809" lon="10.880814846656085"><ele>147.0</ele><time>2026-04-04T14:44:00.998Z</time></trkpt><trkpt lat="45.522385948450896" lon="10.880683527046887"><ele>147.0</ele><time>2026-04-04T14:44:01.998Z</time></trkpt><trkpt lat="45.52241972404204" lon="10.880552119348813"><ele>147.0</ele><time>2026-04-04T14:44:02.998Z</time></trkpt><trkpt lat="45.522459513842925" lon="10.880437693530686"><ele>147.0</ele><time>2026-04-04T14:44:03.998Z</time></trkpt><trkpt lat="45.52249639331478" lon="10.880326215531992"><ele>147.0</ele><time>2026-04-04T14:44:04.998Z</time></trkpt><trkpt lat="45.52253344565051" lon="10.880243530453344"><ele>147.0</ele><time>2026-04-04T14:44:05.998Z</time></trkpt><trkpt lat="45.522584066418375" lon="10.880171925711428"><ele>147.0</ele><time>2026-04-04T14:44:06.998Z</time></trkpt><trkpt lat="45.5226417599006" lon="10.880090105283035"><ele>147.0</ele><time>2026-04-04T14:44:07.998Z</time></trkpt><trkpt lat="45.52267926414689" lon="10.879978419630502"><ele>147.0</ele><time>2026-04-04T14:44:08.998Z</time></trkpt><trkpt lat="45.52268328001541" lon="10.879840084695157"><ele>147.0</ele><time>2026-04-04T14:44:09.998Z</time></trkpt><trkpt lat="45.52268131271507" lon="10.879688030175009"><ele>147.0</ele><time>2026-04-04T14:44:10.998Z</time></trkpt><trkpt lat="45.52268665495765" lon="10.879533453216112"><ele>147.0</ele><time>2026-04-04T14:44:11.998Z</time></trkpt><trkpt lat="45.52271272461297" lon="10.879380712328627"><ele>147.0</ele><time>2026-04-04T14:44:12.998Z</time></trkpt><trkpt lat="45.52275547814215" lon="10.879231652157172"><ele>147.0</ele><time>2026-04-04T14:44:14Z</time></trkpt><trkpt lat="45.52279952823373" lon="10.879086050575312"><ele>147.0</ele><time>2026-04-04T14:44:15Z</time></trkpt><trkpt lat="45.52283763629226" lon="10.87894426855218"><ele>147.0</ele><time>2026-04-04T14:44:16Z</time></trkpt><trkpt lat="45.52287393936905" lon="10.878806215838733"><ele>147.0</ele><time>2026-04-04T14:44:17Z</time></trkpt><trkpt lat="45.52290282956657" lon="10.878688326395215"><ele>147.0</ele><time>2026-04-04T14:44:18Z</time></trkpt><trkpt lat="45.522929769985936" lon="10.878586952704243"><ele>147.0</ele><time>2026-04-04T14:44:19Z</time></trkpt><trkpt lat="45.52295165937138" lon="10.878499475501284"><ele>147.0</ele><time>2026-04-04T14:44:20Z</time></trkpt><trkpt lat="45.522984052809115" lon="10.878389437527584"><ele>147.0</ele><time>2026-04-04T14:44:22Z</time></trkpt><trkpt lat="45.523007592166394" lon="10.878303350468997"><ele>147.0</ele><time>2026-04-04T14:44:26Z</time></trkpt><trkpt lat="45.52302990903495" lon="10.878215756649045"><ele>147.0</ele><time>2026-04-04T14:44:28Z</time></trkpt><trkpt lat="45.52305819534818" lon="10.878115126948543"><ele>147.0</ele><time>2026-04-04T14:44:30Z</time></trkpt><trkpt lat="45.523090862429186" lon="10.878004489652046"><ele>147.0</ele><time>2026-04-04T14:44:32Z</time></trkpt><trkpt lat="45.52314913315278" lon="10.877891699163944"><ele>147.0</ele><time>2026-04-04T14:44:34Z</time></trkpt><trkpt lat="45.52319800625724" lon="10.877824616399332"><ele>147.0</ele><time>2026-04-04T14:44:35Z</time></trkpt><trkpt lat="45.523272300473536" lon="10.877744719762282"><ele>147.0</ele><time>2026-04-04T14:44:36Z</time></trkpt><trkpt lat="45.52335284594486" lon="10.87767071898864"><ele>147.0</ele><time>2026-04-04T14:44:37Z</time></trkpt><trkpt lat="45.52340766200639" lon="10.877583405614633"><ele>147.0</ele><time>2026-04-04T14:44:38Z</time></trkpt><trkpt lat="45.52342850370822" lon="10.8774787786632"><ele>147.0</ele><time>2026-04-04T14:44:39Z</time></trkpt><trkpt lat="45.5234221418874" lon="10.877360920649831"><ele>147.0</ele><time>2026-04-04T14:44:40Z</time></trkpt><trkpt lat="45.52338558553077" lon="10.87725067074623"><ele>146.6</ele><time>2026-04-04T14:44:41Z</time></trkpt><trkpt lat="45.5233003316569" lon="10.877180810794881"><ele>146.2</ele><time>2026-04-04T14:44:42Z</time></trkpt><trkpt lat="45.52322403617143" lon="10.877141412719784"><ele>145.8</ele><time>2026-04-04T14:44:43Z</time></trkpt><trkpt lat="45.52313505422108" lon="10.877131179746286"><ele>145.4</ele><time>2026-04-04T14:44:44Z</time></trkpt><trkpt lat="45.523039269745965" lon="10.877133870129475"><ele>145.0</ele><time>2026-04-04T14:44:45Z</time></trkpt><trkpt lat="45.522944767308694" lon="10.877108471957698"><ele>144.5</ele><time>2026-04-04T14:44:46Z</time></trkpt><trkpt lat="45.52283582528349" lon="10.877048504367881"><ele>144.0</ele><time>2026-04-04T14:44:47Z</time></trkpt><trkpt lat="45.52272049310945" lon="10.876968819419318"><ele>143.5</ele><time>2026-04-04T14:44:48Z</time></trkpt><trkpt lat="45.52262681140097" lon="10.876879808623196"><ele>143.0</ele><time>2026-04-04T14:44:49Z</time></trkpt><trkpt lat="45.52252488744656" lon="10.876788564706862"><ele>143.5</ele><time>2026-04-04T14:44:50Z</time></trkpt><trkpt lat="45.52242510081261" lon="10.876682821281305"><ele>144.0</ele><time>2026-04-04T14:44:51Z</time></trkpt><trkpt lat="45.52232422351325" lon="10.87656910501441"><ele>144.5</ele><time>2026-04-04T14:44:52Z</time></trkpt><trkpt lat="45.5222152494009" lon="10.876422207223008"><ele>145.0</ele><time>2026-04-04T14:44:53Z</time></trkpt><trkpt lat="45.52210586480739" lon="10.87626947071698"><ele>144.33333333333334</ele><time>2026-04-04T14:44:54Z</time></trkpt><trkpt lat="45.52199720040937" lon="10.876128897189627"><ele>143.66666666666666</ele><time>2026-04-04T14:44:55Z</time></trkpt><trkpt lat="45.52188064741305" lon="10.875976218613705"><ele>143.0</ele><time>2026-04-04T14:44:56Z</time></trkpt><trkpt lat="45.521762441833005" lon="10.87581793327148"><ele>143.0</ele><time>2026-04-04T14:44:56.999Z</time></trkpt><trkpt lat="45.521650978449614" lon="10.875664593297095"><ele>143.0</ele><time>2026-04-04T14:44:57.999Z</time></trkpt><trkpt lat="45.52155096307802" lon="10.875525548916514"><ele>143.0</ele><time>2026-04-04T14:44:58.999Z</time></trkpt><trkpt lat="45.52145349051115" lon="10.875389502077942"><ele>143.0</ele><time>2026-04-04T14:44:59.999Z</time></trkpt><trkpt lat="45.5213476564069" lon="10.875245076901896"><ele>143.0</ele><time>2026-04-04T14:45:00.999Z</time></trkpt><trkpt lat="45.521232882258346" lon="10.875089847046636"><ele>143.0</ele><time>2026-04-04T14:45:01.999Z</time></trkpt><trkpt lat="45.521114066876734" lon="10.874932591075769"><ele>143.0</ele><time>2026-04-04T14:45:02.999Z</time></trkpt><trkpt lat="45.5209923850675" lon="10.874773081779022"><ele>142.66666666666666</ele><time>2026-04-04T14:45:03.999Z</time></trkpt><trkpt lat="45.520875711652785" lon="10.874616544232776"><ele>142.33333333333334</ele><time>2026-04-04T14:45:04.999Z</time></trkpt><trkpt lat="45.520762876168355" lon="10.874461297647807"><ele>142.0</ele><time>2026-04-04T14:45:05.999Z</time></trkpt><trkpt lat="45.520643605067555" lon="10.874300394571653"><ele>141.66666666666669</ele><time>2026-04-04T14:45:06.999Z</time></trkpt><trkpt lat="45.52052279436931" lon="10.874130153684387"><ele>141.33333333333334</ele><time>2026-04-04T14:45:07.999Z</time></trkpt><trkpt lat="45.52039693034999" lon="10.873962660404139"><ele>141.0</ele><time>2026-04-04T14:45:08.999Z</time></trkpt><trkpt lat="45.52027802814367" lon="10.873797597008215"><ele>140.66666666666666</ele><time>2026-04-04T14:45:09.999Z</time></trkpt><trkpt lat="45.52015838597491" lon="10.873641887082021"><ele>140.33333333333331</ele><time>2026-04-04T14:45:10.999Z</time></trkpt><trkpt lat="45.52004601372656" lon="10.873486939214551"><ele>140.0</ele><time>2026-04-04T14:45:11.999Z</time></trkpt><trkpt lat="45.51993656677589" lon="10.873334069508466"><ele>140.0</ele><time>2026-04-04T14:45:12.999Z</time></trkpt><trkpt lat="45.519827644359516" lon="10.873179738996434"><ele>140.0</ele><time>2026-04-04T14:45:13.999Z</time></trkpt><trkpt lat="45.51972807285008" lon="10.87301926378653"><ele>140.0</ele><time>2026-04-04T14:45:14.999Z</time></trkpt><trkpt lat="45.51962745372976" lon="10.872859725218598"><ele>139.0</ele><time>2026-04-04T14:45:15.999Z</time></trkpt><trkpt lat="45.51952730453596" lon="10.87270070529612"><ele>138.0</ele><time>2026-04-04T14:45:16.999Z</time></trkpt><trkpt lat="45.51942319421486" lon="10.872538201515422"><ele>137.0</ele><time>2026-04-04T14:45:17.999Z</time></trkpt><trkpt lat="45.519315767353326" lon="10.872367297090891"><ele>136.66666666666666</ele><time>2026-04-04T14:45:18.999Z</time></trkpt><trkpt lat="45.5192095637616" lon="10.872195635507037"><ele>136.33333333333334</ele><time>2026-04-04T14:45:19.999Z</time></trkpt><trkpt lat="45.51909790229311" lon="10.872019628572268"><ele>136.0</ele><time>2026-04-04T14:45:20.999Z</time></trkpt><trkpt lat="45.51899123571696" lon="10.871839938372045"><ele>136.33333333333334</ele><time>2026-04-04T14:45:21.999Z</time></trkpt><trkpt lat="45.5188760394826" lon="10.871661953830229"><ele>136.66666666666666</ele><time>2026-04-04T14:45:22.999Z</time></trkpt><trkpt lat="45.518764077552134" lon="10.87147755872086"><ele>137.0</ele><time>2026-04-04T14:45:23.999Z</time></trkpt><trkpt lat="45.51864743959509" lon="10.871297636325366"><ele>137.0</ele><time>2026-04-04T14:45:24.999Z</time></trkpt><trkpt lat="45.518530188792134" lon="10.871121618681617"><ele>137.0</ele><time>2026-04-04T14:45:25.999Z</time></trkpt><trkpt lat="45.518421049935206" lon="10.870943841034247"><ele>137.0</ele><time>2026-04-04T14:45:26.999Z</time></trkpt><trkpt lat="45.51831315712515" lon="10.870765301286296"><ele>137.0</ele><time>2026-04-04T14:45:27.999Z</time></trkpt><trkpt lat="45.51820038980732" lon="10.870600467396619"><ele>137.0</ele><time>2026-04-04T14:45:28.999Z</time></trkpt><trkpt lat="45.51808330570791" lon="10.870448021730013"><ele>137.0</ele><time>2026-04-04T14:45:29.999Z</time></trkpt><trkpt lat="45.51795509630152" lon="10.870304347033073"><ele>137.0</ele><time>2026-04-04T14:45:30.999Z</time></trkpt><trkpt lat="45.517817450160955" lon="10.870163752786015"><ele>137.0</ele><time>2026-04-04T14:45:31.999Z</time></trkpt><trkpt lat="45.517681743657384" lon="10.870030603636703"><ele>137.0</ele><time>2026-04-04T14:45:32.999Z</time></trkpt><trkpt lat="45.51754584532106" lon="10.869909022023537"><ele>137.0</ele><time>2026-04-04T14:45:33.999Z</time></trkpt><trkpt lat="45.51741134861596" lon="10.869801326336013"><ele>137.0</ele><time>2026-04-04T14:45:34.999Z</time></trkpt><trkpt lat="45.51726815750141" lon="10.86970809332947"><ele>137.0</ele><time>2026-04-04T14:45:35.999Z</time></trkpt><trkpt lat="45.51712312203827" lon="10.869613159857115"><ele>136.33333333333331</ele><time>2026-04-04T14:45:36.999Z</time></trkpt><trkpt lat="45.51696300083171" lon="10.869513850823516"><ele>135.66666666666666</ele><time>2026-04-04T14:45:37.999Z</time></trkpt><trkpt lat="45.51679262410343" lon="10.869429138877328"><ele>135.0</ele><time>2026-04-04T14:45:38.999Z</time></trkpt><trkpt lat="45.51662519028902" lon="10.869344596952343"><ele>135.0</ele><time>2026-04-04T14:45:39.999Z</time></trkpt><trkpt lat="45.51647508372907" lon="10.869271374719855"><ele>135.0</ele><time>2026-04-04T14:45:40.999Z</time></trkpt><trkpt lat="45.516329417875866" lon="10.869202825785216"><ele>135.0</ele><time>2026-04-04T14:45:41.999Z</time></trkpt><trkpt lat="45.516172598416155" lon="10.869122381954458"><ele>134.66666666666666</ele><time>2026-04-04T14:45:42.999Z</time></trkpt><trkpt lat="45.51601261895165" lon="10.869034937818014"><ele>134.33333333333331</ele><time>2026-04-04T14:45:43.999Z</time></trkpt><trkpt lat="45.51585025800594" lon="10.86895141095283"><ele>134.0</ele><time>2026-04-04T14:45:44.999Z</time></trkpt><trkpt lat="45.51568986870738" lon="10.868866747991245"><ele>134.0</ele><time>2026-04-04T14:45:45.999Z</time></trkpt><trkpt lat="45.515522517724946" lon="10.868785522156305"><ele>134.0</ele><time>2026-04-04T14:45:46.999Z</time></trkpt><trkpt lat="45.51535312783884" lon="10.868700813414161"><ele>134.0</ele><time>2026-04-04T14:45:47.999Z</time></trkpt><trkpt lat="45.51517896743572" lon="10.868617372482044"><ele>134.0</ele><time>2026-04-04T14:45:48.999Z</time></trkpt><trkpt lat="45.515007363841015" lon="10.86853214846786"><ele>134.0</ele><time>2026-04-04T14:45:49.999Z</time></trkpt><trkpt lat="45.51482698563301" lon="10.868451661355039"><ele>134.0</ele><time>2026-04-04T14:45:50.999Z</time></trkpt><trkpt lat="45.51465116412381" lon="10.868367253991524"><ele>133.66666666666666</ele><time>2026-04-04T14:45:51.999Z</time></trkpt><trkpt lat="45.51447503102519" lon="10.868273432537473"><ele>133.33333333333334</ele><time>2026-04-04T14:45:52.999Z</time></trkpt><trkpt lat="45.51429567545852" lon="10.868178742398225"><ele>133.0</ele><time>2026-04-04T14:45:53.998Z</time></trkpt><trkpt lat="45.514109897119724" lon="10.868082610235572"><ele>133.0</ele><time>2026-04-04T14:45:54.998Z</time></trkpt><trkpt lat="45.51392275582203" lon="10.867986712774712"><ele>133.0</ele><time>2026-04-04T14:45:55.998Z</time></trkpt><trkpt lat="45.51372661356335" lon="10.867885593897878"><ele>133.0</ele><time>2026-04-04T14:45:56.998Z</time></trkpt><trkpt lat="45.51352857519241" lon="10.867788460859664"><ele>133.33333333333334</ele><time>2026-04-04T14:45:57.998Z</time></trkpt><trkpt lat="45.513326065457825" lon="10.867686880321163"><ele>133.66666666666666</ele><time>2026-04-04T14:45:58.998Z</time></trkpt><trkpt lat="45.51312121013833" lon="10.867587865658349"><ele>134.0</ele><time>2026-04-04T14:45:59.998Z</time></trkpt><trkpt lat="45.512917299017275" lon="10.867481058245904"><ele>133.33333333333331</ele><time>2026-04-04T14:46:00.998Z</time></trkpt><trkpt lat="45.512708560886864" lon="10.867372000782291"><ele>132.66666666666666</ele><time>2026-04-04T14:46:01.998Z</time></trkpt><trkpt lat="45.51249518157044" lon="10.867265719987268"><ele>132.0</ele><time>2026-04-04T14:46:02.998Z</time></trkpt><trkpt lat="45.51228304493692" lon="10.867164197032611"><ele>131.33333333333334</ele><time>2026-04-04T14:46:03.998Z</time></trkpt><trkpt lat="45.512062055598896" lon="10.867074161316573"><ele>130.66666666666669</ele><time>2026-04-04T14:46:04.998Z</time></trkpt><trkpt lat="45.51184830269574" lon="10.867004963229068"><ele>130.0</ele><time>2026-04-04T14:46:05.998Z</time></trkpt><trkpt lat="45.51162938670788" lon="10.86693900049665"><ele>130.0</ele><time>2026-04-04T14:46:06.998Z</time></trkpt><trkpt lat="45.511409864717876" lon="10.866865992274905"><ele>130.0</ele><time>2026-04-04T14:46:07.998Z</time></trkpt><trkpt lat="45.51118729550866" lon="10.866791583762128"><ele>129.0</ele><time>2026-04-04T14:46:08.998Z</time></trkpt><trkpt lat="45.510965335002986" lon="10.866714809780484"><ele>128.0</ele><time>2026-04-04T14:46:09.998Z</time></trkpt><trkpt lat="45.51074966528919" lon="10.866643380707506"><ele>128.0</ele><time>2026-04-04T14:46:10.998Z</time></trkpt><trkpt lat="45.51054352348641" lon="10.86657183975888"><ele>128.0</ele><time>2026-04-04T14:46:11.998Z</time></trkpt><trkpt lat="45.51033674774176" lon="10.866504242574402"><ele>128.0</ele><time>2026-04-04T14:46:12.998Z</time></trkpt><trkpt lat="45.510131859351695" lon="10.866441138146707"><ele>127.66666666666666</ele><time>2026-04-04T14:46:13.998Z</time></trkpt><trkpt lat="45.50992709959551" lon="10.86638004021425"><ele>127.33333333333334</ele><time>2026-04-04T14:46:14.998Z</time></trkpt><trkpt lat="45.50972667093348" lon="10.866314613786313"><ele>127.0</ele><time>2026-04-04T14:46:15.998Z</time></trkpt><trkpt lat="45.509526510025864" lon="10.866245840496799"><ele>127.0</ele><time>2026-04-04T14:46:16.998Z</time></trkpt><trkpt lat="45.50932356101783" lon="10.866163822601015"><ele>127.0</ele><time>2026-04-04T14:46:17.998Z</time></trkpt><trkpt lat="45.50912554675683" lon="10.866048184607937"><ele>127.0</ele><time>2026-04-04T14:46:18.998Z</time></trkpt><trkpt lat="45.50892821106085" lon="10.865896273321779"><ele>126.5</ele><time>2026-04-04T14:46:20Z</time></trkpt><trkpt lat="45.50873825767792" lon="10.86572052149116"><ele>126.0</ele><time>2026-04-04T14:46:21Z</time></trkpt><trkpt lat="45.50856859484711" lon="10.865507152727034"><ele>126.0</ele><time>2026-04-04T14:46:22Z</time></trkpt><trkpt lat="45.50841644857513" lon="10.86526834410399"><ele>126.0</ele><time>2026-04-04T14:46:23Z</time></trkpt><trkpt lat="45.50826720660761" lon="10.865044848059567"><ele>126.0</ele><time>2026-04-04T14:46:24Z</time></trkpt><trkpt lat="45.50810442347251" lon="10.864853167633333"><ele>124.66666666666666</ele><time>2026-04-04T14:46:25Z</time></trkpt><trkpt lat="45.50792793323499" lon="10.864699740946566"><ele>123.33333333333333</ele><time>2026-04-04T14:46:26Z</time></trkpt><trkpt lat="45.50774117882246" lon="10.864569033804655"><ele>122.0</ele><time>2026-04-04T14:46:27Z</time></trkpt><trkpt lat="45.50753843596161" lon="10.864458252080484"><ele>121.33333333333333</ele><time>2026-04-04T14:46:28Z</time></trkpt><trkpt lat="45.507334839066466" lon="10.86434773151229"><ele>120.66666666666666</ele><time>2026-04-04T14:46:29Z</time></trkpt><trkpt lat="45.5071268323237" lon="10.864241044168072"><ele>120.0</ele><time>2026-04-04T14:46:30Z</time></trkpt><trkpt lat="45.50691343190609" lon="10.864131149558954"><ele>118.0</ele><time>2026-04-04T14:46:31Z</time></trkpt><trkpt lat="45.50669542745725" lon="10.864021599649895"><ele>116.0</ele><time>2026-04-04T14:46:32Z</time></trkpt><trkpt lat="45.50647885103709" lon="10.863912175266186"><ele>116.0</ele><time>2026-04-04T14:46:33Z</time></trkpt><trkpt lat="45.50626509197734" lon="10.863801798702815"><ele>116.0</ele><time>2026-04-04T14:46:34Z</time></trkpt><trkpt lat="45.506055521314465" lon="10.863690245911283"><ele>115.5</ele><time>2026-04-04T14:46:35Z</time></trkpt><trkpt lat="45.50584479045232" lon="10.863575162654184"><ele>115.0</ele><time>2026-04-04T14:46:36Z</time></trkpt><trkpt lat="45.50563520516259" lon="10.86346012768573"><ele>114.66666666666667</ele><time>2026-04-04T14:46:37Z</time></trkpt><trkpt lat="45.50542787842301" lon="10.8633374550532"><ele>114.33333333333334</ele><time>2026-04-04T14:46:38Z</time></trkpt><trkpt lat="45.50522639632611" lon="10.863210801843344"><ele>114.0</ele><time>2026-04-04T14:46:39Z</time></trkpt><trkpt lat="45.50502358947946" lon="10.863087191456021"><ele>114.0</ele><time>2026-04-04T14:46:40Z</time></trkpt><trkpt lat="45.504819991535165" lon="10.862967554965692"><ele>114.0</ele><time>2026-04-04T14:46:41Z</time></trkpt><trkpt lat="45.50461744989271" lon="10.862848247291844"><ele>114.0</ele><time>2026-04-04T14:46:42Z</time></trkpt><trkpt lat="45.50442269180377" lon="10.862728952758783"><ele>113.66666666666666</ele><time>2026-04-04T14:46:43Z</time></trkpt><trkpt lat="45.504232375917766" lon="10.862612311773583"><ele>113.33333333333333</ele><time>2026-04-04T14:46:44Z</time></trkpt><trkpt lat="45.50404777820278" lon="10.862503053218067"><ele>113.0</ele><time>2026-04-04T14:46:45Z</time></trkpt><trkpt lat="45.50386454556259" lon="10.862398605464431"><ele>111.66666666666666</ele><time>2026-04-04T14:46:46Z</time></trkpt><trkpt lat="45.50368193224478" lon="10.86229982550549"><ele>110.33333333333334</ele><time>2026-04-04T14:46:47Z</time></trkpt><trkpt lat="45.50349271054875" lon="10.862211046551929"><ele>109.0</ele><time>2026-04-04T14:46:48Z</time></trkpt><trkpt lat="45.50329666735398" lon="10.862138179622715"><ele>109.0</ele><time>2026-04-04T14:46:49Z</time></trkpt><trkpt lat="45.50308992490006" lon="10.862088037634239"><ele>109.0</ele><time>2026-04-04T14:46:50Z</time></trkpt><trkpt lat="45.502882026476456" lon="10.862066291425814"><ele>109.0</ele><time>2026-04-04T14:46:51Z</time></trkpt><trkpt lat="45.50267488287678" lon="10.86206956027253"><ele>109.0</ele><time>2026-04-04T14:46:52Z</time></trkpt><trkpt lat="45.50247235900777" lon="10.862079346875804"><ele>109.0</ele><time>2026-04-04T14:46:53Z</time></trkpt><trkpt lat="45.50228144267012" lon="10.862085279711318"><ele>109.0</ele><time>2026-04-04T14:46:54Z</time></trkpt><trkpt lat="45.50210516269689" lon="10.862081449021854"><ele>108.66666666666667</ele><time>2026-04-04T14:46:55Z</time></trkpt><trkpt lat="45.50192869853918" lon="10.86208903983713"><ele>108.33333333333334</ele><time>2026-04-04T14:46:56Z</time></trkpt><trkpt lat="45.501755432989725" lon="10.862099875905082"><ele>108.0</ele><time>2026-04-04T14:46:57Z</time></trkpt><trkpt lat="45.501588004425734" lon="10.862108970951422"><ele>108.0</ele><time>2026-04-04T14:46:58Z</time></trkpt><trkpt lat="45.50142796139163" lon="10.862112786069899"><ele>108.0</ele><time>2026-04-04T14:46:59Z</time></trkpt><trkpt lat="45.50124037625351" lon="10.862132757302916"><ele>108.0</ele><time>2026-04-04T14:47:00Z</time></trkpt><trkpt lat="45.50107532027784" lon="10.862139774638049"><ele>107.66666666666666</ele><time>2026-04-04T14:47:01Z</time></trkpt><trkpt lat="45.50090494879574" lon="10.862140039103982"><ele>107.33333333333333</ele><time>2026-04-04T14:47:01.999Z</time></trkpt><trkpt lat="45.50071404032469" lon="10.862150457200276"><ele>107.0</ele><time>2026-04-04T14:47:02.999Z</time></trkpt><trkpt lat="45.500521092581664" lon="10.86215906326171"><ele>107.0</ele><time>2026-04-04T14:47:03.999Z</time></trkpt><trkpt lat="45.50032746923222" lon="10.862165371127755"><ele>107.0</ele><time>2026-04-04T14:47:04.999Z</time></trkpt><trkpt lat="45.50013470575701" lon="10.862167685784035"><ele>107.0</ele><time>2026-04-04T14:47:05.999Z</time></trkpt><trkpt lat="45.49994267254426" lon="10.862164076815539"><ele>107.0</ele><time>2026-04-04T14:47:06.999Z</time></trkpt><trkpt lat="45.49975108708041" lon="10.862139454421898"><ele>107.0</ele><time>2026-04-04T14:47:07.999Z</time></trkpt><trkpt lat="45.49956411010362" lon="10.862095382287352"><ele>107.0</ele><time>2026-04-04T14:47:08.999Z</time></trkpt><trkpt lat="45.49938116902569" lon="10.862037373662028"><ele>107.33333333333333</ele><time>2026-04-04T14:47:09.999Z</time></trkpt><trkpt lat="45.49920991104327" lon="10.861970659255261"><ele>107.66666666666666</ele><time>2026-04-04T14:47:10.999Z</time></trkpt><trkpt lat="45.499040240176946" lon="10.861901662198184"><ele>108.0</ele><time>2026-04-04T14:47:11.999Z</time></trkpt><trkpt lat="45.498877529706725" lon="10.861796839218375"><ele>108.0</ele><time>2026-04-04T14:47:12.999Z</time></trkpt><trkpt lat="45.49870090414874" lon="10.86168181515361"><ele>108.0</ele><time>2026-04-04T14:47:13.999Z</time></trkpt><trkpt lat="45.49854698889994" lon="10.861583740859734"><ele>108.0</ele><time>2026-04-04T14:47:14.999Z</time></trkpt><trkpt lat="45.49838808382795" lon="10.86142859376373"><ele>108.0</ele><time>2026-04-04T14:47:15.999Z</time></trkpt><trkpt lat="45.49823833404808" lon="10.861259479128142"><ele>108.0</ele><time>2026-04-04T14:47:16.999Z</time></trkpt><trkpt lat="45.49808686584469" lon="10.861085127502179"><ele>108.0</ele><time>2026-04-04T14:47:17.999Z</time></trkpt><trkpt lat="45.49793186119098" lon="10.860914298244941"><ele>107.66666666666666</ele><time>2026-04-04T14:47:18.999Z</time></trkpt><trkpt lat="45.497778253198724" lon="10.860741328955996"><ele>107.33333333333333</ele><time>2026-04-04T14:47:19.999Z</time></trkpt><trkpt lat="45.49762658635542" lon="10.860556496698816"><ele>107.0</ele><time>2026-04-04T14:47:20.999Z</time></trkpt><trkpt lat="45.49747784924953" lon="10.860366748156308"><ele>107.0</ele><time>2026-04-04T14:47:21.999Z</time></trkpt><trkpt lat="45.49732968697766" lon="10.860174682080979"><ele>107.0</ele><time>2026-04-04T14:47:22.999Z</time></trkpt><trkpt lat="45.49718079011461" lon="10.85999105732565"><ele>107.0</ele><time>2026-04-04T14:47:23.999Z</time></trkpt><trkpt lat="45.49703082223413" lon="10.859802349004426"><ele>108.0</ele><time>2026-04-04T14:47:24.999Z</time></trkpt><trkpt lat="45.49687677148766" lon="10.859618117247427"><ele>109.0</ele><time>2026-04-04T14:47:25.999Z</time></trkpt><trkpt lat="45.49670924487046" lon="10.859433661623116"><ele>110.0</ele><time>2026-04-04T14:47:26.999Z</time></trkpt><trkpt lat="45.49653193435424" lon="10.859252920105993"><ele>110.0</ele><time>2026-04-04T14:47:27.999Z</time></trkpt><trkpt lat="45.49633746421231" lon="10.859086203503802"><ele>110.0</ele><time>2026-04-04T14:47:28.999Z</time></trkpt><trkpt lat="45.4961360007803" lon="10.858926728274646"><ele>108.0</ele><time>2026-04-04T14:47:29.999Z</time></trkpt><trkpt lat="45.49592550293087" lon="10.858777109256073"><ele>106.0</ele><time>2026-04-04T14:47:30.999Z</time></trkpt><trkpt lat="45.49570949023074" lon="10.85863700595726"><ele>106.0</ele><time>2026-04-04T14:47:31.999Z</time></trkpt><trkpt lat="45.49548749341562" lon="10.858509048525235"><ele>106.0</ele><time>2026-04-04T14:47:32.999Z</time></trkpt><trkpt lat="45.49525954721914" lon="10.858396315845459"><ele>105.5</ele><time>2026-04-04T14:47:33.999Z</time></trkpt><trkpt lat="45.49502880484843" lon="10.858302737817953"><ele>105.0</ele><time>2026-04-04T14:47:34.999Z</time></trkpt><trkpt lat="45.49479442175374" lon="10.85822484791455"><ele>104.5</ele><time>2026-04-04T14:47:35.999Z</time></trkpt><trkpt lat="45.49456863550577" lon="10.85815954437634"><ele>104.0</ele><time>2026-04-04T14:47:36.999Z</time></trkpt><trkpt lat="45.49433405851372" lon="10.858121301339773"><ele>104.0</ele><time>2026-04-04T14:47:37.999Z</time></trkpt><trkpt lat="45.49409687930514" lon="10.858105515800126"><ele>104.0</ele><time>2026-04-04T14:47:38.999Z</time></trkpt><trkpt lat="45.49385865070195" lon="10.858101365080893"><ele>104.5</ele><time>2026-04-04T14:47:39.999Z</time></trkpt><trkpt lat="45.49361998037553" lon="10.858111084244221"><ele>105.0</ele><time>2026-04-04T14:47:40.999Z</time></trkpt><trkpt lat="45.49337760907003" lon="10.858126588348066"><ele>105.0</ele><time>2026-04-04T14:47:41.999Z</time></trkpt><trkpt lat="45.493132825272" lon="10.858149140920396"><ele>105.0</ele><time>2026-04-04T14:47:42.999Z</time></trkpt><trkpt lat="45.492886309417365" lon="10.858167584389411"><ele>104.5</ele><time>2026-04-04T14:47:43.999Z</time></trkpt><trkpt lat="45.492636196371244" lon="10.858185742854443"><ele>104.0</ele><time>2026-04-04T14:47:44.999Z</time></trkpt><trkpt lat="45.49238484032311" lon="10.858203352722544"><ele>104.0</ele><time>2026-04-04T14:47:45.999Z</time></trkpt><trkpt lat="45.49212834528378" lon="10.858217822968935"><ele>104.0</ele><time>2026-04-04T14:47:46.999Z</time></trkpt><trkpt lat="45.49187089707006" lon="10.858236671430161"><ele>101.5</ele><time>2026-04-04T14:47:47.999Z</time></trkpt><trkpt lat="45.49161448235973" lon="10.858258947913052"><ele>99.0</ele><time>2026-04-04T14:47:48.999Z</time></trkpt><trkpt lat="45.49135398129351" lon="10.858281294653034"><ele>96.0</ele><time>2026-04-04T14:47:49.999Z</time></trkpt><trkpt lat="45.491089940221606" lon="10.858300814612205"><ele>93.0</ele><time>2026-04-04T14:47:50.999Z</time></trkpt><trkpt lat="45.49082144108344" lon="10.858323902403773"><ele>93.0</ele><time>2026-04-04T14:47:51.999Z</time></trkpt><trkpt lat="45.49055876669955" lon="10.858345093060436"><ele>93.0</ele><time>2026-04-04T14:47:52.999Z</time></trkpt><trkpt lat="45.490303106956965" lon="10.858362919457011"><ele>92.5</ele><time>2026-04-04T14:47:53.999Z</time></trkpt><trkpt lat="45.49005028923859" lon="10.85837693687566"><ele>92.0</ele><time>2026-04-04T14:47:54.999Z</time></trkpt><trkpt lat="45.48980573749317" lon="10.85839031201599"><ele>93.0</ele><time>2026-04-04T14:47:55.999Z</time></trkpt><trkpt lat="45.48956261250182" lon="10.85840240304416"><ele>94.0</ele><time>2026-04-04T14:47:56.999Z</time></trkpt><trkpt lat="45.489317044540876" lon="10.85840719278175"><ele>94.0</ele><time>2026-04-04T14:47:57.999Z</time></trkpt><trkpt lat="45.489073260377864" lon="10.858412191002623"><ele>94.0</ele><time>2026-04-04T14:47:58.999Z</time></trkpt><trkpt lat="45.48882710686534" lon="10.858424518509153"><ele>94.0</ele><time>2026-04-04T14:47:59.998Z</time></trkpt><trkpt lat="45.488578413361424" lon="10.85844706777817"><ele>94.0</ele><time>2026-04-04T14:48:00.998Z</time></trkpt><trkpt lat="45.48833490034188" lon="10.858471513996268"><ele>93.5</ele><time>2026-04-04T14:48:01.998Z</time></trkpt><trkpt lat="45.488089706125855" lon="10.858500318768876"><ele>93.0</ele><time>2026-04-04T14:48:02.998Z</time></trkpt><trkpt lat="45.48784980015139" lon="10.858534061341771"><ele>92.5</ele><time>2026-04-04T14:48:03.998Z</time></trkpt><trkpt lat="45.487606969874264" lon="10.858573547341955"><ele>92.0</ele><time>2026-04-04T14:48:04.998Z</time></trkpt><trkpt lat="45.4873540741078" lon="10.858600929097767"><ele>92.0</ele><time>2026-04-04T14:48:05.998Z</time></trkpt><trkpt lat="45.487107481563086" lon="10.858630886414407"><ele>92.0</ele><time>2026-04-04T14:48:06.998Z</time></trkpt><trkpt lat="45.48685471618537" lon="10.858650062698011"><ele>86.0</ele><time>2026-04-04T14:48:07.998Z</time></trkpt><trkpt lat="45.48660001566851" lon="10.858671349638044"><ele>80.0</ele><time>2026-04-04T14:48:08.998Z</time></trkpt><trkpt lat="45.4863528759264" lon="10.858691167177087"><ele>78.5</ele><time>2026-04-04T14:48:09.998Z</time></trkpt><trkpt lat="45.48611411324447" lon="10.858711531457246"><ele>77.0</ele><time>2026-04-04T14:48:10.998Z</time></trkpt><trkpt lat="45.485877135634254" lon="10.858729256286832"><ele>77.0</ele><time>2026-04-04T14:48:11.998Z</time></trkpt><trkpt lat="45.48564414250279" lon="10.858746477181212"><ele>77.0</ele><time>2026-04-04T14:48:12.998Z</time></trkpt><trkpt lat="45.485413760987456" lon="10.858764449165996"><ele>77.5</ele><time>2026-04-04T14:48:13.998Z</time></trkpt><trkpt lat="45.485181651978436" lon="10.858783841742813"><ele>78.0</ele><time>2026-04-04T14:48:14.998Z</time></trkpt><trkpt lat="45.48494967042217" lon="10.858803115689328"><ele>78.0</ele><time>2026-04-04T14:48:15.998Z</time></trkpt><trkpt lat="45.48471589104718" lon="10.858822835374946"><ele>78.0</ele><time>2026-04-04T14:48:16.998Z</time></trkpt><trkpt lat="45.48448296660322" lon="10.858841933824554"><ele>78.5</ele><time>2026-04-04T14:48:17.998Z</time></trkpt><trkpt lat="45.484244947959674" lon="10.85885993592333"><ele>79.0</ele><time>2026-04-04T14:48:18.998Z</time></trkpt><trkpt lat="45.48400708498531" lon="10.85887983489204"><ele>79.0</ele><time>2026-04-04T14:48:19.998Z</time></trkpt><trkpt lat="45.48376991412209" lon="10.858898863848648"><ele>79.0</ele><time>2026-04-04T14:48:20.998Z</time></trkpt><trkpt lat="45.48353189920279" lon="10.8589165235632"><ele>78.0</ele><time>2026-04-04T14:48:21.998Z</time></trkpt><trkpt lat="45.48329896849412" lon="10.858932387571722"><ele>77.0</ele><time>2026-04-04T14:48:22.998Z</time></trkpt><trkpt lat="45.483063464888176" lon="10.858952440016068"><ele>77.5</ele><time>2026-04-04T14:48:23.998Z</time></trkpt><trkpt lat="45.48282588154102" lon="10.85896929951652"><ele>78.0</ele><time>2026-04-04T14:48:24.998Z</time></trkpt><trkpt lat="45.48259395111019" lon="10.858986329953588"><ele>78.0</ele><time>2026-04-04T14:48:26Z</time></trkpt><trkpt lat="45.48236336789208" lon="10.85900261273734"><ele>78.0</ele><time>2026-04-04T14:48:27Z</time></trkpt><trkpt lat="45.48213321366145" lon="10.85902415010782"><ele>79.0</ele><time>2026-04-04T14:48:28Z</time></trkpt><trkpt lat="45.48190459961818" lon="10.859045478395121"><ele>80.0</ele><time>2026-04-04T14:48:29Z</time></trkpt><trkpt lat="45.481673588893074" lon="10.859064352180965"><ele>80.0</ele><time>2026-04-04T14:48:30Z</time></trkpt><trkpt lat="45.481442557441255" lon="10.859079156088344"><ele>80.0</ele><time>2026-04-04T14:48:31Z</time></trkpt><trkpt lat="45.48120973059565" lon="10.859096133750656"><ele>81.0</ele><time>2026-04-04T14:48:32Z</time></trkpt><trkpt lat="45.4809784781595" lon="10.859113933463638"><ele>82.0</ele><time>2026-04-04T14:48:33Z</time></trkpt><trkpt lat="45.48074530147171" lon="10.859133948196003"><ele>82.0</ele><time>2026-04-04T14:48:34Z</time></trkpt><trkpt lat="45.480514119508435" lon="10.859152923140154"><ele>82.0</ele><time>2026-04-04T14:48:35Z</time></trkpt><trkpt lat="45.480280742741314" lon="10.859170597971936"><ele>81.5</ele><time>2026-04-04T14:48:36Z</time></trkpt><trkpt lat="45.480048910610485" lon="10.859191716458339"><ele>81.0</ele><time>2026-04-04T14:48:37Z</time></trkpt><trkpt lat="45.479819479632845" lon="10.859210090108014"><ele>80.0</ele><time>2026-04-04T14:48:38Z</time></trkpt><trkpt lat="45.479591220830706" lon="10.85923006957952"><ele>79.0</ele><time>2026-04-04T14:48:39Z</time></trkpt><trkpt lat="45.479361674219476" lon="10.859259502210282"><ele>79.0</ele><time>2026-04-04T14:48:40Z</time></trkpt><trkpt lat="45.47913400473723" lon="10.85931396340674"><ele>79.0</ele><time>2026-04-04T14:48:41Z</time></trkpt><trkpt lat="45.478905521331086" lon="10.859396353152109"><ele>78.0</ele><time>2026-04-04T14:48:42Z</time></trkpt><trkpt lat="45.47868568268894" lon="10.85949753300869"><ele>77.0</ele><time>2026-04-04T14:48:43Z</time></trkpt><trkpt lat="45.47846641760931" lon="10.859608362428641"><ele>77.0</ele><time>2026-04-04T14:48:44Z</time></trkpt><trkpt lat="45.47824964326067" lon="10.85973152560597"><ele>77.0</ele><time>2026-04-04T14:48:45Z</time></trkpt><trkpt lat="45.47802677096912" lon="10.85984982143394"><ele>80.0</ele><time>2026-04-04T14:48:46Z</time></trkpt><trkpt lat="45.4778079321401" lon="10.85996953367239"><ele>83.0</ele><time>2026-04-04T14:48:47Z</time></trkpt><trkpt lat="45.477597178738165" lon="10.86009903544033"><ele>83.5</ele><time>2026-04-04T14:48:48Z</time></trkpt><trkpt lat="45.477382989648696" lon="10.860220072355546"><ele>84.0</ele><time>2026-04-04T14:48:49Z</time></trkpt><trkpt lat="45.47716860138625" lon="10.860337078468191"><ele>86.5</ele><time>2026-04-04T14:48:50Z</time></trkpt><trkpt lat="45.47696152376496" lon="10.860459431956413"><ele>89.0</ele><time>2026-04-04T14:48:51Z</time></trkpt><trkpt lat="45.47673958770802" lon="10.860564924813474"><ele>89.0</ele><time>2026-04-04T14:48:52Z</time></trkpt><trkpt lat="45.47653483864253" lon="10.860695529245612"><ele>89.0</ele><time>2026-04-04T14:48:53Z</time></trkpt><trkpt lat="45.47632581737223" lon="10.860813986991449"><ele>89.0</ele><time>2026-04-04T14:48:54Z</time></trkpt><trkpt lat="45.47611978532231" lon="10.8609327358405"><ele>88.66666666666667</ele><time>2026-04-04T14:48:55Z</time></trkpt><trkpt lat="45.475914306743476" lon="10.86104278230254"><ele>88.33333333333333</ele><time>2026-04-04T14:48:56Z</time></trkpt><trkpt lat="45.475707659968464" lon="10.8611587202652"><ele>88.0</ele><time>2026-04-04T14:48:57Z</time></trkpt><trkpt lat="45.475498973561876" lon="10.86127255693682"><ele>88.0</ele><time>2026-04-04T14:48:58Z</time></trkpt><trkpt lat="45.47529944231013" lon="10.861380622431179"><ele>88.0</ele><time>2026-04-04T14:48:59Z</time></trkpt><trkpt lat="45.4750888867713" lon="10.86149917690418"><ele>88.0</ele><time>2026-04-04T14:49:00Z</time></trkpt><trkpt lat="45.474884619254894" lon="10.861618449029281"><ele>88.0</ele><time>2026-04-04T14:49:01Z</time></trkpt><trkpt lat="45.47467493677169" lon="10.861724732037631"><ele>88.0</ele><time>2026-04-04T14:49:02Z</time></trkpt><trkpt lat="45.474459121205605" lon="10.861843490440906"><ele>87.5</ele><time>2026-04-04T14:49:03Z</time></trkpt><trkpt lat="45.47424956642419" lon="10.861961576645339"><ele>87.0</ele><time>2026-04-04T14:49:04Z</time></trkpt><trkpt lat="45.474038443090656" lon="10.862080579408055"><ele>87.0</ele><time>2026-04-04T14:49:05Z</time></trkpt><trkpt lat="45.47383053741792" lon="10.862199397159788"><ele>87.0</ele><time>2026-04-04T14:49:06Z</time></trkpt><trkpt lat="45.47361983437508" lon="10.862313610225595"><ele>87.0</ele><time>2026-04-04T14:49:06.999Z</time></trkpt><trkpt lat="45.47341137589748" lon="10.862428507081539"><ele>87.0</ele><time>2026-04-04T14:49:07.999Z</time></trkpt><trkpt lat="45.47320240255913" lon="10.862540095399808"><ele>87.0</ele><time>2026-04-04T14:49:08.999Z</time></trkpt><trkpt lat="45.47299566130034" lon="10.862656622827462"><ele>87.0</ele><time>2026-04-04T14:49:09.999Z</time></trkpt><trkpt lat="45.47278658287503" lon="10.862772413448244"><ele>87.33333333333333</ele><time>2026-04-04T14:49:10.999Z</time></trkpt><trkpt lat="45.472579940542545" lon="10.862887987931583"><ele>87.66666666666666</ele><time>2026-04-04T14:49:11.999Z</time></trkpt><trkpt lat="45.472374534701345" lon="10.86300040325344"><ele>88.0</ele><time>2026-04-04T14:49:12.999Z</time></trkpt><trkpt lat="45.47216810097538" lon="10.863111548735057"><ele>88.33333333333333</ele><time>2026-04-04T14:49:13.999Z</time></trkpt><trkpt lat="45.47196337889609" lon="10.863224977141389"><ele>88.66666666666667</ele><time>2026-04-04T14:49:14.999Z</time></trkpt><trkpt lat="45.47175393473124" lon="10.863339361479701"><ele>89.0</ele><time>2026-04-04T14:49:15.999Z</time></trkpt><trkpt lat="45.471543562098574" lon="10.863455465908302"><ele>89.0</ele><time>2026-04-04T14:49:16.999Z</time></trkpt><trkpt lat="45.471332727198906" lon="10.863567546444557"><ele>89.0</ele><time>2026-04-04T14:49:17.999Z</time></trkpt><trkpt lat="45.47112266977098" lon="10.863687198945852"><ele>90.5</ele><time>2026-04-04T14:49:18.999Z</time></trkpt><trkpt lat="45.47090943815945" lon="10.86380974305275"><ele>92.0</ele><time>2026-04-04T14:49:19.999Z</time></trkpt><trkpt lat="45.470696408205725" lon="10.863928545601919"><ele>92.0</ele><time>2026-04-04T14:49:20.999Z</time></trkpt><trkpt lat="45.47048203559709" lon="10.86404487153896"><ele>92.0</ele><time>2026-04-04T14:49:21.999Z</time></trkpt><trkpt lat="45.47026939385963" lon="10.864160392786289"><ele>93.5</ele><time>2026-04-04T14:49:22.999Z</time></trkpt><trkpt lat="45.47005377330005" lon="10.864280473451602"><ele>95.0</ele><time>2026-04-04T14:49:23.999Z</time></trkpt><trkpt lat="45.469831454738774" lon="10.864397993188904"><ele>95.0</ele><time>2026-04-04T14:49:24.999Z</time></trkpt><trkpt lat="45.46961114426934" lon="10.864519363733645"><ele>95.0</ele><time>2026-04-04T14:49:25.999Z</time></trkpt><trkpt lat="45.46939038100269" lon="10.864640644069743"><ele>100.5</ele><time>2026-04-04T14:49:26.999Z</time></trkpt><trkpt lat="45.46916894216342" lon="10.86476352950964"><ele>106.0</ele><time>2026-04-04T14:49:27.999Z</time></trkpt><trkpt lat="45.46895027459381" lon="10.864882379814544"><ele>108.0</ele><time>2026-04-04T14:49:28.999Z</time></trkpt><trkpt lat="45.468732296795864" lon="10.864999711056512"><ele>110.0</ele><time>2026-04-04T14:49:29.999Z</time></trkpt><trkpt lat="45.46851655853793" lon="10.865122090032472"><ele>110.0</ele><time>2026-04-04T14:49:30.999Z</time></trkpt><trkpt lat="45.46831035131483" lon="10.865243831550657"><ele>110.0</ele><time>2026-04-04T14:49:31.999Z</time></trkpt><trkpt lat="45.46810643684778" lon="10.865346855646314"><ele>110.0</ele><time>2026-04-04T14:49:32.999Z</time></trkpt><trkpt lat="45.467903261029356" lon="10.865454961631892"><ele>110.0</ele><time>2026-04-04T14:49:33.999Z</time></trkpt><trkpt lat="45.46770141031269" lon="10.865563008816485"><ele>110.0</ele><time>2026-04-04T14:49:34.999Z</time></trkpt><trkpt lat="45.46750108246099" lon="10.865679018547535"><ele>110.0</ele><time>2026-04-04T14:49:35.999Z</time></trkpt><trkpt lat="45.46729997497153" lon="10.865791613161727"><ele>110.0</ele><time>2026-04-04T14:49:36.999Z</time></trkpt><trkpt lat="45.46709797944444" lon="10.865906403556446"><ele>110.0</ele><time>2026-04-04T14:49:37.999Z</time></trkpt><trkpt lat="45.46689299900051" lon="10.866026790176768"><ele>110.0</ele><time>2026-04-04T14:49:38.999Z</time></trkpt><trkpt lat="45.466688036893856" lon="10.866140745433047"><ele>110.0</ele><time>2026-04-04T14:49:39.999Z</time></trkpt><trkpt lat="45.46647959492707" lon="10.86625857858836"><ele>110.0</ele><time>2026-04-04T14:49:40.999Z</time></trkpt><trkpt lat="45.46627152788999" lon="10.866378015751428"><ele>110.0</ele><time>2026-04-04T14:49:41.999Z</time></trkpt><trkpt lat="45.46605861369588" lon="10.866495040862391"><ele>111.0</ele><time>2026-04-04T14:49:42.999Z</time></trkpt><trkpt lat="45.465844099539765" lon="10.866611399831195"><ele>112.0</ele><time>2026-04-04T14:49:43.999Z</time></trkpt><trkpt lat="45.4656297343382" lon="10.866729545981459"><ele>111.0</ele><time>2026-04-04T14:49:44.999Z</time></trkpt><trkpt lat="45.465412337197755" lon="10.866845391683645"><ele>110.0</ele><time>2026-04-04T14:49:45.999Z</time></trkpt><trkpt lat="45.46519312625122" lon="10.866964376849578"><ele>110.0</ele><time>2026-04-04T14:49:46.999Z</time></trkpt><trkpt lat="45.46497065030288" lon="10.867082264375538"><ele>110.0</ele><time>2026-04-04T14:49:47.999Z</time></trkpt><trkpt lat="45.464746894133995" lon="10.86720837516558"><ele>111.5</ele><time>2026-04-04T14:49:48.999Z</time></trkpt><trkpt lat="45.46452188636605" lon="10.867329796606185"><ele>113.0</ele><time>2026-04-04T14:49:49.999Z</time></trkpt><trkpt lat="45.46430248117789" lon="10.867455560176394"><ele>113.0</ele><time>2026-04-04T14:49:50.999Z</time></trkpt><trkpt lat="45.464082333240206" lon="10.867580390798087"><ele>113.0</ele><time>2026-04-04T14:49:51.999Z</time></trkpt><trkpt lat="45.46386490537299" lon="10.867706086474046"><ele>114.0</ele><time>2026-04-04T14:49:52.999Z</time></trkpt><trkpt lat="45.46365640167538" lon="10.867829077320254"><ele>115.0</ele><time>2026-04-04T14:49:53.999Z</time></trkpt><trkpt lat="45.46345446576607" lon="10.867946387315916"><ele>116.0</ele><time>2026-04-04T14:49:54.999Z</time></trkpt><trkpt lat="45.46325772751207" lon="10.86805847349771"><ele>116.0</ele><time>2026-04-04T14:49:55.999Z</time></trkpt><trkpt lat="45.46305879932869" lon="10.86816707356679"><ele>116.0</ele><time>2026-04-04T14:49:56.999Z</time></trkpt><trkpt lat="45.462867043923204" lon="10.86827580061164"><ele>116.0</ele><time>2026-04-04T14:49:57.999Z</time></trkpt><trkpt lat="45.462681901384855" lon="10.868384535469223"><ele>113.66666666666666</ele><time>2026-04-04T14:49:58.999Z</time></trkpt><trkpt lat="45.46250381561402" lon="10.868504987440332"><ele>111.33333333333334</ele><time>2026-04-04T14:49:59.999Z</time></trkpt><trkpt lat="45.46231637167614" lon="10.868623173647281"><ele>109.0</ele><time>2026-04-04T14:50:00.999Z</time></trkpt><trkpt lat="45.462136709948076" lon="10.86875811197236"><ele>109.66666666666667</ele><time>2026-04-04T14:50:01.999Z</time></trkpt><trkpt lat="45.46195419178344" lon="10.868897595998092"><ele>110.33333333333334</ele><time>2026-04-04T14:50:02.999Z</time></trkpt><trkpt lat="45.46177785035245" lon="10.869042841923953"><ele>111.0</ele><time>2026-04-04T14:50:03.999Z</time></trkpt><trkpt lat="45.461604685484716" lon="10.869197796978684"><ele>110.66666666666666</ele><time>2026-04-04T14:50:04.998Z</time></trkpt><trkpt lat="45.46143495414276" lon="10.869365986595444"><ele>110.33333333333333</ele><time>2026-04-04T14:50:05.998Z</time></trkpt><trkpt lat="45.46126744815997" lon="10.869539287711993"><ele>110.0</ele><time>2026-04-04T14:50:06.998Z</time></trkpt><trkpt lat="45.461103520826526" lon="10.869721737500399"><ele>110.0</ele><time>2026-04-04T14:50:07.998Z</time></trkpt><trkpt lat="45.4609436477703" lon="10.869912016544001"><ele>110.0</ele><time>2026-04-04T14:50:08.998Z</time></trkpt><trkpt lat="45.460783179879435" lon="10.870111616833842"><ele>110.0</ele><time>2026-04-04T14:50:09.998Z</time></trkpt><trkpt lat="45.46063385504629" lon="10.870322906640535"><ele>110.0</ele><time>2026-04-04T14:50:10.998Z</time></trkpt><trkpt lat="45.46049060958636" lon="10.870536726369833"><ele>110.0</ele><time>2026-04-04T14:50:11.998Z</time></trkpt><trkpt lat="45.46035498802927" lon="10.870753416598577"><ele>110.0</ele><time>2026-04-04T14:50:12.998Z</time></trkpt><trkpt lat="45.46022462747836" lon="10.87097015596949"><ele>110.33333333333333</ele><time>2026-04-04T14:50:13.998Z</time></trkpt><trkpt lat="45.46010059609658" lon="10.87118393036505"><ele>110.66666666666666</ele><time>2026-04-04T14:50:14.998Z</time></trkpt><trkpt lat="45.45998224812629" lon="10.871396522710643"><ele>111.0</ele><time>2026-04-04T14:50:15.998Z</time></trkpt><trkpt lat="45.459868622960684" lon="10.871610684864036"><ele>110.33333333333334</ele><time>2026-04-04T14:50:16.998Z</time></trkpt><trkpt lat="45.45975869865477" lon="10.871818962717208"><ele>109.66666666666667</ele><time>2026-04-04T14:50:17.998Z</time></trkpt><trkpt lat="45.45964984939978" lon="10.872026522348635"><ele>109.0</ele><time>2026-04-04T14:50:18.998Z</time></trkpt><trkpt lat="45.45954681339833" lon="10.872229705318956"><ele>109.0</ele><time>2026-04-04T14:50:19.998Z</time></trkpt><trkpt lat="45.45944560933824" lon="10.872431348692302"><ele>109.0</ele><time>2026-04-04T14:50:20.998Z</time></trkpt><trkpt lat="45.45934750654356" lon="10.872626254298181"><ele>109.0</ele><time>2026-04-04T14:50:21.998Z</time></trkpt><trkpt lat="45.4592525301234" lon="10.872810130075452"><ele>109.0</ele><time>2026-04-04T14:50:22.998Z</time></trkpt><trkpt lat="45.45916266950267" lon="10.872989128534355"><ele>109.0</ele><time>2026-04-04T14:50:23.998Z</time></trkpt><trkpt lat="45.45907249502112" lon="10.873157254423857"><ele>109.0</ele><time>2026-04-04T14:50:24.998Z</time></trkpt><trkpt lat="45.45898159941681" lon="10.873326741244055"><ele>108.5</ele><time>2026-04-04T14:50:25.998Z</time></trkpt><trkpt lat="45.45889499391718" lon="10.873489868764349"><ele>108.0</ele><time>2026-04-04T14:50:26.998Z</time></trkpt><trkpt lat="45.4588131004544" lon="10.87364550241372"><ele>107.5</ele><time>2026-04-04T14:50:27.998Z</time></trkpt><trkpt lat="45.45873756073081" lon="10.873788169362388"><ele>107.0</ele><time>2026-04-04T14:50:28.998Z</time></trkpt><trkpt lat="45.45867088687705" lon="10.873908392487124"><ele>106.99999999999999</ele><time>2026-04-04T14:50:29.998Z</time></trkpt><trkpt lat="45.45860120600261" lon="10.874002622316633"><ele>107.0</ele><time>2026-04-04T14:50:30.998Z</time></trkpt><trkpt lat="45.458538315805214" lon="10.874082380522013"><ele>107.0</ele><time>2026-04-04T14:50:32Z</time></trkpt><trkpt lat="45.45847531258823" lon="10.874144570349543"><ele>107.0</ele><time>2026-04-04T14:50:33Z</time></trkpt><trkpt lat="45.458426955414616" lon="10.874206198962847"><ele>106.99999999999999</ele><time>2026-04-04T14:50:34Z</time></trkpt><trkpt lat="45.45836561132629" lon="10.874329084118004"><ele>107.0</ele><time>2026-04-04T14:50:36Z</time></trkpt><trkpt lat="45.458326755173566" lon="10.874412593876206"><ele>106.6</ele><time>2026-04-04T14:50:38Z</time></trkpt><trkpt lat="45.45828802844454" lon="10.874546706213307"><ele>106.19999999999999</ele><time>2026-04-04T15:00:55.998Z</time></trkpt><trkpt lat="45.45825624226737" lon="10.874628561380465"><ele>105.8</ele><time>2026-04-04T15:00:56.998Z</time></trkpt><trkpt lat="45.45821806653798" lon="10.874753972373604"><ele>105.4</ele><time>2026-04-04T15:00:57.998Z</time></trkpt><trkpt lat="45.458165422857704" lon="10.874915303453877"><ele>105.0</ele><time>2026-04-04T15:00:58.998Z</time></trkpt><trkpt lat="45.45809882675787" lon="10.875097314760195"><ele>105.33333333333334</ele><time>2026-04-04T15:00:59.998Z</time></trkpt><trkpt lat="45.458002692598235" lon="10.87530774609172"><ele>105.66666666666667</ele><time>2026-04-04T15:01:00.998Z</time></trkpt><trkpt lat="45.45787284017051" lon="10.875590849667605"><ele>106.0</ele><time>2026-04-04T15:01:02Z</time></trkpt><trkpt lat="45.45772450397393" lon="10.875898826805717"><ele>105.0</ele><time>2026-04-04T15:01:03Z</time></trkpt><trkpt lat="45.45755757433857" lon="10.876217695810173"><ele>104.0</ele><time>2026-04-04T15:01:04Z</time></trkpt><trkpt lat="45.45741646582075" lon="10.876495632829144"><ele>104.0</ele><time>2026-04-04T15:01:05Z</time></trkpt><trkpt lat="45.457293972192495" lon="10.876735630283028"><ele>104.0</ele><time>2026-04-04T15:01:06Z</time></trkpt><trkpt lat="45.457179184259914" lon="10.876959038694583"><ele>104.0</ele><time>2026-04-04T15:01:07Z</time></trkpt><trkpt lat="45.457071419452774" lon="10.877162094224863"><ele>103.33333333333333</ele><time>2026-04-04T15:01:08Z</time></trkpt><trkpt lat="45.4569711338035" lon="10.877344964742052"><ele>102.66666666666666</ele><time>2026-04-04T15:01:09Z</time></trkpt><trkpt lat="45.4568712184339" lon="10.877511306527305"><ele>102.0</ele><time>2026-04-04T15:01:10Z</time></trkpt><trkpt lat="45.45675318349996" lon="10.877675686576138"><ele>101.5</ele><time>2026-04-04T15:01:11Z</time></trkpt><trkpt lat="45.4566437304821" lon="10.877836616841348"><ele>101.0</ele><time>2026-04-04T15:01:12Z</time></trkpt><trkpt lat="45.45654540856123" lon="10.877966863654015"><ele>100.5</ele><time>2026-04-04T15:01:13Z</time></trkpt><trkpt lat="45.456442673709255" lon="10.87806854381949"><ele>100.0</ele><time>2026-04-04T15:01:14Z</time></trkpt><trkpt lat="45.456337945922684" lon="10.878161369555668"><ele>100.0</ele><time>2026-04-04T15:01:15Z</time></trkpt><trkpt lat="45.45622078035642" lon="10.878236203912076"><ele>100.0</ele><time>2026-04-04T15:01:16Z</time></trkpt><trkpt lat="45.45608742689467" lon="10.87828536745202"><ele>100.0</ele><time>2026-04-04T15:01:17Z</time></trkpt><trkpt lat="45.455943575300594" lon="10.878305552744257"><ele>100.0</ele><time>2026-04-04T15:01:18Z</time></trkpt><trkpt lat="45.455795739977155" lon="10.878288562943272"><ele>100.0</ele><time>2026-04-04T15:01:19Z</time></trkpt><trkpt lat="45.4556604250232" lon="10.878250189194116"><ele>100.0</ele><time>2026-04-04T15:01:20Z</time></trkpt><trkpt lat="45.45552293052522" lon="10.87816913091825"><ele>100.0</ele><time>2026-04-04T15:01:21Z</time></trkpt><trkpt lat="45.45540154218422" lon="10.878073974330055"><ele>100.0</ele><time>2026-04-04T15:01:22Z</time></trkpt><trkpt lat="45.45530035109245" lon="10.877990233121167"><ele>100.5</ele><time>2026-04-04T15:01:23Z</time></trkpt><trkpt lat="45.45520781548875" lon="10.877910816238249"><ele>101.0</ele><time>2026-04-04T15:01:24Z</time></trkpt><trkpt lat="45.45511217228702" lon="10.877813142385653"><ele>101.5</ele><time>2026-04-04T15:01:25Z</time></trkpt><trkpt lat="45.45502129984505" lon="10.877673528836159"><ele>102.0</ele><time>2026-04-04T15:01:26Z</time></trkpt><trkpt lat="45.45493657577309" lon="10.877498622955425"><ele>102.0</ele><time>2026-04-04T15:01:27Z</time></trkpt><trkpt lat="45.45485471291523" lon="10.877354357206876"><ele>102.0</ele><time>2026-04-04T15:01:28Z</time></trkpt><trkpt lat="45.45475768388807" lon="10.877265484598347"><ele>102.0</ele><time>2026-04-04T15:01:29Z</time></trkpt><trkpt lat="45.454643415144744" lon="10.877216195137269"><ele>102.0</ele><time>2026-04-04T15:01:30Z</time></trkpt><trkpt lat="45.45452195931819" lon="10.877214649540504"><ele>102.25</ele><time>2026-04-04T15:01:31Z</time></trkpt><trkpt lat="45.45440547797361" lon="10.877255193069123"><ele>102.5</ele><time>2026-04-04T15:01:32Z</time></trkpt><trkpt lat="45.45431517652498" lon="10.877344015732877"><ele>102.75</ele><time>2026-04-04T15:01:33Z</time></trkpt><trkpt lat="45.454251130644856" lon="10.877466658145835"><ele>103.0</ele><time>2026-04-04T15:01:34Z</time></trkpt><trkpt lat="45.454193609838676" lon="10.877607065823046"><ele>103.25</ele><time>2026-04-04T15:01:35Z</time></trkpt><trkpt lat="45.454144567564015" lon="10.8777962927082"><ele>103.5</ele><time>2026-04-04T15:01:36Z</time></trkpt><trkpt lat="45.45410261476289" lon="10.877979348647301"><ele>103.75</ele><time>2026-04-04T15:01:37Z</time></trkpt><trkpt lat="45.45403420324299" lon="10.878117351301077"><ele>104.0</ele><time>2026-04-04T15:01:38Z</time></trkpt><trkpt lat="45.453972365178245" lon="10.878264759995705"><ele>104.0</ele><time>2026-04-04T15:01:39Z</time></trkpt><trkpt lat="45.453779623834016" lon="10.878296126445969"><ele>104.0</ele><time>2026-04-04T15:01:40Z</time></trkpt><trkpt lat="45.4536676705875" lon="10.878425285005251"><ele>104.0</ele><time>2026-04-04T15:01:41Z</time></trkpt><trkpt lat="45.4535653122672" lon="10.87858917886686"><ele>103.66666666666666</ele><time>2026-04-04T15:01:41.999Z</time></trkpt><trkpt lat="45.45345932586024" lon="10.878827786108689"><ele>103.33333333333334</ele><time>2026-04-04T15:01:42.999Z</time></trkpt><trkpt lat="45.45333681774455" lon="10.87908323213162"><ele>103.0</ele><time>2026-04-04T15:01:43.999Z</time></trkpt><trkpt lat="45.453219758583835" lon="10.87933591529537"><ele>102.33333333333334</ele><time>2026-04-04T15:01:44.999Z</time></trkpt><trkpt lat="45.45311720170916" lon="10.87956199304893"><ele>101.66666666666666</ele><time>2026-04-04T15:01:45.999Z</time></trkpt><trkpt lat="45.4530179805482" lon="10.879780731773863"><ele>101.0</ele><time>2026-04-04T15:01:46.999Z</time></trkpt><trkpt lat="45.45292412405395" lon="10.879987644801686"><ele>101.0</ele><time>2026-04-04T15:01:47.999Z</time></trkpt><trkpt lat="45.45283345827732" lon="10.880190121682784"><ele>101.0</ele><time>2026-04-04T15:01:48.999Z</time></trkpt><trkpt lat="45.452750631777306" lon="10.880397327906199"><ele>101.0</ele><time>2026-04-04T15:01:49.999Z</time></trkpt><trkpt lat="45.45265759018127" lon="10.880587129055032"><ele>101.0</ele><time>2026-04-04T15:01:50.999Z</time></trkpt><trkpt lat="45.452548050882605" lon="10.88075935693317"><ele>101.0</ele><time>2026-04-04T15:01:51.999Z</time></trkpt><trkpt lat="45.452438105503376" lon="10.88089615091591"><ele>101.0</ele><time>2026-04-04T15:01:52.999Z</time></trkpt><trkpt lat="45.45235657323936" lon="10.881039639397754"><ele>101.0</ele><time>2026-04-04T15:01:53.999Z</time></trkpt><trkpt lat="45.45227301369188" lon="10.881161391982408"><ele>101.0</ele><time>2026-04-04T15:01:54.999Z</time></trkpt><trkpt lat="45.45219553970424" lon="10.881266877881028"><ele>101.0</ele><time>2026-04-04T15:01:55.999Z</time></trkpt><trkpt lat="45.452127730601156" lon="10.881371362179674"><ele>101.0</ele><time>2026-04-04T15:01:56.999Z</time></trkpt><trkpt lat="45.45205929197545" lon="10.881462527259549"><ele>101.0</ele><time>2026-04-04T15:01:57.999Z</time></trkpt><trkpt lat="45.45199605356077" lon="10.881543476036288"><ele>101.0</ele><time>2026-04-04T15:01:58.999Z</time></trkpt><trkpt lat="45.45193014478472" lon="10.881624758242936"><ele>100.6</ele><time>2026-04-04T15:01:59.999Z</time></trkpt><trkpt lat="45.451883550636246" lon="10.881749478912848"><ele>100.19999999999999</ele><time>2026-04-04T15:02:00.999Z</time></trkpt><trkpt lat="45.451929574202104" lon="10.881930613523679"><ele>99.80000000000001</ele><time>2026-04-04T15:02:01.999Z</time></trkpt><trkpt lat="45.45192984764035" lon="10.88207584870031"><ele>99.4</ele><time>2026-04-04T15:02:02.999Z</time></trkpt><trkpt lat="45.45194148200311" lon="10.882190892401237"><ele>99.0</ele><time>2026-04-04T15:02:03.999Z</time></trkpt><trkpt lat="45.451948709466436" lon="10.882309734245508"><ele>99.0</ele><time>2026-04-04T15:02:04.999Z</time></trkpt><trkpt lat="45.451943839508466" lon="10.882458925516408"><ele>99.0</ele><time>2026-04-04T15:02:05.999Z</time></trkpt><trkpt lat="45.4518888966294" lon="10.88262829233914"><ele>99.0</ele><time>2026-04-04T15:02:06.999Z</time></trkpt><trkpt lat="45.45178414307567" lon="10.882810492313862"><ele>99.0</ele><time>2026-04-04T15:02:07.999Z</time></trkpt><trkpt lat="45.451629386581295" lon="10.883019062498088"><ele>100.0</ele><time>2026-04-04T15:02:08.999Z</time></trkpt><trkpt lat="45.45144899923863" lon="10.883238439860945"><ele>101.0</ele><time>2026-04-04T15:02:09.999Z</time></trkpt><trkpt lat="45.45127979058986" lon="10.883465857039663"><ele>101.33333333333333</ele><time>2026-04-04T15:02:10.999Z</time></trkpt><trkpt lat="45.45114556178553" lon="10.883666541691793"><ele>101.66666666666666</ele><time>2026-04-04T15:02:11.999Z</time></trkpt><trkpt lat="45.451019837473886" lon="10.883859847215584"><ele>102.0</ele><time>2026-04-04T15:02:12.999Z</time></trkpt><trkpt lat="45.45091534818371" lon="10.884065013007909"><ele>101.33333333333334</ele><time>2026-04-04T15:02:13.999Z</time></trkpt><trkpt lat="45.45084031238726" lon="10.884288624189622"><ele>100.66666666666667</ele><time>2026-04-04T15:02:14.999Z</time></trkpt><trkpt lat="45.45078443357945" lon="10.88453810098332"><ele>100.0</ele><time>2026-04-04T15:02:15.999Z</time></trkpt><trkpt lat="45.45074510493146" lon="10.884798912109652"><ele>100.0</ele><time>2026-04-04T15:02:16.999Z</time></trkpt><trkpt lat="45.45073782614685" lon="10.885082159439794"><ele>100.0</ele><time>2026-04-04T15:02:17.999Z</time></trkpt><trkpt lat="45.45074090330147" lon="10.88539968422731"><ele>100.0</ele><time>2026-04-04T15:02:18.999Z</time></trkpt><trkpt lat="45.45075603824986" lon="10.885746124549277"><ele>100.0</ele><time>2026-04-04T15:02:19.999Z</time></trkpt><trkpt lat="45.45075392852167" lon="10.886133965812933"><ele>100.0</ele><time>2026-04-04T15:02:20.999Z</time></trkpt><trkpt lat="45.450766733595486" lon="10.886552865365191"><ele>100.0</ele><time>2026-04-04T15:02:21.999Z</time></trkpt><trkpt lat="45.45077956231354" lon="10.886954335240237"><ele>100.0</ele><time>2026-04-04T15:02:22.999Z</time></trkpt><trkpt lat="45.45079165265658" lon="10.887276706514232"><ele>99.5</ele><time>2026-04-04T15:02:23.999Z</time></trkpt><trkpt lat="45.45081381354414" lon="10.887614899390657"><ele>99.0</ele><time>2026-04-04T15:02:24.999Z</time></trkpt><trkpt lat="45.450843982947724" lon="10.887925514823758"><ele>99.0</ele><time>2026-04-04T15:02:25.999Z</time></trkpt><trkpt lat="45.450884262373116" lon="10.888213993822923"><ele>99.0</ele><time>2026-04-04T15:02:26.999Z</time></trkpt><trkpt lat="45.45094370293345" lon="10.888482183039384"><ele>99.0</ele><time>2026-04-04T15:02:27.999Z</time></trkpt><trkpt lat="45.450969082108244" lon="10.888762610998405"><ele>99.0</ele><time>2026-04-04T15:02:28.999Z</time></trkpt><trkpt lat="45.451011643118264" lon="10.889050130150968"><ele>99.0</ele><time>2026-04-04T15:02:29.999Z</time></trkpt><trkpt lat="45.45105250336284" lon="10.88934862491893"><ele>99.0</ele><time>2026-04-04T15:02:30.999Z</time></trkpt><trkpt lat="45.45108981955805" lon="10.889675207613696"><ele>98.5</ele><time>2026-04-04T15:02:31.999Z</time></trkpt><trkpt lat="45.451112080590576" lon="10.89002197799821"><ele>98.0</ele><time>2026-04-04T15:02:32.999Z</time></trkpt><trkpt lat="45.45116266810729" lon="10.890380791973103"><ele>98.0</ele><time>2026-04-04T15:02:33.999Z</time></trkpt><trkpt lat="45.45117485805243" lon="10.890757549575943"><ele>98.0</ele><time>2026-04-04T15:02:34.999Z</time></trkpt><trkpt lat="45.45118580378012" lon="10.89114923549823"><ele>98.0</ele><time>2026-04-04T15:02:35.999Z</time></trkpt><trkpt lat="45.45118463038484" lon="10.891537072445468"><ele>98.0</ele><time>2026-04-04T15:02:36.999Z</time></trkpt><trkpt lat="45.45120289269002" lon="10.891889548946109"><ele>98.0</ele><time>2026-04-04T15:02:37.999Z</time></trkpt><trkpt lat="45.451212402342904" lon="10.892217553740233"><ele>98.0</ele><time>2026-04-04T15:02:38.999Z</time></trkpt><trkpt lat="45.451224779814666" lon="10.892515998452295"><ele>98.0</ele><time>2026-04-04T15:02:39.999Z</time></trkpt><trkpt lat="45.45123325554874" lon="10.892801315327617"><ele>98.33333333333333</ele><time>2026-04-04T15:02:40.998Z</time></trkpt><trkpt lat="45.45124577533416" lon="10.893064339711104"><ele>98.66666666666666</ele><time>2026-04-04T15:02:41.998Z</time></trkpt><trkpt lat="45.451255925916" lon="10.893308061578919"><ele>99.0</ele><time>2026-04-04T15:02:42.998Z</time></trkpt><trkpt lat="45.45121339532476" lon="10.893524058255707"><ele>99.0</ele><time>2026-04-04T15:02:43.998Z</time></trkpt><trkpt lat="45.45117167270849" lon="10.893721713730015"><ele>99.0</ele><time>2026-04-04T15:02:44.998Z</time></trkpt><trkpt lat="45.451117575825606" lon="10.893914775664843"><ele>99.0</ele><time>2026-04-04T15:02:45.998Z</time></trkpt><trkpt lat="45.451080896468035" lon="10.894083504680458"><ele>99.0</ele><time>2026-04-04T15:02:46.998Z</time></trkpt><trkpt lat="45.451021309396715" lon="10.894219279210969"><ele>98.80000000000001</ele><time>2026-04-04T15:02:47.998Z</time></trkpt><trkpt lat="45.450950152575466" lon="10.894337202095139"><ele>98.60000000000001</ele><time>2026-04-04T15:02:48.998Z</time></trkpt><trkpt lat="45.450887009634776" lon="10.894438033335405"><ele>98.4</ele><time>2026-04-04T15:02:49.998Z</time></trkpt><trkpt lat="45.45084927732069" lon="10.894558085596929"><ele>98.2</ele><time>2026-04-04T15:02:50.998Z</time></trkpt><trkpt lat="45.45085127464391" lon="10.894694392233331"><ele>98.0</ele><time>2026-04-04T15:02:51.998Z</time></trkpt><trkpt lat="45.45090204096288" lon="10.894836870520821"><ele>98.0</ele><time>2026-04-04T15:02:52.998Z</time></trkpt><trkpt lat="45.45100009592924" lon="10.894957175889985"><ele>98.0</ele><time>2026-04-04T15:02:53.998Z</time></trkpt><trkpt lat="45.4510512905542" lon="10.895098955234543"><ele>98.0</ele><time>2026-04-04T15:02:54.998Z</time></trkpt><trkpt lat="45.4510782980085" lon="10.89525698950373"><ele>98.0</ele><time>2026-04-04T15:02:55.998Z</time></trkpt><trkpt lat="45.45111029318794" lon="10.89540968093499"><ele>98.0</ele><time>2026-04-04T15:02:56.998Z</time></trkpt><trkpt lat="45.45116347774088" lon="10.895554366550366"><ele>98.0</ele><time>2026-04-04T15:02:57.998Z</time></trkpt><trkpt lat="45.45120826818531" lon="10.89572272547783"><ele>98.0</ele><time>2026-04-04T15:02:58.998Z</time></trkpt><trkpt lat="45.45123475607331" lon="10.895937249778916"><ele>98.0</ele><time>2026-04-04T15:02:59.998Z</time></trkpt><trkpt lat="45.45129101889866" lon="10.896159694605478"><ele>98.0</ele><time>2026-04-04T15:03:00.998Z</time></trkpt><trkpt lat="45.451343138702015" lon="10.89635907488861"><ele>98.0</ele><time>2026-04-04T15:03:01.998Z</time></trkpt><trkpt lat="45.451388846907456" lon="10.896546766091012"><ele>98.0</ele><time>2026-04-04T15:03:02.998Z</time></trkpt><trkpt lat="45.45140734421178" lon="10.896725490336982"><ele>98.0</ele><time>2026-04-04T15:03:03.998Z</time></trkpt><trkpt lat="45.451444518401466" lon="10.896871032778899"><ele>97.80000000000001</ele><time>2026-04-04T15:03:04.998Z</time></trkpt><trkpt lat="45.451468927449625" lon="10.896980593157394"><ele>97.6</ele><time>2026-04-04T15:03:05.998Z</time></trkpt><trkpt lat="45.45149494679295" lon="10.897080534897194"><ele>97.4</ele><time>2026-04-04T15:03:08Z</time></trkpt><trkpt lat="45.451319394394275" lon="10.897150571060182"><ele>97.19999999999999</ele><time>2026-04-04T15:03:11Z</time></trkpt><trkpt lat="45.45123879244398" lon="10.897175388241026"><ele>97.0</ele><time>2026-04-04T15:03:13Z</time></trkpt><trkpt lat="45.451235451412835" lon="10.897409728373752"><ele>97.00000000000001</ele><time>2026-04-04T15:03:14Z</time></trkpt><trkpt lat="45.45122201776438" lon="10.897544577600266"><ele>97.0</ele><time>2026-04-04T15:03:16Z</time></trkpt><trkpt lat="45.45121651412606" lon="10.897636446815975"><ele>97.0</ele><time>2026-04-04T15:03:43Z</time></trkpt><trkpt lat="45.451213433412924" lon="10.897754496056075"><ele>97.0</ele><time>2026-04-04T15:03:45Z</time></trkpt><trkpt lat="45.451212505375054" lon="10.897876361617639"><ele>97.00000000000001</ele><time>2026-04-04T15:03:47Z</time></trkpt><trkpt lat="45.45121137683306" lon="10.89802455671929"><ele>97.0</ele><time>2026-04-04T15:03:48.999Z</time></trkpt><trkpt lat="45.451210470255894" lon="10.898143605224288"><ele>97.16666666666667</ele><time>2026-04-04T15:03:50.999Z</time></trkpt><trkpt lat="45.4512086248231" lon="10.898257069229787"><ele>97.33333333333334</ele><time>2026-04-04T15:03:52.999Z</time></trkpt><trkpt lat="45.45120789221761" lon="10.89814504002718"><ele>97.5</ele><time>2026-04-04T15:04:03.999Z</time></trkpt><trkpt lat="45.451211747468854" lon="10.8979758876068"><ele>97.66666666666666</ele><time>2026-04-04T15:04:07.999Z</time></trkpt><trkpt lat="45.45121246595804" lon="10.897881538641586"><ele>97.83333333333333</ele><time>2026-04-04T15:04:09.999Z</time></trkpt><trkpt lat="45.45121344653331" lon="10.897752773752693"><ele>98.0</ele><time>2026-04-04T15:04:11.999Z</time></trkpt><trkpt lat="45.45121694808062" lon="10.897619571971937"><ele>98.0</ele><time>2026-04-04T15:04:13.999Z</time></trkpt></trkseg></trk></gpx>